<?xml version="1.0" encoding="UTF-8" standalone="no" ?>
<gpx xmlns="http://www.topografix.com/GPX/1/1" xmlns:xsi="http://www.w3.org/2001/XMLSchema-instance" xsi:schemaLocation="http://www.topografix.com/GPX/1/1 http://www.topografix.com/GPX/1/1/gpx.xsd" version="1.1" creator="VisuGPX - https://www.visugpx.com">
  <metadata>
    <name>Bressuiraise Gravel 81.5 kms</name>
  </metadata>
  <trk>
    <name><![CDATA[Bressuiraise Gravel 81.5 kms]]></name>
    <trkseg>
      <trkpt lat="46.83425" lon="-0.49792">
        <ele>166.41</ele>
        <time>2024-06-24T15:31:55.000Z</time>
      </trkpt>
      <trkpt lat="46.83425" lon="-0.49792">
        <ele>166.42</ele>
        <time>2024-06-24T15:31:55.000Z</time>
      </trkpt>
      <trkpt lat="46.83426" lon="-0.498">
        <ele>166.43</ele>
        <time>2024-06-24T15:31:55.001Z</time>
      </trkpt>
      <trkpt lat="46.83425" lon="-0.49803">
        <ele>166.43</ele>
        <time>2024-06-24T15:31:55.003Z</time>
      </trkpt>
      <trkpt lat="46.83424" lon="-0.49805">
        <ele>166.43</ele>
        <time>2024-06-24T15:31:55.005Z</time>
      </trkpt>
      <trkpt lat="46.83424" lon="-0.49808">
        <ele>166.43</ele>
        <time>2024-06-24T15:31:55.007Z</time>
      </trkpt>
      <trkpt lat="46.83424" lon="-0.4981">
        <ele>166.43</ele>
        <time>2024-06-24T15:31:55.010Z</time>
      </trkpt>
      <trkpt lat="46.83422" lon="-0.49812">
        <ele>166.43</ele>
        <time>2024-06-24T15:31:55.013Z</time>
      </trkpt>
      <trkpt lat="46.8342" lon="-0.49815">
        <ele>166.44</ele>
        <time>2024-06-24T15:31:55.017Z</time>
      </trkpt>
      <trkpt lat="46.83418" lon="-0.49818">
        <ele>166.44</ele>
        <time>2024-06-24T15:31:55.021Z</time>
      </trkpt>
      <trkpt lat="46.83414" lon="-0.4982">
        <ele>166.45</ele>
        <time>2024-06-24T15:31:55.026Z</time>
      </trkpt>
      <trkpt lat="46.83411" lon="-0.49821">
        <ele>166.46</ele>
        <time>2024-06-24T15:31:55.032Z</time>
      </trkpt>
      <trkpt lat="46.83407" lon="-0.49822">
        <ele>166.46</ele>
        <time>2024-06-24T15:31:55.038Z</time>
      </trkpt>
      <trkpt lat="46.83404" lon="-0.49822">
        <ele>166.46</ele>
        <time>2024-06-24T15:31:55.045Z</time>
      </trkpt>
      <trkpt lat="46.834" lon="-0.49822">
        <ele>166.46</ele>
        <time>2024-06-24T15:31:55.053Z</time>
      </trkpt>
      <trkpt lat="46.83396" lon="-0.49823">
        <ele>166.46</ele>
        <time>2024-06-24T15:31:55.062Z</time>
      </trkpt>
      <trkpt lat="46.83391" lon="-0.49824">
        <ele>166.44</ele>
        <time>2024-06-24T15:31:55.072Z</time>
      </trkpt>
      <trkpt lat="46.83387" lon="-0.49824">
        <ele>166.43</ele>
        <time>2024-06-24T15:31:55.082Z</time>
      </trkpt>
      <trkpt lat="46.83383" lon="-0.49824">
        <ele>166.41</ele>
        <time>2024-06-24T15:31:55.093Z</time>
      </trkpt>
      <trkpt lat="46.83379" lon="-0.49825">
        <ele>166.39</ele>
        <time>2024-06-24T15:31:55.105Z</time>
      </trkpt>
      <trkpt lat="46.83374" lon="-0.49825">
        <ele>166.37</ele>
        <time>2024-06-24T15:31:55.118Z</time>
      </trkpt>
      <trkpt lat="46.8337" lon="-0.49825">
        <ele>166.34</ele>
        <time>2024-06-24T15:31:55.132Z</time>
      </trkpt>
      <trkpt lat="46.83366" lon="-0.49825">
        <ele>166.31</ele>
        <time>2024-06-24T15:31:55.147Z</time>
      </trkpt>
      <trkpt lat="46.83361" lon="-0.49826">
        <ele>166.28</ele>
        <time>2024-06-24T15:31:55.163Z</time>
      </trkpt>
      <trkpt lat="46.83357" lon="-0.49827">
        <ele>166.25</ele>
        <time>2024-06-24T15:31:55.180Z</time>
      </trkpt>
      <trkpt lat="46.83352" lon="-0.49828">
        <ele>166.21</ele>
        <time>2024-06-24T15:31:55.197Z</time>
      </trkpt>
      <trkpt lat="46.83348" lon="-0.49828">
        <ele>166.17</ele>
        <time>2024-06-24T15:31:55.215Z</time>
      </trkpt>
      <trkpt lat="46.83343" lon="-0.49829">
        <ele>166.13</ele>
        <time>2024-06-24T15:31:55.234Z</time>
      </trkpt>
      <trkpt lat="46.83339" lon="-0.49829">
        <ele>166.08</ele>
        <time>2024-06-24T15:31:55.254Z</time>
      </trkpt>
      <trkpt lat="46.83334" lon="-0.4983">
        <ele>166.04</ele>
        <time>2024-06-24T15:31:55.275Z</time>
      </trkpt>
      <trkpt lat="46.8333" lon="-0.4983">
        <ele>165.99</ele>
        <time>2024-06-24T15:31:55.297Z</time>
      </trkpt>
      <trkpt lat="46.83326" lon="-0.4983">
        <ele>165.94</ele>
        <time>2024-06-24T15:31:55.320Z</time>
      </trkpt>
      <trkpt lat="46.83321" lon="-0.49831">
        <ele>165.89</ele>
        <time>2024-06-24T15:31:55.344Z</time>
      </trkpt>
      <trkpt lat="46.83317" lon="-0.49832">
        <ele>165.84</ele>
        <time>2024-06-24T15:31:55.369Z</time>
      </trkpt>
      <trkpt lat="46.83312" lon="-0.49832">
        <ele>165.79</ele>
        <time>2024-06-24T15:31:55.395Z</time>
      </trkpt>
      <trkpt lat="46.83308" lon="-0.49833">
        <ele>165.75</ele>
        <time>2024-06-24T15:31:55.421Z</time>
      </trkpt>
      <trkpt lat="46.83303" lon="-0.49833">
        <ele>165.71</ele>
        <time>2024-06-24T15:31:55.448Z</time>
      </trkpt>
      <trkpt lat="46.83298" lon="-0.49832">
        <ele>165.67</ele>
        <time>2024-06-24T15:31:55.476Z</time>
      </trkpt>
      <trkpt lat="46.83294" lon="-0.49831">
        <ele>165.63</ele>
        <time>2024-06-24T15:31:55.505Z</time>
      </trkpt>
      <trkpt lat="46.83289" lon="-0.4983">
        <ele>165.59</ele>
        <time>2024-06-24T15:31:55.535Z</time>
      </trkpt>
      <trkpt lat="46.83285" lon="-0.49828">
        <ele>165.56</ele>
        <time>2024-06-24T15:31:55.566Z</time>
      </trkpt>
      <trkpt lat="46.83281" lon="-0.49825">
        <ele>165.53</ele>
        <time>2024-06-24T15:31:55.598Z</time>
      </trkpt>
      <trkpt lat="46.83277" lon="-0.49821">
        <ele>165.5</ele>
        <time>2024-06-24T15:31:55.631Z</time>
      </trkpt>
      <trkpt lat="46.83274" lon="-0.49818">
        <ele>165.47</ele>
        <time>2024-06-24T15:31:55.665Z</time>
      </trkpt>
      <trkpt lat="46.8327" lon="-0.49813">
        <ele>165.44</ele>
        <time>2024-06-24T15:31:55.700Z</time>
      </trkpt>
      <trkpt lat="46.83266" lon="-0.49809">
        <ele>165.41</ele>
        <time>2024-06-24T15:31:55.736Z</time>
      </trkpt>
      <trkpt lat="46.83263" lon="-0.49805">
        <ele>165.38</ele>
        <time>2024-06-24T15:31:55.772Z</time>
      </trkpt>
      <trkpt lat="46.83259" lon="-0.498">
        <ele>165.35</ele>
        <time>2024-06-24T15:31:55.809Z</time>
      </trkpt>
      <trkpt lat="46.83256" lon="-0.49795">
        <ele>165.3</ele>
        <time>2024-06-24T15:31:55.847Z</time>
      </trkpt>
      <trkpt lat="46.83252" lon="-0.49791">
        <ele>165.26</ele>
        <time>2024-06-24T15:31:55.886Z</time>
      </trkpt>
      <trkpt lat="46.83248" lon="-0.49786">
        <ele>165.21</ele>
        <time>2024-06-24T15:31:55.926Z</time>
      </trkpt>
      <trkpt lat="46.83245" lon="-0.49782">
        <ele>165.15</ele>
        <time>2024-06-24T15:31:55.967Z</time>
      </trkpt>
      <trkpt lat="46.83242" lon="-0.49777">
        <ele>165.1</ele>
        <time>2024-06-24T15:31:56.009Z</time>
      </trkpt>
      <trkpt lat="46.83239" lon="-0.49773">
        <ele>165.04</ele>
        <time>2024-06-24T15:31:56.052Z</time>
      </trkpt>
      <trkpt lat="46.83236" lon="-0.49768">
        <ele>164.97</ele>
        <time>2024-06-24T15:31:56.096Z</time>
      </trkpt>
      <trkpt lat="46.83232" lon="-0.49763">
        <ele>164.89</ele>
        <time>2024-06-24T15:31:56.141Z</time>
      </trkpt>
      <trkpt lat="46.83229" lon="-0.4976">
        <ele>164.81</ele>
        <time>2024-06-24T15:31:56.187Z</time>
      </trkpt>
      <trkpt lat="46.83225" lon="-0.49757">
        <ele>164.72</ele>
        <time>2024-06-24T15:31:56.234Z</time>
      </trkpt>
      <trkpt lat="46.8322" lon="-0.49756">
        <ele>164.63</ele>
        <time>2024-06-24T15:31:56.282Z</time>
      </trkpt>
      <trkpt lat="46.83215" lon="-0.49755">
        <ele>164.54</ele>
        <time>2024-06-24T15:31:56.331Z</time>
      </trkpt>
      <trkpt lat="46.83211" lon="-0.49757">
        <ele>164.44</ele>
        <time>2024-06-24T15:31:56.380Z</time>
      </trkpt>
      <trkpt lat="46.83206" lon="-0.49759">
        <ele>164.33</ele>
        <time>2024-06-24T15:31:56.430Z</time>
      </trkpt>
      <trkpt lat="46.83201" lon="-0.49762">
        <ele>164.23</ele>
        <time>2024-06-24T15:31:56.482Z</time>
      </trkpt>
      <trkpt lat="46.83197" lon="-0.49765">
        <ele>164.12</ele>
        <time>2024-06-24T15:31:56.535Z</time>
      </trkpt>
      <trkpt lat="46.83193" lon="-0.49769">
        <ele>164</ele>
        <time>2024-06-24T15:31:56.588Z</time>
      </trkpt>
      <trkpt lat="46.83189" lon="-0.49774">
        <ele>163.88</ele>
        <time>2024-06-24T15:31:56.642Z</time>
      </trkpt>
      <trkpt lat="46.83185" lon="-0.49779">
        <ele>163.76</ele>
        <time>2024-06-24T15:31:56.697Z</time>
      </trkpt>
      <trkpt lat="46.83182" lon="-0.49784">
        <ele>163.64</ele>
        <time>2024-06-24T15:31:56.753Z</time>
      </trkpt>
      <trkpt lat="46.83177" lon="-0.49788">
        <ele>163.51</ele>
        <time>2024-06-24T15:31:56.810Z</time>
      </trkpt>
      <trkpt lat="46.83173" lon="-0.49793">
        <ele>163.37</ele>
        <time>2024-06-24T15:31:56.869Z</time>
      </trkpt>
      <trkpt lat="46.83168" lon="-0.49797">
        <ele>163.22</ele>
        <time>2024-06-24T15:31:56.929Z</time>
      </trkpt>
      <trkpt lat="46.83164" lon="-0.49801">
        <ele>163.08</ele>
        <time>2024-06-24T15:31:56.990Z</time>
      </trkpt>
      <trkpt lat="46.83159" lon="-0.49805">
        <ele>162.92</ele>
        <time>2024-06-24T15:31:57.052Z</time>
      </trkpt>
      <trkpt lat="46.83154" lon="-0.49811">
        <ele>162.76</ele>
        <time>2024-06-24T15:31:57.115Z</time>
      </trkpt>
      <trkpt lat="46.83149" lon="-0.49816">
        <ele>162.59</ele>
        <time>2024-06-24T15:31:57.179Z</time>
      </trkpt>
      <trkpt lat="46.83144" lon="-0.49822">
        <ele>162.41</ele>
        <time>2024-06-24T15:31:57.245Z</time>
      </trkpt>
      <trkpt lat="46.83139" lon="-0.49827">
        <ele>162.23</ele>
        <time>2024-06-24T15:31:57.312Z</time>
      </trkpt>
      <trkpt lat="46.83134" lon="-0.49833">
        <ele>162.04</ele>
        <time>2024-06-24T15:31:57.380Z</time>
      </trkpt>
      <trkpt lat="46.83128" lon="-0.49839">
        <ele>161.84</ele>
        <time>2024-06-24T15:31:57.450Z</time>
      </trkpt>
      <trkpt lat="46.83123" lon="-0.49845">
        <ele>161.64</ele>
        <time>2024-06-24T15:31:57.521Z</time>
      </trkpt>
      <trkpt lat="46.83117" lon="-0.49851">
        <ele>161.43</ele>
        <time>2024-06-24T15:31:57.593Z</time>
      </trkpt>
      <trkpt lat="46.83112" lon="-0.49857">
        <ele>161.22</ele>
        <time>2024-06-24T15:31:57.667Z</time>
      </trkpt>
      <trkpt lat="46.83106" lon="-0.49863">
        <ele>161</ele>
        <time>2024-06-24T15:31:57.742Z</time>
      </trkpt>
      <trkpt lat="46.831" lon="-0.49869">
        <ele>160.77</ele>
        <time>2024-06-24T15:31:57.819Z</time>
      </trkpt>
      <trkpt lat="46.83095" lon="-0.49875">
        <ele>160.55</ele>
        <time>2024-06-24T15:31:57.897Z</time>
      </trkpt>
      <trkpt lat="46.83089" lon="-0.49881">
        <ele>160.32</ele>
        <time>2024-06-24T15:31:57.976Z</time>
      </trkpt>
      <trkpt lat="46.83083" lon="-0.49887">
        <ele>160.1</ele>
        <time>2024-06-24T15:31:58.057Z</time>
      </trkpt>
      <trkpt lat="46.83078" lon="-0.49894">
        <ele>159.88</ele>
        <time>2024-06-24T15:31:58.139Z</time>
      </trkpt>
      <trkpt lat="46.83072" lon="-0.499">
        <ele>159.65</ele>
        <time>2024-06-24T15:31:58.223Z</time>
      </trkpt>
      <trkpt lat="46.83066" lon="-0.49906">
        <ele>159.44</ele>
        <time>2024-06-24T15:31:58.308Z</time>
      </trkpt>
      <trkpt lat="46.8306" lon="-0.49912">
        <ele>159.22</ele>
        <time>2024-06-24T15:31:58.394Z</time>
      </trkpt>
      <trkpt lat="46.83054" lon="-0.49918">
        <ele>159.01</ele>
        <time>2024-06-24T15:31:58.482Z</time>
      </trkpt>
      <trkpt lat="46.83049" lon="-0.49924">
        <ele>158.81</ele>
        <time>2024-06-24T15:31:58.571Z</time>
      </trkpt>
      <trkpt lat="46.83044" lon="-0.4993">
        <ele>158.62</ele>
        <time>2024-06-24T15:31:58.661Z</time>
      </trkpt>
      <trkpt lat="46.8304" lon="-0.49935">
        <ele>158.43</ele>
        <time>2024-06-24T15:31:58.753Z</time>
      </trkpt>
      <trkpt lat="46.83035" lon="-0.49939">
        <ele>158.25</ele>
        <time>2024-06-24T15:31:58.846Z</time>
      </trkpt>
      <trkpt lat="46.83031" lon="-0.49943">
        <ele>158.08</ele>
        <time>2024-06-24T15:31:58.940Z</time>
      </trkpt>
      <trkpt lat="46.83028" lon="-0.49947">
        <ele>157.92</ele>
        <time>2024-06-24T15:31:59.035Z</time>
      </trkpt>
      <trkpt lat="46.83024" lon="-0.4995">
        <ele>157.76</ele>
        <time>2024-06-24T15:31:59.130Z</time>
      </trkpt>
      <trkpt lat="46.83021" lon="-0.49952">
        <ele>157.62</ele>
        <time>2024-06-24T15:31:59.226Z</time>
      </trkpt>
      <trkpt lat="46.83019" lon="-0.49953">
        <ele>157.49</ele>
        <time>2024-06-24T15:31:59.322Z</time>
      </trkpt>
      <trkpt lat="46.83017" lon="-0.49952">
        <ele>157.36</ele>
        <time>2024-06-24T15:31:59.419Z</time>
      </trkpt>
      <trkpt lat="46.83016" lon="-0.49952">
        <ele>157.25</ele>
        <time>2024-06-24T15:31:59.516Z</time>
      </trkpt>
      <trkpt lat="46.83015" lon="-0.49951">
        <ele>157.15</ele>
        <time>2024-06-24T15:31:59.613Z</time>
      </trkpt>
      <trkpt lat="46.83014" lon="-0.49951">
        <ele>157.06</ele>
        <time>2024-06-24T15:31:59.710Z</time>
      </trkpt>
      <trkpt lat="46.83013" lon="-0.49951">
        <ele>156.98</ele>
        <time>2024-06-24T15:31:59.808Z</time>
      </trkpt>
      <trkpt lat="46.83012" lon="-0.49951">
        <ele>156.92</ele>
        <time>2024-06-24T15:31:59.906Z</time>
      </trkpt>
      <trkpt lat="46.83012" lon="-0.4995">
        <ele>156.87</ele>
        <time>2024-06-24T15:32:00.004Z</time>
      </trkpt>
      <trkpt lat="46.8301" lon="-0.49948">
        <ele>156.82</ele>
        <time>2024-06-24T15:32:00.102Z</time>
      </trkpt>
      <trkpt lat="46.83009" lon="-0.49944">
        <ele>156.79</ele>
        <time>2024-06-24T15:32:00.201Z</time>
      </trkpt>
      <trkpt lat="46.83009" lon="-0.49938">
        <ele>156.77</ele>
        <time>2024-06-24T15:32:00.301Z</time>
      </trkpt>
      <trkpt lat="46.8301" lon="-0.49933">
        <ele>156.77</ele>
        <time>2024-06-24T15:32:00.402Z</time>
      </trkpt>
      <trkpt lat="46.83012" lon="-0.49927">
        <ele>156.78</ele>
        <time>2024-06-24T15:32:00.503Z</time>
      </trkpt>
      <trkpt lat="46.83013" lon="-0.49922">
        <ele>156.8</ele>
        <time>2024-06-24T15:32:00.605Z</time>
      </trkpt>
      <trkpt lat="46.83015" lon="-0.49916">
        <ele>156.83</ele>
        <time>2024-06-24T15:32:00.708Z</time>
      </trkpt>
      <trkpt lat="46.83018" lon="-0.4991">
        <ele>156.88</ele>
        <time>2024-06-24T15:32:00.812Z</time>
      </trkpt>
      <trkpt lat="46.83019" lon="-0.49904">
        <ele>156.94</ele>
        <time>2024-06-24T15:32:00.917Z</time>
      </trkpt>
      <trkpt lat="46.83021" lon="-0.49898">
        <ele>157.01</ele>
        <time>2024-06-24T15:32:01.023Z</time>
      </trkpt>
      <trkpt lat="46.83022" lon="-0.49891">
        <ele>157.1</ele>
        <time>2024-06-24T15:32:01.130Z</time>
      </trkpt>
      <trkpt lat="46.83023" lon="-0.49883">
        <ele>157.2</ele>
        <time>2024-06-24T15:32:01.238Z</time>
      </trkpt>
      <trkpt lat="46.83024" lon="-0.49877">
        <ele>157.3</ele>
        <time>2024-06-24T15:32:01.347Z</time>
      </trkpt>
      <trkpt lat="46.83025" lon="-0.49871">
        <ele>157.42</ele>
        <time>2024-06-24T15:32:01.457Z</time>
      </trkpt>
      <trkpt lat="46.83026" lon="-0.49865">
        <ele>157.55</ele>
        <time>2024-06-24T15:32:01.567Z</time>
      </trkpt>
      <trkpt lat="46.83026" lon="-0.49859">
        <ele>157.69</ele>
        <time>2024-06-24T15:32:01.678Z</time>
      </trkpt>
      <trkpt lat="46.83026" lon="-0.49852">
        <ele>157.84</ele>
        <time>2024-06-24T15:32:01.790Z</time>
      </trkpt>
      <trkpt lat="46.83026" lon="-0.49845">
        <ele>157.99</ele>
        <time>2024-06-24T15:32:01.903Z</time>
      </trkpt>
      <trkpt lat="46.83026" lon="-0.49837">
        <ele>158.14</ele>
        <time>2024-06-24T15:32:02.017Z</time>
      </trkpt>
      <trkpt lat="46.83026" lon="-0.49829">
        <ele>158.31</ele>
        <time>2024-06-24T15:32:02.132Z</time>
      </trkpt>
      <trkpt lat="46.83026" lon="-0.49823">
        <ele>158.48</ele>
        <time>2024-06-24T15:32:02.248Z</time>
      </trkpt>
      <trkpt lat="46.83025" lon="-0.49817">
        <ele>158.65</ele>
        <time>2024-06-24T15:32:02.365Z</time>
      </trkpt>
      <trkpt lat="46.83025" lon="-0.4981">
        <ele>158.84</ele>
        <time>2024-06-24T15:32:02.483Z</time>
      </trkpt>
      <trkpt lat="46.83025" lon="-0.49804">
        <ele>159.03</ele>
        <time>2024-06-24T15:32:02.602Z</time>
      </trkpt>
      <trkpt lat="46.83024" lon="-0.49799">
        <ele>159.22</ele>
        <time>2024-06-24T15:32:02.722Z</time>
      </trkpt>
      <trkpt lat="46.83024" lon="-0.49793">
        <ele>159.41</ele>
        <time>2024-06-24T15:32:02.842Z</time>
      </trkpt>
      <trkpt lat="46.83024" lon="-0.49788">
        <ele>159.61</ele>
        <time>2024-06-24T15:32:02.963Z</time>
      </trkpt>
      <trkpt lat="46.83023" lon="-0.49781">
        <ele>159.8</ele>
        <time>2024-06-24T15:32:03.085Z</time>
      </trkpt>
      <trkpt lat="46.83023" lon="-0.49774">
        <ele>160</ele>
        <time>2024-06-24T15:32:03.208Z</time>
      </trkpt>
      <trkpt lat="46.83023" lon="-0.49769">
        <ele>160.2</ele>
        <time>2024-06-24T15:32:03.332Z</time>
      </trkpt>
      <trkpt lat="46.83023" lon="-0.49764">
        <ele>160.41</ele>
        <time>2024-06-24T15:32:03.456Z</time>
      </trkpt>
      <trkpt lat="46.83023" lon="-0.49758">
        <ele>160.62</ele>
        <time>2024-06-24T15:32:03.581Z</time>
      </trkpt>
      <trkpt lat="46.83024" lon="-0.49753">
        <ele>160.83</ele>
        <time>2024-06-24T15:32:03.707Z</time>
      </trkpt>
      <trkpt lat="46.83024" lon="-0.49748">
        <ele>161.04</ele>
        <time>2024-06-24T15:32:03.834Z</time>
      </trkpt>
      <trkpt lat="46.83024" lon="-0.49742">
        <ele>161.24</ele>
        <time>2024-06-24T15:32:03.961Z</time>
      </trkpt>
      <trkpt lat="46.83025" lon="-0.49736">
        <ele>161.44</ele>
        <time>2024-06-24T15:32:04.089Z</time>
      </trkpt>
      <trkpt lat="46.83026" lon="-0.49731">
        <ele>161.63</ele>
        <time>2024-06-24T15:32:04.218Z</time>
      </trkpt>
      <trkpt lat="46.83027" lon="-0.49726">
        <ele>161.83</ele>
        <time>2024-06-24T15:32:04.348Z</time>
      </trkpt>
      <trkpt lat="46.83028" lon="-0.49721">
        <ele>162.03</ele>
        <time>2024-06-24T15:32:04.478Z</time>
      </trkpt>
      <trkpt lat="46.83029" lon="-0.49716">
        <ele>162.22</ele>
        <time>2024-06-24T15:32:04.609Z</time>
      </trkpt>
      <trkpt lat="46.8303" lon="-0.49711">
        <ele>162.4</ele>
        <time>2024-06-24T15:32:04.741Z</time>
      </trkpt>
      <trkpt lat="46.83032" lon="-0.49706">
        <ele>162.58</ele>
        <time>2024-06-24T15:32:04.874Z</time>
      </trkpt>
      <trkpt lat="46.83034" lon="-0.49702">
        <ele>162.76</ele>
        <time>2024-06-24T15:32:05.007Z</time>
      </trkpt>
      <trkpt lat="46.83035" lon="-0.49697">
        <ele>162.94</ele>
        <time>2024-06-24T15:32:05.141Z</time>
      </trkpt>
      <trkpt lat="46.83037" lon="-0.49693">
        <ele>163.11</ele>
        <time>2024-06-24T15:32:05.276Z</time>
      </trkpt>
      <trkpt lat="46.83039" lon="-0.49689">
        <ele>163.28</ele>
        <time>2024-06-24T15:32:05.411Z</time>
      </trkpt>
      <trkpt lat="46.8304" lon="-0.49684">
        <ele>163.44</ele>
        <time>2024-06-24T15:32:05.547Z</time>
      </trkpt>
      <trkpt lat="46.83042" lon="-0.49679">
        <ele>163.6</ele>
        <time>2024-06-24T15:32:05.684Z</time>
      </trkpt>
      <trkpt lat="46.83044" lon="-0.49675">
        <ele>163.76</ele>
        <time>2024-06-24T15:32:05.822Z</time>
      </trkpt>
      <trkpt lat="46.83046" lon="-0.49671">
        <ele>163.91</ele>
        <time>2024-06-24T15:32:05.960Z</time>
      </trkpt>
      <trkpt lat="46.83049" lon="-0.49667">
        <ele>164.06</ele>
        <time>2024-06-24T15:32:06.099Z</time>
      </trkpt>
      <trkpt lat="46.83051" lon="-0.49663">
        <ele>164.21</ele>
        <time>2024-06-24T15:32:06.239Z</time>
      </trkpt>
      <trkpt lat="46.83054" lon="-0.4966">
        <ele>164.35</ele>
        <time>2024-06-24T15:32:06.379Z</time>
      </trkpt>
      <trkpt lat="46.83057" lon="-0.49656">
        <ele>164.49</ele>
        <time>2024-06-24T15:32:06.520Z</time>
      </trkpt>
      <trkpt lat="46.83059" lon="-0.49653">
        <ele>164.63</ele>
        <time>2024-06-24T15:32:06.662Z</time>
      </trkpt>
      <trkpt lat="46.83062" lon="-0.4965">
        <ele>164.77</ele>
        <time>2024-06-24T15:32:06.805Z</time>
      </trkpt>
      <trkpt lat="46.83065" lon="-0.49646">
        <ele>164.9</ele>
        <time>2024-06-24T15:32:06.948Z</time>
      </trkpt>
      <trkpt lat="46.83067" lon="-0.49643">
        <ele>165.02</ele>
        <time>2024-06-24T15:32:07.092Z</time>
      </trkpt>
      <trkpt lat="46.8307" lon="-0.4964">
        <ele>165.15</ele>
        <time>2024-06-24T15:32:07.237Z</time>
      </trkpt>
      <trkpt lat="46.83073" lon="-0.49637">
        <ele>165.27</ele>
        <time>2024-06-24T15:32:07.382Z</time>
      </trkpt>
      <trkpt lat="46.83075" lon="-0.49635">
        <ele>165.4</ele>
        <time>2024-06-24T15:32:07.528Z</time>
      </trkpt>
      <trkpt lat="46.83078" lon="-0.49632">
        <ele>165.52</ele>
        <time>2024-06-24T15:32:07.675Z</time>
      </trkpt>
      <trkpt lat="46.83081" lon="-0.49629">
        <ele>165.64</ele>
        <time>2024-06-24T15:32:07.822Z</time>
      </trkpt>
      <trkpt lat="46.83084" lon="-0.49626">
        <ele>165.76</ele>
        <time>2024-06-24T15:32:07.970Z</time>
      </trkpt>
      <trkpt lat="46.83086" lon="-0.49624">
        <ele>165.87</ele>
        <time>2024-06-24T15:32:08.119Z</time>
      </trkpt>
      <trkpt lat="46.83089" lon="-0.49621">
        <ele>165.98</ele>
        <time>2024-06-24T15:32:08.268Z</time>
      </trkpt>
      <trkpt lat="46.83092" lon="-0.4962">
        <ele>166.1</ele>
        <time>2024-06-24T15:32:08.418Z</time>
      </trkpt>
      <trkpt lat="46.83095" lon="-0.49618">
        <ele>166.21</ele>
        <time>2024-06-24T15:32:08.569Z</time>
      </trkpt>
      <trkpt lat="46.83099" lon="-0.49617">
        <ele>166.31</ele>
        <time>2024-06-24T15:32:08.720Z</time>
      </trkpt>
      <trkpt lat="46.83102" lon="-0.49616">
        <ele>166.42</ele>
        <time>2024-06-24T15:32:08.872Z</time>
      </trkpt>
      <trkpt lat="46.83105" lon="-0.49614">
        <ele>166.52</ele>
        <time>2024-06-24T15:32:09.025Z</time>
      </trkpt>
      <trkpt lat="46.83109" lon="-0.49613">
        <ele>166.63</ele>
        <time>2024-06-24T15:32:09.178Z</time>
      </trkpt>
      <trkpt lat="46.83112" lon="-0.49612">
        <ele>166.73</ele>
        <time>2024-06-24T15:32:09.332Z</time>
      </trkpt>
      <trkpt lat="46.83116" lon="-0.49611">
        <ele>166.83</ele>
        <time>2024-06-24T15:32:09.487Z</time>
      </trkpt>
      <trkpt lat="46.83118" lon="-0.4961">
        <ele>166.92</ele>
        <time>2024-06-24T15:32:09.642Z</time>
      </trkpt>
      <trkpt lat="46.83121" lon="-0.49608">
        <ele>167.02</ele>
        <time>2024-06-24T15:32:09.798Z</time>
      </trkpt>
      <trkpt lat="46.83124" lon="-0.49606">
        <ele>167.12</ele>
        <time>2024-06-24T15:32:09.954Z</time>
      </trkpt>
      <trkpt lat="46.83126" lon="-0.49604">
        <ele>167.23</ele>
        <time>2024-06-24T15:32:10.111Z</time>
      </trkpt>
      <trkpt lat="46.83129" lon="-0.496">
        <ele>167.33</ele>
        <time>2024-06-24T15:32:10.269Z</time>
      </trkpt>
      <trkpt lat="46.83131" lon="-0.49596">
        <ele>167.43</ele>
        <time>2024-06-24T15:32:10.427Z</time>
      </trkpt>
      <trkpt lat="46.83133" lon="-0.49591">
        <ele>167.53</ele>
        <time>2024-06-24T15:32:10.586Z</time>
      </trkpt>
      <trkpt lat="46.83134" lon="-0.49587">
        <ele>167.63</ele>
        <time>2024-06-24T15:32:10.746Z</time>
      </trkpt>
      <trkpt lat="46.83136" lon="-0.49582">
        <ele>167.73</ele>
        <time>2024-06-24T15:32:10.907Z</time>
      </trkpt>
      <trkpt lat="46.83138" lon="-0.49578">
        <ele>167.82</ele>
        <time>2024-06-24T15:32:11.068Z</time>
      </trkpt>
      <trkpt lat="46.8314" lon="-0.49574">
        <ele>167.92</ele>
        <time>2024-06-24T15:32:11.230Z</time>
      </trkpt>
      <trkpt lat="46.83142" lon="-0.49571">
        <ele>168.01</ele>
        <time>2024-06-24T15:32:11.393Z</time>
      </trkpt>
      <trkpt lat="46.83144" lon="-0.49568">
        <ele>168.11</ele>
        <time>2024-06-24T15:32:11.556Z</time>
      </trkpt>
      <trkpt lat="46.83147" lon="-0.49565">
        <ele>168.2</ele>
        <time>2024-06-24T15:32:11.720Z</time>
      </trkpt>
      <trkpt lat="46.8315" lon="-0.49564">
        <ele>168.29</ele>
        <time>2024-06-24T15:32:11.884Z</time>
      </trkpt>
      <trkpt lat="46.83153" lon="-0.49563">
        <ele>168.38</ele>
        <time>2024-06-24T15:32:12.049Z</time>
      </trkpt>
      <trkpt lat="46.83157" lon="-0.49563">
        <ele>168.46</ele>
        <time>2024-06-24T15:32:12.215Z</time>
      </trkpt>
      <trkpt lat="46.83161" lon="-0.49563">
        <ele>168.55</ele>
        <time>2024-06-24T15:32:12.382Z</time>
      </trkpt>
      <trkpt lat="46.83164" lon="-0.49565">
        <ele>168.63</ele>
        <time>2024-06-24T15:32:12.549Z</time>
      </trkpt>
      <trkpt lat="46.83167" lon="-0.49566">
        <ele>168.7</ele>
        <time>2024-06-24T15:32:12.717Z</time>
      </trkpt>
      <trkpt lat="46.8317" lon="-0.49569">
        <ele>168.78</ele>
        <time>2024-06-24T15:32:12.886Z</time>
      </trkpt>
      <trkpt lat="46.83172" lon="-0.49572">
        <ele>168.85</ele>
        <time>2024-06-24T15:32:13.055Z</time>
      </trkpt>
      <trkpt lat="46.83175" lon="-0.49576">
        <ele>168.91</ele>
        <time>2024-06-24T15:32:13.225Z</time>
      </trkpt>
      <trkpt lat="46.83177" lon="-0.4958">
        <ele>168.97</ele>
        <time>2024-06-24T15:32:13.396Z</time>
      </trkpt>
      <trkpt lat="46.8318" lon="-0.49584">
        <ele>169.03</ele>
        <time>2024-06-24T15:32:13.568Z</time>
      </trkpt>
      <trkpt lat="46.83183" lon="-0.49589">
        <ele>169.07</ele>
        <time>2024-06-24T15:32:13.740Z</time>
      </trkpt>
      <trkpt lat="46.83187" lon="-0.49592">
        <ele>169.12</ele>
        <time>2024-06-24T15:32:13.913Z</time>
      </trkpt>
      <trkpt lat="46.8319" lon="-0.49594">
        <ele>169.16</ele>
        <time>2024-06-24T15:32:14.087Z</time>
      </trkpt>
      <trkpt lat="46.83194" lon="-0.49596">
        <ele>169.2</ele>
        <time>2024-06-24T15:32:14.262Z</time>
      </trkpt>
      <trkpt lat="46.83198" lon="-0.49597">
        <ele>169.24</ele>
        <time>2024-06-24T15:32:14.438Z</time>
      </trkpt>
      <trkpt lat="46.83202" lon="-0.49597">
        <ele>169.28</ele>
        <time>2024-06-24T15:32:14.614Z</time>
      </trkpt>
      <trkpt lat="46.83205" lon="-0.49598">
        <ele>169.31</ele>
        <time>2024-06-24T15:32:14.791Z</time>
      </trkpt>
      <trkpt lat="46.83209" lon="-0.49597">
        <ele>169.35</ele>
        <time>2024-06-24T15:32:14.969Z</time>
      </trkpt>
      <trkpt lat="46.83213" lon="-0.49597">
        <ele>169.39</ele>
        <time>2024-06-24T15:32:15.148Z</time>
      </trkpt>
      <trkpt lat="46.83216" lon="-0.49598">
        <ele>169.42</ele>
        <time>2024-06-24T15:32:15.327Z</time>
      </trkpt>
      <trkpt lat="46.8322" lon="-0.49598">
        <ele>169.45</ele>
        <time>2024-06-24T15:32:15.507Z</time>
      </trkpt>
      <trkpt lat="46.83225" lon="-0.49597">
        <ele>169.49</ele>
        <time>2024-06-24T15:32:15.688Z</time>
      </trkpt>
      <trkpt lat="46.83229" lon="-0.49597">
        <ele>169.52</ele>
        <time>2024-06-24T15:32:15.870Z</time>
      </trkpt>
      <trkpt lat="46.83233" lon="-0.49596">
        <ele>169.55</ele>
        <time>2024-06-24T15:32:16.053Z</time>
      </trkpt>
      <trkpt lat="46.83237" lon="-0.49596">
        <ele>169.58</ele>
        <time>2024-06-24T15:32:16.236Z</time>
      </trkpt>
      <trkpt lat="46.8324" lon="-0.49595">
        <ele>169.6</ele>
        <time>2024-06-24T15:32:16.420Z</time>
      </trkpt>
      <trkpt lat="46.83244" lon="-0.49595">
        <ele>169.62</ele>
        <time>2024-06-24T15:32:16.605Z</time>
      </trkpt>
      <trkpt lat="46.83248" lon="-0.49595">
        <ele>169.65</ele>
        <time>2024-06-24T15:32:16.791Z</time>
      </trkpt>
      <trkpt lat="46.83252" lon="-0.49595">
        <ele>169.67</ele>
        <time>2024-06-24T15:32:16.977Z</time>
      </trkpt>
      <trkpt lat="46.83255" lon="-0.49594">
        <ele>169.7</ele>
        <time>2024-06-24T15:32:17.164Z</time>
      </trkpt>
      <trkpt lat="46.83259" lon="-0.49594">
        <ele>169.73</ele>
        <time>2024-06-24T15:32:17.352Z</time>
      </trkpt>
      <trkpt lat="46.83263" lon="-0.49594">
        <ele>169.75</ele>
        <time>2024-06-24T15:32:17.541Z</time>
      </trkpt>
      <trkpt lat="46.83267" lon="-0.49593">
        <ele>169.77</ele>
        <time>2024-06-24T15:32:17.730Z</time>
      </trkpt>
      <trkpt lat="46.8327" lon="-0.49594">
        <ele>169.79</ele>
        <time>2024-06-24T15:32:17.920Z</time>
      </trkpt>
      <trkpt lat="46.83273" lon="-0.49593">
        <ele>169.82</ele>
        <time>2024-06-24T15:32:18.111Z</time>
      </trkpt>
      <trkpt lat="46.83277" lon="-0.49593">
        <ele>169.84</ele>
        <time>2024-06-24T15:32:18.303Z</time>
      </trkpt>
      <trkpt lat="46.83281" lon="-0.49593">
        <ele>169.86</ele>
        <time>2024-06-24T15:32:18.495Z</time>
      </trkpt>
      <trkpt lat="46.83286" lon="-0.49592">
        <ele>169.88</ele>
        <time>2024-06-24T15:32:18.688Z</time>
      </trkpt>
      <trkpt lat="46.83291" lon="-0.49592">
        <ele>169.91</ele>
        <time>2024-06-24T15:32:18.882Z</time>
      </trkpt>
      <trkpt lat="46.83295" lon="-0.49591">
        <ele>169.93</ele>
        <time>2024-06-24T15:32:19.077Z</time>
      </trkpt>
      <trkpt lat="46.83299" lon="-0.49591">
        <ele>169.96</ele>
        <time>2024-06-24T15:32:19.273Z</time>
      </trkpt>
      <trkpt lat="46.83303" lon="-0.4959">
        <ele>169.99</ele>
        <time>2024-06-24T15:32:19.470Z</time>
      </trkpt>
      <trkpt lat="46.83308" lon="-0.4959">
        <ele>170.02</ele>
        <time>2024-06-24T15:32:19.668Z</time>
      </trkpt>
      <trkpt lat="46.83312" lon="-0.49589">
        <ele>170.06</ele>
        <time>2024-06-24T15:32:19.867Z</time>
      </trkpt>
      <trkpt lat="46.83317" lon="-0.49589">
        <ele>170.09</ele>
        <time>2024-06-24T15:32:20.066Z</time>
      </trkpt>
      <trkpt lat="46.83321" lon="-0.49589">
        <ele>170.13</ele>
        <time>2024-06-24T15:32:20.266Z</time>
      </trkpt>
      <trkpt lat="46.83325" lon="-0.49589">
        <ele>170.17</ele>
        <time>2024-06-24T15:32:20.467Z</time>
      </trkpt>
      <trkpt lat="46.83329" lon="-0.49589">
        <ele>170.21</ele>
        <time>2024-06-24T15:32:20.669Z</time>
      </trkpt>
      <trkpt lat="46.83334" lon="-0.49588">
        <ele>170.25</ele>
        <time>2024-06-24T15:32:20.872Z</time>
      </trkpt>
      <trkpt lat="46.83339" lon="-0.49588">
        <ele>170.3</ele>
        <time>2024-06-24T15:32:21.076Z</time>
      </trkpt>
      <trkpt lat="46.83344" lon="-0.49587">
        <ele>170.36</ele>
        <time>2024-06-24T15:32:21.281Z</time>
      </trkpt>
      <trkpt lat="46.83349" lon="-0.49587">
        <ele>170.41</ele>
        <time>2024-06-24T15:32:21.487Z</time>
      </trkpt>
      <trkpt lat="46.83353" lon="-0.49586">
        <ele>170.47</ele>
        <time>2024-06-24T15:32:21.694Z</time>
      </trkpt>
      <trkpt lat="46.83359" lon="-0.49586">
        <ele>170.53</ele>
        <time>2024-06-24T15:32:21.902Z</time>
      </trkpt>
      <trkpt lat="46.83364" lon="-0.49585">
        <ele>170.6</ele>
        <time>2024-06-24T15:32:22.111Z</time>
      </trkpt>
      <trkpt lat="46.83368" lon="-0.49585">
        <ele>170.66</ele>
        <time>2024-06-24T15:32:22.321Z</time>
      </trkpt>
      <trkpt lat="46.83373" lon="-0.49585">
        <ele>170.74</ele>
        <time>2024-06-24T15:32:22.532Z</time>
      </trkpt>
      <trkpt lat="46.83378" lon="-0.49585">
        <ele>170.81</ele>
        <time>2024-06-24T15:32:22.744Z</time>
      </trkpt>
      <trkpt lat="46.83382" lon="-0.49584">
        <ele>170.89</ele>
        <time>2024-06-24T15:32:22.957Z</time>
      </trkpt>
      <trkpt lat="46.83387" lon="-0.49583">
        <ele>170.98</ele>
        <time>2024-06-24T15:32:23.171Z</time>
      </trkpt>
      <trkpt lat="46.83391" lon="-0.4958">
        <ele>171.06</ele>
        <time>2024-06-24T15:32:23.386Z</time>
      </trkpt>
      <trkpt lat="46.83394" lon="-0.49575">
        <ele>171.16</ele>
        <time>2024-06-24T15:32:23.601Z</time>
      </trkpt>
      <trkpt lat="46.83397" lon="-0.49569">
        <ele>171.25</ele>
        <time>2024-06-24T15:32:23.817Z</time>
      </trkpt>
      <trkpt lat="46.83399" lon="-0.49563">
        <ele>171.35</ele>
        <time>2024-06-24T15:32:24.034Z</time>
      </trkpt>
      <trkpt lat="46.83401" lon="-0.49559">
        <ele>171.46</ele>
        <time>2024-06-24T15:32:24.252Z</time>
      </trkpt>
      <trkpt lat="46.83403" lon="-0.49554">
        <ele>171.56</ele>
        <time>2024-06-24T15:32:24.471Z</time>
      </trkpt>
      <trkpt lat="46.83405" lon="-0.49549">
        <ele>171.68</ele>
        <time>2024-06-24T15:32:24.691Z</time>
      </trkpt>
      <trkpt lat="46.83407" lon="-0.49543">
        <ele>171.8</ele>
        <time>2024-06-24T15:32:24.912Z</time>
      </trkpt>
      <trkpt lat="46.83409" lon="-0.49538">
        <ele>171.93</ele>
        <time>2024-06-24T15:32:25.133Z</time>
      </trkpt>
      <trkpt lat="46.83411" lon="-0.49532">
        <ele>172.06</ele>
        <time>2024-06-24T15:32:25.355Z</time>
      </trkpt>
      <trkpt lat="46.83413" lon="-0.49527">
        <ele>172.19</ele>
        <time>2024-06-24T15:32:25.578Z</time>
      </trkpt>
      <trkpt lat="46.83415" lon="-0.49522">
        <ele>172.34</ele>
        <time>2024-06-24T15:32:25.802Z</time>
      </trkpt>
      <trkpt lat="46.83417" lon="-0.49518">
        <ele>172.48</ele>
        <time>2024-06-24T15:32:26.026Z</time>
      </trkpt>
      <trkpt lat="46.83418" lon="-0.49514">
        <ele>172.64</ele>
        <time>2024-06-24T15:32:26.251Z</time>
      </trkpt>
      <trkpt lat="46.8342" lon="-0.4951">
        <ele>172.79</ele>
        <time>2024-06-24T15:32:26.477Z</time>
      </trkpt>
      <trkpt lat="46.83422" lon="-0.49506">
        <ele>172.95</ele>
        <time>2024-06-24T15:32:26.704Z</time>
      </trkpt>
      <trkpt lat="46.83424" lon="-0.49501">
        <ele>173.12</ele>
        <time>2024-06-24T15:32:26.931Z</time>
      </trkpt>
      <trkpt lat="46.83426" lon="-0.49497">
        <ele>173.29</ele>
        <time>2024-06-24T15:32:27.159Z</time>
      </trkpt>
      <trkpt lat="46.83428" lon="-0.49492">
        <ele>173.46</ele>
        <time>2024-06-24T15:32:27.388Z</time>
      </trkpt>
      <trkpt lat="46.8343" lon="-0.49487">
        <ele>173.63</ele>
        <time>2024-06-24T15:32:27.618Z</time>
      </trkpt>
      <trkpt lat="46.83432" lon="-0.49483">
        <ele>173.81</ele>
        <time>2024-06-24T15:32:27.848Z</time>
      </trkpt>
      <trkpt lat="46.83434" lon="-0.49478">
        <ele>173.99</ele>
        <time>2024-06-24T15:32:28.079Z</time>
      </trkpt>
      <trkpt lat="46.83436" lon="-0.49474">
        <ele>174.17</ele>
        <time>2024-06-24T15:32:28.311Z</time>
      </trkpt>
      <trkpt lat="46.83438" lon="-0.49469">
        <ele>174.35</ele>
        <time>2024-06-24T15:32:28.543Z</time>
      </trkpt>
      <trkpt lat="46.8344" lon="-0.49464">
        <ele>174.55</ele>
        <time>2024-06-24T15:32:28.776Z</time>
      </trkpt>
      <trkpt lat="46.83442" lon="-0.49459">
        <ele>174.74</ele>
        <time>2024-06-24T15:32:29.010Z</time>
      </trkpt>
      <trkpt lat="46.83443" lon="-0.49455">
        <ele>174.94</ele>
        <time>2024-06-24T15:32:29.245Z</time>
      </trkpt>
      <trkpt lat="46.83445" lon="-0.4945">
        <ele>175.14</ele>
        <time>2024-06-24T15:32:29.480Z</time>
      </trkpt>
      <trkpt lat="46.83447" lon="-0.49445">
        <ele>175.33</ele>
        <time>2024-06-24T15:32:29.716Z</time>
      </trkpt>
      <trkpt lat="46.83449" lon="-0.4944">
        <ele>175.54</ele>
        <time>2024-06-24T15:32:29.953Z</time>
      </trkpt>
      <trkpt lat="46.83451" lon="-0.49435">
        <ele>175.74</ele>
        <time>2024-06-24T15:32:30.191Z</time>
      </trkpt>
      <trkpt lat="46.83453" lon="-0.49431">
        <ele>175.95</ele>
        <time>2024-06-24T15:32:30.429Z</time>
      </trkpt>
      <trkpt lat="46.83454" lon="-0.49428">
        <ele>176.16</ele>
        <time>2024-06-24T15:32:30.668Z</time>
      </trkpt>
      <trkpt lat="46.83456" lon="-0.49424">
        <ele>176.36</ele>
        <time>2024-06-24T15:32:30.908Z</time>
      </trkpt>
      <trkpt lat="46.83457" lon="-0.49419">
        <ele>176.58</ele>
        <time>2024-06-24T15:32:31.148Z</time>
      </trkpt>
      <trkpt lat="46.83459" lon="-0.49414">
        <ele>176.78</ele>
        <time>2024-06-24T15:32:31.389Z</time>
      </trkpt>
      <trkpt lat="46.83461" lon="-0.4941">
        <ele>177</ele>
        <time>2024-06-24T15:32:31.631Z</time>
      </trkpt>
      <trkpt lat="46.83463" lon="-0.49405">
        <ele>177.21</ele>
        <time>2024-06-24T15:32:31.874Z</time>
      </trkpt>
      <trkpt lat="46.83465" lon="-0.494">
        <ele>177.43</ele>
        <time>2024-06-24T15:32:32.117Z</time>
      </trkpt>
      <trkpt lat="46.83466" lon="-0.49396">
        <ele>177.64</ele>
        <time>2024-06-24T15:32:32.361Z</time>
      </trkpt>
      <trkpt lat="46.83468" lon="-0.49392">
        <ele>177.85</ele>
        <time>2024-06-24T15:32:32.606Z</time>
      </trkpt>
      <trkpt lat="46.8347" lon="-0.49388">
        <ele>178.07</ele>
        <time>2024-06-24T15:32:32.851Z</time>
      </trkpt>
      <trkpt lat="46.83472" lon="-0.49383">
        <ele>178.27</ele>
        <time>2024-06-24T15:32:33.097Z</time>
      </trkpt>
      <trkpt lat="46.83474" lon="-0.49379">
        <ele>178.46</ele>
        <time>2024-06-24T15:32:33.344Z</time>
      </trkpt>
      <trkpt lat="46.83476" lon="-0.49375">
        <ele>178.66</ele>
        <time>2024-06-24T15:32:33.591Z</time>
      </trkpt>
      <trkpt lat="46.83477" lon="-0.49371">
        <ele>178.85</ele>
        <time>2024-06-24T15:32:33.839Z</time>
      </trkpt>
      <trkpt lat="46.83479" lon="-0.49367">
        <ele>179.04</ele>
        <time>2024-06-24T15:32:34.088Z</time>
      </trkpt>
      <trkpt lat="46.83481" lon="-0.49364">
        <ele>179.22</ele>
        <time>2024-06-24T15:32:34.337Z</time>
      </trkpt>
      <trkpt lat="46.83482" lon="-0.4936">
        <ele>179.4</ele>
        <time>2024-06-24T15:32:34.587Z</time>
      </trkpt>
      <trkpt lat="46.83484" lon="-0.49357">
        <ele>179.58</ele>
        <time>2024-06-24T15:32:34.837Z</time>
      </trkpt>
      <trkpt lat="46.83486" lon="-0.49352">
        <ele>179.76</ele>
        <time>2024-06-24T15:32:35.088Z</time>
      </trkpt>
      <trkpt lat="46.83487" lon="-0.49348">
        <ele>179.93</ele>
        <time>2024-06-24T15:32:35.340Z</time>
      </trkpt>
      <trkpt lat="46.83489" lon="-0.49344">
        <ele>180.1</ele>
        <time>2024-06-24T15:32:35.593Z</time>
      </trkpt>
      <trkpt lat="46.8349" lon="-0.49339">
        <ele>180.26</ele>
        <time>2024-06-24T15:32:35.846Z</time>
      </trkpt>
      <trkpt lat="46.83492" lon="-0.49335">
        <ele>180.42</ele>
        <time>2024-06-24T15:32:36.100Z</time>
      </trkpt>
      <trkpt lat="46.83494" lon="-0.4933">
        <ele>180.58</ele>
        <time>2024-06-24T15:32:36.355Z</time>
      </trkpt>
      <trkpt lat="46.83495" lon="-0.49326">
        <ele>180.73</ele>
        <time>2024-06-24T15:32:36.610Z</time>
      </trkpt>
      <trkpt lat="46.83497" lon="-0.49322">
        <ele>180.88</ele>
        <time>2024-06-24T15:32:36.866Z</time>
      </trkpt>
      <trkpt lat="46.83498" lon="-0.49318">
        <ele>181.02</ele>
        <time>2024-06-24T15:32:37.123Z</time>
      </trkpt>
      <trkpt lat="46.835" lon="-0.49314">
        <ele>181.16</ele>
        <time>2024-06-24T15:32:37.380Z</time>
      </trkpt>
      <trkpt lat="46.83501" lon="-0.4931">
        <ele>181.3</ele>
        <time>2024-06-24T15:32:37.638Z</time>
      </trkpt>
      <trkpt lat="46.83503" lon="-0.49305">
        <ele>181.44</ele>
        <time>2024-06-24T15:32:37.896Z</time>
      </trkpt>
      <trkpt lat="46.83505" lon="-0.49302">
        <ele>181.57</ele>
        <time>2024-06-24T15:32:38.155Z</time>
      </trkpt>
      <trkpt lat="46.83507" lon="-0.49298">
        <ele>181.7</ele>
        <time>2024-06-24T15:32:38.415Z</time>
      </trkpt>
      <trkpt lat="46.83508" lon="-0.49294">
        <ele>181.83</ele>
        <time>2024-06-24T15:32:38.675Z</time>
      </trkpt>
      <trkpt lat="46.8351" lon="-0.4929">
        <ele>181.96</ele>
        <time>2024-06-24T15:32:38.936Z</time>
      </trkpt>
      <trkpt lat="46.83512" lon="-0.49286">
        <ele>182.09</ele>
        <time>2024-06-24T15:32:39.198Z</time>
      </trkpt>
      <trkpt lat="46.83513" lon="-0.49282">
        <ele>182.22</ele>
        <time>2024-06-24T15:32:39.460Z</time>
      </trkpt>
      <trkpt lat="46.83514" lon="-0.49278">
        <ele>182.35</ele>
        <time>2024-06-24T15:32:39.723Z</time>
      </trkpt>
      <trkpt lat="46.83515" lon="-0.49275">
        <ele>182.47</ele>
        <time>2024-06-24T15:32:39.986Z</time>
      </trkpt>
      <trkpt lat="46.83517" lon="-0.49271">
        <ele>182.59</ele>
        <time>2024-06-24T15:32:40.250Z</time>
      </trkpt>
      <trkpt lat="46.83518" lon="-0.49267">
        <ele>182.71</ele>
        <time>2024-06-24T15:32:40.515Z</time>
      </trkpt>
      <trkpt lat="46.8352" lon="-0.49264">
        <ele>182.82</ele>
        <time>2024-06-24T15:32:40.780Z</time>
      </trkpt>
      <trkpt lat="46.83521" lon="-0.4926">
        <ele>182.94</ele>
        <time>2024-06-24T15:32:41.046Z</time>
      </trkpt>
      <trkpt lat="46.83523" lon="-0.49256">
        <ele>183.05</ele>
        <time>2024-06-24T15:32:41.312Z</time>
      </trkpt>
      <trkpt lat="46.83524" lon="-0.49252">
        <ele>183.17</ele>
        <time>2024-06-24T15:32:41.579Z</time>
      </trkpt>
      <trkpt lat="46.83525" lon="-0.49249">
        <ele>183.28</ele>
        <time>2024-06-24T15:32:41.846Z</time>
      </trkpt>
      <trkpt lat="46.83526" lon="-0.49245">
        <ele>183.39</ele>
        <time>2024-06-24T15:32:42.114Z</time>
      </trkpt>
      <trkpt lat="46.83527" lon="-0.49241">
        <ele>183.5</ele>
        <time>2024-06-24T15:32:42.383Z</time>
      </trkpt>
      <trkpt lat="46.83527" lon="-0.49237">
        <ele>183.61</ele>
        <time>2024-06-24T15:32:42.652Z</time>
      </trkpt>
      <trkpt lat="46.83525" lon="-0.49233">
        <ele>183.72</ele>
        <time>2024-06-24T15:32:42.922Z</time>
      </trkpt>
      <trkpt lat="46.83523" lon="-0.49231">
        <ele>183.83</ele>
        <time>2024-06-24T15:32:43.192Z</time>
      </trkpt>
      <trkpt lat="46.8352" lon="-0.49229">
        <ele>183.94</ele>
        <time>2024-06-24T15:32:43.463Z</time>
      </trkpt>
      <trkpt lat="46.83518" lon="-0.49227">
        <ele>184.05</ele>
        <time>2024-06-24T15:32:43.734Z</time>
      </trkpt>
      <trkpt lat="46.83515" lon="-0.49224">
        <ele>184.15</ele>
        <time>2024-06-24T15:32:44.006Z</time>
      </trkpt>
      <trkpt lat="46.83513" lon="-0.49222">
        <ele>184.26</ele>
        <time>2024-06-24T15:32:44.279Z</time>
      </trkpt>
      <trkpt lat="46.8351" lon="-0.49221">
        <ele>184.36</ele>
        <time>2024-06-24T15:32:44.552Z</time>
      </trkpt>
      <trkpt lat="46.83507" lon="-0.49219">
        <ele>184.46</ele>
        <time>2024-06-24T15:32:44.826Z</time>
      </trkpt>
      <trkpt lat="46.83505" lon="-0.49217">
        <ele>184.57</ele>
        <time>2024-06-24T15:32:45.100Z</time>
      </trkpt>
      <trkpt lat="46.83502" lon="-0.49217">
        <ele>184.67</ele>
        <time>2024-06-24T15:32:45.375Z</time>
      </trkpt>
      <trkpt lat="46.83498" lon="-0.49216">
        <ele>184.76</ele>
        <time>2024-06-24T15:32:45.651Z</time>
      </trkpt>
      <trkpt lat="46.83495" lon="-0.49216">
        <ele>184.86</ele>
        <time>2024-06-24T15:32:45.927Z</time>
      </trkpt>
      <trkpt lat="46.83492" lon="-0.49215">
        <ele>184.95</ele>
        <time>2024-06-24T15:32:46.204Z</time>
      </trkpt>
      <trkpt lat="46.83489" lon="-0.49215">
        <ele>185.05</ele>
        <time>2024-06-24T15:32:46.482Z</time>
      </trkpt>
      <trkpt lat="46.83486" lon="-0.49214">
        <ele>185.13</ele>
        <time>2024-06-24T15:32:46.760Z</time>
      </trkpt>
      <trkpt lat="46.83482" lon="-0.49214">
        <ele>185.22</ele>
        <time>2024-06-24T15:32:47.039Z</time>
      </trkpt>
      <trkpt lat="46.83478" lon="-0.49213">
        <ele>185.31</ele>
        <time>2024-06-24T15:32:47.319Z</time>
      </trkpt>
      <trkpt lat="46.83474" lon="-0.49213">
        <ele>185.39</ele>
        <time>2024-06-24T15:32:47.600Z</time>
      </trkpt>
      <trkpt lat="46.8347" lon="-0.49213">
        <ele>185.48</ele>
        <time>2024-06-24T15:32:47.881Z</time>
      </trkpt>
      <trkpt lat="46.83466" lon="-0.49214">
        <ele>185.56</ele>
        <time>2024-06-24T15:32:48.163Z</time>
      </trkpt>
      <trkpt lat="46.83462" lon="-0.49215">
        <ele>185.63</ele>
        <time>2024-06-24T15:32:48.446Z</time>
      </trkpt>
      <trkpt lat="46.83458" lon="-0.49216">
        <ele>185.71</ele>
        <time>2024-06-24T15:32:48.730Z</time>
      </trkpt>
      <trkpt lat="46.83454" lon="-0.49217">
        <ele>185.78</ele>
        <time>2024-06-24T15:32:49.015Z</time>
      </trkpt>
      <trkpt lat="46.8345" lon="-0.49218">
        <ele>185.86</ele>
        <time>2024-06-24T15:32:49.300Z</time>
      </trkpt>
      <trkpt lat="46.83447" lon="-0.49215">
        <ele>185.93</ele>
        <time>2024-06-24T15:32:49.586Z</time>
      </trkpt>
      <trkpt lat="46.83446" lon="-0.49211">
        <ele>186</ele>
        <time>2024-06-24T15:32:49.873Z</time>
      </trkpt>
      <trkpt lat="46.83444" lon="-0.49206">
        <ele>186.07</ele>
        <time>2024-06-24T15:32:50.160Z</time>
      </trkpt>
      <trkpt lat="46.83443" lon="-0.492">
        <ele>186.14</ele>
        <time>2024-06-24T15:32:50.448Z</time>
      </trkpt>
      <trkpt lat="46.83442" lon="-0.49195">
        <ele>186.2</ele>
        <time>2024-06-24T15:32:50.737Z</time>
      </trkpt>
      <trkpt lat="46.83441" lon="-0.4919">
        <ele>186.26</ele>
        <time>2024-06-24T15:32:51.027Z</time>
      </trkpt>
      <trkpt lat="46.83441" lon="-0.49186">
        <ele>186.31</ele>
        <time>2024-06-24T15:32:51.317Z</time>
      </trkpt>
      <trkpt lat="46.8344" lon="-0.49182">
        <ele>186.36</ele>
        <time>2024-06-24T15:32:51.608Z</time>
      </trkpt>
      <trkpt lat="46.83439" lon="-0.49177">
        <ele>186.41</ele>
        <time>2024-06-24T15:32:51.900Z</time>
      </trkpt>
      <trkpt lat="46.83438" lon="-0.49174">
        <ele>186.45</ele>
        <time>2024-06-24T15:32:52.192Z</time>
      </trkpt>
      <trkpt lat="46.83436" lon="-0.4917">
        <ele>186.5</ele>
        <time>2024-06-24T15:32:52.485Z</time>
      </trkpt>
      <trkpt lat="46.83435" lon="-0.49166">
        <ele>186.54</ele>
        <time>2024-06-24T15:32:52.778Z</time>
      </trkpt>
      <trkpt lat="46.83434" lon="-0.4916">
        <ele>186.57</ele>
        <time>2024-06-24T15:32:53.072Z</time>
      </trkpt>
      <trkpt lat="46.83432" lon="-0.49154">
        <ele>186.6</ele>
        <time>2024-06-24T15:32:53.367Z</time>
      </trkpt>
      <trkpt lat="46.83431" lon="-0.49149">
        <ele>186.63</ele>
        <time>2024-06-24T15:32:53.663Z</time>
      </trkpt>
      <trkpt lat="46.8343" lon="-0.49145">
        <ele>186.65</ele>
        <time>2024-06-24T15:32:53.959Z</time>
      </trkpt>
      <trkpt lat="46.83428" lon="-0.4914">
        <ele>186.67</ele>
        <time>2024-06-24T15:32:54.256Z</time>
      </trkpt>
      <trkpt lat="46.83427" lon="-0.49136">
        <ele>186.69</ele>
        <time>2024-06-24T15:32:54.554Z</time>
      </trkpt>
      <trkpt lat="46.83426" lon="-0.49131">
        <ele>186.71</ele>
        <time>2024-06-24T15:32:54.852Z</time>
      </trkpt>
      <trkpt lat="46.83426" lon="-0.49127">
        <ele>186.72</ele>
        <time>2024-06-24T15:32:55.151Z</time>
      </trkpt>
      <trkpt lat="46.83424" lon="-0.49123">
        <ele>186.73</ele>
        <time>2024-06-24T15:32:55.451Z</time>
      </trkpt>
      <trkpt lat="46.83423" lon="-0.49119">
        <ele>186.73</ele>
        <time>2024-06-24T15:32:55.751Z</time>
      </trkpt>
      <trkpt lat="46.83422" lon="-0.49115">
        <ele>186.74</ele>
        <time>2024-06-24T15:32:56.052Z</time>
      </trkpt>
      <trkpt lat="46.8342" lon="-0.4911">
        <ele>186.73</ele>
        <time>2024-06-24T15:32:56.354Z</time>
      </trkpt>
      <trkpt lat="46.83418" lon="-0.49106">
        <ele>186.72</ele>
        <time>2024-06-24T15:32:56.656Z</time>
      </trkpt>
      <trkpt lat="46.83416" lon="-0.49103">
        <ele>186.71</ele>
        <time>2024-06-24T15:32:56.959Z</time>
      </trkpt>
      <trkpt lat="46.83412" lon="-0.49099">
        <ele>186.7</ele>
        <time>2024-06-24T15:32:57.263Z</time>
      </trkpt>
      <trkpt lat="46.83409" lon="-0.49096">
        <ele>186.69</ele>
        <time>2024-06-24T15:32:57.568Z</time>
      </trkpt>
      <trkpt lat="46.83406" lon="-0.49093">
        <ele>186.68</ele>
        <time>2024-06-24T15:32:57.873Z</time>
      </trkpt>
      <trkpt lat="46.83402" lon="-0.4909">
        <ele>186.68</ele>
        <time>2024-06-24T15:32:58.179Z</time>
      </trkpt>
      <trkpt lat="46.83399" lon="-0.49088">
        <ele>186.67</ele>
        <time>2024-06-24T15:32:58.486Z</time>
      </trkpt>
      <trkpt lat="46.83396" lon="-0.49087">
        <ele>186.66</ele>
        <time>2024-06-24T15:32:58.794Z</time>
      </trkpt>
      <trkpt lat="46.83393" lon="-0.49086">
        <ele>186.66</ele>
        <time>2024-06-24T15:32:59.102Z</time>
      </trkpt>
      <trkpt lat="46.8339" lon="-0.49084">
        <ele>186.66</ele>
        <time>2024-06-24T15:32:59.411Z</time>
      </trkpt>
      <trkpt lat="46.83388" lon="-0.4908">
        <ele>186.66</ele>
        <time>2024-06-24T15:32:59.720Z</time>
      </trkpt>
      <trkpt lat="46.83388" lon="-0.49075">
        <ele>186.66</ele>
        <time>2024-06-24T15:33:00.030Z</time>
      </trkpt>
      <trkpt lat="46.83388" lon="-0.4907">
        <ele>186.66</ele>
        <time>2024-06-24T15:33:00.341Z</time>
      </trkpt>
      <trkpt lat="46.83388" lon="-0.49065">
        <ele>186.67</ele>
        <time>2024-06-24T15:33:00.652Z</time>
      </trkpt>
      <trkpt lat="46.83387" lon="-0.49059">
        <ele>186.68</ele>
        <time>2024-06-24T15:33:00.964Z</time>
      </trkpt>
      <trkpt lat="46.83387" lon="-0.49053">
        <ele>186.69</ele>
        <time>2024-06-24T15:33:01.277Z</time>
      </trkpt>
      <trkpt lat="46.83387" lon="-0.49048">
        <ele>186.7</ele>
        <time>2024-06-24T15:33:01.591Z</time>
      </trkpt>
      <trkpt lat="46.83387" lon="-0.49043">
        <ele>186.71</ele>
        <time>2024-06-24T15:33:01.905Z</time>
      </trkpt>
      <trkpt lat="46.83386" lon="-0.49037">
        <ele>186.73</ele>
        <time>2024-06-24T15:33:02.220Z</time>
      </trkpt>
      <trkpt lat="46.83386" lon="-0.49033">
        <ele>186.74</ele>
        <time>2024-06-24T15:33:02.536Z</time>
      </trkpt>
      <trkpt lat="46.83385" lon="-0.49028">
        <ele>186.76</ele>
        <time>2024-06-24T15:33:02.853Z</time>
      </trkpt>
      <trkpt lat="46.83385" lon="-0.49022">
        <ele>186.79</ele>
        <time>2024-06-24T15:33:03.170Z</time>
      </trkpt>
      <trkpt lat="46.83385" lon="-0.49017">
        <ele>186.81</ele>
        <time>2024-06-24T15:33:03.488Z</time>
      </trkpt>
      <trkpt lat="46.83384" lon="-0.49011">
        <ele>186.84</ele>
        <time>2024-06-24T15:33:03.807Z</time>
      </trkpt>
      <trkpt lat="46.83384" lon="-0.49006">
        <ele>186.87</ele>
        <time>2024-06-24T15:33:04.127Z</time>
      </trkpt>
      <trkpt lat="46.83384" lon="-0.49001">
        <ele>186.9</ele>
        <time>2024-06-24T15:33:04.447Z</time>
      </trkpt>
      <trkpt lat="46.83384" lon="-0.48996">
        <ele>186.93</ele>
        <time>2024-06-24T15:33:04.768Z</time>
      </trkpt>
      <trkpt lat="46.83384" lon="-0.48992">
        <ele>186.96</ele>
        <time>2024-06-24T15:33:05.090Z</time>
      </trkpt>
      <trkpt lat="46.83382" lon="-0.48988">
        <ele>186.99</ele>
        <time>2024-06-24T15:33:05.412Z</time>
      </trkpt>
      <trkpt lat="46.83379" lon="-0.48986">
        <ele>187.01</ele>
        <time>2024-06-24T15:33:05.735Z</time>
      </trkpt>
      <trkpt lat="46.83375" lon="-0.48985">
        <ele>187.04</ele>
        <time>2024-06-24T15:33:06.059Z</time>
      </trkpt>
      <trkpt lat="46.83372" lon="-0.48985">
        <ele>187.06</ele>
        <time>2024-06-24T15:33:06.383Z</time>
      </trkpt>
      <trkpt lat="46.83367" lon="-0.48985">
        <ele>187.09</ele>
        <time>2024-06-24T15:33:06.708Z</time>
      </trkpt>
      <trkpt lat="46.83364" lon="-0.48986">
        <ele>187.13</ele>
        <time>2024-06-24T15:33:07.034Z</time>
      </trkpt>
      <trkpt lat="46.83359" lon="-0.48987">
        <ele>187.16</ele>
        <time>2024-06-24T15:33:07.361Z</time>
      </trkpt>
      <trkpt lat="46.83355" lon="-0.48985">
        <ele>187.2</ele>
        <time>2024-06-24T15:33:07.689Z</time>
      </trkpt>
      <trkpt lat="46.83353" lon="-0.48981">
        <ele>187.24</ele>
        <time>2024-06-24T15:33:08.017Z</time>
      </trkpt>
      <trkpt lat="46.83352" lon="-0.48975">
        <ele>187.28</ele>
        <time>2024-06-24T15:33:08.346Z</time>
      </trkpt>
      <trkpt lat="46.83351" lon="-0.48968">
        <ele>187.33</ele>
        <time>2024-06-24T15:33:08.676Z</time>
      </trkpt>
      <trkpt lat="46.8335" lon="-0.48961">
        <ele>187.38</ele>
        <time>2024-06-24T15:33:09.007Z</time>
      </trkpt>
      <trkpt lat="46.83349" lon="-0.48954">
        <ele>187.43</ele>
        <time>2024-06-24T15:33:09.339Z</time>
      </trkpt>
      <trkpt lat="46.83349" lon="-0.48947">
        <ele>187.48</ele>
        <time>2024-06-24T15:33:09.672Z</time>
      </trkpt>
      <trkpt lat="46.83349" lon="-0.4894">
        <ele>187.54</ele>
        <time>2024-06-24T15:33:10.006Z</time>
      </trkpt>
      <trkpt lat="46.83352" lon="-0.48933">
        <ele>187.6</ele>
        <time>2024-06-24T15:33:10.341Z</time>
      </trkpt>
      <trkpt lat="46.83355" lon="-0.48929">
        <ele>187.66</ele>
        <time>2024-06-24T15:33:10.677Z</time>
      </trkpt>
      <trkpt lat="46.8336" lon="-0.48927">
        <ele>187.73</ele>
        <time>2024-06-24T15:33:11.014Z</time>
      </trkpt>
      <trkpt lat="46.83364" lon="-0.48926">
        <ele>187.8</ele>
        <time>2024-06-24T15:33:11.352Z</time>
      </trkpt>
      <trkpt lat="46.83369" lon="-0.48925">
        <ele>187.87</ele>
        <time>2024-06-24T15:33:11.691Z</time>
      </trkpt>
      <trkpt lat="46.83372" lon="-0.48922">
        <ele>187.94</ele>
        <time>2024-06-24T15:33:12.031Z</time>
      </trkpt>
      <trkpt lat="46.83375" lon="-0.48917">
        <ele>188.01</ele>
        <time>2024-06-24T15:33:12.372Z</time>
      </trkpt>
      <trkpt lat="46.83376" lon="-0.48911">
        <ele>188.08</ele>
        <time>2024-06-24T15:33:12.713Z</time>
      </trkpt>
      <trkpt lat="46.83376" lon="-0.48907">
        <ele>188.15</ele>
        <time>2024-06-24T15:33:13.055Z</time>
      </trkpt>
      <trkpt lat="46.83375" lon="-0.48901">
        <ele>188.23</ele>
        <time>2024-06-24T15:33:13.398Z</time>
      </trkpt>
      <trkpt lat="46.83374" lon="-0.48897">
        <ele>188.3</ele>
        <time>2024-06-24T15:33:13.741Z</time>
      </trkpt>
      <trkpt lat="46.83373" lon="-0.48891">
        <ele>188.38</ele>
        <time>2024-06-24T15:33:14.085Z</time>
      </trkpt>
      <trkpt lat="46.83374" lon="-0.48885">
        <ele>188.46</ele>
        <time>2024-06-24T15:33:14.430Z</time>
      </trkpt>
      <trkpt lat="46.83377" lon="-0.48882">
        <ele>188.54</ele>
        <time>2024-06-24T15:33:14.776Z</time>
      </trkpt>
      <trkpt lat="46.8338" lon="-0.48881">
        <ele>188.62</ele>
        <time>2024-06-24T15:33:15.122Z</time>
      </trkpt>
      <trkpt lat="46.83384" lon="-0.4888">
        <ele>188.69</ele>
        <time>2024-06-24T15:33:15.469Z</time>
      </trkpt>
      <trkpt lat="46.83388" lon="-0.48879">
        <ele>188.77</ele>
        <time>2024-06-24T15:33:15.817Z</time>
      </trkpt>
      <trkpt lat="46.83392" lon="-0.48877">
        <ele>188.85</ele>
        <time>2024-06-24T15:33:16.166Z</time>
      </trkpt>
      <trkpt lat="46.83395" lon="-0.48876">
        <ele>188.92</ele>
        <time>2024-06-24T15:33:16.515Z</time>
      </trkpt>
      <trkpt lat="46.83398" lon="-0.48875">
        <ele>189</ele>
        <time>2024-06-24T15:33:16.865Z</time>
      </trkpt>
      <trkpt lat="46.834" lon="-0.48875">
        <ele>189.08</ele>
        <time>2024-06-24T15:33:17.216Z</time>
      </trkpt>
      <trkpt lat="46.83403" lon="-0.48874">
        <ele>189.16</ele>
        <time>2024-06-24T15:33:17.567Z</time>
      </trkpt>
      <trkpt lat="46.83406" lon="-0.48873">
        <ele>189.24</ele>
        <time>2024-06-24T15:33:17.919Z</time>
      </trkpt>
      <trkpt lat="46.8341" lon="-0.48873">
        <ele>189.31</ele>
        <time>2024-06-24T15:33:18.271Z</time>
      </trkpt>
      <trkpt lat="46.83413" lon="-0.48872">
        <ele>189.39</ele>
        <time>2024-06-24T15:33:18.624Z</time>
      </trkpt>
      <trkpt lat="46.83417" lon="-0.48872">
        <ele>189.47</ele>
        <time>2024-06-24T15:33:18.978Z</time>
      </trkpt>
      <trkpt lat="46.83421" lon="-0.48871">
        <ele>189.55</ele>
        <time>2024-06-24T15:33:19.333Z</time>
      </trkpt>
      <trkpt lat="46.83424" lon="-0.4887">
        <ele>189.62</ele>
        <time>2024-06-24T15:33:19.688Z</time>
      </trkpt>
      <trkpt lat="46.83428" lon="-0.4887">
        <ele>189.69</ele>
        <time>2024-06-24T15:33:20.044Z</time>
      </trkpt>
      <trkpt lat="46.83432" lon="-0.48869">
        <ele>189.76</ele>
        <time>2024-06-24T15:33:20.401Z</time>
      </trkpt>
      <trkpt lat="46.83435" lon="-0.48868">
        <ele>189.83</ele>
        <time>2024-06-24T15:33:20.759Z</time>
      </trkpt>
      <trkpt lat="46.83439" lon="-0.48867">
        <ele>189.9</ele>
        <time>2024-06-24T15:33:21.117Z</time>
      </trkpt>
      <trkpt lat="46.83442" lon="-0.48867">
        <ele>189.97</ele>
        <time>2024-06-24T15:33:21.476Z</time>
      </trkpt>
      <trkpt lat="46.83446" lon="-0.48866">
        <ele>190.04</ele>
        <time>2024-06-24T15:33:21.836Z</time>
      </trkpt>
      <trkpt lat="46.83449" lon="-0.48865">
        <ele>190.1</ele>
        <time>2024-06-24T15:33:22.196Z</time>
      </trkpt>
      <trkpt lat="46.83452" lon="-0.48865">
        <ele>190.17</ele>
        <time>2024-06-24T15:33:22.557Z</time>
      </trkpt>
      <trkpt lat="46.83455" lon="-0.48864">
        <ele>190.23</ele>
        <time>2024-06-24T15:33:22.919Z</time>
      </trkpt>
      <trkpt lat="46.83459" lon="-0.48863">
        <ele>190.3</ele>
        <time>2024-06-24T15:33:23.281Z</time>
      </trkpt>
      <trkpt lat="46.83464" lon="-0.48862">
        <ele>190.37</ele>
        <time>2024-06-24T15:33:23.644Z</time>
      </trkpt>
      <trkpt lat="46.83468" lon="-0.48861">
        <ele>190.43</ele>
        <time>2024-06-24T15:33:24.008Z</time>
      </trkpt>
      <trkpt lat="46.83472" lon="-0.48861">
        <ele>190.49</ele>
        <time>2024-06-24T15:33:24.373Z</time>
      </trkpt>
      <trkpt lat="46.83476" lon="-0.4886">
        <ele>190.56</ele>
        <time>2024-06-24T15:33:24.739Z</time>
      </trkpt>
      <trkpt lat="46.8348" lon="-0.4886">
        <ele>190.62</ele>
        <time>2024-06-24T15:33:25.106Z</time>
      </trkpt>
      <trkpt lat="46.83484" lon="-0.4886">
        <ele>190.68</ele>
        <time>2024-06-24T15:33:25.474Z</time>
      </trkpt>
      <trkpt lat="46.83489" lon="-0.48859">
        <ele>190.73</ele>
        <time>2024-06-24T15:33:25.842Z</time>
      </trkpt>
      <trkpt lat="46.83493" lon="-0.48858">
        <ele>190.79</ele>
        <time>2024-06-24T15:33:26.211Z</time>
      </trkpt>
      <trkpt lat="46.83497" lon="-0.48858">
        <ele>190.85</ele>
        <time>2024-06-24T15:33:26.581Z</time>
      </trkpt>
      <trkpt lat="46.83501" lon="-0.48857">
        <ele>190.9</ele>
        <time>2024-06-24T15:33:26.952Z</time>
      </trkpt>
      <trkpt lat="46.83505" lon="-0.48857">
        <ele>190.96</ele>
        <time>2024-06-24T15:33:27.324Z</time>
      </trkpt>
      <trkpt lat="46.83509" lon="-0.48855">
        <ele>191.01</ele>
        <time>2024-06-24T15:33:27.696Z</time>
      </trkpt>
      <trkpt lat="46.83511" lon="-0.4885">
        <ele>191.07</ele>
        <time>2024-06-24T15:33:28.069Z</time>
      </trkpt>
      <trkpt lat="46.8351" lon="-0.48844">
        <ele>191.12</ele>
        <time>2024-06-24T15:33:28.443Z</time>
      </trkpt>
      <trkpt lat="46.83509" lon="-0.48839">
        <ele>191.18</ele>
        <time>2024-06-24T15:33:28.818Z</time>
      </trkpt>
      <trkpt lat="46.83506" lon="-0.48835">
        <ele>191.23</ele>
        <time>2024-06-24T15:33:29.194Z</time>
      </trkpt>
      <trkpt lat="46.83504" lon="-0.48831">
        <ele>191.28</ele>
        <time>2024-06-24T15:33:29.570Z</time>
      </trkpt>
      <trkpt lat="46.83501" lon="-0.48827">
        <ele>191.33</ele>
        <time>2024-06-24T15:33:29.947Z</time>
      </trkpt>
      <trkpt lat="46.83498" lon="-0.48824">
        <ele>191.38</ele>
        <time>2024-06-24T15:33:30.325Z</time>
      </trkpt>
      <trkpt lat="46.83495" lon="-0.4882">
        <ele>191.43</ele>
        <time>2024-06-24T15:33:30.704Z</time>
      </trkpt>
      <trkpt lat="46.83492" lon="-0.48816">
        <ele>191.47</ele>
        <time>2024-06-24T15:33:31.083Z</time>
      </trkpt>
      <trkpt lat="46.83489" lon="-0.48811">
        <ele>191.52</ele>
        <time>2024-06-24T15:33:31.463Z</time>
      </trkpt>
      <trkpt lat="46.83487" lon="-0.48806">
        <ele>191.56</ele>
        <time>2024-06-24T15:33:31.844Z</time>
      </trkpt>
      <trkpt lat="46.83485" lon="-0.488">
        <ele>191.6</ele>
        <time>2024-06-24T15:33:32.226Z</time>
      </trkpt>
      <trkpt lat="46.83483" lon="-0.48794">
        <ele>191.65</ele>
        <time>2024-06-24T15:33:32.609Z</time>
      </trkpt>
      <trkpt lat="46.83481" lon="-0.48788">
        <ele>191.69</ele>
        <time>2024-06-24T15:33:32.993Z</time>
      </trkpt>
      <trkpt lat="46.83479" lon="-0.48782">
        <ele>191.73</ele>
        <time>2024-06-24T15:33:33.378Z</time>
      </trkpt>
      <trkpt lat="46.83477" lon="-0.48776">
        <ele>191.76</ele>
        <time>2024-06-24T15:33:33.764Z</time>
      </trkpt>
      <trkpt lat="46.83475" lon="-0.4877">
        <ele>191.79</ele>
        <time>2024-06-24T15:33:34.151Z</time>
      </trkpt>
      <trkpt lat="46.83474" lon="-0.48763">
        <ele>191.81</ele>
        <time>2024-06-24T15:33:34.539Z</time>
      </trkpt>
      <trkpt lat="46.83472" lon="-0.48756">
        <ele>191.84</ele>
        <time>2024-06-24T15:33:34.928Z</time>
      </trkpt>
      <trkpt lat="46.83471" lon="-0.48749">
        <ele>191.85</ele>
        <time>2024-06-24T15:33:35.318Z</time>
      </trkpt>
      <trkpt lat="46.83471" lon="-0.48742">
        <ele>191.87</ele>
        <time>2024-06-24T15:33:35.709Z</time>
      </trkpt>
      <trkpt lat="46.8347" lon="-0.48735">
        <ele>191.89</ele>
        <time>2024-06-24T15:33:36.101Z</time>
      </trkpt>
      <trkpt lat="46.8347" lon="-0.48728">
        <ele>191.9</ele>
        <time>2024-06-24T15:33:36.493Z</time>
      </trkpt>
      <trkpt lat="46.83469" lon="-0.48722">
        <ele>191.92</ele>
        <time>2024-06-24T15:33:36.886Z</time>
      </trkpt>
      <trkpt lat="46.83469" lon="-0.48715">
        <ele>191.94</ele>
        <time>2024-06-24T15:33:37.280Z</time>
      </trkpt>
      <trkpt lat="46.83469" lon="-0.48709">
        <ele>191.96</ele>
        <time>2024-06-24T15:33:37.675Z</time>
      </trkpt>
      <trkpt lat="46.83469" lon="-0.48703">
        <ele>191.97</ele>
        <time>2024-06-24T15:33:38.071Z</time>
      </trkpt>
      <trkpt lat="46.83468" lon="-0.48696">
        <ele>191.99</ele>
        <time>2024-06-24T15:33:38.468Z</time>
      </trkpt>
      <trkpt lat="46.83468" lon="-0.4869">
        <ele>192</ele>
        <time>2024-06-24T15:33:38.866Z</time>
      </trkpt>
      <trkpt lat="46.83467" lon="-0.48684">
        <ele>192</ele>
        <time>2024-06-24T15:33:39.265Z</time>
      </trkpt>
      <trkpt lat="46.83466" lon="-0.48678">
        <ele>192.01</ele>
        <time>2024-06-24T15:33:39.664Z</time>
      </trkpt>
      <trkpt lat="46.83464" lon="-0.48672">
        <ele>192.01</ele>
        <time>2024-06-24T15:33:40.064Z</time>
      </trkpt>
      <trkpt lat="46.83463" lon="-0.48665">
        <ele>192.02</ele>
        <time>2024-06-24T15:33:40.465Z</time>
      </trkpt>
      <trkpt lat="46.83463" lon="-0.4866">
        <ele>192.03</ele>
        <time>2024-06-24T15:33:40.867Z</time>
      </trkpt>
      <trkpt lat="46.83464" lon="-0.48656">
        <ele>192.04</ele>
        <time>2024-06-24T15:33:41.270Z</time>
      </trkpt>
      <trkpt lat="46.83467" lon="-0.48653">
        <ele>192.05</ele>
        <time>2024-06-24T15:33:41.673Z</time>
      </trkpt>
      <trkpt lat="46.8347" lon="-0.4865">
        <ele>192.06</ele>
        <time>2024-06-24T15:33:42.077Z</time>
      </trkpt>
      <trkpt lat="46.83474" lon="-0.48648">
        <ele>192.07</ele>
        <time>2024-06-24T15:33:42.482Z</time>
      </trkpt>
      <trkpt lat="46.83478" lon="-0.48645">
        <ele>192.08</ele>
        <time>2024-06-24T15:33:42.888Z</time>
      </trkpt>
      <trkpt lat="46.83482" lon="-0.48644">
        <ele>192.09</ele>
        <time>2024-06-24T15:33:43.295Z</time>
      </trkpt>
      <trkpt lat="46.83486" lon="-0.48642">
        <ele>192.1</ele>
        <time>2024-06-24T15:33:43.702Z</time>
      </trkpt>
      <trkpt lat="46.8349" lon="-0.4864">
        <ele>192.11</ele>
        <time>2024-06-24T15:33:44.110Z</time>
      </trkpt>
      <trkpt lat="46.83494" lon="-0.48638">
        <ele>192.12</ele>
        <time>2024-06-24T15:33:44.519Z</time>
      </trkpt>
      <trkpt lat="46.83498" lon="-0.48637">
        <ele>192.13</ele>
        <time>2024-06-24T15:33:44.929Z</time>
      </trkpt>
      <trkpt lat="46.83502" lon="-0.48635">
        <ele>192.14</ele>
        <time>2024-06-24T15:33:45.340Z</time>
      </trkpt>
      <trkpt lat="46.83507" lon="-0.48633">
        <ele>192.15</ele>
        <time>2024-06-24T15:33:45.752Z</time>
      </trkpt>
      <trkpt lat="46.83511" lon="-0.48632">
        <ele>192.16</ele>
        <time>2024-06-24T15:33:46.165Z</time>
      </trkpt>
      <trkpt lat="46.83515" lon="-0.4863">
        <ele>192.16</ele>
        <time>2024-06-24T15:33:46.578Z</time>
      </trkpt>
      <trkpt lat="46.83519" lon="-0.48628">
        <ele>192.17</ele>
        <time>2024-06-24T15:33:46.992Z</time>
      </trkpt>
      <trkpt lat="46.83523" lon="-0.48625">
        <ele>192.17</ele>
        <time>2024-06-24T15:33:47.407Z</time>
      </trkpt>
      <trkpt lat="46.83527" lon="-0.48623">
        <ele>192.18</ele>
        <time>2024-06-24T15:33:47.823Z</time>
      </trkpt>
      <trkpt lat="46.83531" lon="-0.48621">
        <ele>192.18</ele>
        <time>2024-06-24T15:33:48.240Z</time>
      </trkpt>
      <trkpt lat="46.83535" lon="-0.48619">
        <ele>192.18</ele>
        <time>2024-06-24T15:33:48.658Z</time>
      </trkpt>
      <trkpt lat="46.83539" lon="-0.48617">
        <ele>192.18</ele>
        <time>2024-06-24T15:33:49.077Z</time>
      </trkpt>
      <trkpt lat="46.83543" lon="-0.48615">
        <ele>192.19</ele>
        <time>2024-06-24T15:33:49.496Z</time>
      </trkpt>
      <trkpt lat="46.83547" lon="-0.48612">
        <ele>192.19</ele>
        <time>2024-06-24T15:33:49.916Z</time>
      </trkpt>
      <trkpt lat="46.83551" lon="-0.48611">
        <ele>192.19</ele>
        <time>2024-06-24T15:33:50.337Z</time>
      </trkpt>
      <trkpt lat="46.83555" lon="-0.48609">
        <ele>192.19</ele>
        <time>2024-06-24T15:33:50.759Z</time>
      </trkpt>
      <trkpt lat="46.83559" lon="-0.48607">
        <ele>192.19</ele>
        <time>2024-06-24T15:33:51.182Z</time>
      </trkpt>
      <trkpt lat="46.83563" lon="-0.48605">
        <ele>192.19</ele>
        <time>2024-06-24T15:33:51.606Z</time>
      </trkpt>
      <trkpt lat="46.83567" lon="-0.48604">
        <ele>192.19</ele>
        <time>2024-06-24T15:33:52.030Z</time>
      </trkpt>
      <trkpt lat="46.8357" lon="-0.48602">
        <ele>192.19</ele>
        <time>2024-06-24T15:33:52.455Z</time>
      </trkpt>
      <trkpt lat="46.83574" lon="-0.486">
        <ele>192.18</ele>
        <time>2024-06-24T15:33:52.881Z</time>
      </trkpt>
      <trkpt lat="46.83578" lon="-0.48599">
        <ele>192.18</ele>
        <time>2024-06-24T15:33:53.308Z</time>
      </trkpt>
      <trkpt lat="46.83582" lon="-0.48596">
        <ele>192.17</ele>
        <time>2024-06-24T15:33:53.736Z</time>
      </trkpt>
      <trkpt lat="46.83585" lon="-0.48594">
        <ele>192.17</ele>
        <time>2024-06-24T15:33:54.164Z</time>
      </trkpt>
      <trkpt lat="46.83589" lon="-0.48593">
        <ele>192.16</ele>
        <time>2024-06-24T15:33:54.593Z</time>
      </trkpt>
      <trkpt lat="46.83593" lon="-0.48591">
        <ele>192.15</ele>
        <time>2024-06-24T15:33:55.023Z</time>
      </trkpt>
      <trkpt lat="46.83597" lon="-0.48589">
        <ele>192.14</ele>
        <time>2024-06-24T15:33:55.454Z</time>
      </trkpt>
      <trkpt lat="46.836" lon="-0.48587">
        <ele>192.13</ele>
        <time>2024-06-24T15:33:55.885Z</time>
      </trkpt>
      <trkpt lat="46.83602" lon="-0.48584">
        <ele>192.13</ele>
        <time>2024-06-24T15:33:56.317Z</time>
      </trkpt>
      <trkpt lat="46.83604" lon="-0.48578">
        <ele>192.11</ele>
        <time>2024-06-24T15:33:56.750Z</time>
      </trkpt>
      <trkpt lat="46.83603" lon="-0.48572">
        <ele>192.09</ele>
        <time>2024-06-24T15:33:57.184Z</time>
      </trkpt>
      <trkpt lat="46.83602" lon="-0.48565">
        <ele>192.08</ele>
        <time>2024-06-24T15:33:57.619Z</time>
      </trkpt>
      <trkpt lat="46.83601" lon="-0.48559">
        <ele>192.07</ele>
        <time>2024-06-24T15:33:58.055Z</time>
      </trkpt>
      <trkpt lat="46.836" lon="-0.48552">
        <ele>192.06</ele>
        <time>2024-06-24T15:33:58.492Z</time>
      </trkpt>
      <trkpt lat="46.83599" lon="-0.48546">
        <ele>192.04</ele>
        <time>2024-06-24T15:33:58.929Z</time>
      </trkpt>
      <trkpt lat="46.83598" lon="-0.48539">
        <ele>192.02</ele>
        <time>2024-06-24T15:33:59.367Z</time>
      </trkpt>
      <trkpt lat="46.83597" lon="-0.48531">
        <ele>192</ele>
        <time>2024-06-24T15:33:59.807Z</time>
      </trkpt>
      <trkpt lat="46.83597" lon="-0.48524">
        <ele>191.98</ele>
        <time>2024-06-24T15:34:00.248Z</time>
      </trkpt>
      <trkpt lat="46.83596" lon="-0.48517">
        <ele>191.96</ele>
        <time>2024-06-24T15:34:00.690Z</time>
      </trkpt>
      <trkpt lat="46.83596" lon="-0.4851">
        <ele>191.95</ele>
        <time>2024-06-24T15:34:01.133Z</time>
      </trkpt>
      <trkpt lat="46.83595" lon="-0.48502">
        <ele>191.94</ele>
        <time>2024-06-24T15:34:01.577Z</time>
      </trkpt>
      <trkpt lat="46.83594" lon="-0.48495">
        <ele>191.92</ele>
        <time>2024-06-24T15:34:02.021Z</time>
      </trkpt>
      <trkpt lat="46.83593" lon="-0.48488">
        <ele>191.9</ele>
        <time>2024-06-24T15:34:02.466Z</time>
      </trkpt>
      <trkpt lat="46.83592" lon="-0.4848">
        <ele>191.88</ele>
        <time>2024-06-24T15:34:02.913Z</time>
      </trkpt>
      <trkpt lat="46.83591" lon="-0.48472">
        <ele>191.87</ele>
        <time>2024-06-24T15:34:03.361Z</time>
      </trkpt>
      <trkpt lat="46.83591" lon="-0.48464">
        <ele>191.86</ele>
        <time>2024-06-24T15:34:03.810Z</time>
      </trkpt>
      <trkpt lat="46.8359" lon="-0.48456">
        <ele>191.86</ele>
        <time>2024-06-24T15:34:04.260Z</time>
      </trkpt>
      <trkpt lat="46.83589" lon="-0.48448">
        <ele>191.86</ele>
        <time>2024-06-24T15:34:04.711Z</time>
      </trkpt>
      <trkpt lat="46.83588" lon="-0.48441">
        <ele>191.86</ele>
        <time>2024-06-24T15:34:05.163Z</time>
      </trkpt>
      <trkpt lat="46.83588" lon="-0.48434">
        <ele>191.85</ele>
        <time>2024-06-24T15:34:05.616Z</time>
      </trkpt>
      <trkpt lat="46.83586" lon="-0.48426">
        <ele>191.85</ele>
        <time>2024-06-24T15:34:06.070Z</time>
      </trkpt>
      <trkpt lat="46.83585" lon="-0.48418">
        <ele>191.85</ele>
        <time>2024-06-24T15:34:06.525Z</time>
      </trkpt>
      <trkpt lat="46.83584" lon="-0.4841">
        <ele>191.84</ele>
        <time>2024-06-24T15:34:06.981Z</time>
      </trkpt>
      <trkpt lat="46.83584" lon="-0.48402">
        <ele>191.85</ele>
        <time>2024-06-24T15:34:07.438Z</time>
      </trkpt>
      <trkpt lat="46.83583" lon="-0.48394">
        <ele>191.85</ele>
        <time>2024-06-24T15:34:07.897Z</time>
      </trkpt>
      <trkpt lat="46.83582" lon="-0.48387">
        <ele>191.85</ele>
        <time>2024-06-24T15:34:08.357Z</time>
      </trkpt>
      <trkpt lat="46.83582" lon="-0.4838">
        <ele>191.86</ele>
        <time>2024-06-24T15:34:08.818Z</time>
      </trkpt>
      <trkpt lat="46.83581" lon="-0.48372">
        <ele>191.87</ele>
        <time>2024-06-24T15:34:09.280Z</time>
      </trkpt>
      <trkpt lat="46.83581" lon="-0.48364">
        <ele>191.88</ele>
        <time>2024-06-24T15:34:09.743Z</time>
      </trkpt>
      <trkpt lat="46.8358" lon="-0.48357">
        <ele>191.89</ele>
        <time>2024-06-24T15:34:10.207Z</time>
      </trkpt>
      <trkpt lat="46.83579" lon="-0.48351">
        <ele>191.89</ele>
        <time>2024-06-24T15:34:10.672Z</time>
      </trkpt>
      <trkpt lat="46.83577" lon="-0.48343">
        <ele>191.91</ele>
        <time>2024-06-24T15:34:11.138Z</time>
      </trkpt>
      <trkpt lat="46.83576" lon="-0.48336">
        <ele>191.92</ele>
        <time>2024-06-24T15:34:11.605Z</time>
      </trkpt>
      <trkpt lat="46.83574" lon="-0.48328">
        <ele>191.94</ele>
        <time>2024-06-24T15:34:12.073Z</time>
      </trkpt>
      <trkpt lat="46.83573" lon="-0.4832">
        <ele>191.96</ele>
        <time>2024-06-24T15:34:12.542Z</time>
      </trkpt>
      <trkpt lat="46.8357" lon="-0.48313">
        <ele>191.99</ele>
        <time>2024-06-24T15:34:13.012Z</time>
      </trkpt>
      <trkpt lat="46.83568" lon="-0.48307">
        <ele>192.01</ele>
        <time>2024-06-24T15:34:13.483Z</time>
      </trkpt>
      <trkpt lat="46.83566" lon="-0.48301">
        <ele>192.04</ele>
        <time>2024-06-24T15:34:13.955Z</time>
      </trkpt>
      <trkpt lat="46.83563" lon="-0.48294">
        <ele>192.07</ele>
        <time>2024-06-24T15:34:14.428Z</time>
      </trkpt>
      <trkpt lat="46.83561" lon="-0.48287">
        <ele>192.1</ele>
        <time>2024-06-24T15:34:14.902Z</time>
      </trkpt>
      <trkpt lat="46.83558" lon="-0.48281">
        <ele>192.13</ele>
        <time>2024-06-24T15:34:15.377Z</time>
      </trkpt>
      <trkpt lat="46.83555" lon="-0.48274">
        <ele>192.16</ele>
        <time>2024-06-24T15:34:15.853Z</time>
      </trkpt>
      <trkpt lat="46.83552" lon="-0.48268">
        <ele>192.21</ele>
        <time>2024-06-24T15:34:16.330Z</time>
      </trkpt>
      <trkpt lat="46.83549" lon="-0.48261">
        <ele>192.25</ele>
        <time>2024-06-24T15:34:16.808Z</time>
      </trkpt>
      <trkpt lat="46.83546" lon="-0.48256">
        <ele>192.3</ele>
        <time>2024-06-24T15:34:17.287Z</time>
      </trkpt>
      <trkpt lat="46.83543" lon="-0.4825">
        <ele>192.35</ele>
        <time>2024-06-24T15:34:17.767Z</time>
      </trkpt>
      <trkpt lat="46.8354" lon="-0.48244">
        <ele>192.39</ele>
        <time>2024-06-24T15:34:18.248Z</time>
      </trkpt>
      <trkpt lat="46.83538" lon="-0.48237">
        <ele>192.44</ele>
        <time>2024-06-24T15:34:18.730Z</time>
      </trkpt>
      <trkpt lat="46.83535" lon="-0.48231">
        <ele>192.48</ele>
        <time>2024-06-24T15:34:19.213Z</time>
      </trkpt>
      <trkpt lat="46.83532" lon="-0.48225">
        <ele>192.53</ele>
        <time>2024-06-24T15:34:19.697Z</time>
      </trkpt>
      <trkpt lat="46.8353" lon="-0.4822">
        <ele>192.58</ele>
        <time>2024-06-24T15:34:20.182Z</time>
      </trkpt>
      <trkpt lat="46.83527" lon="-0.48214">
        <ele>192.63</ele>
        <time>2024-06-24T15:34:20.668Z</time>
      </trkpt>
      <trkpt lat="46.83524" lon="-0.48209">
        <ele>192.69</ele>
        <time>2024-06-24T15:34:21.155Z</time>
      </trkpt>
      <trkpt lat="46.83522" lon="-0.48203">
        <ele>192.74</ele>
        <time>2024-06-24T15:34:21.643Z</time>
      </trkpt>
      <trkpt lat="46.83519" lon="-0.48197">
        <ele>192.79</ele>
        <time>2024-06-24T15:34:22.132Z</time>
      </trkpt>
      <trkpt lat="46.83516" lon="-0.48192">
        <ele>192.84</ele>
        <time>2024-06-24T15:34:22.622Z</time>
      </trkpt>
      <trkpt lat="46.83513" lon="-0.48186">
        <ele>192.88</ele>
        <time>2024-06-24T15:34:23.113Z</time>
      </trkpt>
      <trkpt lat="46.83511" lon="-0.48181">
        <ele>192.92</ele>
        <time>2024-06-24T15:34:23.605Z</time>
      </trkpt>
      <trkpt lat="46.83508" lon="-0.48176">
        <ele>192.96</ele>
        <time>2024-06-24T15:34:24.098Z</time>
      </trkpt>
      <trkpt lat="46.83506" lon="-0.48171">
        <ele>193</ele>
        <time>2024-06-24T15:34:24.591Z</time>
      </trkpt>
      <trkpt lat="46.83503" lon="-0.48167">
        <ele>193.05</ele>
        <time>2024-06-24T15:34:25.085Z</time>
      </trkpt>
      <trkpt lat="46.835" lon="-0.48162">
        <ele>193.09</ele>
        <time>2024-06-24T15:34:25.580Z</time>
      </trkpt>
      <trkpt lat="46.83498" lon="-0.48158">
        <ele>193.14</ele>
        <time>2024-06-24T15:34:26.076Z</time>
      </trkpt>
      <trkpt lat="46.83495" lon="-0.48153">
        <ele>193.18</ele>
        <time>2024-06-24T15:34:26.573Z</time>
      </trkpt>
      <trkpt lat="46.83493" lon="-0.48148">
        <ele>193.23</ele>
        <time>2024-06-24T15:34:27.071Z</time>
      </trkpt>
      <trkpt lat="46.83491" lon="-0.48142">
        <ele>193.27</ele>
        <time>2024-06-24T15:34:27.570Z</time>
      </trkpt>
      <trkpt lat="46.83488" lon="-0.48136">
        <ele>193.31</ele>
        <time>2024-06-24T15:34:28.069Z</time>
      </trkpt>
      <trkpt lat="46.83485" lon="-0.48131">
        <ele>193.35</ele>
        <time>2024-06-24T15:34:28.569Z</time>
      </trkpt>
      <trkpt lat="46.83482" lon="-0.48126">
        <ele>193.39</ele>
        <time>2024-06-24T15:34:29.070Z</time>
      </trkpt>
      <trkpt lat="46.8348" lon="-0.48121">
        <ele>193.43</ele>
        <time>2024-06-24T15:34:29.572Z</time>
      </trkpt>
      <trkpt lat="46.83477" lon="-0.48115">
        <ele>193.46</ele>
        <time>2024-06-24T15:34:30.075Z</time>
      </trkpt>
      <trkpt lat="46.83474" lon="-0.48109">
        <ele>193.5</ele>
        <time>2024-06-24T15:34:30.579Z</time>
      </trkpt>
      <trkpt lat="46.83471" lon="-0.48104">
        <ele>193.53</ele>
        <time>2024-06-24T15:34:31.084Z</time>
      </trkpt>
      <trkpt lat="46.83468" lon="-0.48099">
        <ele>193.56</ele>
        <time>2024-06-24T15:34:31.590Z</time>
      </trkpt>
      <trkpt lat="46.83465" lon="-0.48094">
        <ele>193.59</ele>
        <time>2024-06-24T15:34:32.097Z</time>
      </trkpt>
      <trkpt lat="46.83462" lon="-0.48089">
        <ele>193.62</ele>
        <time>2024-06-24T15:34:32.605Z</time>
      </trkpt>
      <trkpt lat="46.83459" lon="-0.48084">
        <ele>193.65</ele>
        <time>2024-06-24T15:34:33.114Z</time>
      </trkpt>
      <trkpt lat="46.83456" lon="-0.48079">
        <ele>193.67</ele>
        <time>2024-06-24T15:34:33.624Z</time>
      </trkpt>
      <trkpt lat="46.83453" lon="-0.48074">
        <ele>193.7</ele>
        <time>2024-06-24T15:34:34.135Z</time>
      </trkpt>
      <trkpt lat="46.8345" lon="-0.48068">
        <ele>193.72</ele>
        <time>2024-06-24T15:34:34.647Z</time>
      </trkpt>
      <trkpt lat="46.83446" lon="-0.48062">
        <ele>193.74</ele>
        <time>2024-06-24T15:34:35.160Z</time>
      </trkpt>
      <trkpt lat="46.83444" lon="-0.48057">
        <ele>193.76</ele>
        <time>2024-06-24T15:34:35.674Z</time>
      </trkpt>
      <trkpt lat="46.83441" lon="-0.48051">
        <ele>193.78</ele>
        <time>2024-06-24T15:34:36.189Z</time>
      </trkpt>
      <trkpt lat="46.83438" lon="-0.48047">
        <ele>193.8</ele>
        <time>2024-06-24T15:34:36.704Z</time>
      </trkpt>
      <trkpt lat="46.83435" lon="-0.48042">
        <ele>193.81</ele>
        <time>2024-06-24T15:34:37.220Z</time>
      </trkpt>
      <trkpt lat="46.83432" lon="-0.48037">
        <ele>193.83</ele>
        <time>2024-06-24T15:34:37.737Z</time>
      </trkpt>
      <trkpt lat="46.83429" lon="-0.48033">
        <ele>193.84</ele>
        <time>2024-06-24T15:34:38.255Z</time>
      </trkpt>
      <trkpt lat="46.83425" lon="-0.48028">
        <ele>193.86</ele>
        <time>2024-06-24T15:34:38.774Z</time>
      </trkpt>
      <trkpt lat="46.83422" lon="-0.48021">
        <ele>193.87</ele>
        <time>2024-06-24T15:34:39.294Z</time>
      </trkpt>
      <trkpt lat="46.83419" lon="-0.48016">
        <ele>193.88</ele>
        <time>2024-06-24T15:34:39.815Z</time>
      </trkpt>
      <trkpt lat="46.83416" lon="-0.48011">
        <ele>193.89</ele>
        <time>2024-06-24T15:34:40.337Z</time>
      </trkpt>
      <trkpt lat="46.83413" lon="-0.48006">
        <ele>193.9</ele>
        <time>2024-06-24T15:34:40.860Z</time>
      </trkpt>
      <trkpt lat="46.8341" lon="-0.48001">
        <ele>193.91</ele>
        <time>2024-06-24T15:34:41.384Z</time>
      </trkpt>
      <trkpt lat="46.83407" lon="-0.47996">
        <ele>193.92</ele>
        <time>2024-06-24T15:34:41.909Z</time>
      </trkpt>
      <trkpt lat="46.83404" lon="-0.4799">
        <ele>193.93</ele>
        <time>2024-06-24T15:34:42.435Z</time>
      </trkpt>
      <trkpt lat="46.834" lon="-0.47984">
        <ele>193.94</ele>
        <time>2024-06-24T15:34:42.962Z</time>
      </trkpt>
      <trkpt lat="46.83397" lon="-0.47979">
        <ele>193.94</ele>
        <time>2024-06-24T15:34:43.490Z</time>
      </trkpt>
      <trkpt lat="46.83394" lon="-0.47974">
        <ele>193.95</ele>
        <time>2024-06-24T15:34:44.019Z</time>
      </trkpt>
      <trkpt lat="46.83391" lon="-0.47969">
        <ele>193.95</ele>
        <time>2024-06-24T15:34:44.549Z</time>
      </trkpt>
      <trkpt lat="46.83387" lon="-0.47963">
        <ele>193.95</ele>
        <time>2024-06-24T15:34:45.080Z</time>
      </trkpt>
      <trkpt lat="46.83384" lon="-0.47958">
        <ele>193.95</ele>
        <time>2024-06-24T15:34:45.612Z</time>
      </trkpt>
      <trkpt lat="46.8338" lon="-0.47952">
        <ele>193.95</ele>
        <time>2024-06-24T15:34:46.145Z</time>
      </trkpt>
      <trkpt lat="46.83376" lon="-0.47947">
        <ele>193.95</ele>
        <time>2024-06-24T15:34:46.679Z</time>
      </trkpt>
      <trkpt lat="46.83373" lon="-0.47942">
        <ele>193.95</ele>
        <time>2024-06-24T15:34:47.214Z</time>
      </trkpt>
      <trkpt lat="46.83369" lon="-0.47937">
        <ele>193.95</ele>
        <time>2024-06-24T15:34:47.750Z</time>
      </trkpt>
      <trkpt lat="46.83366" lon="-0.47932">
        <ele>193.94</ele>
        <time>2024-06-24T15:34:48.287Z</time>
      </trkpt>
      <trkpt lat="46.83362" lon="-0.47926">
        <ele>193.94</ele>
        <time>2024-06-24T15:34:48.825Z</time>
      </trkpt>
      <trkpt lat="46.83358" lon="-0.4792">
        <ele>193.94</ele>
        <time>2024-06-24T15:34:49.364Z</time>
      </trkpt>
      <trkpt lat="46.83354" lon="-0.47914">
        <ele>193.94</ele>
        <time>2024-06-24T15:34:49.904Z</time>
      </trkpt>
      <trkpt lat="46.8335" lon="-0.47909">
        <ele>193.94</ele>
        <time>2024-06-24T15:34:50.445Z</time>
      </trkpt>
      <trkpt lat="46.83346" lon="-0.47904">
        <ele>193.94</ele>
        <time>2024-06-24T15:34:50.987Z</time>
      </trkpt>
      <trkpt lat="46.83343" lon="-0.47898">
        <ele>193.94</ele>
        <time>2024-06-24T15:34:51.530Z</time>
      </trkpt>
      <trkpt lat="46.83339" lon="-0.47892">
        <ele>193.95</ele>
        <time>2024-06-24T15:34:52.074Z</time>
      </trkpt>
      <trkpt lat="46.83335" lon="-0.47887">
        <ele>193.96</ele>
        <time>2024-06-24T15:34:52.619Z</time>
      </trkpt>
      <trkpt lat="46.83331" lon="-0.47882">
        <ele>193.97</ele>
        <time>2024-06-24T15:34:53.165Z</time>
      </trkpt>
      <trkpt lat="46.83327" lon="-0.47877">
        <ele>193.98</ele>
        <time>2024-06-24T15:34:53.713Z</time>
      </trkpt>
      <trkpt lat="46.83323" lon="-0.47872">
        <ele>193.99</ele>
        <time>2024-06-24T15:34:54.262Z</time>
      </trkpt>
      <trkpt lat="46.83319" lon="-0.47867">
        <ele>194</ele>
        <time>2024-06-24T15:34:54.812Z</time>
      </trkpt>
      <trkpt lat="46.83315" lon="-0.47861">
        <ele>194.01</ele>
        <time>2024-06-24T15:34:55.363Z</time>
      </trkpt>
      <trkpt lat="46.83311" lon="-0.47856">
        <ele>194.03</ele>
        <time>2024-06-24T15:34:55.915Z</time>
      </trkpt>
      <trkpt lat="46.83307" lon="-0.47852">
        <ele>194.05</ele>
        <time>2024-06-24T15:34:56.468Z</time>
      </trkpt>
      <trkpt lat="46.83303" lon="-0.47847">
        <ele>194.07</ele>
        <time>2024-06-24T15:34:57.022Z</time>
      </trkpt>
      <trkpt lat="46.83298" lon="-0.47842">
        <ele>194.09</ele>
        <time>2024-06-24T15:34:57.577Z</time>
      </trkpt>
      <trkpt lat="46.83294" lon="-0.47837">
        <ele>194.12</ele>
        <time>2024-06-24T15:34:58.133Z</time>
      </trkpt>
      <trkpt lat="46.8329" lon="-0.47832">
        <ele>194.15</ele>
        <time>2024-06-24T15:34:58.690Z</time>
      </trkpt>
      <trkpt lat="46.83286" lon="-0.47827">
        <ele>194.18</ele>
        <time>2024-06-24T15:34:59.248Z</time>
      </trkpt>
      <trkpt lat="46.83282" lon="-0.47822">
        <ele>194.22</ele>
        <time>2024-06-24T15:34:59.807Z</time>
      </trkpt>
      <trkpt lat="46.83278" lon="-0.47818">
        <ele>194.26</ele>
        <time>2024-06-24T15:35:00.367Z</time>
      </trkpt>
      <trkpt lat="46.83274" lon="-0.47813">
        <ele>194.3</ele>
        <time>2024-06-24T15:35:00.928Z</time>
      </trkpt>
      <trkpt lat="46.8327" lon="-0.47809">
        <ele>194.35</ele>
        <time>2024-06-24T15:35:01.490Z</time>
      </trkpt>
      <trkpt lat="46.83266" lon="-0.47804">
        <ele>194.4</ele>
        <time>2024-06-24T15:35:02.053Z</time>
      </trkpt>
      <trkpt lat="46.83262" lon="-0.478">
        <ele>194.45</ele>
        <time>2024-06-24T15:35:02.617Z</time>
      </trkpt>
      <trkpt lat="46.83258" lon="-0.47796">
        <ele>194.5</ele>
        <time>2024-06-24T15:35:03.182Z</time>
      </trkpt>
      <trkpt lat="46.83255" lon="-0.47791">
        <ele>194.55</ele>
        <time>2024-06-24T15:35:03.748Z</time>
      </trkpt>
      <trkpt lat="46.8325" lon="-0.47786">
        <ele>194.61</ele>
        <time>2024-06-24T15:35:04.315Z</time>
      </trkpt>
      <trkpt lat="46.83247" lon="-0.47782">
        <ele>194.67</ele>
        <time>2024-06-24T15:35:04.883Z</time>
      </trkpt>
      <trkpt lat="46.83243" lon="-0.47777">
        <ele>194.74</ele>
        <time>2024-06-24T15:35:05.452Z</time>
      </trkpt>
      <trkpt lat="46.83239" lon="-0.47772">
        <ele>194.8</ele>
        <time>2024-06-24T15:35:06.022Z</time>
      </trkpt>
      <trkpt lat="46.83236" lon="-0.47765">
        <ele>194.88</ele>
        <time>2024-06-24T15:35:06.593Z</time>
      </trkpt>
      <trkpt lat="46.83233" lon="-0.47758">
        <ele>194.95</ele>
        <time>2024-06-24T15:35:07.166Z</time>
      </trkpt>
      <trkpt lat="46.83233" lon="-0.4775">
        <ele>195.03</ele>
        <time>2024-06-24T15:35:07.740Z</time>
      </trkpt>
      <trkpt lat="46.83234" lon="-0.47742">
        <ele>195.1</ele>
        <time>2024-06-24T15:35:08.315Z</time>
      </trkpt>
      <trkpt lat="46.83237" lon="-0.47735">
        <ele>195.18</ele>
        <time>2024-06-24T15:35:08.891Z</time>
      </trkpt>
      <trkpt lat="46.83241" lon="-0.47732">
        <ele>195.27</ele>
        <time>2024-06-24T15:35:09.468Z</time>
      </trkpt>
      <trkpt lat="46.83245" lon="-0.47728">
        <ele>195.36</ele>
        <time>2024-06-24T15:35:10.046Z</time>
      </trkpt>
      <trkpt lat="46.83248" lon="-0.47724">
        <ele>195.46</ele>
        <time>2024-06-24T15:35:10.625Z</time>
      </trkpt>
      <trkpt lat="46.83252" lon="-0.4772">
        <ele>195.56</ele>
        <time>2024-06-24T15:35:11.205Z</time>
      </trkpt>
      <trkpt lat="46.83256" lon="-0.47716">
        <ele>195.66</ele>
        <time>2024-06-24T15:35:11.785Z</time>
      </trkpt>
      <trkpt lat="46.83258" lon="-0.47713">
        <ele>195.77</ele>
        <time>2024-06-24T15:35:12.366Z</time>
      </trkpt>
      <trkpt lat="46.83262" lon="-0.47709">
        <ele>195.88</ele>
        <time>2024-06-24T15:35:12.948Z</time>
      </trkpt>
      <trkpt lat="46.83265" lon="-0.47706">
        <ele>196</ele>
        <time>2024-06-24T15:35:13.531Z</time>
      </trkpt>
      <trkpt lat="46.83269" lon="-0.47702">
        <ele>196.12</ele>
        <time>2024-06-24T15:35:14.115Z</time>
      </trkpt>
      <trkpt lat="46.83272" lon="-0.47698">
        <ele>196.24</ele>
        <time>2024-06-24T15:35:14.700Z</time>
      </trkpt>
      <trkpt lat="46.83276" lon="-0.47695">
        <ele>196.37</ele>
        <time>2024-06-24T15:35:15.285Z</time>
      </trkpt>
      <trkpt lat="46.83279" lon="-0.47692">
        <ele>196.49</ele>
        <time>2024-06-24T15:35:15.871Z</time>
      </trkpt>
      <trkpt lat="46.83282" lon="-0.47688">
        <ele>196.62</ele>
        <time>2024-06-24T15:35:16.458Z</time>
      </trkpt>
      <trkpt lat="46.83286" lon="-0.47685">
        <ele>196.75</ele>
        <time>2024-06-24T15:35:17.046Z</time>
      </trkpt>
      <trkpt lat="46.83289" lon="-0.47682">
        <ele>196.89</ele>
        <time>2024-06-24T15:35:17.635Z</time>
      </trkpt>
      <trkpt lat="46.83292" lon="-0.47679">
        <ele>197.02</ele>
        <time>2024-06-24T15:35:18.224Z</time>
      </trkpt>
      <trkpt lat="46.83295" lon="-0.47676">
        <ele>197.15</ele>
        <time>2024-06-24T15:35:18.814Z</time>
      </trkpt>
      <trkpt lat="46.83298" lon="-0.47673">
        <ele>197.29</ele>
        <time>2024-06-24T15:35:19.405Z</time>
      </trkpt>
      <trkpt lat="46.83301" lon="-0.4767">
        <ele>197.43</ele>
        <time>2024-06-24T15:35:19.997Z</time>
      </trkpt>
      <trkpt lat="46.83304" lon="-0.47668">
        <ele>197.57</ele>
        <time>2024-06-24T15:35:20.589Z</time>
      </trkpt>
      <trkpt lat="46.83307" lon="-0.47666">
        <ele>197.71</ele>
        <time>2024-06-24T15:35:21.182Z</time>
      </trkpt>
      <trkpt lat="46.83309" lon="-0.47663">
        <ele>197.85</ele>
        <time>2024-06-24T15:35:21.776Z</time>
      </trkpt>
      <trkpt lat="46.83312" lon="-0.47659">
        <ele>197.99</ele>
        <time>2024-06-24T15:35:22.370Z</time>
      </trkpt>
      <trkpt lat="46.83315" lon="-0.47656">
        <ele>198.14</ele>
        <time>2024-06-24T15:35:22.965Z</time>
      </trkpt>
      <trkpt lat="46.83318" lon="-0.47653">
        <ele>198.28</ele>
        <time>2024-06-24T15:35:23.561Z</time>
      </trkpt>
      <trkpt lat="46.83321" lon="-0.4765">
        <ele>198.43</ele>
        <time>2024-06-24T15:35:24.157Z</time>
      </trkpt>
      <trkpt lat="46.83323" lon="-0.47647">
        <ele>198.58</ele>
        <time>2024-06-24T15:35:24.754Z</time>
      </trkpt>
      <trkpt lat="46.83326" lon="-0.47644">
        <ele>198.72</ele>
        <time>2024-06-24T15:35:25.352Z</time>
      </trkpt>
      <trkpt lat="46.83329" lon="-0.47641">
        <ele>198.87</ele>
        <time>2024-06-24T15:35:25.950Z</time>
      </trkpt>
      <trkpt lat="46.83332" lon="-0.47638">
        <ele>199.02</ele>
        <time>2024-06-24T15:35:26.549Z</time>
      </trkpt>
      <trkpt lat="46.83334" lon="-0.47635">
        <ele>199.17</ele>
        <time>2024-06-24T15:35:27.149Z</time>
      </trkpt>
      <trkpt lat="46.83337" lon="-0.47632">
        <ele>199.32</ele>
        <time>2024-06-24T15:35:27.749Z</time>
      </trkpt>
      <trkpt lat="46.8334" lon="-0.47629">
        <ele>199.47</ele>
        <time>2024-06-24T15:35:28.350Z</time>
      </trkpt>
      <trkpt lat="46.83343" lon="-0.47626">
        <ele>199.62</ele>
        <time>2024-06-24T15:35:28.952Z</time>
      </trkpt>
      <trkpt lat="46.83345" lon="-0.47623">
        <ele>199.76</ele>
        <time>2024-06-24T15:35:29.555Z</time>
      </trkpt>
      <trkpt lat="46.83348" lon="-0.47621">
        <ele>199.91</ele>
        <time>2024-06-24T15:35:30.158Z</time>
      </trkpt>
      <trkpt lat="46.83351" lon="-0.47618">
        <ele>200.05</ele>
        <time>2024-06-24T15:35:30.762Z</time>
      </trkpt>
      <trkpt lat="46.83354" lon="-0.47615">
        <ele>200.2</ele>
        <time>2024-06-24T15:35:31.367Z</time>
      </trkpt>
      <trkpt lat="46.83356" lon="-0.47612">
        <ele>200.34</ele>
        <time>2024-06-24T15:35:31.972Z</time>
      </trkpt>
      <trkpt lat="46.83359" lon="-0.47609">
        <ele>200.48</ele>
        <time>2024-06-24T15:35:32.578Z</time>
      </trkpt>
      <trkpt lat="46.83362" lon="-0.47606">
        <ele>200.63</ele>
        <time>2024-06-24T15:35:33.185Z</time>
      </trkpt>
      <trkpt lat="46.83365" lon="-0.47603">
        <ele>200.77</ele>
        <time>2024-06-24T15:35:33.792Z</time>
      </trkpt>
      <trkpt lat="46.83367" lon="-0.47599">
        <ele>200.91</ele>
        <time>2024-06-24T15:35:34.400Z</time>
      </trkpt>
      <trkpt lat="46.8337" lon="-0.47596">
        <ele>201.04</ele>
        <time>2024-06-24T15:35:35.009Z</time>
      </trkpt>
      <trkpt lat="46.83373" lon="-0.47593">
        <ele>201.18</ele>
        <time>2024-06-24T15:35:35.618Z</time>
      </trkpt>
      <trkpt lat="46.83375" lon="-0.4759">
        <ele>201.31</ele>
        <time>2024-06-24T15:35:36.228Z</time>
      </trkpt>
      <trkpt lat="46.83378" lon="-0.47588">
        <ele>201.44</ele>
        <time>2024-06-24T15:35:36.839Z</time>
      </trkpt>
      <trkpt lat="46.83381" lon="-0.47585">
        <ele>201.57</ele>
        <time>2024-06-24T15:35:37.450Z</time>
      </trkpt>
      <trkpt lat="46.83384" lon="-0.47583">
        <ele>201.69</ele>
        <time>2024-06-24T15:35:38.062Z</time>
      </trkpt>
      <trkpt lat="46.83387" lon="-0.4758">
        <ele>201.82</ele>
        <time>2024-06-24T15:35:38.675Z</time>
      </trkpt>
      <trkpt lat="46.8339" lon="-0.47578">
        <ele>201.94</ele>
        <time>2024-06-24T15:35:39.288Z</time>
      </trkpt>
      <trkpt lat="46.83393" lon="-0.47575">
        <ele>202.06</ele>
        <time>2024-06-24T15:35:39.902Z</time>
      </trkpt>
      <trkpt lat="46.83395" lon="-0.47572">
        <ele>202.18</ele>
        <time>2024-06-24T15:35:40.517Z</time>
      </trkpt>
      <trkpt lat="46.83398" lon="-0.4757">
        <ele>202.29</ele>
        <time>2024-06-24T15:35:41.132Z</time>
      </trkpt>
      <trkpt lat="46.83401" lon="-0.47566">
        <ele>202.41</ele>
        <time>2024-06-24T15:35:41.748Z</time>
      </trkpt>
      <trkpt lat="46.83404" lon="-0.47562">
        <ele>202.52</ele>
        <time>2024-06-24T15:35:42.365Z</time>
      </trkpt>
      <trkpt lat="46.83406" lon="-0.47559">
        <ele>202.63</ele>
        <time>2024-06-24T15:35:42.983Z</time>
      </trkpt>
      <trkpt lat="46.83408" lon="-0.47555">
        <ele>202.74</ele>
        <time>2024-06-24T15:35:43.601Z</time>
      </trkpt>
      <trkpt lat="46.83411" lon="-0.47552">
        <ele>202.84</ele>
        <time>2024-06-24T15:35:44.220Z</time>
      </trkpt>
      <trkpt lat="46.83413" lon="-0.47549">
        <ele>202.94</ele>
        <time>2024-06-24T15:35:44.840Z</time>
      </trkpt>
      <trkpt lat="46.83416" lon="-0.47545">
        <ele>203.04</ele>
        <time>2024-06-24T15:35:45.460Z</time>
      </trkpt>
      <trkpt lat="46.83418" lon="-0.47541">
        <ele>203.13</ele>
        <time>2024-06-24T15:35:46.081Z</time>
      </trkpt>
      <trkpt lat="46.8342" lon="-0.47538">
        <ele>203.22</ele>
        <time>2024-06-24T15:35:46.703Z</time>
      </trkpt>
      <trkpt lat="46.83422" lon="-0.47534">
        <ele>203.31</ele>
        <time>2024-06-24T15:35:47.325Z</time>
      </trkpt>
      <trkpt lat="46.83423" lon="-0.47529">
        <ele>203.39</ele>
        <time>2024-06-24T15:35:47.948Z</time>
      </trkpt>
      <trkpt lat="46.83424" lon="-0.47524">
        <ele>203.48</ele>
        <time>2024-06-24T15:35:48.572Z</time>
      </trkpt>
      <trkpt lat="46.83424" lon="-0.47519">
        <ele>203.56</ele>
        <time>2024-06-24T15:35:49.196Z</time>
      </trkpt>
      <trkpt lat="46.83423" lon="-0.47514">
        <ele>203.63</ele>
        <time>2024-06-24T15:35:49.821Z</time>
      </trkpt>
      <trkpt lat="46.83422" lon="-0.47508">
        <ele>203.71</ele>
        <time>2024-06-24T15:35:50.447Z</time>
      </trkpt>
      <trkpt lat="46.83421" lon="-0.47503">
        <ele>203.78</ele>
        <time>2024-06-24T15:35:51.074Z</time>
      </trkpt>
      <trkpt lat="46.8342" lon="-0.47497">
        <ele>203.84</ele>
        <time>2024-06-24T15:35:51.701Z</time>
      </trkpt>
      <trkpt lat="46.83418" lon="-0.47492">
        <ele>203.9</ele>
        <time>2024-06-24T15:35:52.329Z</time>
      </trkpt>
      <trkpt lat="46.83417" lon="-0.47486">
        <ele>203.96</ele>
        <time>2024-06-24T15:35:52.958Z</time>
      </trkpt>
      <trkpt lat="46.83415" lon="-0.47481">
        <ele>204.02</ele>
        <time>2024-06-24T15:35:53.588Z</time>
      </trkpt>
      <trkpt lat="46.83413" lon="-0.47476">
        <ele>204.07</ele>
        <time>2024-06-24T15:35:54.219Z</time>
      </trkpt>
      <trkpt lat="46.83411" lon="-0.4747">
        <ele>204.12</ele>
        <time>2024-06-24T15:35:54.851Z</time>
      </trkpt>
      <trkpt lat="46.83409" lon="-0.47465">
        <ele>204.17</ele>
        <time>2024-06-24T15:35:55.483Z</time>
      </trkpt>
      <trkpt lat="46.83407" lon="-0.4746">
        <ele>204.22</ele>
        <time>2024-06-24T15:35:56.116Z</time>
      </trkpt>
      <trkpt lat="46.83405" lon="-0.47454">
        <ele>204.27</ele>
        <time>2024-06-24T15:35:56.750Z</time>
      </trkpt>
      <trkpt lat="46.83403" lon="-0.47449">
        <ele>204.32</ele>
        <time>2024-06-24T15:35:57.385Z</time>
      </trkpt>
      <trkpt lat="46.83401" lon="-0.47443">
        <ele>204.36</ele>
        <time>2024-06-24T15:35:58.021Z</time>
      </trkpt>
      <trkpt lat="46.83399" lon="-0.47437">
        <ele>204.4</ele>
        <time>2024-06-24T15:35:58.658Z</time>
      </trkpt>
      <trkpt lat="46.83397" lon="-0.47431">
        <ele>204.43</ele>
        <time>2024-06-24T15:35:59.296Z</time>
      </trkpt>
      <trkpt lat="46.83395" lon="-0.47425">
        <ele>204.47</ele>
        <time>2024-06-24T15:35:59.935Z</time>
      </trkpt>
      <trkpt lat="46.83393" lon="-0.47419">
        <ele>204.5</ele>
        <time>2024-06-24T15:36:00.574Z</time>
      </trkpt>
      <trkpt lat="46.83391" lon="-0.47414">
        <ele>204.54</ele>
        <time>2024-06-24T15:36:01.214Z</time>
      </trkpt>
      <trkpt lat="46.83389" lon="-0.47408">
        <ele>204.58</ele>
        <time>2024-06-24T15:36:01.855Z</time>
      </trkpt>
      <trkpt lat="46.83387" lon="-0.47402">
        <ele>204.61</ele>
        <time>2024-06-24T15:36:02.497Z</time>
      </trkpt>
      <trkpt lat="46.83385" lon="-0.47396">
        <ele>204.65</ele>
        <time>2024-06-24T15:36:03.140Z</time>
      </trkpt>
      <trkpt lat="46.83382" lon="-0.47391">
        <ele>204.68</ele>
        <time>2024-06-24T15:36:03.784Z</time>
      </trkpt>
      <trkpt lat="46.8338" lon="-0.47387">
        <ele>204.72</ele>
        <time>2024-06-24T15:36:04.429Z</time>
      </trkpt>
      <trkpt lat="46.83377" lon="-0.47382">
        <ele>204.76</ele>
        <time>2024-06-24T15:36:05.075Z</time>
      </trkpt>
      <trkpt lat="46.83373" lon="-0.47377">
        <ele>204.78</ele>
        <time>2024-06-24T15:36:05.722Z</time>
      </trkpt>
      <trkpt lat="46.8337" lon="-0.47373">
        <ele>204.81</ele>
        <time>2024-06-24T15:36:06.369Z</time>
      </trkpt>
      <trkpt lat="46.83367" lon="-0.47369">
        <ele>204.84</ele>
        <time>2024-06-24T15:36:07.017Z</time>
      </trkpt>
      <trkpt lat="46.83364" lon="-0.47365">
        <ele>204.87</ele>
        <time>2024-06-24T15:36:07.666Z</time>
      </trkpt>
      <trkpt lat="46.83361" lon="-0.47361">
        <ele>204.9</ele>
        <time>2024-06-24T15:36:08.316Z</time>
      </trkpt>
      <trkpt lat="46.83359" lon="-0.47358">
        <ele>204.94</ele>
        <time>2024-06-24T15:36:08.966Z</time>
      </trkpt>
      <trkpt lat="46.83357" lon="-0.47357">
        <ele>204.98</ele>
        <time>2024-06-24T15:36:09.617Z</time>
      </trkpt>
      <trkpt lat="46.83355" lon="-0.47358">
        <ele>205.02</ele>
        <time>2024-06-24T15:36:10.268Z</time>
      </trkpt>
      <trkpt lat="46.83352" lon="-0.4736">
        <ele>205.06</ele>
        <time>2024-06-24T15:36:10.920Z</time>
      </trkpt>
      <trkpt lat="46.8335" lon="-0.47362">
        <ele>205.1</ele>
        <time>2024-06-24T15:36:11.572Z</time>
      </trkpt>
      <trkpt lat="46.83347" lon="-0.47366">
        <ele>205.15</ele>
        <time>2024-06-24T15:36:12.225Z</time>
      </trkpt>
      <trkpt lat="46.83345" lon="-0.4737">
        <ele>205.19</ele>
        <time>2024-06-24T15:36:12.879Z</time>
      </trkpt>
      <trkpt lat="46.83341" lon="-0.47373">
        <ele>205.24</ele>
        <time>2024-06-24T15:36:13.534Z</time>
      </trkpt>
      <trkpt lat="46.83337" lon="-0.47374">
        <ele>205.29</ele>
        <time>2024-06-24T15:36:14.190Z</time>
      </trkpt>
      <trkpt lat="46.83333" lon="-0.47372">
        <ele>205.35</ele>
        <time>2024-06-24T15:36:14.846Z</time>
      </trkpt>
      <trkpt lat="46.83329" lon="-0.47369">
        <ele>205.4</ele>
        <time>2024-06-24T15:36:15.503Z</time>
      </trkpt>
      <trkpt lat="46.83325" lon="-0.47365">
        <ele>205.46</ele>
        <time>2024-06-24T15:36:16.161Z</time>
      </trkpt>
      <trkpt lat="46.83322" lon="-0.4736">
        <ele>205.53</ele>
        <time>2024-06-24T15:36:16.820Z</time>
      </trkpt>
      <trkpt lat="46.83319" lon="-0.47356">
        <ele>205.59</ele>
        <time>2024-06-24T15:36:17.480Z</time>
      </trkpt>
      <trkpt lat="46.83316" lon="-0.47351">
        <ele>205.66</ele>
        <time>2024-06-24T15:36:18.141Z</time>
      </trkpt>
      <trkpt lat="46.83313" lon="-0.47346">
        <ele>205.74</ele>
        <time>2024-06-24T15:36:18.803Z</time>
      </trkpt>
      <trkpt lat="46.8331" lon="-0.47341">
        <ele>205.82</ele>
        <time>2024-06-24T15:36:19.466Z</time>
      </trkpt>
      <trkpt lat="46.83309" lon="-0.47335">
        <ele>205.9</ele>
        <time>2024-06-24T15:36:20.130Z</time>
      </trkpt>
      <trkpt lat="46.83311" lon="-0.47329">
        <ele>205.99</ele>
        <time>2024-06-24T15:36:20.794Z</time>
      </trkpt>
      <trkpt lat="46.83314" lon="-0.47324">
        <ele>206.08</ele>
        <time>2024-06-24T15:36:21.459Z</time>
      </trkpt>
      <trkpt lat="46.83316" lon="-0.4732">
        <ele>206.18</ele>
        <time>2024-06-24T15:36:22.125Z</time>
      </trkpt>
      <trkpt lat="46.83319" lon="-0.47316">
        <ele>206.28</ele>
        <time>2024-06-24T15:36:22.792Z</time>
      </trkpt>
      <trkpt lat="46.83322" lon="-0.47313">
        <ele>206.39</ele>
        <time>2024-06-24T15:36:23.460Z</time>
      </trkpt>
      <trkpt lat="46.83325" lon="-0.47309">
        <ele>206.49</ele>
        <time>2024-06-24T15:36:24.128Z</time>
      </trkpt>
      <trkpt lat="46.83328" lon="-0.47304">
        <ele>206.6</ele>
        <time>2024-06-24T15:36:24.797Z</time>
      </trkpt>
      <trkpt lat="46.83331" lon="-0.47301">
        <ele>206.71</ele>
        <time>2024-06-24T15:36:25.467Z</time>
      </trkpt>
      <trkpt lat="46.83333" lon="-0.47298">
        <ele>206.83</ele>
        <time>2024-06-24T15:36:26.138Z</time>
      </trkpt>
      <trkpt lat="46.83336" lon="-0.47295">
        <ele>206.94</ele>
        <time>2024-06-24T15:36:26.809Z</time>
      </trkpt>
      <trkpt lat="46.83339" lon="-0.47292">
        <ele>207.06</ele>
        <time>2024-06-24T15:36:27.481Z</time>
      </trkpt>
      <trkpt lat="46.83342" lon="-0.47289">
        <ele>207.18</ele>
        <time>2024-06-24T15:36:28.154Z</time>
      </trkpt>
      <trkpt lat="46.83344" lon="-0.47285">
        <ele>207.3</ele>
        <time>2024-06-24T15:36:28.827Z</time>
      </trkpt>
      <trkpt lat="46.83347" lon="-0.47283">
        <ele>207.43</ele>
        <time>2024-06-24T15:36:29.501Z</time>
      </trkpt>
      <trkpt lat="46.8335" lon="-0.4728">
        <ele>207.55</ele>
        <time>2024-06-24T15:36:30.176Z</time>
      </trkpt>
      <trkpt lat="46.83353" lon="-0.47277">
        <ele>207.68</ele>
        <time>2024-06-24T15:36:30.852Z</time>
      </trkpt>
      <trkpt lat="46.83355" lon="-0.47274">
        <ele>207.8</ele>
        <time>2024-06-24T15:36:31.528Z</time>
      </trkpt>
      <trkpt lat="46.83358" lon="-0.47271">
        <ele>207.92</ele>
        <time>2024-06-24T15:36:32.205Z</time>
      </trkpt>
      <trkpt lat="46.83361" lon="-0.47268">
        <ele>208.05</ele>
        <time>2024-06-24T15:36:32.883Z</time>
      </trkpt>
      <trkpt lat="46.83363" lon="-0.47264">
        <ele>208.17</ele>
        <time>2024-06-24T15:36:33.561Z</time>
      </trkpt>
      <trkpt lat="46.83366" lon="-0.47261">
        <ele>208.29</ele>
        <time>2024-06-24T15:36:34.240Z</time>
      </trkpt>
      <trkpt lat="46.83369" lon="-0.47257">
        <ele>208.41</ele>
        <time>2024-06-24T15:36:34.920Z</time>
      </trkpt>
      <trkpt lat="46.83371" lon="-0.47254">
        <ele>208.52</ele>
        <time>2024-06-24T15:36:35.600Z</time>
      </trkpt>
      <trkpt lat="46.83374" lon="-0.47251">
        <ele>208.64</ele>
        <time>2024-06-24T15:36:36.281Z</time>
      </trkpt>
      <trkpt lat="46.83376" lon="-0.47247">
        <ele>208.75</ele>
        <time>2024-06-24T15:36:36.963Z</time>
      </trkpt>
      <trkpt lat="46.83379" lon="-0.47244">
        <ele>208.86</ele>
        <time>2024-06-24T15:36:37.645Z</time>
      </trkpt>
      <trkpt lat="46.83382" lon="-0.4724">
        <ele>208.96</ele>
        <time>2024-06-24T15:36:38.328Z</time>
      </trkpt>
      <trkpt lat="46.83385" lon="-0.47236">
        <ele>209.06</ele>
        <time>2024-06-24T15:36:39.012Z</time>
      </trkpt>
      <trkpt lat="46.83388" lon="-0.47233">
        <ele>209.16</ele>
        <time>2024-06-24T15:36:39.697Z</time>
      </trkpt>
      <trkpt lat="46.83391" lon="-0.4723">
        <ele>209.26</ele>
        <time>2024-06-24T15:36:40.382Z</time>
      </trkpt>
      <trkpt lat="46.83393" lon="-0.47227">
        <ele>209.35</ele>
        <time>2024-06-24T15:36:41.068Z</time>
      </trkpt>
      <trkpt lat="46.83396" lon="-0.47224">
        <ele>209.44</ele>
        <time>2024-06-24T15:36:41.755Z</time>
      </trkpt>
      <trkpt lat="46.83399" lon="-0.47221">
        <ele>209.52</ele>
        <time>2024-06-24T15:36:42.442Z</time>
      </trkpt>
      <trkpt lat="46.83402" lon="-0.47218">
        <ele>209.59</ele>
        <time>2024-06-24T15:36:43.130Z</time>
      </trkpt>
      <trkpt lat="46.83405" lon="-0.47215">
        <ele>209.66</ele>
        <time>2024-06-24T15:36:43.819Z</time>
      </trkpt>
      <trkpt lat="46.83408" lon="-0.47212">
        <ele>209.72</ele>
        <time>2024-06-24T15:36:44.509Z</time>
      </trkpt>
      <trkpt lat="46.83411" lon="-0.47209">
        <ele>209.78</ele>
        <time>2024-06-24T15:36:45.199Z</time>
      </trkpt>
      <trkpt lat="46.83414" lon="-0.47206">
        <ele>209.83</ele>
        <time>2024-06-24T15:36:45.890Z</time>
      </trkpt>
      <trkpt lat="46.83416" lon="-0.47203">
        <ele>209.88</ele>
        <time>2024-06-24T15:36:46.582Z</time>
      </trkpt>
      <trkpt lat="46.8342" lon="-0.47199">
        <ele>209.92</ele>
        <time>2024-06-24T15:36:47.275Z</time>
      </trkpt>
      <trkpt lat="46.83423" lon="-0.47196">
        <ele>209.96</ele>
        <time>2024-06-24T15:36:47.968Z</time>
      </trkpt>
      <trkpt lat="46.83426" lon="-0.47193">
        <ele>209.99</ele>
        <time>2024-06-24T15:36:48.662Z</time>
      </trkpt>
      <trkpt lat="46.83429" lon="-0.4719">
        <ele>210.02</ele>
        <time>2024-06-24T15:36:49.357Z</time>
      </trkpt>
      <trkpt lat="46.83432" lon="-0.47186">
        <ele>210.05</ele>
        <time>2024-06-24T15:36:50.053Z</time>
      </trkpt>
      <trkpt lat="46.83433" lon="-0.47181">
        <ele>210.06</ele>
        <time>2024-06-24T15:36:50.749Z</time>
      </trkpt>
      <trkpt lat="46.83434" lon="-0.47175">
        <ele>210.08</ele>
        <time>2024-06-24T15:36:51.446Z</time>
      </trkpt>
      <trkpt lat="46.83433" lon="-0.47169">
        <ele>210.09</ele>
        <time>2024-06-24T15:36:52.144Z</time>
      </trkpt>
      <trkpt lat="46.83432" lon="-0.47163">
        <ele>210.1</ele>
        <time>2024-06-24T15:36:52.843Z</time>
      </trkpt>
      <trkpt lat="46.83431" lon="-0.47156">
        <ele>210.09</ele>
        <time>2024-06-24T15:36:53.543Z</time>
      </trkpt>
      <trkpt lat="46.83428" lon="-0.47151">
        <ele>210.08</ele>
        <time>2024-06-24T15:36:54.244Z</time>
      </trkpt>
      <trkpt lat="46.83426" lon="-0.47145">
        <ele>210.07</ele>
        <time>2024-06-24T15:36:54.946Z</time>
      </trkpt>
      <trkpt lat="46.83424" lon="-0.47138">
        <ele>210.05</ele>
        <time>2024-06-24T15:36:55.649Z</time>
      </trkpt>
      <trkpt lat="46.83423" lon="-0.47132">
        <ele>210.02</ele>
        <time>2024-06-24T15:36:56.353Z</time>
      </trkpt>
      <trkpt lat="46.83421" lon="-0.47126">
        <ele>210</ele>
        <time>2024-06-24T15:36:57.057Z</time>
      </trkpt>
      <trkpt lat="46.83419" lon="-0.4712">
        <ele>209.97</ele>
        <time>2024-06-24T15:36:57.762Z</time>
      </trkpt>
      <trkpt lat="46.83417" lon="-0.47114">
        <ele>209.93</ele>
        <time>2024-06-24T15:36:58.468Z</time>
      </trkpt>
      <trkpt lat="46.83415" lon="-0.47107">
        <ele>209.89</ele>
        <time>2024-06-24T15:36:59.175Z</time>
      </trkpt>
      <trkpt lat="46.83414" lon="-0.471">
        <ele>209.84</ele>
        <time>2024-06-24T15:36:59.883Z</time>
      </trkpt>
      <trkpt lat="46.83413" lon="-0.47093">
        <ele>209.79</ele>
        <time>2024-06-24T15:37:00.592Z</time>
      </trkpt>
      <trkpt lat="46.83412" lon="-0.47087">
        <ele>209.74</ele>
        <time>2024-06-24T15:37:01.302Z</time>
      </trkpt>
      <trkpt lat="46.8341" lon="-0.47081">
        <ele>209.68</ele>
        <time>2024-06-24T15:37:02.013Z</time>
      </trkpt>
      <trkpt lat="46.83408" lon="-0.47075">
        <ele>209.63</ele>
        <time>2024-06-24T15:37:02.725Z</time>
      </trkpt>
      <trkpt lat="46.83406" lon="-0.47069">
        <ele>209.57</ele>
        <time>2024-06-24T15:37:03.438Z</time>
      </trkpt>
      <trkpt lat="46.83404" lon="-0.47062">
        <ele>209.51</ele>
        <time>2024-06-24T15:37:04.152Z</time>
      </trkpt>
      <trkpt lat="46.83402" lon="-0.47055">
        <ele>209.44</ele>
        <time>2024-06-24T15:37:04.867Z</time>
      </trkpt>
      <trkpt lat="46.834" lon="-0.47048">
        <ele>209.37</ele>
        <time>2024-06-24T15:37:05.583Z</time>
      </trkpt>
      <trkpt lat="46.83398" lon="-0.4704">
        <ele>209.29</ele>
        <time>2024-06-24T15:37:06.300Z</time>
      </trkpt>
      <trkpt lat="46.83395" lon="-0.47033">
        <ele>209.21</ele>
        <time>2024-06-24T15:37:07.018Z</time>
      </trkpt>
      <trkpt lat="46.83393" lon="-0.47026">
        <ele>209.12</ele>
        <time>2024-06-24T15:37:07.737Z</time>
      </trkpt>
      <trkpt lat="46.8339" lon="-0.47019">
        <ele>209.03</ele>
        <time>2024-06-24T15:37:08.457Z</time>
      </trkpt>
      <trkpt lat="46.83387" lon="-0.47014">
        <ele>208.94</ele>
        <time>2024-06-24T15:37:09.178Z</time>
      </trkpt>
      <trkpt lat="46.83384" lon="-0.47007">
        <ele>208.84</ele>
        <time>2024-06-24T15:37:09.901Z</time>
      </trkpt>
      <trkpt lat="46.83381" lon="-0.46999">
        <ele>208.73</ele>
        <time>2024-06-24T15:37:10.625Z</time>
      </trkpt>
      <trkpt lat="46.83378" lon="-0.46991">
        <ele>208.62</ele>
        <time>2024-06-24T15:37:11.350Z</time>
      </trkpt>
      <trkpt lat="46.83375" lon="-0.46984">
        <ele>208.51</ele>
        <time>2024-06-24T15:37:12.076Z</time>
      </trkpt>
      <trkpt lat="46.83372" lon="-0.46977">
        <ele>208.4</ele>
        <time>2024-06-24T15:37:12.803Z</time>
      </trkpt>
      <trkpt lat="46.83368" lon="-0.4697">
        <ele>208.28</ele>
        <time>2024-06-24T15:37:13.531Z</time>
      </trkpt>
      <trkpt lat="46.83365" lon="-0.46963">
        <ele>208.17</ele>
        <time>2024-06-24T15:37:14.261Z</time>
      </trkpt>
      <trkpt lat="46.83362" lon="-0.46955">
        <ele>208.05</ele>
        <time>2024-06-24T15:37:14.992Z</time>
      </trkpt>
      <trkpt lat="46.83359" lon="-0.46948">
        <ele>207.93</ele>
        <time>2024-06-24T15:37:15.724Z</time>
      </trkpt>
      <trkpt lat="46.83355" lon="-0.46941">
        <ele>207.81</ele>
        <time>2024-06-24T15:37:16.457Z</time>
      </trkpt>
      <trkpt lat="46.83352" lon="-0.46934">
        <ele>207.69</ele>
        <time>2024-06-24T15:37:17.191Z</time>
      </trkpt>
      <trkpt lat="46.83349" lon="-0.46928">
        <ele>207.57</ele>
        <time>2024-06-24T15:37:17.926Z</time>
      </trkpt>
      <trkpt lat="46.83346" lon="-0.46921">
        <ele>207.44</ele>
        <time>2024-06-24T15:37:18.663Z</time>
      </trkpt>
      <trkpt lat="46.83343" lon="-0.46914">
        <ele>207.32</ele>
        <time>2024-06-24T15:37:19.401Z</time>
      </trkpt>
      <trkpt lat="46.8334" lon="-0.46907">
        <ele>207.2</ele>
        <time>2024-06-24T15:37:20.140Z</time>
      </trkpt>
      <trkpt lat="46.83336" lon="-0.469">
        <ele>207.07</ele>
        <time>2024-06-24T15:37:20.880Z</time>
      </trkpt>
      <trkpt lat="46.83333" lon="-0.46893">
        <ele>206.95</ele>
        <time>2024-06-24T15:37:21.621Z</time>
      </trkpt>
      <trkpt lat="46.83329" lon="-0.46886">
        <ele>206.82</ele>
        <time>2024-06-24T15:37:22.364Z</time>
      </trkpt>
      <trkpt lat="46.83325" lon="-0.4688">
        <ele>206.69</ele>
        <time>2024-06-24T15:37:23.108Z</time>
      </trkpt>
      <trkpt lat="46.8332" lon="-0.46874">
        <ele>206.56</ele>
        <time>2024-06-24T15:37:23.853Z</time>
      </trkpt>
      <trkpt lat="46.83315" lon="-0.46869">
        <ele>206.43</ele>
        <time>2024-06-24T15:37:24.599Z</time>
      </trkpt>
      <trkpt lat="46.8331" lon="-0.46864">
        <ele>206.31</ele>
        <time>2024-06-24T15:37:25.346Z</time>
      </trkpt>
      <trkpt lat="46.83305" lon="-0.46859">
        <ele>206.17</ele>
        <time>2024-06-24T15:37:26.095Z</time>
      </trkpt>
      <trkpt lat="46.83301" lon="-0.46853">
        <ele>206.04</ele>
        <time>2024-06-24T15:37:26.845Z</time>
      </trkpt>
      <trkpt lat="46.83297" lon="-0.46847">
        <ele>205.9</ele>
        <time>2024-06-24T15:37:27.596Z</time>
      </trkpt>
      <trkpt lat="46.83293" lon="-0.4684">
        <ele>205.77</ele>
        <time>2024-06-24T15:37:28.348Z</time>
      </trkpt>
      <trkpt lat="46.83289" lon="-0.46833">
        <ele>205.64</ele>
        <time>2024-06-24T15:37:29.101Z</time>
      </trkpt>
      <trkpt lat="46.83285" lon="-0.46826">
        <ele>205.51</ele>
        <time>2024-06-24T15:37:29.856Z</time>
      </trkpt>
      <trkpt lat="46.83281" lon="-0.4682">
        <ele>205.38</ele>
        <time>2024-06-24T15:37:30.612Z</time>
      </trkpt>
      <trkpt lat="46.83277" lon="-0.46813">
        <ele>205.25</ele>
        <time>2024-06-24T15:37:31.369Z</time>
      </trkpt>
      <trkpt lat="46.83273" lon="-0.46807">
        <ele>205.12</ele>
        <time>2024-06-24T15:37:32.127Z</time>
      </trkpt>
      <trkpt lat="46.8327" lon="-0.468">
        <ele>204.99</ele>
        <time>2024-06-24T15:37:32.886Z</time>
      </trkpt>
      <trkpt lat="46.83266" lon="-0.46792">
        <ele>204.86</ele>
        <time>2024-06-24T15:37:33.647Z</time>
      </trkpt>
      <trkpt lat="46.83262" lon="-0.46785">
        <ele>204.73</ele>
        <time>2024-06-24T15:37:34.409Z</time>
      </trkpt>
      <trkpt lat="46.83259" lon="-0.46777">
        <ele>204.6</ele>
        <time>2024-06-24T15:37:35.172Z</time>
      </trkpt>
      <trkpt lat="46.83256" lon="-0.4677">
        <ele>204.46</ele>
        <time>2024-06-24T15:37:35.936Z</time>
      </trkpt>
      <trkpt lat="46.83253" lon="-0.46762">
        <ele>204.33</ele>
        <time>2024-06-24T15:37:36.702Z</time>
      </trkpt>
      <trkpt lat="46.83251" lon="-0.46753">
        <ele>204.21</ele>
        <time>2024-06-24T15:37:37.469Z</time>
      </trkpt>
      <trkpt lat="46.83248" lon="-0.46746">
        <ele>204.09</ele>
        <time>2024-06-24T15:37:38.237Z</time>
      </trkpt>
      <trkpt lat="46.83246" lon="-0.46738">
        <ele>203.97</ele>
        <time>2024-06-24T15:37:39.006Z</time>
      </trkpt>
      <trkpt lat="46.83244" lon="-0.4673">
        <ele>203.85</ele>
        <time>2024-06-24T15:37:39.776Z</time>
      </trkpt>
      <trkpt lat="46.83242" lon="-0.46722">
        <ele>203.73</ele>
        <time>2024-06-24T15:37:40.547Z</time>
      </trkpt>
      <trkpt lat="46.83239" lon="-0.46714">
        <ele>203.62</ele>
        <time>2024-06-24T15:37:41.320Z</time>
      </trkpt>
      <trkpt lat="46.83237" lon="-0.46706">
        <ele>203.5</ele>
        <time>2024-06-24T15:37:42.094Z</time>
      </trkpt>
      <trkpt lat="46.83235" lon="-0.46697">
        <ele>203.39</ele>
        <time>2024-06-24T15:37:42.869Z</time>
      </trkpt>
      <trkpt lat="46.83233" lon="-0.4669">
        <ele>203.28</ele>
        <time>2024-06-24T15:37:43.645Z</time>
      </trkpt>
      <trkpt lat="46.8323" lon="-0.46683">
        <ele>203.17</ele>
        <time>2024-06-24T15:37:44.422Z</time>
      </trkpt>
      <trkpt lat="46.83228" lon="-0.46675">
        <ele>203.06</ele>
        <time>2024-06-24T15:37:45.200Z</time>
      </trkpt>
      <trkpt lat="46.83226" lon="-0.46668">
        <ele>202.95</ele>
        <time>2024-06-24T15:37:45.980Z</time>
      </trkpt>
      <trkpt lat="46.83224" lon="-0.4666">
        <ele>202.83</ele>
        <time>2024-06-24T15:37:46.761Z</time>
      </trkpt>
      <trkpt lat="46.83222" lon="-0.46652">
        <ele>202.71</ele>
        <time>2024-06-24T15:37:47.543Z</time>
      </trkpt>
      <trkpt lat="46.8322" lon="-0.46644">
        <ele>202.59</ele>
        <time>2024-06-24T15:37:48.326Z</time>
      </trkpt>
      <trkpt lat="46.83218" lon="-0.46636">
        <ele>202.46</ele>
        <time>2024-06-24T15:37:49.110Z</time>
      </trkpt>
      <trkpt lat="46.83216" lon="-0.4663">
        <ele>202.35</ele>
        <time>2024-06-24T15:37:49.895Z</time>
      </trkpt>
      <trkpt lat="46.83214" lon="-0.46622">
        <ele>202.24</ele>
        <time>2024-06-24T15:37:50.681Z</time>
      </trkpt>
      <trkpt lat="46.83212" lon="-0.46614">
        <ele>202.13</ele>
        <time>2024-06-24T15:37:51.468Z</time>
      </trkpt>
      <trkpt lat="46.8321" lon="-0.46607">
        <ele>202.02</ele>
        <time>2024-06-24T15:37:52.257Z</time>
      </trkpt>
      <trkpt lat="46.83208" lon="-0.46599">
        <ele>201.92</ele>
        <time>2024-06-24T15:37:53.047Z</time>
      </trkpt>
      <trkpt lat="46.83206" lon="-0.46592">
        <ele>201.82</ele>
        <time>2024-06-24T15:37:53.838Z</time>
      </trkpt>
      <trkpt lat="46.83204" lon="-0.46583">
        <ele>201.72</ele>
        <time>2024-06-24T15:37:54.630Z</time>
      </trkpt>
      <trkpt lat="46.83203" lon="-0.46576">
        <ele>201.62</ele>
        <time>2024-06-24T15:37:55.423Z</time>
      </trkpt>
      <trkpt lat="46.83201" lon="-0.46568">
        <ele>201.52</ele>
        <time>2024-06-24T15:37:56.217Z</time>
      </trkpt>
      <trkpt lat="46.832" lon="-0.4656">
        <ele>201.42</ele>
        <time>2024-06-24T15:37:57.012Z</time>
      </trkpt>
      <trkpt lat="46.83199" lon="-0.46552">
        <ele>201.33</ele>
        <time>2024-06-24T15:37:57.808Z</time>
      </trkpt>
      <trkpt lat="46.83197" lon="-0.46544">
        <ele>201.23</ele>
        <time>2024-06-24T15:37:58.606Z</time>
      </trkpt>
      <trkpt lat="46.83195" lon="-0.46535">
        <ele>201.14</ele>
        <time>2024-06-24T15:37:59.405Z</time>
      </trkpt>
      <trkpt lat="46.83192" lon="-0.46527">
        <ele>201.07</ele>
        <time>2024-06-24T15:38:00.205Z</time>
      </trkpt>
      <trkpt lat="46.8319" lon="-0.46519">
        <ele>200.99</ele>
        <time>2024-06-24T15:38:01.006Z</time>
      </trkpt>
      <trkpt lat="46.83187" lon="-0.46512">
        <ele>200.92</ele>
        <time>2024-06-24T15:38:01.808Z</time>
      </trkpt>
      <trkpt lat="46.83185" lon="-0.46504">
        <ele>200.84</ele>
        <time>2024-06-24T15:38:02.612Z</time>
      </trkpt>
      <trkpt lat="46.83182" lon="-0.46496">
        <ele>200.76</ele>
        <time>2024-06-24T15:38:03.417Z</time>
      </trkpt>
      <trkpt lat="46.83179" lon="-0.46488">
        <ele>200.69</ele>
        <time>2024-06-24T15:38:04.223Z</time>
      </trkpt>
      <trkpt lat="46.83176" lon="-0.4648">
        <ele>200.61</ele>
        <time>2024-06-24T15:38:05.030Z</time>
      </trkpt>
      <trkpt lat="46.83173" lon="-0.46472">
        <ele>200.54</ele>
        <time>2024-06-24T15:38:05.839Z</time>
      </trkpt>
      <trkpt lat="46.8317" lon="-0.46464">
        <ele>200.45</ele>
        <time>2024-06-24T15:38:06.649Z</time>
      </trkpt>
      <trkpt lat="46.83168" lon="-0.46455">
        <ele>200.36</ele>
        <time>2024-06-24T15:38:07.460Z</time>
      </trkpt>
      <trkpt lat="46.83165" lon="-0.46445">
        <ele>200.27</ele>
        <time>2024-06-24T15:38:08.273Z</time>
      </trkpt>
      <trkpt lat="46.83163" lon="-0.46435">
        <ele>200.17</ele>
        <time>2024-06-24T15:38:09.087Z</time>
      </trkpt>
      <trkpt lat="46.83161" lon="-0.46424">
        <ele>200.07</ele>
        <time>2024-06-24T15:38:09.903Z</time>
      </trkpt>
      <trkpt lat="46.83159" lon="-0.46414">
        <ele>199.98</ele>
        <time>2024-06-24T15:38:10.720Z</time>
      </trkpt>
      <trkpt lat="46.83157" lon="-0.46403">
        <ele>199.89</ele>
        <time>2024-06-24T15:38:11.539Z</time>
      </trkpt>
      <trkpt lat="46.83155" lon="-0.46393">
        <ele>199.8</ele>
        <time>2024-06-24T15:38:12.359Z</time>
      </trkpt>
      <trkpt lat="46.83153" lon="-0.46384">
        <ele>199.71</ele>
        <time>2024-06-24T15:38:13.180Z</time>
      </trkpt>
      <trkpt lat="46.83152" lon="-0.46375">
        <ele>199.62</ele>
        <time>2024-06-24T15:38:14.003Z</time>
      </trkpt>
      <trkpt lat="46.8315" lon="-0.46366">
        <ele>199.54</ele>
        <time>2024-06-24T15:38:14.827Z</time>
      </trkpt>
      <trkpt lat="46.83148" lon="-0.46357">
        <ele>199.45</ele>
        <time>2024-06-24T15:38:15.652Z</time>
      </trkpt>
      <trkpt lat="46.83146" lon="-0.46348">
        <ele>199.35</ele>
        <time>2024-06-24T15:38:16.478Z</time>
      </trkpt>
      <trkpt lat="46.83145" lon="-0.46339">
        <ele>199.25</ele>
        <time>2024-06-24T15:38:17.306Z</time>
      </trkpt>
      <trkpt lat="46.83143" lon="-0.46329">
        <ele>199.16</ele>
        <time>2024-06-24T15:38:18.135Z</time>
      </trkpt>
      <trkpt lat="46.83141" lon="-0.46321">
        <ele>199.05</ele>
        <time>2024-06-24T15:38:18.965Z</time>
      </trkpt>
      <trkpt lat="46.83139" lon="-0.46313">
        <ele>198.94</ele>
        <time>2024-06-24T15:38:19.796Z</time>
      </trkpt>
      <trkpt lat="46.83137" lon="-0.46305">
        <ele>198.84</ele>
        <time>2024-06-24T15:38:20.629Z</time>
      </trkpt>
      <trkpt lat="46.83135" lon="-0.46296">
        <ele>198.73</ele>
        <time>2024-06-24T15:38:21.463Z</time>
      </trkpt>
      <trkpt lat="46.83132" lon="-0.46287">
        <ele>198.61</ele>
        <time>2024-06-24T15:38:22.298Z</time>
      </trkpt>
      <trkpt lat="46.83131" lon="-0.46278">
        <ele>198.5</ele>
        <time>2024-06-24T15:38:23.135Z</time>
      </trkpt>
      <trkpt lat="46.83129" lon="-0.4627">
        <ele>198.38</ele>
        <time>2024-06-24T15:38:23.973Z</time>
      </trkpt>
      <trkpt lat="46.83127" lon="-0.46261">
        <ele>198.26</ele>
        <time>2024-06-24T15:38:24.812Z</time>
      </trkpt>
      <trkpt lat="46.83126" lon="-0.46252">
        <ele>198.14</ele>
        <time>2024-06-24T15:38:25.652Z</time>
      </trkpt>
      <trkpt lat="46.83125" lon="-0.46242">
        <ele>198.02</ele>
        <time>2024-06-24T15:38:26.494Z</time>
      </trkpt>
      <trkpt lat="46.83124" lon="-0.46234">
        <ele>197.89</ele>
        <time>2024-06-24T15:38:27.337Z</time>
      </trkpt>
      <trkpt lat="46.83123" lon="-0.46225">
        <ele>197.77</ele>
        <time>2024-06-24T15:38:28.181Z</time>
      </trkpt>
      <trkpt lat="46.83122" lon="-0.46216">
        <ele>197.64</ele>
        <time>2024-06-24T15:38:29.026Z</time>
      </trkpt>
      <trkpt lat="46.83121" lon="-0.46207">
        <ele>197.52</ele>
        <time>2024-06-24T15:38:29.873Z</time>
      </trkpt>
      <trkpt lat="46.83121" lon="-0.46198">
        <ele>197.4</ele>
        <time>2024-06-24T15:38:30.721Z</time>
      </trkpt>
      <trkpt lat="46.83121" lon="-0.46188">
        <ele>197.27</ele>
        <time>2024-06-24T15:38:31.570Z</time>
      </trkpt>
      <trkpt lat="46.83122" lon="-0.46178">
        <ele>197.15</ele>
        <time>2024-06-24T15:38:32.420Z</time>
      </trkpt>
      <trkpt lat="46.83122" lon="-0.46168">
        <ele>197.02</ele>
        <time>2024-06-24T15:38:33.272Z</time>
      </trkpt>
      <trkpt lat="46.83122" lon="-0.46158">
        <ele>196.89</ele>
        <time>2024-06-24T15:38:34.125Z</time>
      </trkpt>
      <trkpt lat="46.83122" lon="-0.46147">
        <ele>196.75</ele>
        <time>2024-06-24T15:38:34.980Z</time>
      </trkpt>
      <trkpt lat="46.83122" lon="-0.46135">
        <ele>196.62</ele>
        <time>2024-06-24T15:38:35.836Z</time>
      </trkpt>
      <trkpt lat="46.83121" lon="-0.46124">
        <ele>196.49</ele>
        <time>2024-06-24T15:38:36.694Z</time>
      </trkpt>
      <trkpt lat="46.83119" lon="-0.46112">
        <ele>196.35</ele>
        <time>2024-06-24T15:38:37.554Z</time>
      </trkpt>
      <trkpt lat="46.83117" lon="-0.46101">
        <ele>196.22</ele>
        <time>2024-06-24T15:38:38.415Z</time>
      </trkpt>
      <trkpt lat="46.83114" lon="-0.4609">
        <ele>196.09</ele>
        <time>2024-06-24T15:38:39.278Z</time>
      </trkpt>
      <trkpt lat="46.83112" lon="-0.46079">
        <ele>195.96</ele>
        <time>2024-06-24T15:38:40.142Z</time>
      </trkpt>
      <trkpt lat="46.83109" lon="-0.46069">
        <ele>195.83</ele>
        <time>2024-06-24T15:38:41.008Z</time>
      </trkpt>
      <trkpt lat="46.83108" lon="-0.46059">
        <ele>195.7</ele>
        <time>2024-06-24T15:38:41.875Z</time>
      </trkpt>
      <trkpt lat="46.83105" lon="-0.4605">
        <ele>195.57</ele>
        <time>2024-06-24T15:38:42.744Z</time>
      </trkpt>
      <trkpt lat="46.83103" lon="-0.4604">
        <ele>195.44</ele>
        <time>2024-06-24T15:38:43.614Z</time>
      </trkpt>
      <trkpt lat="46.83102" lon="-0.4603">
        <ele>195.31</ele>
        <time>2024-06-24T15:38:44.485Z</time>
      </trkpt>
      <trkpt lat="46.831" lon="-0.4602">
        <ele>195.19</ele>
        <time>2024-06-24T15:38:45.358Z</time>
      </trkpt>
      <trkpt lat="46.83098" lon="-0.4601">
        <ele>195.07</ele>
        <time>2024-06-24T15:38:46.232Z</time>
      </trkpt>
      <trkpt lat="46.83096" lon="-0.46001">
        <ele>194.96</ele>
        <time>2024-06-24T15:38:47.108Z</time>
      </trkpt>
      <trkpt lat="46.83094" lon="-0.45991">
        <ele>194.85</ele>
        <time>2024-06-24T15:38:47.985Z</time>
      </trkpt>
      <trkpt lat="46.83092" lon="-0.45982">
        <ele>194.75</ele>
        <time>2024-06-24T15:38:48.863Z</time>
      </trkpt>
      <trkpt lat="46.8309" lon="-0.45972">
        <ele>194.66</ele>
        <time>2024-06-24T15:38:49.743Z</time>
      </trkpt>
      <trkpt lat="46.83088" lon="-0.45963">
        <ele>194.56</ele>
        <time>2024-06-24T15:38:50.624Z</time>
      </trkpt>
      <trkpt lat="46.83086" lon="-0.45954">
        <ele>194.47</ele>
        <time>2024-06-24T15:38:51.506Z</time>
      </trkpt>
      <trkpt lat="46.83083" lon="-0.45944">
        <ele>194.38</ele>
        <time>2024-06-24T15:38:52.390Z</time>
      </trkpt>
      <trkpt lat="46.83081" lon="-0.45935">
        <ele>194.29</ele>
        <time>2024-06-24T15:38:53.275Z</time>
      </trkpt>
      <trkpt lat="46.83079" lon="-0.45927">
        <ele>194.21</ele>
        <time>2024-06-24T15:38:54.161Z</time>
      </trkpt>
      <trkpt lat="46.83077" lon="-0.45918">
        <ele>194.13</ele>
        <time>2024-06-24T15:38:55.049Z</time>
      </trkpt>
      <trkpt lat="46.83076" lon="-0.45908">
        <ele>194.05</ele>
        <time>2024-06-24T15:38:55.938Z</time>
      </trkpt>
      <trkpt lat="46.83075" lon="-0.45898">
        <ele>193.98</ele>
        <time>2024-06-24T15:38:56.828Z</time>
      </trkpt>
      <trkpt lat="46.83075" lon="-0.45888">
        <ele>193.91</ele>
        <time>2024-06-24T15:38:57.720Z</time>
      </trkpt>
      <trkpt lat="46.83075" lon="-0.45878">
        <ele>193.84</ele>
        <time>2024-06-24T15:38:58.613Z</time>
      </trkpt>
      <trkpt lat="46.83074" lon="-0.4587">
        <ele>193.77</ele>
        <time>2024-06-24T15:38:59.507Z</time>
      </trkpt>
      <trkpt lat="46.83074" lon="-0.45862">
        <ele>193.71</ele>
        <time>2024-06-24T15:39:00.402Z</time>
      </trkpt>
      <trkpt lat="46.83073" lon="-0.45854">
        <ele>193.65</ele>
        <time>2024-06-24T15:39:01.298Z</time>
      </trkpt>
      <trkpt lat="46.83071" lon="-0.45846">
        <ele>193.59</ele>
        <time>2024-06-24T15:39:02.196Z</time>
      </trkpt>
      <trkpt lat="46.83068" lon="-0.45838">
        <ele>193.54</ele>
        <time>2024-06-24T15:39:03.095Z</time>
      </trkpt>
      <trkpt lat="46.83065" lon="-0.45831">
        <ele>193.49</ele>
        <time>2024-06-24T15:39:03.995Z</time>
      </trkpt>
      <trkpt lat="46.8306" lon="-0.45823">
        <ele>193.45</ele>
        <time>2024-06-24T15:39:04.896Z</time>
      </trkpt>
      <trkpt lat="46.83057" lon="-0.45816">
        <ele>193.41</ele>
        <time>2024-06-24T15:39:05.799Z</time>
      </trkpt>
      <trkpt lat="46.83053" lon="-0.45809">
        <ele>193.37</ele>
        <time>2024-06-24T15:39:06.703Z</time>
      </trkpt>
      <trkpt lat="46.83049" lon="-0.45802">
        <ele>193.33</ele>
        <time>2024-06-24T15:39:07.608Z</time>
      </trkpt>
      <trkpt lat="46.83045" lon="-0.45796">
        <ele>193.29</ele>
        <time>2024-06-24T15:39:08.514Z</time>
      </trkpt>
      <trkpt lat="46.83041" lon="-0.4579">
        <ele>193.27</ele>
        <time>2024-06-24T15:39:09.421Z</time>
      </trkpt>
      <trkpt lat="46.83037" lon="-0.45783">
        <ele>193.24</ele>
        <time>2024-06-24T15:39:10.330Z</time>
      </trkpt>
      <trkpt lat="46.83033" lon="-0.45776">
        <ele>193.22</ele>
        <time>2024-06-24T15:39:11.240Z</time>
      </trkpt>
      <trkpt lat="46.83029" lon="-0.45769">
        <ele>193.19</ele>
        <time>2024-06-24T15:39:12.151Z</time>
      </trkpt>
      <trkpt lat="46.83024" lon="-0.45762">
        <ele>193.16</ele>
        <time>2024-06-24T15:39:13.064Z</time>
      </trkpt>
      <trkpt lat="46.83018" lon="-0.45756">
        <ele>193.13</ele>
        <time>2024-06-24T15:39:13.978Z</time>
      </trkpt>
      <trkpt lat="46.83013" lon="-0.45753">
        <ele>193.11</ele>
        <time>2024-06-24T15:39:14.893Z</time>
      </trkpt>
      <trkpt lat="46.83007" lon="-0.4575">
        <ele>193.08</ele>
        <time>2024-06-24T15:39:15.809Z</time>
      </trkpt>
      <trkpt lat="46.83001" lon="-0.45748">
        <ele>193.06</ele>
        <time>2024-06-24T15:39:16.726Z</time>
      </trkpt>
      <trkpt lat="46.82995" lon="-0.45745">
        <ele>193.04</ele>
        <time>2024-06-24T15:39:17.645Z</time>
      </trkpt>
      <trkpt lat="46.8299" lon="-0.4574">
        <ele>193.02</ele>
        <time>2024-06-24T15:39:18.565Z</time>
      </trkpt>
      <trkpt lat="46.82984" lon="-0.45734">
        <ele>193</ele>
        <time>2024-06-24T15:39:19.486Z</time>
      </trkpt>
      <trkpt lat="46.8298" lon="-0.45728">
        <ele>192.97</ele>
        <time>2024-06-24T15:39:20.409Z</time>
      </trkpt>
      <trkpt lat="46.82976" lon="-0.45722">
        <ele>192.95</ele>
        <time>2024-06-24T15:39:21.333Z</time>
      </trkpt>
      <trkpt lat="46.82973" lon="-0.45715">
        <ele>192.92</ele>
        <time>2024-06-24T15:39:22.258Z</time>
      </trkpt>
      <trkpt lat="46.82969" lon="-0.45708">
        <ele>192.89</ele>
        <time>2024-06-24T15:39:23.184Z</time>
      </trkpt>
      <trkpt lat="46.82967" lon="-0.45701">
        <ele>192.86</ele>
        <time>2024-06-24T15:39:24.111Z</time>
      </trkpt>
      <trkpt lat="46.82963" lon="-0.45693">
        <ele>192.81</ele>
        <time>2024-06-24T15:39:25.039Z</time>
      </trkpt>
      <trkpt lat="46.8296" lon="-0.45686">
        <ele>192.77</ele>
        <time>2024-06-24T15:39:25.969Z</time>
      </trkpt>
      <trkpt lat="46.82957" lon="-0.45679">
        <ele>192.74</ele>
        <time>2024-06-24T15:39:26.900Z</time>
      </trkpt>
      <trkpt lat="46.82954" lon="-0.45672">
        <ele>192.7</ele>
        <time>2024-06-24T15:39:27.832Z</time>
      </trkpt>
      <trkpt lat="46.82951" lon="-0.45666">
        <ele>192.66</ele>
        <time>2024-06-24T15:39:28.765Z</time>
      </trkpt>
      <trkpt lat="46.82948" lon="-0.45659">
        <ele>192.61</ele>
        <time>2024-06-24T15:39:29.699Z</time>
      </trkpt>
      <trkpt lat="46.82946" lon="-0.45653">
        <ele>192.56</ele>
        <time>2024-06-24T15:39:30.634Z</time>
      </trkpt>
      <trkpt lat="46.82943" lon="-0.45645">
        <ele>192.5</ele>
        <time>2024-06-24T15:39:31.570Z</time>
      </trkpt>
      <trkpt lat="46.8294" lon="-0.45638">
        <ele>192.45</ele>
        <time>2024-06-24T15:39:32.507Z</time>
      </trkpt>
      <trkpt lat="46.82938" lon="-0.45632">
        <ele>192.4</ele>
        <time>2024-06-24T15:39:33.445Z</time>
      </trkpt>
      <trkpt lat="46.82935" lon="-0.45626">
        <ele>192.34</ele>
        <time>2024-06-24T15:39:34.384Z</time>
      </trkpt>
      <trkpt lat="46.82932" lon="-0.4562">
        <ele>192.27</ele>
        <time>2024-06-24T15:39:35.324Z</time>
      </trkpt>
      <trkpt lat="46.8293" lon="-0.45614">
        <ele>192.21</ele>
        <time>2024-06-24T15:39:36.265Z</time>
      </trkpt>
      <trkpt lat="46.82927" lon="-0.45606">
        <ele>192.13</ele>
        <time>2024-06-24T15:39:37.207Z</time>
      </trkpt>
      <trkpt lat="46.82925" lon="-0.45598">
        <ele>192.06</ele>
        <time>2024-06-24T15:39:38.151Z</time>
      </trkpt>
      <trkpt lat="46.82922" lon="-0.45591">
        <ele>191.98</ele>
        <time>2024-06-24T15:39:39.096Z</time>
      </trkpt>
      <trkpt lat="46.82919" lon="-0.45584">
        <ele>191.9</ele>
        <time>2024-06-24T15:39:40.042Z</time>
      </trkpt>
      <trkpt lat="46.82916" lon="-0.45576">
        <ele>191.81</ele>
        <time>2024-06-24T15:39:40.989Z</time>
      </trkpt>
      <trkpt lat="46.82913" lon="-0.45569">
        <ele>191.72</ele>
        <time>2024-06-24T15:39:41.937Z</time>
      </trkpt>
      <trkpt lat="46.82909" lon="-0.45561">
        <ele>191.63</ele>
        <time>2024-06-24T15:39:42.887Z</time>
      </trkpt>
      <trkpt lat="46.82906" lon="-0.45553">
        <ele>191.54</ele>
        <time>2024-06-24T15:39:43.838Z</time>
      </trkpt>
      <trkpt lat="46.82902" lon="-0.45545">
        <ele>191.44</ele>
        <time>2024-06-24T15:39:44.790Z</time>
      </trkpt>
      <trkpt lat="46.82898" lon="-0.45537">
        <ele>191.35</ele>
        <time>2024-06-24T15:39:45.744Z</time>
      </trkpt>
      <trkpt lat="46.82895" lon="-0.45528">
        <ele>191.25</ele>
        <time>2024-06-24T15:39:46.699Z</time>
      </trkpt>
      <trkpt lat="46.82892" lon="-0.4552">
        <ele>191.15</ele>
        <time>2024-06-24T15:39:47.655Z</time>
      </trkpt>
      <trkpt lat="46.8289" lon="-0.45512">
        <ele>191.05</ele>
        <time>2024-06-24T15:39:48.612Z</time>
      </trkpt>
      <trkpt lat="46.82887" lon="-0.45503">
        <ele>190.95</ele>
        <time>2024-06-24T15:39:49.571Z</time>
      </trkpt>
      <trkpt lat="46.82885" lon="-0.45494">
        <ele>190.85</ele>
        <time>2024-06-24T15:39:50.531Z</time>
      </trkpt>
      <trkpt lat="46.82884" lon="-0.45485">
        <ele>190.74</ele>
        <time>2024-06-24T15:39:51.492Z</time>
      </trkpt>
      <trkpt lat="46.82882" lon="-0.45476">
        <ele>190.63</ele>
        <time>2024-06-24T15:39:52.455Z</time>
      </trkpt>
      <trkpt lat="46.82881" lon="-0.45467">
        <ele>190.51</ele>
        <time>2024-06-24T15:39:53.419Z</time>
      </trkpt>
      <trkpt lat="46.8288" lon="-0.45458">
        <ele>190.4</ele>
        <time>2024-06-24T15:39:54.384Z</time>
      </trkpt>
      <trkpt lat="46.82879" lon="-0.45449">
        <ele>190.28</ele>
        <time>2024-06-24T15:39:55.350Z</time>
      </trkpt>
      <trkpt lat="46.82879" lon="-0.45439">
        <ele>190.16</ele>
        <time>2024-06-24T15:39:56.318Z</time>
      </trkpt>
      <trkpt lat="46.82878" lon="-0.45431">
        <ele>190.04</ele>
        <time>2024-06-24T15:39:57.287Z</time>
      </trkpt>
      <trkpt lat="46.82878" lon="-0.45421">
        <ele>189.92</ele>
        <time>2024-06-24T15:39:58.257Z</time>
      </trkpt>
      <trkpt lat="46.82877" lon="-0.45412">
        <ele>189.79</ele>
        <time>2024-06-24T15:39:59.228Z</time>
      </trkpt>
      <trkpt lat="46.82877" lon="-0.45402">
        <ele>189.67</ele>
        <time>2024-06-24T15:40:00.201Z</time>
      </trkpt>
      <trkpt lat="46.82876" lon="-0.45393">
        <ele>189.54</ele>
        <time>2024-06-24T15:40:01.175Z</time>
      </trkpt>
      <trkpt lat="46.82876" lon="-0.45384">
        <ele>189.41</ele>
        <time>2024-06-24T15:40:02.150Z</time>
      </trkpt>
      <trkpt lat="46.82875" lon="-0.45376">
        <ele>189.27</ele>
        <time>2024-06-24T15:40:03.126Z</time>
      </trkpt>
      <trkpt lat="46.82874" lon="-0.45367">
        <ele>189.13</ele>
        <time>2024-06-24T15:40:04.104Z</time>
      </trkpt>
      <trkpt lat="46.82873" lon="-0.45359">
        <ele>188.99</ele>
        <time>2024-06-24T15:40:05.083Z</time>
      </trkpt>
      <trkpt lat="46.82872" lon="-0.4535">
        <ele>188.85</ele>
        <time>2024-06-24T15:40:06.063Z</time>
      </trkpt>
      <trkpt lat="46.8287" lon="-0.45341">
        <ele>188.71</ele>
        <time>2024-06-24T15:40:07.044Z</time>
      </trkpt>
      <trkpt lat="46.82868" lon="-0.45332">
        <ele>188.57</ele>
        <time>2024-06-24T15:40:08.027Z</time>
      </trkpt>
      <trkpt lat="46.82867" lon="-0.45323">
        <ele>188.42</ele>
        <time>2024-06-24T15:40:09.011Z</time>
      </trkpt>
      <trkpt lat="46.82865" lon="-0.45315">
        <ele>188.27</ele>
        <time>2024-06-24T15:40:09.996Z</time>
      </trkpt>
      <trkpt lat="46.82863" lon="-0.45306">
        <ele>188.13</ele>
        <time>2024-06-24T15:40:10.982Z</time>
      </trkpt>
      <trkpt lat="46.82862" lon="-0.45297">
        <ele>187.98</ele>
        <time>2024-06-24T15:40:11.970Z</time>
      </trkpt>
      <trkpt lat="46.8286" lon="-0.45287">
        <ele>187.83</ele>
        <time>2024-06-24T15:40:12.959Z</time>
      </trkpt>
      <trkpt lat="46.82859" lon="-0.4528">
        <ele>187.68</ele>
        <time>2024-06-24T15:40:13.949Z</time>
      </trkpt>
      <trkpt lat="46.82857" lon="-0.45271">
        <ele>187.54</ele>
        <time>2024-06-24T15:40:14.940Z</time>
      </trkpt>
      <trkpt lat="46.82855" lon="-0.45261">
        <ele>187.39</ele>
        <time>2024-06-24T15:40:15.933Z</time>
      </trkpt>
      <trkpt lat="46.82854" lon="-0.45253">
        <ele>187.25</ele>
        <time>2024-06-24T15:40:16.927Z</time>
      </trkpt>
      <trkpt lat="46.82852" lon="-0.45244">
        <ele>187.1</ele>
        <time>2024-06-24T15:40:17.922Z</time>
      </trkpt>
      <trkpt lat="46.82851" lon="-0.45235">
        <ele>186.96</ele>
        <time>2024-06-24T15:40:18.918Z</time>
      </trkpt>
      <trkpt lat="46.82851" lon="-0.45225">
        <ele>186.82</ele>
        <time>2024-06-24T15:40:19.916Z</time>
      </trkpt>
      <trkpt lat="46.8285" lon="-0.45215">
        <ele>186.68</ele>
        <time>2024-06-24T15:40:20.915Z</time>
      </trkpt>
      <trkpt lat="46.82851" lon="-0.45207">
        <ele>186.53</ele>
        <time>2024-06-24T15:40:21.915Z</time>
      </trkpt>
      <trkpt lat="46.82851" lon="-0.45197">
        <ele>186.39</ele>
        <time>2024-06-24T15:40:22.917Z</time>
      </trkpt>
      <trkpt lat="46.82852" lon="-0.45189">
        <ele>186.25</ele>
        <time>2024-06-24T15:40:23.920Z</time>
      </trkpt>
      <trkpt lat="46.82853" lon="-0.4518">
        <ele>186.11</ele>
        <time>2024-06-24T15:40:24.924Z</time>
      </trkpt>
      <trkpt lat="46.82853" lon="-0.4517">
        <ele>185.97</ele>
        <time>2024-06-24T15:40:25.929Z</time>
      </trkpt>
      <trkpt lat="46.82854" lon="-0.45161">
        <ele>185.82</ele>
        <time>2024-06-24T15:40:26.936Z</time>
      </trkpt>
      <trkpt lat="46.82854" lon="-0.45152">
        <ele>185.69</ele>
        <time>2024-06-24T15:40:27.944Z</time>
      </trkpt>
      <trkpt lat="46.82855" lon="-0.45143">
        <ele>185.56</ele>
        <time>2024-06-24T15:40:28.953Z</time>
      </trkpt>
      <trkpt lat="46.82855" lon="-0.45133">
        <ele>185.42</ele>
        <time>2024-06-24T15:40:29.963Z</time>
      </trkpt>
      <trkpt lat="46.82855" lon="-0.45124">
        <ele>185.28</ele>
        <time>2024-06-24T15:40:30.975Z</time>
      </trkpt>
      <trkpt lat="46.82856" lon="-0.45114">
        <ele>185.14</ele>
        <time>2024-06-24T15:40:31.988Z</time>
      </trkpt>
      <trkpt lat="46.82856" lon="-0.45106">
        <ele>185.01</ele>
        <time>2024-06-24T15:40:33.002Z</time>
      </trkpt>
      <trkpt lat="46.82856" lon="-0.45097">
        <ele>184.87</ele>
        <time>2024-06-24T15:40:34.017Z</time>
      </trkpt>
      <trkpt lat="46.82856" lon="-0.45088">
        <ele>184.74</ele>
        <time>2024-06-24T15:40:35.034Z</time>
      </trkpt>
      <trkpt lat="46.82857" lon="-0.45078">
        <ele>184.61</ele>
        <time>2024-06-24T15:40:36.052Z</time>
      </trkpt>
      <trkpt lat="46.82857" lon="-0.45069">
        <ele>184.49</ele>
        <time>2024-06-24T15:40:37.071Z</time>
      </trkpt>
      <trkpt lat="46.82857" lon="-0.4506">
        <ele>184.36</ele>
        <time>2024-06-24T15:40:38.092Z</time>
      </trkpt>
      <trkpt lat="46.82857" lon="-0.4505">
        <ele>184.24</ele>
        <time>2024-06-24T15:40:39.114Z</time>
      </trkpt>
      <trkpt lat="46.82857" lon="-0.4504">
        <ele>184.13</ele>
        <time>2024-06-24T15:40:40.137Z</time>
      </trkpt>
      <trkpt lat="46.82857" lon="-0.4503">
        <ele>184.02</ele>
        <time>2024-06-24T15:40:41.162Z</time>
      </trkpt>
      <trkpt lat="46.82857" lon="-0.45022">
        <ele>183.91</ele>
        <time>2024-06-24T15:40:42.188Z</time>
      </trkpt>
      <trkpt lat="46.82857" lon="-0.45012">
        <ele>183.81</ele>
        <time>2024-06-24T15:40:43.215Z</time>
      </trkpt>
      <trkpt lat="46.82857" lon="-0.45003">
        <ele>183.71</ele>
        <time>2024-06-24T15:40:44.243Z</time>
      </trkpt>
      <trkpt lat="46.82858" lon="-0.44994">
        <ele>183.61</ele>
        <time>2024-06-24T15:40:45.273Z</time>
      </trkpt>
      <trkpt lat="46.82858" lon="-0.44985">
        <ele>183.51</ele>
        <time>2024-06-24T15:40:46.304Z</time>
      </trkpt>
      <trkpt lat="46.82858" lon="-0.44976">
        <ele>183.42</ele>
        <time>2024-06-24T15:40:47.336Z</time>
      </trkpt>
      <trkpt lat="46.82859" lon="-0.44966">
        <ele>183.33</ele>
        <time>2024-06-24T15:40:48.369Z</time>
      </trkpt>
      <trkpt lat="46.8286" lon="-0.44957">
        <ele>183.24</ele>
        <time>2024-06-24T15:40:49.404Z</time>
      </trkpt>
      <trkpt lat="46.8286" lon="-0.44947">
        <ele>183.15</ele>
        <time>2024-06-24T15:40:50.440Z</time>
      </trkpt>
      <trkpt lat="46.8286" lon="-0.44937">
        <ele>183.06</ele>
        <time>2024-06-24T15:40:51.477Z</time>
      </trkpt>
      <trkpt lat="46.8286" lon="-0.44927">
        <ele>182.98</ele>
        <time>2024-06-24T15:40:52.516Z</time>
      </trkpt>
      <trkpt lat="46.82859" lon="-0.44918">
        <ele>182.9</ele>
        <time>2024-06-24T15:40:53.556Z</time>
      </trkpt>
      <trkpt lat="46.82859" lon="-0.44908">
        <ele>182.83</ele>
        <time>2024-06-24T15:40:54.597Z</time>
      </trkpt>
      <trkpt lat="46.82858" lon="-0.44899">
        <ele>182.75</ele>
        <time>2024-06-24T15:40:55.640Z</time>
      </trkpt>
      <trkpt lat="46.82857" lon="-0.44889">
        <ele>182.67</ele>
        <time>2024-06-24T15:40:56.684Z</time>
      </trkpt>
      <trkpt lat="46.82857" lon="-0.44879">
        <ele>182.6</ele>
        <time>2024-06-24T15:40:57.729Z</time>
      </trkpt>
      <trkpt lat="46.82856" lon="-0.44869">
        <ele>182.53</ele>
        <time>2024-06-24T15:40:58.776Z</time>
      </trkpt>
      <trkpt lat="46.82855" lon="-0.44859">
        <ele>182.46</ele>
        <time>2024-06-24T15:40:59.824Z</time>
      </trkpt>
      <trkpt lat="46.82854" lon="-0.44849">
        <ele>182.39</ele>
        <time>2024-06-24T15:41:00.874Z</time>
      </trkpt>
      <trkpt lat="46.82853" lon="-0.44839">
        <ele>182.33</ele>
        <time>2024-06-24T15:41:01.925Z</time>
      </trkpt>
      <trkpt lat="46.82851" lon="-0.4483">
        <ele>182.26</ele>
        <time>2024-06-24T15:41:02.977Z</time>
      </trkpt>
      <trkpt lat="46.8285" lon="-0.4482">
        <ele>182.2</ele>
        <time>2024-06-24T15:41:04.031Z</time>
      </trkpt>
      <trkpt lat="46.82849" lon="-0.4481">
        <ele>182.13</ele>
        <time>2024-06-24T15:41:05.086Z</time>
      </trkpt>
      <trkpt lat="46.82848" lon="-0.44801">
        <ele>182.06</ele>
        <time>2024-06-24T15:41:06.142Z</time>
      </trkpt>
      <trkpt lat="46.82848" lon="-0.44792">
        <ele>182</ele>
        <time>2024-06-24T15:41:07.200Z</time>
      </trkpt>
      <trkpt lat="46.82848" lon="-0.44782">
        <ele>181.94</ele>
        <time>2024-06-24T15:41:08.259Z</time>
      </trkpt>
      <trkpt lat="46.82848" lon="-0.44773">
        <ele>181.88</ele>
        <time>2024-06-24T15:41:09.319Z</time>
      </trkpt>
      <trkpt lat="46.82848" lon="-0.44763">
        <ele>181.82</ele>
        <time>2024-06-24T15:41:10.380Z</time>
      </trkpt>
      <trkpt lat="46.82847" lon="-0.44753">
        <ele>181.77</ele>
        <time>2024-06-24T15:41:11.443Z</time>
      </trkpt>
      <trkpt lat="46.82847" lon="-0.44744">
        <ele>181.72</ele>
        <time>2024-06-24T15:41:12.507Z</time>
      </trkpt>
      <trkpt lat="46.82846" lon="-0.44734">
        <ele>181.68</ele>
        <time>2024-06-24T15:41:13.572Z</time>
      </trkpt>
      <trkpt lat="46.82845" lon="-0.44724">
        <ele>181.63</ele>
        <time>2024-06-24T15:41:14.639Z</time>
      </trkpt>
      <trkpt lat="46.82845" lon="-0.44715">
        <ele>181.59</ele>
        <time>2024-06-24T15:41:15.707Z</time>
      </trkpt>
      <trkpt lat="46.82844" lon="-0.44705">
        <ele>181.56</ele>
        <time>2024-06-24T15:41:16.777Z</time>
      </trkpt>
      <trkpt lat="46.82842" lon="-0.44696">
        <ele>181.53</ele>
        <time>2024-06-24T15:41:17.848Z</time>
      </trkpt>
      <trkpt lat="46.82842" lon="-0.44686">
        <ele>181.51</ele>
        <time>2024-06-24T15:41:18.920Z</time>
      </trkpt>
      <trkpt lat="46.82841" lon="-0.44676">
        <ele>181.49</ele>
        <time>2024-06-24T15:41:19.993Z</time>
      </trkpt>
      <trkpt lat="46.8284" lon="-0.44667">
        <ele>181.48</ele>
        <time>2024-06-24T15:41:21.068Z</time>
      </trkpt>
      <trkpt lat="46.8284" lon="-0.44658">
        <ele>181.47</ele>
        <time>2024-06-24T15:41:22.144Z</time>
      </trkpt>
      <trkpt lat="46.82839" lon="-0.44648">
        <ele>181.46</ele>
        <time>2024-06-24T15:41:23.221Z</time>
      </trkpt>
      <trkpt lat="46.82838" lon="-0.44639">
        <ele>181.45</ele>
        <time>2024-06-24T15:41:24.300Z</time>
      </trkpt>
      <trkpt lat="46.82838" lon="-0.4463">
        <ele>181.45</ele>
        <time>2024-06-24T15:41:25.380Z</time>
      </trkpt>
      <trkpt lat="46.82837" lon="-0.44621">
        <ele>181.45</ele>
        <time>2024-06-24T15:41:26.461Z</time>
      </trkpt>
      <trkpt lat="46.82837" lon="-0.44612">
        <ele>181.45</ele>
        <time>2024-06-24T15:41:27.543Z</time>
      </trkpt>
      <trkpt lat="46.82836" lon="-0.44603">
        <ele>181.44</ele>
        <time>2024-06-24T15:41:28.627Z</time>
      </trkpt>
      <trkpt lat="46.82836" lon="-0.44595">
        <ele>181.44</ele>
        <time>2024-06-24T15:41:29.712Z</time>
      </trkpt>
      <trkpt lat="46.82835" lon="-0.44585">
        <ele>181.45</ele>
        <time>2024-06-24T15:41:30.798Z</time>
      </trkpt>
      <trkpt lat="46.82835" lon="-0.44576">
        <ele>181.46</ele>
        <time>2024-06-24T15:41:31.885Z</time>
      </trkpt>
      <trkpt lat="46.82834" lon="-0.44568">
        <ele>181.46</ele>
        <time>2024-06-24T15:41:32.973Z</time>
      </trkpt>
      <trkpt lat="46.82833" lon="-0.44559">
        <ele>181.47</ele>
        <time>2024-06-24T15:41:34.063Z</time>
      </trkpt>
      <trkpt lat="46.82832" lon="-0.44549">
        <ele>181.47</ele>
        <time>2024-06-24T15:41:35.154Z</time>
      </trkpt>
      <trkpt lat="46.82831" lon="-0.4454">
        <ele>181.47</ele>
        <time>2024-06-24T15:41:36.246Z</time>
      </trkpt>
      <trkpt lat="46.8283" lon="-0.4453">
        <ele>181.48</ele>
        <time>2024-06-24T15:41:37.340Z</time>
      </trkpt>
      <trkpt lat="46.82829" lon="-0.4452">
        <ele>181.49</ele>
        <time>2024-06-24T15:41:38.435Z</time>
      </trkpt>
      <trkpt lat="46.82829" lon="-0.44511">
        <ele>181.49</ele>
        <time>2024-06-24T15:41:39.531Z</time>
      </trkpt>
      <trkpt lat="46.82828" lon="-0.44503">
        <ele>181.51</ele>
        <time>2024-06-24T15:41:40.628Z</time>
      </trkpt>
      <trkpt lat="46.82826" lon="-0.44495">
        <ele>181.54</ele>
        <time>2024-06-24T15:41:41.727Z</time>
      </trkpt>
      <trkpt lat="46.82822" lon="-0.44487">
        <ele>181.56</ele>
        <time>2024-06-24T15:41:42.827Z</time>
      </trkpt>
      <trkpt lat="46.82819" lon="-0.4448">
        <ele>181.6</ele>
        <time>2024-06-24T15:41:43.928Z</time>
      </trkpt>
      <trkpt lat="46.82814" lon="-0.44473">
        <ele>181.63</ele>
        <time>2024-06-24T15:41:45.030Z</time>
      </trkpt>
      <trkpt lat="46.8281" lon="-0.44466">
        <ele>181.67</ele>
        <time>2024-06-24T15:41:46.134Z</time>
      </trkpt>
      <trkpt lat="46.82805" lon="-0.44459">
        <ele>181.72</ele>
        <time>2024-06-24T15:41:47.239Z</time>
      </trkpt>
      <trkpt lat="46.82801" lon="-0.44452">
        <ele>181.77</ele>
        <time>2024-06-24T15:41:48.345Z</time>
      </trkpt>
      <trkpt lat="46.82797" lon="-0.44446">
        <ele>181.83</ele>
        <time>2024-06-24T15:41:49.453Z</time>
      </trkpt>
      <trkpt lat="46.82792" lon="-0.4444">
        <ele>181.89</ele>
        <time>2024-06-24T15:41:50.562Z</time>
      </trkpt>
      <trkpt lat="46.82788" lon="-0.44433">
        <ele>181.95</ele>
        <time>2024-06-24T15:41:51.672Z</time>
      </trkpt>
      <trkpt lat="46.82784" lon="-0.44427">
        <ele>182</ele>
        <time>2024-06-24T15:41:52.783Z</time>
      </trkpt>
      <trkpt lat="46.82781" lon="-0.4442">
        <ele>182.05</ele>
        <time>2024-06-24T15:41:53.895Z</time>
      </trkpt>
      <trkpt lat="46.82778" lon="-0.44413">
        <ele>182.11</ele>
        <time>2024-06-24T15:41:55.008Z</time>
      </trkpt>
      <trkpt lat="46.82776" lon="-0.44405">
        <ele>182.17</ele>
        <time>2024-06-24T15:41:56.123Z</time>
      </trkpt>
      <trkpt lat="46.82774" lon="-0.44398">
        <ele>182.24</ele>
        <time>2024-06-24T15:41:57.239Z</time>
      </trkpt>
      <trkpt lat="46.82772" lon="-0.4439">
        <ele>182.31</ele>
        <time>2024-06-24T15:41:58.356Z</time>
      </trkpt>
      <trkpt lat="46.82771" lon="-0.44382">
        <ele>182.38</ele>
        <time>2024-06-24T15:41:59.474Z</time>
      </trkpt>
      <trkpt lat="46.8277" lon="-0.44374">
        <ele>182.44</ele>
        <time>2024-06-24T15:42:00.593Z</time>
      </trkpt>
      <trkpt lat="46.82769" lon="-0.44367">
        <ele>182.52</ele>
        <time>2024-06-24T15:42:01.713Z</time>
      </trkpt>
      <trkpt lat="46.82769" lon="-0.4436">
        <ele>182.59</ele>
        <time>2024-06-24T15:42:02.834Z</time>
      </trkpt>
      <trkpt lat="46.82769" lon="-0.44352">
        <ele>182.66</ele>
        <time>2024-06-24T15:42:03.956Z</time>
      </trkpt>
      <trkpt lat="46.82769" lon="-0.44345">
        <ele>182.73</ele>
        <time>2024-06-24T15:42:05.079Z</time>
      </trkpt>
      <trkpt lat="46.82769" lon="-0.44338">
        <ele>182.81</ele>
        <time>2024-06-24T15:42:06.203Z</time>
      </trkpt>
      <trkpt lat="46.82769" lon="-0.44331">
        <ele>182.89</ele>
        <time>2024-06-24T15:42:07.328Z</time>
      </trkpt>
      <trkpt lat="46.82769" lon="-0.44324">
        <ele>182.96</ele>
        <time>2024-06-24T15:42:08.454Z</time>
      </trkpt>
      <trkpt lat="46.8277" lon="-0.44315">
        <ele>183.04</ele>
        <time>2024-06-24T15:42:09.581Z</time>
      </trkpt>
      <trkpt lat="46.8277" lon="-0.44308">
        <ele>183.11</ele>
        <time>2024-06-24T15:42:10.709Z</time>
      </trkpt>
      <trkpt lat="46.8277" lon="-0.44301">
        <ele>183.19</ele>
        <time>2024-06-24T15:42:11.838Z</time>
      </trkpt>
      <trkpt lat="46.82771" lon="-0.44294">
        <ele>183.26</ele>
        <time>2024-06-24T15:42:12.968Z</time>
      </trkpt>
      <trkpt lat="46.82772" lon="-0.44287">
        <ele>183.33</ele>
        <time>2024-06-24T15:42:14.099Z</time>
      </trkpt>
      <trkpt lat="46.82772" lon="-0.4428">
        <ele>183.4</ele>
        <time>2024-06-24T15:42:15.231Z</time>
      </trkpt>
      <trkpt lat="46.82773" lon="-0.44272">
        <ele>183.47</ele>
        <time>2024-06-24T15:42:16.364Z</time>
      </trkpt>
      <trkpt lat="46.82775" lon="-0.44265">
        <ele>183.54</ele>
        <time>2024-06-24T15:42:17.498Z</time>
      </trkpt>
      <trkpt lat="46.82776" lon="-0.44258">
        <ele>183.6</ele>
        <time>2024-06-24T15:42:18.633Z</time>
      </trkpt>
      <trkpt lat="46.82777" lon="-0.44251">
        <ele>183.66</ele>
        <time>2024-06-24T15:42:19.769Z</time>
      </trkpt>
      <trkpt lat="46.82777" lon="-0.44243">
        <ele>183.73</ele>
        <time>2024-06-24T15:42:20.906Z</time>
      </trkpt>
      <trkpt lat="46.82778" lon="-0.44237">
        <ele>183.8</ele>
        <time>2024-06-24T15:42:22.044Z</time>
      </trkpt>
      <trkpt lat="46.82779" lon="-0.44231">
        <ele>183.86</ele>
        <time>2024-06-24T15:42:23.183Z</time>
      </trkpt>
      <trkpt lat="46.82779" lon="-0.44224">
        <ele>183.92</ele>
        <time>2024-06-24T15:42:24.323Z</time>
      </trkpt>
      <trkpt lat="46.82781" lon="-0.44217">
        <ele>183.99</ele>
        <time>2024-06-24T15:42:25.464Z</time>
      </trkpt>
      <trkpt lat="46.82781" lon="-0.4421">
        <ele>184.05</ele>
        <time>2024-06-24T15:42:26.606Z</time>
      </trkpt>
      <trkpt lat="46.82783" lon="-0.44202">
        <ele>184.11</ele>
        <time>2024-06-24T15:42:27.749Z</time>
      </trkpt>
      <trkpt lat="46.82784" lon="-0.44195">
        <ele>184.16</ele>
        <time>2024-06-24T15:42:28.893Z</time>
      </trkpt>
      <trkpt lat="46.82785" lon="-0.44188">
        <ele>184.23</ele>
        <time>2024-06-24T15:42:30.038Z</time>
      </trkpt>
      <trkpt lat="46.82786" lon="-0.44182">
        <ele>184.28</ele>
        <time>2024-06-24T15:42:31.184Z</time>
      </trkpt>
      <trkpt lat="46.82788" lon="-0.44175">
        <ele>184.34</ele>
        <time>2024-06-24T15:42:32.331Z</time>
      </trkpt>
      <trkpt lat="46.82789" lon="-0.44168">
        <ele>184.4</ele>
        <time>2024-06-24T15:42:33.479Z</time>
      </trkpt>
      <trkpt lat="46.82791" lon="-0.44161">
        <ele>184.45</ele>
        <time>2024-06-24T15:42:34.628Z</time>
      </trkpt>
      <trkpt lat="46.82794" lon="-0.44153">
        <ele>184.5</ele>
        <time>2024-06-24T15:42:35.778Z</time>
      </trkpt>
      <trkpt lat="46.82796" lon="-0.44146">
        <ele>184.54</ele>
        <time>2024-06-24T15:42:36.929Z</time>
      </trkpt>
      <trkpt lat="46.82797" lon="-0.44139">
        <ele>184.58</ele>
        <time>2024-06-24T15:42:38.081Z</time>
      </trkpt>
      <trkpt lat="46.82799" lon="-0.44132">
        <ele>184.63</ele>
        <time>2024-06-24T15:42:39.234Z</time>
      </trkpt>
      <trkpt lat="46.82801" lon="-0.44125">
        <ele>184.67</ele>
        <time>2024-06-24T15:42:40.388Z</time>
      </trkpt>
      <trkpt lat="46.82804" lon="-0.44118">
        <ele>184.71</ele>
        <time>2024-06-24T15:42:41.543Z</time>
      </trkpt>
      <trkpt lat="46.82806" lon="-0.4411">
        <ele>184.74</ele>
        <time>2024-06-24T15:42:42.699Z</time>
      </trkpt>
      <trkpt lat="46.82809" lon="-0.44103">
        <ele>184.77</ele>
        <time>2024-06-24T15:42:43.857Z</time>
      </trkpt>
      <trkpt lat="46.82812" lon="-0.44096">
        <ele>184.8</ele>
        <time>2024-06-24T15:42:45.016Z</time>
      </trkpt>
      <trkpt lat="46.82812" lon="-0.4409">
        <ele>184.82</ele>
        <time>2024-06-24T15:42:46.175Z</time>
      </trkpt>
      <trkpt lat="46.82813" lon="-0.44083">
        <ele>184.84</ele>
        <time>2024-06-24T15:42:47.335Z</time>
      </trkpt>
      <trkpt lat="46.82814" lon="-0.44075">
        <ele>184.86</ele>
        <time>2024-06-24T15:42:48.497Z</time>
      </trkpt>
      <trkpt lat="46.82813" lon="-0.44066">
        <ele>184.86</ele>
        <time>2024-06-24T15:42:49.660Z</time>
      </trkpt>
      <trkpt lat="46.82814" lon="-0.44059">
        <ele>184.87</ele>
        <time>2024-06-24T15:42:50.824Z</time>
      </trkpt>
      <trkpt lat="46.82813" lon="-0.44051">
        <ele>184.87</ele>
        <time>2024-06-24T15:42:51.989Z</time>
      </trkpt>
      <trkpt lat="46.82813" lon="-0.44044">
        <ele>184.88</ele>
        <time>2024-06-24T15:42:53.155Z</time>
      </trkpt>
      <trkpt lat="46.82812" lon="-0.44036">
        <ele>184.88</ele>
        <time>2024-06-24T15:42:54.322Z</time>
      </trkpt>
      <trkpt lat="46.82812" lon="-0.44028">
        <ele>184.88</ele>
        <time>2024-06-24T15:42:55.490Z</time>
      </trkpt>
      <trkpt lat="46.82811" lon="-0.4402">
        <ele>184.88</ele>
        <time>2024-06-24T15:42:56.659Z</time>
      </trkpt>
      <trkpt lat="46.82811" lon="-0.44012">
        <ele>184.88</ele>
        <time>2024-06-24T15:42:57.829Z</time>
      </trkpt>
      <trkpt lat="46.8281" lon="-0.44005">
        <ele>184.87</ele>
        <time>2024-06-24T15:42:59.000Z</time>
      </trkpt>
      <trkpt lat="46.82809" lon="-0.43998">
        <ele>184.85</ele>
        <time>2024-06-24T15:43:00.172Z</time>
      </trkpt>
      <trkpt lat="46.82809" lon="-0.43992">
        <ele>184.83</ele>
        <time>2024-06-24T15:43:01.345Z</time>
      </trkpt>
      <trkpt lat="46.82808" lon="-0.43984">
        <ele>184.8</ele>
        <time>2024-06-24T15:43:02.519Z</time>
      </trkpt>
      <trkpt lat="46.82807" lon="-0.43977">
        <ele>184.77</ele>
        <time>2024-06-24T15:43:03.694Z</time>
      </trkpt>
      <trkpt lat="46.82807" lon="-0.43969">
        <ele>184.75</ele>
        <time>2024-06-24T15:43:04.870Z</time>
      </trkpt>
      <trkpt lat="46.82806" lon="-0.43961">
        <ele>184.72</ele>
        <time>2024-06-24T15:43:06.047Z</time>
      </trkpt>
      <trkpt lat="46.82806" lon="-0.43953">
        <ele>184.68</ele>
        <time>2024-06-24T15:43:07.225Z</time>
      </trkpt>
      <trkpt lat="46.82805" lon="-0.43945">
        <ele>184.63</ele>
        <time>2024-06-24T15:43:08.405Z</time>
      </trkpt>
      <trkpt lat="46.82805" lon="-0.43937">
        <ele>184.58</ele>
        <time>2024-06-24T15:43:09.586Z</time>
      </trkpt>
      <trkpt lat="46.82804" lon="-0.43928">
        <ele>184.51</ele>
        <time>2024-06-24T15:43:10.768Z</time>
      </trkpt>
      <trkpt lat="46.82803" lon="-0.4392">
        <ele>184.44</ele>
        <time>2024-06-24T15:43:11.951Z</time>
      </trkpt>
      <trkpt lat="46.82803" lon="-0.43912">
        <ele>184.37</ele>
        <time>2024-06-24T15:43:13.135Z</time>
      </trkpt>
      <trkpt lat="46.82802" lon="-0.43903">
        <ele>184.3</ele>
        <time>2024-06-24T15:43:14.320Z</time>
      </trkpt>
      <trkpt lat="46.82802" lon="-0.43895">
        <ele>184.22</ele>
        <time>2024-06-24T15:43:15.507Z</time>
      </trkpt>
      <trkpt lat="46.82802" lon="-0.43886">
        <ele>184.14</ele>
        <time>2024-06-24T15:43:16.695Z</time>
      </trkpt>
      <trkpt lat="46.82802" lon="-0.43878">
        <ele>184.05</ele>
        <time>2024-06-24T15:43:17.884Z</time>
      </trkpt>
      <trkpt lat="46.82801" lon="-0.4387">
        <ele>183.95</ele>
        <time>2024-06-24T15:43:19.074Z</time>
      </trkpt>
      <trkpt lat="46.82801" lon="-0.43861">
        <ele>183.86</ele>
        <time>2024-06-24T15:43:20.265Z</time>
      </trkpt>
      <trkpt lat="46.82799" lon="-0.43852">
        <ele>183.76</ele>
        <time>2024-06-24T15:43:21.457Z</time>
      </trkpt>
      <trkpt lat="46.82798" lon="-0.43844">
        <ele>183.65</ele>
        <time>2024-06-24T15:43:22.651Z</time>
      </trkpt>
      <trkpt lat="46.82796" lon="-0.43834">
        <ele>183.54</ele>
        <time>2024-06-24T15:43:23.846Z</time>
      </trkpt>
      <trkpt lat="46.82795" lon="-0.43826">
        <ele>183.43</ele>
        <time>2024-06-24T15:43:25.042Z</time>
      </trkpt>
      <trkpt lat="46.82793" lon="-0.43818">
        <ele>183.31</ele>
        <time>2024-06-24T15:43:26.239Z</time>
      </trkpt>
      <trkpt lat="46.82791" lon="-0.4381">
        <ele>183.19</ele>
        <time>2024-06-24T15:43:27.437Z</time>
      </trkpt>
      <trkpt lat="46.8279" lon="-0.43802">
        <ele>183.07</ele>
        <time>2024-06-24T15:43:28.636Z</time>
      </trkpt>
      <trkpt lat="46.82788" lon="-0.43794">
        <ele>182.95</ele>
        <time>2024-06-24T15:43:29.837Z</time>
      </trkpt>
      <trkpt lat="46.82785" lon="-0.43786">
        <ele>182.81</ele>
        <time>2024-06-24T15:43:31.039Z</time>
      </trkpt>
      <trkpt lat="46.82783" lon="-0.43778">
        <ele>182.68</ele>
        <time>2024-06-24T15:43:32.242Z</time>
      </trkpt>
      <trkpt lat="46.82781" lon="-0.43769">
        <ele>182.53</ele>
        <time>2024-06-24T15:43:33.446Z</time>
      </trkpt>
      <trkpt lat="46.82779" lon="-0.43761">
        <ele>182.38</ele>
        <time>2024-06-24T15:43:34.652Z</time>
      </trkpt>
      <trkpt lat="46.82776" lon="-0.43753">
        <ele>182.22</ele>
        <time>2024-06-24T15:43:35.859Z</time>
      </trkpt>
      <trkpt lat="46.82774" lon="-0.43744">
        <ele>182.06</ele>
        <time>2024-06-24T15:43:37.067Z</time>
      </trkpt>
      <trkpt lat="46.82772" lon="-0.43736">
        <ele>181.88</ele>
        <time>2024-06-24T15:43:38.276Z</time>
      </trkpt>
      <trkpt lat="46.8277" lon="-0.43728">
        <ele>181.72</ele>
        <time>2024-06-24T15:43:39.487Z</time>
      </trkpt>
      <trkpt lat="46.82767" lon="-0.43719">
        <ele>181.55</ele>
        <time>2024-06-24T15:43:40.699Z</time>
      </trkpt>
      <trkpt lat="46.82765" lon="-0.4371">
        <ele>181.37</ele>
        <time>2024-06-24T15:43:41.912Z</time>
      </trkpt>
      <trkpt lat="46.82763" lon="-0.43702">
        <ele>181.2</ele>
        <time>2024-06-24T15:43:43.126Z</time>
      </trkpt>
      <trkpt lat="46.82762" lon="-0.43693">
        <ele>181.03</ele>
        <time>2024-06-24T15:43:44.341Z</time>
      </trkpt>
      <trkpt lat="46.8276" lon="-0.43684">
        <ele>180.84</ele>
        <time>2024-06-24T15:43:45.558Z</time>
      </trkpt>
      <trkpt lat="46.82758" lon="-0.43675">
        <ele>180.65</ele>
        <time>2024-06-24T15:43:46.776Z</time>
      </trkpt>
      <trkpt lat="46.82756" lon="-0.43666">
        <ele>180.45</ele>
        <time>2024-06-24T15:43:47.995Z</time>
      </trkpt>
      <trkpt lat="46.82755" lon="-0.43657">
        <ele>180.26</ele>
        <time>2024-06-24T15:43:49.216Z</time>
      </trkpt>
      <trkpt lat="46.82753" lon="-0.43648">
        <ele>180.06</ele>
        <time>2024-06-24T15:43:50.438Z</time>
      </trkpt>
      <trkpt lat="46.82751" lon="-0.4364">
        <ele>179.87</ele>
        <time>2024-06-24T15:43:51.661Z</time>
      </trkpt>
      <trkpt lat="46.82749" lon="-0.4363">
        <ele>179.67</ele>
        <time>2024-06-24T15:43:52.886Z</time>
      </trkpt>
      <trkpt lat="46.82747" lon="-0.43621">
        <ele>179.46</ele>
        <time>2024-06-24T15:43:54.112Z</time>
      </trkpt>
      <trkpt lat="46.82745" lon="-0.43612">
        <ele>179.25</ele>
        <time>2024-06-24T15:43:55.339Z</time>
      </trkpt>
      <trkpt lat="46.82742" lon="-0.43603">
        <ele>179.02</ele>
        <time>2024-06-24T15:43:56.568Z</time>
      </trkpt>
      <trkpt lat="46.8274" lon="-0.43594">
        <ele>178.81</ele>
        <time>2024-06-24T15:43:57.798Z</time>
      </trkpt>
      <trkpt lat="46.82737" lon="-0.43584">
        <ele>178.59</ele>
        <time>2024-06-24T15:43:59.029Z</time>
      </trkpt>
      <trkpt lat="46.82734" lon="-0.43575">
        <ele>178.37</ele>
        <time>2024-06-24T15:44:00.262Z</time>
      </trkpt>
      <trkpt lat="46.82731" lon="-0.43566">
        <ele>178.14</ele>
        <time>2024-06-24T15:44:01.496Z</time>
      </trkpt>
      <trkpt lat="46.82728" lon="-0.43557">
        <ele>177.92</ele>
        <time>2024-06-24T15:44:02.731Z</time>
      </trkpt>
      <trkpt lat="46.82724" lon="-0.43548">
        <ele>177.69</ele>
        <time>2024-06-24T15:44:03.968Z</time>
      </trkpt>
      <trkpt lat="46.82721" lon="-0.43539">
        <ele>177.46</ele>
        <time>2024-06-24T15:44:05.206Z</time>
      </trkpt>
      <trkpt lat="46.82717" lon="-0.4353">
        <ele>177.22</ele>
        <time>2024-06-24T15:44:06.446Z</time>
      </trkpt>
      <trkpt lat="46.82713" lon="-0.43522">
        <ele>176.98</ele>
        <time>2024-06-24T15:44:07.687Z</time>
      </trkpt>
      <trkpt lat="46.8271" lon="-0.43514">
        <ele>176.74</ele>
        <time>2024-06-24T15:44:08.929Z</time>
      </trkpt>
      <trkpt lat="46.82706" lon="-0.43506">
        <ele>176.49</ele>
        <time>2024-06-24T15:44:10.173Z</time>
      </trkpt>
      <trkpt lat="46.82703" lon="-0.43498">
        <ele>176.24</ele>
        <time>2024-06-24T15:44:11.418Z</time>
      </trkpt>
      <trkpt lat="46.82699" lon="-0.43488">
        <ele>175.99</ele>
        <time>2024-06-24T15:44:12.664Z</time>
      </trkpt>
      <trkpt lat="46.82697" lon="-0.4348">
        <ele>175.73</ele>
        <time>2024-06-24T15:44:13.912Z</time>
      </trkpt>
      <trkpt lat="46.82693" lon="-0.43472">
        <ele>175.47</ele>
        <time>2024-06-24T15:44:15.161Z</time>
      </trkpt>
      <trkpt lat="46.8269" lon="-0.43462">
        <ele>175.21</ele>
        <time>2024-06-24T15:44:16.411Z</time>
      </trkpt>
      <trkpt lat="46.82687" lon="-0.43454">
        <ele>174.95</ele>
        <time>2024-06-24T15:44:17.663Z</time>
      </trkpt>
      <trkpt lat="46.82685" lon="-0.43445">
        <ele>174.7</ele>
        <time>2024-06-24T15:44:18.916Z</time>
      </trkpt>
      <trkpt lat="46.82682" lon="-0.43435">
        <ele>174.44</ele>
        <time>2024-06-24T15:44:20.171Z</time>
      </trkpt>
      <trkpt lat="46.8268" lon="-0.43426">
        <ele>174.18</ele>
        <time>2024-06-24T15:44:21.427Z</time>
      </trkpt>
      <trkpt lat="46.82677" lon="-0.43417">
        <ele>173.93</ele>
        <time>2024-06-24T15:44:22.684Z</time>
      </trkpt>
      <trkpt lat="46.82674" lon="-0.43408">
        <ele>173.67</ele>
        <time>2024-06-24T15:44:23.943Z</time>
      </trkpt>
      <trkpt lat="46.82672" lon="-0.43398">
        <ele>173.4</ele>
        <time>2024-06-24T15:44:25.203Z</time>
      </trkpt>
      <trkpt lat="46.8267" lon="-0.43388">
        <ele>173.14</ele>
        <time>2024-06-24T15:44:26.464Z</time>
      </trkpt>
      <trkpt lat="46.82668" lon="-0.4338">
        <ele>172.88</ele>
        <time>2024-06-24T15:44:27.727Z</time>
      </trkpt>
      <trkpt lat="46.82667" lon="-0.43371">
        <ele>172.62</ele>
        <time>2024-06-24T15:44:28.991Z</time>
      </trkpt>
      <trkpt lat="46.82665" lon="-0.43362">
        <ele>172.36</ele>
        <time>2024-06-24T15:44:30.256Z</time>
      </trkpt>
      <trkpt lat="46.82664" lon="-0.43354">
        <ele>172.09</ele>
        <time>2024-06-24T15:44:31.522Z</time>
      </trkpt>
      <trkpt lat="46.82662" lon="-0.43345">
        <ele>171.82</ele>
        <time>2024-06-24T15:44:32.790Z</time>
      </trkpt>
      <trkpt lat="46.82661" lon="-0.43336">
        <ele>171.57</ele>
        <time>2024-06-24T15:44:34.059Z</time>
      </trkpt>
      <trkpt lat="46.82659" lon="-0.43326">
        <ele>171.31</ele>
        <time>2024-06-24T15:44:35.329Z</time>
      </trkpt>
      <trkpt lat="46.82657" lon="-0.43318">
        <ele>171.05</ele>
        <time>2024-06-24T15:44:36.601Z</time>
      </trkpt>
      <trkpt lat="46.82654" lon="-0.43308">
        <ele>170.8</ele>
        <time>2024-06-24T15:44:37.874Z</time>
      </trkpt>
      <trkpt lat="46.82652" lon="-0.43299">
        <ele>170.55</ele>
        <time>2024-06-24T15:44:39.148Z</time>
      </trkpt>
      <trkpt lat="46.82651" lon="-0.4329">
        <ele>170.31</ele>
        <time>2024-06-24T15:44:40.423Z</time>
      </trkpt>
      <trkpt lat="46.82649" lon="-0.43281">
        <ele>170.07</ele>
        <time>2024-06-24T15:44:41.700Z</time>
      </trkpt>
      <trkpt lat="46.82647" lon="-0.43272">
        <ele>169.84</ele>
        <time>2024-06-24T15:44:42.978Z</time>
      </trkpt>
      <trkpt lat="46.82645" lon="-0.43263">
        <ele>169.61</ele>
        <time>2024-06-24T15:44:44.257Z</time>
      </trkpt>
      <trkpt lat="46.82642" lon="-0.43253">
        <ele>169.38</ele>
        <time>2024-06-24T15:44:45.538Z</time>
      </trkpt>
      <trkpt lat="46.8264" lon="-0.43244">
        <ele>169.15</ele>
        <time>2024-06-24T15:44:46.820Z</time>
      </trkpt>
      <trkpt lat="46.82639" lon="-0.43235">
        <ele>168.92</ele>
        <time>2024-06-24T15:44:48.103Z</time>
      </trkpt>
      <trkpt lat="46.82637" lon="-0.43227">
        <ele>168.69</ele>
        <time>2024-06-24T15:44:49.388Z</time>
      </trkpt>
      <trkpt lat="46.82636" lon="-0.43218">
        <ele>168.47</ele>
        <time>2024-06-24T15:44:50.674Z</time>
      </trkpt>
      <trkpt lat="46.82634" lon="-0.43209">
        <ele>168.25</ele>
        <time>2024-06-24T15:44:51.961Z</time>
      </trkpt>
      <trkpt lat="46.82632" lon="-0.43199">
        <ele>168.03</ele>
        <time>2024-06-24T15:44:53.249Z</time>
      </trkpt>
      <trkpt lat="46.82631" lon="-0.4319">
        <ele>167.8</ele>
        <time>2024-06-24T15:44:54.539Z</time>
      </trkpt>
      <trkpt lat="46.82628" lon="-0.43182">
        <ele>167.58</ele>
        <time>2024-06-24T15:44:55.830Z</time>
      </trkpt>
      <trkpt lat="46.82626" lon="-0.43173">
        <ele>167.36</ele>
        <time>2024-06-24T15:44:57.122Z</time>
      </trkpt>
      <trkpt lat="46.82623" lon="-0.43164">
        <ele>167.14</ele>
        <time>2024-06-24T15:44:58.416Z</time>
      </trkpt>
      <trkpt lat="46.8262" lon="-0.43155">
        <ele>166.93</ele>
        <time>2024-06-24T15:44:59.711Z</time>
      </trkpt>
      <trkpt lat="46.82617" lon="-0.43147">
        <ele>166.71</ele>
        <time>2024-06-24T15:45:01.007Z</time>
      </trkpt>
      <trkpt lat="46.82613" lon="-0.43139">
        <ele>166.51</ele>
        <time>2024-06-24T15:45:02.305Z</time>
      </trkpt>
      <trkpt lat="46.82609" lon="-0.43132">
        <ele>166.3</ele>
        <time>2024-06-24T15:45:03.604Z</time>
      </trkpt>
      <trkpt lat="46.82605" lon="-0.43125">
        <ele>166.11</ele>
        <time>2024-06-24T15:45:04.904Z</time>
      </trkpt>
      <trkpt lat="46.82602" lon="-0.43117">
        <ele>165.91</ele>
        <time>2024-06-24T15:45:06.205Z</time>
      </trkpt>
      <trkpt lat="46.82597" lon="-0.43111">
        <ele>165.72</ele>
        <time>2024-06-24T15:45:07.508Z</time>
      </trkpt>
      <trkpt lat="46.82593" lon="-0.43104">
        <ele>165.53</ele>
        <time>2024-06-24T15:45:08.812Z</time>
      </trkpt>
      <trkpt lat="46.82589" lon="-0.43097">
        <ele>165.33</ele>
        <time>2024-06-24T15:45:10.117Z</time>
      </trkpt>
      <trkpt lat="46.82584" lon="-0.43091">
        <ele>165.13</ele>
        <time>2024-06-24T15:45:11.424Z</time>
      </trkpt>
      <trkpt lat="46.82578" lon="-0.43085">
        <ele>164.95</ele>
        <time>2024-06-24T15:45:12.732Z</time>
      </trkpt>
      <trkpt lat="46.82573" lon="-0.43081">
        <ele>164.77</ele>
        <time>2024-06-24T15:45:14.041Z</time>
      </trkpt>
      <trkpt lat="46.82568" lon="-0.43076">
        <ele>164.59</ele>
        <time>2024-06-24T15:45:15.351Z</time>
      </trkpt>
      <trkpt lat="46.82562" lon="-0.43072">
        <ele>164.41</ele>
        <time>2024-06-24T15:45:16.663Z</time>
      </trkpt>
      <trkpt lat="46.82557" lon="-0.43067">
        <ele>164.24</ele>
        <time>2024-06-24T15:45:17.976Z</time>
      </trkpt>
      <trkpt lat="46.82552" lon="-0.43063">
        <ele>164.08</ele>
        <time>2024-06-24T15:45:19.290Z</time>
      </trkpt>
      <trkpt lat="46.82546" lon="-0.43058">
        <ele>163.92</ele>
        <time>2024-06-24T15:45:20.605Z</time>
      </trkpt>
      <trkpt lat="46.82541" lon="-0.43054">
        <ele>163.76</ele>
        <time>2024-06-24T15:45:21.922Z</time>
      </trkpt>
      <trkpt lat="46.82535" lon="-0.43049">
        <ele>163.6</ele>
        <time>2024-06-24T15:45:23.240Z</time>
      </trkpt>
      <trkpt lat="46.8253" lon="-0.43043">
        <ele>163.44</ele>
        <time>2024-06-24T15:45:24.559Z</time>
      </trkpt>
      <trkpt lat="46.82524" lon="-0.43037">
        <ele>163.28</ele>
        <time>2024-06-24T15:45:25.880Z</time>
      </trkpt>
      <trkpt lat="46.82518" lon="-0.43031">
        <ele>163.13</ele>
        <time>2024-06-24T15:45:27.202Z</time>
      </trkpt>
      <trkpt lat="46.82512" lon="-0.43026">
        <ele>162.98</ele>
        <time>2024-06-24T15:45:28.525Z</time>
      </trkpt>
      <trkpt lat="46.82506" lon="-0.43021">
        <ele>162.83</ele>
        <time>2024-06-24T15:45:29.850Z</time>
      </trkpt>
      <trkpt lat="46.825" lon="-0.43015">
        <ele>162.67</ele>
        <time>2024-06-24T15:45:31.176Z</time>
      </trkpt>
      <trkpt lat="46.82494" lon="-0.4301">
        <ele>162.51</ele>
        <time>2024-06-24T15:45:32.504Z</time>
      </trkpt>
      <trkpt lat="46.82487" lon="-0.43004">
        <ele>162.37</ele>
        <time>2024-06-24T15:45:33.833Z</time>
      </trkpt>
      <trkpt lat="46.82481" lon="-0.42998">
        <ele>162.23</ele>
        <time>2024-06-24T15:45:35.164Z</time>
      </trkpt>
      <trkpt lat="46.82475" lon="-0.42992">
        <ele>162.1</ele>
        <time>2024-06-24T15:45:36.496Z</time>
      </trkpt>
      <trkpt lat="46.82468" lon="-0.42986">
        <ele>161.97</ele>
        <time>2024-06-24T15:45:37.830Z</time>
      </trkpt>
      <trkpt lat="46.82462" lon="-0.42979">
        <ele>161.84</ele>
        <time>2024-06-24T15:45:39.165Z</time>
      </trkpt>
      <trkpt lat="46.82456" lon="-0.42973">
        <ele>161.72</ele>
        <time>2024-06-24T15:45:40.502Z</time>
      </trkpt>
      <trkpt lat="46.8245" lon="-0.42965">
        <ele>161.61</ele>
        <time>2024-06-24T15:45:41.840Z</time>
      </trkpt>
      <trkpt lat="46.82445" lon="-0.42957">
        <ele>161.49</ele>
        <time>2024-06-24T15:45:43.180Z</time>
      </trkpt>
      <trkpt lat="46.8244" lon="-0.42949">
        <ele>161.38</ele>
        <time>2024-06-24T15:45:44.521Z</time>
      </trkpt>
      <trkpt lat="46.82436" lon="-0.4294">
        <ele>161.27</ele>
        <time>2024-06-24T15:45:45.864Z</time>
      </trkpt>
      <trkpt lat="46.82433" lon="-0.42931">
        <ele>161.16</ele>
        <time>2024-06-24T15:45:47.208Z</time>
      </trkpt>
      <trkpt lat="46.8243" lon="-0.42922">
        <ele>161.05</ele>
        <time>2024-06-24T15:45:48.554Z</time>
      </trkpt>
      <trkpt lat="46.82428" lon="-0.42912">
        <ele>160.95</ele>
        <time>2024-06-24T15:45:49.901Z</time>
      </trkpt>
      <trkpt lat="46.82425" lon="-0.42903">
        <ele>160.85</ele>
        <time>2024-06-24T15:45:51.249Z</time>
      </trkpt>
      <trkpt lat="46.82422" lon="-0.42895">
        <ele>160.76</ele>
        <time>2024-06-24T15:45:52.599Z</time>
      </trkpt>
      <trkpt lat="46.82419" lon="-0.42885">
        <ele>160.67</ele>
        <time>2024-06-24T15:45:53.950Z</time>
      </trkpt>
      <trkpt lat="46.82417" lon="-0.42877">
        <ele>160.59</ele>
        <time>2024-06-24T15:45:55.302Z</time>
      </trkpt>
      <trkpt lat="46.82414" lon="-0.42869">
        <ele>160.52</ele>
        <time>2024-06-24T15:45:56.656Z</time>
      </trkpt>
      <trkpt lat="46.82411" lon="-0.42861">
        <ele>160.44</ele>
        <time>2024-06-24T15:45:58.011Z</time>
      </trkpt>
      <trkpt lat="46.82408" lon="-0.42852">
        <ele>160.36</ele>
        <time>2024-06-24T15:45:59.367Z</time>
      </trkpt>
      <trkpt lat="46.82406" lon="-0.42843">
        <ele>160.28</ele>
        <time>2024-06-24T15:46:00.725Z</time>
      </trkpt>
      <trkpt lat="46.82403" lon="-0.42833">
        <ele>160.2</ele>
        <time>2024-06-24T15:46:02.084Z</time>
      </trkpt>
      <trkpt lat="46.82401" lon="-0.42824">
        <ele>160.11</ele>
        <time>2024-06-24T15:46:03.444Z</time>
      </trkpt>
      <trkpt lat="46.824" lon="-0.42815">
        <ele>160.01</ele>
        <time>2024-06-24T15:46:04.806Z</time>
      </trkpt>
      <trkpt lat="46.82398" lon="-0.42807">
        <ele>159.92</ele>
        <time>2024-06-24T15:46:06.169Z</time>
      </trkpt>
      <trkpt lat="46.82396" lon="-0.42798">
        <ele>159.82</ele>
        <time>2024-06-24T15:46:07.533Z</time>
      </trkpt>
      <trkpt lat="46.82395" lon="-0.42789">
        <ele>159.71</ele>
        <time>2024-06-24T15:46:08.898Z</time>
      </trkpt>
      <trkpt lat="46.82393" lon="-0.42781">
        <ele>159.6</ele>
        <time>2024-06-24T15:46:10.265Z</time>
      </trkpt>
      <trkpt lat="46.82391" lon="-0.42772">
        <ele>159.5</ele>
        <time>2024-06-24T15:46:11.633Z</time>
      </trkpt>
      <trkpt lat="46.82389" lon="-0.42763">
        <ele>159.4</ele>
        <time>2024-06-24T15:46:13.002Z</time>
      </trkpt>
      <trkpt lat="46.82388" lon="-0.42755">
        <ele>159.29</ele>
        <time>2024-06-24T15:46:14.372Z</time>
      </trkpt>
      <trkpt lat="46.82386" lon="-0.42746">
        <ele>159.2</ele>
        <time>2024-06-24T15:46:15.743Z</time>
      </trkpt>
      <trkpt lat="46.82385" lon="-0.42737">
        <ele>159.09</ele>
        <time>2024-06-24T15:46:17.116Z</time>
      </trkpt>
      <trkpt lat="46.82383" lon="-0.42729">
        <ele>158.98</ele>
        <time>2024-06-24T15:46:18.490Z</time>
      </trkpt>
      <trkpt lat="46.82382" lon="-0.4272">
        <ele>158.86</ele>
        <time>2024-06-24T15:46:19.865Z</time>
      </trkpt>
      <trkpt lat="46.8238" lon="-0.42712">
        <ele>158.76</ele>
        <time>2024-06-24T15:46:21.241Z</time>
      </trkpt>
      <trkpt lat="46.8238" lon="-0.42703">
        <ele>158.65</ele>
        <time>2024-06-24T15:46:22.619Z</time>
      </trkpt>
      <trkpt lat="46.82379" lon="-0.42694">
        <ele>158.54</ele>
        <time>2024-06-24T15:46:23.998Z</time>
      </trkpt>
      <trkpt lat="46.82378" lon="-0.42685">
        <ele>158.43</ele>
        <time>2024-06-24T15:46:25.378Z</time>
      </trkpt>
      <trkpt lat="46.82377" lon="-0.42677">
        <ele>158.31</ele>
        <time>2024-06-24T15:46:26.759Z</time>
      </trkpt>
      <trkpt lat="46.82377" lon="-0.42668">
        <ele>158.19</ele>
        <time>2024-06-24T15:46:28.141Z</time>
      </trkpt>
      <trkpt lat="46.82376" lon="-0.42659">
        <ele>158.08</ele>
        <time>2024-06-24T15:46:29.525Z</time>
      </trkpt>
      <trkpt lat="46.82375" lon="-0.42651">
        <ele>157.97</ele>
        <time>2024-06-24T15:46:30.910Z</time>
      </trkpt>
      <trkpt lat="46.82374" lon="-0.42642">
        <ele>157.86</ele>
        <time>2024-06-24T15:46:32.296Z</time>
      </trkpt>
      <trkpt lat="46.82374" lon="-0.42634">
        <ele>157.74</ele>
        <time>2024-06-24T15:46:33.683Z</time>
      </trkpt>
      <trkpt lat="46.82372" lon="-0.42626">
        <ele>157.62</ele>
        <time>2024-06-24T15:46:35.071Z</time>
      </trkpt>
      <trkpt lat="46.82371" lon="-0.42618">
        <ele>157.49</ele>
        <time>2024-06-24T15:46:36.460Z</time>
      </trkpt>
      <trkpt lat="46.82369" lon="-0.4261">
        <ele>157.35</ele>
        <time>2024-06-24T15:46:37.851Z</time>
      </trkpt>
      <trkpt lat="46.82368" lon="-0.42601">
        <ele>157.21</ele>
        <time>2024-06-24T15:46:39.243Z</time>
      </trkpt>
      <trkpt lat="46.82366" lon="-0.42595">
        <ele>157.07</ele>
        <time>2024-06-24T15:46:40.636Z</time>
      </trkpt>
      <trkpt lat="46.82364" lon="-0.42587">
        <ele>156.92</ele>
        <time>2024-06-24T15:46:42.030Z</time>
      </trkpt>
      <trkpt lat="46.82361" lon="-0.42579">
        <ele>156.78</ele>
        <time>2024-06-24T15:46:43.425Z</time>
      </trkpt>
      <trkpt lat="46.82359" lon="-0.42572">
        <ele>156.63</ele>
        <time>2024-06-24T15:46:44.821Z</time>
      </trkpt>
      <trkpt lat="46.82356" lon="-0.42564">
        <ele>156.47</ele>
        <time>2024-06-24T15:46:46.218Z</time>
      </trkpt>
      <trkpt lat="46.82353" lon="-0.42555">
        <ele>156.3</ele>
        <time>2024-06-24T15:46:47.617Z</time>
      </trkpt>
      <trkpt lat="46.82351" lon="-0.42548">
        <ele>156.13</ele>
        <time>2024-06-24T15:46:49.017Z</time>
      </trkpt>
      <trkpt lat="46.82348" lon="-0.42539">
        <ele>155.96</ele>
        <time>2024-06-24T15:46:50.418Z</time>
      </trkpt>
      <trkpt lat="46.82346" lon="-0.42532">
        <ele>155.8</ele>
        <time>2024-06-24T15:46:51.820Z</time>
      </trkpt>
      <trkpt lat="46.82343" lon="-0.42523">
        <ele>155.63</ele>
        <time>2024-06-24T15:46:53.224Z</time>
      </trkpt>
      <trkpt lat="46.82339" lon="-0.42514">
        <ele>155.46</ele>
        <time>2024-06-24T15:46:54.629Z</time>
      </trkpt>
      <trkpt lat="46.82336" lon="-0.42505">
        <ele>155.29</ele>
        <time>2024-06-24T15:46:56.035Z</time>
      </trkpt>
      <trkpt lat="46.82333" lon="-0.42496">
        <ele>155.12</ele>
        <time>2024-06-24T15:46:57.443Z</time>
      </trkpt>
      <trkpt lat="46.8233" lon="-0.42488">
        <ele>154.96</ele>
        <time>2024-06-24T15:46:58.852Z</time>
      </trkpt>
      <trkpt lat="46.82327" lon="-0.4248">
        <ele>154.79</ele>
        <time>2024-06-24T15:47:00.262Z</time>
      </trkpt>
      <trkpt lat="46.82323" lon="-0.42471">
        <ele>154.62</ele>
        <time>2024-06-24T15:47:01.674Z</time>
      </trkpt>
      <trkpt lat="46.8232" lon="-0.42462">
        <ele>154.46</ele>
        <time>2024-06-24T15:47:03.087Z</time>
      </trkpt>
      <trkpt lat="46.82318" lon="-0.42454">
        <ele>154.32</ele>
        <time>2024-06-24T15:47:04.501Z</time>
      </trkpt>
      <trkpt lat="46.82314" lon="-0.42445">
        <ele>154.18</ele>
        <time>2024-06-24T15:47:05.917Z</time>
      </trkpt>
      <trkpt lat="46.8231" lon="-0.42436">
        <ele>154.03</ele>
        <time>2024-06-24T15:47:07.334Z</time>
      </trkpt>
      <trkpt lat="46.82306" lon="-0.42427">
        <ele>153.87</ele>
        <time>2024-06-24T15:47:08.753Z</time>
      </trkpt>
      <trkpt lat="46.82302" lon="-0.4242">
        <ele>153.73</ele>
        <time>2024-06-24T15:47:10.173Z</time>
      </trkpt>
      <trkpt lat="46.82298" lon="-0.42413">
        <ele>153.58</ele>
        <time>2024-06-24T15:47:11.594Z</time>
      </trkpt>
      <trkpt lat="46.82294" lon="-0.42405">
        <ele>153.43</ele>
        <time>2024-06-24T15:47:13.017Z</time>
      </trkpt>
      <trkpt lat="46.8229" lon="-0.42396">
        <ele>153.28</ele>
        <time>2024-06-24T15:47:14.441Z</time>
      </trkpt>
      <trkpt lat="46.82287" lon="-0.42388">
        <ele>153.14</ele>
        <time>2024-06-24T15:47:15.866Z</time>
      </trkpt>
      <trkpt lat="46.82284" lon="-0.42378">
        <ele>153</ele>
        <time>2024-06-24T15:47:17.293Z</time>
      </trkpt>
      <trkpt lat="46.82281" lon="-0.4237">
        <ele>152.87</ele>
        <time>2024-06-24T15:47:18.721Z</time>
      </trkpt>
      <trkpt lat="46.82279" lon="-0.4236">
        <ele>152.75</ele>
        <time>2024-06-24T15:47:20.150Z</time>
      </trkpt>
      <trkpt lat="46.82275" lon="-0.4235">
        <ele>152.64</ele>
        <time>2024-06-24T15:47:21.581Z</time>
      </trkpt>
      <trkpt lat="46.82272" lon="-0.42341">
        <ele>152.54</ele>
        <time>2024-06-24T15:47:23.013Z</time>
      </trkpt>
      <trkpt lat="46.8227" lon="-0.42331">
        <ele>152.44</ele>
        <time>2024-06-24T15:47:24.447Z</time>
      </trkpt>
      <trkpt lat="46.82267" lon="-0.42322">
        <ele>152.34</ele>
        <time>2024-06-24T15:47:25.882Z</time>
      </trkpt>
      <trkpt lat="46.82263" lon="-0.42313">
        <ele>152.26</ele>
        <time>2024-06-24T15:47:27.319Z</time>
      </trkpt>
      <trkpt lat="46.8226" lon="-0.42305">
        <ele>152.18</ele>
        <time>2024-06-24T15:47:28.757Z</time>
      </trkpt>
      <trkpt lat="46.82257" lon="-0.42299">
        <ele>152.11</ele>
        <time>2024-06-24T15:47:30.196Z</time>
      </trkpt>
      <trkpt lat="46.82253" lon="-0.42293">
        <ele>152.05</ele>
        <time>2024-06-24T15:47:31.636Z</time>
      </trkpt>
      <trkpt lat="46.82248" lon="-0.42286">
        <ele>151.99</ele>
        <time>2024-06-24T15:47:33.077Z</time>
      </trkpt>
      <trkpt lat="46.82244" lon="-0.42279">
        <ele>151.94</ele>
        <time>2024-06-24T15:47:34.520Z</time>
      </trkpt>
      <trkpt lat="46.82239" lon="-0.42272">
        <ele>151.9</ele>
        <time>2024-06-24T15:47:35.964Z</time>
      </trkpt>
      <trkpt lat="46.82234" lon="-0.42265">
        <ele>151.86</ele>
        <time>2024-06-24T15:47:37.410Z</time>
      </trkpt>
      <trkpt lat="46.82229" lon="-0.42258">
        <ele>151.83</ele>
        <time>2024-06-24T15:47:38.857Z</time>
      </trkpt>
      <trkpt lat="46.82225" lon="-0.42252">
        <ele>151.82</ele>
        <time>2024-06-24T15:47:40.305Z</time>
      </trkpt>
      <trkpt lat="46.82221" lon="-0.42245">
        <ele>151.82</ele>
        <time>2024-06-24T15:47:41.754Z</time>
      </trkpt>
      <trkpt lat="46.82217" lon="-0.42238">
        <ele>151.83</ele>
        <time>2024-06-24T15:47:43.205Z</time>
      </trkpt>
      <trkpt lat="46.82212" lon="-0.42232">
        <ele>151.85</ele>
        <time>2024-06-24T15:47:44.657Z</time>
      </trkpt>
      <trkpt lat="46.82208" lon="-0.42227">
        <ele>151.86</ele>
        <time>2024-06-24T15:47:46.110Z</time>
      </trkpt>
      <trkpt lat="46.82202" lon="-0.42222">
        <ele>151.89</ele>
        <time>2024-06-24T15:47:47.564Z</time>
      </trkpt>
      <trkpt lat="46.82197" lon="-0.42219">
        <ele>151.92</ele>
        <time>2024-06-24T15:47:49.019Z</time>
      </trkpt>
      <trkpt lat="46.82192" lon="-0.42215">
        <ele>151.95</ele>
        <time>2024-06-24T15:47:50.475Z</time>
      </trkpt>
      <trkpt lat="46.82187" lon="-0.42213">
        <ele>152</ele>
        <time>2024-06-24T15:47:51.933Z</time>
      </trkpt>
      <trkpt lat="46.82181" lon="-0.42212">
        <ele>152.04</ele>
        <time>2024-06-24T15:47:53.392Z</time>
      </trkpt>
      <trkpt lat="46.82175" lon="-0.42211">
        <ele>152.1</ele>
        <time>2024-06-24T15:47:54.852Z</time>
      </trkpt>
      <trkpt lat="46.8217" lon="-0.42211">
        <ele>152.16</ele>
        <time>2024-06-24T15:47:56.313Z</time>
      </trkpt>
      <trkpt lat="46.82165" lon="-0.4221">
        <ele>152.23</ele>
        <time>2024-06-24T15:47:57.775Z</time>
      </trkpt>
      <trkpt lat="46.82159" lon="-0.42209">
        <ele>152.31</ele>
        <time>2024-06-24T15:47:59.238Z</time>
      </trkpt>
      <trkpt lat="46.82153" lon="-0.42208">
        <ele>152.39</ele>
        <time>2024-06-24T15:48:00.702Z</time>
      </trkpt>
      <trkpt lat="46.82148" lon="-0.42206">
        <ele>152.48</ele>
        <time>2024-06-24T15:48:02.167Z</time>
      </trkpt>
      <trkpt lat="46.82144" lon="-0.42202">
        <ele>152.58</ele>
        <time>2024-06-24T15:48:03.633Z</time>
      </trkpt>
      <trkpt lat="46.8214" lon="-0.42196">
        <ele>152.68</ele>
        <time>2024-06-24T15:48:05.100Z</time>
      </trkpt>
      <trkpt lat="46.82139" lon="-0.4219">
        <ele>152.78</ele>
        <time>2024-06-24T15:48:06.568Z</time>
      </trkpt>
      <trkpt lat="46.82138" lon="-0.42185">
        <ele>152.88</ele>
        <time>2024-06-24T15:48:08.037Z</time>
      </trkpt>
      <trkpt lat="46.82138" lon="-0.42178">
        <ele>153</ele>
        <time>2024-06-24T15:48:09.507Z</time>
      </trkpt>
      <trkpt lat="46.82138" lon="-0.42172">
        <ele>153.11</ele>
        <time>2024-06-24T15:48:10.978Z</time>
      </trkpt>
      <trkpt lat="46.82139" lon="-0.42166">
        <ele>153.22</ele>
        <time>2024-06-24T15:48:12.450Z</time>
      </trkpt>
      <trkpt lat="46.82139" lon="-0.42159">
        <ele>153.34</ele>
        <time>2024-06-24T15:48:13.923Z</time>
      </trkpt>
      <trkpt lat="46.82139" lon="-0.42151">
        <ele>153.46</ele>
        <time>2024-06-24T15:48:15.397Z</time>
      </trkpt>
      <trkpt lat="46.8214" lon="-0.42144">
        <ele>153.58</ele>
        <time>2024-06-24T15:48:16.872Z</time>
      </trkpt>
      <trkpt lat="46.8214" lon="-0.42138">
        <ele>153.71</ele>
        <time>2024-06-24T15:48:18.348Z</time>
      </trkpt>
      <trkpt lat="46.82141" lon="-0.4213">
        <ele>153.84</ele>
        <time>2024-06-24T15:48:19.825Z</time>
      </trkpt>
      <trkpt lat="46.82142" lon="-0.42122">
        <ele>153.97</ele>
        <time>2024-06-24T15:48:21.303Z</time>
      </trkpt>
      <trkpt lat="46.82142" lon="-0.42114">
        <ele>154.1</ele>
        <time>2024-06-24T15:48:22.782Z</time>
      </trkpt>
      <trkpt lat="46.82143" lon="-0.42106">
        <ele>154.22</ele>
        <time>2024-06-24T15:48:24.262Z</time>
      </trkpt>
      <trkpt lat="46.82144" lon="-0.42099">
        <ele>154.36</ele>
        <time>2024-06-24T15:48:25.743Z</time>
      </trkpt>
      <trkpt lat="46.82145" lon="-0.42092">
        <ele>154.5</ele>
        <time>2024-06-24T15:48:27.225Z</time>
      </trkpt>
      <trkpt lat="46.82147" lon="-0.42084">
        <ele>154.63</ele>
        <time>2024-06-24T15:48:28.708Z</time>
      </trkpt>
      <trkpt lat="46.82149" lon="-0.42078">
        <ele>154.77</ele>
        <time>2024-06-24T15:48:30.192Z</time>
      </trkpt>
      <trkpt lat="46.82151" lon="-0.42071">
        <ele>154.91</ele>
        <time>2024-06-24T15:48:31.677Z</time>
      </trkpt>
      <trkpt lat="46.82153" lon="-0.42064">
        <ele>155.04</ele>
        <time>2024-06-24T15:48:33.163Z</time>
      </trkpt>
      <trkpt lat="46.82155" lon="-0.42058">
        <ele>155.18</ele>
        <time>2024-06-24T15:48:34.650Z</time>
      </trkpt>
      <trkpt lat="46.82156" lon="-0.42052">
        <ele>155.32</ele>
        <time>2024-06-24T15:48:36.138Z</time>
      </trkpt>
      <trkpt lat="46.82158" lon="-0.42045">
        <ele>155.46</ele>
        <time>2024-06-24T15:48:37.627Z</time>
      </trkpt>
      <trkpt lat="46.8216" lon="-0.42039">
        <ele>155.6</ele>
        <time>2024-06-24T15:48:39.117Z</time>
      </trkpt>
      <trkpt lat="46.82161" lon="-0.42033">
        <ele>155.74</ele>
        <time>2024-06-24T15:48:40.608Z</time>
      </trkpt>
      <trkpt lat="46.82161" lon="-0.42026">
        <ele>155.88</ele>
        <time>2024-06-24T15:48:42.100Z</time>
      </trkpt>
      <trkpt lat="46.82161" lon="-0.4202">
        <ele>156.02</ele>
        <time>2024-06-24T15:48:43.592Z</time>
      </trkpt>
      <trkpt lat="46.8216" lon="-0.42014">
        <ele>156.15</ele>
        <time>2024-06-24T15:48:45.085Z</time>
      </trkpt>
      <trkpt lat="46.82158" lon="-0.42007">
        <ele>156.28</ele>
        <time>2024-06-24T15:48:46.579Z</time>
      </trkpt>
      <trkpt lat="46.82157" lon="-0.42001">
        <ele>156.41</ele>
        <time>2024-06-24T15:48:48.074Z</time>
      </trkpt>
      <trkpt lat="46.82156" lon="-0.41995">
        <ele>156.55</ele>
        <time>2024-06-24T15:48:49.570Z</time>
      </trkpt>
      <trkpt lat="46.82154" lon="-0.41989">
        <ele>156.68</ele>
        <time>2024-06-24T15:48:51.067Z</time>
      </trkpt>
      <trkpt lat="46.82153" lon="-0.41984">
        <ele>156.8</ele>
        <time>2024-06-24T15:48:52.565Z</time>
      </trkpt>
      <trkpt lat="46.82152" lon="-0.41979">
        <ele>156.93</ele>
        <time>2024-06-24T15:48:54.063Z</time>
      </trkpt>
      <trkpt lat="46.82151" lon="-0.41975">
        <ele>157.05</ele>
        <time>2024-06-24T15:48:55.562Z</time>
      </trkpt>
      <trkpt lat="46.8215" lon="-0.41969">
        <ele>157.17</ele>
        <time>2024-06-24T15:48:57.062Z</time>
      </trkpt>
      <trkpt lat="46.8215" lon="-0.41963">
        <ele>157.29</ele>
        <time>2024-06-24T15:48:58.562Z</time>
      </trkpt>
      <trkpt lat="46.8215" lon="-0.41958">
        <ele>157.4</ele>
        <time>2024-06-24T15:49:00.063Z</time>
      </trkpt>
      <trkpt lat="46.82151" lon="-0.41952">
        <ele>157.51</ele>
        <time>2024-06-24T15:49:01.565Z</time>
      </trkpt>
      <trkpt lat="46.82152" lon="-0.41946">
        <ele>157.61</ele>
        <time>2024-06-24T15:49:03.068Z</time>
      </trkpt>
      <trkpt lat="46.82153" lon="-0.41941">
        <ele>157.71</ele>
        <time>2024-06-24T15:49:04.572Z</time>
      </trkpt>
      <trkpt lat="46.82155" lon="-0.41935">
        <ele>157.8</ele>
        <time>2024-06-24T15:49:06.076Z</time>
      </trkpt>
      <trkpt lat="46.82156" lon="-0.4193">
        <ele>157.89</ele>
        <time>2024-06-24T15:49:07.581Z</time>
      </trkpt>
      <trkpt lat="46.82158" lon="-0.41925">
        <ele>157.97</ele>
        <time>2024-06-24T15:49:09.087Z</time>
      </trkpt>
      <trkpt lat="46.8216" lon="-0.41919">
        <ele>158.04</ele>
        <time>2024-06-24T15:49:10.594Z</time>
      </trkpt>
      <trkpt lat="46.82162" lon="-0.41914">
        <ele>158.11</ele>
        <time>2024-06-24T15:49:12.102Z</time>
      </trkpt>
      <trkpt lat="46.82164" lon="-0.41908">
        <ele>158.17</ele>
        <time>2024-06-24T15:49:13.611Z</time>
      </trkpt>
      <trkpt lat="46.82165" lon="-0.41902">
        <ele>158.23</ele>
        <time>2024-06-24T15:49:15.120Z</time>
      </trkpt>
      <trkpt lat="46.82165" lon="-0.41896">
        <ele>158.28</ele>
        <time>2024-06-24T15:49:16.630Z</time>
      </trkpt>
      <trkpt lat="46.82164" lon="-0.41892">
        <ele>158.33</ele>
        <time>2024-06-24T15:49:18.141Z</time>
      </trkpt>
      <trkpt lat="46.82163" lon="-0.41887">
        <ele>158.37</ele>
        <time>2024-06-24T15:49:19.653Z</time>
      </trkpt>
      <trkpt lat="46.8216" lon="-0.41883">
        <ele>158.4</ele>
        <time>2024-06-24T15:49:21.165Z</time>
      </trkpt>
      <trkpt lat="46.82158" lon="-0.41877">
        <ele>158.42</ele>
        <time>2024-06-24T15:49:22.678Z</time>
      </trkpt>
      <trkpt lat="46.82155" lon="-0.41872">
        <ele>158.44</ele>
        <time>2024-06-24T15:49:24.192Z</time>
      </trkpt>
      <trkpt lat="46.82152" lon="-0.41866">
        <ele>158.44</ele>
        <time>2024-06-24T15:49:25.707Z</time>
      </trkpt>
      <trkpt lat="46.8215" lon="-0.41861">
        <ele>158.45</ele>
        <time>2024-06-24T15:49:27.223Z</time>
      </trkpt>
      <trkpt lat="46.82147" lon="-0.41855">
        <ele>158.44</ele>
        <time>2024-06-24T15:49:28.740Z</time>
      </trkpt>
      <trkpt lat="46.82145" lon="-0.41849">
        <ele>158.43</ele>
        <time>2024-06-24T15:49:30.258Z</time>
      </trkpt>
      <trkpt lat="46.82144" lon="-0.41842">
        <ele>158.41</ele>
        <time>2024-06-24T15:49:31.777Z</time>
      </trkpt>
      <trkpt lat="46.82145" lon="-0.41834">
        <ele>158.38</ele>
        <time>2024-06-24T15:49:33.297Z</time>
      </trkpt>
      <trkpt lat="46.82148" lon="-0.41828">
        <ele>158.34</ele>
        <time>2024-06-24T15:49:34.818Z</time>
      </trkpt>
      <trkpt lat="46.82152" lon="-0.41823">
        <ele>158.3</ele>
        <time>2024-06-24T15:49:36.340Z</time>
      </trkpt>
      <trkpt lat="46.82156" lon="-0.41819">
        <ele>158.25</ele>
        <time>2024-06-24T15:49:37.863Z</time>
      </trkpt>
      <trkpt lat="46.8216" lon="-0.41814">
        <ele>158.19</ele>
        <time>2024-06-24T15:49:39.387Z</time>
      </trkpt>
      <trkpt lat="46.82164" lon="-0.4181">
        <ele>158.13</ele>
        <time>2024-06-24T15:49:40.912Z</time>
      </trkpt>
      <trkpt lat="46.82169" lon="-0.41806">
        <ele>158.06</ele>
        <time>2024-06-24T15:49:42.438Z</time>
      </trkpt>
      <trkpt lat="46.82173" lon="-0.41801">
        <ele>157.98</ele>
        <time>2024-06-24T15:49:43.965Z</time>
      </trkpt>
      <trkpt lat="46.82178" lon="-0.41797">
        <ele>157.89</ele>
        <time>2024-06-24T15:49:45.493Z</time>
      </trkpt>
      <trkpt lat="46.82182" lon="-0.41793">
        <ele>157.79</ele>
        <time>2024-06-24T15:49:47.022Z</time>
      </trkpt>
      <trkpt lat="46.82187" lon="-0.41788">
        <ele>157.69</ele>
        <time>2024-06-24T15:49:48.553Z</time>
      </trkpt>
      <trkpt lat="46.82191" lon="-0.41784">
        <ele>157.57</ele>
        <time>2024-06-24T15:49:50.085Z</time>
      </trkpt>
      <trkpt lat="46.82195" lon="-0.41778">
        <ele>157.46</ele>
        <time>2024-06-24T15:49:51.618Z</time>
      </trkpt>
      <trkpt lat="46.82199" lon="-0.41772">
        <ele>157.33</ele>
        <time>2024-06-24T15:49:53.152Z</time>
      </trkpt>
      <trkpt lat="46.82203" lon="-0.41766">
        <ele>157.2</ele>
        <time>2024-06-24T15:49:54.687Z</time>
      </trkpt>
      <trkpt lat="46.82206" lon="-0.4176">
        <ele>157.07</ele>
        <time>2024-06-24T15:49:56.223Z</time>
      </trkpt>
      <trkpt lat="46.82209" lon="-0.41754">
        <ele>156.92</ele>
        <time>2024-06-24T15:49:57.760Z</time>
      </trkpt>
      <trkpt lat="46.82212" lon="-0.41747">
        <ele>156.78</ele>
        <time>2024-06-24T15:49:59.298Z</time>
      </trkpt>
      <trkpt lat="46.82215" lon="-0.41741">
        <ele>156.62</ele>
        <time>2024-06-24T15:50:00.837Z</time>
      </trkpt>
      <trkpt lat="46.82217" lon="-0.41734">
        <ele>156.47</ele>
        <time>2024-06-24T15:50:02.377Z</time>
      </trkpt>
      <trkpt lat="46.82219" lon="-0.41727">
        <ele>156.3</ele>
        <time>2024-06-24T15:50:03.918Z</time>
      </trkpt>
      <trkpt lat="46.82222" lon="-0.4172">
        <ele>156.13</ele>
        <time>2024-06-24T15:50:05.460Z</time>
      </trkpt>
      <trkpt lat="46.82224" lon="-0.41713">
        <ele>155.96</ele>
        <time>2024-06-24T15:50:07.003Z</time>
      </trkpt>
      <trkpt lat="46.82225" lon="-0.41705">
        <ele>155.77</ele>
        <time>2024-06-24T15:50:08.548Z</time>
      </trkpt>
      <trkpt lat="46.82227" lon="-0.41698">
        <ele>155.59</ele>
        <time>2024-06-24T15:50:10.094Z</time>
      </trkpt>
      <trkpt lat="46.82228" lon="-0.41689">
        <ele>155.4</ele>
        <time>2024-06-24T15:50:11.641Z</time>
      </trkpt>
      <trkpt lat="46.8223" lon="-0.41681">
        <ele>155.21</ele>
        <time>2024-06-24T15:50:13.189Z</time>
      </trkpt>
      <trkpt lat="46.82231" lon="-0.41671">
        <ele>155.02</ele>
        <time>2024-06-24T15:50:14.738Z</time>
      </trkpt>
      <trkpt lat="46.82233" lon="-0.41662">
        <ele>154.82</ele>
        <time>2024-06-24T15:50:16.289Z</time>
      </trkpt>
      <trkpt lat="46.82234" lon="-0.41653">
        <ele>154.61</ele>
        <time>2024-06-24T15:50:17.841Z</time>
      </trkpt>
      <trkpt lat="46.82236" lon="-0.41644">
        <ele>154.4</ele>
        <time>2024-06-24T15:50:19.394Z</time>
      </trkpt>
      <trkpt lat="46.82237" lon="-0.41634">
        <ele>154.19</ele>
        <time>2024-06-24T15:50:20.949Z</time>
      </trkpt>
      <trkpt lat="46.82239" lon="-0.41625">
        <ele>153.98</ele>
        <time>2024-06-24T15:50:22.505Z</time>
      </trkpt>
      <trkpt lat="46.8224" lon="-0.41616">
        <ele>153.77</ele>
        <time>2024-06-24T15:50:24.062Z</time>
      </trkpt>
      <trkpt lat="46.82242" lon="-0.41606">
        <ele>153.56</ele>
        <time>2024-06-24T15:50:25.621Z</time>
      </trkpt>
      <trkpt lat="46.82243" lon="-0.41596">
        <ele>153.35</ele>
        <time>2024-06-24T15:50:27.181Z</time>
      </trkpt>
      <trkpt lat="46.82244" lon="-0.41587">
        <ele>153.14</ele>
        <time>2024-06-24T15:50:28.742Z</time>
      </trkpt>
      <trkpt lat="46.82245" lon="-0.41577">
        <ele>152.92</ele>
        <time>2024-06-24T15:50:30.305Z</time>
      </trkpt>
      <trkpt lat="46.82246" lon="-0.41568">
        <ele>152.71</ele>
        <time>2024-06-24T15:50:31.869Z</time>
      </trkpt>
      <trkpt lat="46.82247" lon="-0.41558">
        <ele>152.5</ele>
        <time>2024-06-24T15:50:33.434Z</time>
      </trkpt>
      <trkpt lat="46.82248" lon="-0.41549">
        <ele>152.3</ele>
        <time>2024-06-24T15:50:35.001Z</time>
      </trkpt>
      <trkpt lat="46.8225" lon="-0.4154">
        <ele>152.1</ele>
        <time>2024-06-24T15:50:36.569Z</time>
      </trkpt>
      <trkpt lat="46.82251" lon="-0.4153">
        <ele>151.9</ele>
        <time>2024-06-24T15:50:38.138Z</time>
      </trkpt>
      <trkpt lat="46.82252" lon="-0.41522">
        <ele>151.7</ele>
        <time>2024-06-24T15:50:39.708Z</time>
      </trkpt>
      <trkpt lat="46.82254" lon="-0.41513">
        <ele>151.5</ele>
        <time>2024-06-24T15:50:41.280Z</time>
      </trkpt>
      <trkpt lat="46.82256" lon="-0.41505">
        <ele>151.31</ele>
        <time>2024-06-24T15:50:42.853Z</time>
      </trkpt>
      <trkpt lat="46.82258" lon="-0.41497">
        <ele>151.12</ele>
        <time>2024-06-24T15:50:44.427Z</time>
      </trkpt>
      <trkpt lat="46.8226" lon="-0.41489">
        <ele>150.93</ele>
        <time>2024-06-24T15:50:46.002Z</time>
      </trkpt>
      <trkpt lat="46.82262" lon="-0.41481">
        <ele>150.74</ele>
        <time>2024-06-24T15:50:47.578Z</time>
      </trkpt>
      <trkpt lat="46.82265" lon="-0.41473">
        <ele>150.56</ele>
        <time>2024-06-24T15:50:49.155Z</time>
      </trkpt>
      <trkpt lat="46.82267" lon="-0.41466">
        <ele>150.37</ele>
        <time>2024-06-24T15:50:50.734Z</time>
      </trkpt>
      <trkpt lat="46.82269" lon="-0.41457">
        <ele>150.19</ele>
        <time>2024-06-24T15:50:52.314Z</time>
      </trkpt>
      <trkpt lat="46.82272" lon="-0.4145">
        <ele>150</ele>
        <time>2024-06-24T15:50:53.895Z</time>
      </trkpt>
      <trkpt lat="46.82274" lon="-0.41443">
        <ele>149.83</ele>
        <time>2024-06-24T15:50:55.477Z</time>
      </trkpt>
      <trkpt lat="46.82276" lon="-0.41436">
        <ele>149.65</ele>
        <time>2024-06-24T15:50:57.060Z</time>
      </trkpt>
      <trkpt lat="46.82278" lon="-0.4143">
        <ele>149.48</ele>
        <time>2024-06-24T15:50:58.644Z</time>
      </trkpt>
      <trkpt lat="46.8228" lon="-0.41424">
        <ele>149.31</ele>
        <time>2024-06-24T15:51:00.229Z</time>
      </trkpt>
      <trkpt lat="46.82282" lon="-0.41421">
        <ele>149.15</ele>
        <time>2024-06-24T15:51:01.814Z</time>
      </trkpt>
      <trkpt lat="46.82283" lon="-0.41418">
        <ele>148.99</ele>
        <time>2024-06-24T15:51:03.400Z</time>
      </trkpt>
      <trkpt lat="46.82284" lon="-0.41416">
        <ele>148.83</ele>
        <time>2024-06-24T15:51:04.986Z</time>
      </trkpt>
      <trkpt lat="46.82285" lon="-0.41413">
        <ele>148.68</ele>
        <time>2024-06-24T15:51:06.573Z</time>
      </trkpt>
      <trkpt lat="46.82287" lon="-0.4141">
        <ele>148.54</ele>
        <time>2024-06-24T15:51:08.160Z</time>
      </trkpt>
      <trkpt lat="46.82289" lon="-0.41407">
        <ele>148.39</ele>
        <time>2024-06-24T15:51:09.748Z</time>
      </trkpt>
      <trkpt lat="46.82291" lon="-0.41405">
        <ele>148.26</ele>
        <time>2024-06-24T15:51:11.336Z</time>
      </trkpt>
      <trkpt lat="46.82294" lon="-0.41402">
        <ele>148.12</ele>
        <time>2024-06-24T15:51:12.925Z</time>
      </trkpt>
      <trkpt lat="46.82298" lon="-0.41399">
        <ele>147.99</ele>
        <time>2024-06-24T15:51:14.515Z</time>
      </trkpt>
      <trkpt lat="46.82302" lon="-0.41395">
        <ele>147.86</ele>
        <time>2024-06-24T15:51:16.106Z</time>
      </trkpt>
      <trkpt lat="46.82305" lon="-0.41391">
        <ele>147.73</ele>
        <time>2024-06-24T15:51:17.698Z</time>
      </trkpt>
      <trkpt lat="46.82309" lon="-0.41387">
        <ele>147.61</ele>
        <time>2024-06-24T15:51:19.291Z</time>
      </trkpt>
      <trkpt lat="46.82312" lon="-0.41382">
        <ele>147.49</ele>
        <time>2024-06-24T15:51:20.885Z</time>
      </trkpt>
      <trkpt lat="46.82316" lon="-0.41378">
        <ele>147.37</ele>
        <time>2024-06-24T15:51:22.480Z</time>
      </trkpt>
      <trkpt lat="46.8232" lon="-0.41374">
        <ele>147.26</ele>
        <time>2024-06-24T15:51:24.076Z</time>
      </trkpt>
      <trkpt lat="46.82325" lon="-0.4137">
        <ele>147.15</ele>
        <time>2024-06-24T15:51:25.673Z</time>
      </trkpt>
      <trkpt lat="46.82329" lon="-0.41367">
        <ele>147.05</ele>
        <time>2024-06-24T15:51:27.271Z</time>
      </trkpt>
      <trkpt lat="46.82334" lon="-0.41364">
        <ele>146.94</ele>
        <time>2024-06-24T15:51:28.870Z</time>
      </trkpt>
      <trkpt lat="46.82339" lon="-0.4136">
        <ele>146.85</ele>
        <time>2024-06-24T15:51:30.470Z</time>
      </trkpt>
      <trkpt lat="46.82343" lon="-0.41357">
        <ele>146.75</ele>
        <time>2024-06-24T15:51:32.071Z</time>
      </trkpt>
      <trkpt lat="46.82348" lon="-0.41353">
        <ele>146.65</ele>
        <time>2024-06-24T15:51:33.673Z</time>
      </trkpt>
      <trkpt lat="46.82353" lon="-0.41349">
        <ele>146.55</ele>
        <time>2024-06-24T15:51:35.276Z</time>
      </trkpt>
      <trkpt lat="46.82358" lon="-0.41344">
        <ele>146.46</ele>
        <time>2024-06-24T15:51:36.880Z</time>
      </trkpt>
      <trkpt lat="46.82363" lon="-0.4134">
        <ele>146.37</ele>
        <time>2024-06-24T15:51:38.485Z</time>
      </trkpt>
      <trkpt lat="46.82367" lon="-0.41336">
        <ele>146.28</ele>
        <time>2024-06-24T15:51:40.091Z</time>
      </trkpt>
      <trkpt lat="46.82372" lon="-0.41332">
        <ele>146.2</ele>
        <time>2024-06-24T15:51:41.699Z</time>
      </trkpt>
      <trkpt lat="46.82377" lon="-0.41328">
        <ele>146.11</ele>
        <time>2024-06-24T15:51:43.308Z</time>
      </trkpt>
      <trkpt lat="46.82382" lon="-0.41324">
        <ele>146.03</ele>
        <time>2024-06-24T15:51:44.918Z</time>
      </trkpt>
      <trkpt lat="46.82387" lon="-0.4132">
        <ele>145.95</ele>
        <time>2024-06-24T15:51:46.529Z</time>
      </trkpt>
      <trkpt lat="46.82392" lon="-0.41316">
        <ele>145.87</ele>
        <time>2024-06-24T15:51:48.141Z</time>
      </trkpt>
      <trkpt lat="46.82397" lon="-0.41312">
        <ele>145.79</ele>
        <time>2024-06-24T15:51:49.754Z</time>
      </trkpt>
      <trkpt lat="46.82401" lon="-0.41308">
        <ele>145.73</ele>
        <time>2024-06-24T15:51:51.368Z</time>
      </trkpt>
      <trkpt lat="46.82406" lon="-0.41304">
        <ele>145.66</ele>
        <time>2024-06-24T15:51:52.983Z</time>
      </trkpt>
      <trkpt lat="46.82411" lon="-0.41299">
        <ele>145.6</ele>
        <time>2024-06-24T15:51:54.599Z</time>
      </trkpt>
      <trkpt lat="46.82416" lon="-0.41295">
        <ele>145.53</ele>
        <time>2024-06-24T15:51:56.217Z</time>
      </trkpt>
      <trkpt lat="46.82421" lon="-0.4129">
        <ele>145.47</ele>
        <time>2024-06-24T15:51:57.836Z</time>
      </trkpt>
      <trkpt lat="46.82425" lon="-0.41287">
        <ele>145.41</ele>
        <time>2024-06-24T15:51:59.456Z</time>
      </trkpt>
      <trkpt lat="46.8243" lon="-0.41283">
        <ele>145.35</ele>
        <time>2024-06-24T15:52:01.077Z</time>
      </trkpt>
      <trkpt lat="46.82436" lon="-0.4128">
        <ele>145.29</ele>
        <time>2024-06-24T15:52:02.699Z</time>
      </trkpt>
      <trkpt lat="46.82441" lon="-0.41276">
        <ele>145.23</ele>
        <time>2024-06-24T15:52:04.322Z</time>
      </trkpt>
      <trkpt lat="46.82445" lon="-0.41273">
        <ele>145.18</ele>
        <time>2024-06-24T15:52:05.946Z</time>
      </trkpt>
      <trkpt lat="46.8245" lon="-0.41269">
        <ele>145.12</ele>
        <time>2024-06-24T15:52:07.571Z</time>
      </trkpt>
      <trkpt lat="46.82455" lon="-0.41266">
        <ele>145.07</ele>
        <time>2024-06-24T15:52:09.197Z</time>
      </trkpt>
      <trkpt lat="46.8246" lon="-0.41263">
        <ele>145.01</ele>
        <time>2024-06-24T15:52:10.824Z</time>
      </trkpt>
      <trkpt lat="46.82465" lon="-0.41259">
        <ele>144.95</ele>
        <time>2024-06-24T15:52:12.453Z</time>
      </trkpt>
      <trkpt lat="46.82469" lon="-0.41256">
        <ele>144.89</ele>
        <time>2024-06-24T15:52:14.083Z</time>
      </trkpt>
      <trkpt lat="46.82474" lon="-0.41253">
        <ele>144.83</ele>
        <time>2024-06-24T15:52:15.714Z</time>
      </trkpt>
      <trkpt lat="46.8248" lon="-0.4125">
        <ele>144.77</ele>
        <time>2024-06-24T15:52:17.346Z</time>
      </trkpt>
      <trkpt lat="46.82485" lon="-0.41247">
        <ele>144.72</ele>
        <time>2024-06-24T15:52:18.979Z</time>
      </trkpt>
      <trkpt lat="46.8249" lon="-0.41244">
        <ele>144.67</ele>
        <time>2024-06-24T15:52:20.613Z</time>
      </trkpt>
      <trkpt lat="46.82495" lon="-0.4124">
        <ele>144.62</ele>
        <time>2024-06-24T15:52:22.248Z</time>
      </trkpt>
      <trkpt lat="46.825" lon="-0.41237">
        <ele>144.57</ele>
        <time>2024-06-24T15:52:23.884Z</time>
      </trkpt>
      <trkpt lat="46.82505" lon="-0.41233">
        <ele>144.53</ele>
        <time>2024-06-24T15:52:25.521Z</time>
      </trkpt>
      <trkpt lat="46.8251" lon="-0.4123">
        <ele>144.48</ele>
        <time>2024-06-24T15:52:27.160Z</time>
      </trkpt>
      <trkpt lat="46.82515" lon="-0.41226">
        <ele>144.43</ele>
        <time>2024-06-24T15:52:28.800Z</time>
      </trkpt>
      <trkpt lat="46.8252" lon="-0.41222">
        <ele>144.39</ele>
        <time>2024-06-24T15:52:30.441Z</time>
      </trkpt>
      <trkpt lat="46.82524" lon="-0.41218">
        <ele>144.34</ele>
        <time>2024-06-24T15:52:32.083Z</time>
      </trkpt>
      <trkpt lat="46.82529" lon="-0.41216">
        <ele>144.3</ele>
        <time>2024-06-24T15:52:33.726Z</time>
      </trkpt>
      <trkpt lat="46.82534" lon="-0.41213">
        <ele>144.25</ele>
        <time>2024-06-24T15:52:35.370Z</time>
      </trkpt>
      <trkpt lat="46.82539" lon="-0.41209">
        <ele>144.21</ele>
        <time>2024-06-24T15:52:37.015Z</time>
      </trkpt>
      <trkpt lat="46.82544" lon="-0.41205">
        <ele>144.17</ele>
        <time>2024-06-24T15:52:38.661Z</time>
      </trkpt>
      <trkpt lat="46.8255" lon="-0.41201">
        <ele>144.13</ele>
        <time>2024-06-24T15:52:40.308Z</time>
      </trkpt>
      <trkpt lat="46.82555" lon="-0.41197">
        <ele>144.09</ele>
        <time>2024-06-24T15:52:41.957Z</time>
      </trkpt>
      <trkpt lat="46.8256" lon="-0.41193">
        <ele>144.05</ele>
        <time>2024-06-24T15:52:43.607Z</time>
      </trkpt>
      <trkpt lat="46.82566" lon="-0.41189">
        <ele>144</ele>
        <time>2024-06-24T15:52:45.258Z</time>
      </trkpt>
      <trkpt lat="46.82572" lon="-0.41186">
        <ele>143.95</ele>
        <time>2024-06-24T15:52:46.910Z</time>
      </trkpt>
      <trkpt lat="46.82578" lon="-0.41183">
        <ele>143.9</ele>
        <time>2024-06-24T15:52:48.564Z</time>
      </trkpt>
      <trkpt lat="46.82584" lon="-0.4118">
        <ele>143.86</ele>
        <time>2024-06-24T15:52:50.219Z</time>
      </trkpt>
      <trkpt lat="46.82589" lon="-0.41176">
        <ele>143.81</ele>
        <time>2024-06-24T15:52:51.875Z</time>
      </trkpt>
      <trkpt lat="46.82595" lon="-0.41172">
        <ele>143.76</ele>
        <time>2024-06-24T15:52:53.532Z</time>
      </trkpt>
      <trkpt lat="46.82601" lon="-0.41169">
        <ele>143.71</ele>
        <time>2024-06-24T15:52:55.191Z</time>
      </trkpt>
      <trkpt lat="46.82608" lon="-0.41165">
        <ele>143.66</ele>
        <time>2024-06-24T15:52:56.851Z</time>
      </trkpt>
      <trkpt lat="46.82614" lon="-0.41162">
        <ele>143.61</ele>
        <time>2024-06-24T15:52:58.512Z</time>
      </trkpt>
      <trkpt lat="46.8262" lon="-0.41159">
        <ele>143.56</ele>
        <time>2024-06-24T15:53:00.175Z</time>
      </trkpt>
      <trkpt lat="46.82626" lon="-0.41156">
        <ele>143.52</ele>
        <time>2024-06-24T15:53:01.839Z</time>
      </trkpt>
      <trkpt lat="46.82632" lon="-0.41152">
        <ele>143.48</ele>
        <time>2024-06-24T15:53:03.504Z</time>
      </trkpt>
      <trkpt lat="46.82638" lon="-0.41148">
        <ele>143.45</ele>
        <time>2024-06-24T15:53:05.171Z</time>
      </trkpt>
      <trkpt lat="46.82645" lon="-0.41145">
        <ele>143.42</ele>
        <time>2024-06-24T15:53:06.839Z</time>
      </trkpt>
      <trkpt lat="46.82651" lon="-0.41141">
        <ele>143.39</ele>
        <time>2024-06-24T15:53:08.508Z</time>
      </trkpt>
      <trkpt lat="46.82658" lon="-0.41138">
        <ele>143.37</ele>
        <time>2024-06-24T15:53:10.179Z</time>
      </trkpt>
      <trkpt lat="46.82664" lon="-0.41135">
        <ele>143.35</ele>
        <time>2024-06-24T15:53:11.851Z</time>
      </trkpt>
      <trkpt lat="46.8267" lon="-0.41131">
        <ele>143.33</ele>
        <time>2024-06-24T15:53:13.524Z</time>
      </trkpt>
      <trkpt lat="46.82676" lon="-0.41129">
        <ele>143.31</ele>
        <time>2024-06-24T15:53:15.199Z</time>
      </trkpt>
      <trkpt lat="46.82682" lon="-0.41126">
        <ele>143.29</ele>
        <time>2024-06-24T15:53:16.875Z</time>
      </trkpt>
      <trkpt lat="46.82687" lon="-0.41123">
        <ele>143.28</ele>
        <time>2024-06-24T15:53:18.552Z</time>
      </trkpt>
      <trkpt lat="46.82692" lon="-0.4112">
        <ele>143.27</ele>
        <time>2024-06-24T15:53:20.230Z</time>
      </trkpt>
      <trkpt lat="46.82698" lon="-0.41118">
        <ele>143.26</ele>
        <time>2024-06-24T15:53:21.909Z</time>
      </trkpt>
      <trkpt lat="46.82704" lon="-0.41115">
        <ele>143.25</ele>
        <time>2024-06-24T15:53:23.589Z</time>
      </trkpt>
      <trkpt lat="46.82709" lon="-0.41112">
        <ele>143.25</ele>
        <time>2024-06-24T15:53:25.271Z</time>
      </trkpt>
      <trkpt lat="46.82714" lon="-0.41109">
        <ele>143.24</ele>
        <time>2024-06-24T15:53:26.954Z</time>
      </trkpt>
      <trkpt lat="46.8272" lon="-0.41105">
        <ele>143.24</ele>
        <time>2024-06-24T15:53:28.638Z</time>
      </trkpt>
      <trkpt lat="46.82724" lon="-0.411">
        <ele>143.25</ele>
        <time>2024-06-24T15:53:30.323Z</time>
      </trkpt>
      <trkpt lat="46.82727" lon="-0.41092">
        <ele>143.25</ele>
        <time>2024-06-24T15:53:32.009Z</time>
      </trkpt>
      <trkpt lat="46.82729" lon="-0.41084">
        <ele>143.27</ele>
        <time>2024-06-24T15:53:33.696Z</time>
      </trkpt>
      <trkpt lat="46.82731" lon="-0.41076">
        <ele>143.29</ele>
        <time>2024-06-24T15:53:35.385Z</time>
      </trkpt>
      <trkpt lat="46.82734" lon="-0.41069">
        <ele>143.31</ele>
        <time>2024-06-24T15:53:37.075Z</time>
      </trkpt>
      <trkpt lat="46.82737" lon="-0.41062">
        <ele>143.34</ele>
        <time>2024-06-24T15:53:38.766Z</time>
      </trkpt>
      <trkpt lat="46.8274" lon="-0.41056">
        <ele>143.38</ele>
        <time>2024-06-24T15:53:40.458Z</time>
      </trkpt>
      <trkpt lat="46.82742" lon="-0.41049">
        <ele>143.42</ele>
        <time>2024-06-24T15:53:42.151Z</time>
      </trkpt>
      <trkpt lat="46.82745" lon="-0.41042">
        <ele>143.45</ele>
        <time>2024-06-24T15:53:43.845Z</time>
      </trkpt>
      <trkpt lat="46.82747" lon="-0.41035">
        <ele>143.5</ele>
        <time>2024-06-24T15:53:45.540Z</time>
      </trkpt>
      <trkpt lat="46.82749" lon="-0.41029">
        <ele>143.55</ele>
        <time>2024-06-24T15:53:47.236Z</time>
      </trkpt>
      <trkpt lat="46.8275" lon="-0.41022">
        <ele>143.61</ele>
        <time>2024-06-24T15:53:48.933Z</time>
      </trkpt>
      <trkpt lat="46.82751" lon="-0.41016">
        <ele>143.67</ele>
        <time>2024-06-24T15:53:50.631Z</time>
      </trkpt>
      <trkpt lat="46.82753" lon="-0.4101">
        <ele>143.74</ele>
        <time>2024-06-24T15:53:52.330Z</time>
      </trkpt>
      <trkpt lat="46.82755" lon="-0.41005">
        <ele>143.81</ele>
        <time>2024-06-24T15:53:54.030Z</time>
      </trkpt>
      <trkpt lat="46.82756" lon="-0.40998">
        <ele>143.89</ele>
        <time>2024-06-24T15:53:55.731Z</time>
      </trkpt>
      <trkpt lat="46.82758" lon="-0.40992">
        <ele>143.97</ele>
        <time>2024-06-24T15:53:57.432Z</time>
      </trkpt>
      <trkpt lat="46.8276" lon="-0.40985">
        <ele>144.05</ele>
        <time>2024-06-24T15:53:59.134Z</time>
      </trkpt>
      <trkpt lat="46.82761" lon="-0.40978">
        <ele>144.14</ele>
        <time>2024-06-24T15:54:00.837Z</time>
      </trkpt>
      <trkpt lat="46.82763" lon="-0.40972">
        <ele>144.24</ele>
        <time>2024-06-24T15:54:02.541Z</time>
      </trkpt>
      <trkpt lat="46.82765" lon="-0.40966">
        <ele>144.34</ele>
        <time>2024-06-24T15:54:04.246Z</time>
      </trkpt>
      <trkpt lat="46.82767" lon="-0.4096">
        <ele>144.45</ele>
        <time>2024-06-24T15:54:05.952Z</time>
      </trkpt>
      <trkpt lat="46.82768" lon="-0.40953">
        <ele>144.57</ele>
        <time>2024-06-24T15:54:07.659Z</time>
      </trkpt>
      <trkpt lat="46.8277" lon="-0.40946">
        <ele>144.69</ele>
        <time>2024-06-24T15:54:09.367Z</time>
      </trkpt>
      <trkpt lat="46.82771" lon="-0.4094">
        <ele>144.82</ele>
        <time>2024-06-24T15:54:11.076Z</time>
      </trkpt>
      <trkpt lat="46.82773" lon="-0.40934">
        <ele>144.95</ele>
        <time>2024-06-24T15:54:12.786Z</time>
      </trkpt>
      <trkpt lat="46.82774" lon="-0.40927">
        <ele>145.1</ele>
        <time>2024-06-24T15:54:14.497Z</time>
      </trkpt>
      <trkpt lat="46.82775" lon="-0.40919">
        <ele>145.24</ele>
        <time>2024-06-24T15:54:16.209Z</time>
      </trkpt>
      <trkpt lat="46.82776" lon="-0.40913">
        <ele>145.4</ele>
        <time>2024-06-24T15:54:17.922Z</time>
      </trkpt>
      <trkpt lat="46.82777" lon="-0.40906">
        <ele>145.56</ele>
        <time>2024-06-24T15:54:19.636Z</time>
      </trkpt>
      <trkpt lat="46.82778" lon="-0.409">
        <ele>145.73</ele>
        <time>2024-06-24T15:54:21.351Z</time>
      </trkpt>
      <trkpt lat="46.8278" lon="-0.40893">
        <ele>145.9</ele>
        <time>2024-06-24T15:54:23.067Z</time>
      </trkpt>
      <trkpt lat="46.82781" lon="-0.40888">
        <ele>146.07</ele>
        <time>2024-06-24T15:54:24.783Z</time>
      </trkpt>
      <trkpt lat="46.82782" lon="-0.40882">
        <ele>146.24</ele>
        <time>2024-06-24T15:54:26.500Z</time>
      </trkpt>
      <trkpt lat="46.82783" lon="-0.40875">
        <ele>146.43</ele>
        <time>2024-06-24T15:54:28.218Z</time>
      </trkpt>
      <trkpt lat="46.82784" lon="-0.4087">
        <ele>146.61</ele>
        <time>2024-06-24T15:54:29.937Z</time>
      </trkpt>
      <trkpt lat="46.82785" lon="-0.40864">
        <ele>146.79</ele>
        <time>2024-06-24T15:54:31.657Z</time>
      </trkpt>
      <trkpt lat="46.82786" lon="-0.40859">
        <ele>146.98</ele>
        <time>2024-06-24T15:54:33.378Z</time>
      </trkpt>
      <trkpt lat="46.82787" lon="-0.40854">
        <ele>147.16</ele>
        <time>2024-06-24T15:54:35.099Z</time>
      </trkpt>
      <trkpt lat="46.82788" lon="-0.40849">
        <ele>147.35</ele>
        <time>2024-06-24T15:54:36.821Z</time>
      </trkpt>
      <trkpt lat="46.8279" lon="-0.40844">
        <ele>147.54</ele>
        <time>2024-06-24T15:54:38.544Z</time>
      </trkpt>
      <trkpt lat="46.82792" lon="-0.40838">
        <ele>147.73</ele>
        <time>2024-06-24T15:54:40.268Z</time>
      </trkpt>
      <trkpt lat="46.82794" lon="-0.40833">
        <ele>147.92</ele>
        <time>2024-06-24T15:54:41.993Z</time>
      </trkpt>
      <trkpt lat="46.82797" lon="-0.40829">
        <ele>148.11</ele>
        <time>2024-06-24T15:54:43.718Z</time>
      </trkpt>
      <trkpt lat="46.82799" lon="-0.40825">
        <ele>148.31</ele>
        <time>2024-06-24T15:54:45.444Z</time>
      </trkpt>
      <trkpt lat="46.82801" lon="-0.40822">
        <ele>148.5</ele>
        <time>2024-06-24T15:54:47.171Z</time>
      </trkpt>
      <trkpt lat="46.82804" lon="-0.40817">
        <ele>148.69</ele>
        <time>2024-06-24T15:54:48.898Z</time>
      </trkpt>
      <trkpt lat="46.82807" lon="-0.40813">
        <ele>148.88</ele>
        <time>2024-06-24T15:54:50.626Z</time>
      </trkpt>
      <trkpt lat="46.8281" lon="-0.40809">
        <ele>149.08</ele>
        <time>2024-06-24T15:54:52.355Z</time>
      </trkpt>
      <trkpt lat="46.82812" lon="-0.40804">
        <ele>149.27</ele>
        <time>2024-06-24T15:54:54.085Z</time>
      </trkpt>
      <trkpt lat="46.82814" lon="-0.408">
        <ele>149.46</ele>
        <time>2024-06-24T15:54:55.816Z</time>
      </trkpt>
      <trkpt lat="46.82816" lon="-0.40796">
        <ele>149.65</ele>
        <time>2024-06-24T15:54:57.547Z</time>
      </trkpt>
      <trkpt lat="46.82819" lon="-0.40792">
        <ele>149.83</ele>
        <time>2024-06-24T15:54:59.279Z</time>
      </trkpt>
      <trkpt lat="46.82822" lon="-0.40788">
        <ele>150.02</ele>
        <time>2024-06-24T15:55:01.012Z</time>
      </trkpt>
      <trkpt lat="46.82824" lon="-0.40784">
        <ele>150.2</ele>
        <time>2024-06-24T15:55:02.746Z</time>
      </trkpt>
      <trkpt lat="46.82827" lon="-0.40781">
        <ele>150.38</ele>
        <time>2024-06-24T15:55:04.480Z</time>
      </trkpt>
      <trkpt lat="46.8283" lon="-0.40776">
        <ele>150.56</ele>
        <time>2024-06-24T15:55:06.215Z</time>
      </trkpt>
      <trkpt lat="46.82832" lon="-0.40772">
        <ele>150.74</ele>
        <time>2024-06-24T15:55:07.951Z</time>
      </trkpt>
      <trkpt lat="46.82834" lon="-0.40767">
        <ele>150.92</ele>
        <time>2024-06-24T15:55:09.688Z</time>
      </trkpt>
      <trkpt lat="46.82837" lon="-0.40763">
        <ele>151.1</ele>
        <time>2024-06-24T15:55:11.425Z</time>
      </trkpt>
      <trkpt lat="46.8284" lon="-0.40759">
        <ele>151.27</ele>
        <time>2024-06-24T15:55:13.163Z</time>
      </trkpt>
      <trkpt lat="46.82842" lon="-0.40754">
        <ele>151.44</ele>
        <time>2024-06-24T15:55:14.902Z</time>
      </trkpt>
      <trkpt lat="46.82845" lon="-0.40751">
        <ele>151.61</ele>
        <time>2024-06-24T15:55:16.642Z</time>
      </trkpt>
      <trkpt lat="46.82847" lon="-0.40748">
        <ele>151.77</ele>
        <time>2024-06-24T15:55:18.382Z</time>
      </trkpt>
      <trkpt lat="46.82849" lon="-0.40744">
        <ele>151.93</ele>
        <time>2024-06-24T15:55:20.123Z</time>
      </trkpt>
      <trkpt lat="46.82851" lon="-0.4074">
        <ele>152.09</ele>
        <time>2024-06-24T15:55:21.865Z</time>
      </trkpt>
      <trkpt lat="46.82854" lon="-0.40736">
        <ele>152.24</ele>
        <time>2024-06-24T15:55:23.607Z</time>
      </trkpt>
      <trkpt lat="46.82856" lon="-0.40732">
        <ele>152.39</ele>
        <time>2024-06-24T15:55:25.350Z</time>
      </trkpt>
      <trkpt lat="46.82859" lon="-0.40728">
        <ele>152.53</ele>
        <time>2024-06-24T15:55:27.094Z</time>
      </trkpt>
      <trkpt lat="46.82861" lon="-0.40725">
        <ele>152.67</ele>
        <time>2024-06-24T15:55:28.839Z</time>
      </trkpt>
      <trkpt lat="46.82864" lon="-0.4072">
        <ele>152.8</ele>
        <time>2024-06-24T15:55:30.584Z</time>
      </trkpt>
      <trkpt lat="46.82867" lon="-0.40716">
        <ele>152.94</ele>
        <time>2024-06-24T15:55:32.330Z</time>
      </trkpt>
      <trkpt lat="46.82869" lon="-0.40712">
        <ele>153.07</ele>
        <time>2024-06-24T15:55:34.077Z</time>
      </trkpt>
      <trkpt lat="46.82871" lon="-0.40709">
        <ele>153.19</ele>
        <time>2024-06-24T15:55:35.825Z</time>
      </trkpt>
      <trkpt lat="46.82874" lon="-0.40705">
        <ele>153.31</ele>
        <time>2024-06-24T15:55:37.573Z</time>
      </trkpt>
      <trkpt lat="46.82876" lon="-0.40701">
        <ele>153.42</ele>
        <time>2024-06-24T15:55:39.322Z</time>
      </trkpt>
      <trkpt lat="46.82879" lon="-0.40697">
        <ele>153.52</ele>
        <time>2024-06-24T15:55:41.072Z</time>
      </trkpt>
      <trkpt lat="46.82882" lon="-0.40693">
        <ele>153.62</ele>
        <time>2024-06-24T15:55:42.823Z</time>
      </trkpt>
      <trkpt lat="46.82885" lon="-0.40689">
        <ele>153.72</ele>
        <time>2024-06-24T15:55:44.574Z</time>
      </trkpt>
      <trkpt lat="46.82888" lon="-0.40684">
        <ele>153.81</ele>
        <time>2024-06-24T15:55:46.326Z</time>
      </trkpt>
      <trkpt lat="46.8289" lon="-0.4068">
        <ele>153.89</ele>
        <time>2024-06-24T15:55:48.079Z</time>
      </trkpt>
      <trkpt lat="46.82893" lon="-0.40677">
        <ele>153.97</ele>
        <time>2024-06-24T15:55:49.833Z</time>
      </trkpt>
      <trkpt lat="46.82895" lon="-0.40673">
        <ele>154.04</ele>
        <time>2024-06-24T15:55:51.587Z</time>
      </trkpt>
      <trkpt lat="46.82898" lon="-0.40669">
        <ele>154.11</ele>
        <time>2024-06-24T15:55:53.342Z</time>
      </trkpt>
      <trkpt lat="46.829" lon="-0.40665">
        <ele>154.16</ele>
        <time>2024-06-24T15:55:55.098Z</time>
      </trkpt>
      <trkpt lat="46.82903" lon="-0.40661">
        <ele>154.22</ele>
        <time>2024-06-24T15:55:56.855Z</time>
      </trkpt>
      <trkpt lat="46.82905" lon="-0.40657">
        <ele>154.26</ele>
        <time>2024-06-24T15:55:58.612Z</time>
      </trkpt>
      <trkpt lat="46.82908" lon="-0.40652">
        <ele>154.3</ele>
        <time>2024-06-24T15:56:00.370Z</time>
      </trkpt>
      <trkpt lat="46.8291" lon="-0.40648">
        <ele>154.33</ele>
        <time>2024-06-24T15:56:02.129Z</time>
      </trkpt>
      <trkpt lat="46.82912" lon="-0.40645">
        <ele>154.36</ele>
        <time>2024-06-24T15:56:03.889Z</time>
      </trkpt>
      <trkpt lat="46.82915" lon="-0.4064">
        <ele>154.38</ele>
        <time>2024-06-24T15:56:05.649Z</time>
      </trkpt>
      <trkpt lat="46.82918" lon="-0.40636">
        <ele>154.39</ele>
        <time>2024-06-24T15:56:07.410Z</time>
      </trkpt>
      <trkpt lat="46.8292" lon="-0.40632">
        <ele>154.4</ele>
        <time>2024-06-24T15:56:09.172Z</time>
      </trkpt>
      <trkpt lat="46.82923" lon="-0.40628">
        <ele>154.4</ele>
        <time>2024-06-24T15:56:10.935Z</time>
      </trkpt>
      <trkpt lat="46.82925" lon="-0.40624">
        <ele>154.4</ele>
        <time>2024-06-24T15:56:12.698Z</time>
      </trkpt>
      <trkpt lat="46.82927" lon="-0.4062">
        <ele>154.39</ele>
        <time>2024-06-24T15:56:14.462Z</time>
      </trkpt>
      <trkpt lat="46.8293" lon="-0.40615">
        <ele>154.37</ele>
        <time>2024-06-24T15:56:16.227Z</time>
      </trkpt>
      <trkpt lat="46.82933" lon="-0.40611">
        <ele>154.34</ele>
        <time>2024-06-24T15:56:17.993Z</time>
      </trkpt>
      <trkpt lat="46.82936" lon="-0.40606">
        <ele>154.32</ele>
        <time>2024-06-24T15:56:19.760Z</time>
      </trkpt>
      <trkpt lat="46.82938" lon="-0.40601">
        <ele>154.28</ele>
        <time>2024-06-24T15:56:21.528Z</time>
      </trkpt>
      <trkpt lat="46.82941" lon="-0.40596">
        <ele>154.24</ele>
        <time>2024-06-24T15:56:23.296Z</time>
      </trkpt>
      <trkpt lat="46.82944" lon="-0.40592">
        <ele>154.2</ele>
        <time>2024-06-24T15:56:25.065Z</time>
      </trkpt>
      <trkpt lat="46.82947" lon="-0.40588">
        <ele>154.15</ele>
        <time>2024-06-24T15:56:26.835Z</time>
      </trkpt>
      <trkpt lat="46.8295" lon="-0.40585">
        <ele>154.09</ele>
        <time>2024-06-24T15:56:28.606Z</time>
      </trkpt>
      <trkpt lat="46.82953" lon="-0.4058">
        <ele>154.03</ele>
        <time>2024-06-24T15:56:30.378Z</time>
      </trkpt>
      <trkpt lat="46.82955" lon="-0.40575">
        <ele>153.97</ele>
        <time>2024-06-24T15:56:32.150Z</time>
      </trkpt>
      <trkpt lat="46.82958" lon="-0.4057">
        <ele>153.9</ele>
        <time>2024-06-24T15:56:33.923Z</time>
      </trkpt>
      <trkpt lat="46.82961" lon="-0.40566">
        <ele>153.82</ele>
        <time>2024-06-24T15:56:35.697Z</time>
      </trkpt>
      <trkpt lat="46.82965" lon="-0.40562">
        <ele>153.75</ele>
        <time>2024-06-24T15:56:37.472Z</time>
      </trkpt>
      <trkpt lat="46.82967" lon="-0.40558">
        <ele>153.66</ele>
        <time>2024-06-24T15:56:39.248Z</time>
      </trkpt>
      <trkpt lat="46.82971" lon="-0.40553">
        <ele>153.58</ele>
        <time>2024-06-24T15:56:41.025Z</time>
      </trkpt>
      <trkpt lat="46.82974" lon="-0.40548">
        <ele>153.49</ele>
        <time>2024-06-24T15:56:42.803Z</time>
      </trkpt>
      <trkpt lat="46.82977" lon="-0.40544">
        <ele>153.39</ele>
        <time>2024-06-24T15:56:44.582Z</time>
      </trkpt>
      <trkpt lat="46.8298" lon="-0.40539">
        <ele>153.29</ele>
        <time>2024-06-24T15:56:46.361Z</time>
      </trkpt>
      <trkpt lat="46.82983" lon="-0.40534">
        <ele>153.19</ele>
        <time>2024-06-24T15:56:48.141Z</time>
      </trkpt>
      <trkpt lat="46.82987" lon="-0.40529">
        <ele>153.09</ele>
        <time>2024-06-24T15:56:49.922Z</time>
      </trkpt>
      <trkpt lat="46.8299" lon="-0.40523">
        <ele>152.99</ele>
        <time>2024-06-24T15:56:51.704Z</time>
      </trkpt>
      <trkpt lat="46.82994" lon="-0.40517">
        <ele>152.88</ele>
        <time>2024-06-24T15:56:53.488Z</time>
      </trkpt>
      <trkpt lat="46.82998" lon="-0.40512">
        <ele>152.77</ele>
        <time>2024-06-24T15:56:55.273Z</time>
      </trkpt>
      <trkpt lat="46.83002" lon="-0.40507">
        <ele>152.66</ele>
        <time>2024-06-24T15:56:57.059Z</time>
      </trkpt>
      <trkpt lat="46.83005" lon="-0.40501">
        <ele>152.55</ele>
        <time>2024-06-24T15:56:58.846Z</time>
      </trkpt>
      <trkpt lat="46.83009" lon="-0.40495">
        <ele>152.44</ele>
        <time>2024-06-24T15:57:00.634Z</time>
      </trkpt>
      <trkpt lat="46.83013" lon="-0.40489">
        <ele>152.33</ele>
        <time>2024-06-24T15:57:02.423Z</time>
      </trkpt>
      <trkpt lat="46.83017" lon="-0.40482">
        <ele>152.22</ele>
        <time>2024-06-24T15:57:04.213Z</time>
      </trkpt>
      <trkpt lat="46.83021" lon="-0.40475">
        <ele>152.11</ele>
        <time>2024-06-24T15:57:06.005Z</time>
      </trkpt>
      <trkpt lat="46.83025" lon="-0.40468">
        <ele>152</ele>
        <time>2024-06-24T15:57:07.798Z</time>
      </trkpt>
      <trkpt lat="46.83029" lon="-0.40461">
        <ele>151.87</ele>
        <time>2024-06-24T15:57:09.592Z</time>
      </trkpt>
      <trkpt lat="46.83033" lon="-0.40453">
        <ele>151.75</ele>
        <time>2024-06-24T15:57:11.387Z</time>
      </trkpt>
      <trkpt lat="46.83037" lon="-0.40447">
        <ele>151.63</ele>
        <time>2024-06-24T15:57:13.183Z</time>
      </trkpt>
      <trkpt lat="46.8304" lon="-0.4044">
        <ele>151.51</ele>
        <time>2024-06-24T15:57:14.981Z</time>
      </trkpt>
      <trkpt lat="46.83044" lon="-0.40433">
        <ele>151.38</ele>
        <time>2024-06-24T15:57:16.780Z</time>
      </trkpt>
      <trkpt lat="46.83047" lon="-0.40426">
        <ele>151.25</ele>
        <time>2024-06-24T15:57:18.580Z</time>
      </trkpt>
      <trkpt lat="46.8305" lon="-0.4042">
        <ele>151.12</ele>
        <time>2024-06-24T15:57:20.381Z</time>
      </trkpt>
      <trkpt lat="46.83054" lon="-0.40413">
        <ele>150.99</ele>
        <time>2024-06-24T15:57:22.183Z</time>
      </trkpt>
      <trkpt lat="46.83057" lon="-0.40406">
        <ele>150.86</ele>
        <time>2024-06-24T15:57:23.986Z</time>
      </trkpt>
      <trkpt lat="46.83061" lon="-0.404">
        <ele>150.74</ele>
        <time>2024-06-24T15:57:25.791Z</time>
      </trkpt>
      <trkpt lat="46.83065" lon="-0.40393">
        <ele>150.61</ele>
        <time>2024-06-24T15:57:27.597Z</time>
      </trkpt>
      <trkpt lat="46.83069" lon="-0.40385">
        <ele>150.49</ele>
        <time>2024-06-24T15:57:29.404Z</time>
      </trkpt>
      <trkpt lat="46.83073" lon="-0.40378">
        <ele>150.37</ele>
        <time>2024-06-24T15:57:31.212Z</time>
      </trkpt>
      <trkpt lat="46.83077" lon="-0.40372">
        <ele>150.24</ele>
        <time>2024-06-24T15:57:33.022Z</time>
      </trkpt>
      <trkpt lat="46.8308" lon="-0.40365">
        <ele>150.12</ele>
        <time>2024-06-24T15:57:34.833Z</time>
      </trkpt>
      <trkpt lat="46.83085" lon="-0.40359">
        <ele>150</ele>
        <time>2024-06-24T15:57:36.645Z</time>
      </trkpt>
      <trkpt lat="46.83089" lon="-0.40352">
        <ele>149.88</ele>
        <time>2024-06-24T15:57:38.458Z</time>
      </trkpt>
      <trkpt lat="46.83093" lon="-0.40345">
        <ele>149.76</ele>
        <time>2024-06-24T15:57:40.272Z</time>
      </trkpt>
      <trkpt lat="46.83097" lon="-0.40339">
        <ele>149.64</ele>
        <time>2024-06-24T15:57:42.088Z</time>
      </trkpt>
      <trkpt lat="46.83102" lon="-0.40333">
        <ele>149.52</ele>
        <time>2024-06-24T15:57:43.905Z</time>
      </trkpt>
      <trkpt lat="46.83106" lon="-0.40327">
        <ele>149.4</ele>
        <time>2024-06-24T15:57:45.723Z</time>
      </trkpt>
      <trkpt lat="46.83109" lon="-0.4032">
        <ele>149.28</ele>
        <time>2024-06-24T15:57:47.542Z</time>
      </trkpt>
      <trkpt lat="46.83113" lon="-0.40314">
        <ele>149.17</ele>
        <time>2024-06-24T15:57:49.362Z</time>
      </trkpt>
      <trkpt lat="46.83117" lon="-0.40308">
        <ele>149.06</ele>
        <time>2024-06-24T15:57:51.183Z</time>
      </trkpt>
      <trkpt lat="46.83121" lon="-0.40301">
        <ele>148.95</ele>
        <time>2024-06-24T15:57:53.006Z</time>
      </trkpt>
      <trkpt lat="46.83125" lon="-0.40295">
        <ele>148.85</ele>
        <time>2024-06-24T15:57:54.830Z</time>
      </trkpt>
      <trkpt lat="46.83129" lon="-0.40288">
        <ele>148.75</ele>
        <time>2024-06-24T15:57:56.655Z</time>
      </trkpt>
      <trkpt lat="46.83132" lon="-0.40282">
        <ele>148.65</ele>
        <time>2024-06-24T15:57:58.481Z</time>
      </trkpt>
      <trkpt lat="46.83136" lon="-0.40276">
        <ele>148.56</ele>
        <time>2024-06-24T15:58:00.308Z</time>
      </trkpt>
      <trkpt lat="46.8314" lon="-0.40269">
        <ele>148.47</ele>
        <time>2024-06-24T15:58:02.136Z</time>
      </trkpt>
      <trkpt lat="46.83144" lon="-0.40263">
        <ele>148.38</ele>
        <time>2024-06-24T15:58:03.966Z</time>
      </trkpt>
      <trkpt lat="46.83148" lon="-0.40256">
        <ele>148.3</ele>
        <time>2024-06-24T15:58:05.797Z</time>
      </trkpt>
      <trkpt lat="46.83152" lon="-0.4025">
        <ele>148.22</ele>
        <time>2024-06-24T15:58:07.629Z</time>
      </trkpt>
      <trkpt lat="46.83156" lon="-0.40243">
        <ele>148.15</ele>
        <time>2024-06-24T15:58:09.462Z</time>
      </trkpt>
      <trkpt lat="46.8316" lon="-0.40237">
        <ele>148.09</ele>
        <time>2024-06-24T15:58:11.296Z</time>
      </trkpt>
      <trkpt lat="46.83164" lon="-0.40231">
        <ele>148.03</ele>
        <time>2024-06-24T15:58:13.132Z</time>
      </trkpt>
      <trkpt lat="46.83168" lon="-0.40225">
        <ele>147.97</ele>
        <time>2024-06-24T15:58:14.969Z</time>
      </trkpt>
      <trkpt lat="46.83171" lon="-0.40219">
        <ele>147.92</ele>
        <time>2024-06-24T15:58:16.807Z</time>
      </trkpt>
      <trkpt lat="46.83175" lon="-0.40212">
        <ele>147.87</ele>
        <time>2024-06-24T15:58:18.646Z</time>
      </trkpt>
      <trkpt lat="46.83178" lon="-0.40207">
        <ele>147.82</ele>
        <time>2024-06-24T15:58:20.486Z</time>
      </trkpt>
      <trkpt lat="46.83182" lon="-0.402">
        <ele>147.78</ele>
        <time>2024-06-24T15:58:22.327Z</time>
      </trkpt>
      <trkpt lat="46.83185" lon="-0.40194">
        <ele>147.75</ele>
        <time>2024-06-24T15:58:24.169Z</time>
      </trkpt>
      <trkpt lat="46.83189" lon="-0.40187">
        <ele>147.71</ele>
        <time>2024-06-24T15:58:26.012Z</time>
      </trkpt>
      <trkpt lat="46.83193" lon="-0.40181">
        <ele>147.69</ele>
        <time>2024-06-24T15:58:27.857Z</time>
      </trkpt>
      <trkpt lat="46.83197" lon="-0.40174">
        <ele>147.67</ele>
        <time>2024-06-24T15:58:29.703Z</time>
      </trkpt>
      <trkpt lat="46.83201" lon="-0.40169">
        <ele>147.65</ele>
        <time>2024-06-24T15:58:31.550Z</time>
      </trkpt>
      <trkpt lat="46.83206" lon="-0.40165">
        <ele>147.64</ele>
        <time>2024-06-24T15:58:33.398Z</time>
      </trkpt>
      <trkpt lat="46.83211" lon="-0.40163">
        <ele>147.63</ele>
        <time>2024-06-24T15:58:35.247Z</time>
      </trkpt>
      <trkpt lat="46.83216" lon="-0.40162">
        <ele>147.63</ele>
        <time>2024-06-24T15:58:37.097Z</time>
      </trkpt>
      <trkpt lat="46.83222" lon="-0.40161">
        <ele>147.64</ele>
        <time>2024-06-24T15:58:38.948Z</time>
      </trkpt>
      <trkpt lat="46.83228" lon="-0.40161">
        <ele>147.65</ele>
        <time>2024-06-24T15:58:40.801Z</time>
      </trkpt>
      <trkpt lat="46.83235" lon="-0.40162">
        <ele>147.66</ele>
        <time>2024-06-24T15:58:42.655Z</time>
      </trkpt>
      <trkpt lat="46.8324" lon="-0.40162">
        <ele>147.68</ele>
        <time>2024-06-24T15:58:44.510Z</time>
      </trkpt>
      <trkpt lat="46.83246" lon="-0.40163">
        <ele>147.7</ele>
        <time>2024-06-24T15:58:46.366Z</time>
      </trkpt>
      <trkpt lat="46.83252" lon="-0.40163">
        <ele>147.73</ele>
        <time>2024-06-24T15:58:48.223Z</time>
      </trkpt>
      <trkpt lat="46.83257" lon="-0.40163">
        <ele>147.76</ele>
        <time>2024-06-24T15:58:50.081Z</time>
      </trkpt>
      <trkpt lat="46.83263" lon="-0.40163">
        <ele>147.79</ele>
        <time>2024-06-24T15:58:51.941Z</time>
      </trkpt>
      <trkpt lat="46.83269" lon="-0.40163">
        <ele>147.83</ele>
        <time>2024-06-24T15:58:53.802Z</time>
      </trkpt>
      <trkpt lat="46.83275" lon="-0.40164">
        <ele>147.87</ele>
        <time>2024-06-24T15:58:55.664Z</time>
      </trkpt>
      <trkpt lat="46.8328" lon="-0.40165">
        <ele>147.91</ele>
        <time>2024-06-24T15:58:57.527Z</time>
      </trkpt>
      <trkpt lat="46.83286" lon="-0.40165">
        <ele>147.96</ele>
        <time>2024-06-24T15:58:59.391Z</time>
      </trkpt>
      <trkpt lat="46.83291" lon="-0.40164">
        <ele>148</ele>
        <time>2024-06-24T15:59:01.256Z</time>
      </trkpt>
      <trkpt lat="46.83296" lon="-0.40165">
        <ele>148.05</ele>
        <time>2024-06-24T15:59:03.122Z</time>
      </trkpt>
      <trkpt lat="46.83301" lon="-0.40165">
        <ele>148.1</ele>
        <time>2024-06-24T15:59:04.989Z</time>
      </trkpt>
      <trkpt lat="46.83306" lon="-0.40166">
        <ele>148.16</ele>
        <time>2024-06-24T15:59:06.857Z</time>
      </trkpt>
      <trkpt lat="46.83312" lon="-0.40167">
        <ele>148.22</ele>
        <time>2024-06-24T15:59:08.726Z</time>
      </trkpt>
      <trkpt lat="46.83317" lon="-0.40168">
        <ele>148.29</ele>
        <time>2024-06-24T15:59:10.596Z</time>
      </trkpt>
      <trkpt lat="46.83321" lon="-0.40168">
        <ele>148.36</ele>
        <time>2024-06-24T15:59:12.467Z</time>
      </trkpt>
      <trkpt lat="46.83326" lon="-0.40169">
        <ele>148.44</ele>
        <time>2024-06-24T15:59:14.339Z</time>
      </trkpt>
      <trkpt lat="46.83332" lon="-0.4017">
        <ele>148.52</ele>
        <time>2024-06-24T15:59:16.212Z</time>
      </trkpt>
      <trkpt lat="46.83337" lon="-0.4017">
        <ele>148.6</ele>
        <time>2024-06-24T15:59:18.086Z</time>
      </trkpt>
      <trkpt lat="46.83343" lon="-0.40169">
        <ele>148.69</ele>
        <time>2024-06-24T15:59:19.962Z</time>
      </trkpt>
      <trkpt lat="46.83348" lon="-0.40169">
        <ele>148.78</ele>
        <time>2024-06-24T15:59:21.839Z</time>
      </trkpt>
      <trkpt lat="46.83353" lon="-0.40169">
        <ele>148.87</ele>
        <time>2024-06-24T15:59:23.717Z</time>
      </trkpt>
      <trkpt lat="46.83357" lon="-0.40167">
        <ele>148.97</ele>
        <time>2024-06-24T15:59:25.595Z</time>
      </trkpt>
      <trkpt lat="46.83362" lon="-0.40166">
        <ele>149.07</ele>
        <time>2024-06-24T15:59:27.474Z</time>
      </trkpt>
      <trkpt lat="46.83366" lon="-0.40165">
        <ele>149.17</ele>
        <time>2024-06-24T15:59:29.354Z</time>
      </trkpt>
      <trkpt lat="46.8337" lon="-0.40164">
        <ele>149.28</ele>
        <time>2024-06-24T15:59:31.235Z</time>
      </trkpt>
      <trkpt lat="46.83375" lon="-0.40162">
        <ele>149.39</ele>
        <time>2024-06-24T15:59:33.117Z</time>
      </trkpt>
      <trkpt lat="46.8338" lon="-0.40159">
        <ele>149.51</ele>
        <time>2024-06-24T15:59:35.000Z</time>
      </trkpt>
      <trkpt lat="46.83385" lon="-0.40157">
        <ele>149.63</ele>
        <time>2024-06-24T15:59:36.884Z</time>
      </trkpt>
      <trkpt lat="46.83389" lon="-0.40154">
        <ele>149.76</ele>
        <time>2024-06-24T15:59:38.769Z</time>
      </trkpt>
      <trkpt lat="46.83394" lon="-0.40151">
        <ele>149.88</ele>
        <time>2024-06-24T15:59:40.655Z</time>
      </trkpt>
      <trkpt lat="46.83398" lon="-0.40146">
        <ele>150.01</ele>
        <time>2024-06-24T15:59:42.542Z</time>
      </trkpt>
      <trkpt lat="46.83401" lon="-0.40142">
        <ele>150.15</ele>
        <time>2024-06-24T15:59:44.430Z</time>
      </trkpt>
      <trkpt lat="46.83403" lon="-0.40136">
        <ele>150.28</ele>
        <time>2024-06-24T15:59:46.319Z</time>
      </trkpt>
      <trkpt lat="46.83404" lon="-0.40128">
        <ele>150.41</ele>
        <time>2024-06-24T15:59:48.209Z</time>
      </trkpt>
      <trkpt lat="46.83405" lon="-0.4012">
        <ele>150.55</ele>
        <time>2024-06-24T15:59:50.100Z</time>
      </trkpt>
      <trkpt lat="46.83405" lon="-0.40114">
        <ele>150.69</ele>
        <time>2024-06-24T15:59:51.992Z</time>
      </trkpt>
      <trkpt lat="46.83406" lon="-0.40107">
        <ele>150.83</ele>
        <time>2024-06-24T15:59:53.885Z</time>
      </trkpt>
      <trkpt lat="46.83407" lon="-0.401">
        <ele>150.96</ele>
        <time>2024-06-24T15:59:55.779Z</time>
      </trkpt>
      <trkpt lat="46.83407" lon="-0.40093">
        <ele>151.1</ele>
        <time>2024-06-24T15:59:57.674Z</time>
      </trkpt>
      <trkpt lat="46.83408" lon="-0.40085">
        <ele>151.24</ele>
        <time>2024-06-24T15:59:59.570Z</time>
      </trkpt>
      <trkpt lat="46.83408" lon="-0.40078">
        <ele>151.37</ele>
        <time>2024-06-24T16:00:01.467Z</time>
      </trkpt>
      <trkpt lat="46.83409" lon="-0.40073">
        <ele>151.51</ele>
        <time>2024-06-24T16:00:03.365Z</time>
      </trkpt>
      <trkpt lat="46.8341" lon="-0.40066">
        <ele>151.65</ele>
        <time>2024-06-24T16:00:05.264Z</time>
      </trkpt>
      <trkpt lat="46.8341" lon="-0.4006">
        <ele>151.8</ele>
        <time>2024-06-24T16:00:07.163Z</time>
      </trkpt>
      <trkpt lat="46.8341" lon="-0.40054">
        <ele>151.94</ele>
        <time>2024-06-24T16:00:09.063Z</time>
      </trkpt>
      <trkpt lat="46.83411" lon="-0.40049">
        <ele>152.08</ele>
        <time>2024-06-24T16:00:10.964Z</time>
      </trkpt>
      <trkpt lat="46.83412" lon="-0.40043">
        <ele>152.22</ele>
        <time>2024-06-24T16:00:12.866Z</time>
      </trkpt>
      <trkpt lat="46.83413" lon="-0.40037">
        <ele>152.37</ele>
        <time>2024-06-24T16:00:14.769Z</time>
      </trkpt>
      <trkpt lat="46.83415" lon="-0.40031">
        <ele>152.51</ele>
        <time>2024-06-24T16:00:16.673Z</time>
      </trkpt>
      <trkpt lat="46.83416" lon="-0.40026">
        <ele>152.65</ele>
        <time>2024-06-24T16:00:18.577Z</time>
      </trkpt>
      <trkpt lat="46.83417" lon="-0.40019">
        <ele>152.8</ele>
        <time>2024-06-24T16:00:20.482Z</time>
      </trkpt>
      <trkpt lat="46.83418" lon="-0.40014">
        <ele>152.94</ele>
        <time>2024-06-24T16:00:22.388Z</time>
      </trkpt>
      <trkpt lat="46.83419" lon="-0.40008">
        <ele>153.08</ele>
        <time>2024-06-24T16:00:24.295Z</time>
      </trkpt>
      <trkpt lat="46.8342" lon="-0.40003">
        <ele>153.23</ele>
        <time>2024-06-24T16:00:26.203Z</time>
      </trkpt>
      <trkpt lat="46.83421" lon="-0.39999">
        <ele>153.37</ele>
        <time>2024-06-24T16:00:28.111Z</time>
      </trkpt>
      <trkpt lat="46.83422" lon="-0.39994">
        <ele>153.51</ele>
        <time>2024-06-24T16:00:30.020Z</time>
      </trkpt>
      <trkpt lat="46.83423" lon="-0.39989">
        <ele>153.66</ele>
        <time>2024-06-24T16:00:31.930Z</time>
      </trkpt>
      <trkpt lat="46.83424" lon="-0.39984">
        <ele>153.81</ele>
        <time>2024-06-24T16:00:33.840Z</time>
      </trkpt>
      <trkpt lat="46.83426" lon="-0.39979">
        <ele>153.95</ele>
        <time>2024-06-24T16:00:35.751Z</time>
      </trkpt>
      <trkpt lat="46.83428" lon="-0.39975">
        <ele>154.1</ele>
        <time>2024-06-24T16:00:37.663Z</time>
      </trkpt>
      <trkpt lat="46.8343" lon="-0.3997">
        <ele>154.24</ele>
        <time>2024-06-24T16:00:39.576Z</time>
      </trkpt>
      <trkpt lat="46.83432" lon="-0.39966">
        <ele>154.38</ele>
        <time>2024-06-24T16:00:41.489Z</time>
      </trkpt>
      <trkpt lat="46.83434" lon="-0.39963">
        <ele>154.53</ele>
        <time>2024-06-24T16:00:43.403Z</time>
      </trkpt>
      <trkpt lat="46.83436" lon="-0.39958">
        <ele>154.67</ele>
        <time>2024-06-24T16:00:45.318Z</time>
      </trkpt>
      <trkpt lat="46.83437" lon="-0.39954">
        <ele>154.8</ele>
        <time>2024-06-24T16:00:47.233Z</time>
      </trkpt>
      <trkpt lat="46.83439" lon="-0.3995">
        <ele>154.94</ele>
        <time>2024-06-24T16:00:49.149Z</time>
      </trkpt>
      <trkpt lat="46.83441" lon="-0.39947">
        <ele>155.07</ele>
        <time>2024-06-24T16:00:51.065Z</time>
      </trkpt>
      <trkpt lat="46.83443" lon="-0.39943">
        <ele>155.21</ele>
        <time>2024-06-24T16:00:52.982Z</time>
      </trkpt>
      <trkpt lat="46.83445" lon="-0.39939">
        <ele>155.34</ele>
        <time>2024-06-24T16:00:54.900Z</time>
      </trkpt>
      <trkpt lat="46.83447" lon="-0.39935">
        <ele>155.47</ele>
        <time>2024-06-24T16:00:56.819Z</time>
      </trkpt>
      <trkpt lat="46.83449" lon="-0.39931">
        <ele>155.59</ele>
        <time>2024-06-24T16:00:58.738Z</time>
      </trkpt>
      <trkpt lat="46.83451" lon="-0.39927">
        <ele>155.72</ele>
        <time>2024-06-24T16:01:00.658Z</time>
      </trkpt>
      <trkpt lat="46.83452" lon="-0.39923">
        <ele>155.84</ele>
        <time>2024-06-24T16:01:02.578Z</time>
      </trkpt>
      <trkpt lat="46.83453" lon="-0.39919">
        <ele>155.96</ele>
        <time>2024-06-24T16:01:04.499Z</time>
      </trkpt>
      <trkpt lat="46.83454" lon="-0.39914">
        <ele>156.07</ele>
        <time>2024-06-24T16:01:06.421Z</time>
      </trkpt>
      <trkpt lat="46.83453" lon="-0.39909">
        <ele>156.19</ele>
        <time>2024-06-24T16:01:08.343Z</time>
      </trkpt>
      <trkpt lat="46.83452" lon="-0.39903">
        <ele>156.29</ele>
        <time>2024-06-24T16:01:10.266Z</time>
      </trkpt>
      <trkpt lat="46.83451" lon="-0.39896">
        <ele>156.4</ele>
        <time>2024-06-24T16:01:12.190Z</time>
      </trkpt>
      <trkpt lat="46.83451" lon="-0.39889">
        <ele>156.51</ele>
        <time>2024-06-24T16:01:14.115Z</time>
      </trkpt>
      <trkpt lat="46.83451" lon="-0.39882">
        <ele>156.6</ele>
        <time>2024-06-24T16:01:16.041Z</time>
      </trkpt>
      <trkpt lat="46.83452" lon="-0.39876">
        <ele>156.7</ele>
        <time>2024-06-24T16:01:17.968Z</time>
      </trkpt>
      <trkpt lat="46.83455" lon="-0.39872">
        <ele>156.8</ele>
        <time>2024-06-24T16:01:19.896Z</time>
      </trkpt>
      <trkpt lat="46.83457" lon="-0.39869">
        <ele>156.9</ele>
        <time>2024-06-24T16:01:21.824Z</time>
      </trkpt>
      <trkpt lat="46.83459" lon="-0.39867">
        <ele>156.99</ele>
        <time>2024-06-24T16:01:23.753Z</time>
      </trkpt>
      <trkpt lat="46.83461" lon="-0.39865">
        <ele>157.09</ele>
        <time>2024-06-24T16:01:25.682Z</time>
      </trkpt>
      <trkpt lat="46.83464" lon="-0.39862">
        <ele>157.18</ele>
        <time>2024-06-24T16:01:27.612Z</time>
      </trkpt>
      <trkpt lat="46.83467" lon="-0.3986">
        <ele>157.28</ele>
        <time>2024-06-24T16:01:29.543Z</time>
      </trkpt>
      <trkpt lat="46.8347" lon="-0.39857">
        <ele>157.37</ele>
        <time>2024-06-24T16:01:31.474Z</time>
      </trkpt>
      <trkpt lat="46.83474" lon="-0.39855">
        <ele>157.47</ele>
        <time>2024-06-24T16:01:33.406Z</time>
      </trkpt>
      <trkpt lat="46.83477" lon="-0.39853">
        <ele>157.56</ele>
        <time>2024-06-24T16:01:35.339Z</time>
      </trkpt>
      <trkpt lat="46.8348" lon="-0.3985">
        <ele>157.65</ele>
        <time>2024-06-24T16:01:37.273Z</time>
      </trkpt>
      <trkpt lat="46.83483" lon="-0.39847">
        <ele>157.73</ele>
        <time>2024-06-24T16:01:39.207Z</time>
      </trkpt>
      <trkpt lat="46.83486" lon="-0.39844">
        <ele>157.82</ele>
        <time>2024-06-24T16:01:41.142Z</time>
      </trkpt>
      <trkpt lat="46.83489" lon="-0.39841">
        <ele>157.9</ele>
        <time>2024-06-24T16:01:43.078Z</time>
      </trkpt>
      <trkpt lat="46.83492" lon="-0.39838">
        <ele>157.99</ele>
        <time>2024-06-24T16:01:45.015Z</time>
      </trkpt>
      <trkpt lat="46.83496" lon="-0.39835">
        <ele>158.07</ele>
        <time>2024-06-24T16:01:46.952Z</time>
      </trkpt>
      <trkpt lat="46.83499" lon="-0.39832">
        <ele>158.15</ele>
        <time>2024-06-24T16:01:48.890Z</time>
      </trkpt>
      <trkpt lat="46.83502" lon="-0.39829">
        <ele>158.23</ele>
        <time>2024-06-24T16:01:50.829Z</time>
      </trkpt>
      <trkpt lat="46.83506" lon="-0.39825">
        <ele>158.31</ele>
        <time>2024-06-24T16:01:52.769Z</time>
      </trkpt>
      <trkpt lat="46.8351" lon="-0.39821">
        <ele>158.39</ele>
        <time>2024-06-24T16:01:54.710Z</time>
      </trkpt>
      <trkpt lat="46.83513" lon="-0.39817">
        <ele>158.46</ele>
        <time>2024-06-24T16:01:56.652Z</time>
      </trkpt>
      <trkpt lat="46.83517" lon="-0.39813">
        <ele>158.53</ele>
        <time>2024-06-24T16:01:58.595Z</time>
      </trkpt>
      <trkpt lat="46.8352" lon="-0.39808">
        <ele>158.6</ele>
        <time>2024-06-24T16:02:00.539Z</time>
      </trkpt>
      <trkpt lat="46.83524" lon="-0.39804">
        <ele>158.66</ele>
        <time>2024-06-24T16:02:02.483Z</time>
      </trkpt>
      <trkpt lat="46.83527" lon="-0.398">
        <ele>158.73</ele>
        <time>2024-06-24T16:02:04.428Z</time>
      </trkpt>
      <trkpt lat="46.8353" lon="-0.39796">
        <ele>158.79</ele>
        <time>2024-06-24T16:02:06.374Z</time>
      </trkpt>
      <trkpt lat="46.83533" lon="-0.39791">
        <ele>158.85</ele>
        <time>2024-06-24T16:02:08.321Z</time>
      </trkpt>
      <trkpt lat="46.83536" lon="-0.39788">
        <ele>158.92</ele>
        <time>2024-06-24T16:02:10.269Z</time>
      </trkpt>
      <trkpt lat="46.83539" lon="-0.39783">
        <ele>158.98</ele>
        <time>2024-06-24T16:02:12.218Z</time>
      </trkpt>
      <trkpt lat="46.83543" lon="-0.39779">
        <ele>159.04</ele>
        <time>2024-06-24T16:02:14.168Z</time>
      </trkpt>
      <trkpt lat="46.83546" lon="-0.39775">
        <ele>159.1</ele>
        <time>2024-06-24T16:02:16.118Z</time>
      </trkpt>
      <trkpt lat="46.83549" lon="-0.3977">
        <ele>159.16</ele>
        <time>2024-06-24T16:02:18.069Z</time>
      </trkpt>
      <trkpt lat="46.83553" lon="-0.39765">
        <ele>159.22</ele>
        <time>2024-06-24T16:02:20.021Z</time>
      </trkpt>
      <trkpt lat="46.83556" lon="-0.39761">
        <ele>159.29</ele>
        <time>2024-06-24T16:02:21.974Z</time>
      </trkpt>
      <trkpt lat="46.83559" lon="-0.39756">
        <ele>159.35</ele>
        <time>2024-06-24T16:02:23.928Z</time>
      </trkpt>
      <trkpt lat="46.83563" lon="-0.39752">
        <ele>159.41</ele>
        <time>2024-06-24T16:02:25.883Z</time>
      </trkpt>
      <trkpt lat="46.83566" lon="-0.39747">
        <ele>159.48</ele>
        <time>2024-06-24T16:02:27.839Z</time>
      </trkpt>
      <trkpt lat="46.83569" lon="-0.39743">
        <ele>159.54</ele>
        <time>2024-06-24T16:02:29.796Z</time>
      </trkpt>
      <trkpt lat="46.83573" lon="-0.39739">
        <ele>159.61</ele>
        <time>2024-06-24T16:02:31.754Z</time>
      </trkpt>
      <trkpt lat="46.83576" lon="-0.39735">
        <ele>159.68</ele>
        <time>2024-06-24T16:02:33.713Z</time>
      </trkpt>
      <trkpt lat="46.8358" lon="-0.3973">
        <ele>159.74</ele>
        <time>2024-06-24T16:02:35.673Z</time>
      </trkpt>
      <trkpt lat="46.83583" lon="-0.39726">
        <ele>159.81</ele>
        <time>2024-06-24T16:02:37.634Z</time>
      </trkpt>
      <trkpt lat="46.83586" lon="-0.39722">
        <ele>159.88</ele>
        <time>2024-06-24T16:02:39.595Z</time>
      </trkpt>
      <trkpt lat="46.8359" lon="-0.39717">
        <ele>159.96</ele>
        <time>2024-06-24T16:02:41.557Z</time>
      </trkpt>
      <trkpt lat="46.83593" lon="-0.39713">
        <ele>160.03</ele>
        <time>2024-06-24T16:02:43.520Z</time>
      </trkpt>
      <trkpt lat="46.83597" lon="-0.39708">
        <ele>160.11</ele>
        <time>2024-06-24T16:02:45.484Z</time>
      </trkpt>
      <trkpt lat="46.836" lon="-0.39703">
        <ele>160.19</ele>
        <time>2024-06-24T16:02:47.449Z</time>
      </trkpt>
      <trkpt lat="46.83604" lon="-0.39699">
        <ele>160.27</ele>
        <time>2024-06-24T16:02:49.415Z</time>
      </trkpt>
      <trkpt lat="46.83608" lon="-0.39694">
        <ele>160.35</ele>
        <time>2024-06-24T16:02:51.382Z</time>
      </trkpt>
      <trkpt lat="46.83611" lon="-0.39689">
        <ele>160.44</ele>
        <time>2024-06-24T16:02:53.350Z</time>
      </trkpt>
      <trkpt lat="46.83615" lon="-0.39684">
        <ele>160.52</ele>
        <time>2024-06-24T16:02:55.319Z</time>
      </trkpt>
      <trkpt lat="46.83618" lon="-0.39679">
        <ele>160.61</ele>
        <time>2024-06-24T16:02:57.289Z</time>
      </trkpt>
      <trkpt lat="46.83622" lon="-0.39674">
        <ele>160.7</ele>
        <time>2024-06-24T16:02:59.260Z</time>
      </trkpt>
      <trkpt lat="46.83625" lon="-0.3967">
        <ele>160.79</ele>
        <time>2024-06-24T16:03:01.232Z</time>
      </trkpt>
      <trkpt lat="46.83628" lon="-0.39666">
        <ele>160.89</ele>
        <time>2024-06-24T16:03:03.205Z</time>
      </trkpt>
      <trkpt lat="46.83631" lon="-0.39662">
        <ele>160.98</ele>
        <time>2024-06-24T16:03:05.179Z</time>
      </trkpt>
      <trkpt lat="46.83635" lon="-0.39658">
        <ele>161.08</ele>
        <time>2024-06-24T16:03:07.153Z</time>
      </trkpt>
      <trkpt lat="46.83638" lon="-0.39653">
        <ele>161.17</ele>
        <time>2024-06-24T16:03:09.128Z</time>
      </trkpt>
      <trkpt lat="46.83641" lon="-0.39648">
        <ele>161.27</ele>
        <time>2024-06-24T16:03:11.104Z</time>
      </trkpt>
      <trkpt lat="46.83644" lon="-0.39644">
        <ele>161.37</ele>
        <time>2024-06-24T16:03:13.081Z</time>
      </trkpt>
      <trkpt lat="46.83647" lon="-0.3964">
        <ele>161.48</ele>
        <time>2024-06-24T16:03:15.059Z</time>
      </trkpt>
      <trkpt lat="46.8365" lon="-0.39636">
        <ele>161.58</ele>
        <time>2024-06-24T16:03:17.038Z</time>
      </trkpt>
      <trkpt lat="46.83653" lon="-0.39631">
        <ele>161.69</ele>
        <time>2024-06-24T16:03:19.018Z</time>
      </trkpt>
      <trkpt lat="46.83657" lon="-0.39627">
        <ele>161.8</ele>
        <time>2024-06-24T16:03:20.999Z</time>
      </trkpt>
      <trkpt lat="46.8366" lon="-0.39622">
        <ele>161.91</ele>
        <time>2024-06-24T16:03:22.981Z</time>
      </trkpt>
      <trkpt lat="46.83664" lon="-0.39617">
        <ele>162.02</ele>
        <time>2024-06-24T16:03:24.964Z</time>
      </trkpt>
      <trkpt lat="46.83667" lon="-0.39613">
        <ele>162.14</ele>
        <time>2024-06-24T16:03:26.947Z</time>
      </trkpt>
      <trkpt lat="46.8367" lon="-0.39608">
        <ele>162.25</ele>
        <time>2024-06-24T16:03:28.931Z</time>
      </trkpt>
      <trkpt lat="46.83673" lon="-0.39604">
        <ele>162.36</ele>
        <time>2024-06-24T16:03:30.916Z</time>
      </trkpt>
      <trkpt lat="46.83676" lon="-0.39599">
        <ele>162.48</ele>
        <time>2024-06-24T16:03:32.902Z</time>
      </trkpt>
      <trkpt lat="46.8368" lon="-0.39595">
        <ele>162.59</ele>
        <time>2024-06-24T16:03:34.889Z</time>
      </trkpt>
      <trkpt lat="46.83683" lon="-0.3959">
        <ele>162.71</ele>
        <time>2024-06-24T16:03:36.877Z</time>
      </trkpt>
      <trkpt lat="46.83687" lon="-0.39584">
        <ele>162.83</ele>
        <time>2024-06-24T16:03:38.866Z</time>
      </trkpt>
      <trkpt lat="46.8369" lon="-0.39579">
        <ele>162.94</ele>
        <time>2024-06-24T16:03:40.856Z</time>
      </trkpt>
      <trkpt lat="46.83693" lon="-0.39574">
        <ele>163.06</ele>
        <time>2024-06-24T16:03:42.847Z</time>
      </trkpt>
      <trkpt lat="46.83697" lon="-0.3957">
        <ele>163.18</ele>
        <time>2024-06-24T16:03:44.839Z</time>
      </trkpt>
      <trkpt lat="46.837" lon="-0.39565">
        <ele>163.29</ele>
        <time>2024-06-24T16:03:46.832Z</time>
      </trkpt>
      <trkpt lat="46.83704" lon="-0.39559">
        <ele>163.41</ele>
        <time>2024-06-24T16:03:48.826Z</time>
      </trkpt>
      <trkpt lat="46.83707" lon="-0.39554">
        <ele>163.53</ele>
        <time>2024-06-24T16:03:50.821Z</time>
      </trkpt>
      <trkpt lat="46.8371" lon="-0.3955">
        <ele>163.64</ele>
        <time>2024-06-24T16:03:52.817Z</time>
      </trkpt>
      <trkpt lat="46.83712" lon="-0.39545">
        <ele>163.76</ele>
        <time>2024-06-24T16:03:54.813Z</time>
      </trkpt>
      <trkpt lat="46.83716" lon="-0.39541">
        <ele>163.88</ele>
        <time>2024-06-24T16:03:56.810Z</time>
      </trkpt>
      <trkpt lat="46.83719" lon="-0.39536">
        <ele>163.99</ele>
        <time>2024-06-24T16:03:58.808Z</time>
      </trkpt>
      <trkpt lat="46.83722" lon="-0.39531">
        <ele>164.11</ele>
        <time>2024-06-24T16:04:00.807Z</time>
      </trkpt>
      <trkpt lat="46.83725" lon="-0.39526">
        <ele>164.22</ele>
        <time>2024-06-24T16:04:02.807Z</time>
      </trkpt>
      <trkpt lat="46.83729" lon="-0.39522">
        <ele>164.34</ele>
        <time>2024-06-24T16:04:04.808Z</time>
      </trkpt>
      <trkpt lat="46.83732" lon="-0.39517">
        <ele>164.46</ele>
        <time>2024-06-24T16:04:06.810Z</time>
      </trkpt>
      <trkpt lat="46.83735" lon="-0.39512">
        <ele>164.57</ele>
        <time>2024-06-24T16:04:08.813Z</time>
      </trkpt>
      <trkpt lat="46.83738" lon="-0.39507">
        <ele>164.69</ele>
        <time>2024-06-24T16:04:10.817Z</time>
      </trkpt>
      <trkpt lat="46.83741" lon="-0.39502">
        <ele>164.81</ele>
        <time>2024-06-24T16:04:12.822Z</time>
      </trkpt>
      <trkpt lat="46.83745" lon="-0.39498">
        <ele>164.93</ele>
        <time>2024-06-24T16:04:14.828Z</time>
      </trkpt>
      <trkpt lat="46.83748" lon="-0.39492">
        <ele>165.04</ele>
        <time>2024-06-24T16:04:16.835Z</time>
      </trkpt>
      <trkpt lat="46.83751" lon="-0.39487">
        <ele>165.16</ele>
        <time>2024-06-24T16:04:18.842Z</time>
      </trkpt>
      <trkpt lat="46.83754" lon="-0.39483">
        <ele>165.27</ele>
        <time>2024-06-24T16:04:20.850Z</time>
      </trkpt>
      <trkpt lat="46.83756" lon="-0.39479">
        <ele>165.39</ele>
        <time>2024-06-24T16:04:22.859Z</time>
      </trkpt>
      <trkpt lat="46.83759" lon="-0.39475">
        <ele>165.5</ele>
        <time>2024-06-24T16:04:24.869Z</time>
      </trkpt>
      <trkpt lat="46.83761" lon="-0.39471">
        <ele>165.62</ele>
        <time>2024-06-24T16:04:26.880Z</time>
      </trkpt>
      <trkpt lat="46.83764" lon="-0.39467">
        <ele>165.73</ele>
        <time>2024-06-24T16:04:28.891Z</time>
      </trkpt>
      <trkpt lat="46.83767" lon="-0.39463">
        <ele>165.84</ele>
        <time>2024-06-24T16:04:30.903Z</time>
      </trkpt>
      <trkpt lat="46.8377" lon="-0.3946">
        <ele>165.96</ele>
        <time>2024-06-24T16:04:32.916Z</time>
      </trkpt>
      <trkpt lat="46.83773" lon="-0.39457">
        <ele>166.07</ele>
        <time>2024-06-24T16:04:34.930Z</time>
      </trkpt>
      <trkpt lat="46.83776" lon="-0.39454">
        <ele>166.18</ele>
        <time>2024-06-24T16:04:36.944Z</time>
      </trkpt>
      <trkpt lat="46.8378" lon="-0.39451">
        <ele>166.29</ele>
        <time>2024-06-24T16:04:38.959Z</time>
      </trkpt>
      <trkpt lat="46.83784" lon="-0.39448">
        <ele>166.4</ele>
        <time>2024-06-24T16:04:40.975Z</time>
      </trkpt>
      <trkpt lat="46.83787" lon="-0.39445">
        <ele>166.51</ele>
        <time>2024-06-24T16:04:42.992Z</time>
      </trkpt>
      <trkpt lat="46.83791" lon="-0.39442">
        <ele>166.61</ele>
        <time>2024-06-24T16:04:45.010Z</time>
      </trkpt>
      <trkpt lat="46.83794" lon="-0.39439">
        <ele>166.71</ele>
        <time>2024-06-24T16:04:47.029Z</time>
      </trkpt>
      <trkpt lat="46.83798" lon="-0.39436">
        <ele>166.8</ele>
        <time>2024-06-24T16:04:49.048Z</time>
      </trkpt>
      <trkpt lat="46.83801" lon="-0.39433">
        <ele>166.9</ele>
        <time>2024-06-24T16:04:51.068Z</time>
      </trkpt>
      <trkpt lat="46.83805" lon="-0.39431">
        <ele>166.99</ele>
        <time>2024-06-24T16:04:53.089Z</time>
      </trkpt>
      <trkpt lat="46.83809" lon="-0.39428">
        <ele>167.09</ele>
        <time>2024-06-24T16:04:55.111Z</time>
      </trkpt>
      <trkpt lat="46.83813" lon="-0.39426">
        <ele>167.18</ele>
        <time>2024-06-24T16:04:57.134Z</time>
      </trkpt>
      <trkpt lat="46.83816" lon="-0.39423">
        <ele>167.27</ele>
        <time>2024-06-24T16:04:59.157Z</time>
      </trkpt>
      <trkpt lat="46.8382" lon="-0.3942">
        <ele>167.36</ele>
        <time>2024-06-24T16:05:01.181Z</time>
      </trkpt>
      <trkpt lat="46.83824" lon="-0.39417">
        <ele>167.44</ele>
        <time>2024-06-24T16:05:03.206Z</time>
      </trkpt>
      <trkpt lat="46.83827" lon="-0.39414">
        <ele>167.53</ele>
        <time>2024-06-24T16:05:05.232Z</time>
      </trkpt>
      <trkpt lat="46.83831" lon="-0.3941">
        <ele>167.61</ele>
        <time>2024-06-24T16:05:07.259Z</time>
      </trkpt>
      <trkpt lat="46.83835" lon="-0.39406">
        <ele>167.69</ele>
        <time>2024-06-24T16:05:09.287Z</time>
      </trkpt>
      <trkpt lat="46.83839" lon="-0.39403">
        <ele>167.77</ele>
        <time>2024-06-24T16:05:11.316Z</time>
      </trkpt>
      <trkpt lat="46.83843" lon="-0.39399">
        <ele>167.85</ele>
        <time>2024-06-24T16:05:13.346Z</time>
      </trkpt>
      <trkpt lat="46.83847" lon="-0.39396">
        <ele>167.92</ele>
        <time>2024-06-24T16:05:15.377Z</time>
      </trkpt>
      <trkpt lat="46.83851" lon="-0.39392">
        <ele>167.99</ele>
        <time>2024-06-24T16:05:17.409Z</time>
      </trkpt>
      <trkpt lat="46.83855" lon="-0.39388">
        <ele>168.06</ele>
        <time>2024-06-24T16:05:19.442Z</time>
      </trkpt>
      <trkpt lat="46.83859" lon="-0.39384">
        <ele>168.12</ele>
        <time>2024-06-24T16:05:21.476Z</time>
      </trkpt>
      <trkpt lat="46.83863" lon="-0.39381">
        <ele>168.19</ele>
        <time>2024-06-24T16:05:23.511Z</time>
      </trkpt>
      <trkpt lat="46.83867" lon="-0.39377">
        <ele>168.25</ele>
        <time>2024-06-24T16:05:25.546Z</time>
      </trkpt>
      <trkpt lat="46.83871" lon="-0.39374">
        <ele>168.32</ele>
        <time>2024-06-24T16:05:27.582Z</time>
      </trkpt>
      <trkpt lat="46.83875" lon="-0.3937">
        <ele>168.38</ele>
        <time>2024-06-24T16:05:29.619Z</time>
      </trkpt>
      <trkpt lat="46.83878" lon="-0.39367">
        <ele>168.44</ele>
        <time>2024-06-24T16:05:31.657Z</time>
      </trkpt>
      <trkpt lat="46.83882" lon="-0.39363">
        <ele>168.5</ele>
        <time>2024-06-24T16:05:33.696Z</time>
      </trkpt>
      <trkpt lat="46.83886" lon="-0.3936">
        <ele>168.55</ele>
        <time>2024-06-24T16:05:35.736Z</time>
      </trkpt>
      <trkpt lat="46.83889" lon="-0.39356">
        <ele>168.61</ele>
        <time>2024-06-24T16:05:37.777Z</time>
      </trkpt>
      <trkpt lat="46.83893" lon="-0.39353">
        <ele>168.66</ele>
        <time>2024-06-24T16:05:39.818Z</time>
      </trkpt>
      <trkpt lat="46.83897" lon="-0.3935">
        <ele>168.72</ele>
        <time>2024-06-24T16:05:41.860Z</time>
      </trkpt>
      <trkpt lat="46.83901" lon="-0.39346">
        <ele>168.76</ele>
        <time>2024-06-24T16:05:43.903Z</time>
      </trkpt>
      <trkpt lat="46.83905" lon="-0.39344">
        <ele>168.81</ele>
        <time>2024-06-24T16:05:45.947Z</time>
      </trkpt>
      <trkpt lat="46.83909" lon="-0.3934">
        <ele>168.85</ele>
        <time>2024-06-24T16:05:47.992Z</time>
      </trkpt>
      <trkpt lat="46.83913" lon="-0.39336">
        <ele>168.89</ele>
        <time>2024-06-24T16:05:50.038Z</time>
      </trkpt>
      <trkpt lat="46.83918" lon="-0.39333">
        <ele>168.93</ele>
        <time>2024-06-24T16:05:52.085Z</time>
      </trkpt>
      <trkpt lat="46.83922" lon="-0.39329">
        <ele>168.97</ele>
        <time>2024-06-24T16:05:54.133Z</time>
      </trkpt>
      <trkpt lat="46.83926" lon="-0.39325">
        <ele>169.01</ele>
        <time>2024-06-24T16:05:56.182Z</time>
      </trkpt>
      <trkpt lat="46.8393" lon="-0.39322">
        <ele>169.05</ele>
        <time>2024-06-24T16:05:58.232Z</time>
      </trkpt>
      <trkpt lat="46.83934" lon="-0.39319">
        <ele>169.08</ele>
        <time>2024-06-24T16:06:00.283Z</time>
      </trkpt>
      <trkpt lat="46.83938" lon="-0.39316">
        <ele>169.12</ele>
        <time>2024-06-24T16:06:02.335Z</time>
      </trkpt>
      <trkpt lat="46.83942" lon="-0.39312">
        <ele>169.15</ele>
        <time>2024-06-24T16:06:04.388Z</time>
      </trkpt>
      <trkpt lat="46.83947" lon="-0.39309">
        <ele>169.18</ele>
        <time>2024-06-24T16:06:06.442Z</time>
      </trkpt>
      <trkpt lat="46.83952" lon="-0.39305">
        <ele>169.2</ele>
        <time>2024-06-24T16:06:08.497Z</time>
      </trkpt>
      <trkpt lat="46.83956" lon="-0.39303">
        <ele>169.22</ele>
        <time>2024-06-24T16:06:10.553Z</time>
      </trkpt>
      <trkpt lat="46.8396" lon="-0.393">
        <ele>169.24</ele>
        <time>2024-06-24T16:06:12.610Z</time>
      </trkpt>
      <trkpt lat="46.83964" lon="-0.39296">
        <ele>169.25</ele>
        <time>2024-06-24T16:06:14.668Z</time>
      </trkpt>
      <trkpt lat="46.83969" lon="-0.39292">
        <ele>169.26</ele>
        <time>2024-06-24T16:06:16.727Z</time>
      </trkpt>
      <trkpt lat="46.83974" lon="-0.39289">
        <ele>169.26</ele>
        <time>2024-06-24T16:06:18.787Z</time>
      </trkpt>
      <trkpt lat="46.83978" lon="-0.39285">
        <ele>169.27</ele>
        <time>2024-06-24T16:06:20.848Z</time>
      </trkpt>
      <trkpt lat="46.83983" lon="-0.39282">
        <ele>169.27</ele>
        <time>2024-06-24T16:06:22.910Z</time>
      </trkpt>
      <trkpt lat="46.83988" lon="-0.39278">
        <ele>169.26</ele>
        <time>2024-06-24T16:06:24.973Z</time>
      </trkpt>
      <trkpt lat="46.83992" lon="-0.39275">
        <ele>169.26</ele>
        <time>2024-06-24T16:06:27.037Z</time>
      </trkpt>
      <trkpt lat="46.83997" lon="-0.39271">
        <ele>169.25</ele>
        <time>2024-06-24T16:06:29.102Z</time>
      </trkpt>
      <trkpt lat="46.84001" lon="-0.39268">
        <ele>169.23</ele>
        <time>2024-06-24T16:06:31.168Z</time>
      </trkpt>
      <trkpt lat="46.84005" lon="-0.39264">
        <ele>169.22</ele>
        <time>2024-06-24T16:06:33.235Z</time>
      </trkpt>
      <trkpt lat="46.84009" lon="-0.39261">
        <ele>169.2</ele>
        <time>2024-06-24T16:06:35.303Z</time>
      </trkpt>
      <trkpt lat="46.84014" lon="-0.39257">
        <ele>169.18</ele>
        <time>2024-06-24T16:06:37.372Z</time>
      </trkpt>
      <trkpt lat="46.84019" lon="-0.39253">
        <ele>169.15</ele>
        <time>2024-06-24T16:06:39.442Z</time>
      </trkpt>
      <trkpt lat="46.84024" lon="-0.39249">
        <ele>169.12</ele>
        <time>2024-06-24T16:06:41.513Z</time>
      </trkpt>
      <trkpt lat="46.84028" lon="-0.39246">
        <ele>169.09</ele>
        <time>2024-06-24T16:06:43.585Z</time>
      </trkpt>
      <trkpt lat="46.84033" lon="-0.39242">
        <ele>169.06</ele>
        <time>2024-06-24T16:06:45.659Z</time>
      </trkpt>
      <trkpt lat="46.84038" lon="-0.39239">
        <ele>169.02</ele>
        <time>2024-06-24T16:06:47.734Z</time>
      </trkpt>
      <trkpt lat="46.84042" lon="-0.39234">
        <ele>168.98</ele>
        <time>2024-06-24T16:06:49.810Z</time>
      </trkpt>
      <trkpt lat="46.84047" lon="-0.3923">
        <ele>168.93</ele>
        <time>2024-06-24T16:06:51.887Z</time>
      </trkpt>
      <trkpt lat="46.84051" lon="-0.39226">
        <ele>168.89</ele>
        <time>2024-06-24T16:06:53.965Z</time>
      </trkpt>
      <trkpt lat="46.84055" lon="-0.39222">
        <ele>168.84</ele>
        <time>2024-06-24T16:06:56.044Z</time>
      </trkpt>
      <trkpt lat="46.8406" lon="-0.39218">
        <ele>168.79</ele>
        <time>2024-06-24T16:06:58.124Z</time>
      </trkpt>
      <trkpt lat="46.84064" lon="-0.39214">
        <ele>168.73</ele>
        <time>2024-06-24T16:07:00.205Z</time>
      </trkpt>
      <trkpt lat="46.84069" lon="-0.3921">
        <ele>168.67</ele>
        <time>2024-06-24T16:07:02.287Z</time>
      </trkpt>
      <trkpt lat="46.84074" lon="-0.39206">
        <ele>168.61</ele>
        <time>2024-06-24T16:07:04.370Z</time>
      </trkpt>
      <trkpt lat="46.84078" lon="-0.39202">
        <ele>168.54</ele>
        <time>2024-06-24T16:07:06.454Z</time>
      </trkpt>
      <trkpt lat="46.84083" lon="-0.39197">
        <ele>168.47</ele>
        <time>2024-06-24T16:07:08.539Z</time>
      </trkpt>
      <trkpt lat="46.84088" lon="-0.39192">
        <ele>168.4</ele>
        <time>2024-06-24T16:07:10.625Z</time>
      </trkpt>
      <trkpt lat="46.84093" lon="-0.39187">
        <ele>168.32</ele>
        <time>2024-06-24T16:07:12.713Z</time>
      </trkpt>
      <trkpt lat="46.84098" lon="-0.39183">
        <ele>168.25</ele>
        <time>2024-06-24T16:07:14.802Z</time>
      </trkpt>
      <trkpt lat="46.84102" lon="-0.39178">
        <ele>168.17</ele>
        <time>2024-06-24T16:07:16.892Z</time>
      </trkpt>
      <trkpt lat="46.84107" lon="-0.39173">
        <ele>168.09</ele>
        <time>2024-06-24T16:07:18.983Z</time>
      </trkpt>
      <trkpt lat="46.84112" lon="-0.39169">
        <ele>168.01</ele>
        <time>2024-06-24T16:07:21.075Z</time>
      </trkpt>
      <trkpt lat="46.84116" lon="-0.39164">
        <ele>167.93</ele>
        <time>2024-06-24T16:07:23.168Z</time>
      </trkpt>
      <trkpt lat="46.84121" lon="-0.39159">
        <ele>167.85</ele>
        <time>2024-06-24T16:07:25.262Z</time>
      </trkpt>
      <trkpt lat="46.84125" lon="-0.39154">
        <ele>167.76</ele>
        <time>2024-06-24T16:07:27.357Z</time>
      </trkpt>
      <trkpt lat="46.84129" lon="-0.39149">
        <ele>167.67</ele>
        <time>2024-06-24T16:07:29.454Z</time>
      </trkpt>
      <trkpt lat="46.84133" lon="-0.39144">
        <ele>167.58</ele>
        <time>2024-06-24T16:07:31.552Z</time>
      </trkpt>
      <trkpt lat="46.84137" lon="-0.3914">
        <ele>167.49</ele>
        <time>2024-06-24T16:07:33.651Z</time>
      </trkpt>
      <trkpt lat="46.84141" lon="-0.39135">
        <ele>167.4</ele>
        <time>2024-06-24T16:07:35.751Z</time>
      </trkpt>
      <trkpt lat="46.84145" lon="-0.39131">
        <ele>167.31</ele>
        <time>2024-06-24T16:07:37.852Z</time>
      </trkpt>
      <trkpt lat="46.84149" lon="-0.39126">
        <ele>167.22</ele>
        <time>2024-06-24T16:07:39.954Z</time>
      </trkpt>
      <trkpt lat="46.84154" lon="-0.3912">
        <ele>167.14</ele>
        <time>2024-06-24T16:07:42.057Z</time>
      </trkpt>
      <trkpt lat="46.84158" lon="-0.39115">
        <ele>167.06</ele>
        <time>2024-06-24T16:07:44.161Z</time>
      </trkpt>
      <trkpt lat="46.84163" lon="-0.3911">
        <ele>166.98</ele>
        <time>2024-06-24T16:07:46.266Z</time>
      </trkpt>
      <trkpt lat="46.84167" lon="-0.39104">
        <ele>166.89</ele>
        <time>2024-06-24T16:07:48.372Z</time>
      </trkpt>
      <trkpt lat="46.84171" lon="-0.39099">
        <ele>166.81</ele>
        <time>2024-06-24T16:07:50.479Z</time>
      </trkpt>
      <trkpt lat="46.84175" lon="-0.39094">
        <ele>166.72</ele>
        <time>2024-06-24T16:07:52.587Z</time>
      </trkpt>
      <trkpt lat="46.84179" lon="-0.39088">
        <ele>166.63</ele>
        <time>2024-06-24T16:07:54.697Z</time>
      </trkpt>
      <trkpt lat="46.84183" lon="-0.39082">
        <ele>166.54</ele>
        <time>2024-06-24T16:07:56.808Z</time>
      </trkpt>
      <trkpt lat="46.84188" lon="-0.39077">
        <ele>166.45</ele>
        <time>2024-06-24T16:07:58.920Z</time>
      </trkpt>
      <trkpt lat="46.84192" lon="-0.39072">
        <ele>166.36</ele>
        <time>2024-06-24T16:08:01.033Z</time>
      </trkpt>
      <trkpt lat="46.84196" lon="-0.39067">
        <ele>166.27</ele>
        <time>2024-06-24T16:08:03.147Z</time>
      </trkpt>
      <trkpt lat="46.842" lon="-0.39061">
        <ele>166.18</ele>
        <time>2024-06-24T16:08:05.262Z</time>
      </trkpt>
      <trkpt lat="46.84205" lon="-0.39056">
        <ele>166.08</ele>
        <time>2024-06-24T16:08:07.378Z</time>
      </trkpt>
      <trkpt lat="46.84209" lon="-0.39051">
        <ele>165.99</ele>
        <time>2024-06-24T16:08:09.496Z</time>
      </trkpt>
      <trkpt lat="46.84214" lon="-0.39046">
        <ele>165.9</ele>
        <time>2024-06-24T16:08:11.615Z</time>
      </trkpt>
      <trkpt lat="46.84218" lon="-0.39041">
        <ele>165.8</ele>
        <time>2024-06-24T16:08:13.735Z</time>
      </trkpt>
      <trkpt lat="46.84223" lon="-0.39035">
        <ele>165.71</ele>
        <time>2024-06-24T16:08:15.856Z</time>
      </trkpt>
      <trkpt lat="46.84227" lon="-0.3903">
        <ele>165.62</ele>
        <time>2024-06-24T16:08:17.978Z</time>
      </trkpt>
      <trkpt lat="46.84231" lon="-0.39025">
        <ele>165.52</ele>
        <time>2024-06-24T16:08:20.101Z</time>
      </trkpt>
      <trkpt lat="46.84235" lon="-0.3902">
        <ele>165.43</ele>
        <time>2024-06-24T16:08:22.225Z</time>
      </trkpt>
      <trkpt lat="46.8424" lon="-0.39015">
        <ele>165.34</ele>
        <time>2024-06-24T16:08:24.350Z</time>
      </trkpt>
      <trkpt lat="46.84244" lon="-0.39009">
        <ele>165.26</ele>
        <time>2024-06-24T16:08:26.477Z</time>
      </trkpt>
      <trkpt lat="46.84248" lon="-0.39004">
        <ele>165.17</ele>
        <time>2024-06-24T16:08:28.605Z</time>
      </trkpt>
      <trkpt lat="46.84252" lon="-0.38999">
        <ele>165.08</ele>
        <time>2024-06-24T16:08:30.734Z</time>
      </trkpt>
      <trkpt lat="46.84257" lon="-0.38994">
        <ele>164.98</ele>
        <time>2024-06-24T16:08:32.864Z</time>
      </trkpt>
      <trkpt lat="46.84261" lon="-0.38988">
        <ele>164.88</ele>
        <time>2024-06-24T16:08:34.995Z</time>
      </trkpt>
      <trkpt lat="46.84265" lon="-0.38983">
        <ele>164.78</ele>
        <time>2024-06-24T16:08:37.127Z</time>
      </trkpt>
      <trkpt lat="46.84269" lon="-0.38978">
        <ele>164.68</ele>
        <time>2024-06-24T16:08:39.260Z</time>
      </trkpt>
      <trkpt lat="46.84273" lon="-0.38973">
        <ele>164.57</ele>
        <time>2024-06-24T16:08:41.394Z</time>
      </trkpt>
      <trkpt lat="46.84277" lon="-0.38967">
        <ele>164.47</ele>
        <time>2024-06-24T16:08:43.529Z</time>
      </trkpt>
      <trkpt lat="46.8428" lon="-0.38961">
        <ele>164.36</ele>
        <time>2024-06-24T16:08:45.665Z</time>
      </trkpt>
      <trkpt lat="46.84284" lon="-0.38954">
        <ele>164.25</ele>
        <time>2024-06-24T16:08:47.803Z</time>
      </trkpt>
      <trkpt lat="46.84288" lon="-0.38948">
        <ele>164.15</ele>
        <time>2024-06-24T16:08:49.942Z</time>
      </trkpt>
      <trkpt lat="46.84292" lon="-0.38942">
        <ele>164.04</ele>
        <time>2024-06-24T16:08:52.082Z</time>
      </trkpt>
      <trkpt lat="46.84296" lon="-0.38936">
        <ele>163.94</ele>
        <time>2024-06-24T16:08:54.223Z</time>
      </trkpt>
      <trkpt lat="46.843" lon="-0.3893">
        <ele>163.84</ele>
        <time>2024-06-24T16:08:56.365Z</time>
      </trkpt>
      <trkpt lat="46.84303" lon="-0.38924">
        <ele>163.75</ele>
        <time>2024-06-24T16:08:58.508Z</time>
      </trkpt>
      <trkpt lat="46.84307" lon="-0.38919">
        <ele>163.65</ele>
        <time>2024-06-24T16:09:00.652Z</time>
      </trkpt>
      <trkpt lat="46.8431" lon="-0.38913">
        <ele>163.56</ele>
        <time>2024-06-24T16:09:02.797Z</time>
      </trkpt>
      <trkpt lat="46.84314" lon="-0.38907">
        <ele>163.47</ele>
        <time>2024-06-24T16:09:04.943Z</time>
      </trkpt>
      <trkpt lat="46.84318" lon="-0.38901">
        <ele>163.38</ele>
        <time>2024-06-24T16:09:07.091Z</time>
      </trkpt>
      <trkpt lat="46.84321" lon="-0.38894">
        <ele>163.29</ele>
        <time>2024-06-24T16:09:09.240Z</time>
      </trkpt>
      <trkpt lat="46.84325" lon="-0.38888">
        <ele>163.21</ele>
        <time>2024-06-24T16:09:11.390Z</time>
      </trkpt>
      <trkpt lat="46.84328" lon="-0.38883">
        <ele>163.13</ele>
        <time>2024-06-24T16:09:13.541Z</time>
      </trkpt>
      <trkpt lat="46.84332" lon="-0.38876">
        <ele>163.05</ele>
        <time>2024-06-24T16:09:15.693Z</time>
      </trkpt>
      <trkpt lat="46.84336" lon="-0.3887">
        <ele>162.98</ele>
        <time>2024-06-24T16:09:17.846Z</time>
      </trkpt>
      <trkpt lat="46.8434" lon="-0.38864">
        <ele>162.91</ele>
        <time>2024-06-24T16:09:20.000Z</time>
      </trkpt>
      <trkpt lat="46.84344" lon="-0.38857">
        <ele>162.84</ele>
        <time>2024-06-24T16:09:22.156Z</time>
      </trkpt>
      <trkpt lat="46.84348" lon="-0.3885">
        <ele>162.78</ele>
        <time>2024-06-24T16:09:24.313Z</time>
      </trkpt>
      <trkpt lat="46.84352" lon="-0.38844">
        <ele>162.72</ele>
        <time>2024-06-24T16:09:26.471Z</time>
      </trkpt>
      <trkpt lat="46.84355" lon="-0.38838">
        <ele>162.66</ele>
        <time>2024-06-24T16:09:28.630Z</time>
      </trkpt>
      <trkpt lat="46.84358" lon="-0.38833">
        <ele>162.61</ele>
        <time>2024-06-24T16:09:30.790Z</time>
      </trkpt>
      <trkpt lat="46.84362" lon="-0.38826">
        <ele>162.56</ele>
        <time>2024-06-24T16:09:32.951Z</time>
      </trkpt>
      <trkpt lat="46.84365" lon="-0.38821">
        <ele>162.51</ele>
        <time>2024-06-24T16:09:35.113Z</time>
      </trkpt>
      <trkpt lat="46.84368" lon="-0.38815">
        <ele>162.47</ele>
        <time>2024-06-24T16:09:37.276Z</time>
      </trkpt>
      <trkpt lat="46.84372" lon="-0.3881">
        <ele>162.43</ele>
        <time>2024-06-24T16:09:39.440Z</time>
      </trkpt>
      <trkpt lat="46.84375" lon="-0.38805">
        <ele>162.4</ele>
        <time>2024-06-24T16:09:41.605Z</time>
      </trkpt>
      <trkpt lat="46.84375" lon="-0.388">
        <ele>162.37</ele>
        <time>2024-06-24T16:09:43.771Z</time>
      </trkpt>
      <trkpt lat="46.84374" lon="-0.38795">
        <ele>162.34</ele>
        <time>2024-06-24T16:09:45.937Z</time>
      </trkpt>
      <trkpt lat="46.84371" lon="-0.38789">
        <ele>162.33</ele>
        <time>2024-06-24T16:09:48.104Z</time>
      </trkpt>
      <trkpt lat="46.8437" lon="-0.38784">
        <ele>162.31</ele>
        <time>2024-06-24T16:09:50.272Z</time>
      </trkpt>
      <trkpt lat="46.84368" lon="-0.38779">
        <ele>162.3</ele>
        <time>2024-06-24T16:09:52.441Z</time>
      </trkpt>
      <trkpt lat="46.84366" lon="-0.38774">
        <ele>162.3</ele>
        <time>2024-06-24T16:09:54.611Z</time>
      </trkpt>
      <trkpt lat="46.84365" lon="-0.3877">
        <ele>162.29</ele>
        <time>2024-06-24T16:09:56.781Z</time>
      </trkpt>
      <trkpt lat="46.84363" lon="-0.38765">
        <ele>162.29</ele>
        <time>2024-06-24T16:09:58.952Z</time>
      </trkpt>
      <trkpt lat="46.84361" lon="-0.38759">
        <ele>162.3</ele>
        <time>2024-06-24T16:10:01.124Z</time>
      </trkpt>
      <trkpt lat="46.84359" lon="-0.38752">
        <ele>162.31</ele>
        <time>2024-06-24T16:10:03.297Z</time>
      </trkpt>
      <trkpt lat="46.84357" lon="-0.38746">
        <ele>162.33</ele>
        <time>2024-06-24T16:10:05.471Z</time>
      </trkpt>
      <trkpt lat="46.84354" lon="-0.38738">
        <ele>162.35</ele>
        <time>2024-06-24T16:10:07.646Z</time>
      </trkpt>
      <trkpt lat="46.84352" lon="-0.38729">
        <ele>162.38</ele>
        <time>2024-06-24T16:10:09.822Z</time>
      </trkpt>
      <trkpt lat="46.84349" lon="-0.38721">
        <ele>162.41</ele>
        <time>2024-06-24T16:10:12.000Z</time>
      </trkpt>
      <trkpt lat="46.84346" lon="-0.38715">
        <ele>162.45</ele>
        <time>2024-06-24T16:10:14.179Z</time>
      </trkpt>
      <trkpt lat="46.84344" lon="-0.38707">
        <ele>162.49</ele>
        <time>2024-06-24T16:10:16.359Z</time>
      </trkpt>
      <trkpt lat="46.84342" lon="-0.38701">
        <ele>162.53</ele>
        <time>2024-06-24T16:10:18.540Z</time>
      </trkpt>
      <trkpt lat="46.84339" lon="-0.38695">
        <ele>162.58</ele>
        <time>2024-06-24T16:10:20.722Z</time>
      </trkpt>
      <trkpt lat="46.84337" lon="-0.38689">
        <ele>162.63</ele>
        <time>2024-06-24T16:10:22.905Z</time>
      </trkpt>
      <trkpt lat="46.84334" lon="-0.38682">
        <ele>162.68</ele>
        <time>2024-06-24T16:10:25.089Z</time>
      </trkpt>
      <trkpt lat="46.84331" lon="-0.38675">
        <ele>162.74</ele>
        <time>2024-06-24T16:10:27.274Z</time>
      </trkpt>
      <trkpt lat="46.84327" lon="-0.38668">
        <ele>162.8</ele>
        <time>2024-06-24T16:10:29.460Z</time>
      </trkpt>
      <trkpt lat="46.84324" lon="-0.38662">
        <ele>162.86</ele>
        <time>2024-06-24T16:10:31.647Z</time>
      </trkpt>
      <trkpt lat="46.84321" lon="-0.38656">
        <ele>162.93</ele>
        <time>2024-06-24T16:10:33.835Z</time>
      </trkpt>
      <trkpt lat="46.84317" lon="-0.3865">
        <ele>163</ele>
        <time>2024-06-24T16:10:36.024Z</time>
      </trkpt>
      <trkpt lat="46.84314" lon="-0.38645">
        <ele>163.08</ele>
        <time>2024-06-24T16:10:38.214Z</time>
      </trkpt>
      <trkpt lat="46.8431" lon="-0.3864">
        <ele>163.15</ele>
        <time>2024-06-24T16:10:40.405Z</time>
      </trkpt>
      <trkpt lat="46.84307" lon="-0.38636">
        <ele>163.23</ele>
        <time>2024-06-24T16:10:42.597Z</time>
      </trkpt>
      <trkpt lat="46.84304" lon="-0.38631">
        <ele>163.31</ele>
        <time>2024-06-24T16:10:44.790Z</time>
      </trkpt>
      <trkpt lat="46.843" lon="-0.38626">
        <ele>163.38</ele>
        <time>2024-06-24T16:10:46.984Z</time>
      </trkpt>
      <trkpt lat="46.84297" lon="-0.38621">
        <ele>163.46</ele>
        <time>2024-06-24T16:10:49.179Z</time>
      </trkpt>
      <trkpt lat="46.84293" lon="-0.38616">
        <ele>163.54</ele>
        <time>2024-06-24T16:10:51.375Z</time>
      </trkpt>
      <trkpt lat="46.8429" lon="-0.38611">
        <ele>163.62</ele>
        <time>2024-06-24T16:10:53.572Z</time>
      </trkpt>
      <trkpt lat="46.84287" lon="-0.38607">
        <ele>163.7</ele>
        <time>2024-06-24T16:10:55.770Z</time>
      </trkpt>
      <trkpt lat="46.84284" lon="-0.38602">
        <ele>163.77</ele>
        <time>2024-06-24T16:10:57.969Z</time>
      </trkpt>
      <trkpt lat="46.8428" lon="-0.38597">
        <ele>163.84</ele>
        <time>2024-06-24T16:11:00.169Z</time>
      </trkpt>
      <trkpt lat="46.84276" lon="-0.38591">
        <ele>163.92</ele>
        <time>2024-06-24T16:11:02.370Z</time>
      </trkpt>
      <trkpt lat="46.84273" lon="-0.38585">
        <ele>164</ele>
        <time>2024-06-24T16:11:04.572Z</time>
      </trkpt>
      <trkpt lat="46.84271" lon="-0.38579">
        <ele>164.07</ele>
        <time>2024-06-24T16:11:06.775Z</time>
      </trkpt>
      <trkpt lat="46.84269" lon="-0.38573">
        <ele>164.15</ele>
        <time>2024-06-24T16:11:08.979Z</time>
      </trkpt>
      <trkpt lat="46.84268" lon="-0.38567">
        <ele>164.23</ele>
        <time>2024-06-24T16:11:11.184Z</time>
      </trkpt>
      <trkpt lat="46.84268" lon="-0.38561">
        <ele>164.3</ele>
        <time>2024-06-24T16:11:13.389Z</time>
      </trkpt>
      <trkpt lat="46.84268" lon="-0.38555">
        <ele>164.38</ele>
        <time>2024-06-24T16:11:15.595Z</time>
      </trkpt>
      <trkpt lat="46.84268" lon="-0.38547">
        <ele>164.46</ele>
        <time>2024-06-24T16:11:17.802Z</time>
      </trkpt>
      <trkpt lat="46.84268" lon="-0.3854">
        <ele>164.53</ele>
        <time>2024-06-24T16:11:20.010Z</time>
      </trkpt>
      <trkpt lat="46.84269" lon="-0.38534">
        <ele>164.6</ele>
        <time>2024-06-24T16:11:22.219Z</time>
      </trkpt>
      <trkpt lat="46.84269" lon="-0.38528">
        <ele>164.67</ele>
        <time>2024-06-24T16:11:24.429Z</time>
      </trkpt>
      <trkpt lat="46.84269" lon="-0.38521">
        <ele>164.74</ele>
        <time>2024-06-24T16:11:26.640Z</time>
      </trkpt>
      <trkpt lat="46.84269" lon="-0.38514">
        <ele>164.81</ele>
        <time>2024-06-24T16:11:28.852Z</time>
      </trkpt>
      <trkpt lat="46.84269" lon="-0.38506">
        <ele>164.88</ele>
        <time>2024-06-24T16:11:31.065Z</time>
      </trkpt>
      <trkpt lat="46.84269" lon="-0.38499">
        <ele>164.94</ele>
        <time>2024-06-24T16:11:33.279Z</time>
      </trkpt>
      <trkpt lat="46.84269" lon="-0.38492">
        <ele>165</ele>
        <time>2024-06-24T16:11:35.494Z</time>
      </trkpt>
      <trkpt lat="46.84269" lon="-0.38484">
        <ele>165.06</ele>
        <time>2024-06-24T16:11:37.710Z</time>
      </trkpt>
      <trkpt lat="46.84269" lon="-0.38476">
        <ele>165.12</ele>
        <time>2024-06-24T16:11:39.927Z</time>
      </trkpt>
      <trkpt lat="46.8427" lon="-0.38469">
        <ele>165.18</ele>
        <time>2024-06-24T16:11:42.145Z</time>
      </trkpt>
      <trkpt lat="46.8427" lon="-0.38462">
        <ele>165.23</ele>
        <time>2024-06-24T16:11:44.364Z</time>
      </trkpt>
      <trkpt lat="46.84269" lon="-0.38454">
        <ele>165.28</ele>
        <time>2024-06-24T16:11:46.584Z</time>
      </trkpt>
      <trkpt lat="46.84269" lon="-0.38446">
        <ele>165.32</ele>
        <time>2024-06-24T16:11:48.805Z</time>
      </trkpt>
      <trkpt lat="46.84269" lon="-0.38438">
        <ele>165.37</ele>
        <time>2024-06-24T16:11:51.027Z</time>
      </trkpt>
      <trkpt lat="46.84269" lon="-0.3843">
        <ele>165.42</ele>
        <time>2024-06-24T16:11:53.250Z</time>
      </trkpt>
      <trkpt lat="46.8427" lon="-0.38423">
        <ele>165.45</ele>
        <time>2024-06-24T16:11:55.474Z</time>
      </trkpt>
      <trkpt lat="46.8427" lon="-0.38416">
        <ele>165.49</ele>
        <time>2024-06-24T16:11:57.699Z</time>
      </trkpt>
      <trkpt lat="46.8427" lon="-0.38408">
        <ele>165.52</ele>
        <time>2024-06-24T16:11:59.925Z</time>
      </trkpt>
      <trkpt lat="46.8427" lon="-0.38401">
        <ele>165.55</ele>
        <time>2024-06-24T16:12:02.152Z</time>
      </trkpt>
      <trkpt lat="46.8427" lon="-0.38394">
        <ele>165.58</ele>
        <time>2024-06-24T16:12:04.380Z</time>
      </trkpt>
      <trkpt lat="46.8427" lon="-0.38386">
        <ele>165.6</ele>
        <time>2024-06-24T16:12:06.609Z</time>
      </trkpt>
      <trkpt lat="46.8427" lon="-0.38379">
        <ele>165.62</ele>
        <time>2024-06-24T16:12:08.839Z</time>
      </trkpt>
      <trkpt lat="46.8427" lon="-0.38373">
        <ele>165.64</ele>
        <time>2024-06-24T16:12:11.070Z</time>
      </trkpt>
      <trkpt lat="46.84271" lon="-0.38365">
        <ele>165.66</ele>
        <time>2024-06-24T16:12:13.302Z</time>
      </trkpt>
      <trkpt lat="46.84271" lon="-0.38358">
        <ele>165.68</ele>
        <time>2024-06-24T16:12:15.535Z</time>
      </trkpt>
      <trkpt lat="46.84272" lon="-0.38351">
        <ele>165.68</ele>
        <time>2024-06-24T16:12:17.769Z</time>
      </trkpt>
      <trkpt lat="46.84272" lon="-0.38343">
        <ele>165.69</ele>
        <time>2024-06-24T16:12:20.004Z</time>
      </trkpt>
      <trkpt lat="46.84272" lon="-0.38336">
        <ele>165.69</ele>
        <time>2024-06-24T16:12:22.240Z</time>
      </trkpt>
      <trkpt lat="46.84272" lon="-0.38328">
        <ele>165.7</ele>
        <time>2024-06-24T16:12:24.477Z</time>
      </trkpt>
      <trkpt lat="46.84272" lon="-0.38321">
        <ele>165.7</ele>
        <time>2024-06-24T16:12:26.715Z</time>
      </trkpt>
      <trkpt lat="46.84272" lon="-0.38313">
        <ele>165.7</ele>
        <time>2024-06-24T16:12:28.954Z</time>
      </trkpt>
      <trkpt lat="46.84272" lon="-0.38306">
        <ele>165.7</ele>
        <time>2024-06-24T16:12:31.195Z</time>
      </trkpt>
      <trkpt lat="46.84272" lon="-0.38298">
        <ele>165.7</ele>
        <time>2024-06-24T16:12:33.437Z</time>
      </trkpt>
      <trkpt lat="46.84272" lon="-0.38289">
        <ele>165.7</ele>
        <time>2024-06-24T16:12:35.680Z</time>
      </trkpt>
      <trkpt lat="46.84272" lon="-0.38281">
        <ele>165.69</ele>
        <time>2024-06-24T16:12:37.924Z</time>
      </trkpt>
      <trkpt lat="46.84272" lon="-0.38272">
        <ele>165.68</ele>
        <time>2024-06-24T16:12:40.169Z</time>
      </trkpt>
      <trkpt lat="46.84272" lon="-0.38264">
        <ele>165.67</ele>
        <time>2024-06-24T16:12:42.415Z</time>
      </trkpt>
      <trkpt lat="46.84272" lon="-0.38256">
        <ele>165.65</ele>
        <time>2024-06-24T16:12:44.662Z</time>
      </trkpt>
      <trkpt lat="46.84271" lon="-0.38248">
        <ele>165.64</ele>
        <time>2024-06-24T16:12:46.911Z</time>
      </trkpt>
      <trkpt lat="46.84272" lon="-0.38239">
        <ele>165.63</ele>
        <time>2024-06-24T16:12:49.161Z</time>
      </trkpt>
      <trkpt lat="46.84272" lon="-0.38231">
        <ele>165.62</ele>
        <time>2024-06-24T16:12:51.412Z</time>
      </trkpt>
      <trkpt lat="46.84272" lon="-0.38223">
        <ele>165.6</ele>
        <time>2024-06-24T16:12:53.664Z</time>
      </trkpt>
      <trkpt lat="46.84272" lon="-0.38214">
        <ele>165.59</ele>
        <time>2024-06-24T16:12:55.917Z</time>
      </trkpt>
      <trkpt lat="46.84273" lon="-0.38205">
        <ele>165.58</ele>
        <time>2024-06-24T16:12:58.171Z</time>
      </trkpt>
      <trkpt lat="46.84273" lon="-0.38197">
        <ele>165.58</ele>
        <time>2024-06-24T16:13:00.427Z</time>
      </trkpt>
      <trkpt lat="46.84273" lon="-0.38188">
        <ele>165.57</ele>
        <time>2024-06-24T16:13:02.684Z</time>
      </trkpt>
      <trkpt lat="46.84273" lon="-0.3818">
        <ele>165.57</ele>
        <time>2024-06-24T16:13:04.942Z</time>
      </trkpt>
      <trkpt lat="46.84273" lon="-0.38171">
        <ele>165.56</ele>
        <time>2024-06-24T16:13:07.201Z</time>
      </trkpt>
      <trkpt lat="46.84274" lon="-0.38163">
        <ele>165.54</ele>
        <time>2024-06-24T16:13:09.461Z</time>
      </trkpt>
      <trkpt lat="46.84273" lon="-0.38154">
        <ele>165.53</ele>
        <time>2024-06-24T16:13:11.722Z</time>
      </trkpt>
      <trkpt lat="46.84273" lon="-0.38145">
        <ele>165.52</ele>
        <time>2024-06-24T16:13:13.985Z</time>
      </trkpt>
      <trkpt lat="46.84273" lon="-0.38137">
        <ele>165.51</ele>
        <time>2024-06-24T16:13:16.249Z</time>
      </trkpt>
      <trkpt lat="46.84273" lon="-0.38128">
        <ele>165.5</ele>
        <time>2024-06-24T16:13:18.514Z</time>
      </trkpt>
      <trkpt lat="46.84273" lon="-0.38119">
        <ele>165.48</ele>
        <time>2024-06-24T16:13:20.780Z</time>
      </trkpt>
      <trkpt lat="46.84273" lon="-0.3811">
        <ele>165.47</ele>
        <time>2024-06-24T16:13:23.047Z</time>
      </trkpt>
      <trkpt lat="46.84273" lon="-0.38102">
        <ele>165.46</ele>
        <time>2024-06-24T16:13:25.315Z</time>
      </trkpt>
      <trkpt lat="46.84273" lon="-0.38094">
        <ele>165.45</ele>
        <time>2024-06-24T16:13:27.585Z</time>
      </trkpt>
      <trkpt lat="46.84273" lon="-0.38085">
        <ele>165.43</ele>
        <time>2024-06-24T16:13:29.856Z</time>
      </trkpt>
      <trkpt lat="46.84273" lon="-0.38076">
        <ele>165.42</ele>
        <time>2024-06-24T16:13:32.128Z</time>
      </trkpt>
      <trkpt lat="46.84274" lon="-0.38068">
        <ele>165.43</ele>
        <time>2024-06-24T16:13:34.401Z</time>
      </trkpt>
      <trkpt lat="46.84274" lon="-0.3806">
        <ele>165.43</ele>
        <time>2024-06-24T16:13:36.675Z</time>
      </trkpt>
      <trkpt lat="46.84273" lon="-0.38052">
        <ele>165.45</ele>
        <time>2024-06-24T16:13:38.950Z</time>
      </trkpt>
      <trkpt lat="46.84273" lon="-0.38044">
        <ele>165.46</ele>
        <time>2024-06-24T16:13:41.226Z</time>
      </trkpt>
      <trkpt lat="46.84274" lon="-0.38037">
        <ele>165.48</ele>
        <time>2024-06-24T16:13:43.503Z</time>
      </trkpt>
      <trkpt lat="46.84274" lon="-0.38029">
        <ele>165.49</ele>
        <time>2024-06-24T16:13:45.782Z</time>
      </trkpt>
      <trkpt lat="46.84274" lon="-0.38022">
        <ele>165.51</ele>
        <time>2024-06-24T16:13:48.061Z</time>
      </trkpt>
      <trkpt lat="46.84273" lon="-0.38014">
        <ele>165.53</ele>
        <time>2024-06-24T16:13:50.342Z</time>
      </trkpt>
      <trkpt lat="46.84273" lon="-0.38007">
        <ele>165.55</ele>
        <time>2024-06-24T16:13:52.624Z</time>
      </trkpt>
      <trkpt lat="46.84273" lon="-0.37999">
        <ele>165.57</ele>
        <time>2024-06-24T16:13:54.907Z</time>
      </trkpt>
      <trkpt lat="46.84273" lon="-0.37993">
        <ele>165.6</ele>
        <time>2024-06-24T16:13:57.191Z</time>
      </trkpt>
      <trkpt lat="46.84273" lon="-0.37987">
        <ele>165.63</ele>
        <time>2024-06-24T16:13:59.475Z</time>
      </trkpt>
      <trkpt lat="46.84273" lon="-0.3798">
        <ele>165.66</ele>
        <time>2024-06-24T16:14:01.760Z</time>
      </trkpt>
      <trkpt lat="46.84273" lon="-0.37972">
        <ele>165.69</ele>
        <time>2024-06-24T16:14:04.046Z</time>
      </trkpt>
      <trkpt lat="46.84272" lon="-0.37964">
        <ele>165.71</ele>
        <time>2024-06-24T16:14:06.333Z</time>
      </trkpt>
      <trkpt lat="46.84272" lon="-0.37958">
        <ele>165.74</ele>
        <time>2024-06-24T16:14:08.621Z</time>
      </trkpt>
      <trkpt lat="46.84271" lon="-0.37951">
        <ele>165.77</ele>
        <time>2024-06-24T16:14:10.910Z</time>
      </trkpt>
      <trkpt lat="46.84271" lon="-0.37945">
        <ele>165.81</ele>
        <time>2024-06-24T16:14:13.200Z</time>
      </trkpt>
      <trkpt lat="46.8427" lon="-0.37939">
        <ele>165.85</ele>
        <time>2024-06-24T16:14:15.491Z</time>
      </trkpt>
      <trkpt lat="46.84269" lon="-0.37934">
        <ele>165.89</ele>
        <time>2024-06-24T16:14:17.783Z</time>
      </trkpt>
      <trkpt lat="46.84268" lon="-0.37928">
        <ele>165.93</ele>
        <time>2024-06-24T16:14:20.076Z</time>
      </trkpt>
      <trkpt lat="46.84267" lon="-0.37922">
        <ele>165.97</ele>
        <time>2024-06-24T16:14:22.369Z</time>
      </trkpt>
      <trkpt lat="46.84266" lon="-0.37916">
        <ele>166.02</ele>
        <time>2024-06-24T16:14:24.663Z</time>
      </trkpt>
      <trkpt lat="46.84266" lon="-0.37911">
        <ele>166.06</ele>
        <time>2024-06-24T16:14:26.958Z</time>
      </trkpt>
      <trkpt lat="46.84265" lon="-0.37905">
        <ele>166.11</ele>
        <time>2024-06-24T16:14:29.254Z</time>
      </trkpt>
      <trkpt lat="46.84264" lon="-0.37898">
        <ele>166.16</ele>
        <time>2024-06-24T16:14:31.551Z</time>
      </trkpt>
      <trkpt lat="46.84264" lon="-0.37892">
        <ele>166.21</ele>
        <time>2024-06-24T16:14:33.849Z</time>
      </trkpt>
      <trkpt lat="46.84263" lon="-0.37886">
        <ele>166.27</ele>
        <time>2024-06-24T16:14:36.147Z</time>
      </trkpt>
      <trkpt lat="46.84263" lon="-0.3788">
        <ele>166.32</ele>
        <time>2024-06-24T16:14:38.446Z</time>
      </trkpt>
      <trkpt lat="46.84263" lon="-0.37876">
        <ele>166.38</ele>
        <time>2024-06-24T16:14:40.746Z</time>
      </trkpt>
      <trkpt lat="46.84263" lon="-0.3787">
        <ele>166.44</ele>
        <time>2024-06-24T16:14:43.047Z</time>
      </trkpt>
      <trkpt lat="46.84263" lon="-0.37865">
        <ele>166.5</ele>
        <time>2024-06-24T16:14:45.348Z</time>
      </trkpt>
      <trkpt lat="46.84263" lon="-0.3786">
        <ele>166.56</ele>
        <time>2024-06-24T16:14:47.650Z</time>
      </trkpt>
      <trkpt lat="46.84262" lon="-0.37854">
        <ele>166.63</ele>
        <time>2024-06-24T16:14:49.953Z</time>
      </trkpt>
      <trkpt lat="46.84261" lon="-0.37848">
        <ele>166.69</ele>
        <time>2024-06-24T16:14:52.257Z</time>
      </trkpt>
      <trkpt lat="46.84261" lon="-0.37842">
        <ele>166.76</ele>
        <time>2024-06-24T16:14:54.561Z</time>
      </trkpt>
      <trkpt lat="46.8426" lon="-0.37835">
        <ele>166.82</ele>
        <time>2024-06-24T16:14:56.866Z</time>
      </trkpt>
      <trkpt lat="46.8426" lon="-0.37829">
        <ele>166.89</ele>
        <time>2024-06-24T16:14:59.172Z</time>
      </trkpt>
      <trkpt lat="46.84259" lon="-0.37823">
        <ele>166.95</ele>
        <time>2024-06-24T16:15:01.479Z</time>
      </trkpt>
      <trkpt lat="46.84258" lon="-0.37816">
        <ele>167.02</ele>
        <time>2024-06-24T16:15:03.787Z</time>
      </trkpt>
      <trkpt lat="46.84257" lon="-0.37808">
        <ele>167.09</ele>
        <time>2024-06-24T16:15:06.096Z</time>
      </trkpt>
      <trkpt lat="46.84256" lon="-0.37802">
        <ele>167.15</ele>
        <time>2024-06-24T16:15:08.406Z</time>
      </trkpt>
      <trkpt lat="46.84255" lon="-0.37796">
        <ele>167.21</ele>
        <time>2024-06-24T16:15:10.717Z</time>
      </trkpt>
      <trkpt lat="46.84254" lon="-0.3779">
        <ele>167.28</ele>
        <time>2024-06-24T16:15:13.029Z</time>
      </trkpt>
      <trkpt lat="46.84252" lon="-0.37784">
        <ele>167.34</ele>
        <time>2024-06-24T16:15:15.342Z</time>
      </trkpt>
      <trkpt lat="46.8425" lon="-0.37777">
        <ele>167.4</ele>
        <time>2024-06-24T16:15:17.656Z</time>
      </trkpt>
      <trkpt lat="46.84249" lon="-0.37771">
        <ele>167.45</ele>
        <time>2024-06-24T16:15:19.971Z</time>
      </trkpt>
      <trkpt lat="46.84247" lon="-0.37764">
        <ele>167.51</ele>
        <time>2024-06-24T16:15:22.287Z</time>
      </trkpt>
      <trkpt lat="46.84245" lon="-0.37757">
        <ele>167.56</ele>
        <time>2024-06-24T16:15:24.604Z</time>
      </trkpt>
      <trkpt lat="46.84243" lon="-0.3775">
        <ele>167.62</ele>
        <time>2024-06-24T16:15:26.922Z</time>
      </trkpt>
      <trkpt lat="46.84241" lon="-0.37744">
        <ele>167.67</ele>
        <time>2024-06-24T16:15:29.240Z</time>
      </trkpt>
      <trkpt lat="46.8424" lon="-0.37738">
        <ele>167.73</ele>
        <time>2024-06-24T16:15:31.559Z</time>
      </trkpt>
      <trkpt lat="46.84238" lon="-0.37732">
        <ele>167.78</ele>
        <time>2024-06-24T16:15:33.879Z</time>
      </trkpt>
      <trkpt lat="46.84236" lon="-0.37726">
        <ele>167.84</ele>
        <time>2024-06-24T16:15:36.200Z</time>
      </trkpt>
      <trkpt lat="46.84234" lon="-0.37721">
        <ele>167.89</ele>
        <time>2024-06-24T16:15:38.522Z</time>
      </trkpt>
      <trkpt lat="46.84232" lon="-0.37714">
        <ele>167.95</ele>
        <time>2024-06-24T16:15:40.845Z</time>
      </trkpt>
      <trkpt lat="46.8423" lon="-0.37708">
        <ele>168</ele>
        <time>2024-06-24T16:15:43.169Z</time>
      </trkpt>
      <trkpt lat="46.84229" lon="-0.37702">
        <ele>168.06</ele>
        <time>2024-06-24T16:15:45.494Z</time>
      </trkpt>
      <trkpt lat="46.84227" lon="-0.37696">
        <ele>168.12</ele>
        <time>2024-06-24T16:15:47.820Z</time>
      </trkpt>
      <trkpt lat="46.84226" lon="-0.3769">
        <ele>168.17</ele>
        <time>2024-06-24T16:15:50.147Z</time>
      </trkpt>
      <trkpt lat="46.84224" lon="-0.37684">
        <ele>168.23</ele>
        <time>2024-06-24T16:15:52.474Z</time>
      </trkpt>
      <trkpt lat="46.84221" lon="-0.37677">
        <ele>168.28</ele>
        <time>2024-06-24T16:15:54.803Z</time>
      </trkpt>
      <trkpt lat="46.84219" lon="-0.37671">
        <ele>168.34</ele>
        <time>2024-06-24T16:15:57.132Z</time>
      </trkpt>
      <trkpt lat="46.84216" lon="-0.37665">
        <ele>168.41</ele>
        <time>2024-06-24T16:15:59.462Z</time>
      </trkpt>
      <trkpt lat="46.84214" lon="-0.37659">
        <ele>168.47</ele>
        <time>2024-06-24T16:16:01.793Z</time>
      </trkpt>
      <trkpt lat="46.8421" lon="-0.37653">
        <ele>168.53</ele>
        <time>2024-06-24T16:16:04.125Z</time>
      </trkpt>
      <trkpt lat="46.84207" lon="-0.37647">
        <ele>168.59</ele>
        <time>2024-06-24T16:16:06.459Z</time>
      </trkpt>
      <trkpt lat="46.84205" lon="-0.37642">
        <ele>168.64</ele>
        <time>2024-06-24T16:16:08.793Z</time>
      </trkpt>
      <trkpt lat="46.84202" lon="-0.37637">
        <ele>168.7</ele>
        <time>2024-06-24T16:16:11.128Z</time>
      </trkpt>
      <trkpt lat="46.84199" lon="-0.37631">
        <ele>168.77</ele>
        <time>2024-06-24T16:16:13.464Z</time>
      </trkpt>
      <trkpt lat="46.84196" lon="-0.37625">
        <ele>168.83</ele>
        <time>2024-06-24T16:16:15.801Z</time>
      </trkpt>
      <trkpt lat="46.84193" lon="-0.37618">
        <ele>168.89</ele>
        <time>2024-06-24T16:16:18.139Z</time>
      </trkpt>
      <trkpt lat="46.84189" lon="-0.37612">
        <ele>168.96</ele>
        <time>2024-06-24T16:16:20.479Z</time>
      </trkpt>
      <trkpt lat="46.84187" lon="-0.37606">
        <ele>169.02</ele>
        <time>2024-06-24T16:16:22.819Z</time>
      </trkpt>
      <trkpt lat="46.84184" lon="-0.376">
        <ele>169.09</ele>
        <time>2024-06-24T16:16:25.160Z</time>
      </trkpt>
      <trkpt lat="46.84181" lon="-0.37594">
        <ele>169.15</ele>
        <time>2024-06-24T16:16:27.503Z</time>
      </trkpt>
      <trkpt lat="46.84178" lon="-0.37588">
        <ele>169.21</ele>
        <time>2024-06-24T16:16:29.847Z</time>
      </trkpt>
      <trkpt lat="46.84175" lon="-0.37582">
        <ele>169.28</ele>
        <time>2024-06-24T16:16:32.192Z</time>
      </trkpt>
      <trkpt lat="46.84172" lon="-0.37576">
        <ele>169.35</ele>
        <time>2024-06-24T16:16:34.538Z</time>
      </trkpt>
      <trkpt lat="46.84169" lon="-0.37569">
        <ele>169.42</ele>
        <time>2024-06-24T16:16:36.885Z</time>
      </trkpt>
      <trkpt lat="46.84166" lon="-0.37563">
        <ele>169.49</ele>
        <time>2024-06-24T16:16:39.233Z</time>
      </trkpt>
      <trkpt lat="46.84163" lon="-0.37556">
        <ele>169.55</ele>
        <time>2024-06-24T16:16:41.582Z</time>
      </trkpt>
      <trkpt lat="46.8416" lon="-0.3755">
        <ele>169.61</ele>
        <time>2024-06-24T16:16:43.932Z</time>
      </trkpt>
      <trkpt lat="46.84157" lon="-0.37544">
        <ele>169.68</ele>
        <time>2024-06-24T16:16:46.283Z</time>
      </trkpt>
      <trkpt lat="46.84155" lon="-0.37538">
        <ele>169.74</ele>
        <time>2024-06-24T16:16:48.635Z</time>
      </trkpt>
      <trkpt lat="46.84152" lon="-0.37532">
        <ele>169.8</ele>
        <time>2024-06-24T16:16:50.988Z</time>
      </trkpt>
      <trkpt lat="46.84149" lon="-0.37526">
        <ele>169.86</ele>
        <time>2024-06-24T16:16:53.342Z</time>
      </trkpt>
      <trkpt lat="46.84146" lon="-0.3752">
        <ele>169.92</ele>
        <time>2024-06-24T16:16:55.697Z</time>
      </trkpt>
      <trkpt lat="46.84143" lon="-0.37514">
        <ele>169.98</ele>
        <time>2024-06-24T16:16:58.053Z</time>
      </trkpt>
      <trkpt lat="46.8414" lon="-0.37507">
        <ele>170.04</ele>
        <time>2024-06-24T16:17:00.410Z</time>
      </trkpt>
      <trkpt lat="46.84137" lon="-0.375">
        <ele>170.1</ele>
        <time>2024-06-24T16:17:02.768Z</time>
      </trkpt>
      <trkpt lat="46.84134" lon="-0.37494">
        <ele>170.16</ele>
        <time>2024-06-24T16:17:05.127Z</time>
      </trkpt>
      <trkpt lat="46.84132" lon="-0.37489">
        <ele>170.22</ele>
        <time>2024-06-24T16:17:07.487Z</time>
      </trkpt>
      <trkpt lat="46.84129" lon="-0.37483">
        <ele>170.29</ele>
        <time>2024-06-24T16:17:09.848Z</time>
      </trkpt>
      <trkpt lat="46.84126" lon="-0.37476">
        <ele>170.36</ele>
        <time>2024-06-24T16:17:12.210Z</time>
      </trkpt>
      <trkpt lat="46.84123" lon="-0.3747">
        <ele>170.42</ele>
        <time>2024-06-24T16:17:14.573Z</time>
      </trkpt>
      <trkpt lat="46.8412" lon="-0.37463">
        <ele>170.48</ele>
        <time>2024-06-24T16:17:16.937Z</time>
      </trkpt>
      <trkpt lat="46.84117" lon="-0.37457">
        <ele>170.54</ele>
        <time>2024-06-24T16:17:19.302Z</time>
      </trkpt>
      <trkpt lat="46.84114" lon="-0.37451">
        <ele>170.59</ele>
        <time>2024-06-24T16:17:21.668Z</time>
      </trkpt>
      <trkpt lat="46.84111" lon="-0.37445">
        <ele>170.65</ele>
        <time>2024-06-24T16:17:24.035Z</time>
      </trkpt>
      <trkpt lat="46.84108" lon="-0.37439">
        <ele>170.72</ele>
        <time>2024-06-24T16:17:26.403Z</time>
      </trkpt>
      <trkpt lat="46.84106" lon="-0.37432">
        <ele>170.79</ele>
        <time>2024-06-24T16:17:28.772Z</time>
      </trkpt>
      <trkpt lat="46.84103" lon="-0.37426">
        <ele>170.86</ele>
        <time>2024-06-24T16:17:31.142Z</time>
      </trkpt>
      <trkpt lat="46.841" lon="-0.37419">
        <ele>170.92</ele>
        <time>2024-06-24T16:17:33.514Z</time>
      </trkpt>
      <trkpt lat="46.84097" lon="-0.37413">
        <ele>170.99</ele>
        <time>2024-06-24T16:17:35.887Z</time>
      </trkpt>
      <trkpt lat="46.84094" lon="-0.37406">
        <ele>171.05</ele>
        <time>2024-06-24T16:17:38.261Z</time>
      </trkpt>
      <trkpt lat="46.84091" lon="-0.374">
        <ele>171.12</ele>
        <time>2024-06-24T16:17:40.636Z</time>
      </trkpt>
      <trkpt lat="46.84088" lon="-0.37393">
        <ele>171.18</ele>
        <time>2024-06-24T16:17:43.012Z</time>
      </trkpt>
      <trkpt lat="46.84085" lon="-0.37387">
        <ele>171.24</ele>
        <time>2024-06-24T16:17:45.389Z</time>
      </trkpt>
      <trkpt lat="46.84082" lon="-0.37381">
        <ele>171.3</ele>
        <time>2024-06-24T16:17:47.767Z</time>
      </trkpt>
      <trkpt lat="46.84079" lon="-0.37375">
        <ele>171.35</ele>
        <time>2024-06-24T16:17:50.146Z</time>
      </trkpt>
      <trkpt lat="46.84076" lon="-0.37369">
        <ele>171.4</ele>
        <time>2024-06-24T16:17:52.526Z</time>
      </trkpt>
      <trkpt lat="46.84072" lon="-0.37363">
        <ele>171.45</ele>
        <time>2024-06-24T16:17:54.907Z</time>
      </trkpt>
      <trkpt lat="46.8407" lon="-0.37357">
        <ele>171.5</ele>
        <time>2024-06-24T16:17:57.289Z</time>
      </trkpt>
      <trkpt lat="46.84067" lon="-0.3735">
        <ele>171.55</ele>
        <time>2024-06-24T16:17:59.672Z</time>
      </trkpt>
      <trkpt lat="46.84064" lon="-0.37344">
        <ele>171.6</ele>
        <time>2024-06-24T16:18:02.056Z</time>
      </trkpt>
      <trkpt lat="46.84061" lon="-0.37338">
        <ele>171.64</ele>
        <time>2024-06-24T16:18:04.441Z</time>
      </trkpt>
      <trkpt lat="46.84058" lon="-0.37332">
        <ele>171.69</ele>
        <time>2024-06-24T16:18:06.827Z</time>
      </trkpt>
      <trkpt lat="46.84056" lon="-0.37326">
        <ele>171.73</ele>
        <time>2024-06-24T16:18:09.214Z</time>
      </trkpt>
      <trkpt lat="46.84053" lon="-0.3732">
        <ele>171.76</ele>
        <time>2024-06-24T16:18:11.602Z</time>
      </trkpt>
      <trkpt lat="46.8405" lon="-0.37313">
        <ele>171.8</ele>
        <time>2024-06-24T16:18:13.991Z</time>
      </trkpt>
      <trkpt lat="46.84047" lon="-0.37307">
        <ele>171.84</ele>
        <time>2024-06-24T16:18:16.381Z</time>
      </trkpt>
      <trkpt lat="46.84044" lon="-0.37301">
        <ele>171.88</ele>
        <time>2024-06-24T16:18:18.772Z</time>
      </trkpt>
      <trkpt lat="46.84041" lon="-0.37295">
        <ele>171.92</ele>
        <time>2024-06-24T16:18:21.164Z</time>
      </trkpt>
      <trkpt lat="46.84038" lon="-0.37289">
        <ele>171.97</ele>
        <time>2024-06-24T16:18:23.557Z</time>
      </trkpt>
      <trkpt lat="46.84035" lon="-0.37282">
        <ele>172.01</ele>
        <time>2024-06-24T16:18:25.951Z</time>
      </trkpt>
      <trkpt lat="46.84032" lon="-0.37276">
        <ele>172.05</ele>
        <time>2024-06-24T16:18:28.346Z</time>
      </trkpt>
      <trkpt lat="46.84029" lon="-0.3727">
        <ele>172.09</ele>
        <time>2024-06-24T16:18:30.742Z</time>
      </trkpt>
      <trkpt lat="46.84027" lon="-0.37265">
        <ele>172.12</ele>
        <time>2024-06-24T16:18:33.139Z</time>
      </trkpt>
      <trkpt lat="46.84023" lon="-0.37261">
        <ele>172.15</ele>
        <time>2024-06-24T16:18:35.537Z</time>
      </trkpt>
      <trkpt lat="46.84019" lon="-0.3726">
        <ele>172.18</ele>
        <time>2024-06-24T16:18:37.936Z</time>
      </trkpt>
      <trkpt lat="46.84015" lon="-0.37262">
        <ele>172.21</ele>
        <time>2024-06-24T16:18:40.336Z</time>
      </trkpt>
      <trkpt lat="46.84011" lon="-0.37265">
        <ele>172.24</ele>
        <time>2024-06-24T16:18:42.737Z</time>
      </trkpt>
      <trkpt lat="46.84007" lon="-0.37268">
        <ele>172.26</ele>
        <time>2024-06-24T16:18:45.139Z</time>
      </trkpt>
      <trkpt lat="46.84003" lon="-0.37272">
        <ele>172.28</ele>
        <time>2024-06-24T16:18:47.542Z</time>
      </trkpt>
      <trkpt lat="46.83998" lon="-0.37275">
        <ele>172.3</ele>
        <time>2024-06-24T16:18:49.946Z</time>
      </trkpt>
      <trkpt lat="46.83993" lon="-0.37278">
        <ele>172.32</ele>
        <time>2024-06-24T16:18:52.351Z</time>
      </trkpt>
      <trkpt lat="46.83989" lon="-0.37281">
        <ele>172.34</ele>
        <time>2024-06-24T16:18:54.757Z</time>
      </trkpt>
      <trkpt lat="46.83985" lon="-0.37284">
        <ele>172.36</ele>
        <time>2024-06-24T16:18:57.164Z</time>
      </trkpt>
      <trkpt lat="46.83979" lon="-0.37288">
        <ele>172.38</ele>
        <time>2024-06-24T16:18:59.572Z</time>
      </trkpt>
      <trkpt lat="46.83975" lon="-0.37291">
        <ele>172.4</ele>
        <time>2024-06-24T16:19:01.981Z</time>
      </trkpt>
      <trkpt lat="46.83969" lon="-0.37294">
        <ele>172.42</ele>
        <time>2024-06-24T16:19:04.391Z</time>
      </trkpt>
      <trkpt lat="46.83964" lon="-0.37299">
        <ele>172.44</ele>
        <time>2024-06-24T16:19:06.802Z</time>
      </trkpt>
      <trkpt lat="46.83959" lon="-0.37302">
        <ele>172.46</ele>
        <time>2024-06-24T16:19:09.214Z</time>
      </trkpt>
      <trkpt lat="46.83953" lon="-0.37306">
        <ele>172.47</ele>
        <time>2024-06-24T16:19:11.628Z</time>
      </trkpt>
      <trkpt lat="46.83949" lon="-0.3731">
        <ele>172.48</ele>
        <time>2024-06-24T16:19:14.043Z</time>
      </trkpt>
      <trkpt lat="46.83944" lon="-0.37314">
        <ele>172.49</ele>
        <time>2024-06-24T16:19:16.459Z</time>
      </trkpt>
      <trkpt lat="46.83939" lon="-0.37317">
        <ele>172.49</ele>
        <time>2024-06-24T16:19:18.876Z</time>
      </trkpt>
      <trkpt lat="46.83934" lon="-0.3732">
        <ele>172.5</ele>
        <time>2024-06-24T16:19:21.294Z</time>
      </trkpt>
      <trkpt lat="46.83928" lon="-0.37323">
        <ele>172.5</ele>
        <time>2024-06-24T16:19:23.713Z</time>
      </trkpt>
      <trkpt lat="46.83923" lon="-0.37327">
        <ele>172.5</ele>
        <time>2024-06-24T16:19:26.133Z</time>
      </trkpt>
      <trkpt lat="46.83917" lon="-0.37331">
        <ele>172.5</ele>
        <time>2024-06-24T16:19:28.555Z</time>
      </trkpt>
      <trkpt lat="46.83912" lon="-0.37335">
        <ele>172.5</ele>
        <time>2024-06-24T16:19:30.978Z</time>
      </trkpt>
      <trkpt lat="46.83907" lon="-0.37338">
        <ele>172.5</ele>
        <time>2024-06-24T16:19:33.402Z</time>
      </trkpt>
      <trkpt lat="46.83902" lon="-0.37342">
        <ele>172.5</ele>
        <time>2024-06-24T16:19:35.827Z</time>
      </trkpt>
      <trkpt lat="46.83896" lon="-0.37345">
        <ele>172.5</ele>
        <time>2024-06-24T16:19:38.253Z</time>
      </trkpt>
      <trkpt lat="46.83891" lon="-0.37349">
        <ele>172.5</ele>
        <time>2024-06-24T16:19:40.680Z</time>
      </trkpt>
      <trkpt lat="46.83885" lon="-0.37352">
        <ele>172.5</ele>
        <time>2024-06-24T16:19:43.109Z</time>
      </trkpt>
      <trkpt lat="46.8388" lon="-0.37356">
        <ele>172.5</ele>
        <time>2024-06-24T16:19:45.539Z</time>
      </trkpt>
      <trkpt lat="46.83875" lon="-0.37359">
        <ele>172.49</ele>
        <time>2024-06-24T16:19:47.970Z</time>
      </trkpt>
      <trkpt lat="46.8387" lon="-0.37363">
        <ele>172.49</ele>
        <time>2024-06-24T16:19:50.402Z</time>
      </trkpt>
      <trkpt lat="46.83866" lon="-0.37366">
        <ele>172.48</ele>
        <time>2024-06-24T16:19:52.835Z</time>
      </trkpt>
      <trkpt lat="46.83861" lon="-0.37369">
        <ele>172.46</ele>
        <time>2024-06-24T16:19:55.269Z</time>
      </trkpt>
      <trkpt lat="46.83857" lon="-0.37373">
        <ele>172.44</ele>
        <time>2024-06-24T16:19:57.704Z</time>
      </trkpt>
      <trkpt lat="46.83852" lon="-0.37376">
        <ele>172.42</ele>
        <time>2024-06-24T16:20:00.140Z</time>
      </trkpt>
      <trkpt lat="46.83847" lon="-0.37379">
        <ele>172.4</ele>
        <time>2024-06-24T16:20:02.577Z</time>
      </trkpt>
      <trkpt lat="46.83842" lon="-0.37383">
        <ele>172.38</ele>
        <time>2024-06-24T16:20:05.015Z</time>
      </trkpt>
      <trkpt lat="46.83837" lon="-0.37387">
        <ele>172.35</ele>
        <time>2024-06-24T16:20:07.454Z</time>
      </trkpt>
      <trkpt lat="46.83832" lon="-0.3739">
        <ele>172.32</ele>
        <time>2024-06-24T16:20:09.894Z</time>
      </trkpt>
      <trkpt lat="46.83828" lon="-0.37393">
        <ele>172.28</ele>
        <time>2024-06-24T16:20:12.335Z</time>
      </trkpt>
      <trkpt lat="46.83822" lon="-0.37396">
        <ele>172.24</ele>
        <time>2024-06-24T16:20:14.778Z</time>
      </trkpt>
      <trkpt lat="46.83817" lon="-0.374">
        <ele>172.2</ele>
        <time>2024-06-24T16:20:17.222Z</time>
      </trkpt>
      <trkpt lat="46.83812" lon="-0.37403">
        <ele>172.16</ele>
        <time>2024-06-24T16:20:19.667Z</time>
      </trkpt>
      <trkpt lat="46.83807" lon="-0.37407">
        <ele>172.12</ele>
        <time>2024-06-24T16:20:22.113Z</time>
      </trkpt>
      <trkpt lat="46.83802" lon="-0.37411">
        <ele>172.07</ele>
        <time>2024-06-24T16:20:24.560Z</time>
      </trkpt>
      <trkpt lat="46.83797" lon="-0.37414">
        <ele>172.02</ele>
        <time>2024-06-24T16:20:27.008Z</time>
      </trkpt>
      <trkpt lat="46.83792" lon="-0.37418">
        <ele>171.96</ele>
        <time>2024-06-24T16:20:29.457Z</time>
      </trkpt>
      <trkpt lat="46.83786" lon="-0.37421">
        <ele>171.91</ele>
        <time>2024-06-24T16:20:31.908Z</time>
      </trkpt>
      <trkpt lat="46.83781" lon="-0.37423">
        <ele>171.85</ele>
        <time>2024-06-24T16:20:34.360Z</time>
      </trkpt>
      <trkpt lat="46.83776" lon="-0.37426">
        <ele>171.8</ele>
        <time>2024-06-24T16:20:36.813Z</time>
      </trkpt>
      <trkpt lat="46.83771" lon="-0.37429">
        <ele>171.74</ele>
        <time>2024-06-24T16:20:39.267Z</time>
      </trkpt>
      <trkpt lat="46.83766" lon="-0.37432">
        <ele>171.67</ele>
        <time>2024-06-24T16:20:41.722Z</time>
      </trkpt>
      <trkpt lat="46.8376" lon="-0.37435">
        <ele>171.6</ele>
        <time>2024-06-24T16:20:44.178Z</time>
      </trkpt>
      <trkpt lat="46.83754" lon="-0.37438">
        <ele>171.53</ele>
        <time>2024-06-24T16:20:46.635Z</time>
      </trkpt>
      <trkpt lat="46.83749" lon="-0.3744">
        <ele>171.46</ele>
        <time>2024-06-24T16:20:49.094Z</time>
      </trkpt>
      <trkpt lat="46.83743" lon="-0.37442">
        <ele>171.38</ele>
        <time>2024-06-24T16:20:51.554Z</time>
      </trkpt>
      <trkpt lat="46.83738" lon="-0.37445">
        <ele>171.3</ele>
        <time>2024-06-24T16:20:54.015Z</time>
      </trkpt>
      <trkpt lat="46.83732" lon="-0.37446">
        <ele>171.21</ele>
        <time>2024-06-24T16:20:56.477Z</time>
      </trkpt>
      <trkpt lat="46.83726" lon="-0.37447">
        <ele>171.12</ele>
        <time>2024-06-24T16:20:58.940Z</time>
      </trkpt>
      <trkpt lat="46.83721" lon="-0.37448">
        <ele>171.03</ele>
        <time>2024-06-24T16:21:01.404Z</time>
      </trkpt>
      <trkpt lat="46.83716" lon="-0.3745">
        <ele>170.94</ele>
        <time>2024-06-24T16:21:03.869Z</time>
      </trkpt>
      <trkpt lat="46.8371" lon="-0.37452">
        <ele>170.84</ele>
        <time>2024-06-24T16:21:06.335Z</time>
      </trkpt>
      <trkpt lat="46.83704" lon="-0.37453">
        <ele>170.74</ele>
        <time>2024-06-24T16:21:08.803Z</time>
      </trkpt>
      <trkpt lat="46.83699" lon="-0.37455">
        <ele>170.63</ele>
        <time>2024-06-24T16:21:11.272Z</time>
      </trkpt>
      <trkpt lat="46.83693" lon="-0.37456">
        <ele>170.53</ele>
        <time>2024-06-24T16:21:13.742Z</time>
      </trkpt>
      <trkpt lat="46.83687" lon="-0.37458">
        <ele>170.42</ele>
        <time>2024-06-24T16:21:16.213Z</time>
      </trkpt>
      <trkpt lat="46.83682" lon="-0.37459">
        <ele>170.3</ele>
        <time>2024-06-24T16:21:18.685Z</time>
      </trkpt>
      <trkpt lat="46.83676" lon="-0.3746">
        <ele>170.17</ele>
        <time>2024-06-24T16:21:21.158Z</time>
      </trkpt>
      <trkpt lat="46.8367" lon="-0.37461">
        <ele>170.05</ele>
        <time>2024-06-24T16:21:23.633Z</time>
      </trkpt>
      <trkpt lat="46.83664" lon="-0.37463">
        <ele>169.93</ele>
        <time>2024-06-24T16:21:26.109Z</time>
      </trkpt>
      <trkpt lat="46.83659" lon="-0.37464">
        <ele>169.8</ele>
        <time>2024-06-24T16:21:28.586Z</time>
      </trkpt>
      <trkpt lat="46.83653" lon="-0.37465">
        <ele>169.67</ele>
        <time>2024-06-24T16:21:31.064Z</time>
      </trkpt>
      <trkpt lat="46.83647" lon="-0.37466">
        <ele>169.54</ele>
        <time>2024-06-24T16:21:33.543Z</time>
      </trkpt>
      <trkpt lat="46.83641" lon="-0.37468">
        <ele>169.41</ele>
        <time>2024-06-24T16:21:36.023Z</time>
      </trkpt>
      <trkpt lat="46.83636" lon="-0.3747">
        <ele>169.28</ele>
        <time>2024-06-24T16:21:38.505Z</time>
      </trkpt>
      <trkpt lat="46.8363" lon="-0.37471">
        <ele>169.14</ele>
        <time>2024-06-24T16:21:40.988Z</time>
      </trkpt>
      <trkpt lat="46.83624" lon="-0.37472">
        <ele>169</ele>
        <time>2024-06-24T16:21:43.472Z</time>
      </trkpt>
      <trkpt lat="46.83618" lon="-0.37473">
        <ele>168.86</ele>
        <time>2024-06-24T16:21:45.957Z</time>
      </trkpt>
      <trkpt lat="46.83612" lon="-0.37475">
        <ele>168.72</ele>
        <time>2024-06-24T16:21:48.443Z</time>
      </trkpt>
      <trkpt lat="46.83606" lon="-0.37476">
        <ele>168.57</ele>
        <time>2024-06-24T16:21:50.931Z</time>
      </trkpt>
      <trkpt lat="46.836" lon="-0.37478">
        <ele>168.42</ele>
        <time>2024-06-24T16:21:53.420Z</time>
      </trkpt>
      <trkpt lat="46.83594" lon="-0.3748">
        <ele>168.28</ele>
        <time>2024-06-24T16:21:55.910Z</time>
      </trkpt>
      <trkpt lat="46.83588" lon="-0.37482">
        <ele>168.12</ele>
        <time>2024-06-24T16:21:58.401Z</time>
      </trkpt>
      <trkpt lat="46.83582" lon="-0.37485">
        <ele>167.96</ele>
        <time>2024-06-24T16:22:00.893Z</time>
      </trkpt>
      <trkpt lat="46.83576" lon="-0.37488">
        <ele>167.8</ele>
        <time>2024-06-24T16:22:03.387Z</time>
      </trkpt>
      <trkpt lat="46.83571" lon="-0.37491">
        <ele>167.64</ele>
        <time>2024-06-24T16:22:05.882Z</time>
      </trkpt>
      <trkpt lat="46.83565" lon="-0.37495">
        <ele>167.48</ele>
        <time>2024-06-24T16:22:08.378Z</time>
      </trkpt>
      <trkpt lat="46.83559" lon="-0.37499">
        <ele>167.32</ele>
        <time>2024-06-24T16:22:10.875Z</time>
      </trkpt>
      <trkpt lat="46.83553" lon="-0.37502">
        <ele>167.15</ele>
        <time>2024-06-24T16:22:13.374Z</time>
      </trkpt>
      <trkpt lat="46.83548" lon="-0.37506">
        <ele>166.99</ele>
        <time>2024-06-24T16:22:15.874Z</time>
      </trkpt>
      <trkpt lat="46.83542" lon="-0.3751">
        <ele>166.82</ele>
        <time>2024-06-24T16:22:18.375Z</time>
      </trkpt>
      <trkpt lat="46.83536" lon="-0.37513">
        <ele>166.65</ele>
        <time>2024-06-24T16:22:20.877Z</time>
      </trkpt>
      <trkpt lat="46.83531" lon="-0.37517">
        <ele>166.49</ele>
        <time>2024-06-24T16:22:23.381Z</time>
      </trkpt>
      <trkpt lat="46.83526" lon="-0.3752">
        <ele>166.32</ele>
        <time>2024-06-24T16:22:25.886Z</time>
      </trkpt>
      <trkpt lat="46.8352" lon="-0.37523">
        <ele>166.15</ele>
        <time>2024-06-24T16:22:28.392Z</time>
      </trkpt>
      <trkpt lat="46.83514" lon="-0.37526">
        <ele>165.98</ele>
        <time>2024-06-24T16:22:30.899Z</time>
      </trkpt>
      <trkpt lat="46.83509" lon="-0.3753">
        <ele>165.82</ele>
        <time>2024-06-24T16:22:33.407Z</time>
      </trkpt>
      <trkpt lat="46.83503" lon="-0.37534">
        <ele>165.65</ele>
        <time>2024-06-24T16:22:35.917Z</time>
      </trkpt>
      <trkpt lat="46.83498" lon="-0.37537">
        <ele>165.49</ele>
        <time>2024-06-24T16:22:38.428Z</time>
      </trkpt>
      <trkpt lat="46.83492" lon="-0.37541">
        <ele>165.33</ele>
        <time>2024-06-24T16:22:40.940Z</time>
      </trkpt>
      <trkpt lat="46.83486" lon="-0.37544">
        <ele>165.17</ele>
        <time>2024-06-24T16:22:43.453Z</time>
      </trkpt>
      <trkpt lat="46.83481" lon="-0.37548">
        <ele>165.01</ele>
        <time>2024-06-24T16:22:45.968Z</time>
      </trkpt>
      <trkpt lat="46.83475" lon="-0.37552">
        <ele>164.86</ele>
        <time>2024-06-24T16:22:48.484Z</time>
      </trkpt>
      <trkpt lat="46.8347" lon="-0.37556">
        <ele>164.7</ele>
        <time>2024-06-24T16:22:51.001Z</time>
      </trkpt>
      <trkpt lat="46.83465" lon="-0.3756">
        <ele>164.54</ele>
        <time>2024-06-24T16:22:53.519Z</time>
      </trkpt>
      <trkpt lat="46.8346" lon="-0.37564">
        <ele>164.38</ele>
        <time>2024-06-24T16:22:56.038Z</time>
      </trkpt>
      <trkpt lat="46.83454" lon="-0.37568">
        <ele>164.23</ele>
        <time>2024-06-24T16:22:58.559Z</time>
      </trkpt>
      <trkpt lat="46.83448" lon="-0.37571">
        <ele>164.07</ele>
        <time>2024-06-24T16:23:01.081Z</time>
      </trkpt>
      <trkpt lat="46.83443" lon="-0.37574">
        <ele>163.92</ele>
        <time>2024-06-24T16:23:03.604Z</time>
      </trkpt>
      <trkpt lat="46.83438" lon="-0.37577">
        <ele>163.77</ele>
        <time>2024-06-24T16:23:06.128Z</time>
      </trkpt>
      <trkpt lat="46.83432" lon="-0.37579">
        <ele>163.62</ele>
        <time>2024-06-24T16:23:08.653Z</time>
      </trkpt>
      <trkpt lat="46.83426" lon="-0.37581">
        <ele>163.48</ele>
        <time>2024-06-24T16:23:11.179Z</time>
      </trkpt>
      <trkpt lat="46.83421" lon="-0.37582">
        <ele>163.34</ele>
        <time>2024-06-24T16:23:13.707Z</time>
      </trkpt>
      <trkpt lat="46.83415" lon="-0.37584">
        <ele>163.2</ele>
        <time>2024-06-24T16:23:16.236Z</time>
      </trkpt>
      <trkpt lat="46.83409" lon="-0.37585">
        <ele>163.07</ele>
        <time>2024-06-24T16:23:18.766Z</time>
      </trkpt>
      <trkpt lat="46.83403" lon="-0.37587">
        <ele>162.94</ele>
        <time>2024-06-24T16:23:21.297Z</time>
      </trkpt>
      <trkpt lat="46.83397" lon="-0.37589">
        <ele>162.82</ele>
        <time>2024-06-24T16:23:23.829Z</time>
      </trkpt>
      <trkpt lat="46.83392" lon="-0.3759">
        <ele>162.71</ele>
        <time>2024-06-24T16:23:26.362Z</time>
      </trkpt>
      <trkpt lat="46.83387" lon="-0.37592">
        <ele>162.6</ele>
        <time>2024-06-24T16:23:28.896Z</time>
      </trkpt>
      <trkpt lat="46.83382" lon="-0.37593">
        <ele>162.49</ele>
        <time>2024-06-24T16:23:31.431Z</time>
      </trkpt>
      <trkpt lat="46.83377" lon="-0.37594">
        <ele>162.39</ele>
        <time>2024-06-24T16:23:33.968Z</time>
      </trkpt>
      <trkpt lat="46.83371" lon="-0.37596">
        <ele>162.29</ele>
        <time>2024-06-24T16:23:36.506Z</time>
      </trkpt>
      <trkpt lat="46.83366" lon="-0.37598">
        <ele>162.19</ele>
        <time>2024-06-24T16:23:39.045Z</time>
      </trkpt>
      <trkpt lat="46.8336" lon="-0.376">
        <ele>162.1</ele>
        <time>2024-06-24T16:23:41.585Z</time>
      </trkpt>
      <trkpt lat="46.83356" lon="-0.37601">
        <ele>162.01</ele>
        <time>2024-06-24T16:23:44.126Z</time>
      </trkpt>
      <trkpt lat="46.83351" lon="-0.37603">
        <ele>161.93</ele>
        <time>2024-06-24T16:23:46.668Z</time>
      </trkpt>
      <trkpt lat="46.83347" lon="-0.37605">
        <ele>161.85</ele>
        <time>2024-06-24T16:23:49.211Z</time>
      </trkpt>
      <trkpt lat="46.83344" lon="-0.37606">
        <ele>161.78</ele>
        <time>2024-06-24T16:23:51.754Z</time>
      </trkpt>
      <trkpt lat="46.83341" lon="-0.37607">
        <ele>161.72</ele>
        <time>2024-06-24T16:23:54.298Z</time>
      </trkpt>
      <trkpt lat="46.83339" lon="-0.37608">
        <ele>161.66</ele>
        <time>2024-06-24T16:23:56.842Z</time>
      </trkpt>
      <trkpt lat="46.83337" lon="-0.3761">
        <ele>161.6</ele>
        <time>2024-06-24T16:23:59.387Z</time>
      </trkpt>
      <trkpt lat="46.83335" lon="-0.37612">
        <ele>161.55</ele>
        <time>2024-06-24T16:24:01.932Z</time>
      </trkpt>
      <trkpt lat="46.83332" lon="-0.37614">
        <ele>161.5</ele>
        <time>2024-06-24T16:24:04.478Z</time>
      </trkpt>
      <trkpt lat="46.83328" lon="-0.37615">
        <ele>161.46</ele>
        <time>2024-06-24T16:24:07.025Z</time>
      </trkpt>
      <trkpt lat="46.83325" lon="-0.37616">
        <ele>161.43</ele>
        <time>2024-06-24T16:24:09.572Z</time>
      </trkpt>
      <trkpt lat="46.8332" lon="-0.37617">
        <ele>161.4</ele>
        <time>2024-06-24T16:24:12.120Z</time>
      </trkpt>
      <trkpt lat="46.83315" lon="-0.37618">
        <ele>161.37</ele>
        <time>2024-06-24T16:24:14.669Z</time>
      </trkpt>
      <trkpt lat="46.83309" lon="-0.37619">
        <ele>161.36</ele>
        <time>2024-06-24T16:24:17.220Z</time>
      </trkpt>
      <trkpt lat="46.83303" lon="-0.37617">
        <ele>161.35</ele>
        <time>2024-06-24T16:24:19.772Z</time>
      </trkpt>
      <trkpt lat="46.83298" lon="-0.37613">
        <ele>161.35</ele>
        <time>2024-06-24T16:24:22.325Z</time>
      </trkpt>
      <trkpt lat="46.83293" lon="-0.37607">
        <ele>161.35</ele>
        <time>2024-06-24T16:24:24.879Z</time>
      </trkpt>
      <trkpt lat="46.83289" lon="-0.37599">
        <ele>161.36</ele>
        <time>2024-06-24T16:24:27.435Z</time>
      </trkpt>
      <trkpt lat="46.83285" lon="-0.37591">
        <ele>161.38</ele>
        <time>2024-06-24T16:24:29.992Z</time>
      </trkpt>
      <trkpt lat="46.83282" lon="-0.37584">
        <ele>161.4</ele>
        <time>2024-06-24T16:24:32.550Z</time>
      </trkpt>
      <trkpt lat="46.83278" lon="-0.37576">
        <ele>161.43</ele>
        <time>2024-06-24T16:24:35.109Z</time>
      </trkpt>
      <trkpt lat="46.83275" lon="-0.37568">
        <ele>161.46</ele>
        <time>2024-06-24T16:24:37.670Z</time>
      </trkpt>
      <trkpt lat="46.83272" lon="-0.37561">
        <ele>161.5</ele>
        <time>2024-06-24T16:24:40.232Z</time>
      </trkpt>
      <trkpt lat="46.83269" lon="-0.37554">
        <ele>161.54</ele>
        <time>2024-06-24T16:24:42.795Z</time>
      </trkpt>
      <trkpt lat="46.83266" lon="-0.37546">
        <ele>161.58</ele>
        <time>2024-06-24T16:24:45.359Z</time>
      </trkpt>
      <trkpt lat="46.83263" lon="-0.37538">
        <ele>161.64</ele>
        <time>2024-06-24T16:24:47.924Z</time>
      </trkpt>
      <trkpt lat="46.8326" lon="-0.37531">
        <ele>161.7</ele>
        <time>2024-06-24T16:24:50.491Z</time>
      </trkpt>
      <trkpt lat="46.83257" lon="-0.37524">
        <ele>161.77</ele>
        <time>2024-06-24T16:24:53.059Z</time>
      </trkpt>
      <trkpt lat="46.83254" lon="-0.37518">
        <ele>161.85</ele>
        <time>2024-06-24T16:24:55.628Z</time>
      </trkpt>
      <trkpt lat="46.83251" lon="-0.37511">
        <ele>161.93</ele>
        <time>2024-06-24T16:24:58.198Z</time>
      </trkpt>
      <trkpt lat="46.83248" lon="-0.37504">
        <ele>162.02</ele>
        <time>2024-06-24T16:25:00.769Z</time>
      </trkpt>
      <trkpt lat="46.83246" lon="-0.37498">
        <ele>162.11</ele>
        <time>2024-06-24T16:25:03.341Z</time>
      </trkpt>
      <trkpt lat="46.83243" lon="-0.37491">
        <ele>162.2</ele>
        <time>2024-06-24T16:25:05.914Z</time>
      </trkpt>
      <trkpt lat="46.83241" lon="-0.37485">
        <ele>162.3</ele>
        <time>2024-06-24T16:25:08.488Z</time>
      </trkpt>
      <trkpt lat="46.83238" lon="-0.37478">
        <ele>162.4</ele>
        <time>2024-06-24T16:25:11.063Z</time>
      </trkpt>
      <trkpt lat="46.83236" lon="-0.37472">
        <ele>162.51</ele>
        <time>2024-06-24T16:25:13.639Z</time>
      </trkpt>
      <trkpt lat="46.83233" lon="-0.37466">
        <ele>162.62</ele>
        <time>2024-06-24T16:25:16.216Z</time>
      </trkpt>
      <trkpt lat="46.83231" lon="-0.3746">
        <ele>162.73</ele>
        <time>2024-06-24T16:25:18.794Z</time>
      </trkpt>
      <trkpt lat="46.83228" lon="-0.37454">
        <ele>162.85</ele>
        <time>2024-06-24T16:25:21.373Z</time>
      </trkpt>
      <trkpt lat="46.83226" lon="-0.37449">
        <ele>162.96</ele>
        <time>2024-06-24T16:25:23.953Z</time>
      </trkpt>
      <trkpt lat="46.83224" lon="-0.37443">
        <ele>163.08</ele>
        <time>2024-06-24T16:25:26.534Z</time>
      </trkpt>
      <trkpt lat="46.83221" lon="-0.37439">
        <ele>163.2</ele>
        <time>2024-06-24T16:25:29.115Z</time>
      </trkpt>
      <trkpt lat="46.83219" lon="-0.37433">
        <ele>163.32</ele>
        <time>2024-06-24T16:25:31.697Z</time>
      </trkpt>
      <trkpt lat="46.83217" lon="-0.37428">
        <ele>163.44</ele>
        <time>2024-06-24T16:25:34.280Z</time>
      </trkpt>
      <trkpt lat="46.83214" lon="-0.37423">
        <ele>163.56</ele>
        <time>2024-06-24T16:25:36.864Z</time>
      </trkpt>
      <trkpt lat="46.83212" lon="-0.37418">
        <ele>163.67</ele>
        <time>2024-06-24T16:25:39.449Z</time>
      </trkpt>
      <trkpt lat="46.8321" lon="-0.37412">
        <ele>163.79</ele>
        <time>2024-06-24T16:25:42.035Z</time>
      </trkpt>
      <trkpt lat="46.83207" lon="-0.37408">
        <ele>163.91</ele>
        <time>2024-06-24T16:25:44.622Z</time>
      </trkpt>
      <trkpt lat="46.83205" lon="-0.37402">
        <ele>164.02</ele>
        <time>2024-06-24T16:25:47.209Z</time>
      </trkpt>
      <trkpt lat="46.83203" lon="-0.37398">
        <ele>164.14</ele>
        <time>2024-06-24T16:25:49.797Z</time>
      </trkpt>
      <trkpt lat="46.83201" lon="-0.37393">
        <ele>164.25</ele>
        <time>2024-06-24T16:25:52.386Z</time>
      </trkpt>
      <trkpt lat="46.83199" lon="-0.37388">
        <ele>164.35</ele>
        <time>2024-06-24T16:25:54.976Z</time>
      </trkpt>
      <trkpt lat="46.83196" lon="-0.37384">
        <ele>164.45</ele>
        <time>2024-06-24T16:25:57.566Z</time>
      </trkpt>
      <trkpt lat="46.83194" lon="-0.3738">
        <ele>164.55</ele>
        <time>2024-06-24T16:26:00.157Z</time>
      </trkpt>
      <trkpt lat="46.83192" lon="-0.37374">
        <ele>164.64</ele>
        <time>2024-06-24T16:26:02.749Z</time>
      </trkpt>
      <trkpt lat="46.83189" lon="-0.37369">
        <ele>164.73</ele>
        <time>2024-06-24T16:26:05.342Z</time>
      </trkpt>
      <trkpt lat="46.83187" lon="-0.37365">
        <ele>164.82</ele>
        <time>2024-06-24T16:26:07.936Z</time>
      </trkpt>
      <trkpt lat="46.83184" lon="-0.3736">
        <ele>164.91</ele>
        <time>2024-06-24T16:26:10.531Z</time>
      </trkpt>
      <trkpt lat="46.83182" lon="-0.37356">
        <ele>165</ele>
        <time>2024-06-24T16:26:13.126Z</time>
      </trkpt>
      <trkpt lat="46.83179" lon="-0.37351">
        <ele>165.07</ele>
        <time>2024-06-24T16:26:15.722Z</time>
      </trkpt>
      <trkpt lat="46.83176" lon="-0.37345">
        <ele>165.14</ele>
        <time>2024-06-24T16:26:18.319Z</time>
      </trkpt>
      <trkpt lat="46.83173" lon="-0.3734">
        <ele>165.21</ele>
        <time>2024-06-24T16:26:20.917Z</time>
      </trkpt>
      <trkpt lat="46.8317" lon="-0.37336">
        <ele>165.27</ele>
        <time>2024-06-24T16:26:23.516Z</time>
      </trkpt>
      <trkpt lat="46.83167" lon="-0.3733">
        <ele>165.32</ele>
        <time>2024-06-24T16:26:26.116Z</time>
      </trkpt>
      <trkpt lat="46.83163" lon="-0.37325">
        <ele>165.37</ele>
        <time>2024-06-24T16:26:28.717Z</time>
      </trkpt>
      <trkpt lat="46.8316" lon="-0.37319">
        <ele>165.42</ele>
        <time>2024-06-24T16:26:31.319Z</time>
      </trkpt>
      <trkpt lat="46.83157" lon="-0.37315">
        <ele>165.46</ele>
        <time>2024-06-24T16:26:33.922Z</time>
      </trkpt>
      <trkpt lat="46.83154" lon="-0.3731">
        <ele>165.49</ele>
        <time>2024-06-24T16:26:36.526Z</time>
      </trkpt>
      <trkpt lat="46.8315" lon="-0.37304">
        <ele>165.52</ele>
        <time>2024-06-24T16:26:39.131Z</time>
      </trkpt>
      <trkpt lat="46.83146" lon="-0.37299">
        <ele>165.54</ele>
        <time>2024-06-24T16:26:41.737Z</time>
      </trkpt>
      <trkpt lat="46.83142" lon="-0.37294">
        <ele>165.55</ele>
        <time>2024-06-24T16:26:44.344Z</time>
      </trkpt>
      <trkpt lat="46.83138" lon="-0.37289">
        <ele>165.56</ele>
        <time>2024-06-24T16:26:46.952Z</time>
      </trkpt>
      <trkpt lat="46.83134" lon="-0.37284">
        <ele>165.57</ele>
        <time>2024-06-24T16:26:49.561Z</time>
      </trkpt>
      <trkpt lat="46.83129" lon="-0.37279">
        <ele>165.57</ele>
        <time>2024-06-24T16:26:52.171Z</time>
      </trkpt>
      <trkpt lat="46.83126" lon="-0.37274">
        <ele>165.57</ele>
        <time>2024-06-24T16:26:54.782Z</time>
      </trkpt>
      <trkpt lat="46.83122" lon="-0.37269">
        <ele>165.57</ele>
        <time>2024-06-24T16:26:57.394Z</time>
      </trkpt>
      <trkpt lat="46.83118" lon="-0.37264">
        <ele>165.55</ele>
        <time>2024-06-24T16:27:00.007Z</time>
      </trkpt>
      <trkpt lat="46.83114" lon="-0.3726">
        <ele>165.53</ele>
        <time>2024-06-24T16:27:02.621Z</time>
      </trkpt>
      <trkpt lat="46.8311" lon="-0.37256">
        <ele>165.51</ele>
        <time>2024-06-24T16:27:05.236Z</time>
      </trkpt>
      <trkpt lat="46.83105" lon="-0.37251">
        <ele>165.49</ele>
        <time>2024-06-24T16:27:07.852Z</time>
      </trkpt>
      <trkpt lat="46.831" lon="-0.37246">
        <ele>165.46</ele>
        <time>2024-06-24T16:27:10.470Z</time>
      </trkpt>
      <trkpt lat="46.83095" lon="-0.37241">
        <ele>165.43</ele>
        <time>2024-06-24T16:27:13.089Z</time>
      </trkpt>
      <trkpt lat="46.8309" lon="-0.37236">
        <ele>165.4</ele>
        <time>2024-06-24T16:27:15.709Z</time>
      </trkpt>
      <trkpt lat="46.83086" lon="-0.37231">
        <ele>165.36</ele>
        <time>2024-06-24T16:27:18.330Z</time>
      </trkpt>
      <trkpt lat="46.8308" lon="-0.37226">
        <ele>165.32</ele>
        <time>2024-06-24T16:27:20.952Z</time>
      </trkpt>
      <trkpt lat="46.83075" lon="-0.37222">
        <ele>165.28</ele>
        <time>2024-06-24T16:27:23.576Z</time>
      </trkpt>
      <trkpt lat="46.83069" lon="-0.37216">
        <ele>165.24</ele>
        <time>2024-06-24T16:27:26.201Z</time>
      </trkpt>
      <trkpt lat="46.83064" lon="-0.37211">
        <ele>165.18</ele>
        <time>2024-06-24T16:27:28.827Z</time>
      </trkpt>
      <trkpt lat="46.83058" lon="-0.37205">
        <ele>165.12</ele>
        <time>2024-06-24T16:27:31.455Z</time>
      </trkpt>
      <trkpt lat="46.83053" lon="-0.37201">
        <ele>165.06</ele>
        <time>2024-06-24T16:27:34.084Z</time>
      </trkpt>
      <trkpt lat="46.83048" lon="-0.37196">
        <ele>165.01</ele>
        <time>2024-06-24T16:27:36.714Z</time>
      </trkpt>
      <trkpt lat="46.83043" lon="-0.37191">
        <ele>164.95</ele>
        <time>2024-06-24T16:27:39.345Z</time>
      </trkpt>
      <trkpt lat="46.83038" lon="-0.37185">
        <ele>164.89</ele>
        <time>2024-06-24T16:27:41.978Z</time>
      </trkpt>
      <trkpt lat="46.83033" lon="-0.3718">
        <ele>164.83</ele>
        <time>2024-06-24T16:27:44.612Z</time>
      </trkpt>
      <trkpt lat="46.83027" lon="-0.37174">
        <ele>164.76</ele>
        <time>2024-06-24T16:27:47.247Z</time>
      </trkpt>
      <trkpt lat="46.83022" lon="-0.37167">
        <ele>164.69</ele>
        <time>2024-06-24T16:27:49.884Z</time>
      </trkpt>
      <trkpt lat="46.83016" lon="-0.3716">
        <ele>164.62</ele>
        <time>2024-06-24T16:27:52.522Z</time>
      </trkpt>
      <trkpt lat="46.83012" lon="-0.37154">
        <ele>164.56</ele>
        <time>2024-06-24T16:27:55.161Z</time>
      </trkpt>
      <trkpt lat="46.83007" lon="-0.37148">
        <ele>164.49</ele>
        <time>2024-06-24T16:27:57.802Z</time>
      </trkpt>
      <trkpt lat="46.83003" lon="-0.37141">
        <ele>164.42</ele>
        <time>2024-06-24T16:28:00.444Z</time>
      </trkpt>
      <trkpt lat="46.82998" lon="-0.37134">
        <ele>164.35</ele>
        <time>2024-06-24T16:28:03.087Z</time>
      </trkpt>
      <trkpt lat="46.82992" lon="-0.37127">
        <ele>164.28</ele>
        <time>2024-06-24T16:28:05.732Z</time>
      </trkpt>
      <trkpt lat="46.82988" lon="-0.37121">
        <ele>164.21</ele>
        <time>2024-06-24T16:28:08.378Z</time>
      </trkpt>
      <trkpt lat="46.82983" lon="-0.37115">
        <ele>164.14</ele>
        <time>2024-06-24T16:28:11.025Z</time>
      </trkpt>
      <trkpt lat="46.82978" lon="-0.37108">
        <ele>164.07</ele>
        <time>2024-06-24T16:28:13.674Z</time>
      </trkpt>
      <trkpt lat="46.82974" lon="-0.37103">
        <ele>164.01</ele>
        <time>2024-06-24T16:28:16.324Z</time>
      </trkpt>
      <trkpt lat="46.82969" lon="-0.37097">
        <ele>163.95</ele>
        <time>2024-06-24T16:28:18.975Z</time>
      </trkpt>
      <trkpt lat="46.82965" lon="-0.37091">
        <ele>163.89</ele>
        <time>2024-06-24T16:28:21.627Z</time>
      </trkpt>
      <trkpt lat="46.82961" lon="-0.37085">
        <ele>163.83</ele>
        <time>2024-06-24T16:28:24.280Z</time>
      </trkpt>
      <trkpt lat="46.82956" lon="-0.37079">
        <ele>163.77</ele>
        <time>2024-06-24T16:28:26.935Z</time>
      </trkpt>
      <trkpt lat="46.82952" lon="-0.37073">
        <ele>163.71</ele>
        <time>2024-06-24T16:28:29.591Z</time>
      </trkpt>
      <trkpt lat="46.82947" lon="-0.37068">
        <ele>163.65</ele>
        <time>2024-06-24T16:28:32.248Z</time>
      </trkpt>
      <trkpt lat="46.82943" lon="-0.37062">
        <ele>163.59</ele>
        <time>2024-06-24T16:28:34.906Z</time>
      </trkpt>
      <trkpt lat="46.82938" lon="-0.37056">
        <ele>163.54</ele>
        <time>2024-06-24T16:28:37.565Z</time>
      </trkpt>
      <trkpt lat="46.82933" lon="-0.3705">
        <ele>163.48</ele>
        <time>2024-06-24T16:28:40.226Z</time>
      </trkpt>
      <trkpt lat="46.82929" lon="-0.37044">
        <ele>163.43</ele>
        <time>2024-06-24T16:28:42.888Z</time>
      </trkpt>
      <trkpt lat="46.82924" lon="-0.37039">
        <ele>163.37</ele>
        <time>2024-06-24T16:28:45.551Z</time>
      </trkpt>
      <trkpt lat="46.8292" lon="-0.37033">
        <ele>163.32</ele>
        <time>2024-06-24T16:28:48.215Z</time>
      </trkpt>
      <trkpt lat="46.82916" lon="-0.37028">
        <ele>163.26</ele>
        <time>2024-06-24T16:28:50.880Z</time>
      </trkpt>
      <trkpt lat="46.82911" lon="-0.37022">
        <ele>163.21</ele>
        <time>2024-06-24T16:28:53.547Z</time>
      </trkpt>
      <trkpt lat="46.82907" lon="-0.37016">
        <ele>163.15</ele>
        <time>2024-06-24T16:28:56.215Z</time>
      </trkpt>
      <trkpt lat="46.82902" lon="-0.37011">
        <ele>163.1</ele>
        <time>2024-06-24T16:28:58.884Z</time>
      </trkpt>
      <trkpt lat="46.82898" lon="-0.37005">
        <ele>163.06</ele>
        <time>2024-06-24T16:29:01.554Z</time>
      </trkpt>
      <trkpt lat="46.82894" lon="-0.37">
        <ele>163</ele>
        <time>2024-06-24T16:29:04.225Z</time>
      </trkpt>
      <trkpt lat="46.82889" lon="-0.36994">
        <ele>162.95</ele>
        <time>2024-06-24T16:29:06.897Z</time>
      </trkpt>
      <trkpt lat="46.82885" lon="-0.36988">
        <ele>162.9</ele>
        <time>2024-06-24T16:29:09.571Z</time>
      </trkpt>
      <trkpt lat="46.8288" lon="-0.36982">
        <ele>162.85</ele>
        <time>2024-06-24T16:29:12.246Z</time>
      </trkpt>
      <trkpt lat="46.82876" lon="-0.36976">
        <ele>162.81</ele>
        <time>2024-06-24T16:29:14.922Z</time>
      </trkpt>
      <trkpt lat="46.82871" lon="-0.36971">
        <ele>162.76</ele>
        <time>2024-06-24T16:29:17.599Z</time>
      </trkpt>
      <trkpt lat="46.82866" lon="-0.36965">
        <ele>162.73</ele>
        <time>2024-06-24T16:29:20.277Z</time>
      </trkpt>
      <trkpt lat="46.82862" lon="-0.36959">
        <ele>162.69</ele>
        <time>2024-06-24T16:29:22.957Z</time>
      </trkpt>
      <trkpt lat="46.82857" lon="-0.36953">
        <ele>162.65</ele>
        <time>2024-06-24T16:29:25.638Z</time>
      </trkpt>
      <trkpt lat="46.82852" lon="-0.36948">
        <ele>162.62</ele>
        <time>2024-06-24T16:29:28.320Z</time>
      </trkpt>
      <trkpt lat="46.82847" lon="-0.36941">
        <ele>162.59</ele>
        <time>2024-06-24T16:29:31.003Z</time>
      </trkpt>
      <trkpt lat="46.82842" lon="-0.36935">
        <ele>162.55</ele>
        <time>2024-06-24T16:29:33.688Z</time>
      </trkpt>
      <trkpt lat="46.82837" lon="-0.36929">
        <ele>162.52</ele>
        <time>2024-06-24T16:29:36.374Z</time>
      </trkpt>
      <trkpt lat="46.82833" lon="-0.36924">
        <ele>162.49</ele>
        <time>2024-06-24T16:29:39.061Z</time>
      </trkpt>
      <trkpt lat="46.82828" lon="-0.36919">
        <ele>162.47</ele>
        <time>2024-06-24T16:29:41.749Z</time>
      </trkpt>
      <trkpt lat="46.82823" lon="-0.36914">
        <ele>162.45</ele>
        <time>2024-06-24T16:29:44.439Z</time>
      </trkpt>
      <trkpt lat="46.82818" lon="-0.36909">
        <ele>162.43</ele>
        <time>2024-06-24T16:29:47.130Z</time>
      </trkpt>
      <trkpt lat="46.82814" lon="-0.36904">
        <ele>162.42</ele>
        <time>2024-06-24T16:29:49.822Z</time>
      </trkpt>
      <trkpt lat="46.82809" lon="-0.36899">
        <ele>162.41</ele>
        <time>2024-06-24T16:29:52.515Z</time>
      </trkpt>
      <trkpt lat="46.82804" lon="-0.36893">
        <ele>162.4</ele>
        <time>2024-06-24T16:29:55.209Z</time>
      </trkpt>
      <trkpt lat="46.828" lon="-0.36888">
        <ele>162.38</ele>
        <time>2024-06-24T16:29:57.904Z</time>
      </trkpt>
      <trkpt lat="46.82796" lon="-0.36884">
        <ele>162.37</ele>
        <time>2024-06-24T16:30:00.601Z</time>
      </trkpt>
      <trkpt lat="46.82791" lon="-0.36879">
        <ele>162.36</ele>
        <time>2024-06-24T16:30:03.299Z</time>
      </trkpt>
      <trkpt lat="46.82787" lon="-0.36874">
        <ele>162.35</ele>
        <time>2024-06-24T16:30:05.998Z</time>
      </trkpt>
      <trkpt lat="46.82782" lon="-0.36869">
        <ele>162.36</ele>
        <time>2024-06-24T16:30:08.698Z</time>
      </trkpt>
      <trkpt lat="46.82778" lon="-0.36864">
        <ele>162.36</ele>
        <time>2024-06-24T16:30:11.399Z</time>
      </trkpt>
      <trkpt lat="46.82773" lon="-0.36859">
        <ele>162.35</ele>
        <time>2024-06-24T16:30:14.101Z</time>
      </trkpt>
      <trkpt lat="46.82769" lon="-0.36855">
        <ele>162.35</ele>
        <time>2024-06-24T16:30:16.804Z</time>
      </trkpt>
      <trkpt lat="46.82764" lon="-0.36852">
        <ele>162.35</ele>
        <time>2024-06-24T16:30:19.508Z</time>
      </trkpt>
      <trkpt lat="46.82758" lon="-0.36849">
        <ele>162.36</ele>
        <time>2024-06-24T16:30:22.213Z</time>
      </trkpt>
      <trkpt lat="46.82753" lon="-0.36846">
        <ele>162.37</ele>
        <time>2024-06-24T16:30:24.920Z</time>
      </trkpt>
      <trkpt lat="46.82747" lon="-0.36844">
        <ele>162.38</ele>
        <time>2024-06-24T16:30:27.628Z</time>
      </trkpt>
      <trkpt lat="46.82741" lon="-0.36841">
        <ele>162.4</ele>
        <time>2024-06-24T16:30:30.337Z</time>
      </trkpt>
      <trkpt lat="46.82735" lon="-0.36839">
        <ele>162.42</ele>
        <time>2024-06-24T16:30:33.047Z</time>
      </trkpt>
      <trkpt lat="46.8273" lon="-0.36837">
        <ele>162.44</ele>
        <time>2024-06-24T16:30:35.758Z</time>
      </trkpt>
      <trkpt lat="46.82724" lon="-0.36834">
        <ele>162.46</ele>
        <time>2024-06-24T16:30:38.471Z</time>
      </trkpt>
      <trkpt lat="46.82718" lon="-0.36832">
        <ele>162.48</ele>
        <time>2024-06-24T16:30:41.185Z</time>
      </trkpt>
      <trkpt lat="46.82712" lon="-0.36831">
        <ele>162.51</ele>
        <time>2024-06-24T16:30:43.900Z</time>
      </trkpt>
      <trkpt lat="46.82707" lon="-0.36828">
        <ele>162.54</ele>
        <time>2024-06-24T16:30:46.616Z</time>
      </trkpt>
      <trkpt lat="46.82702" lon="-0.36825">
        <ele>162.56</ele>
        <time>2024-06-24T16:30:49.333Z</time>
      </trkpt>
      <trkpt lat="46.82696" lon="-0.36821">
        <ele>162.59</ele>
        <time>2024-06-24T16:30:52.051Z</time>
      </trkpt>
      <trkpt lat="46.82691" lon="-0.36817">
        <ele>162.62</ele>
        <time>2024-06-24T16:30:54.771Z</time>
      </trkpt>
      <trkpt lat="46.82686" lon="-0.36813">
        <ele>162.66</ele>
        <time>2024-06-24T16:30:57.492Z</time>
      </trkpt>
      <trkpt lat="46.82682" lon="-0.36808">
        <ele>162.7</ele>
        <time>2024-06-24T16:31:00.214Z</time>
      </trkpt>
      <trkpt lat="46.82678" lon="-0.36803">
        <ele>162.74</ele>
        <time>2024-06-24T16:31:02.937Z</time>
      </trkpt>
      <trkpt lat="46.82674" lon="-0.36799">
        <ele>162.78</ele>
        <time>2024-06-24T16:31:05.661Z</time>
      </trkpt>
      <trkpt lat="46.8267" lon="-0.36794">
        <ele>162.82</ele>
        <time>2024-06-24T16:31:08.386Z</time>
      </trkpt>
      <trkpt lat="46.82666" lon="-0.36789">
        <ele>162.86</ele>
        <time>2024-06-24T16:31:11.112Z</time>
      </trkpt>
      <trkpt lat="46.82662" lon="-0.36784">
        <ele>162.9</ele>
        <time>2024-06-24T16:31:13.839Z</time>
      </trkpt>
      <trkpt lat="46.82659" lon="-0.36779">
        <ele>162.94</ele>
        <time>2024-06-24T16:31:16.567Z</time>
      </trkpt>
      <trkpt lat="46.82656" lon="-0.36774">
        <ele>162.99</ele>
        <time>2024-06-24T16:31:19.296Z</time>
      </trkpt>
      <trkpt lat="46.82652" lon="-0.36768">
        <ele>163.04</ele>
        <time>2024-06-24T16:31:22.026Z</time>
      </trkpt>
      <trkpt lat="46.82649" lon="-0.36762">
        <ele>163.09</ele>
        <time>2024-06-24T16:31:24.757Z</time>
      </trkpt>
      <trkpt lat="46.82646" lon="-0.36756">
        <ele>163.15</ele>
        <time>2024-06-24T16:31:27.489Z</time>
      </trkpt>
      <trkpt lat="46.82642" lon="-0.3675">
        <ele>163.2</ele>
        <time>2024-06-24T16:31:30.222Z</time>
      </trkpt>
      <trkpt lat="46.82639" lon="-0.36744">
        <ele>163.26</ele>
        <time>2024-06-24T16:31:32.956Z</time>
      </trkpt>
      <trkpt lat="46.82636" lon="-0.36737">
        <ele>163.32</ele>
        <time>2024-06-24T16:31:35.691Z</time>
      </trkpt>
      <trkpt lat="46.82633" lon="-0.36731">
        <ele>163.37</ele>
        <time>2024-06-24T16:31:38.427Z</time>
      </trkpt>
      <trkpt lat="46.8263" lon="-0.36725">
        <ele>163.43</ele>
        <time>2024-06-24T16:31:41.164Z</time>
      </trkpt>
      <trkpt lat="46.82627" lon="-0.3672">
        <ele>163.49</ele>
        <time>2024-06-24T16:31:43.902Z</time>
      </trkpt>
      <trkpt lat="46.82624" lon="-0.36715">
        <ele>163.55</ele>
        <time>2024-06-24T16:31:46.641Z</time>
      </trkpt>
      <trkpt lat="46.82622" lon="-0.36711">
        <ele>163.62</ele>
        <time>2024-06-24T16:31:49.381Z</time>
      </trkpt>
      <trkpt lat="46.82619" lon="-0.36707">
        <ele>163.68</ele>
        <time>2024-06-24T16:31:52.122Z</time>
      </trkpt>
      <trkpt lat="46.82616" lon="-0.36703">
        <ele>163.75</ele>
        <time>2024-06-24T16:31:54.863Z</time>
      </trkpt>
      <trkpt lat="46.82614" lon="-0.36699">
        <ele>163.82</ele>
        <time>2024-06-24T16:31:57.605Z</time>
      </trkpt>
      <trkpt lat="46.82612" lon="-0.36694">
        <ele>163.88</ele>
        <time>2024-06-24T16:32:00.348Z</time>
      </trkpt>
      <trkpt lat="46.8261" lon="-0.36689">
        <ele>163.94</ele>
        <time>2024-06-24T16:32:03.092Z</time>
      </trkpt>
      <trkpt lat="46.82608" lon="-0.36685">
        <ele>164</ele>
        <time>2024-06-24T16:32:05.836Z</time>
      </trkpt>
      <trkpt lat="46.82606" lon="-0.36682">
        <ele>164.05</ele>
        <time>2024-06-24T16:32:08.581Z</time>
      </trkpt>
      <trkpt lat="46.82603" lon="-0.36677">
        <ele>164.11</ele>
        <time>2024-06-24T16:32:11.327Z</time>
      </trkpt>
      <trkpt lat="46.82601" lon="-0.36671">
        <ele>164.18</ele>
        <time>2024-06-24T16:32:14.074Z</time>
      </trkpt>
      <trkpt lat="46.82598" lon="-0.36666">
        <ele>164.24</ele>
        <time>2024-06-24T16:32:16.822Z</time>
      </trkpt>
      <trkpt lat="46.82595" lon="-0.3666">
        <ele>164.29</ele>
        <time>2024-06-24T16:32:19.571Z</time>
      </trkpt>
      <trkpt lat="46.82592" lon="-0.36654">
        <ele>164.34</ele>
        <time>2024-06-24T16:32:22.321Z</time>
      </trkpt>
      <trkpt lat="46.82589" lon="-0.36648">
        <ele>164.39</ele>
        <time>2024-06-24T16:32:25.072Z</time>
      </trkpt>
      <trkpt lat="46.82586" lon="-0.36641">
        <ele>164.44</ele>
        <time>2024-06-24T16:32:27.824Z</time>
      </trkpt>
      <trkpt lat="46.82583" lon="-0.36635">
        <ele>164.48</ele>
        <time>2024-06-24T16:32:30.577Z</time>
      </trkpt>
      <trkpt lat="46.8258" lon="-0.36628">
        <ele>164.52</ele>
        <time>2024-06-24T16:32:33.331Z</time>
      </trkpt>
      <trkpt lat="46.82577" lon="-0.3662">
        <ele>164.55</ele>
        <time>2024-06-24T16:32:36.086Z</time>
      </trkpt>
      <trkpt lat="46.82575" lon="-0.36613">
        <ele>164.59</ele>
        <time>2024-06-24T16:32:38.842Z</time>
      </trkpt>
      <trkpt lat="46.82574" lon="-0.36607">
        <ele>164.62</ele>
        <time>2024-06-24T16:32:41.599Z</time>
      </trkpt>
      <trkpt lat="46.82572" lon="-0.36601">
        <ele>164.64</ele>
        <time>2024-06-24T16:32:44.357Z</time>
      </trkpt>
      <trkpt lat="46.8257" lon="-0.36593">
        <ele>164.67</ele>
        <time>2024-06-24T16:32:47.116Z</time>
      </trkpt>
      <trkpt lat="46.82569" lon="-0.36585">
        <ele>164.68</ele>
        <time>2024-06-24T16:32:49.876Z</time>
      </trkpt>
      <trkpt lat="46.82569" lon="-0.36576">
        <ele>164.7</ele>
        <time>2024-06-24T16:32:52.638Z</time>
      </trkpt>
      <trkpt lat="46.8257" lon="-0.36568">
        <ele>164.7</ele>
        <time>2024-06-24T16:32:55.401Z</time>
      </trkpt>
      <trkpt lat="46.8257" lon="-0.3656">
        <ele>164.7</ele>
        <time>2024-06-24T16:32:58.165Z</time>
      </trkpt>
      <trkpt lat="46.82571" lon="-0.36552">
        <ele>164.69</ele>
        <time>2024-06-24T16:33:00.930Z</time>
      </trkpt>
      <trkpt lat="46.82572" lon="-0.36543">
        <ele>164.68</ele>
        <time>2024-06-24T16:33:03.696Z</time>
      </trkpt>
      <trkpt lat="46.82573" lon="-0.36535">
        <ele>164.67</ele>
        <time>2024-06-24T16:33:06.463Z</time>
      </trkpt>
      <trkpt lat="46.82573" lon="-0.36527">
        <ele>164.65</ele>
        <time>2024-06-24T16:33:09.231Z</time>
      </trkpt>
      <trkpt lat="46.82574" lon="-0.36518">
        <ele>164.63</ele>
        <time>2024-06-24T16:33:12.001Z</time>
      </trkpt>
      <trkpt lat="46.82575" lon="-0.36509">
        <ele>164.61</ele>
        <time>2024-06-24T16:33:14.772Z</time>
      </trkpt>
      <trkpt lat="46.82575" lon="-0.36501">
        <ele>164.58</ele>
        <time>2024-06-24T16:33:17.544Z</time>
      </trkpt>
      <trkpt lat="46.82576" lon="-0.36492">
        <ele>164.55</ele>
        <time>2024-06-24T16:33:20.317Z</time>
      </trkpt>
      <trkpt lat="46.82577" lon="-0.36483">
        <ele>164.51</ele>
        <time>2024-06-24T16:33:23.091Z</time>
      </trkpt>
      <trkpt lat="46.82577" lon="-0.36475">
        <ele>164.48</ele>
        <time>2024-06-24T16:33:25.867Z</time>
      </trkpt>
      <trkpt lat="46.82578" lon="-0.36466">
        <ele>164.43</ele>
        <time>2024-06-24T16:33:28.644Z</time>
      </trkpt>
      <trkpt lat="46.82579" lon="-0.36458">
        <ele>164.38</ele>
        <time>2024-06-24T16:33:31.422Z</time>
      </trkpt>
      <trkpt lat="46.8258" lon="-0.36449">
        <ele>164.32</ele>
        <time>2024-06-24T16:33:34.201Z</time>
      </trkpt>
      <trkpt lat="46.82581" lon="-0.36442">
        <ele>164.25</ele>
        <time>2024-06-24T16:33:36.981Z</time>
      </trkpt>
      <trkpt lat="46.82581" lon="-0.36434">
        <ele>164.17</ele>
        <time>2024-06-24T16:33:39.762Z</time>
      </trkpt>
      <trkpt lat="46.82582" lon="-0.36427">
        <ele>164.08</ele>
        <time>2024-06-24T16:33:42.544Z</time>
      </trkpt>
      <trkpt lat="46.82582" lon="-0.3642">
        <ele>163.99</ele>
        <time>2024-06-24T16:33:45.327Z</time>
      </trkpt>
      <trkpt lat="46.82582" lon="-0.36412">
        <ele>163.9</ele>
        <time>2024-06-24T16:33:48.111Z</time>
      </trkpt>
      <trkpt lat="46.82581" lon="-0.36404">
        <ele>163.79</ele>
        <time>2024-06-24T16:33:50.896Z</time>
      </trkpt>
      <trkpt lat="46.8258" lon="-0.36395">
        <ele>163.68</ele>
        <time>2024-06-24T16:33:53.683Z</time>
      </trkpt>
      <trkpt lat="46.82579" lon="-0.36386">
        <ele>163.56</ele>
        <time>2024-06-24T16:33:56.471Z</time>
      </trkpt>
      <trkpt lat="46.82577" lon="-0.36378">
        <ele>163.42</ele>
        <time>2024-06-24T16:33:59.260Z</time>
      </trkpt>
      <trkpt lat="46.82575" lon="-0.3637">
        <ele>163.29</ele>
        <time>2024-06-24T16:34:02.050Z</time>
      </trkpt>
      <trkpt lat="46.82573" lon="-0.36363">
        <ele>163.15</ele>
        <time>2024-06-24T16:34:04.841Z</time>
      </trkpt>
      <trkpt lat="46.82571" lon="-0.36355">
        <ele>163</ele>
        <time>2024-06-24T16:34:07.633Z</time>
      </trkpt>
      <trkpt lat="46.82569" lon="-0.36347">
        <ele>162.85</ele>
        <time>2024-06-24T16:34:10.427Z</time>
      </trkpt>
      <trkpt lat="46.82567" lon="-0.36339">
        <ele>162.69</ele>
        <time>2024-06-24T16:34:13.222Z</time>
      </trkpt>
      <trkpt lat="46.82565" lon="-0.36331">
        <ele>162.52</ele>
        <time>2024-06-24T16:34:16.018Z</time>
      </trkpt>
      <trkpt lat="46.82562" lon="-0.36322">
        <ele>162.34</ele>
        <time>2024-06-24T16:34:18.815Z</time>
      </trkpt>
      <trkpt lat="46.8256" lon="-0.36314">
        <ele>162.15</ele>
        <time>2024-06-24T16:34:21.613Z</time>
      </trkpt>
      <trkpt lat="46.82557" lon="-0.36306">
        <ele>161.96</ele>
        <time>2024-06-24T16:34:24.413Z</time>
      </trkpt>
      <trkpt lat="46.82555" lon="-0.36297">
        <ele>161.76</ele>
        <time>2024-06-24T16:34:27.214Z</time>
      </trkpt>
      <trkpt lat="46.82552" lon="-0.36288">
        <ele>161.55</ele>
        <time>2024-06-24T16:34:30.016Z</time>
      </trkpt>
      <trkpt lat="46.8255" lon="-0.3628">
        <ele>161.33</ele>
        <time>2024-06-24T16:34:32.820Z</time>
      </trkpt>
      <trkpt lat="46.82548" lon="-0.36272">
        <ele>161.09</ele>
        <time>2024-06-24T16:34:35.625Z</time>
      </trkpt>
      <trkpt lat="46.82545" lon="-0.36263">
        <ele>160.86</ele>
        <time>2024-06-24T16:34:38.431Z</time>
      </trkpt>
      <trkpt lat="46.82542" lon="-0.36254">
        <ele>160.62</ele>
        <time>2024-06-24T16:34:41.239Z</time>
      </trkpt>
      <trkpt lat="46.82539" lon="-0.36245">
        <ele>160.38</ele>
        <time>2024-06-24T16:34:44.048Z</time>
      </trkpt>
      <trkpt lat="46.82536" lon="-0.36236">
        <ele>160.14</ele>
        <time>2024-06-24T16:34:46.858Z</time>
      </trkpt>
      <trkpt lat="46.82532" lon="-0.36227">
        <ele>159.88</ele>
        <time>2024-06-24T16:34:49.670Z</time>
      </trkpt>
      <trkpt lat="46.82529" lon="-0.36219">
        <ele>159.63</ele>
        <time>2024-06-24T16:34:52.483Z</time>
      </trkpt>
      <trkpt lat="46.82526" lon="-0.36211">
        <ele>159.38</ele>
        <time>2024-06-24T16:34:55.297Z</time>
      </trkpt>
      <trkpt lat="46.82523" lon="-0.36203">
        <ele>159.12</ele>
        <time>2024-06-24T16:34:58.112Z</time>
      </trkpt>
      <trkpt lat="46.82521" lon="-0.36195">
        <ele>158.85</ele>
        <time>2024-06-24T16:35:00.929Z</time>
      </trkpt>
      <trkpt lat="46.82519" lon="-0.36186">
        <ele>158.58</ele>
        <time>2024-06-24T16:35:03.747Z</time>
      </trkpt>
      <trkpt lat="46.82516" lon="-0.36177">
        <ele>158.3</ele>
        <time>2024-06-24T16:35:06.566Z</time>
      </trkpt>
      <trkpt lat="46.82514" lon="-0.36168">
        <ele>158.01</ele>
        <time>2024-06-24T16:35:09.387Z</time>
      </trkpt>
      <trkpt lat="46.82512" lon="-0.36159">
        <ele>157.73</ele>
        <time>2024-06-24T16:35:12.209Z</time>
      </trkpt>
      <trkpt lat="46.8251" lon="-0.36151">
        <ele>157.44</ele>
        <time>2024-06-24T16:35:15.032Z</time>
      </trkpt>
      <trkpt lat="46.82508" lon="-0.36143">
        <ele>157.16</ele>
        <time>2024-06-24T16:35:17.856Z</time>
      </trkpt>
      <trkpt lat="46.82506" lon="-0.36133">
        <ele>156.86</ele>
        <time>2024-06-24T16:35:20.682Z</time>
      </trkpt>
      <trkpt lat="46.82503" lon="-0.36124">
        <ele>156.56</ele>
        <time>2024-06-24T16:35:23.509Z</time>
      </trkpt>
      <trkpt lat="46.82501" lon="-0.36115">
        <ele>156.24</ele>
        <time>2024-06-24T16:35:26.337Z</time>
      </trkpt>
      <trkpt lat="46.82499" lon="-0.36106">
        <ele>155.93</ele>
        <time>2024-06-24T16:35:29.167Z</time>
      </trkpt>
      <trkpt lat="46.82498" lon="-0.36096">
        <ele>155.62</ele>
        <time>2024-06-24T16:35:31.998Z</time>
      </trkpt>
      <trkpt lat="46.82495" lon="-0.36086">
        <ele>155.3</ele>
        <time>2024-06-24T16:35:34.830Z</time>
      </trkpt>
      <trkpt lat="46.82492" lon="-0.36075">
        <ele>154.99</ele>
        <time>2024-06-24T16:35:37.664Z</time>
      </trkpt>
      <trkpt lat="46.8249" lon="-0.36065">
        <ele>154.68</ele>
        <time>2024-06-24T16:35:40.500Z</time>
      </trkpt>
      <trkpt lat="46.82488" lon="-0.36054">
        <ele>154.38</ele>
        <time>2024-06-24T16:35:43.337Z</time>
      </trkpt>
      <trkpt lat="46.82486" lon="-0.36043">
        <ele>154.07</ele>
        <time>2024-06-24T16:35:46.176Z</time>
      </trkpt>
      <trkpt lat="46.82485" lon="-0.36033">
        <ele>153.77</ele>
        <time>2024-06-24T16:35:49.016Z</time>
      </trkpt>
      <trkpt lat="46.82485" lon="-0.36021">
        <ele>153.46</ele>
        <time>2024-06-24T16:35:51.858Z</time>
      </trkpt>
      <trkpt lat="46.82485" lon="-0.3601">
        <ele>153.16</ele>
        <time>2024-06-24T16:35:54.701Z</time>
      </trkpt>
      <trkpt lat="46.82486" lon="-0.35999">
        <ele>152.86</ele>
        <time>2024-06-24T16:35:57.546Z</time>
      </trkpt>
      <trkpt lat="46.82487" lon="-0.35988">
        <ele>152.57</ele>
        <time>2024-06-24T16:36:00.392Z</time>
      </trkpt>
      <trkpt lat="46.82488" lon="-0.35976">
        <ele>152.27</ele>
        <time>2024-06-24T16:36:03.240Z</time>
      </trkpt>
      <trkpt lat="46.82489" lon="-0.35965">
        <ele>151.99</ele>
        <time>2024-06-24T16:36:06.089Z</time>
      </trkpt>
      <trkpt lat="46.8249" lon="-0.35953">
        <ele>151.7</ele>
        <time>2024-06-24T16:36:08.940Z</time>
      </trkpt>
      <trkpt lat="46.82491" lon="-0.35942">
        <ele>151.42</ele>
        <time>2024-06-24T16:36:11.793Z</time>
      </trkpt>
      <trkpt lat="46.82493" lon="-0.35931">
        <ele>151.15</ele>
        <time>2024-06-24T16:36:14.647Z</time>
      </trkpt>
      <trkpt lat="46.82494" lon="-0.35919">
        <ele>150.89</ele>
        <time>2024-06-24T16:36:17.503Z</time>
      </trkpt>
      <trkpt lat="46.82497" lon="-0.35909">
        <ele>150.63</ele>
        <time>2024-06-24T16:36:20.360Z</time>
      </trkpt>
      <trkpt lat="46.825" lon="-0.35898">
        <ele>150.37</ele>
        <time>2024-06-24T16:36:23.219Z</time>
      </trkpt>
      <trkpt lat="46.82503" lon="-0.35887">
        <ele>150.12</ele>
        <time>2024-06-24T16:36:26.080Z</time>
      </trkpt>
      <trkpt lat="46.82505" lon="-0.35876">
        <ele>149.87</ele>
        <time>2024-06-24T16:36:28.942Z</time>
      </trkpt>
      <trkpt lat="46.82508" lon="-0.35866">
        <ele>149.63</ele>
        <time>2024-06-24T16:36:31.806Z</time>
      </trkpt>
      <trkpt lat="46.82511" lon="-0.35855">
        <ele>149.39</ele>
        <time>2024-06-24T16:36:34.671Z</time>
      </trkpt>
      <trkpt lat="46.82514" lon="-0.35845">
        <ele>149.16</ele>
        <time>2024-06-24T16:36:37.538Z</time>
      </trkpt>
      <trkpt lat="46.82516" lon="-0.35834">
        <ele>148.93</ele>
        <time>2024-06-24T16:36:40.406Z</time>
      </trkpt>
      <trkpt lat="46.82518" lon="-0.35826">
        <ele>148.72</ele>
        <time>2024-06-24T16:36:43.276Z</time>
      </trkpt>
      <trkpt lat="46.8252" lon="-0.35817">
        <ele>148.52</ele>
        <time>2024-06-24T16:36:46.147Z</time>
      </trkpt>
      <trkpt lat="46.8252" lon="-0.35808">
        <ele>148.32</ele>
        <time>2024-06-24T16:36:49.019Z</time>
      </trkpt>
      <trkpt lat="46.82519" lon="-0.358">
        <ele>148.14</ele>
        <time>2024-06-24T16:36:51.892Z</time>
      </trkpt>
      <trkpt lat="46.82516" lon="-0.35791">
        <ele>147.96</ele>
        <time>2024-06-24T16:36:54.767Z</time>
      </trkpt>
      <trkpt lat="46.82513" lon="-0.35782">
        <ele>147.79</ele>
        <time>2024-06-24T16:36:57.643Z</time>
      </trkpt>
      <trkpt lat="46.82509" lon="-0.35774">
        <ele>147.63</ele>
        <time>2024-06-24T16:37:00.520Z</time>
      </trkpt>
      <trkpt lat="46.82506" lon="-0.35765">
        <ele>147.47</ele>
        <time>2024-06-24T16:37:03.399Z</time>
      </trkpt>
      <trkpt lat="46.82504" lon="-0.35756">
        <ele>147.31</ele>
        <time>2024-06-24T16:37:06.279Z</time>
      </trkpt>
      <trkpt lat="46.82501" lon="-0.35748">
        <ele>147.17</ele>
        <time>2024-06-24T16:37:09.160Z</time>
      </trkpt>
      <trkpt lat="46.825" lon="-0.35741">
        <ele>147.03</ele>
        <time>2024-06-24T16:37:12.042Z</time>
      </trkpt>
      <trkpt lat="46.82498" lon="-0.35735">
        <ele>146.89</ele>
        <time>2024-06-24T16:37:14.925Z</time>
      </trkpt>
      <trkpt lat="46.82497" lon="-0.35731">
        <ele>146.76</ele>
        <time>2024-06-24T16:37:17.809Z</time>
      </trkpt>
      <trkpt lat="46.82494" lon="-0.35727">
        <ele>146.63</ele>
        <time>2024-06-24T16:37:20.693Z</time>
      </trkpt>
      <trkpt lat="46.82491" lon="-0.35726">
        <ele>146.52</ele>
        <time>2024-06-24T16:37:23.578Z</time>
      </trkpt>
      <trkpt lat="46.82488" lon="-0.35728">
        <ele>146.41</ele>
        <time>2024-06-24T16:37:26.464Z</time>
      </trkpt>
      <trkpt lat="46.82486" lon="-0.3573">
        <ele>146.31</ele>
        <time>2024-06-24T16:37:29.350Z</time>
      </trkpt>
      <trkpt lat="46.82484" lon="-0.35734">
        <ele>146.22</ele>
        <time>2024-06-24T16:37:32.237Z</time>
      </trkpt>
      <trkpt lat="46.82481" lon="-0.35737">
        <ele>146.13</ele>
        <time>2024-06-24T16:37:35.125Z</time>
      </trkpt>
      <trkpt lat="46.82478" lon="-0.35741">
        <ele>146.04</ele>
        <time>2024-06-24T16:37:38.013Z</time>
      </trkpt>
      <trkpt lat="46.82475" lon="-0.35744">
        <ele>145.96</ele>
        <time>2024-06-24T16:37:40.902Z</time>
      </trkpt>
      <trkpt lat="46.82472" lon="-0.35748">
        <ele>145.88</ele>
        <time>2024-06-24T16:37:43.792Z</time>
      </trkpt>
      <trkpt lat="46.82468" lon="-0.35752">
        <ele>145.81</ele>
        <time>2024-06-24T16:37:46.683Z</time>
      </trkpt>
      <trkpt lat="46.82465" lon="-0.35755">
        <ele>145.74</ele>
        <time>2024-06-24T16:37:49.575Z</time>
      </trkpt>
      <trkpt lat="46.82461" lon="-0.35759">
        <ele>145.68</ele>
        <time>2024-06-24T16:37:52.468Z</time>
      </trkpt>
      <trkpt lat="46.82458" lon="-0.35764">
        <ele>145.62</ele>
        <time>2024-06-24T16:37:55.361Z</time>
      </trkpt>
      <trkpt lat="46.82454" lon="-0.35768">
        <ele>145.56</ele>
        <time>2024-06-24T16:37:58.255Z</time>
      </trkpt>
      <trkpt lat="46.8245" lon="-0.35772">
        <ele>145.51</ele>
        <time>2024-06-24T16:38:01.150Z</time>
      </trkpt>
      <trkpt lat="46.82447" lon="-0.35776">
        <ele>145.46</ele>
        <time>2024-06-24T16:38:04.046Z</time>
      </trkpt>
      <trkpt lat="46.82443" lon="-0.35781">
        <ele>145.41</ele>
        <time>2024-06-24T16:38:06.943Z</time>
      </trkpt>
      <trkpt lat="46.8244" lon="-0.35785">
        <ele>145.37</ele>
        <time>2024-06-24T16:38:09.841Z</time>
      </trkpt>
      <trkpt lat="46.82437" lon="-0.35789">
        <ele>145.33</ele>
        <time>2024-06-24T16:38:12.740Z</time>
      </trkpt>
      <trkpt lat="46.82434" lon="-0.35794">
        <ele>145.28</ele>
        <time>2024-06-24T16:38:15.640Z</time>
      </trkpt>
      <trkpt lat="46.82431" lon="-0.35798">
        <ele>145.24</ele>
        <time>2024-06-24T16:38:18.541Z</time>
      </trkpt>
      <trkpt lat="46.82428" lon="-0.35803">
        <ele>145.21</ele>
        <time>2024-06-24T16:38:21.442Z</time>
      </trkpt>
      <trkpt lat="46.82426" lon="-0.35807">
        <ele>145.17</ele>
        <time>2024-06-24T16:38:24.344Z</time>
      </trkpt>
      <trkpt lat="46.82423" lon="-0.35811">
        <ele>145.13</ele>
        <time>2024-06-24T16:38:27.247Z</time>
      </trkpt>
      <trkpt lat="46.8242" lon="-0.35815">
        <ele>145.09</ele>
        <time>2024-06-24T16:38:30.151Z</time>
      </trkpt>
      <trkpt lat="46.82417" lon="-0.35819">
        <ele>145.06</ele>
        <time>2024-06-24T16:38:33.056Z</time>
      </trkpt>
      <trkpt lat="46.82414" lon="-0.35823">
        <ele>145.02</ele>
        <time>2024-06-24T16:38:35.961Z</time>
      </trkpt>
      <trkpt lat="46.82411" lon="-0.35827">
        <ele>144.99</ele>
        <time>2024-06-24T16:38:38.867Z</time>
      </trkpt>
      <trkpt lat="46.82408" lon="-0.35832">
        <ele>144.95</ele>
        <time>2024-06-24T16:38:41.774Z</time>
      </trkpt>
      <trkpt lat="46.82404" lon="-0.35836">
        <ele>144.92</ele>
        <time>2024-06-24T16:38:44.682Z</time>
      </trkpt>
      <trkpt lat="46.824" lon="-0.35839">
        <ele>144.88</ele>
        <time>2024-06-24T16:38:47.591Z</time>
      </trkpt>
      <trkpt lat="46.82396" lon="-0.35839">
        <ele>144.84</ele>
        <time>2024-06-24T16:38:50.501Z</time>
      </trkpt>
      <trkpt lat="46.82392" lon="-0.35837">
        <ele>144.8</ele>
        <time>2024-06-24T16:38:53.412Z</time>
      </trkpt>
      <trkpt lat="46.82389" lon="-0.35834">
        <ele>144.76</ele>
        <time>2024-06-24T16:38:56.323Z</time>
      </trkpt>
      <trkpt lat="46.82386" lon="-0.35829">
        <ele>144.72</ele>
        <time>2024-06-24T16:38:59.235Z</time>
      </trkpt>
      <trkpt lat="46.82382" lon="-0.35823">
        <ele>144.68</ele>
        <time>2024-06-24T16:39:02.148Z</time>
      </trkpt>
      <trkpt lat="46.82379" lon="-0.35818">
        <ele>144.64</ele>
        <time>2024-06-24T16:39:05.062Z</time>
      </trkpt>
      <trkpt lat="46.82376" lon="-0.35812">
        <ele>144.59</ele>
        <time>2024-06-24T16:39:07.977Z</time>
      </trkpt>
      <trkpt lat="46.82373" lon="-0.35806">
        <ele>144.54</ele>
        <time>2024-06-24T16:39:10.893Z</time>
      </trkpt>
      <trkpt lat="46.8237" lon="-0.358">
        <ele>144.49</ele>
        <time>2024-06-24T16:39:13.810Z</time>
      </trkpt>
      <trkpt lat="46.82366" lon="-0.35794">
        <ele>144.44</ele>
        <time>2024-06-24T16:39:16.728Z</time>
      </trkpt>
      <trkpt lat="46.82363" lon="-0.35788">
        <ele>144.39</ele>
        <time>2024-06-24T16:39:19.648Z</time>
      </trkpt>
      <trkpt lat="46.82359" lon="-0.35783">
        <ele>144.34</ele>
        <time>2024-06-24T16:39:22.569Z</time>
      </trkpt>
      <trkpt lat="46.82355" lon="-0.35778">
        <ele>144.29</ele>
        <time>2024-06-24T16:39:25.491Z</time>
      </trkpt>
      <trkpt lat="46.82351" lon="-0.35773">
        <ele>144.23</ele>
        <time>2024-06-24T16:39:28.414Z</time>
      </trkpt>
      <trkpt lat="46.82347" lon="-0.35767">
        <ele>144.18</ele>
        <time>2024-06-24T16:39:31.338Z</time>
      </trkpt>
      <trkpt lat="46.82342" lon="-0.35762">
        <ele>144.13</ele>
        <time>2024-06-24T16:39:34.263Z</time>
      </trkpt>
      <trkpt lat="46.82337" lon="-0.35757">
        <ele>144.08</ele>
        <time>2024-06-24T16:39:37.189Z</time>
      </trkpt>
      <trkpt lat="46.82333" lon="-0.35751">
        <ele>144.02</ele>
        <time>2024-06-24T16:39:40.116Z</time>
      </trkpt>
      <trkpt lat="46.82328" lon="-0.35746">
        <ele>143.96</ele>
        <time>2024-06-24T16:39:43.045Z</time>
      </trkpt>
      <trkpt lat="46.82324" lon="-0.3574">
        <ele>143.91</ele>
        <time>2024-06-24T16:39:45.975Z</time>
      </trkpt>
      <trkpt lat="46.82319" lon="-0.35735">
        <ele>143.85</ele>
        <time>2024-06-24T16:39:48.906Z</time>
      </trkpt>
      <trkpt lat="46.82315" lon="-0.35729">
        <ele>143.79</ele>
        <time>2024-06-24T16:39:51.838Z</time>
      </trkpt>
      <trkpt lat="46.8231" lon="-0.35724">
        <ele>143.73</ele>
        <time>2024-06-24T16:39:54.771Z</time>
      </trkpt>
      <trkpt lat="46.82306" lon="-0.35718">
        <ele>143.68</ele>
        <time>2024-06-24T16:39:57.706Z</time>
      </trkpt>
      <trkpt lat="46.82301" lon="-0.35711">
        <ele>143.62</ele>
        <time>2024-06-24T16:40:00.642Z</time>
      </trkpt>
      <trkpt lat="46.82297" lon="-0.35704">
        <ele>143.56</ele>
        <time>2024-06-24T16:40:03.579Z</time>
      </trkpt>
      <trkpt lat="46.82294" lon="-0.35697">
        <ele>143.5</ele>
        <time>2024-06-24T16:40:06.517Z</time>
      </trkpt>
      <trkpt lat="46.82291" lon="-0.35688">
        <ele>143.45</ele>
        <time>2024-06-24T16:40:09.457Z</time>
      </trkpt>
      <trkpt lat="46.82288" lon="-0.3568">
        <ele>143.38</ele>
        <time>2024-06-24T16:40:12.398Z</time>
      </trkpt>
      <trkpt lat="46.82286" lon="-0.35672">
        <ele>143.32</ele>
        <time>2024-06-24T16:40:15.340Z</time>
      </trkpt>
      <trkpt lat="46.82283" lon="-0.35663">
        <ele>143.26</ele>
        <time>2024-06-24T16:40:18.283Z</time>
      </trkpt>
      <trkpt lat="46.8228" lon="-0.35655">
        <ele>143.21</ele>
        <time>2024-06-24T16:40:21.228Z</time>
      </trkpt>
      <trkpt lat="46.82277" lon="-0.35646">
        <ele>143.16</ele>
        <time>2024-06-24T16:40:24.174Z</time>
      </trkpt>
      <trkpt lat="46.82275" lon="-0.35637">
        <ele>143.12</ele>
        <time>2024-06-24T16:40:27.121Z</time>
      </trkpt>
      <trkpt lat="46.82271" lon="-0.35627">
        <ele>143.07</ele>
        <time>2024-06-24T16:40:30.070Z</time>
      </trkpt>
      <trkpt lat="46.82268" lon="-0.35618">
        <ele>143.04</ele>
        <time>2024-06-24T16:40:33.020Z</time>
      </trkpt>
      <trkpt lat="46.82266" lon="-0.35609">
        <ele>143.02</ele>
        <time>2024-06-24T16:40:35.972Z</time>
      </trkpt>
      <trkpt lat="46.82263" lon="-0.35601">
        <ele>143</ele>
        <time>2024-06-24T16:40:38.925Z</time>
      </trkpt>
      <trkpt lat="46.8226" lon="-0.35592">
        <ele>142.99</ele>
        <time>2024-06-24T16:40:41.879Z</time>
      </trkpt>
      <trkpt lat="46.82258" lon="-0.35583">
        <ele>142.98</ele>
        <time>2024-06-24T16:40:44.835Z</time>
      </trkpt>
      <trkpt lat="46.82255" lon="-0.35573">
        <ele>142.98</ele>
        <time>2024-06-24T16:40:47.792Z</time>
      </trkpt>
      <trkpt lat="46.82252" lon="-0.35566">
        <ele>142.98</ele>
        <time>2024-06-24T16:40:50.750Z</time>
      </trkpt>
      <trkpt lat="46.82247" lon="-0.35561">
        <ele>142.99</ele>
        <time>2024-06-24T16:40:53.709Z</time>
      </trkpt>
      <trkpt lat="46.82242" lon="-0.3556">
        <ele>143</ele>
        <time>2024-06-24T16:40:56.669Z</time>
      </trkpt>
      <trkpt lat="46.82238" lon="-0.35563">
        <ele>143.02</ele>
        <time>2024-06-24T16:40:59.630Z</time>
      </trkpt>
      <trkpt lat="46.82234" lon="-0.35567">
        <ele>143.04</ele>
        <time>2024-06-24T16:41:02.592Z</time>
      </trkpt>
      <trkpt lat="46.8223" lon="-0.35573">
        <ele>143.08</ele>
        <time>2024-06-24T16:41:05.555Z</time>
      </trkpt>
      <trkpt lat="46.82226" lon="-0.35578">
        <ele>143.12</ele>
        <time>2024-06-24T16:41:08.519Z</time>
      </trkpt>
      <trkpt lat="46.82223" lon="-0.35584">
        <ele>143.17</ele>
        <time>2024-06-24T16:41:11.484Z</time>
      </trkpt>
      <trkpt lat="46.82219" lon="-0.3559">
        <ele>143.23</ele>
        <time>2024-06-24T16:41:14.451Z</time>
      </trkpt>
      <trkpt lat="46.82216" lon="-0.35597">
        <ele>143.29</ele>
        <time>2024-06-24T16:41:17.419Z</time>
      </trkpt>
      <trkpt lat="46.82212" lon="-0.35602">
        <ele>143.36</ele>
        <time>2024-06-24T16:41:20.388Z</time>
      </trkpt>
      <trkpt lat="46.82208" lon="-0.35607">
        <ele>143.43</ele>
        <time>2024-06-24T16:41:23.358Z</time>
      </trkpt>
      <trkpt lat="46.82205" lon="-0.35611">
        <ele>143.51</ele>
        <time>2024-06-24T16:41:26.329Z</time>
      </trkpt>
      <trkpt lat="46.82201" lon="-0.35616">
        <ele>143.59</ele>
        <time>2024-06-24T16:41:29.301Z</time>
      </trkpt>
      <trkpt lat="46.82197" lon="-0.35621">
        <ele>143.67</ele>
        <time>2024-06-24T16:41:32.274Z</time>
      </trkpt>
      <trkpt lat="46.82194" lon="-0.35627">
        <ele>143.77</ele>
        <time>2024-06-24T16:41:35.248Z</time>
      </trkpt>
      <trkpt lat="46.8219" lon="-0.35632">
        <ele>143.86</ele>
        <time>2024-06-24T16:41:38.223Z</time>
      </trkpt>
      <trkpt lat="46.82187" lon="-0.35637">
        <ele>143.97</ele>
        <time>2024-06-24T16:41:41.199Z</time>
      </trkpt>
      <trkpt lat="46.82183" lon="-0.35642">
        <ele>144.08</ele>
        <time>2024-06-24T16:41:44.176Z</time>
      </trkpt>
      <trkpt lat="46.8218" lon="-0.35647">
        <ele>144.19</ele>
        <time>2024-06-24T16:41:47.154Z</time>
      </trkpt>
      <trkpt lat="46.82176" lon="-0.35653">
        <ele>144.31</ele>
        <time>2024-06-24T16:41:50.133Z</time>
      </trkpt>
      <trkpt lat="46.82173" lon="-0.35658">
        <ele>144.44</ele>
        <time>2024-06-24T16:41:53.113Z</time>
      </trkpt>
      <trkpt lat="46.8217" lon="-0.35662">
        <ele>144.58</ele>
        <time>2024-06-24T16:41:56.094Z</time>
      </trkpt>
      <trkpt lat="46.82166" lon="-0.35666">
        <ele>144.72</ele>
        <time>2024-06-24T16:41:59.075Z</time>
      </trkpt>
      <trkpt lat="46.82162" lon="-0.3567">
        <ele>144.87</ele>
        <time>2024-06-24T16:42:02.057Z</time>
      </trkpt>
      <trkpt lat="46.82158" lon="-0.35675">
        <ele>145.02</ele>
        <time>2024-06-24T16:42:05.040Z</time>
      </trkpt>
      <trkpt lat="46.82155" lon="-0.35679">
        <ele>145.18</ele>
        <time>2024-06-24T16:42:08.024Z</time>
      </trkpt>
      <trkpt lat="46.82151" lon="-0.35683">
        <ele>145.34</ele>
        <time>2024-06-24T16:42:11.009Z</time>
      </trkpt>
      <trkpt lat="46.82147" lon="-0.35686">
        <ele>145.51</ele>
        <time>2024-06-24T16:42:13.995Z</time>
      </trkpt>
      <trkpt lat="46.82144" lon="-0.35689">
        <ele>145.67</ele>
        <time>2024-06-24T16:42:16.982Z</time>
      </trkpt>
      <trkpt lat="46.8214" lon="-0.35692">
        <ele>145.84</ele>
        <time>2024-06-24T16:42:19.970Z</time>
      </trkpt>
      <trkpt lat="46.82136" lon="-0.35695">
        <ele>146.02</ele>
        <time>2024-06-24T16:42:22.959Z</time>
      </trkpt>
      <trkpt lat="46.82133" lon="-0.35698">
        <ele>146.19</ele>
        <time>2024-06-24T16:42:25.949Z</time>
      </trkpt>
      <trkpt lat="46.82129" lon="-0.35702">
        <ele>146.37</ele>
        <time>2024-06-24T16:42:28.939Z</time>
      </trkpt>
      <trkpt lat="46.82125" lon="-0.35704">
        <ele>146.55</ele>
        <time>2024-06-24T16:42:31.930Z</time>
      </trkpt>
      <trkpt lat="46.82122" lon="-0.35708">
        <ele>146.72</ele>
        <time>2024-06-24T16:42:34.922Z</time>
      </trkpt>
      <trkpt lat="46.82118" lon="-0.35711">
        <ele>146.9</ele>
        <time>2024-06-24T16:42:37.915Z</time>
      </trkpt>
      <trkpt lat="46.82115" lon="-0.35714">
        <ele>147.07</ele>
        <time>2024-06-24T16:42:40.909Z</time>
      </trkpt>
      <trkpt lat="46.82111" lon="-0.35717">
        <ele>147.24</ele>
        <time>2024-06-24T16:42:43.904Z</time>
      </trkpt>
      <trkpt lat="46.82107" lon="-0.3572">
        <ele>147.42</ele>
        <time>2024-06-24T16:42:46.899Z</time>
      </trkpt>
      <trkpt lat="46.82104" lon="-0.35724">
        <ele>147.59</ele>
        <time>2024-06-24T16:42:49.895Z</time>
      </trkpt>
      <trkpt lat="46.82101" lon="-0.35726">
        <ele>147.75</ele>
        <time>2024-06-24T16:42:52.892Z</time>
      </trkpt>
      <trkpt lat="46.82097" lon="-0.3573">
        <ele>147.92</ele>
        <time>2024-06-24T16:42:55.890Z</time>
      </trkpt>
      <trkpt lat="46.82094" lon="-0.35733">
        <ele>148.08</ele>
        <time>2024-06-24T16:42:58.889Z</time>
      </trkpt>
      <trkpt lat="46.8209" lon="-0.35735">
        <ele>148.23</ele>
        <time>2024-06-24T16:43:01.888Z</time>
      </trkpt>
      <trkpt lat="46.82086" lon="-0.35738">
        <ele>148.38</ele>
        <time>2024-06-24T16:43:04.888Z</time>
      </trkpt>
      <trkpt lat="46.82083" lon="-0.35741">
        <ele>148.52</ele>
        <time>2024-06-24T16:43:07.889Z</time>
      </trkpt>
      <trkpt lat="46.82079" lon="-0.35745">
        <ele>148.66</ele>
        <time>2024-06-24T16:43:10.891Z</time>
      </trkpt>
      <trkpt lat="46.82076" lon="-0.35748">
        <ele>148.8</ele>
        <time>2024-06-24T16:43:13.894Z</time>
      </trkpt>
      <trkpt lat="46.82073" lon="-0.35751">
        <ele>148.93</ele>
        <time>2024-06-24T16:43:16.897Z</time>
      </trkpt>
      <trkpt lat="46.82069" lon="-0.35754">
        <ele>149.05</ele>
        <time>2024-06-24T16:43:19.901Z</time>
      </trkpt>
      <trkpt lat="46.82066" lon="-0.35757">
        <ele>149.16</ele>
        <time>2024-06-24T16:43:22.906Z</time>
      </trkpt>
      <trkpt lat="46.82063" lon="-0.3576">
        <ele>149.28</ele>
        <time>2024-06-24T16:43:25.912Z</time>
      </trkpt>
      <trkpt lat="46.82059" lon="-0.35763">
        <ele>149.38</ele>
        <time>2024-06-24T16:43:28.919Z</time>
      </trkpt>
      <trkpt lat="46.82056" lon="-0.35767">
        <ele>149.48</ele>
        <time>2024-06-24T16:43:31.927Z</time>
      </trkpt>
      <trkpt lat="46.82053" lon="-0.3577">
        <ele>149.57</ele>
        <time>2024-06-24T16:43:34.935Z</time>
      </trkpt>
      <trkpt lat="46.8205" lon="-0.35774">
        <ele>149.66</ele>
        <time>2024-06-24T16:43:37.944Z</time>
      </trkpt>
      <trkpt lat="46.82047" lon="-0.35778">
        <ele>149.74</ele>
        <time>2024-06-24T16:43:40.954Z</time>
      </trkpt>
      <trkpt lat="46.82044" lon="-0.35782">
        <ele>149.81</ele>
        <time>2024-06-24T16:43:43.965Z</time>
      </trkpt>
      <trkpt lat="46.8204" lon="-0.35786">
        <ele>149.88</ele>
        <time>2024-06-24T16:43:46.977Z</time>
      </trkpt>
      <trkpt lat="46.82037" lon="-0.35789">
        <ele>149.93</ele>
        <time>2024-06-24T16:43:49.989Z</time>
      </trkpt>
      <trkpt lat="46.82034" lon="-0.35793">
        <ele>149.98</ele>
        <time>2024-06-24T16:43:53.002Z</time>
      </trkpt>
      <trkpt lat="46.82031" lon="-0.35797">
        <ele>150.02</ele>
        <time>2024-06-24T16:43:56.016Z</time>
      </trkpt>
      <trkpt lat="46.82028" lon="-0.358">
        <ele>150.04</ele>
        <time>2024-06-24T16:43:59.031Z</time>
      </trkpt>
      <trkpt lat="46.82024" lon="-0.35804">
        <ele>150.06</ele>
        <time>2024-06-24T16:44:02.047Z</time>
      </trkpt>
      <trkpt lat="46.82021" lon="-0.35807">
        <ele>150.07</ele>
        <time>2024-06-24T16:44:05.063Z</time>
      </trkpt>
      <trkpt lat="46.82017" lon="-0.35811">
        <ele>150.07</ele>
        <time>2024-06-24T16:44:08.080Z</time>
      </trkpt>
      <trkpt lat="46.82014" lon="-0.35815">
        <ele>150.07</ele>
        <time>2024-06-24T16:44:11.098Z</time>
      </trkpt>
      <trkpt lat="46.8201" lon="-0.3582">
        <ele>150.05</ele>
        <time>2024-06-24T16:44:14.117Z</time>
      </trkpt>
      <trkpt lat="46.82006" lon="-0.35825">
        <ele>150.02</ele>
        <time>2024-06-24T16:44:17.137Z</time>
      </trkpt>
      <trkpt lat="46.82003" lon="-0.35829">
        <ele>149.98</ele>
        <time>2024-06-24T16:44:20.158Z</time>
      </trkpt>
      <trkpt lat="46.82" lon="-0.35834">
        <ele>149.92</ele>
        <time>2024-06-24T16:44:23.180Z</time>
      </trkpt>
      <trkpt lat="46.81997" lon="-0.35838">
        <ele>149.86</ele>
        <time>2024-06-24T16:44:26.203Z</time>
      </trkpt>
      <trkpt lat="46.81993" lon="-0.35843">
        <ele>149.78</ele>
        <time>2024-06-24T16:44:29.227Z</time>
      </trkpt>
      <trkpt lat="46.81989" lon="-0.35847">
        <ele>149.7</ele>
        <time>2024-06-24T16:44:32.252Z</time>
      </trkpt>
      <trkpt lat="46.81985" lon="-0.35852">
        <ele>149.6</ele>
        <time>2024-06-24T16:44:35.278Z</time>
      </trkpt>
      <trkpt lat="46.81981" lon="-0.35857">
        <ele>149.49</ele>
        <time>2024-06-24T16:44:38.305Z</time>
      </trkpt>
      <trkpt lat="46.81977" lon="-0.35862">
        <ele>149.37</ele>
        <time>2024-06-24T16:44:41.333Z</time>
      </trkpt>
      <trkpt lat="46.81973" lon="-0.35867">
        <ele>149.24</ele>
        <time>2024-06-24T16:44:44.362Z</time>
      </trkpt>
      <trkpt lat="46.81968" lon="-0.35872">
        <ele>149.09</ele>
        <time>2024-06-24T16:44:47.392Z</time>
      </trkpt>
      <trkpt lat="46.81964" lon="-0.35877">
        <ele>148.94</ele>
        <time>2024-06-24T16:44:50.423Z</time>
      </trkpt>
      <trkpt lat="46.8196" lon="-0.35881">
        <ele>148.77</ele>
        <time>2024-06-24T16:44:53.455Z</time>
      </trkpt>
      <trkpt lat="46.81955" lon="-0.35886">
        <ele>148.6</ele>
        <time>2024-06-24T16:44:56.489Z</time>
      </trkpt>
      <trkpt lat="46.81951" lon="-0.35891">
        <ele>148.42</ele>
        <time>2024-06-24T16:44:59.524Z</time>
      </trkpt>
      <trkpt lat="46.81946" lon="-0.35896">
        <ele>148.23</ele>
        <time>2024-06-24T16:45:02.560Z</time>
      </trkpt>
      <trkpt lat="46.81941" lon="-0.35901">
        <ele>148.03</ele>
        <time>2024-06-24T16:45:05.597Z</time>
      </trkpt>
      <trkpt lat="46.81936" lon="-0.35906">
        <ele>147.82</ele>
        <time>2024-06-24T16:45:08.635Z</time>
      </trkpt>
      <trkpt lat="46.8193" lon="-0.35912">
        <ele>147.61</ele>
        <time>2024-06-24T16:45:11.675Z</time>
      </trkpt>
      <trkpt lat="46.81925" lon="-0.35917">
        <ele>147.38</ele>
        <time>2024-06-24T16:45:14.716Z</time>
      </trkpt>
      <trkpt lat="46.81919" lon="-0.35923">
        <ele>147.15</ele>
        <time>2024-06-24T16:45:17.758Z</time>
      </trkpt>
      <trkpt lat="46.81914" lon="-0.35929">
        <ele>146.9</ele>
        <time>2024-06-24T16:45:20.802Z</time>
      </trkpt>
      <trkpt lat="46.81908" lon="-0.35935">
        <ele>146.65</ele>
        <time>2024-06-24T16:45:23.847Z</time>
      </trkpt>
      <trkpt lat="46.81901" lon="-0.35941">
        <ele>146.39</ele>
        <time>2024-06-24T16:45:26.894Z</time>
      </trkpt>
      <trkpt lat="46.81895" lon="-0.35946">
        <ele>146.12</ele>
        <time>2024-06-24T16:45:29.942Z</time>
      </trkpt>
      <trkpt lat="46.81888" lon="-0.35951">
        <ele>145.84</ele>
        <time>2024-06-24T16:45:32.992Z</time>
      </trkpt>
      <trkpt lat="46.81882" lon="-0.35956">
        <ele>145.56</ele>
        <time>2024-06-24T16:45:36.043Z</time>
      </trkpt>
      <trkpt lat="46.81876" lon="-0.3596">
        <ele>145.26</ele>
        <time>2024-06-24T16:45:39.095Z</time>
      </trkpt>
      <trkpt lat="46.8187" lon="-0.35965">
        <ele>144.96</ele>
        <time>2024-06-24T16:45:42.149Z</time>
      </trkpt>
      <trkpt lat="46.81865" lon="-0.35969">
        <ele>144.66</ele>
        <time>2024-06-24T16:45:45.204Z</time>
      </trkpt>
      <trkpt lat="46.81859" lon="-0.35974">
        <ele>144.35</ele>
        <time>2024-06-24T16:45:48.260Z</time>
      </trkpt>
      <trkpt lat="46.81853" lon="-0.35978">
        <ele>144.04</ele>
        <time>2024-06-24T16:45:51.318Z</time>
      </trkpt>
      <trkpt lat="46.81848" lon="-0.35981">
        <ele>143.72</ele>
        <time>2024-06-24T16:45:54.377Z</time>
      </trkpt>
      <trkpt lat="46.81842" lon="-0.35986">
        <ele>143.39</ele>
        <time>2024-06-24T16:45:57.437Z</time>
      </trkpt>
      <trkpt lat="46.81836" lon="-0.3599">
        <ele>143.06</ele>
        <time>2024-06-24T16:46:00.498Z</time>
      </trkpt>
      <trkpt lat="46.8183" lon="-0.35994">
        <ele>142.73</ele>
        <time>2024-06-24T16:46:03.561Z</time>
      </trkpt>
      <trkpt lat="46.81824" lon="-0.35999">
        <ele>142.39</ele>
        <time>2024-06-24T16:46:06.625Z</time>
      </trkpt>
      <trkpt lat="46.81819" lon="-0.36003">
        <ele>142.05</ele>
        <time>2024-06-24T16:46:09.690Z</time>
      </trkpt>
      <trkpt lat="46.81813" lon="-0.36008">
        <ele>141.7</ele>
        <time>2024-06-24T16:46:12.757Z</time>
      </trkpt>
      <trkpt lat="46.81807" lon="-0.36013">
        <ele>141.35</ele>
        <time>2024-06-24T16:46:15.825Z</time>
      </trkpt>
      <trkpt lat="46.81801" lon="-0.36018">
        <ele>140.99</ele>
        <time>2024-06-24T16:46:18.894Z</time>
      </trkpt>
      <trkpt lat="46.81795" lon="-0.36024">
        <ele>140.64</ele>
        <time>2024-06-24T16:46:21.965Z</time>
      </trkpt>
      <trkpt lat="46.8179" lon="-0.36029">
        <ele>140.28</ele>
        <time>2024-06-24T16:46:25.037Z</time>
      </trkpt>
      <trkpt lat="46.81784" lon="-0.36034">
        <ele>139.93</ele>
        <time>2024-06-24T16:46:28.110Z</time>
      </trkpt>
      <trkpt lat="46.81779" lon="-0.3604">
        <ele>139.58</ele>
        <time>2024-06-24T16:46:31.185Z</time>
      </trkpt>
      <trkpt lat="46.81773" lon="-0.36047">
        <ele>139.23</ele>
        <time>2024-06-24T16:46:34.261Z</time>
      </trkpt>
      <trkpt lat="46.81768" lon="-0.36053">
        <ele>138.89</ele>
        <time>2024-06-24T16:46:37.339Z</time>
      </trkpt>
      <trkpt lat="46.81762" lon="-0.3606">
        <ele>138.55</ele>
        <time>2024-06-24T16:46:40.418Z</time>
      </trkpt>
      <trkpt lat="46.81757" lon="-0.36068">
        <ele>138.21</ele>
        <time>2024-06-24T16:46:43.499Z</time>
      </trkpt>
      <trkpt lat="46.81751" lon="-0.36076">
        <ele>137.87</ele>
        <time>2024-06-24T16:46:46.581Z</time>
      </trkpt>
      <trkpt lat="46.81744" lon="-0.36086">
        <ele>137.54</ele>
        <time>2024-06-24T16:46:49.665Z</time>
      </trkpt>
      <trkpt lat="46.81737" lon="-0.36095">
        <ele>137.2</ele>
        <time>2024-06-24T16:46:52.751Z</time>
      </trkpt>
      <trkpt lat="46.8173" lon="-0.36104">
        <ele>136.88</ele>
        <time>2024-06-24T16:46:55.839Z</time>
      </trkpt>
      <trkpt lat="46.81722" lon="-0.36114">
        <ele>136.57</ele>
        <time>2024-06-24T16:46:58.929Z</time>
      </trkpt>
      <trkpt lat="46.81715" lon="-0.36124">
        <ele>136.28</ele>
        <time>2024-06-24T16:47:02.021Z</time>
      </trkpt>
      <trkpt lat="46.81707" lon="-0.36133">
        <ele>135.99</ele>
        <time>2024-06-24T16:47:05.115Z</time>
      </trkpt>
      <trkpt lat="46.81699" lon="-0.36142">
        <ele>135.73</ele>
        <time>2024-06-24T16:47:08.211Z</time>
      </trkpt>
      <trkpt lat="46.81692" lon="-0.36149">
        <ele>135.48</ele>
        <time>2024-06-24T16:47:11.309Z</time>
      </trkpt>
      <trkpt lat="46.81684" lon="-0.36156">
        <ele>135.24</ele>
        <time>2024-06-24T16:47:14.409Z</time>
      </trkpt>
      <trkpt lat="46.81677" lon="-0.36162">
        <ele>135.01</ele>
        <time>2024-06-24T16:47:17.510Z</time>
      </trkpt>
      <trkpt lat="46.8167" lon="-0.36169">
        <ele>134.79</ele>
        <time>2024-06-24T16:47:20.613Z</time>
      </trkpt>
      <trkpt lat="46.81663" lon="-0.36175">
        <ele>134.59</ele>
        <time>2024-06-24T16:47:23.718Z</time>
      </trkpt>
      <trkpt lat="46.81657" lon="-0.36181">
        <ele>134.4</ele>
        <time>2024-06-24T16:47:26.824Z</time>
      </trkpt>
      <trkpt lat="46.81651" lon="-0.36185">
        <ele>134.22</ele>
        <time>2024-06-24T16:47:29.931Z</time>
      </trkpt>
      <trkpt lat="46.81645" lon="-0.36191">
        <ele>134.05</ele>
        <time>2024-06-24T16:47:33.040Z</time>
      </trkpt>
      <trkpt lat="46.81639" lon="-0.36196">
        <ele>133.89</ele>
        <time>2024-06-24T16:47:36.150Z</time>
      </trkpt>
      <trkpt lat="46.81633" lon="-0.36201">
        <ele>133.75</ele>
        <time>2024-06-24T16:47:39.261Z</time>
      </trkpt>
      <trkpt lat="46.81627" lon="-0.36206">
        <ele>133.61</ele>
        <time>2024-06-24T16:47:42.374Z</time>
      </trkpt>
      <trkpt lat="46.81621" lon="-0.3621">
        <ele>133.49</ele>
        <time>2024-06-24T16:47:45.488Z</time>
      </trkpt>
      <trkpt lat="46.81615" lon="-0.36215">
        <ele>133.38</ele>
        <time>2024-06-24T16:47:48.604Z</time>
      </trkpt>
      <trkpt lat="46.8161" lon="-0.36219">
        <ele>133.29</ele>
        <time>2024-06-24T16:47:51.721Z</time>
      </trkpt>
      <trkpt lat="46.81604" lon="-0.36223">
        <ele>133.2</ele>
        <time>2024-06-24T16:47:54.839Z</time>
      </trkpt>
      <trkpt lat="46.81599" lon="-0.36226">
        <ele>133.13</ele>
        <time>2024-06-24T16:47:57.958Z</time>
      </trkpt>
      <trkpt lat="46.81593" lon="-0.3623">
        <ele>133.07</ele>
        <time>2024-06-24T16:48:01.078Z</time>
      </trkpt>
      <trkpt lat="46.81587" lon="-0.36233">
        <ele>133.02</ele>
        <time>2024-06-24T16:48:04.200Z</time>
      </trkpt>
      <trkpt lat="46.81581" lon="-0.36236">
        <ele>132.98</ele>
        <time>2024-06-24T16:48:07.323Z</time>
      </trkpt>
      <trkpt lat="46.81575" lon="-0.36239">
        <ele>132.96</ele>
        <time>2024-06-24T16:48:10.447Z</time>
      </trkpt>
      <trkpt lat="46.8157" lon="-0.36242">
        <ele>132.94</ele>
        <time>2024-06-24T16:48:13.572Z</time>
      </trkpt>
      <trkpt lat="46.81564" lon="-0.36246">
        <ele>132.94</ele>
        <time>2024-06-24T16:48:16.699Z</time>
      </trkpt>
      <trkpt lat="46.81559" lon="-0.36249">
        <ele>132.95</ele>
        <time>2024-06-24T16:48:19.827Z</time>
      </trkpt>
      <trkpt lat="46.81553" lon="-0.36251">
        <ele>132.96</ele>
        <time>2024-06-24T16:48:22.956Z</time>
      </trkpt>
      <trkpt lat="46.81548" lon="-0.36254">
        <ele>132.99</ele>
        <time>2024-06-24T16:48:26.086Z</time>
      </trkpt>
      <trkpt lat="46.81542" lon="-0.36258">
        <ele>133.02</ele>
        <time>2024-06-24T16:48:29.217Z</time>
      </trkpt>
      <trkpt lat="46.81536" lon="-0.36261">
        <ele>133.07</ele>
        <time>2024-06-24T16:48:32.350Z</time>
      </trkpt>
      <trkpt lat="46.81531" lon="-0.36264">
        <ele>133.13</ele>
        <time>2024-06-24T16:48:35.484Z</time>
      </trkpt>
      <trkpt lat="46.81525" lon="-0.36267">
        <ele>133.2</ele>
        <time>2024-06-24T16:48:38.619Z</time>
      </trkpt>
      <trkpt lat="46.81519" lon="-0.3627">
        <ele>133.29</ele>
        <time>2024-06-24T16:48:41.755Z</time>
      </trkpt>
      <trkpt lat="46.81514" lon="-0.36273">
        <ele>133.37</ele>
        <time>2024-06-24T16:48:44.892Z</time>
      </trkpt>
      <trkpt lat="46.81509" lon="-0.36276">
        <ele>133.47</ele>
        <time>2024-06-24T16:48:48.031Z</time>
      </trkpt>
      <trkpt lat="46.81503" lon="-0.3628">
        <ele>133.58</ele>
        <time>2024-06-24T16:48:51.171Z</time>
      </trkpt>
      <trkpt lat="46.81498" lon="-0.36283">
        <ele>133.7</ele>
        <time>2024-06-24T16:48:54.312Z</time>
      </trkpt>
      <trkpt lat="46.81493" lon="-0.36285">
        <ele>133.83</ele>
        <time>2024-06-24T16:48:57.454Z</time>
      </trkpt>
      <trkpt lat="46.81487" lon="-0.36288">
        <ele>133.96</ele>
        <time>2024-06-24T16:49:00.597Z</time>
      </trkpt>
      <trkpt lat="46.81482" lon="-0.36292">
        <ele>134.1</ele>
        <time>2024-06-24T16:49:03.741Z</time>
      </trkpt>
      <trkpt lat="46.81476" lon="-0.36295">
        <ele>134.24</ele>
        <time>2024-06-24T16:49:06.886Z</time>
      </trkpt>
      <trkpt lat="46.81471" lon="-0.36297">
        <ele>134.4</ele>
        <time>2024-06-24T16:49:10.033Z</time>
      </trkpt>
      <trkpt lat="46.81466" lon="-0.36301">
        <ele>134.56</ele>
        <time>2024-06-24T16:49:13.181Z</time>
      </trkpt>
      <trkpt lat="46.81462" lon="-0.36305">
        <ele>134.71</ele>
        <time>2024-06-24T16:49:16.330Z</time>
      </trkpt>
      <trkpt lat="46.81459" lon="-0.3631">
        <ele>134.88</ele>
        <time>2024-06-24T16:49:19.480Z</time>
      </trkpt>
      <trkpt lat="46.81456" lon="-0.36315">
        <ele>135.04</ele>
        <time>2024-06-24T16:49:22.631Z</time>
      </trkpt>
      <trkpt lat="46.81455" lon="-0.36322">
        <ele>135.21</ele>
        <time>2024-06-24T16:49:25.782Z</time>
      </trkpt>
      <trkpt lat="46.81454" lon="-0.36329">
        <ele>135.38</ele>
        <time>2024-06-24T16:49:28.934Z</time>
      </trkpt>
      <trkpt lat="46.81454" lon="-0.36337">
        <ele>135.55</ele>
        <time>2024-06-24T16:49:32.087Z</time>
      </trkpt>
      <trkpt lat="46.81455" lon="-0.36344">
        <ele>135.72</ele>
        <time>2024-06-24T16:49:35.241Z</time>
      </trkpt>
      <trkpt lat="46.81456" lon="-0.36352">
        <ele>135.89</ele>
        <time>2024-06-24T16:49:38.397Z</time>
      </trkpt>
      <trkpt lat="46.81457" lon="-0.3636">
        <ele>136.06</ele>
        <time>2024-06-24T16:49:41.554Z</time>
      </trkpt>
      <trkpt lat="46.81458" lon="-0.36368">
        <ele>136.24</ele>
        <time>2024-06-24T16:49:44.712Z</time>
      </trkpt>
      <trkpt lat="46.81458" lon="-0.36375">
        <ele>136.42</ele>
        <time>2024-06-24T16:49:47.871Z</time>
      </trkpt>
      <trkpt lat="46.81459" lon="-0.36382">
        <ele>136.59</ele>
        <time>2024-06-24T16:49:51.031Z</time>
      </trkpt>
      <trkpt lat="46.8146" lon="-0.36389">
        <ele>136.77</ele>
        <time>2024-06-24T16:49:54.192Z</time>
      </trkpt>
      <trkpt lat="46.8146" lon="-0.36396">
        <ele>136.94</ele>
        <time>2024-06-24T16:49:57.354Z</time>
      </trkpt>
      <trkpt lat="46.81461" lon="-0.36402">
        <ele>137.11</ele>
        <time>2024-06-24T16:50:00.517Z</time>
      </trkpt>
      <trkpt lat="46.81463" lon="-0.36408">
        <ele>137.28</ele>
        <time>2024-06-24T16:50:03.681Z</time>
      </trkpt>
      <trkpt lat="46.81464" lon="-0.36415">
        <ele>137.43</ele>
        <time>2024-06-24T16:50:06.845Z</time>
      </trkpt>
      <trkpt lat="46.81465" lon="-0.36422">
        <ele>137.58</ele>
        <time>2024-06-24T16:50:10.010Z</time>
      </trkpt>
      <trkpt lat="46.81467" lon="-0.36429">
        <ele>137.73</ele>
        <time>2024-06-24T16:50:13.176Z</time>
      </trkpt>
      <trkpt lat="46.81467" lon="-0.36435">
        <ele>137.87</ele>
        <time>2024-06-24T16:50:16.343Z</time>
      </trkpt>
      <trkpt lat="46.81468" lon="-0.36442">
        <ele>138.01</ele>
        <time>2024-06-24T16:50:19.511Z</time>
      </trkpt>
      <trkpt lat="46.81468" lon="-0.36448">
        <ele>138.13</ele>
        <time>2024-06-24T16:50:22.680Z</time>
      </trkpt>
      <trkpt lat="46.81468" lon="-0.36454">
        <ele>138.24</ele>
        <time>2024-06-24T16:50:25.850Z</time>
      </trkpt>
      <trkpt lat="46.81468" lon="-0.3646">
        <ele>138.34</ele>
        <time>2024-06-24T16:50:29.021Z</time>
      </trkpt>
      <trkpt lat="46.81468" lon="-0.36465">
        <ele>138.44</ele>
        <time>2024-06-24T16:50:32.192Z</time>
      </trkpt>
      <trkpt lat="46.81467" lon="-0.36472">
        <ele>138.52</ele>
        <time>2024-06-24T16:50:35.364Z</time>
      </trkpt>
      <trkpt lat="46.81466" lon="-0.36478">
        <ele>138.58</ele>
        <time>2024-06-24T16:50:38.537Z</time>
      </trkpt>
      <trkpt lat="46.81465" lon="-0.36485">
        <ele>138.64</ele>
        <time>2024-06-24T16:50:41.711Z</time>
      </trkpt>
      <trkpt lat="46.81465" lon="-0.36492">
        <ele>138.68</ele>
        <time>2024-06-24T16:50:44.886Z</time>
      </trkpt>
      <trkpt lat="46.81464" lon="-0.36498">
        <ele>138.72</ele>
        <time>2024-06-24T16:50:48.062Z</time>
      </trkpt>
      <trkpt lat="46.81464" lon="-0.36504">
        <ele>138.75</ele>
        <time>2024-06-24T16:50:51.239Z</time>
      </trkpt>
      <trkpt lat="46.81463" lon="-0.3651">
        <ele>138.77</ele>
        <time>2024-06-24T16:50:54.417Z</time>
      </trkpt>
      <trkpt lat="46.81462" lon="-0.36516">
        <ele>138.78</ele>
        <time>2024-06-24T16:50:57.596Z</time>
      </trkpt>
      <trkpt lat="46.8146" lon="-0.36522">
        <ele>138.77</ele>
        <time>2024-06-24T16:51:00.775Z</time>
      </trkpt>
      <trkpt lat="46.81459" lon="-0.36528">
        <ele>138.76</ele>
        <time>2024-06-24T16:51:03.955Z</time>
      </trkpt>
      <trkpt lat="46.81458" lon="-0.36533">
        <ele>138.73</ele>
        <time>2024-06-24T16:51:07.136Z</time>
      </trkpt>
      <trkpt lat="46.81458" lon="-0.36538">
        <ele>138.7</ele>
        <time>2024-06-24T16:51:10.318Z</time>
      </trkpt>
      <trkpt lat="46.81457" lon="-0.36544">
        <ele>138.65</ele>
        <time>2024-06-24T16:51:13.501Z</time>
      </trkpt>
      <trkpt lat="46.81456" lon="-0.36551">
        <ele>138.59</ele>
        <time>2024-06-24T16:51:16.684Z</time>
      </trkpt>
      <trkpt lat="46.81455" lon="-0.36558">
        <ele>138.52</ele>
        <time>2024-06-24T16:51:19.868Z</time>
      </trkpt>
      <trkpt lat="46.81454" lon="-0.36564">
        <ele>138.44</ele>
        <time>2024-06-24T16:51:23.053Z</time>
      </trkpt>
      <trkpt lat="46.81453" lon="-0.36571">
        <ele>138.35</ele>
        <time>2024-06-24T16:51:26.239Z</time>
      </trkpt>
      <trkpt lat="46.81452" lon="-0.36577">
        <ele>138.25</ele>
        <time>2024-06-24T16:51:29.426Z</time>
      </trkpt>
      <trkpt lat="46.81451" lon="-0.36583">
        <ele>138.15</ele>
        <time>2024-06-24T16:51:32.614Z</time>
      </trkpt>
      <trkpt lat="46.8145" lon="-0.3659">
        <ele>138.02</ele>
        <time>2024-06-24T16:51:35.803Z</time>
      </trkpt>
      <trkpt lat="46.81449" lon="-0.36596">
        <ele>137.89</ele>
        <time>2024-06-24T16:51:38.993Z</time>
      </trkpt>
      <trkpt lat="46.81448" lon="-0.36604">
        <ele>137.75</ele>
        <time>2024-06-24T16:51:42.184Z</time>
      </trkpt>
      <trkpt lat="46.81446" lon="-0.3661">
        <ele>137.6</ele>
        <time>2024-06-24T16:51:45.376Z</time>
      </trkpt>
      <trkpt lat="46.81445" lon="-0.36616">
        <ele>137.44</ele>
        <time>2024-06-24T16:51:48.569Z</time>
      </trkpt>
      <trkpt lat="46.81444" lon="-0.36623">
        <ele>137.26</ele>
        <time>2024-06-24T16:51:51.763Z</time>
      </trkpt>
      <trkpt lat="46.81443" lon="-0.36628">
        <ele>137.08</ele>
        <time>2024-06-24T16:51:54.957Z</time>
      </trkpt>
      <trkpt lat="46.81442" lon="-0.36633">
        <ele>136.9</ele>
        <time>2024-06-24T16:51:58.152Z</time>
      </trkpt>
      <trkpt lat="46.81441" lon="-0.3664">
        <ele>136.7</ele>
        <time>2024-06-24T16:52:01.348Z</time>
      </trkpt>
      <trkpt lat="46.8144" lon="-0.36647">
        <ele>136.49</ele>
        <time>2024-06-24T16:52:04.545Z</time>
      </trkpt>
      <trkpt lat="46.81438" lon="-0.36655">
        <ele>136.27</ele>
        <time>2024-06-24T16:52:07.743Z</time>
      </trkpt>
      <trkpt lat="46.81437" lon="-0.36662">
        <ele>136.04</ele>
        <time>2024-06-24T16:52:10.942Z</time>
      </trkpt>
      <trkpt lat="46.81436" lon="-0.3667">
        <ele>135.81</ele>
        <time>2024-06-24T16:52:14.142Z</time>
      </trkpt>
      <trkpt lat="46.81434" lon="-0.36678">
        <ele>135.56</ele>
        <time>2024-06-24T16:52:17.343Z</time>
      </trkpt>
      <trkpt lat="46.81433" lon="-0.36685">
        <ele>135.32</ele>
        <time>2024-06-24T16:52:20.546Z</time>
      </trkpt>
      <trkpt lat="46.81431" lon="-0.36694">
        <ele>135.07</ele>
        <time>2024-06-24T16:52:23.750Z</time>
      </trkpt>
      <trkpt lat="46.81429" lon="-0.36702">
        <ele>134.82</ele>
        <time>2024-06-24T16:52:26.955Z</time>
      </trkpt>
      <trkpt lat="46.81427" lon="-0.36711">
        <ele>134.56</ele>
        <time>2024-06-24T16:52:30.161Z</time>
      </trkpt>
      <trkpt lat="46.81425" lon="-0.3672">
        <ele>134.3</ele>
        <time>2024-06-24T16:52:33.368Z</time>
      </trkpt>
      <trkpt lat="46.81423" lon="-0.36728">
        <ele>134.04</ele>
        <time>2024-06-24T16:52:36.577Z</time>
      </trkpt>
      <trkpt lat="46.8142" lon="-0.36737">
        <ele>133.77</ele>
        <time>2024-06-24T16:52:39.787Z</time>
      </trkpt>
      <trkpt lat="46.81417" lon="-0.36747">
        <ele>133.51</ele>
        <time>2024-06-24T16:52:42.999Z</time>
      </trkpt>
      <trkpt lat="46.81414" lon="-0.36757">
        <ele>133.24</ele>
        <time>2024-06-24T16:52:46.212Z</time>
      </trkpt>
      <trkpt lat="46.81411" lon="-0.36766">
        <ele>132.97</ele>
        <time>2024-06-24T16:52:49.426Z</time>
      </trkpt>
      <trkpt lat="46.81408" lon="-0.36776">
        <ele>132.7</ele>
        <time>2024-06-24T16:52:52.642Z</time>
      </trkpt>
      <trkpt lat="46.81406" lon="-0.36786">
        <ele>132.43</ele>
        <time>2024-06-24T16:52:55.859Z</time>
      </trkpt>
      <trkpt lat="46.81405" lon="-0.36795">
        <ele>132.16</ele>
        <time>2024-06-24T16:52:59.078Z</time>
      </trkpt>
      <trkpt lat="46.81405" lon="-0.36805">
        <ele>131.9</ele>
        <time>2024-06-24T16:53:02.298Z</time>
      </trkpt>
      <trkpt lat="46.81406" lon="-0.36814">
        <ele>131.64</ele>
        <time>2024-06-24T16:53:05.519Z</time>
      </trkpt>
      <trkpt lat="46.81409" lon="-0.36822">
        <ele>131.38</ele>
        <time>2024-06-24T16:53:08.742Z</time>
      </trkpt>
      <trkpt lat="46.81413" lon="-0.36828">
        <ele>131.14</ele>
        <time>2024-06-24T16:53:11.966Z</time>
      </trkpt>
      <trkpt lat="46.81417" lon="-0.36833">
        <ele>130.9</ele>
        <time>2024-06-24T16:53:15.191Z</time>
      </trkpt>
      <trkpt lat="46.8142" lon="-0.36837">
        <ele>130.66</ele>
        <time>2024-06-24T16:53:18.417Z</time>
      </trkpt>
      <trkpt lat="46.8142" lon="-0.36843">
        <ele>130.44</ele>
        <time>2024-06-24T16:53:21.643Z</time>
      </trkpt>
      <trkpt lat="46.81418" lon="-0.3685">
        <ele>130.22</ele>
        <time>2024-06-24T16:53:24.870Z</time>
      </trkpt>
      <trkpt lat="46.81413" lon="-0.36854">
        <ele>130.01</ele>
        <time>2024-06-24T16:53:28.098Z</time>
      </trkpt>
      <trkpt lat="46.81407" lon="-0.36858">
        <ele>129.8</ele>
        <time>2024-06-24T16:53:31.328Z</time>
      </trkpt>
      <trkpt lat="46.81402" lon="-0.36863">
        <ele>129.61</ele>
        <time>2024-06-24T16:53:34.559Z</time>
      </trkpt>
      <trkpt lat="46.81397" lon="-0.36869">
        <ele>129.42</ele>
        <time>2024-06-24T16:53:37.791Z</time>
      </trkpt>
      <trkpt lat="46.81392" lon="-0.36874">
        <ele>129.25</ele>
        <time>2024-06-24T16:53:41.024Z</time>
      </trkpt>
      <trkpt lat="46.81387" lon="-0.3688">
        <ele>129.08</ele>
        <time>2024-06-24T16:53:44.259Z</time>
      </trkpt>
      <trkpt lat="46.81383" lon="-0.36886">
        <ele>128.93</ele>
        <time>2024-06-24T16:53:47.495Z</time>
      </trkpt>
      <trkpt lat="46.81378" lon="-0.36892">
        <ele>128.78</ele>
        <time>2024-06-24T16:53:50.732Z</time>
      </trkpt>
      <trkpt lat="46.81374" lon="-0.36899">
        <ele>128.64</ele>
        <time>2024-06-24T16:53:53.970Z</time>
      </trkpt>
      <trkpt lat="46.8137" lon="-0.36905">
        <ele>128.51</ele>
        <time>2024-06-24T16:53:57.210Z</time>
      </trkpt>
      <trkpt lat="46.81366" lon="-0.36912">
        <ele>128.39</ele>
        <time>2024-06-24T16:54:00.451Z</time>
      </trkpt>
      <trkpt lat="46.81361" lon="-0.36918">
        <ele>128.28</ele>
        <time>2024-06-24T16:54:03.693Z</time>
      </trkpt>
      <trkpt lat="46.81357" lon="-0.36925">
        <ele>128.18</ele>
        <time>2024-06-24T16:54:06.936Z</time>
      </trkpt>
      <trkpt lat="46.81353" lon="-0.36931">
        <ele>128.09</ele>
        <time>2024-06-24T16:54:10.181Z</time>
      </trkpt>
      <trkpt lat="46.81348" lon="-0.36937">
        <ele>128.01</ele>
        <time>2024-06-24T16:54:13.427Z</time>
      </trkpt>
      <trkpt lat="46.81344" lon="-0.36943">
        <ele>127.94</ele>
        <time>2024-06-24T16:54:16.674Z</time>
      </trkpt>
      <trkpt lat="46.81339" lon="-0.3695">
        <ele>127.88</ele>
        <time>2024-06-24T16:54:19.922Z</time>
      </trkpt>
      <trkpt lat="46.81335" lon="-0.36956">
        <ele>127.83</ele>
        <time>2024-06-24T16:54:23.171Z</time>
      </trkpt>
      <trkpt lat="46.81331" lon="-0.36962">
        <ele>127.79</ele>
        <time>2024-06-24T16:54:26.422Z</time>
      </trkpt>
      <trkpt lat="46.81327" lon="-0.36967">
        <ele>127.76</ele>
        <time>2024-06-24T16:54:29.674Z</time>
      </trkpt>
      <trkpt lat="46.81323" lon="-0.36973">
        <ele>127.73</ele>
        <time>2024-06-24T16:54:32.927Z</time>
      </trkpt>
      <trkpt lat="46.8132" lon="-0.36977">
        <ele>127.72</ele>
        <time>2024-06-24T16:54:36.181Z</time>
      </trkpt>
      <trkpt lat="46.81316" lon="-0.36982">
        <ele>127.71</ele>
        <time>2024-06-24T16:54:39.436Z</time>
      </trkpt>
      <trkpt lat="46.81313" lon="-0.36987">
        <ele>127.71</ele>
        <time>2024-06-24T16:54:42.692Z</time>
      </trkpt>
      <trkpt lat="46.81309" lon="-0.36992">
        <ele>127.71</ele>
        <time>2024-06-24T16:54:45.949Z</time>
      </trkpt>
      <trkpt lat="46.81306" lon="-0.36997">
        <ele>127.72</ele>
        <time>2024-06-24T16:54:49.207Z</time>
      </trkpt>
      <trkpt lat="46.81302" lon="-0.37002">
        <ele>127.74</ele>
        <time>2024-06-24T16:54:52.466Z</time>
      </trkpt>
      <trkpt lat="46.81299" lon="-0.37006">
        <ele>127.76</ele>
        <time>2024-06-24T16:54:55.725Z</time>
      </trkpt>
      <trkpt lat="46.81296" lon="-0.37011">
        <ele>127.79</ele>
        <time>2024-06-24T16:54:58.985Z</time>
      </trkpt>
      <trkpt lat="46.81292" lon="-0.37016">
        <ele>127.83</ele>
        <time>2024-06-24T16:55:02.246Z</time>
      </trkpt>
      <trkpt lat="46.81289" lon="-0.3702">
        <ele>127.87</ele>
        <time>2024-06-24T16:55:05.508Z</time>
      </trkpt>
      <trkpt lat="46.81286" lon="-0.37025">
        <ele>127.92</ele>
        <time>2024-06-24T16:55:08.771Z</time>
      </trkpt>
      <trkpt lat="46.81283" lon="-0.37029">
        <ele>127.97</ele>
        <time>2024-06-24T16:55:12.035Z</time>
      </trkpt>
      <trkpt lat="46.8128" lon="-0.37034">
        <ele>128.04</ele>
        <time>2024-06-24T16:55:15.300Z</time>
      </trkpt>
      <trkpt lat="46.81277" lon="-0.37039">
        <ele>128.1</ele>
        <time>2024-06-24T16:55:18.566Z</time>
      </trkpt>
      <trkpt lat="46.81274" lon="-0.37043">
        <ele>128.17</ele>
        <time>2024-06-24T16:55:21.833Z</time>
      </trkpt>
      <trkpt lat="46.81272" lon="-0.37047">
        <ele>128.24</ele>
        <time>2024-06-24T16:55:25.100Z</time>
      </trkpt>
      <trkpt lat="46.81269" lon="-0.37051">
        <ele>128.31</ele>
        <time>2024-06-24T16:55:28.368Z</time>
      </trkpt>
      <trkpt lat="46.81267" lon="-0.37055">
        <ele>128.38</ele>
        <time>2024-06-24T16:55:31.637Z</time>
      </trkpt>
      <trkpt lat="46.81264" lon="-0.3706">
        <ele>128.46</ele>
        <time>2024-06-24T16:55:34.907Z</time>
      </trkpt>
      <trkpt lat="46.81261" lon="-0.37065">
        <ele>128.54</ele>
        <time>2024-06-24T16:55:38.178Z</time>
      </trkpt>
      <trkpt lat="46.81259" lon="-0.37069">
        <ele>128.62</ele>
        <time>2024-06-24T16:55:41.449Z</time>
      </trkpt>
      <trkpt lat="46.81256" lon="-0.37073">
        <ele>128.7</ele>
        <time>2024-06-24T16:55:44.721Z</time>
      </trkpt>
      <trkpt lat="46.81254" lon="-0.37078">
        <ele>128.78</ele>
        <time>2024-06-24T16:55:47.994Z</time>
      </trkpt>
      <trkpt lat="46.81251" lon="-0.37081">
        <ele>128.86</ele>
        <time>2024-06-24T16:55:51.268Z</time>
      </trkpt>
      <trkpt lat="46.81248" lon="-0.37085">
        <ele>128.94</ele>
        <time>2024-06-24T16:55:54.542Z</time>
      </trkpt>
      <trkpt lat="46.81245" lon="-0.37087">
        <ele>129.01</ele>
        <time>2024-06-24T16:55:57.817Z</time>
      </trkpt>
      <trkpt lat="46.81241" lon="-0.37088">
        <ele>129.09</ele>
        <time>2024-06-24T16:56:01.093Z</time>
      </trkpt>
      <trkpt lat="46.81237" lon="-0.37088">
        <ele>129.16</ele>
        <time>2024-06-24T16:56:04.370Z</time>
      </trkpt>
      <trkpt lat="46.81233" lon="-0.37087">
        <ele>129.23</ele>
        <time>2024-06-24T16:56:07.647Z</time>
      </trkpt>
      <trkpt lat="46.8123" lon="-0.37085">
        <ele>129.3</ele>
        <time>2024-06-24T16:56:10.925Z</time>
      </trkpt>
      <trkpt lat="46.81227" lon="-0.37082">
        <ele>129.36</ele>
        <time>2024-06-24T16:56:14.204Z</time>
      </trkpt>
      <trkpt lat="46.81223" lon="-0.37077">
        <ele>129.43</ele>
        <time>2024-06-24T16:56:17.484Z</time>
      </trkpt>
      <trkpt lat="46.8122" lon="-0.37072">
        <ele>129.49</ele>
        <time>2024-06-24T16:56:20.765Z</time>
      </trkpt>
      <trkpt lat="46.81217" lon="-0.37066">
        <ele>129.55</ele>
        <time>2024-06-24T16:56:24.047Z</time>
      </trkpt>
      <trkpt lat="46.81213" lon="-0.37059">
        <ele>129.62</ele>
        <time>2024-06-24T16:56:27.330Z</time>
      </trkpt>
      <trkpt lat="46.8121" lon="-0.37053">
        <ele>129.69</ele>
        <time>2024-06-24T16:56:30.614Z</time>
      </trkpt>
      <trkpt lat="46.81205" lon="-0.37046">
        <ele>129.75</ele>
        <time>2024-06-24T16:56:33.899Z</time>
      </trkpt>
      <trkpt lat="46.81201" lon="-0.3704">
        <ele>129.8</ele>
        <time>2024-06-24T16:56:37.186Z</time>
      </trkpt>
      <trkpt lat="46.81196" lon="-0.37034">
        <ele>129.85</ele>
        <time>2024-06-24T16:56:40.474Z</time>
      </trkpt>
      <trkpt lat="46.81192" lon="-0.37028">
        <ele>129.91</ele>
        <time>2024-06-24T16:56:43.763Z</time>
      </trkpt>
      <trkpt lat="46.81187" lon="-0.37022">
        <ele>129.97</ele>
        <time>2024-06-24T16:56:47.053Z</time>
      </trkpt>
      <trkpt lat="46.81182" lon="-0.37016">
        <ele>130.04</ele>
        <time>2024-06-24T16:56:50.345Z</time>
      </trkpt>
      <trkpt lat="46.81177" lon="-0.3701">
        <ele>130.1</ele>
        <time>2024-06-24T16:56:53.638Z</time>
      </trkpt>
      <trkpt lat="46.81172" lon="-0.37005">
        <ele>130.16</ele>
        <time>2024-06-24T16:56:56.932Z</time>
      </trkpt>
      <trkpt lat="46.81167" lon="-0.37">
        <ele>130.23</ele>
        <time>2024-06-24T16:57:00.227Z</time>
      </trkpt>
      <trkpt lat="46.81162" lon="-0.36995">
        <ele>130.29</ele>
        <time>2024-06-24T16:57:03.524Z</time>
      </trkpt>
      <trkpt lat="46.81157" lon="-0.36989">
        <ele>130.36</ele>
        <time>2024-06-24T16:57:06.822Z</time>
      </trkpt>
      <trkpt lat="46.81152" lon="-0.36984">
        <ele>130.43</ele>
        <time>2024-06-24T16:57:10.121Z</time>
      </trkpt>
      <trkpt lat="46.81147" lon="-0.36978">
        <ele>130.5</ele>
        <time>2024-06-24T16:57:13.421Z</time>
      </trkpt>
      <trkpt lat="46.81142" lon="-0.36973">
        <ele>130.58</ele>
        <time>2024-06-24T16:57:16.723Z</time>
      </trkpt>
      <trkpt lat="46.81137" lon="-0.36968">
        <ele>130.67</ele>
        <time>2024-06-24T16:57:20.026Z</time>
      </trkpt>
      <trkpt lat="46.81132" lon="-0.36963">
        <ele>130.76</ele>
        <time>2024-06-24T16:57:23.330Z</time>
      </trkpt>
      <trkpt lat="46.81127" lon="-0.36958">
        <ele>130.86</ele>
        <time>2024-06-24T16:57:26.635Z</time>
      </trkpt>
      <trkpt lat="46.81122" lon="-0.36954">
        <ele>130.96</ele>
        <time>2024-06-24T16:57:29.941Z</time>
      </trkpt>
      <trkpt lat="46.81116" lon="-0.3695">
        <ele>131.07</ele>
        <time>2024-06-24T16:57:33.249Z</time>
      </trkpt>
      <trkpt lat="46.81111" lon="-0.36947">
        <ele>131.17</ele>
        <time>2024-06-24T16:57:36.558Z</time>
      </trkpt>
      <trkpt lat="46.81106" lon="-0.36944">
        <ele>131.29</ele>
        <time>2024-06-24T16:57:39.868Z</time>
      </trkpt>
      <trkpt lat="46.81101" lon="-0.36941">
        <ele>131.42</ele>
        <time>2024-06-24T16:57:43.179Z</time>
      </trkpt>
      <trkpt lat="46.81096" lon="-0.36939">
        <ele>131.54</ele>
        <time>2024-06-24T16:57:46.491Z</time>
      </trkpt>
      <trkpt lat="46.8109" lon="-0.36936">
        <ele>131.68</ele>
        <time>2024-06-24T16:57:49.804Z</time>
      </trkpt>
      <trkpt lat="46.81085" lon="-0.36934">
        <ele>131.82</ele>
        <time>2024-06-24T16:57:53.118Z</time>
      </trkpt>
      <trkpt lat="46.81081" lon="-0.36931">
        <ele>131.96</ele>
        <time>2024-06-24T16:57:56.433Z</time>
      </trkpt>
      <trkpt lat="46.81076" lon="-0.36927">
        <ele>132.12</ele>
        <time>2024-06-24T16:57:59.749Z</time>
      </trkpt>
      <trkpt lat="46.81071" lon="-0.36923">
        <ele>132.27</ele>
        <time>2024-06-24T16:58:03.066Z</time>
      </trkpt>
      <trkpt lat="46.81066" lon="-0.36919">
        <ele>132.44</ele>
        <time>2024-06-24T16:58:06.385Z</time>
      </trkpt>
      <trkpt lat="46.81061" lon="-0.36915">
        <ele>132.61</ele>
        <time>2024-06-24T16:58:09.705Z</time>
      </trkpt>
      <trkpt lat="46.81057" lon="-0.36912">
        <ele>132.79</ele>
        <time>2024-06-24T16:58:13.026Z</time>
      </trkpt>
      <trkpt lat="46.81052" lon="-0.36908">
        <ele>132.98</ele>
        <time>2024-06-24T16:58:16.348Z</time>
      </trkpt>
      <trkpt lat="46.81047" lon="-0.36904">
        <ele>133.17</ele>
        <time>2024-06-24T16:58:19.671Z</time>
      </trkpt>
      <trkpt lat="46.81043" lon="-0.36901">
        <ele>133.36</ele>
        <time>2024-06-24T16:58:22.995Z</time>
      </trkpt>
      <trkpt lat="46.81039" lon="-0.36897">
        <ele>133.55</ele>
        <time>2024-06-24T16:58:26.320Z</time>
      </trkpt>
      <trkpt lat="46.81034" lon="-0.36893">
        <ele>133.76</ele>
        <time>2024-06-24T16:58:29.646Z</time>
      </trkpt>
      <trkpt lat="46.8103" lon="-0.3689">
        <ele>133.96</ele>
        <time>2024-06-24T16:58:32.973Z</time>
      </trkpt>
      <trkpt lat="46.81026" lon="-0.36886">
        <ele>134.18</ele>
        <time>2024-06-24T16:58:36.301Z</time>
      </trkpt>
      <trkpt lat="46.81022" lon="-0.36883">
        <ele>134.4</ele>
        <time>2024-06-24T16:58:39.630Z</time>
      </trkpt>
      <trkpt lat="46.81019" lon="-0.3688">
        <ele>134.63</ele>
        <time>2024-06-24T16:58:42.960Z</time>
      </trkpt>
      <trkpt lat="46.81015" lon="-0.36876">
        <ele>134.87</ele>
        <time>2024-06-24T16:58:46.290Z</time>
      </trkpt>
      <trkpt lat="46.81011" lon="-0.36873">
        <ele>135.1</ele>
        <time>2024-06-24T16:58:49.621Z</time>
      </trkpt>
      <trkpt lat="46.81007" lon="-0.3687">
        <ele>135.35</ele>
        <time>2024-06-24T16:58:52.953Z</time>
      </trkpt>
      <trkpt lat="46.81003" lon="-0.36867">
        <ele>135.59</ele>
        <time>2024-06-24T16:58:56.286Z</time>
      </trkpt>
      <trkpt lat="46.80999" lon="-0.36864">
        <ele>135.84</ele>
        <time>2024-06-24T16:58:59.620Z</time>
      </trkpt>
      <trkpt lat="46.80995" lon="-0.36861">
        <ele>136.09</ele>
        <time>2024-06-24T16:59:02.955Z</time>
      </trkpt>
      <trkpt lat="46.80992" lon="-0.36858">
        <ele>136.35</ele>
        <time>2024-06-24T16:59:06.291Z</time>
      </trkpt>
      <trkpt lat="46.80988" lon="-0.36854">
        <ele>136.61</ele>
        <time>2024-06-24T16:59:09.628Z</time>
      </trkpt>
      <trkpt lat="46.80985" lon="-0.36852">
        <ele>136.87</ele>
        <time>2024-06-24T16:59:12.965Z</time>
      </trkpt>
      <trkpt lat="46.80981" lon="-0.3685">
        <ele>137.13</ele>
        <time>2024-06-24T16:59:16.303Z</time>
      </trkpt>
      <trkpt lat="46.80977" lon="-0.36848">
        <ele>137.39</ele>
        <time>2024-06-24T16:59:19.642Z</time>
      </trkpt>
      <trkpt lat="46.80974" lon="-0.36846">
        <ele>137.66</ele>
        <time>2024-06-24T16:59:22.982Z</time>
      </trkpt>
      <trkpt lat="46.80971" lon="-0.36845">
        <ele>137.92</ele>
        <time>2024-06-24T16:59:26.322Z</time>
      </trkpt>
      <trkpt lat="46.80968" lon="-0.36844">
        <ele>138.19</ele>
        <time>2024-06-24T16:59:29.663Z</time>
      </trkpt>
      <trkpt lat="46.80964" lon="-0.36842">
        <ele>138.46</ele>
        <time>2024-06-24T16:59:33.005Z</time>
      </trkpt>
      <trkpt lat="46.8096" lon="-0.36841">
        <ele>138.72</ele>
        <time>2024-06-24T16:59:36.347Z</time>
      </trkpt>
      <trkpt lat="46.80957" lon="-0.36839">
        <ele>138.99</ele>
        <time>2024-06-24T16:59:39.690Z</time>
      </trkpt>
      <trkpt lat="46.80954" lon="-0.36838">
        <ele>139.25</ele>
        <time>2024-06-24T16:59:43.034Z</time>
      </trkpt>
      <trkpt lat="46.80951" lon="-0.36838">
        <ele>139.52</ele>
        <time>2024-06-24T16:59:46.378Z</time>
      </trkpt>
      <trkpt lat="46.80948" lon="-0.36837">
        <ele>139.78</ele>
        <time>2024-06-24T16:59:49.723Z</time>
      </trkpt>
      <trkpt lat="46.80945" lon="-0.36837">
        <ele>140.04</ele>
        <time>2024-06-24T16:59:53.069Z</time>
      </trkpt>
      <trkpt lat="46.80942" lon="-0.36837">
        <ele>140.3</ele>
        <time>2024-06-24T16:59:56.415Z</time>
      </trkpt>
      <trkpt lat="46.80938" lon="-0.36836">
        <ele>140.56</ele>
        <time>2024-06-24T16:59:59.762Z</time>
      </trkpt>
      <trkpt lat="46.80935" lon="-0.36835">
        <ele>140.81</ele>
        <time>2024-06-24T17:00:03.110Z</time>
      </trkpt>
      <trkpt lat="46.80932" lon="-0.36835">
        <ele>141.06</ele>
        <time>2024-06-24T17:00:06.458Z</time>
      </trkpt>
      <trkpt lat="46.80929" lon="-0.36834">
        <ele>141.3</ele>
        <time>2024-06-24T17:00:09.807Z</time>
      </trkpt>
      <trkpt lat="46.80927" lon="-0.36833">
        <ele>141.53</ele>
        <time>2024-06-24T17:00:13.156Z</time>
      </trkpt>
      <trkpt lat="46.80924" lon="-0.36833">
        <ele>141.76</ele>
        <time>2024-06-24T17:00:16.506Z</time>
      </trkpt>
      <trkpt lat="46.80921" lon="-0.36832">
        <ele>141.98</ele>
        <time>2024-06-24T17:00:19.857Z</time>
      </trkpt>
      <trkpt lat="46.80917" lon="-0.3683">
        <ele>142.2</ele>
        <time>2024-06-24T17:00:23.208Z</time>
      </trkpt>
      <trkpt lat="46.80914" lon="-0.36829">
        <ele>142.41</ele>
        <time>2024-06-24T17:00:26.560Z</time>
      </trkpt>
      <trkpt lat="46.80911" lon="-0.36829">
        <ele>142.62</ele>
        <time>2024-06-24T17:00:29.912Z</time>
      </trkpt>
      <trkpt lat="46.80909" lon="-0.36828">
        <ele>142.81</ele>
        <time>2024-06-24T17:00:33.265Z</time>
      </trkpt>
      <trkpt lat="46.80906" lon="-0.36826">
        <ele>142.99</ele>
        <time>2024-06-24T17:00:36.619Z</time>
      </trkpt>
      <trkpt lat="46.80903" lon="-0.36826">
        <ele>143.17</ele>
        <time>2024-06-24T17:00:39.973Z</time>
      </trkpt>
      <trkpt lat="46.809" lon="-0.36825">
        <ele>143.33</ele>
        <time>2024-06-24T17:00:43.328Z</time>
      </trkpt>
      <trkpt lat="46.80897" lon="-0.36824">
        <ele>143.48</ele>
        <time>2024-06-24T17:00:46.683Z</time>
      </trkpt>
      <trkpt lat="46.80895" lon="-0.36822">
        <ele>143.62</ele>
        <time>2024-06-24T17:00:50.039Z</time>
      </trkpt>
      <trkpt lat="46.80892" lon="-0.36821">
        <ele>143.75</ele>
        <time>2024-06-24T17:00:53.395Z</time>
      </trkpt>
      <trkpt lat="46.8089" lon="-0.36819">
        <ele>143.87</ele>
        <time>2024-06-24T17:00:56.752Z</time>
      </trkpt>
      <trkpt lat="46.80887" lon="-0.36818">
        <ele>143.97</ele>
        <time>2024-06-24T17:01:00.110Z</time>
      </trkpt>
      <trkpt lat="46.80884" lon="-0.36816">
        <ele>144.07</ele>
        <time>2024-06-24T17:01:03.468Z</time>
      </trkpt>
      <trkpt lat="46.80882" lon="-0.36814">
        <ele>144.15</ele>
        <time>2024-06-24T17:01:06.827Z</time>
      </trkpt>
      <trkpt lat="46.80879" lon="-0.36812">
        <ele>144.21</ele>
        <time>2024-06-24T17:01:10.186Z</time>
      </trkpt>
      <trkpt lat="46.80877" lon="-0.36811">
        <ele>144.26</ele>
        <time>2024-06-24T17:01:13.546Z</time>
      </trkpt>
      <trkpt lat="46.80875" lon="-0.36808">
        <ele>144.31</ele>
        <time>2024-06-24T17:01:16.906Z</time>
      </trkpt>
      <trkpt lat="46.80873" lon="-0.36805">
        <ele>144.33</ele>
        <time>2024-06-24T17:01:20.267Z</time>
      </trkpt>
      <trkpt lat="46.8087" lon="-0.36803">
        <ele>144.35</ele>
        <time>2024-06-24T17:01:23.628Z</time>
      </trkpt>
      <trkpt lat="46.80868" lon="-0.36799">
        <ele>144.35</ele>
        <time>2024-06-24T17:01:26.990Z</time>
      </trkpt>
      <trkpt lat="46.80866" lon="-0.36796">
        <ele>144.34</ele>
        <time>2024-06-24T17:01:30.353Z</time>
      </trkpt>
      <trkpt lat="46.80864" lon="-0.36792">
        <ele>144.32</ele>
        <time>2024-06-24T17:01:33.716Z</time>
      </trkpt>
      <trkpt lat="46.80862" lon="-0.36789">
        <ele>144.28</ele>
        <time>2024-06-24T17:01:37.080Z</time>
      </trkpt>
      <trkpt lat="46.8086" lon="-0.36785">
        <ele>144.23</ele>
        <time>2024-06-24T17:01:40.445Z</time>
      </trkpt>
      <trkpt lat="46.80859" lon="-0.36781">
        <ele>144.17</ele>
        <time>2024-06-24T17:01:43.810Z</time>
      </trkpt>
      <trkpt lat="46.80857" lon="-0.36776">
        <ele>144.09</ele>
        <time>2024-06-24T17:01:47.176Z</time>
      </trkpt>
      <trkpt lat="46.80854" lon="-0.36771">
        <ele>143.99</ele>
        <time>2024-06-24T17:01:50.543Z</time>
      </trkpt>
      <trkpt lat="46.80852" lon="-0.36766">
        <ele>143.88</ele>
        <time>2024-06-24T17:01:53.911Z</time>
      </trkpt>
      <trkpt lat="46.80849" lon="-0.36761">
        <ele>143.76</ele>
        <time>2024-06-24T17:01:57.280Z</time>
      </trkpt>
      <trkpt lat="46.80847" lon="-0.36754">
        <ele>143.62</ele>
        <time>2024-06-24T17:02:00.650Z</time>
      </trkpt>
      <trkpt lat="46.80844" lon="-0.36747">
        <ele>143.48</ele>
        <time>2024-06-24T17:02:04.021Z</time>
      </trkpt>
      <trkpt lat="46.80841" lon="-0.36739">
        <ele>143.31</ele>
        <time>2024-06-24T17:02:07.393Z</time>
      </trkpt>
      <trkpt lat="46.80839" lon="-0.36732">
        <ele>143.14</ele>
        <time>2024-06-24T17:02:10.766Z</time>
      </trkpt>
      <trkpt lat="46.80837" lon="-0.36722">
        <ele>142.95</ele>
        <time>2024-06-24T17:02:14.140Z</time>
      </trkpt>
      <trkpt lat="46.80835" lon="-0.36712">
        <ele>142.75</ele>
        <time>2024-06-24T17:02:17.516Z</time>
      </trkpt>
      <trkpt lat="46.80833" lon="-0.36702">
        <ele>142.54</ele>
        <time>2024-06-24T17:02:20.893Z</time>
      </trkpt>
      <trkpt lat="46.80831" lon="-0.36692">
        <ele>142.32</ele>
        <time>2024-06-24T17:02:24.272Z</time>
      </trkpt>
      <trkpt lat="46.80828" lon="-0.36682">
        <ele>142.08</ele>
        <time>2024-06-24T17:02:27.652Z</time>
      </trkpt>
      <trkpt lat="46.80826" lon="-0.36671">
        <ele>141.83</ele>
        <time>2024-06-24T17:02:31.034Z</time>
      </trkpt>
      <trkpt lat="46.80824" lon="-0.3666">
        <ele>141.57</ele>
        <time>2024-06-24T17:02:34.417Z</time>
      </trkpt>
      <trkpt lat="46.80821" lon="-0.36649">
        <ele>141.32</ele>
        <time>2024-06-24T17:02:37.802Z</time>
      </trkpt>
      <trkpt lat="46.80818" lon="-0.36638">
        <ele>141.07</ele>
        <time>2024-06-24T17:02:41.189Z</time>
      </trkpt>
      <trkpt lat="46.80815" lon="-0.36627">
        <ele>140.81</ele>
        <time>2024-06-24T17:02:44.577Z</time>
      </trkpt>
      <trkpt lat="46.80811" lon="-0.36618">
        <ele>140.54</ele>
        <time>2024-06-24T17:02:47.967Z</time>
      </trkpt>
      <trkpt lat="46.80807" lon="-0.36609">
        <ele>140.27</ele>
        <time>2024-06-24T17:02:51.358Z</time>
      </trkpt>
      <trkpt lat="46.80802" lon="-0.366">
        <ele>140</ele>
        <time>2024-06-24T17:02:54.751Z</time>
      </trkpt>
      <trkpt lat="46.80798" lon="-0.36591">
        <ele>139.73</ele>
        <time>2024-06-24T17:02:58.145Z</time>
      </trkpt>
      <trkpt lat="46.80794" lon="-0.36583">
        <ele>139.47</ele>
        <time>2024-06-24T17:03:01.541Z</time>
      </trkpt>
      <trkpt lat="46.80791" lon="-0.36576">
        <ele>139.2</ele>
        <time>2024-06-24T17:03:04.938Z</time>
      </trkpt>
      <trkpt lat="46.80787" lon="-0.36568">
        <ele>138.92</ele>
        <time>2024-06-24T17:03:08.336Z</time>
      </trkpt>
      <trkpt lat="46.80784" lon="-0.3656">
        <ele>138.64</ele>
        <time>2024-06-24T17:03:11.735Z</time>
      </trkpt>
      <trkpt lat="46.80781" lon="-0.36552">
        <ele>138.36</ele>
        <time>2024-06-24T17:03:15.136Z</time>
      </trkpt>
      <trkpt lat="46.80779" lon="-0.36544">
        <ele>138.08</ele>
        <time>2024-06-24T17:03:18.538Z</time>
      </trkpt>
      <trkpt lat="46.80777" lon="-0.36536">
        <ele>137.79</ele>
        <time>2024-06-24T17:03:21.941Z</time>
      </trkpt>
      <trkpt lat="46.80777" lon="-0.36528">
        <ele>137.51</ele>
        <time>2024-06-24T17:03:25.345Z</time>
      </trkpt>
      <trkpt lat="46.80778" lon="-0.3652">
        <ele>137.23</ele>
        <time>2024-06-24T17:03:28.750Z</time>
      </trkpt>
      <trkpt lat="46.80779" lon="-0.36512">
        <ele>136.94</ele>
        <time>2024-06-24T17:03:32.156Z</time>
      </trkpt>
      <trkpt lat="46.80779" lon="-0.36504">
        <ele>136.66</ele>
        <time>2024-06-24T17:03:35.563Z</time>
      </trkpt>
      <trkpt lat="46.80778" lon="-0.36496">
        <ele>136.37</ele>
        <time>2024-06-24T17:03:38.971Z</time>
      </trkpt>
      <trkpt lat="46.80778" lon="-0.36489">
        <ele>136.08</ele>
        <time>2024-06-24T17:03:42.380Z</time>
      </trkpt>
      <trkpt lat="46.80777" lon="-0.3648">
        <ele>135.79</ele>
        <time>2024-06-24T17:03:45.791Z</time>
      </trkpt>
      <trkpt lat="46.80777" lon="-0.36471">
        <ele>135.5</ele>
        <time>2024-06-24T17:03:49.203Z</time>
      </trkpt>
      <trkpt lat="46.80777" lon="-0.36461">
        <ele>135.21</ele>
        <time>2024-06-24T17:03:52.616Z</time>
      </trkpt>
      <trkpt lat="46.80777" lon="-0.36451">
        <ele>134.91</ele>
        <time>2024-06-24T17:03:56.031Z</time>
      </trkpt>
      <trkpt lat="46.80777" lon="-0.36439">
        <ele>134.62</ele>
        <time>2024-06-24T17:03:59.447Z</time>
      </trkpt>
      <trkpt lat="46.80777" lon="-0.36429">
        <ele>134.33</ele>
        <time>2024-06-24T17:04:02.865Z</time>
      </trkpt>
      <trkpt lat="46.80777" lon="-0.36421">
        <ele>134.04</ele>
        <time>2024-06-24T17:04:06.284Z</time>
      </trkpt>
      <trkpt lat="46.80776" lon="-0.36413">
        <ele>133.77</ele>
        <time>2024-06-24T17:04:09.704Z</time>
      </trkpt>
      <trkpt lat="46.80773" lon="-0.36407">
        <ele>133.49</ele>
        <time>2024-06-24T17:04:13.125Z</time>
      </trkpt>
      <trkpt lat="46.80768" lon="-0.36401">
        <ele>133.23</ele>
        <time>2024-06-24T17:04:16.547Z</time>
      </trkpt>
      <trkpt lat="46.80762" lon="-0.36398">
        <ele>132.97</ele>
        <time>2024-06-24T17:04:19.970Z</time>
      </trkpt>
      <trkpt lat="46.80756" lon="-0.36393">
        <ele>132.73</ele>
        <time>2024-06-24T17:04:23.395Z</time>
      </trkpt>
      <trkpt lat="46.80749" lon="-0.36388">
        <ele>132.49</ele>
        <time>2024-06-24T17:04:26.821Z</time>
      </trkpt>
      <trkpt lat="46.80742" lon="-0.36383">
        <ele>132.27</ele>
        <time>2024-06-24T17:04:30.249Z</time>
      </trkpt>
      <trkpt lat="46.80736" lon="-0.36378">
        <ele>132.04</ele>
        <time>2024-06-24T17:04:33.678Z</time>
      </trkpt>
      <trkpt lat="46.80729" lon="-0.36373">
        <ele>131.81</ele>
        <time>2024-06-24T17:04:37.109Z</time>
      </trkpt>
      <trkpt lat="46.80723" lon="-0.36368">
        <ele>131.59</ele>
        <time>2024-06-24T17:04:40.541Z</time>
      </trkpt>
      <trkpt lat="46.80717" lon="-0.36362">
        <ele>131.38</ele>
        <time>2024-06-24T17:04:43.975Z</time>
      </trkpt>
      <trkpt lat="46.80711" lon="-0.36357">
        <ele>131.18</ele>
        <time>2024-06-24T17:04:47.410Z</time>
      </trkpt>
      <trkpt lat="46.80705" lon="-0.36352">
        <ele>130.97</ele>
        <time>2024-06-24T17:04:50.847Z</time>
      </trkpt>
      <trkpt lat="46.80699" lon="-0.36345">
        <ele>130.74</ele>
        <time>2024-06-24T17:04:54.285Z</time>
      </trkpt>
      <trkpt lat="46.80693" lon="-0.36337">
        <ele>130.51</ele>
        <time>2024-06-24T17:04:57.725Z</time>
      </trkpt>
      <trkpt lat="46.80687" lon="-0.36329">
        <ele>130.31</ele>
        <time>2024-06-24T17:05:01.166Z</time>
      </trkpt>
      <trkpt lat="46.80681" lon="-0.36322">
        <ele>130.1</ele>
        <time>2024-06-24T17:05:04.609Z</time>
      </trkpt>
      <trkpt lat="46.80675" lon="-0.36317">
        <ele>129.92</ele>
        <time>2024-06-24T17:05:08.053Z</time>
      </trkpt>
      <trkpt lat="46.8067" lon="-0.36312">
        <ele>129.72</ele>
        <time>2024-06-24T17:05:11.498Z</time>
      </trkpt>
      <trkpt lat="46.80667" lon="-0.36307">
        <ele>129.53</ele>
        <time>2024-06-24T17:05:14.944Z</time>
      </trkpt>
      <trkpt lat="46.80666" lon="-0.36302">
        <ele>129.34</ele>
        <time>2024-06-24T17:05:18.391Z</time>
      </trkpt>
      <trkpt lat="46.80666" lon="-0.36297">
        <ele>129.16</ele>
        <time>2024-06-24T17:05:21.839Z</time>
      </trkpt>
      <trkpt lat="46.80666" lon="-0.36293">
        <ele>128.98</ele>
        <time>2024-06-24T17:05:25.287Z</time>
      </trkpt>
      <trkpt lat="46.80667" lon="-0.3629">
        <ele>128.81</ele>
        <time>2024-06-24T17:05:28.736Z</time>
      </trkpt>
      <trkpt lat="46.80667" lon="-0.36287">
        <ele>128.65</ele>
        <time>2024-06-24T17:05:32.185Z</time>
      </trkpt>
      <trkpt lat="46.80668" lon="-0.36286">
        <ele>128.49</ele>
        <time>2024-06-24T17:05:35.634Z</time>
      </trkpt>
      <trkpt lat="46.80669" lon="-0.36284">
        <ele>128.34</ele>
        <time>2024-06-24T17:05:39.084Z</time>
      </trkpt>
      <trkpt lat="46.8067" lon="-0.36282">
        <ele>128.2</ele>
        <time>2024-06-24T17:05:42.534Z</time>
      </trkpt>
      <trkpt lat="46.80671" lon="-0.3628">
        <ele>128.06</ele>
        <time>2024-06-24T17:05:45.984Z</time>
      </trkpt>
      <trkpt lat="46.80672" lon="-0.36277">
        <ele>127.92</ele>
        <time>2024-06-24T17:05:49.435Z</time>
      </trkpt>
      <trkpt lat="46.80673" lon="-0.36274">
        <ele>127.79</ele>
        <time>2024-06-24T17:05:52.886Z</time>
      </trkpt>
      <trkpt lat="46.80674" lon="-0.3627">
        <ele>127.67</ele>
        <time>2024-06-24T17:05:56.338Z</time>
      </trkpt>
      <trkpt lat="46.80673" lon="-0.36265">
        <ele>127.56</ele>
        <time>2024-06-24T17:05:59.791Z</time>
      </trkpt>
      <trkpt lat="46.80671" lon="-0.3626">
        <ele>127.46</ele>
        <time>2024-06-24T17:06:03.244Z</time>
      </trkpt>
      <trkpt lat="46.80671" lon="-0.36254">
        <ele>127.36</ele>
        <time>2024-06-24T17:06:06.698Z</time>
      </trkpt>
      <trkpt lat="46.80672" lon="-0.3625">
        <ele>127.27</ele>
        <time>2024-06-24T17:06:10.153Z</time>
      </trkpt>
      <trkpt lat="46.80674" lon="-0.36246">
        <ele>127.18</ele>
        <time>2024-06-24T17:06:13.609Z</time>
      </trkpt>
      <trkpt lat="46.80675" lon="-0.36242">
        <ele>127.1</ele>
        <time>2024-06-24T17:06:17.065Z</time>
      </trkpt>
      <trkpt lat="46.80676" lon="-0.36236">
        <ele>127.03</ele>
        <time>2024-06-24T17:06:20.522Z</time>
      </trkpt>
      <trkpt lat="46.80676" lon="-0.36231">
        <ele>126.97</ele>
        <time>2024-06-24T17:06:23.980Z</time>
      </trkpt>
      <trkpt lat="46.80677" lon="-0.36227">
        <ele>126.92</ele>
        <time>2024-06-24T17:06:27.438Z</time>
      </trkpt>
      <trkpt lat="46.80679" lon="-0.36223">
        <ele>126.87</ele>
        <time>2024-06-24T17:06:30.897Z</time>
      </trkpt>
      <trkpt lat="46.80679" lon="-0.36219">
        <ele>126.83</ele>
        <time>2024-06-24T17:06:34.356Z</time>
      </trkpt>
      <trkpt lat="46.8068" lon="-0.36214">
        <ele>126.8</ele>
        <time>2024-06-24T17:06:37.816Z</time>
      </trkpt>
      <trkpt lat="46.80681" lon="-0.36211">
        <ele>126.77</ele>
        <time>2024-06-24T17:06:41.277Z</time>
      </trkpt>
      <trkpt lat="46.80682" lon="-0.36207">
        <ele>126.75</ele>
        <time>2024-06-24T17:06:44.738Z</time>
      </trkpt>
      <trkpt lat="46.80684" lon="-0.36202">
        <ele>126.74</ele>
        <time>2024-06-24T17:06:48.200Z</time>
      </trkpt>
      <trkpt lat="46.80685" lon="-0.36198">
        <ele>126.74</ele>
        <time>2024-06-24T17:06:51.662Z</time>
      </trkpt>
      <trkpt lat="46.80685" lon="-0.36195">
        <ele>126.74</ele>
        <time>2024-06-24T17:06:55.125Z</time>
      </trkpt>
      <trkpt lat="46.80686" lon="-0.36191">
        <ele>126.75</ele>
        <time>2024-06-24T17:06:58.589Z</time>
      </trkpt>
      <trkpt lat="46.80687" lon="-0.36187">
        <ele>126.77</ele>
        <time>2024-06-24T17:07:02.053Z</time>
      </trkpt>
      <trkpt lat="46.80687" lon="-0.36183">
        <ele>126.79</ele>
        <time>2024-06-24T17:07:05.518Z</time>
      </trkpt>
      <trkpt lat="46.80688" lon="-0.3618">
        <ele>126.82</ele>
        <time>2024-06-24T17:07:08.983Z</time>
      </trkpt>
      <trkpt lat="46.80689" lon="-0.36176">
        <ele>126.86</ele>
        <time>2024-06-24T17:07:12.449Z</time>
      </trkpt>
      <trkpt lat="46.8069" lon="-0.36173">
        <ele>126.9</ele>
        <time>2024-06-24T17:07:15.915Z</time>
      </trkpt>
      <trkpt lat="46.80691" lon="-0.36169">
        <ele>126.95</ele>
        <time>2024-06-24T17:07:19.382Z</time>
      </trkpt>
      <trkpt lat="46.80692" lon="-0.36165">
        <ele>127</ele>
        <time>2024-06-24T17:07:22.849Z</time>
      </trkpt>
      <trkpt lat="46.80693" lon="-0.36161">
        <ele>127.06</ele>
        <time>2024-06-24T17:07:26.317Z</time>
      </trkpt>
      <trkpt lat="46.80694" lon="-0.36158">
        <ele>127.12</ele>
        <time>2024-06-24T17:07:29.785Z</time>
      </trkpt>
      <trkpt lat="46.80695" lon="-0.36155">
        <ele>127.19</ele>
        <time>2024-06-24T17:07:33.254Z</time>
      </trkpt>
      <trkpt lat="46.80696" lon="-0.36151">
        <ele>127.26</ele>
        <time>2024-06-24T17:07:36.723Z</time>
      </trkpt>
      <trkpt lat="46.80696" lon="-0.36147">
        <ele>127.34</ele>
        <time>2024-06-24T17:07:40.193Z</time>
      </trkpt>
      <trkpt lat="46.80697" lon="-0.36144">
        <ele>127.42</ele>
        <time>2024-06-24T17:07:43.663Z</time>
      </trkpt>
      <trkpt lat="46.80697" lon="-0.36141">
        <ele>127.51</ele>
        <time>2024-06-24T17:07:47.134Z</time>
      </trkpt>
      <trkpt lat="46.80698" lon="-0.36138">
        <ele>127.61</ele>
        <time>2024-06-24T17:07:50.605Z</time>
      </trkpt>
      <trkpt lat="46.80699" lon="-0.36134">
        <ele>127.71</ele>
        <time>2024-06-24T17:07:54.077Z</time>
      </trkpt>
      <trkpt lat="46.80699" lon="-0.3613">
        <ele>127.82</ele>
        <time>2024-06-24T17:07:57.549Z</time>
      </trkpt>
      <trkpt lat="46.807" lon="-0.36127">
        <ele>127.94</ele>
        <time>2024-06-24T17:08:01.022Z</time>
      </trkpt>
      <trkpt lat="46.80701" lon="-0.36124">
        <ele>128.05</ele>
        <time>2024-06-24T17:08:04.495Z</time>
      </trkpt>
      <trkpt lat="46.80702" lon="-0.3612">
        <ele>128.18</ele>
        <time>2024-06-24T17:08:07.969Z</time>
      </trkpt>
      <trkpt lat="46.80703" lon="-0.36116">
        <ele>128.3</ele>
        <time>2024-06-24T17:08:11.443Z</time>
      </trkpt>
      <trkpt lat="46.80704" lon="-0.36113">
        <ele>128.43</ele>
        <time>2024-06-24T17:08:14.918Z</time>
      </trkpt>
      <trkpt lat="46.80705" lon="-0.3611">
        <ele>128.57</ele>
        <time>2024-06-24T17:08:18.393Z</time>
      </trkpt>
      <trkpt lat="46.80705" lon="-0.36106">
        <ele>128.71</ele>
        <time>2024-06-24T17:08:21.869Z</time>
      </trkpt>
      <trkpt lat="46.80706" lon="-0.36103">
        <ele>128.85</ele>
        <time>2024-06-24T17:08:25.345Z</time>
      </trkpt>
      <trkpt lat="46.80707" lon="-0.36099">
        <ele>128.99</ele>
        <time>2024-06-24T17:08:28.822Z</time>
      </trkpt>
      <trkpt lat="46.80708" lon="-0.36096">
        <ele>129.14</ele>
        <time>2024-06-24T17:08:32.299Z</time>
      </trkpt>
      <trkpt lat="46.80709" lon="-0.36093">
        <ele>129.29</ele>
        <time>2024-06-24T17:08:35.777Z</time>
      </trkpt>
      <trkpt lat="46.80709" lon="-0.36089">
        <ele>129.44</ele>
        <time>2024-06-24T17:08:39.255Z</time>
      </trkpt>
      <trkpt lat="46.80709" lon="-0.36086">
        <ele>129.59</ele>
        <time>2024-06-24T17:08:42.734Z</time>
      </trkpt>
      <trkpt lat="46.8071" lon="-0.36082">
        <ele>129.75</ele>
        <time>2024-06-24T17:08:46.213Z</time>
      </trkpt>
      <trkpt lat="46.8071" lon="-0.36079">
        <ele>129.91</ele>
        <time>2024-06-24T17:08:49.693Z</time>
      </trkpt>
      <trkpt lat="46.8071" lon="-0.36075">
        <ele>130.06</ele>
        <time>2024-06-24T17:08:53.173Z</time>
      </trkpt>
      <trkpt lat="46.8071" lon="-0.36072">
        <ele>130.23</ele>
        <time>2024-06-24T17:08:56.654Z</time>
      </trkpt>
      <trkpt lat="46.8071" lon="-0.36068">
        <ele>130.39</ele>
        <time>2024-06-24T17:09:00.135Z</time>
      </trkpt>
      <trkpt lat="46.80711" lon="-0.36063">
        <ele>130.55</ele>
        <time>2024-06-24T17:09:03.617Z</time>
      </trkpt>
      <trkpt lat="46.80711" lon="-0.36059">
        <ele>130.72</ele>
        <time>2024-06-24T17:09:07.099Z</time>
      </trkpt>
      <trkpt lat="46.80711" lon="-0.36055">
        <ele>130.89</ele>
        <time>2024-06-24T17:09:10.582Z</time>
      </trkpt>
      <trkpt lat="46.8071" lon="-0.36051">
        <ele>131.05</ele>
        <time>2024-06-24T17:09:14.066Z</time>
      </trkpt>
      <trkpt lat="46.8071" lon="-0.36047">
        <ele>131.22</ele>
        <time>2024-06-24T17:09:17.550Z</time>
      </trkpt>
      <trkpt lat="46.8071" lon="-0.36043">
        <ele>131.39</ele>
        <time>2024-06-24T17:09:21.035Z</time>
      </trkpt>
      <trkpt lat="46.80709" lon="-0.36039">
        <ele>131.56</ele>
        <time>2024-06-24T17:09:24.520Z</time>
      </trkpt>
      <trkpt lat="46.8071" lon="-0.36035">
        <ele>131.73</ele>
        <time>2024-06-24T17:09:28.006Z</time>
      </trkpt>
      <trkpt lat="46.8071" lon="-0.36032">
        <ele>131.89</ele>
        <time>2024-06-24T17:09:31.492Z</time>
      </trkpt>
      <trkpt lat="46.8071" lon="-0.36028">
        <ele>132.06</ele>
        <time>2024-06-24T17:09:34.979Z</time>
      </trkpt>
      <trkpt lat="46.8071" lon="-0.36024">
        <ele>132.23</ele>
        <time>2024-06-24T17:09:38.466Z</time>
      </trkpt>
      <trkpt lat="46.8071" lon="-0.3602">
        <ele>132.4</ele>
        <time>2024-06-24T17:09:41.954Z</time>
      </trkpt>
      <trkpt lat="46.8071" lon="-0.36015">
        <ele>132.57</ele>
        <time>2024-06-24T17:09:45.443Z</time>
      </trkpt>
      <trkpt lat="46.8071" lon="-0.36011">
        <ele>132.73</ele>
        <time>2024-06-24T17:09:48.932Z</time>
      </trkpt>
      <trkpt lat="46.8071" lon="-0.36007">
        <ele>132.9</ele>
        <time>2024-06-24T17:09:52.422Z</time>
      </trkpt>
      <trkpt lat="46.8071" lon="-0.36002">
        <ele>133.07</ele>
        <time>2024-06-24T17:09:55.912Z</time>
      </trkpt>
      <trkpt lat="46.8071" lon="-0.35999">
        <ele>133.23</ele>
        <time>2024-06-24T17:09:59.403Z</time>
      </trkpt>
      <trkpt lat="46.8071" lon="-0.35995">
        <ele>133.39</ele>
        <time>2024-06-24T17:10:02.894Z</time>
      </trkpt>
      <trkpt lat="46.80711" lon="-0.35991">
        <ele>133.55</ele>
        <time>2024-06-24T17:10:06.386Z</time>
      </trkpt>
      <trkpt lat="46.80711" lon="-0.35987">
        <ele>133.71</ele>
        <time>2024-06-24T17:10:09.878Z</time>
      </trkpt>
      <trkpt lat="46.80711" lon="-0.35982">
        <ele>133.87</ele>
        <time>2024-06-24T17:10:13.371Z</time>
      </trkpt>
      <trkpt lat="46.80711" lon="-0.35977">
        <ele>134.03</ele>
        <time>2024-06-24T17:10:16.865Z</time>
      </trkpt>
      <trkpt lat="46.80712" lon="-0.35972">
        <ele>134.19</ele>
        <time>2024-06-24T17:10:20.359Z</time>
      </trkpt>
      <trkpt lat="46.80712" lon="-0.35967">
        <ele>134.34</ele>
        <time>2024-06-24T17:10:23.854Z</time>
      </trkpt>
      <trkpt lat="46.80712" lon="-0.35962">
        <ele>134.5</ele>
        <time>2024-06-24T17:10:27.350Z</time>
      </trkpt>
      <trkpt lat="46.80713" lon="-0.35957">
        <ele>134.65</ele>
        <time>2024-06-24T17:10:30.847Z</time>
      </trkpt>
      <trkpt lat="46.80714" lon="-0.35953">
        <ele>134.8</ele>
        <time>2024-06-24T17:10:34.344Z</time>
      </trkpt>
      <trkpt lat="46.80714" lon="-0.35948">
        <ele>134.95</ele>
        <time>2024-06-24T17:10:37.842Z</time>
      </trkpt>
      <trkpt lat="46.80715" lon="-0.35943">
        <ele>135.09</ele>
        <time>2024-06-24T17:10:41.340Z</time>
      </trkpt>
      <trkpt lat="46.80716" lon="-0.35939">
        <ele>135.24</ele>
        <time>2024-06-24T17:10:44.839Z</time>
      </trkpt>
      <trkpt lat="46.80717" lon="-0.35933">
        <ele>135.38</ele>
        <time>2024-06-24T17:10:48.339Z</time>
      </trkpt>
      <trkpt lat="46.80718" lon="-0.35928">
        <ele>135.52</ele>
        <time>2024-06-24T17:10:51.840Z</time>
      </trkpt>
      <trkpt lat="46.80718" lon="-0.35922">
        <ele>135.66</ele>
        <time>2024-06-24T17:10:55.341Z</time>
      </trkpt>
      <trkpt lat="46.80718" lon="-0.35916">
        <ele>135.8</ele>
        <time>2024-06-24T17:10:58.843Z</time>
      </trkpt>
      <trkpt lat="46.80719" lon="-0.35911">
        <ele>135.93</ele>
        <time>2024-06-24T17:11:02.346Z</time>
      </trkpt>
      <trkpt lat="46.80719" lon="-0.35906">
        <ele>136.06</ele>
        <time>2024-06-24T17:11:05.850Z</time>
      </trkpt>
      <trkpt lat="46.8072" lon="-0.359">
        <ele>136.18</ele>
        <time>2024-06-24T17:11:09.354Z</time>
      </trkpt>
      <trkpt lat="46.80721" lon="-0.35895">
        <ele>136.3</ele>
        <time>2024-06-24T17:11:12.859Z</time>
      </trkpt>
      <trkpt lat="46.80722" lon="-0.35889">
        <ele>136.42</ele>
        <time>2024-06-24T17:11:16.365Z</time>
      </trkpt>
      <trkpt lat="46.80723" lon="-0.35884">
        <ele>136.55</ele>
        <time>2024-06-24T17:11:19.872Z</time>
      </trkpt>
      <trkpt lat="46.80724" lon="-0.35878">
        <ele>136.67</ele>
        <time>2024-06-24T17:11:23.380Z</time>
      </trkpt>
      <trkpt lat="46.80724" lon="-0.35872">
        <ele>136.79</ele>
        <time>2024-06-24T17:11:26.889Z</time>
      </trkpt>
      <trkpt lat="46.80725" lon="-0.35865">
        <ele>136.9</ele>
        <time>2024-06-24T17:11:30.398Z</time>
      </trkpt>
      <trkpt lat="46.80726" lon="-0.35859">
        <ele>137.02</ele>
        <time>2024-06-24T17:11:33.908Z</time>
      </trkpt>
      <trkpt lat="46.80727" lon="-0.35852">
        <ele>137.13</ele>
        <time>2024-06-24T17:11:37.419Z</time>
      </trkpt>
      <trkpt lat="46.80728" lon="-0.35844">
        <ele>137.24</ele>
        <time>2024-06-24T17:11:40.931Z</time>
      </trkpt>
      <trkpt lat="46.80728" lon="-0.35837">
        <ele>137.36</ele>
        <time>2024-06-24T17:11:44.444Z</time>
      </trkpt>
      <trkpt lat="46.80727" lon="-0.3583">
        <ele>137.47</ele>
        <time>2024-06-24T17:11:47.958Z</time>
      </trkpt>
      <trkpt lat="46.80727" lon="-0.35823">
        <ele>137.59</ele>
        <time>2024-06-24T17:11:51.473Z</time>
      </trkpt>
      <trkpt lat="46.80727" lon="-0.35816">
        <ele>137.7</ele>
        <time>2024-06-24T17:11:54.989Z</time>
      </trkpt>
      <trkpt lat="46.80727" lon="-0.3581">
        <ele>137.82</ele>
        <time>2024-06-24T17:11:58.506Z</time>
      </trkpt>
      <trkpt lat="46.80727" lon="-0.35803">
        <ele>137.93</ele>
        <time>2024-06-24T17:12:02.024Z</time>
      </trkpt>
      <trkpt lat="46.80727" lon="-0.35796">
        <ele>138.04</ele>
        <time>2024-06-24T17:12:05.543Z</time>
      </trkpt>
      <trkpt lat="46.80727" lon="-0.3579">
        <ele>138.16</ele>
        <time>2024-06-24T17:12:09.063Z</time>
      </trkpt>
      <trkpt lat="46.80727" lon="-0.35784">
        <ele>138.27</ele>
        <time>2024-06-24T17:12:12.584Z</time>
      </trkpt>
      <trkpt lat="46.80727" lon="-0.35777">
        <ele>138.38</ele>
        <time>2024-06-24T17:12:16.106Z</time>
      </trkpt>
      <trkpt lat="46.80727" lon="-0.35771">
        <ele>138.48</ele>
        <time>2024-06-24T17:12:19.628Z</time>
      </trkpt>
      <trkpt lat="46.80727" lon="-0.35765">
        <ele>138.59</ele>
        <time>2024-06-24T17:12:23.151Z</time>
      </trkpt>
      <trkpt lat="46.80726" lon="-0.35759">
        <ele>138.7</ele>
        <time>2024-06-24T17:12:26.675Z</time>
      </trkpt>
      <trkpt lat="46.80726" lon="-0.35753">
        <ele>138.81</ele>
        <time>2024-06-24T17:12:30.200Z</time>
      </trkpt>
      <trkpt lat="46.80725" lon="-0.35748">
        <ele>138.91</ele>
        <time>2024-06-24T17:12:33.726Z</time>
      </trkpt>
      <trkpt lat="46.80723" lon="-0.35743">
        <ele>139.02</ele>
        <time>2024-06-24T17:12:37.252Z</time>
      </trkpt>
      <trkpt lat="46.80722" lon="-0.35739">
        <ele>139.12</ele>
        <time>2024-06-24T17:12:40.779Z</time>
      </trkpt>
      <trkpt lat="46.80721" lon="-0.35733">
        <ele>139.22</ele>
        <time>2024-06-24T17:12:44.307Z</time>
      </trkpt>
      <trkpt lat="46.8072" lon="-0.35728">
        <ele>139.33</ele>
        <time>2024-06-24T17:12:47.836Z</time>
      </trkpt>
      <trkpt lat="46.80719" lon="-0.35723">
        <ele>139.42</ele>
        <time>2024-06-24T17:12:51.365Z</time>
      </trkpt>
      <trkpt lat="46.80717" lon="-0.35718">
        <ele>139.52</ele>
        <time>2024-06-24T17:12:54.895Z</time>
      </trkpt>
      <trkpt lat="46.80716" lon="-0.35714">
        <ele>139.62</ele>
        <time>2024-06-24T17:12:58.426Z</time>
      </trkpt>
      <trkpt lat="46.80714" lon="-0.3571">
        <ele>139.71</ele>
        <time>2024-06-24T17:13:01.957Z</time>
      </trkpt>
      <trkpt lat="46.80713" lon="-0.35705">
        <ele>139.81</ele>
        <time>2024-06-24T17:13:05.489Z</time>
      </trkpt>
      <trkpt lat="46.80711" lon="-0.357">
        <ele>139.91</ele>
        <time>2024-06-24T17:13:09.022Z</time>
      </trkpt>
      <trkpt lat="46.8071" lon="-0.35696">
        <ele>140.01</ele>
        <time>2024-06-24T17:13:12.555Z</time>
      </trkpt>
      <trkpt lat="46.80708" lon="-0.35691">
        <ele>140.1</ele>
        <time>2024-06-24T17:13:16.089Z</time>
      </trkpt>
      <trkpt lat="46.80707" lon="-0.35687">
        <ele>140.19</ele>
        <time>2024-06-24T17:13:19.624Z</time>
      </trkpt>
      <trkpt lat="46.80705" lon="-0.35682">
        <ele>140.29</ele>
        <time>2024-06-24T17:13:23.160Z</time>
      </trkpt>
      <trkpt lat="46.80703" lon="-0.35678">
        <ele>140.39</ele>
        <time>2024-06-24T17:13:26.696Z</time>
      </trkpt>
      <trkpt lat="46.807" lon="-0.35674">
        <ele>140.48</ele>
        <time>2024-06-24T17:13:30.233Z</time>
      </trkpt>
      <trkpt lat="46.80698" lon="-0.3567">
        <ele>140.57</ele>
        <time>2024-06-24T17:13:33.771Z</time>
      </trkpt>
      <trkpt lat="46.80696" lon="-0.35667">
        <ele>140.67</ele>
        <time>2024-06-24T17:13:37.309Z</time>
      </trkpt>
      <trkpt lat="46.80694" lon="-0.35662">
        <ele>140.76</ele>
        <time>2024-06-24T17:13:40.848Z</time>
      </trkpt>
      <trkpt lat="46.80691" lon="-0.35658">
        <ele>140.85</ele>
        <time>2024-06-24T17:13:44.388Z</time>
      </trkpt>
      <trkpt lat="46.80689" lon="-0.35655">
        <ele>140.94</ele>
        <time>2024-06-24T17:13:47.928Z</time>
      </trkpt>
      <trkpt lat="46.80687" lon="-0.3565">
        <ele>141.03</ele>
        <time>2024-06-24T17:13:51.469Z</time>
      </trkpt>
      <trkpt lat="46.80685" lon="-0.35646">
        <ele>141.12</ele>
        <time>2024-06-24T17:13:55.011Z</time>
      </trkpt>
      <trkpt lat="46.80682" lon="-0.35642">
        <ele>141.22</ele>
        <time>2024-06-24T17:13:58.554Z</time>
      </trkpt>
      <trkpt lat="46.8068" lon="-0.35638">
        <ele>141.31</ele>
        <time>2024-06-24T17:14:02.097Z</time>
      </trkpt>
      <trkpt lat="46.80678" lon="-0.35633">
        <ele>141.4</ele>
        <time>2024-06-24T17:14:05.641Z</time>
      </trkpt>
      <trkpt lat="46.80675" lon="-0.35627">
        <ele>141.5</ele>
        <time>2024-06-24T17:14:09.186Z</time>
      </trkpt>
      <trkpt lat="46.80673" lon="-0.35623">
        <ele>141.6</ele>
        <time>2024-06-24T17:14:12.732Z</time>
      </trkpt>
      <trkpt lat="46.80671" lon="-0.35619">
        <ele>141.69</ele>
        <time>2024-06-24T17:14:16.279Z</time>
      </trkpt>
      <trkpt lat="46.80668" lon="-0.35615">
        <ele>141.79</ele>
        <time>2024-06-24T17:14:19.826Z</time>
      </trkpt>
      <trkpt lat="46.80666" lon="-0.3561">
        <ele>141.88</ele>
        <time>2024-06-24T17:14:23.374Z</time>
      </trkpt>
      <trkpt lat="46.80664" lon="-0.35605">
        <ele>141.98</ele>
        <time>2024-06-24T17:14:26.923Z</time>
      </trkpt>
      <trkpt lat="46.80661" lon="-0.35601">
        <ele>142.08</ele>
        <time>2024-06-24T17:14:30.473Z</time>
      </trkpt>
      <trkpt lat="46.80659" lon="-0.35598">
        <ele>142.17</ele>
        <time>2024-06-24T17:14:34.023Z</time>
      </trkpt>
      <trkpt lat="46.80656" lon="-0.35595">
        <ele>142.27</ele>
        <time>2024-06-24T17:14:37.574Z</time>
      </trkpt>
      <trkpt lat="46.80653" lon="-0.3559">
        <ele>142.37</ele>
        <time>2024-06-24T17:14:41.126Z</time>
      </trkpt>
      <trkpt lat="46.80651" lon="-0.35586">
        <ele>142.46</ele>
        <time>2024-06-24T17:14:44.679Z</time>
      </trkpt>
      <trkpt lat="46.80648" lon="-0.35581">
        <ele>142.56</ele>
        <time>2024-06-24T17:14:48.233Z</time>
      </trkpt>
      <trkpt lat="46.80645" lon="-0.35575">
        <ele>142.66</ele>
        <time>2024-06-24T17:14:51.787Z</time>
      </trkpt>
      <trkpt lat="46.80643" lon="-0.3557">
        <ele>142.75</ele>
        <time>2024-06-24T17:14:55.342Z</time>
      </trkpt>
      <trkpt lat="46.8064" lon="-0.35564">
        <ele>142.85</ele>
        <time>2024-06-24T17:14:58.898Z</time>
      </trkpt>
      <trkpt lat="46.80637" lon="-0.35557">
        <ele>142.95</ele>
        <time>2024-06-24T17:15:02.455Z</time>
      </trkpt>
      <trkpt lat="46.80635" lon="-0.35551">
        <ele>143.04</ele>
        <time>2024-06-24T17:15:06.013Z</time>
      </trkpt>
      <trkpt lat="46.80633" lon="-0.35545">
        <ele>143.14</ele>
        <time>2024-06-24T17:15:09.572Z</time>
      </trkpt>
      <trkpt lat="46.80631" lon="-0.35539">
        <ele>143.24</ele>
        <time>2024-06-24T17:15:13.132Z</time>
      </trkpt>
      <trkpt lat="46.80628" lon="-0.35534">
        <ele>143.33</ele>
        <time>2024-06-24T17:15:16.693Z</time>
      </trkpt>
      <trkpt lat="46.80626" lon="-0.35527">
        <ele>143.43</ele>
        <time>2024-06-24T17:15:20.255Z</time>
      </trkpt>
      <trkpt lat="46.80624" lon="-0.35521">
        <ele>143.53</ele>
        <time>2024-06-24T17:15:23.818Z</time>
      </trkpt>
      <trkpt lat="46.80621" lon="-0.35515">
        <ele>143.64</ele>
        <time>2024-06-24T17:15:27.382Z</time>
      </trkpt>
      <trkpt lat="46.80619" lon="-0.35508">
        <ele>143.75</ele>
        <time>2024-06-24T17:15:30.947Z</time>
      </trkpt>
      <trkpt lat="46.80617" lon="-0.35501">
        <ele>143.86</ele>
        <time>2024-06-24T17:15:34.513Z</time>
      </trkpt>
      <trkpt lat="46.80614" lon="-0.35495">
        <ele>143.96</ele>
        <time>2024-06-24T17:15:38.080Z</time>
      </trkpt>
      <trkpt lat="46.80613" lon="-0.35488">
        <ele>144.06</ele>
        <time>2024-06-24T17:15:41.648Z</time>
      </trkpt>
      <trkpt lat="46.8061" lon="-0.35482">
        <ele>144.16</ele>
        <time>2024-06-24T17:15:45.217Z</time>
      </trkpt>
      <trkpt lat="46.80608" lon="-0.35476">
        <ele>144.27</ele>
        <time>2024-06-24T17:15:48.787Z</time>
      </trkpt>
      <trkpt lat="46.80606" lon="-0.3547">
        <ele>144.38</ele>
        <time>2024-06-24T17:15:52.358Z</time>
      </trkpt>
      <trkpt lat="46.80604" lon="-0.35464">
        <ele>144.49</ele>
        <time>2024-06-24T17:15:55.930Z</time>
      </trkpt>
      <trkpt lat="46.80602" lon="-0.35456">
        <ele>144.6</ele>
        <time>2024-06-24T17:15:59.503Z</time>
      </trkpt>
      <trkpt lat="46.806" lon="-0.3545">
        <ele>144.7</ele>
        <time>2024-06-24T17:16:03.077Z</time>
      </trkpt>
      <trkpt lat="46.80599" lon="-0.35444">
        <ele>144.81</ele>
        <time>2024-06-24T17:16:06.652Z</time>
      </trkpt>
      <trkpt lat="46.80596" lon="-0.35438">
        <ele>144.92</ele>
        <time>2024-06-24T17:16:10.228Z</time>
      </trkpt>
      <trkpt lat="46.80594" lon="-0.35431">
        <ele>145.03</ele>
        <time>2024-06-24T17:16:13.805Z</time>
      </trkpt>
      <trkpt lat="46.80592" lon="-0.35425">
        <ele>145.14</ele>
        <time>2024-06-24T17:16:17.383Z</time>
      </trkpt>
      <trkpt lat="46.8059" lon="-0.35419">
        <ele>145.25</ele>
        <time>2024-06-24T17:16:20.962Z</time>
      </trkpt>
      <trkpt lat="46.80587" lon="-0.35414">
        <ele>145.36</ele>
        <time>2024-06-24T17:16:24.542Z</time>
      </trkpt>
      <trkpt lat="46.80584" lon="-0.35408">
        <ele>145.46</ele>
        <time>2024-06-24T17:16:28.123Z</time>
      </trkpt>
      <trkpt lat="46.80582" lon="-0.35402">
        <ele>145.57</ele>
        <time>2024-06-24T17:16:31.704Z</time>
      </trkpt>
      <trkpt lat="46.8058" lon="-0.35397">
        <ele>145.68</ele>
        <time>2024-06-24T17:16:35.286Z</time>
      </trkpt>
      <trkpt lat="46.80577" lon="-0.35391">
        <ele>145.8</ele>
        <time>2024-06-24T17:16:38.869Z</time>
      </trkpt>
      <trkpt lat="46.80574" lon="-0.35385">
        <ele>145.91</ele>
        <time>2024-06-24T17:16:42.453Z</time>
      </trkpt>
      <trkpt lat="46.8057" lon="-0.35381">
        <ele>146.02</ele>
        <time>2024-06-24T17:16:46.038Z</time>
      </trkpt>
      <trkpt lat="46.80567" lon="-0.35376">
        <ele>146.13</ele>
        <time>2024-06-24T17:16:49.624Z</time>
      </trkpt>
      <trkpt lat="46.80564" lon="-0.35372">
        <ele>146.24</ele>
        <time>2024-06-24T17:16:53.211Z</time>
      </trkpt>
      <trkpt lat="46.8056" lon="-0.35368">
        <ele>146.36</ele>
        <time>2024-06-24T17:16:56.799Z</time>
      </trkpt>
      <trkpt lat="46.80557" lon="-0.35364">
        <ele>146.47</ele>
        <time>2024-06-24T17:17:00.388Z</time>
      </trkpt>
      <trkpt lat="46.80553" lon="-0.35359">
        <ele>146.59</ele>
        <time>2024-06-24T17:17:03.978Z</time>
      </trkpt>
      <trkpt lat="46.80549" lon="-0.35354">
        <ele>146.7</ele>
        <time>2024-06-24T17:17:07.569Z</time>
      </trkpt>
      <trkpt lat="46.80546" lon="-0.35349">
        <ele>146.81</ele>
        <time>2024-06-24T17:17:11.161Z</time>
      </trkpt>
      <trkpt lat="46.80543" lon="-0.35344">
        <ele>146.94</ele>
        <time>2024-06-24T17:17:14.754Z</time>
      </trkpt>
      <trkpt lat="46.80539" lon="-0.35339">
        <ele>147.06</ele>
        <time>2024-06-24T17:17:18.348Z</time>
      </trkpt>
      <trkpt lat="46.80537" lon="-0.35335">
        <ele>147.18</ele>
        <time>2024-06-24T17:17:21.942Z</time>
      </trkpt>
      <trkpt lat="46.80533" lon="-0.35331">
        <ele>147.3</ele>
        <time>2024-06-24T17:17:25.537Z</time>
      </trkpt>
      <trkpt lat="46.8053" lon="-0.35326">
        <ele>147.42</ele>
        <time>2024-06-24T17:17:29.133Z</time>
      </trkpt>
      <trkpt lat="46.80526" lon="-0.35321">
        <ele>147.55</ele>
        <time>2024-06-24T17:17:32.730Z</time>
      </trkpt>
      <trkpt lat="46.80523" lon="-0.35316">
        <ele>147.66</ele>
        <time>2024-06-24T17:17:36.328Z</time>
      </trkpt>
      <trkpt lat="46.80519" lon="-0.3531">
        <ele>147.78</ele>
        <time>2024-06-24T17:17:39.927Z</time>
      </trkpt>
      <trkpt lat="46.80516" lon="-0.35305">
        <ele>147.9</ele>
        <time>2024-06-24T17:17:43.527Z</time>
      </trkpt>
      <trkpt lat="46.80513" lon="-0.353">
        <ele>148.01</ele>
        <time>2024-06-24T17:17:47.128Z</time>
      </trkpt>
      <trkpt lat="46.80509" lon="-0.35295">
        <ele>148.13</ele>
        <time>2024-06-24T17:17:50.730Z</time>
      </trkpt>
      <trkpt lat="46.80506" lon="-0.35289">
        <ele>148.24</ele>
        <time>2024-06-24T17:17:54.333Z</time>
      </trkpt>
      <trkpt lat="46.80502" lon="-0.35284">
        <ele>148.35</ele>
        <time>2024-06-24T17:17:57.937Z</time>
      </trkpt>
      <trkpt lat="46.80498" lon="-0.35279">
        <ele>148.45</ele>
        <time>2024-06-24T17:18:01.542Z</time>
      </trkpt>
      <trkpt lat="46.80495" lon="-0.35273">
        <ele>148.54</ele>
        <time>2024-06-24T17:18:05.148Z</time>
      </trkpt>
      <trkpt lat="46.80491" lon="-0.35267">
        <ele>148.63</ele>
        <time>2024-06-24T17:18:08.755Z</time>
      </trkpt>
      <trkpt lat="46.80488" lon="-0.35261">
        <ele>148.71</ele>
        <time>2024-06-24T17:18:12.364Z</time>
      </trkpt>
      <trkpt lat="46.80485" lon="-0.35254">
        <ele>148.8</ele>
        <time>2024-06-24T17:18:15.974Z</time>
      </trkpt>
      <trkpt lat="46.80482" lon="-0.35248">
        <ele>148.89</ele>
        <time>2024-06-24T17:18:19.585Z</time>
      </trkpt>
      <trkpt lat="46.80479" lon="-0.35242">
        <ele>148.98</ele>
        <time>2024-06-24T17:18:23.197Z</time>
      </trkpt>
      <trkpt lat="46.80477" lon="-0.35236">
        <ele>149.07</ele>
        <time>2024-06-24T17:18:26.810Z</time>
      </trkpt>
      <trkpt lat="46.80475" lon="-0.3523">
        <ele>149.15</ele>
        <time>2024-06-24T17:18:30.424Z</time>
      </trkpt>
      <trkpt lat="46.80473" lon="-0.35223">
        <ele>149.23</ele>
        <time>2024-06-24T17:18:34.039Z</time>
      </trkpt>
      <trkpt lat="46.8047" lon="-0.35217">
        <ele>149.32</ele>
        <time>2024-06-24T17:18:37.655Z</time>
      </trkpt>
      <trkpt lat="46.80468" lon="-0.35211">
        <ele>149.4</ele>
        <time>2024-06-24T17:18:41.272Z</time>
      </trkpt>
      <trkpt lat="46.80465" lon="-0.35204">
        <ele>149.49</ele>
        <time>2024-06-24T17:18:44.890Z</time>
      </trkpt>
      <trkpt lat="46.80462" lon="-0.35197">
        <ele>149.57</ele>
        <time>2024-06-24T17:18:48.509Z</time>
      </trkpt>
      <trkpt lat="46.8046" lon="-0.35191">
        <ele>149.66</ele>
        <time>2024-06-24T17:18:52.129Z</time>
      </trkpt>
      <trkpt lat="46.80458" lon="-0.35185">
        <ele>149.74</ele>
        <time>2024-06-24T17:18:55.750Z</time>
      </trkpt>
      <trkpt lat="46.80455" lon="-0.35178">
        <ele>149.82</ele>
        <time>2024-06-24T17:18:59.372Z</time>
      </trkpt>
      <trkpt lat="46.80453" lon="-0.35173">
        <ele>149.9</ele>
        <time>2024-06-24T17:19:02.995Z</time>
      </trkpt>
      <trkpt lat="46.8045" lon="-0.35166">
        <ele>149.98</ele>
        <time>2024-06-24T17:19:06.619Z</time>
      </trkpt>
      <trkpt lat="46.80447" lon="-0.3516">
        <ele>150.07</ele>
        <time>2024-06-24T17:19:10.244Z</time>
      </trkpt>
      <trkpt lat="46.80445" lon="-0.35154">
        <ele>150.15</ele>
        <time>2024-06-24T17:19:13.870Z</time>
      </trkpt>
      <trkpt lat="46.80442" lon="-0.35148">
        <ele>150.23</ele>
        <time>2024-06-24T17:19:17.497Z</time>
      </trkpt>
      <trkpt lat="46.80439" lon="-0.35142">
        <ele>150.31</ele>
        <time>2024-06-24T17:19:21.125Z</time>
      </trkpt>
      <trkpt lat="46.80436" lon="-0.35136">
        <ele>150.39</ele>
        <time>2024-06-24T17:19:24.754Z</time>
      </trkpt>
      <trkpt lat="46.80432" lon="-0.3513">
        <ele>150.47</ele>
        <time>2024-06-24T17:19:28.384Z</time>
      </trkpt>
      <trkpt lat="46.80429" lon="-0.35125">
        <ele>150.54</ele>
        <time>2024-06-24T17:19:32.015Z</time>
      </trkpt>
      <trkpt lat="46.80427" lon="-0.35119">
        <ele>150.61</ele>
        <time>2024-06-24T17:19:35.647Z</time>
      </trkpt>
      <trkpt lat="46.80424" lon="-0.35113">
        <ele>150.69</ele>
        <time>2024-06-24T17:19:39.280Z</time>
      </trkpt>
      <trkpt lat="46.80421" lon="-0.35107">
        <ele>150.76</ele>
        <time>2024-06-24T17:19:42.914Z</time>
      </trkpt>
      <trkpt lat="46.80417" lon="-0.35101">
        <ele>150.83</ele>
        <time>2024-06-24T17:19:46.549Z</time>
      </trkpt>
      <trkpt lat="46.80415" lon="-0.35095">
        <ele>150.9</ele>
        <time>2024-06-24T17:19:50.185Z</time>
      </trkpt>
      <trkpt lat="46.80411" lon="-0.35088">
        <ele>150.97</ele>
        <time>2024-06-24T17:19:53.822Z</time>
      </trkpt>
      <trkpt lat="46.80408" lon="-0.35082">
        <ele>151.03</ele>
        <time>2024-06-24T17:19:57.460Z</time>
      </trkpt>
      <trkpt lat="46.80405" lon="-0.35076">
        <ele>151.1</ele>
        <time>2024-06-24T17:20:01.099Z</time>
      </trkpt>
      <trkpt lat="46.80402" lon="-0.35071">
        <ele>151.16</ele>
        <time>2024-06-24T17:20:04.739Z</time>
      </trkpt>
      <trkpt lat="46.80399" lon="-0.35066">
        <ele>151.22</ele>
        <time>2024-06-24T17:20:08.380Z</time>
      </trkpt>
      <trkpt lat="46.80396" lon="-0.3506">
        <ele>151.28</ele>
        <time>2024-06-24T17:20:12.022Z</time>
      </trkpt>
      <trkpt lat="46.80393" lon="-0.35054">
        <ele>151.33</ele>
        <time>2024-06-24T17:20:15.665Z</time>
      </trkpt>
      <trkpt lat="46.8039" lon="-0.35048">
        <ele>151.39</ele>
        <time>2024-06-24T17:20:19.309Z</time>
      </trkpt>
      <trkpt lat="46.80387" lon="-0.35042">
        <ele>151.44</ele>
        <time>2024-06-24T17:20:22.954Z</time>
      </trkpt>
      <trkpt lat="46.80384" lon="-0.35036">
        <ele>151.49</ele>
        <time>2024-06-24T17:20:26.600Z</time>
      </trkpt>
      <trkpt lat="46.80381" lon="-0.35031">
        <ele>151.53</ele>
        <time>2024-06-24T17:20:30.247Z</time>
      </trkpt>
      <trkpt lat="46.80378" lon="-0.35025">
        <ele>151.57</ele>
        <time>2024-06-24T17:20:33.895Z</time>
      </trkpt>
      <trkpt lat="46.80376" lon="-0.3502">
        <ele>151.6</ele>
        <time>2024-06-24T17:20:37.544Z</time>
      </trkpt>
      <trkpt lat="46.80373" lon="-0.35014">
        <ele>151.63</ele>
        <time>2024-06-24T17:20:41.194Z</time>
      </trkpt>
      <trkpt lat="46.8037" lon="-0.35009">
        <ele>151.67</ele>
        <time>2024-06-24T17:20:44.845Z</time>
      </trkpt>
      <trkpt lat="46.80367" lon="-0.35004">
        <ele>151.7</ele>
        <time>2024-06-24T17:20:48.497Z</time>
      </trkpt>
      <trkpt lat="46.80364" lon="-0.34997">
        <ele>151.73</ele>
        <time>2024-06-24T17:20:52.150Z</time>
      </trkpt>
      <trkpt lat="46.80362" lon="-0.34992">
        <ele>151.76</ele>
        <time>2024-06-24T17:20:55.804Z</time>
      </trkpt>
      <trkpt lat="46.80359" lon="-0.34987">
        <ele>151.78</ele>
        <time>2024-06-24T17:20:59.458Z</time>
      </trkpt>
      <trkpt lat="46.80356" lon="-0.34981">
        <ele>151.81</ele>
        <time>2024-06-24T17:21:03.113Z</time>
      </trkpt>
      <trkpt lat="46.80353" lon="-0.34976">
        <ele>151.83</ele>
        <time>2024-06-24T17:21:06.769Z</time>
      </trkpt>
      <trkpt lat="46.8035" lon="-0.34971">
        <ele>151.85</ele>
        <time>2024-06-24T17:21:10.426Z</time>
      </trkpt>
      <trkpt lat="46.80346" lon="-0.34966">
        <ele>151.87</ele>
        <time>2024-06-24T17:21:14.084Z</time>
      </trkpt>
      <trkpt lat="46.80343" lon="-0.34961">
        <ele>151.89</ele>
        <time>2024-06-24T17:21:17.743Z</time>
      </trkpt>
      <trkpt lat="46.80339" lon="-0.34957">
        <ele>151.91</ele>
        <time>2024-06-24T17:21:21.403Z</time>
      </trkpt>
      <trkpt lat="46.80335" lon="-0.34953">
        <ele>151.92</ele>
        <time>2024-06-24T17:21:25.064Z</time>
      </trkpt>
      <trkpt lat="46.80331" lon="-0.34948">
        <ele>151.93</ele>
        <time>2024-06-24T17:21:28.726Z</time>
      </trkpt>
      <trkpt lat="46.80327" lon="-0.34944">
        <ele>151.95</ele>
        <time>2024-06-24T17:21:32.389Z</time>
      </trkpt>
      <trkpt lat="46.80323" lon="-0.3494">
        <ele>151.96</ele>
        <time>2024-06-24T17:21:36.053Z</time>
      </trkpt>
      <trkpt lat="46.8032" lon="-0.34936">
        <ele>151.97</ele>
        <time>2024-06-24T17:21:39.718Z</time>
      </trkpt>
      <trkpt lat="46.80316" lon="-0.34933">
        <ele>151.98</ele>
        <time>2024-06-24T17:21:43.384Z</time>
      </trkpt>
      <trkpt lat="46.80311" lon="-0.34929">
        <ele>151.99</ele>
        <time>2024-06-24T17:21:47.051Z</time>
      </trkpt>
      <trkpt lat="46.80307" lon="-0.34925">
        <ele>151.99</ele>
        <time>2024-06-24T17:21:50.719Z</time>
      </trkpt>
      <trkpt lat="46.80302" lon="-0.34921">
        <ele>152</ele>
        <time>2024-06-24T17:21:54.388Z</time>
      </trkpt>
      <trkpt lat="46.80298" lon="-0.34918">
        <ele>152.01</ele>
        <time>2024-06-24T17:21:58.058Z</time>
      </trkpt>
      <trkpt lat="46.80293" lon="-0.34914">
        <ele>152.03</ele>
        <time>2024-06-24T17:22:01.729Z</time>
      </trkpt>
      <trkpt lat="46.80289" lon="-0.34911">
        <ele>152.04</ele>
        <time>2024-06-24T17:22:05.401Z</time>
      </trkpt>
      <trkpt lat="46.80284" lon="-0.34908">
        <ele>152.04</ele>
        <time>2024-06-24T17:22:09.074Z</time>
      </trkpt>
      <trkpt lat="46.80279" lon="-0.34905">
        <ele>152.04</ele>
        <time>2024-06-24T17:22:12.748Z</time>
      </trkpt>
      <trkpt lat="46.80274" lon="-0.34902">
        <ele>152.04</ele>
        <time>2024-06-24T17:22:16.423Z</time>
      </trkpt>
      <trkpt lat="46.8027" lon="-0.349">
        <ele>152.05</ele>
        <time>2024-06-24T17:22:20.099Z</time>
      </trkpt>
      <trkpt lat="46.80265" lon="-0.34897">
        <ele>152.05</ele>
        <time>2024-06-24T17:22:23.776Z</time>
      </trkpt>
      <trkpt lat="46.8026" lon="-0.34895">
        <ele>152.06</ele>
        <time>2024-06-24T17:22:27.454Z</time>
      </trkpt>
      <trkpt lat="46.80255" lon="-0.34893">
        <ele>152.07</ele>
        <time>2024-06-24T17:22:31.133Z</time>
      </trkpt>
      <trkpt lat="46.8025" lon="-0.34892">
        <ele>152.07</ele>
        <time>2024-06-24T17:22:34.813Z</time>
      </trkpt>
      <trkpt lat="46.80244" lon="-0.3489">
        <ele>152.08</ele>
        <time>2024-06-24T17:22:38.494Z</time>
      </trkpt>
      <trkpt lat="46.80239" lon="-0.34889">
        <ele>152.08</ele>
        <time>2024-06-24T17:22:42.177Z</time>
      </trkpt>
      <trkpt lat="46.80233" lon="-0.34888">
        <ele>152.08</ele>
        <time>2024-06-24T17:22:45.861Z</time>
      </trkpt>
      <trkpt lat="46.80227" lon="-0.34887">
        <ele>152.09</ele>
        <time>2024-06-24T17:22:49.546Z</time>
      </trkpt>
      <trkpt lat="46.8022" lon="-0.34886">
        <ele>152.1</ele>
        <time>2024-06-24T17:22:53.232Z</time>
      </trkpt>
      <trkpt lat="46.80214" lon="-0.34885">
        <ele>152.12</ele>
        <time>2024-06-24T17:22:56.920Z</time>
      </trkpt>
      <trkpt lat="46.80208" lon="-0.34885">
        <ele>152.13</ele>
        <time>2024-06-24T17:23:00.609Z</time>
      </trkpt>
      <trkpt lat="46.80201" lon="-0.34884">
        <ele>152.15</ele>
        <time>2024-06-24T17:23:04.299Z</time>
      </trkpt>
      <trkpt lat="46.80195" lon="-0.34884">
        <ele>152.16</ele>
        <time>2024-06-24T17:23:07.990Z</time>
      </trkpt>
      <trkpt lat="46.8019" lon="-0.34883">
        <ele>152.18</ele>
        <time>2024-06-24T17:23:11.682Z</time>
      </trkpt>
      <trkpt lat="46.80184" lon="-0.34883">
        <ele>152.2</ele>
        <time>2024-06-24T17:23:15.375Z</time>
      </trkpt>
      <trkpt lat="46.80179" lon="-0.34883">
        <ele>152.23</ele>
        <time>2024-06-24T17:23:19.069Z</time>
      </trkpt>
      <trkpt lat="46.80173" lon="-0.34883">
        <ele>152.26</ele>
        <time>2024-06-24T17:23:22.765Z</time>
      </trkpt>
      <trkpt lat="46.80168" lon="-0.34883">
        <ele>152.28</ele>
        <time>2024-06-24T17:23:26.462Z</time>
      </trkpt>
      <trkpt lat="46.80163" lon="-0.34882">
        <ele>152.32</ele>
        <time>2024-06-24T17:23:30.160Z</time>
      </trkpt>
      <trkpt lat="46.80157" lon="-0.34881">
        <ele>152.35</ele>
        <time>2024-06-24T17:23:33.859Z</time>
      </trkpt>
      <trkpt lat="46.80152" lon="-0.3488">
        <ele>152.38</ele>
        <time>2024-06-24T17:23:37.559Z</time>
      </trkpt>
      <trkpt lat="46.80146" lon="-0.3488">
        <ele>152.42</ele>
        <time>2024-06-24T17:23:41.260Z</time>
      </trkpt>
      <trkpt lat="46.80141" lon="-0.34879">
        <ele>152.47</ele>
        <time>2024-06-24T17:23:44.962Z</time>
      </trkpt>
      <trkpt lat="46.80136" lon="-0.34879">
        <ele>152.52</ele>
        <time>2024-06-24T17:23:48.665Z</time>
      </trkpt>
      <trkpt lat="46.80131" lon="-0.34877">
        <ele>152.57</ele>
        <time>2024-06-24T17:23:52.369Z</time>
      </trkpt>
      <trkpt lat="46.80125" lon="-0.34877">
        <ele>152.62</ele>
        <time>2024-06-24T17:23:56.074Z</time>
      </trkpt>
      <trkpt lat="46.8012" lon="-0.34876">
        <ele>152.68</ele>
        <time>2024-06-24T17:23:59.780Z</time>
      </trkpt>
      <trkpt lat="46.80116" lon="-0.34875">
        <ele>152.73</ele>
        <time>2024-06-24T17:24:03.487Z</time>
      </trkpt>
      <trkpt lat="46.8011" lon="-0.34874">
        <ele>152.79</ele>
        <time>2024-06-24T17:24:07.195Z</time>
      </trkpt>
      <trkpt lat="46.80106" lon="-0.34872">
        <ele>152.85</ele>
        <time>2024-06-24T17:24:10.904Z</time>
      </trkpt>
      <trkpt lat="46.80102" lon="-0.3487">
        <ele>152.92</ele>
        <time>2024-06-24T17:24:14.614Z</time>
      </trkpt>
      <trkpt lat="46.80097" lon="-0.34868">
        <ele>152.98</ele>
        <time>2024-06-24T17:24:18.325Z</time>
      </trkpt>
      <trkpt lat="46.80093" lon="-0.34866">
        <ele>153.05</ele>
        <time>2024-06-24T17:24:22.037Z</time>
      </trkpt>
      <trkpt lat="46.80088" lon="-0.34864">
        <ele>153.12</ele>
        <time>2024-06-24T17:24:25.750Z</time>
      </trkpt>
      <trkpt lat="46.80083" lon="-0.34862">
        <ele>153.19</ele>
        <time>2024-06-24T17:24:29.464Z</time>
      </trkpt>
      <trkpt lat="46.80078" lon="-0.34859">
        <ele>153.27</ele>
        <time>2024-06-24T17:24:33.179Z</time>
      </trkpt>
      <trkpt lat="46.80074" lon="-0.34856">
        <ele>153.36</ele>
        <time>2024-06-24T17:24:36.895Z</time>
      </trkpt>
      <trkpt lat="46.80069" lon="-0.34854">
        <ele>153.44</ele>
        <time>2024-06-24T17:24:40.612Z</time>
      </trkpt>
      <trkpt lat="46.80065" lon="-0.34851">
        <ele>153.53</ele>
        <time>2024-06-24T17:24:44.330Z</time>
      </trkpt>
      <trkpt lat="46.8006" lon="-0.34847">
        <ele>153.63</ele>
        <time>2024-06-24T17:24:48.049Z</time>
      </trkpt>
      <trkpt lat="46.80056" lon="-0.34845">
        <ele>153.72</ele>
        <time>2024-06-24T17:24:51.769Z</time>
      </trkpt>
      <trkpt lat="46.80052" lon="-0.34842">
        <ele>153.82</ele>
        <time>2024-06-24T17:24:55.490Z</time>
      </trkpt>
      <trkpt lat="46.80047" lon="-0.3484">
        <ele>153.92</ele>
        <time>2024-06-24T17:24:59.212Z</time>
      </trkpt>
      <trkpt lat="46.80043" lon="-0.34838">
        <ele>154.03</ele>
        <time>2024-06-24T17:25:02.935Z</time>
      </trkpt>
      <trkpt lat="46.80039" lon="-0.34837">
        <ele>154.13</ele>
        <time>2024-06-24T17:25:06.658Z</time>
      </trkpt>
      <trkpt lat="46.80035" lon="-0.34835">
        <ele>154.24</ele>
        <time>2024-06-24T17:25:10.382Z</time>
      </trkpt>
      <trkpt lat="46.80031" lon="-0.34834">
        <ele>154.35</ele>
        <time>2024-06-24T17:25:14.107Z</time>
      </trkpt>
      <trkpt lat="46.80026" lon="-0.34833">
        <ele>154.46</ele>
        <time>2024-06-24T17:25:17.833Z</time>
      </trkpt>
      <trkpt lat="46.80022" lon="-0.34832">
        <ele>154.57</ele>
        <time>2024-06-24T17:25:21.560Z</time>
      </trkpt>
      <trkpt lat="46.80017" lon="-0.34832">
        <ele>154.68</ele>
        <time>2024-06-24T17:25:25.288Z</time>
      </trkpt>
      <trkpt lat="46.80013" lon="-0.34832">
        <ele>154.79</ele>
        <time>2024-06-24T17:25:29.017Z</time>
      </trkpt>
      <trkpt lat="46.80008" lon="-0.34833">
        <ele>154.9</ele>
        <time>2024-06-24T17:25:32.747Z</time>
      </trkpt>
      <trkpt lat="46.80003" lon="-0.34833">
        <ele>155.02</ele>
        <time>2024-06-24T17:25:36.478Z</time>
      </trkpt>
      <trkpt lat="46.79998" lon="-0.34832">
        <ele>155.14</ele>
        <time>2024-06-24T17:25:40.210Z</time>
      </trkpt>
      <trkpt lat="46.79994" lon="-0.34831">
        <ele>155.27</ele>
        <time>2024-06-24T17:25:43.943Z</time>
      </trkpt>
      <trkpt lat="46.79989" lon="-0.34831">
        <ele>155.39</ele>
        <time>2024-06-24T17:25:47.677Z</time>
      </trkpt>
      <trkpt lat="46.79983" lon="-0.3483">
        <ele>155.52</ele>
        <time>2024-06-24T17:25:51.412Z</time>
      </trkpt>
      <trkpt lat="46.79978" lon="-0.3483">
        <ele>155.64</ele>
        <time>2024-06-24T17:25:55.148Z</time>
      </trkpt>
      <trkpt lat="46.79973" lon="-0.34829">
        <ele>155.76</ele>
        <time>2024-06-24T17:25:58.885Z</time>
      </trkpt>
      <trkpt lat="46.79968" lon="-0.34829">
        <ele>155.89</ele>
        <time>2024-06-24T17:26:02.623Z</time>
      </trkpt>
      <trkpt lat="46.79964" lon="-0.34828">
        <ele>156.01</ele>
        <time>2024-06-24T17:26:06.362Z</time>
      </trkpt>
      <trkpt lat="46.79959" lon="-0.34827">
        <ele>156.13</ele>
        <time>2024-06-24T17:26:10.102Z</time>
      </trkpt>
      <trkpt lat="46.79955" lon="-0.34826">
        <ele>156.26</ele>
        <time>2024-06-24T17:26:13.842Z</time>
      </trkpt>
      <trkpt lat="46.7995" lon="-0.34824">
        <ele>156.39</ele>
        <time>2024-06-24T17:26:17.583Z</time>
      </trkpt>
      <trkpt lat="46.79945" lon="-0.34822">
        <ele>156.52</ele>
        <time>2024-06-24T17:26:21.325Z</time>
      </trkpt>
      <trkpt lat="46.79941" lon="-0.3482">
        <ele>156.65</ele>
        <time>2024-06-24T17:26:25.068Z</time>
      </trkpt>
      <trkpt lat="46.79937" lon="-0.34818">
        <ele>156.78</ele>
        <time>2024-06-24T17:26:28.812Z</time>
      </trkpt>
      <trkpt lat="46.79933" lon="-0.34816">
        <ele>156.92</ele>
        <time>2024-06-24T17:26:32.557Z</time>
      </trkpt>
      <trkpt lat="46.79928" lon="-0.34814">
        <ele>157.05</ele>
        <time>2024-06-24T17:26:36.303Z</time>
      </trkpt>
      <trkpt lat="46.79924" lon="-0.34812">
        <ele>157.19</ele>
        <time>2024-06-24T17:26:40.050Z</time>
      </trkpt>
      <trkpt lat="46.79919" lon="-0.34809">
        <ele>157.32</ele>
        <time>2024-06-24T17:26:43.798Z</time>
      </trkpt>
      <trkpt lat="46.79915" lon="-0.34807">
        <ele>157.45</ele>
        <time>2024-06-24T17:26:47.547Z</time>
      </trkpt>
      <trkpt lat="46.7991" lon="-0.34806">
        <ele>157.58</ele>
        <time>2024-06-24T17:26:51.297Z</time>
      </trkpt>
      <trkpt lat="46.79907" lon="-0.34804">
        <ele>157.71</ele>
        <time>2024-06-24T17:26:55.048Z</time>
      </trkpt>
      <trkpt lat="46.79902" lon="-0.34803">
        <ele>157.84</ele>
        <time>2024-06-24T17:26:58.799Z</time>
      </trkpt>
      <trkpt lat="46.79898" lon="-0.348">
        <ele>157.96</ele>
        <time>2024-06-24T17:27:02.551Z</time>
      </trkpt>
      <trkpt lat="46.79894" lon="-0.34798">
        <ele>158.09</ele>
        <time>2024-06-24T17:27:06.304Z</time>
      </trkpt>
      <trkpt lat="46.79889" lon="-0.34796">
        <ele>158.21</ele>
        <time>2024-06-24T17:27:10.058Z</time>
      </trkpt>
      <trkpt lat="46.79885" lon="-0.34795">
        <ele>158.34</ele>
        <time>2024-06-24T17:27:13.813Z</time>
      </trkpt>
      <trkpt lat="46.79881" lon="-0.34793">
        <ele>158.46</ele>
        <time>2024-06-24T17:27:17.569Z</time>
      </trkpt>
      <trkpt lat="46.79877" lon="-0.34792">
        <ele>158.58</ele>
        <time>2024-06-24T17:27:21.326Z</time>
      </trkpt>
      <trkpt lat="46.79873" lon="-0.34792">
        <ele>158.69</ele>
        <time>2024-06-24T17:27:25.084Z</time>
      </trkpt>
      <trkpt lat="46.79869" lon="-0.34791">
        <ele>158.8</ele>
        <time>2024-06-24T17:27:28.842Z</time>
      </trkpt>
      <trkpt lat="46.79865" lon="-0.34792">
        <ele>158.92</ele>
        <time>2024-06-24T17:27:32.601Z</time>
      </trkpt>
      <trkpt lat="46.79861" lon="-0.34791">
        <ele>159.03</ele>
        <time>2024-06-24T17:27:36.361Z</time>
      </trkpt>
      <trkpt lat="46.79856" lon="-0.3479">
        <ele>159.14</ele>
        <time>2024-06-24T17:27:40.122Z</time>
      </trkpt>
      <trkpt lat="46.79851" lon="-0.34789">
        <ele>159.25</ele>
        <time>2024-06-24T17:27:43.884Z</time>
      </trkpt>
      <trkpt lat="46.79846" lon="-0.34788">
        <ele>159.36</ele>
        <time>2024-06-24T17:27:47.647Z</time>
      </trkpt>
      <trkpt lat="46.79842" lon="-0.34787">
        <ele>159.47</ele>
        <time>2024-06-24T17:27:51.411Z</time>
      </trkpt>
      <trkpt lat="46.79838" lon="-0.34785">
        <ele>159.58</ele>
        <time>2024-06-24T17:27:55.176Z</time>
      </trkpt>
      <trkpt lat="46.79833" lon="-0.34783">
        <ele>159.68</ele>
        <time>2024-06-24T17:27:58.942Z</time>
      </trkpt>
      <trkpt lat="46.79828" lon="-0.34781">
        <ele>159.78</ele>
        <time>2024-06-24T17:28:02.709Z</time>
      </trkpt>
      <trkpt lat="46.79824" lon="-0.34779">
        <ele>159.88</ele>
        <time>2024-06-24T17:28:06.476Z</time>
      </trkpt>
      <trkpt lat="46.7982" lon="-0.34777">
        <ele>159.97</ele>
        <time>2024-06-24T17:28:10.244Z</time>
      </trkpt>
      <trkpt lat="46.79816" lon="-0.34774">
        <ele>160.07</ele>
        <time>2024-06-24T17:28:14.013Z</time>
      </trkpt>
      <trkpt lat="46.79813" lon="-0.34772">
        <ele>160.16</ele>
        <time>2024-06-24T17:28:17.783Z</time>
      </trkpt>
      <trkpt lat="46.79809" lon="-0.34769">
        <ele>160.26</ele>
        <time>2024-06-24T17:28:21.554Z</time>
      </trkpt>
      <trkpt lat="46.79806" lon="-0.34766">
        <ele>160.36</ele>
        <time>2024-06-24T17:28:25.326Z</time>
      </trkpt>
      <trkpt lat="46.79802" lon="-0.34762">
        <ele>160.45</ele>
        <time>2024-06-24T17:28:29.098Z</time>
      </trkpt>
      <trkpt lat="46.79799" lon="-0.34759">
        <ele>160.55</ele>
        <time>2024-06-24T17:28:32.871Z</time>
      </trkpt>
      <trkpt lat="46.79795" lon="-0.34756">
        <ele>160.63</ele>
        <time>2024-06-24T17:28:36.645Z</time>
      </trkpt>
      <trkpt lat="46.79791" lon="-0.34752">
        <ele>160.72</ele>
        <time>2024-06-24T17:28:40.420Z</time>
      </trkpt>
      <trkpt lat="46.79789" lon="-0.34749">
        <ele>160.81</ele>
        <time>2024-06-24T17:28:44.196Z</time>
      </trkpt>
      <trkpt lat="46.79786" lon="-0.34746">
        <ele>160.9</ele>
        <time>2024-06-24T17:28:47.972Z</time>
      </trkpt>
      <trkpt lat="46.79784" lon="-0.34743">
        <ele>161</ele>
        <time>2024-06-24T17:28:51.749Z</time>
      </trkpt>
      <trkpt lat="46.79782" lon="-0.34739">
        <ele>161.09</ele>
        <time>2024-06-24T17:28:55.527Z</time>
      </trkpt>
      <trkpt lat="46.7978" lon="-0.34736">
        <ele>161.19</ele>
        <time>2024-06-24T17:28:59.305Z</time>
      </trkpt>
      <trkpt lat="46.79777" lon="-0.34733">
        <ele>161.28</ele>
        <time>2024-06-24T17:29:03.084Z</time>
      </trkpt>
      <trkpt lat="46.79774" lon="-0.3473">
        <ele>161.38</ele>
        <time>2024-06-24T17:29:06.864Z</time>
      </trkpt>
      <trkpt lat="46.7977" lon="-0.34728">
        <ele>161.47</ele>
        <time>2024-06-24T17:29:10.645Z</time>
      </trkpt>
      <trkpt lat="46.79766" lon="-0.34727">
        <ele>161.57</ele>
        <time>2024-06-24T17:29:14.426Z</time>
      </trkpt>
      <trkpt lat="46.79761" lon="-0.34726">
        <ele>161.66</ele>
        <time>2024-06-24T17:29:18.208Z</time>
      </trkpt>
      <trkpt lat="46.79757" lon="-0.34725">
        <ele>161.76</ele>
        <time>2024-06-24T17:29:21.991Z</time>
      </trkpt>
      <trkpt lat="46.79752" lon="-0.34724">
        <ele>161.86</ele>
        <time>2024-06-24T17:29:25.775Z</time>
      </trkpt>
      <trkpt lat="46.79748" lon="-0.34723">
        <ele>161.96</ele>
        <time>2024-06-24T17:29:29.560Z</time>
      </trkpt>
      <trkpt lat="46.79743" lon="-0.34721">
        <ele>162.06</ele>
        <time>2024-06-24T17:29:33.346Z</time>
      </trkpt>
      <trkpt lat="46.79738" lon="-0.3472">
        <ele>162.17</ele>
        <time>2024-06-24T17:29:37.133Z</time>
      </trkpt>
      <trkpt lat="46.79733" lon="-0.34719">
        <ele>162.27</ele>
        <time>2024-06-24T17:29:40.921Z</time>
      </trkpt>
      <trkpt lat="46.79728" lon="-0.34717">
        <ele>162.38</ele>
        <time>2024-06-24T17:29:44.710Z</time>
      </trkpt>
      <trkpt lat="46.79723" lon="-0.34716">
        <ele>162.49</ele>
        <time>2024-06-24T17:29:48.500Z</time>
      </trkpt>
      <trkpt lat="46.79718" lon="-0.34714">
        <ele>162.61</ele>
        <time>2024-06-24T17:29:52.291Z</time>
      </trkpt>
      <trkpt lat="46.79713" lon="-0.34713">
        <ele>162.72</ele>
        <time>2024-06-24T17:29:56.083Z</time>
      </trkpt>
      <trkpt lat="46.79708" lon="-0.34711">
        <ele>162.84</ele>
        <time>2024-06-24T17:29:59.876Z</time>
      </trkpt>
      <trkpt lat="46.79703" lon="-0.3471">
        <ele>162.96</ele>
        <time>2024-06-24T17:30:03.670Z</time>
      </trkpt>
      <trkpt lat="46.79698" lon="-0.34708">
        <ele>163.08</ele>
        <time>2024-06-24T17:30:07.465Z</time>
      </trkpt>
      <trkpt lat="46.79692" lon="-0.34707">
        <ele>163.2</ele>
        <time>2024-06-24T17:30:11.261Z</time>
      </trkpt>
      <trkpt lat="46.79687" lon="-0.34705">
        <ele>163.33</ele>
        <time>2024-06-24T17:30:15.058Z</time>
      </trkpt>
      <trkpt lat="46.79683" lon="-0.34703">
        <ele>163.46</ele>
        <time>2024-06-24T17:30:18.856Z</time>
      </trkpt>
      <trkpt lat="46.79678" lon="-0.34701">
        <ele>163.6</ele>
        <time>2024-06-24T17:30:22.655Z</time>
      </trkpt>
      <trkpt lat="46.79673" lon="-0.347">
        <ele>163.73</ele>
        <time>2024-06-24T17:30:26.455Z</time>
      </trkpt>
      <trkpt lat="46.79667" lon="-0.34698">
        <ele>163.87</ele>
        <time>2024-06-24T17:30:30.256Z</time>
      </trkpt>
      <trkpt lat="46.79662" lon="-0.34697">
        <ele>164.02</ele>
        <time>2024-06-24T17:30:34.059Z</time>
      </trkpt>
      <trkpt lat="46.79657" lon="-0.34698">
        <ele>164.17</ele>
        <time>2024-06-24T17:30:37.863Z</time>
      </trkpt>
      <trkpt lat="46.79652" lon="-0.34701">
        <ele>164.31</ele>
        <time>2024-06-24T17:30:41.668Z</time>
      </trkpt>
      <trkpt lat="46.79647" lon="-0.34703">
        <ele>164.46</ele>
        <time>2024-06-24T17:30:45.474Z</time>
      </trkpt>
      <trkpt lat="46.79642" lon="-0.34703">
        <ele>164.61</ele>
        <time>2024-06-24T17:30:49.281Z</time>
      </trkpt>
      <trkpt lat="46.79639" lon="-0.34699">
        <ele>164.77</ele>
        <time>2024-06-24T17:30:53.089Z</time>
      </trkpt>
      <trkpt lat="46.79637" lon="-0.34693">
        <ele>164.92</ele>
        <time>2024-06-24T17:30:56.897Z</time>
      </trkpt>
      <trkpt lat="46.79635" lon="-0.34688">
        <ele>165.07</ele>
        <time>2024-06-24T17:31:00.706Z</time>
      </trkpt>
      <trkpt lat="46.79632" lon="-0.34685">
        <ele>165.23</ele>
        <time>2024-06-24T17:31:04.516Z</time>
      </trkpt>
      <trkpt lat="46.79629" lon="-0.34682">
        <ele>165.38</ele>
        <time>2024-06-24T17:31:08.327Z</time>
      </trkpt>
      <trkpt lat="46.79626" lon="-0.34678">
        <ele>165.54</ele>
        <time>2024-06-24T17:31:12.138Z</time>
      </trkpt>
      <trkpt lat="46.79623" lon="-0.34675">
        <ele>165.7</ele>
        <time>2024-06-24T17:31:15.950Z</time>
      </trkpt>
      <trkpt lat="46.79619" lon="-0.34671">
        <ele>165.86</ele>
        <time>2024-06-24T17:31:19.763Z</time>
      </trkpt>
      <trkpt lat="46.79615" lon="-0.34669">
        <ele>166</ele>
        <time>2024-06-24T17:31:23.577Z</time>
      </trkpt>
      <trkpt lat="46.79611" lon="-0.34668">
        <ele>166.15</ele>
        <time>2024-06-24T17:31:27.392Z</time>
      </trkpt>
      <trkpt lat="46.79607" lon="-0.34666">
        <ele>166.29</ele>
        <time>2024-06-24T17:31:31.208Z</time>
      </trkpt>
      <trkpt lat="46.79604" lon="-0.34664">
        <ele>166.43</ele>
        <time>2024-06-24T17:31:35.024Z</time>
      </trkpt>
      <trkpt lat="46.79601" lon="-0.34662">
        <ele>166.58</ele>
        <time>2024-06-24T17:31:38.841Z</time>
      </trkpt>
      <trkpt lat="46.79598" lon="-0.34659">
        <ele>166.72</ele>
        <time>2024-06-24T17:31:42.659Z</time>
      </trkpt>
      <trkpt lat="46.79594" lon="-0.34656">
        <ele>166.86</ele>
        <time>2024-06-24T17:31:46.478Z</time>
      </trkpt>
      <trkpt lat="46.79591" lon="-0.34653">
        <ele>167</ele>
        <time>2024-06-24T17:31:50.297Z</time>
      </trkpt>
      <trkpt lat="46.79587" lon="-0.3465">
        <ele>167.13</ele>
        <time>2024-06-24T17:31:54.117Z</time>
      </trkpt>
      <trkpt lat="46.79583" lon="-0.34647">
        <ele>167.25</ele>
        <time>2024-06-24T17:31:57.938Z</time>
      </trkpt>
      <trkpt lat="46.7958" lon="-0.34645">
        <ele>167.38</ele>
        <time>2024-06-24T17:32:01.760Z</time>
      </trkpt>
      <trkpt lat="46.79577" lon="-0.34642">
        <ele>167.5</ele>
        <time>2024-06-24T17:32:05.583Z</time>
      </trkpt>
      <trkpt lat="46.79573" lon="-0.34639">
        <ele>167.61</ele>
        <time>2024-06-24T17:32:09.406Z</time>
      </trkpt>
      <trkpt lat="46.79569" lon="-0.34636">
        <ele>167.73</ele>
        <time>2024-06-24T17:32:13.230Z</time>
      </trkpt>
      <trkpt lat="46.79566" lon="-0.34633">
        <ele>167.84</ele>
        <time>2024-06-24T17:32:17.055Z</time>
      </trkpt>
      <trkpt lat="46.79563" lon="-0.34631">
        <ele>167.94</ele>
        <time>2024-06-24T17:32:20.881Z</time>
      </trkpt>
      <trkpt lat="46.79559" lon="-0.34629">
        <ele>168.03</ele>
        <time>2024-06-24T17:32:24.708Z</time>
      </trkpt>
      <trkpt lat="46.79556" lon="-0.34627">
        <ele>168.12</ele>
        <time>2024-06-24T17:32:28.535Z</time>
      </trkpt>
      <trkpt lat="46.79553" lon="-0.34624">
        <ele>168.21</ele>
        <time>2024-06-24T17:32:32.363Z</time>
      </trkpt>
      <trkpt lat="46.7955" lon="-0.3462">
        <ele>168.3</ele>
        <time>2024-06-24T17:32:36.192Z</time>
      </trkpt>
      <trkpt lat="46.79547" lon="-0.34616">
        <ele>168.39</ele>
        <time>2024-06-24T17:32:40.022Z</time>
      </trkpt>
      <trkpt lat="46.79545" lon="-0.34612">
        <ele>168.47</ele>
        <time>2024-06-24T17:32:43.852Z</time>
      </trkpt>
      <trkpt lat="46.79542" lon="-0.34609">
        <ele>168.55</ele>
        <time>2024-06-24T17:32:47.683Z</time>
      </trkpt>
      <trkpt lat="46.79538" lon="-0.34605">
        <ele>168.62</ele>
        <time>2024-06-24T17:32:51.515Z</time>
      </trkpt>
      <trkpt lat="46.79535" lon="-0.34602">
        <ele>168.69</ele>
        <time>2024-06-24T17:32:55.348Z</time>
      </trkpt>
      <trkpt lat="46.79532" lon="-0.34599">
        <ele>168.75</ele>
        <time>2024-06-24T17:32:59.181Z</time>
      </trkpt>
      <trkpt lat="46.79529" lon="-0.34596">
        <ele>168.81</ele>
        <time>2024-06-24T17:33:03.015Z</time>
      </trkpt>
      <trkpt lat="46.79526" lon="-0.34591">
        <ele>168.86</ele>
        <time>2024-06-24T17:33:06.850Z</time>
      </trkpt>
      <trkpt lat="46.79523" lon="-0.34586">
        <ele>168.92</ele>
        <time>2024-06-24T17:33:10.686Z</time>
      </trkpt>
      <trkpt lat="46.7952" lon="-0.34582">
        <ele>168.97</ele>
        <time>2024-06-24T17:33:14.523Z</time>
      </trkpt>
      <trkpt lat="46.79517" lon="-0.34578">
        <ele>169.02</ele>
        <time>2024-06-24T17:33:18.361Z</time>
      </trkpt>
      <trkpt lat="46.79515" lon="-0.34574">
        <ele>169.07</ele>
        <time>2024-06-24T17:33:22.199Z</time>
      </trkpt>
      <trkpt lat="46.79511" lon="-0.3457">
        <ele>169.1</ele>
        <time>2024-06-24T17:33:26.038Z</time>
      </trkpt>
      <trkpt lat="46.79509" lon="-0.34567">
        <ele>169.13</ele>
        <time>2024-06-24T17:33:29.878Z</time>
      </trkpt>
      <trkpt lat="46.79506" lon="-0.34561">
        <ele>169.16</ele>
        <time>2024-06-24T17:33:33.719Z</time>
      </trkpt>
      <trkpt lat="46.79504" lon="-0.34556">
        <ele>169.19</ele>
        <time>2024-06-24T17:33:37.561Z</time>
      </trkpt>
      <trkpt lat="46.79501" lon="-0.34552">
        <ele>169.21</ele>
        <time>2024-06-24T17:33:41.403Z</time>
      </trkpt>
      <trkpt lat="46.79497" lon="-0.34549">
        <ele>169.22</ele>
        <time>2024-06-24T17:33:45.246Z</time>
      </trkpt>
      <trkpt lat="46.79494" lon="-0.34547">
        <ele>169.22</ele>
        <time>2024-06-24T17:33:49.090Z</time>
      </trkpt>
      <trkpt lat="46.79492" lon="-0.34544">
        <ele>169.22</ele>
        <time>2024-06-24T17:33:52.935Z</time>
      </trkpt>
      <trkpt lat="46.79488" lon="-0.34542">
        <ele>169.21</ele>
        <time>2024-06-24T17:33:56.780Z</time>
      </trkpt>
      <trkpt lat="46.79485" lon="-0.34538">
        <ele>169.2</ele>
        <time>2024-06-24T17:34:00.626Z</time>
      </trkpt>
      <trkpt lat="46.79482" lon="-0.34534">
        <ele>169.18</ele>
        <time>2024-06-24T17:34:04.473Z</time>
      </trkpt>
      <trkpt lat="46.79479" lon="-0.34529">
        <ele>169.15</ele>
        <time>2024-06-24T17:34:08.321Z</time>
      </trkpt>
      <trkpt lat="46.79476" lon="-0.34525">
        <ele>169.13</ele>
        <time>2024-06-24T17:34:12.170Z</time>
      </trkpt>
      <trkpt lat="46.79474" lon="-0.34521">
        <ele>169.1</ele>
        <time>2024-06-24T17:34:16.019Z</time>
      </trkpt>
      <trkpt lat="46.79472" lon="-0.34517">
        <ele>169.06</ele>
        <time>2024-06-24T17:34:19.869Z</time>
      </trkpt>
      <trkpt lat="46.79469" lon="-0.34513">
        <ele>169.02</ele>
        <time>2024-06-24T17:34:23.720Z</time>
      </trkpt>
      <trkpt lat="46.79467" lon="-0.34508">
        <ele>168.97</ele>
        <time>2024-06-24T17:34:27.572Z</time>
      </trkpt>
      <trkpt lat="46.79464" lon="-0.34504">
        <ele>168.91</ele>
        <time>2024-06-24T17:34:31.424Z</time>
      </trkpt>
      <trkpt lat="46.79462" lon="-0.345">
        <ele>168.86</ele>
        <time>2024-06-24T17:34:35.277Z</time>
      </trkpt>
      <trkpt lat="46.79459" lon="-0.34496">
        <ele>168.79</ele>
        <time>2024-06-24T17:34:39.131Z</time>
      </trkpt>
      <trkpt lat="46.79456" lon="-0.34492">
        <ele>168.73</ele>
        <time>2024-06-24T17:34:42.986Z</time>
      </trkpt>
      <trkpt lat="46.79453" lon="-0.34487">
        <ele>168.65</ele>
        <time>2024-06-24T17:34:46.842Z</time>
      </trkpt>
      <trkpt lat="46.79451" lon="-0.34482">
        <ele>168.57</ele>
        <time>2024-06-24T17:34:50.698Z</time>
      </trkpt>
      <trkpt lat="46.7945" lon="-0.34478">
        <ele>168.48</ele>
        <time>2024-06-24T17:34:54.555Z</time>
      </trkpt>
      <trkpt lat="46.79448" lon="-0.34473">
        <ele>168.39</ele>
        <time>2024-06-24T17:34:58.413Z</time>
      </trkpt>
      <trkpt lat="46.79447" lon="-0.34468">
        <ele>168.29</ele>
        <time>2024-06-24T17:35:02.272Z</time>
      </trkpt>
      <trkpt lat="46.79444" lon="-0.34464">
        <ele>168.2</ele>
        <time>2024-06-24T17:35:06.131Z</time>
      </trkpt>
      <trkpt lat="46.79442" lon="-0.3446">
        <ele>168.09</ele>
        <time>2024-06-24T17:35:09.991Z</time>
      </trkpt>
      <trkpt lat="46.7944" lon="-0.34458">
        <ele>167.99</ele>
        <time>2024-06-24T17:35:13.852Z</time>
      </trkpt>
      <trkpt lat="46.79437" lon="-0.34453">
        <ele>167.88</ele>
        <time>2024-06-24T17:35:17.713Z</time>
      </trkpt>
      <trkpt lat="46.79436" lon="-0.34449">
        <ele>167.77</ele>
        <time>2024-06-24T17:35:21.575Z</time>
      </trkpt>
      <trkpt lat="46.79434" lon="-0.34446">
        <ele>167.66</ele>
        <time>2024-06-24T17:35:25.438Z</time>
      </trkpt>
      <trkpt lat="46.79432" lon="-0.34444">
        <ele>167.54</ele>
        <time>2024-06-24T17:35:29.301Z</time>
      </trkpt>
      <trkpt lat="46.7943" lon="-0.34444">
        <ele>167.42</ele>
        <time>2024-06-24T17:35:33.165Z</time>
      </trkpt>
      <trkpt lat="46.79427" lon="-0.34444">
        <ele>167.29</ele>
        <time>2024-06-24T17:35:37.029Z</time>
      </trkpt>
      <trkpt lat="46.79425" lon="-0.34445">
        <ele>167.17</ele>
        <time>2024-06-24T17:35:40.893Z</time>
      </trkpt>
      <trkpt lat="46.79423" lon="-0.34445">
        <ele>167.04</ele>
        <time>2024-06-24T17:35:44.758Z</time>
      </trkpt>
      <trkpt lat="46.79422" lon="-0.34442">
        <ele>166.91</ele>
        <time>2024-06-24T17:35:48.623Z</time>
      </trkpt>
      <trkpt lat="46.7942" lon="-0.34439">
        <ele>166.78</ele>
        <time>2024-06-24T17:35:52.489Z</time>
      </trkpt>
      <trkpt lat="46.79419" lon="-0.34435">
        <ele>166.66</ele>
        <time>2024-06-24T17:35:56.355Z</time>
      </trkpt>
      <trkpt lat="46.79417" lon="-0.34432">
        <ele>166.53</ele>
        <time>2024-06-24T17:36:00.222Z</time>
      </trkpt>
      <trkpt lat="46.79414" lon="-0.34427">
        <ele>166.39</ele>
        <time>2024-06-24T17:36:04.090Z</time>
      </trkpt>
      <trkpt lat="46.79412" lon="-0.34423">
        <ele>166.26</ele>
        <time>2024-06-24T17:36:07.959Z</time>
      </trkpt>
      <trkpt lat="46.7941" lon="-0.34418">
        <ele>166.13</ele>
        <time>2024-06-24T17:36:11.828Z</time>
      </trkpt>
      <trkpt lat="46.79407" lon="-0.34413">
        <ele>166</ele>
        <time>2024-06-24T17:36:15.698Z</time>
      </trkpt>
      <trkpt lat="46.79404" lon="-0.34408">
        <ele>165.87</ele>
        <time>2024-06-24T17:36:19.569Z</time>
      </trkpt>
      <trkpt lat="46.79401" lon="-0.34403">
        <ele>165.74</ele>
        <time>2024-06-24T17:36:23.441Z</time>
      </trkpt>
      <trkpt lat="46.79398" lon="-0.34398">
        <ele>165.61</ele>
        <time>2024-06-24T17:36:27.314Z</time>
      </trkpt>
      <trkpt lat="46.79395" lon="-0.34394">
        <ele>165.48</ele>
        <time>2024-06-24T17:36:31.188Z</time>
      </trkpt>
      <trkpt lat="46.79393" lon="-0.3439">
        <ele>165.35</ele>
        <time>2024-06-24T17:36:35.063Z</time>
      </trkpt>
      <trkpt lat="46.7939" lon="-0.34386">
        <ele>165.22</ele>
        <time>2024-06-24T17:36:38.938Z</time>
      </trkpt>
      <trkpt lat="46.79387" lon="-0.34383">
        <ele>165.09</ele>
        <time>2024-06-24T17:36:42.814Z</time>
      </trkpt>
      <trkpt lat="46.79384" lon="-0.34379">
        <ele>164.96</ele>
        <time>2024-06-24T17:36:46.691Z</time>
      </trkpt>
      <trkpt lat="46.79381" lon="-0.34374">
        <ele>164.84</ele>
        <time>2024-06-24T17:36:50.569Z</time>
      </trkpt>
      <trkpt lat="46.79378" lon="-0.3437">
        <ele>164.72</ele>
        <time>2024-06-24T17:36:54.448Z</time>
      </trkpt>
      <trkpt lat="46.79375" lon="-0.34367">
        <ele>164.61</ele>
        <time>2024-06-24T17:36:58.327Z</time>
      </trkpt>
      <trkpt lat="46.79372" lon="-0.34362">
        <ele>164.5</ele>
        <time>2024-06-24T17:37:02.207Z</time>
      </trkpt>
      <trkpt lat="46.79368" lon="-0.34358">
        <ele>164.39</ele>
        <time>2024-06-24T17:37:06.088Z</time>
      </trkpt>
      <trkpt lat="46.79365" lon="-0.34354">
        <ele>164.28</ele>
        <time>2024-06-24T17:37:09.970Z</time>
      </trkpt>
      <trkpt lat="46.79362" lon="-0.3435">
        <ele>164.18</ele>
        <time>2024-06-24T17:37:13.853Z</time>
      </trkpt>
      <trkpt lat="46.79359" lon="-0.34345">
        <ele>164.08</ele>
        <time>2024-06-24T17:37:17.737Z</time>
      </trkpt>
      <trkpt lat="46.79355" lon="-0.34341">
        <ele>163.99</ele>
        <time>2024-06-24T17:37:21.622Z</time>
      </trkpt>
      <trkpt lat="46.79352" lon="-0.34337">
        <ele>163.9</ele>
        <time>2024-06-24T17:37:25.508Z</time>
      </trkpt>
      <trkpt lat="46.79348" lon="-0.34332">
        <ele>163.82</ele>
        <time>2024-06-24T17:37:29.394Z</time>
      </trkpt>
      <trkpt lat="46.79344" lon="-0.34329">
        <ele>163.74</ele>
        <time>2024-06-24T17:37:33.281Z</time>
      </trkpt>
      <trkpt lat="46.79341" lon="-0.34325">
        <ele>163.67</ele>
        <time>2024-06-24T17:37:37.169Z</time>
      </trkpt>
      <trkpt lat="46.79337" lon="-0.34321">
        <ele>163.59</ele>
        <time>2024-06-24T17:37:41.058Z</time>
      </trkpt>
      <trkpt lat="46.79333" lon="-0.34317">
        <ele>163.52</ele>
        <time>2024-06-24T17:37:44.948Z</time>
      </trkpt>
      <trkpt lat="46.79329" lon="-0.34313">
        <ele>163.45</ele>
        <time>2024-06-24T17:37:48.839Z</time>
      </trkpt>
      <trkpt lat="46.79326" lon="-0.3431">
        <ele>163.39</ele>
        <time>2024-06-24T17:37:52.731Z</time>
      </trkpt>
      <trkpt lat="46.79322" lon="-0.34306">
        <ele>163.33</ele>
        <time>2024-06-24T17:37:56.624Z</time>
      </trkpt>
      <trkpt lat="46.79319" lon="-0.34302">
        <ele>163.28</ele>
        <time>2024-06-24T17:38:00.518Z</time>
      </trkpt>
      <trkpt lat="46.79314" lon="-0.34298">
        <ele>163.23</ele>
        <time>2024-06-24T17:38:04.413Z</time>
      </trkpt>
      <trkpt lat="46.79311" lon="-0.34294">
        <ele>163.19</ele>
        <time>2024-06-24T17:38:08.309Z</time>
      </trkpt>
      <trkpt lat="46.79307" lon="-0.34291">
        <ele>163.15</ele>
        <time>2024-06-24T17:38:12.205Z</time>
      </trkpt>
      <trkpt lat="46.79303" lon="-0.34286">
        <ele>163.12</ele>
        <time>2024-06-24T17:38:16.103Z</time>
      </trkpt>
      <trkpt lat="46.79299" lon="-0.34283">
        <ele>163.09</ele>
        <time>2024-06-24T17:38:20.001Z</time>
      </trkpt>
      <trkpt lat="46.79295" lon="-0.34279">
        <ele>163.06</ele>
        <time>2024-06-24T17:38:23.900Z</time>
      </trkpt>
      <trkpt lat="46.7929" lon="-0.34275">
        <ele>163.04</ele>
        <time>2024-06-24T17:38:27.800Z</time>
      </trkpt>
      <trkpt lat="46.79287" lon="-0.34271">
        <ele>163.03</ele>
        <time>2024-06-24T17:38:31.701Z</time>
      </trkpt>
      <trkpt lat="46.79284" lon="-0.34268">
        <ele>163.02</ele>
        <time>2024-06-24T17:38:35.603Z</time>
      </trkpt>
      <trkpt lat="46.7928" lon="-0.34264">
        <ele>163.02</ele>
        <time>2024-06-24T17:38:39.506Z</time>
      </trkpt>
      <trkpt lat="46.79276" lon="-0.3426">
        <ele>163.02</ele>
        <time>2024-06-24T17:38:43.410Z</time>
      </trkpt>
      <trkpt lat="46.79272" lon="-0.34256">
        <ele>163.03</ele>
        <time>2024-06-24T17:38:47.315Z</time>
      </trkpt>
      <trkpt lat="46.79268" lon="-0.34252">
        <ele>163.04</ele>
        <time>2024-06-24T17:38:51.221Z</time>
      </trkpt>
      <trkpt lat="46.79264" lon="-0.34249">
        <ele>163.06</ele>
        <time>2024-06-24T17:38:55.128Z</time>
      </trkpt>
      <trkpt lat="46.7926" lon="-0.34245">
        <ele>163.08</ele>
        <time>2024-06-24T17:38:59.036Z</time>
      </trkpt>
      <trkpt lat="46.79256" lon="-0.34242">
        <ele>163.11</ele>
        <time>2024-06-24T17:39:02.945Z</time>
      </trkpt>
      <trkpt lat="46.79252" lon="-0.34239">
        <ele>163.14</ele>
        <time>2024-06-24T17:39:06.855Z</time>
      </trkpt>
      <trkpt lat="46.79249" lon="-0.34235">
        <ele>163.17</ele>
        <time>2024-06-24T17:39:10.766Z</time>
      </trkpt>
      <trkpt lat="46.79247" lon="-0.3423">
        <ele>163.21</ele>
        <time>2024-06-24T17:39:14.677Z</time>
      </trkpt>
      <trkpt lat="46.79245" lon="-0.34224">
        <ele>163.25</ele>
        <time>2024-06-24T17:39:18.589Z</time>
      </trkpt>
      <trkpt lat="46.79244" lon="-0.34219">
        <ele>163.3</ele>
        <time>2024-06-24T17:39:22.502Z</time>
      </trkpt>
      <trkpt lat="46.79243" lon="-0.34212">
        <ele>163.35</ele>
        <time>2024-06-24T17:39:26.416Z</time>
      </trkpt>
      <trkpt lat="46.79243" lon="-0.34205">
        <ele>163.41</ele>
        <time>2024-06-24T17:39:30.331Z</time>
      </trkpt>
      <trkpt lat="46.79242" lon="-0.34199">
        <ele>163.46</ele>
        <time>2024-06-24T17:39:34.247Z</time>
      </trkpt>
      <trkpt lat="46.79241" lon="-0.34193">
        <ele>163.51</ele>
        <time>2024-06-24T17:39:38.164Z</time>
      </trkpt>
      <trkpt lat="46.7924" lon="-0.34186">
        <ele>163.57</ele>
        <time>2024-06-24T17:39:42.082Z</time>
      </trkpt>
      <trkpt lat="46.79239" lon="-0.34179">
        <ele>163.63</ele>
        <time>2024-06-24T17:39:46.000Z</time>
      </trkpt>
      <trkpt lat="46.79237" lon="-0.34172">
        <ele>163.69</ele>
        <time>2024-06-24T17:39:49.920Z</time>
      </trkpt>
      <trkpt lat="46.79236" lon="-0.34165">
        <ele>163.75</ele>
        <time>2024-06-24T17:39:53.840Z</time>
      </trkpt>
      <trkpt lat="46.79235" lon="-0.34159">
        <ele>163.82</ele>
        <time>2024-06-24T17:39:57.761Z</time>
      </trkpt>
      <trkpt lat="46.79234" lon="-0.34152">
        <ele>163.88</ele>
        <time>2024-06-24T17:40:01.683Z</time>
      </trkpt>
      <trkpt lat="46.79234" lon="-0.34146">
        <ele>163.95</ele>
        <time>2024-06-24T17:40:05.606Z</time>
      </trkpt>
      <trkpt lat="46.79233" lon="-0.3414">
        <ele>164.01</ele>
        <time>2024-06-24T17:40:09.530Z</time>
      </trkpt>
      <trkpt lat="46.79231" lon="-0.34133">
        <ele>164.07</ele>
        <time>2024-06-24T17:40:13.455Z</time>
      </trkpt>
      <trkpt lat="46.7923" lon="-0.34128">
        <ele>164.13</ele>
        <time>2024-06-24T17:40:17.381Z</time>
      </trkpt>
      <trkpt lat="46.79229" lon="-0.34123">
        <ele>164.19</ele>
        <time>2024-06-24T17:40:21.308Z</time>
      </trkpt>
      <trkpt lat="46.79227" lon="-0.34118">
        <ele>164.25</ele>
        <time>2024-06-24T17:40:25.235Z</time>
      </trkpt>
      <trkpt lat="46.79224" lon="-0.34116">
        <ele>164.31</ele>
        <time>2024-06-24T17:40:29.163Z</time>
      </trkpt>
      <trkpt lat="46.7922" lon="-0.34113">
        <ele>164.36</ele>
        <time>2024-06-24T17:40:33.092Z</time>
      </trkpt>
      <trkpt lat="46.79217" lon="-0.34113">
        <ele>164.4</ele>
        <time>2024-06-24T17:40:37.021Z</time>
      </trkpt>
      <trkpt lat="46.79214" lon="-0.34114">
        <ele>164.45</ele>
        <time>2024-06-24T17:40:40.951Z</time>
      </trkpt>
      <trkpt lat="46.79211" lon="-0.34117">
        <ele>164.49</ele>
        <time>2024-06-24T17:40:44.882Z</time>
      </trkpt>
      <trkpt lat="46.79208" lon="-0.34118">
        <ele>164.53</ele>
        <time>2024-06-24T17:40:48.813Z</time>
      </trkpt>
      <trkpt lat="46.79204" lon="-0.3412">
        <ele>164.57</ele>
        <time>2024-06-24T17:40:52.745Z</time>
      </trkpt>
      <trkpt lat="46.792" lon="-0.34122">
        <ele>164.61</ele>
        <time>2024-06-24T17:40:56.678Z</time>
      </trkpt>
      <trkpt lat="46.79196" lon="-0.34125">
        <ele>164.65</ele>
        <time>2024-06-24T17:41:00.612Z</time>
      </trkpt>
      <trkpt lat="46.79192" lon="-0.34127">
        <ele>164.68</ele>
        <time>2024-06-24T17:41:04.547Z</time>
      </trkpt>
      <trkpt lat="46.79188" lon="-0.34129">
        <ele>164.72</ele>
        <time>2024-06-24T17:41:08.483Z</time>
      </trkpt>
      <trkpt lat="46.79183" lon="-0.34132">
        <ele>164.75</ele>
        <time>2024-06-24T17:41:12.420Z</time>
      </trkpt>
      <trkpt lat="46.79179" lon="-0.34134">
        <ele>164.78</ele>
        <time>2024-06-24T17:41:16.358Z</time>
      </trkpt>
      <trkpt lat="46.79175" lon="-0.34136">
        <ele>164.8</ele>
        <time>2024-06-24T17:41:20.296Z</time>
      </trkpt>
      <trkpt lat="46.79171" lon="-0.34138">
        <ele>164.83</ele>
        <time>2024-06-24T17:41:24.235Z</time>
      </trkpt>
      <trkpt lat="46.79167" lon="-0.3414">
        <ele>164.85</ele>
        <time>2024-06-24T17:41:28.175Z</time>
      </trkpt>
      <trkpt lat="46.79163" lon="-0.34142">
        <ele>164.88</ele>
        <time>2024-06-24T17:41:32.116Z</time>
      </trkpt>
      <trkpt lat="46.79158" lon="-0.34144">
        <ele>164.9</ele>
        <time>2024-06-24T17:41:36.058Z</time>
      </trkpt>
      <trkpt lat="46.79153" lon="-0.34147">
        <ele>164.91</ele>
        <time>2024-06-24T17:41:40.001Z</time>
      </trkpt>
      <trkpt lat="46.79149" lon="-0.34149">
        <ele>164.93</ele>
        <time>2024-06-24T17:41:43.945Z</time>
      </trkpt>
      <trkpt lat="46.79144" lon="-0.34152">
        <ele>164.94</ele>
        <time>2024-06-24T17:41:47.890Z</time>
      </trkpt>
      <trkpt lat="46.7914" lon="-0.34154">
        <ele>164.95</ele>
        <time>2024-06-24T17:41:51.836Z</time>
      </trkpt>
      <trkpt lat="46.79135" lon="-0.34156">
        <ele>164.95</ele>
        <time>2024-06-24T17:41:55.783Z</time>
      </trkpt>
      <trkpt lat="46.79131" lon="-0.34158">
        <ele>164.95</ele>
        <time>2024-06-24T17:41:59.731Z</time>
      </trkpt>
      <trkpt lat="46.79127" lon="-0.34161">
        <ele>164.95</ele>
        <time>2024-06-24T17:42:03.680Z</time>
      </trkpt>
      <trkpt lat="46.79122" lon="-0.34163">
        <ele>164.95</ele>
        <time>2024-06-24T17:42:07.630Z</time>
      </trkpt>
      <trkpt lat="46.79118" lon="-0.34166">
        <ele>164.94</ele>
        <time>2024-06-24T17:42:11.581Z</time>
      </trkpt>
      <trkpt lat="46.79113" lon="-0.34169">
        <ele>164.93</ele>
        <time>2024-06-24T17:42:15.533Z</time>
      </trkpt>
      <trkpt lat="46.79109" lon="-0.34171">
        <ele>164.92</ele>
        <time>2024-06-24T17:42:19.486Z</time>
      </trkpt>
      <trkpt lat="46.79105" lon="-0.34173">
        <ele>164.9</ele>
        <time>2024-06-24T17:42:23.439Z</time>
      </trkpt>
      <trkpt lat="46.791" lon="-0.34175">
        <ele>164.87</ele>
        <time>2024-06-24T17:42:27.393Z</time>
      </trkpt>
      <trkpt lat="46.79096" lon="-0.34177">
        <ele>164.85</ele>
        <time>2024-06-24T17:42:31.348Z</time>
      </trkpt>
      <trkpt lat="46.79091" lon="-0.34178">
        <ele>164.82</ele>
        <time>2024-06-24T17:42:35.304Z</time>
      </trkpt>
      <trkpt lat="46.79087" lon="-0.3418">
        <ele>164.79</ele>
        <time>2024-06-24T17:42:39.261Z</time>
      </trkpt>
      <trkpt lat="46.79083" lon="-0.34181">
        <ele>164.75</ele>
        <time>2024-06-24T17:42:43.219Z</time>
      </trkpt>
      <trkpt lat="46.79079" lon="-0.34183">
        <ele>164.72</ele>
        <time>2024-06-24T17:42:47.178Z</time>
      </trkpt>
      <trkpt lat="46.79074" lon="-0.34184">
        <ele>164.68</ele>
        <time>2024-06-24T17:42:51.138Z</time>
      </trkpt>
      <trkpt lat="46.79069" lon="-0.34186">
        <ele>164.63</ele>
        <time>2024-06-24T17:42:55.099Z</time>
      </trkpt>
      <trkpt lat="46.79065" lon="-0.34189">
        <ele>164.59</ele>
        <time>2024-06-24T17:42:59.061Z</time>
      </trkpt>
      <trkpt lat="46.7906" lon="-0.34191">
        <ele>164.53</ele>
        <time>2024-06-24T17:43:03.024Z</time>
      </trkpt>
      <trkpt lat="46.79055" lon="-0.34193">
        <ele>164.48</ele>
        <time>2024-06-24T17:43:06.988Z</time>
      </trkpt>
      <trkpt lat="46.7905" lon="-0.34196">
        <ele>164.42</ele>
        <time>2024-06-24T17:43:10.953Z</time>
      </trkpt>
      <trkpt lat="46.79044" lon="-0.34199">
        <ele>164.36</ele>
        <time>2024-06-24T17:43:14.919Z</time>
      </trkpt>
      <trkpt lat="46.79039" lon="-0.34202">
        <ele>164.29</ele>
        <time>2024-06-24T17:43:18.886Z</time>
      </trkpt>
      <trkpt lat="46.79033" lon="-0.34205">
        <ele>164.22</ele>
        <time>2024-06-24T17:43:22.854Z</time>
      </trkpt>
      <trkpt lat="46.79028" lon="-0.34207">
        <ele>164.14</ele>
        <time>2024-06-24T17:43:26.823Z</time>
      </trkpt>
      <trkpt lat="46.79023" lon="-0.34208">
        <ele>164.06</ele>
        <time>2024-06-24T17:43:30.793Z</time>
      </trkpt>
      <trkpt lat="46.79019" lon="-0.34209">
        <ele>163.97</ele>
        <time>2024-06-24T17:43:34.764Z</time>
      </trkpt>
      <trkpt lat="46.79014" lon="-0.34209">
        <ele>163.88</ele>
        <time>2024-06-24T17:43:38.736Z</time>
      </trkpt>
      <trkpt lat="46.79009" lon="-0.34207">
        <ele>163.78</ele>
        <time>2024-06-24T17:43:42.709Z</time>
      </trkpt>
      <trkpt lat="46.79005" lon="-0.34205">
        <ele>163.68</ele>
        <time>2024-06-24T17:43:46.683Z</time>
      </trkpt>
      <trkpt lat="46.79001" lon="-0.34202">
        <ele>163.58</ele>
        <time>2024-06-24T17:43:50.658Z</time>
      </trkpt>
      <trkpt lat="46.78996" lon="-0.34199">
        <ele>163.47</ele>
        <time>2024-06-24T17:43:54.634Z</time>
      </trkpt>
      <trkpt lat="46.78991" lon="-0.34194">
        <ele>163.36</ele>
        <time>2024-06-24T17:43:58.611Z</time>
      </trkpt>
      <trkpt lat="46.78986" lon="-0.3419">
        <ele>163.24</ele>
        <time>2024-06-24T17:44:02.589Z</time>
      </trkpt>
      <trkpt lat="46.78981" lon="-0.34185">
        <ele>163.13</ele>
        <time>2024-06-24T17:44:06.569Z</time>
      </trkpt>
      <trkpt lat="46.78976" lon="-0.3418">
        <ele>163.01</ele>
        <time>2024-06-24T17:44:10.550Z</time>
      </trkpt>
      <trkpt lat="46.78971" lon="-0.34174">
        <ele>162.88</ele>
        <time>2024-06-24T17:44:14.532Z</time>
      </trkpt>
      <trkpt lat="46.78967" lon="-0.34169">
        <ele>162.75</ele>
        <time>2024-06-24T17:44:18.515Z</time>
      </trkpt>
      <trkpt lat="46.78962" lon="-0.34163">
        <ele>162.62</ele>
        <time>2024-06-24T17:44:22.500Z</time>
      </trkpt>
      <trkpt lat="46.78957" lon="-0.34156">
        <ele>162.48</ele>
        <time>2024-06-24T17:44:26.486Z</time>
      </trkpt>
      <trkpt lat="46.78953" lon="-0.3415">
        <ele>162.35</ele>
        <time>2024-06-24T17:44:30.473Z</time>
      </trkpt>
      <trkpt lat="46.78948" lon="-0.34144">
        <ele>162.21</ele>
        <time>2024-06-24T17:44:34.461Z</time>
      </trkpt>
      <trkpt lat="46.78944" lon="-0.34138">
        <ele>162.06</ele>
        <time>2024-06-24T17:44:38.451Z</time>
      </trkpt>
      <trkpt lat="46.7894" lon="-0.34132">
        <ele>161.92</ele>
        <time>2024-06-24T17:44:42.442Z</time>
      </trkpt>
      <trkpt lat="46.78936" lon="-0.34126">
        <ele>161.77</ele>
        <time>2024-06-24T17:44:46.434Z</time>
      </trkpt>
      <trkpt lat="46.78933" lon="-0.34118">
        <ele>161.62</ele>
        <time>2024-06-24T17:44:50.427Z</time>
      </trkpt>
      <trkpt lat="46.78931" lon="-0.34109">
        <ele>161.47</ele>
        <time>2024-06-24T17:44:54.421Z</time>
      </trkpt>
      <trkpt lat="46.78929" lon="-0.34101">
        <ele>161.32</ele>
        <time>2024-06-24T17:44:58.416Z</time>
      </trkpt>
      <trkpt lat="46.78929" lon="-0.34093">
        <ele>161.18</ele>
        <time>2024-06-24T17:45:02.413Z</time>
      </trkpt>
      <trkpt lat="46.78929" lon="-0.34084">
        <ele>161.04</ele>
        <time>2024-06-24T17:45:06.411Z</time>
      </trkpt>
      <trkpt lat="46.78929" lon="-0.34076">
        <ele>160.89</ele>
        <time>2024-06-24T17:45:10.410Z</time>
      </trkpt>
      <trkpt lat="46.78929" lon="-0.34068">
        <ele>160.75</ele>
        <time>2024-06-24T17:45:14.410Z</time>
      </trkpt>
      <trkpt lat="46.7893" lon="-0.34061">
        <ele>160.6</ele>
        <time>2024-06-24T17:45:18.411Z</time>
      </trkpt>
      <trkpt lat="46.7893" lon="-0.34053">
        <ele>160.44</ele>
        <time>2024-06-24T17:45:22.413Z</time>
      </trkpt>
      <trkpt lat="46.78931" lon="-0.34045">
        <ele>160.29</ele>
        <time>2024-06-24T17:45:26.416Z</time>
      </trkpt>
      <trkpt lat="46.78932" lon="-0.34037">
        <ele>160.13</ele>
        <time>2024-06-24T17:45:30.420Z</time>
      </trkpt>
      <trkpt lat="46.78933" lon="-0.3403">
        <ele>159.97</ele>
        <time>2024-06-24T17:45:34.425Z</time>
      </trkpt>
      <trkpt lat="46.78934" lon="-0.34024">
        <ele>159.81</ele>
        <time>2024-06-24T17:45:38.431Z</time>
      </trkpt>
      <trkpt lat="46.78933" lon="-0.34018">
        <ele>159.64</ele>
        <time>2024-06-24T17:45:42.438Z</time>
      </trkpt>
      <trkpt lat="46.78929" lon="-0.34012">
        <ele>159.46</ele>
        <time>2024-06-24T17:45:46.446Z</time>
      </trkpt>
      <trkpt lat="46.78924" lon="-0.34011">
        <ele>159.28</ele>
        <time>2024-06-24T17:45:50.455Z</time>
      </trkpt>
      <trkpt lat="46.7892" lon="-0.34013">
        <ele>159.09</ele>
        <time>2024-06-24T17:45:54.465Z</time>
      </trkpt>
      <trkpt lat="46.78915" lon="-0.34015">
        <ele>158.9</ele>
        <time>2024-06-24T17:45:58.476Z</time>
      </trkpt>
      <trkpt lat="46.78909" lon="-0.34019">
        <ele>158.71</ele>
        <time>2024-06-24T17:46:02.488Z</time>
      </trkpt>
      <trkpt lat="46.78904" lon="-0.34022">
        <ele>158.52</ele>
        <time>2024-06-24T17:46:06.501Z</time>
      </trkpt>
      <trkpt lat="46.78898" lon="-0.34025">
        <ele>158.32</ele>
        <time>2024-06-24T17:46:10.516Z</time>
      </trkpt>
      <trkpt lat="46.78891" lon="-0.34028">
        <ele>158.12</ele>
        <time>2024-06-24T17:46:14.532Z</time>
      </trkpt>
      <trkpt lat="46.78885" lon="-0.34031">
        <ele>157.92</ele>
        <time>2024-06-24T17:46:18.549Z</time>
      </trkpt>
      <trkpt lat="46.78878" lon="-0.34034">
        <ele>157.71</ele>
        <time>2024-06-24T17:46:22.568Z</time>
      </trkpt>
      <trkpt lat="46.78871" lon="-0.34036">
        <ele>157.51</ele>
        <time>2024-06-24T17:46:26.588Z</time>
      </trkpt>
      <trkpt lat="46.78864" lon="-0.34037">
        <ele>157.3</ele>
        <time>2024-06-24T17:46:30.610Z</time>
      </trkpt>
      <trkpt lat="46.78856" lon="-0.34038">
        <ele>157.09</ele>
        <time>2024-06-24T17:46:34.633Z</time>
      </trkpt>
      <trkpt lat="46.78848" lon="-0.34039">
        <ele>156.87</ele>
        <time>2024-06-24T17:46:38.658Z</time>
      </trkpt>
      <trkpt lat="46.78841" lon="-0.34039">
        <ele>156.65</ele>
        <time>2024-06-24T17:46:42.684Z</time>
      </trkpt>
      <trkpt lat="46.78833" lon="-0.34039">
        <ele>156.42</ele>
        <time>2024-06-24T17:46:46.712Z</time>
      </trkpt>
      <trkpt lat="46.78825" lon="-0.34039">
        <ele>156.19</ele>
        <time>2024-06-24T17:46:50.741Z</time>
      </trkpt>
      <trkpt lat="46.78818" lon="-0.34038">
        <ele>155.96</ele>
        <time>2024-06-24T17:46:54.772Z</time>
      </trkpt>
      <trkpt lat="46.7881" lon="-0.34037">
        <ele>155.73</ele>
        <time>2024-06-24T17:46:58.804Z</time>
      </trkpt>
      <trkpt lat="46.78803" lon="-0.34036">
        <ele>155.5</ele>
        <time>2024-06-24T17:47:02.838Z</time>
      </trkpt>
      <trkpt lat="46.78795" lon="-0.34034">
        <ele>155.26</ele>
        <time>2024-06-24T17:47:06.874Z</time>
      </trkpt>
      <trkpt lat="46.78788" lon="-0.34033">
        <ele>155.02</ele>
        <time>2024-06-24T17:47:10.911Z</time>
      </trkpt>
      <trkpt lat="46.7878" lon="-0.34031">
        <ele>154.79</ele>
        <time>2024-06-24T17:47:14.950Z</time>
      </trkpt>
      <trkpt lat="46.78772" lon="-0.34029">
        <ele>154.56</ele>
        <time>2024-06-24T17:47:18.990Z</time>
      </trkpt>
      <trkpt lat="46.78764" lon="-0.34028">
        <ele>154.32</ele>
        <time>2024-06-24T17:47:23.032Z</time>
      </trkpt>
      <trkpt lat="46.78757" lon="-0.34026">
        <ele>154.09</ele>
        <time>2024-06-24T17:47:27.075Z</time>
      </trkpt>
      <trkpt lat="46.7875" lon="-0.34025">
        <ele>153.86</ele>
        <time>2024-06-24T17:47:31.120Z</time>
      </trkpt>
      <trkpt lat="46.78743" lon="-0.34023">
        <ele>153.62</ele>
        <time>2024-06-24T17:47:35.166Z</time>
      </trkpt>
      <trkpt lat="46.78736" lon="-0.34021">
        <ele>153.38</ele>
        <time>2024-06-24T17:47:39.214Z</time>
      </trkpt>
      <trkpt lat="46.78729" lon="-0.34019">
        <ele>153.14</ele>
        <time>2024-06-24T17:47:43.263Z</time>
      </trkpt>
      <trkpt lat="46.78723" lon="-0.34017">
        <ele>152.9</ele>
        <time>2024-06-24T17:47:47.313Z</time>
      </trkpt>
      <trkpt lat="46.78718" lon="-0.34016">
        <ele>152.66</ele>
        <time>2024-06-24T17:47:51.364Z</time>
      </trkpt>
      <trkpt lat="46.78714" lon="-0.34017">
        <ele>152.42</ele>
        <time>2024-06-24T17:47:55.416Z</time>
      </trkpt>
      <trkpt lat="46.78711" lon="-0.34018">
        <ele>152.19</ele>
        <time>2024-06-24T17:47:59.469Z</time>
      </trkpt>
      <trkpt lat="46.78709" lon="-0.3402">
        <ele>151.96</ele>
        <time>2024-06-24T17:48:03.522Z</time>
      </trkpt>
      <trkpt lat="46.78707" lon="-0.34021">
        <ele>151.73</ele>
        <time>2024-06-24T17:48:07.575Z</time>
      </trkpt>
      <trkpt lat="46.78706" lon="-0.34021">
        <ele>151.5</ele>
        <time>2024-06-24T17:48:11.629Z</time>
      </trkpt>
      <trkpt lat="46.78705" lon="-0.34022">
        <ele>151.27</ele>
        <time>2024-06-24T17:48:15.683Z</time>
      </trkpt>
      <trkpt lat="46.78703" lon="-0.34023">
        <ele>151.05</ele>
        <time>2024-06-24T17:48:19.737Z</time>
      </trkpt>
      <trkpt lat="46.78701" lon="-0.34024">
        <ele>150.82</ele>
        <time>2024-06-24T17:48:23.792Z</time>
      </trkpt>
      <trkpt lat="46.78699" lon="-0.34025">
        <ele>150.6</ele>
        <time>2024-06-24T17:48:27.847Z</time>
      </trkpt>
      <trkpt lat="46.78696" lon="-0.34026">
        <ele>150.38</ele>
        <time>2024-06-24T17:48:31.903Z</time>
      </trkpt>
      <trkpt lat="46.78693" lon="-0.34028">
        <ele>150.16</ele>
        <time>2024-06-24T17:48:35.960Z</time>
      </trkpt>
      <trkpt lat="46.78688" lon="-0.34029">
        <ele>149.94</ele>
        <time>2024-06-24T17:48:40.017Z</time>
      </trkpt>
      <trkpt lat="46.78684" lon="-0.34031">
        <ele>149.72</ele>
        <time>2024-06-24T17:48:44.075Z</time>
      </trkpt>
      <trkpt lat="46.78679" lon="-0.34033">
        <ele>149.5</ele>
        <time>2024-06-24T17:48:48.134Z</time>
      </trkpt>
      <trkpt lat="46.78673" lon="-0.34035">
        <ele>149.29</ele>
        <time>2024-06-24T17:48:52.195Z</time>
      </trkpt>
      <trkpt lat="46.78668" lon="-0.34038">
        <ele>149.08</ele>
        <time>2024-06-24T17:48:56.257Z</time>
      </trkpt>
      <trkpt lat="46.78662" lon="-0.34041">
        <ele>148.88</ele>
        <time>2024-06-24T17:49:00.320Z</time>
      </trkpt>
      <trkpt lat="46.78656" lon="-0.34046">
        <ele>148.68</ele>
        <time>2024-06-24T17:49:04.384Z</time>
      </trkpt>
      <trkpt lat="46.78651" lon="-0.34051">
        <ele>148.48</ele>
        <time>2024-06-24T17:49:08.449Z</time>
      </trkpt>
      <trkpt lat="46.78646" lon="-0.34056">
        <ele>148.28</ele>
        <time>2024-06-24T17:49:12.516Z</time>
      </trkpt>
      <trkpt lat="46.78641" lon="-0.34062">
        <ele>148.07</ele>
        <time>2024-06-24T17:49:16.584Z</time>
      </trkpt>
      <trkpt lat="46.78637" lon="-0.34069">
        <ele>147.87</ele>
        <time>2024-06-24T17:49:20.653Z</time>
      </trkpt>
      <trkpt lat="46.78632" lon="-0.34075">
        <ele>147.68</ele>
        <time>2024-06-24T17:49:24.724Z</time>
      </trkpt>
      <trkpt lat="46.78627" lon="-0.3408">
        <ele>147.49</ele>
        <time>2024-06-24T17:49:28.796Z</time>
      </trkpt>
      <trkpt lat="46.78622" lon="-0.34086">
        <ele>147.3</ele>
        <time>2024-06-24T17:49:32.869Z</time>
      </trkpt>
      <trkpt lat="46.78617" lon="-0.34091">
        <ele>147.12</ele>
        <time>2024-06-24T17:49:36.943Z</time>
      </trkpt>
      <trkpt lat="46.78613" lon="-0.34097">
        <ele>146.94</ele>
        <time>2024-06-24T17:49:41.018Z</time>
      </trkpt>
      <trkpt lat="46.78607" lon="-0.34102">
        <ele>146.76</ele>
        <time>2024-06-24T17:49:45.095Z</time>
      </trkpt>
      <trkpt lat="46.78603" lon="-0.34108">
        <ele>146.59</ele>
        <time>2024-06-24T17:49:49.173Z</time>
      </trkpt>
      <trkpt lat="46.78598" lon="-0.34115">
        <ele>146.43</ele>
        <time>2024-06-24T17:49:53.252Z</time>
      </trkpt>
      <trkpt lat="46.78594" lon="-0.34122">
        <ele>146.27</ele>
        <time>2024-06-24T17:49:57.333Z</time>
      </trkpt>
      <trkpt lat="46.7859" lon="-0.34129">
        <ele>146.12</ele>
        <time>2024-06-24T17:50:01.415Z</time>
      </trkpt>
      <trkpt lat="46.78586" lon="-0.34138">
        <ele>145.97</ele>
        <time>2024-06-24T17:50:05.498Z</time>
      </trkpt>
      <trkpt lat="46.78582" lon="-0.34145">
        <ele>145.81</ele>
        <time>2024-06-24T17:50:09.583Z</time>
      </trkpt>
      <trkpt lat="46.78578" lon="-0.34153">
        <ele>145.66</ele>
        <time>2024-06-24T17:50:13.669Z</time>
      </trkpt>
      <trkpt lat="46.78575" lon="-0.34161">
        <ele>145.52</ele>
        <time>2024-06-24T17:50:17.756Z</time>
      </trkpt>
      <trkpt lat="46.78571" lon="-0.34169">
        <ele>145.38</ele>
        <time>2024-06-24T17:50:21.844Z</time>
      </trkpt>
      <trkpt lat="46.78568" lon="-0.34177">
        <ele>145.24</ele>
        <time>2024-06-24T17:50:25.934Z</time>
      </trkpt>
      <trkpt lat="46.78564" lon="-0.34185">
        <ele>145.11</ele>
        <time>2024-06-24T17:50:30.025Z</time>
      </trkpt>
      <trkpt lat="46.78561" lon="-0.34193">
        <ele>144.98</ele>
        <time>2024-06-24T17:50:34.117Z</time>
      </trkpt>
      <trkpt lat="46.78558" lon="-0.34201">
        <ele>144.87</ele>
        <time>2024-06-24T17:50:38.211Z</time>
      </trkpt>
      <trkpt lat="46.78555" lon="-0.3421">
        <ele>144.76</ele>
        <time>2024-06-24T17:50:42.306Z</time>
      </trkpt>
      <trkpt lat="46.78551" lon="-0.34217">
        <ele>144.65</ele>
        <time>2024-06-24T17:50:46.402Z</time>
      </trkpt>
      <trkpt lat="46.78548" lon="-0.34226">
        <ele>144.55</ele>
        <time>2024-06-24T17:50:50.500Z</time>
      </trkpt>
      <trkpt lat="46.78545" lon="-0.34233">
        <ele>144.45</ele>
        <time>2024-06-24T17:50:54.599Z</time>
      </trkpt>
      <trkpt lat="46.78541" lon="-0.34242">
        <ele>144.36</ele>
        <time>2024-06-24T17:50:58.699Z</time>
      </trkpt>
      <trkpt lat="46.78538" lon="-0.3425">
        <ele>144.26</ele>
        <time>2024-06-24T17:51:02.800Z</time>
      </trkpt>
      <trkpt lat="46.78534" lon="-0.34259">
        <ele>144.17</ele>
        <time>2024-06-24T17:51:06.903Z</time>
      </trkpt>
      <trkpt lat="46.7853" lon="-0.34268">
        <ele>144.08</ele>
        <time>2024-06-24T17:51:11.007Z</time>
      </trkpt>
      <trkpt lat="46.78527" lon="-0.34276">
        <ele>144</ele>
        <time>2024-06-24T17:51:15.113Z</time>
      </trkpt>
      <trkpt lat="46.78523" lon="-0.34284">
        <ele>143.92</ele>
        <time>2024-06-24T17:51:19.220Z</time>
      </trkpt>
      <trkpt lat="46.7852" lon="-0.34292">
        <ele>143.85</ele>
        <time>2024-06-24T17:51:23.328Z</time>
      </trkpt>
      <trkpt lat="46.78516" lon="-0.343">
        <ele>143.78</ele>
        <time>2024-06-24T17:51:27.438Z</time>
      </trkpt>
      <trkpt lat="46.78513" lon="-0.34308">
        <ele>143.73</ele>
        <time>2024-06-24T17:51:31.549Z</time>
      </trkpt>
      <trkpt lat="46.78509" lon="-0.34316">
        <ele>143.67</ele>
        <time>2024-06-24T17:51:35.661Z</time>
      </trkpt>
      <trkpt lat="46.78506" lon="-0.34324">
        <ele>143.63</ele>
        <time>2024-06-24T17:51:39.774Z</time>
      </trkpt>
      <trkpt lat="46.78502" lon="-0.34332">
        <ele>143.59</ele>
        <time>2024-06-24T17:51:43.889Z</time>
      </trkpt>
      <trkpt lat="46.78499" lon="-0.3434">
        <ele>143.57</ele>
        <time>2024-06-24T17:51:48.005Z</time>
      </trkpt>
      <trkpt lat="46.78496" lon="-0.34348">
        <ele>143.55</ele>
        <time>2024-06-24T17:51:52.122Z</time>
      </trkpt>
      <trkpt lat="46.78493" lon="-0.34356">
        <ele>143.53</ele>
        <time>2024-06-24T17:51:56.241Z</time>
      </trkpt>
      <trkpt lat="46.7849" lon="-0.34364">
        <ele>143.52</ele>
        <time>2024-06-24T17:52:00.361Z</time>
      </trkpt>
      <trkpt lat="46.78487" lon="-0.34372">
        <ele>143.51</ele>
        <time>2024-06-24T17:52:04.482Z</time>
      </trkpt>
      <trkpt lat="46.78484" lon="-0.34379">
        <ele>143.51</ele>
        <time>2024-06-24T17:52:08.604Z</time>
      </trkpt>
      <trkpt lat="46.78481" lon="-0.34386">
        <ele>143.51</ele>
        <time>2024-06-24T17:52:12.727Z</time>
      </trkpt>
      <trkpt lat="46.78478" lon="-0.34394">
        <ele>143.52</ele>
        <time>2024-06-24T17:52:16.852Z</time>
      </trkpt>
      <trkpt lat="46.78474" lon="-0.34401">
        <ele>143.52</ele>
        <time>2024-06-24T17:52:20.978Z</time>
      </trkpt>
      <trkpt lat="46.7847" lon="-0.34407">
        <ele>143.53</ele>
        <time>2024-06-24T17:52:25.105Z</time>
      </trkpt>
      <trkpt lat="46.78466" lon="-0.34414">
        <ele>143.55</ele>
        <time>2024-06-24T17:52:29.233Z</time>
      </trkpt>
      <trkpt lat="46.78461" lon="-0.3442">
        <ele>143.57</ele>
        <time>2024-06-24T17:52:33.362Z</time>
      </trkpt>
      <trkpt lat="46.78457" lon="-0.34426">
        <ele>143.59</ele>
        <time>2024-06-24T17:52:37.493Z</time>
      </trkpt>
      <trkpt lat="46.78452" lon="-0.34432">
        <ele>143.61</ele>
        <time>2024-06-24T17:52:41.625Z</time>
      </trkpt>
      <trkpt lat="46.78448" lon="-0.34437">
        <ele>143.64</ele>
        <time>2024-06-24T17:52:45.758Z</time>
      </trkpt>
      <trkpt lat="46.78443" lon="-0.34443">
        <ele>143.67</ele>
        <time>2024-06-24T17:52:49.892Z</time>
      </trkpt>
      <trkpt lat="46.78439" lon="-0.34449">
        <ele>143.7</ele>
        <time>2024-06-24T17:52:54.027Z</time>
      </trkpt>
      <trkpt lat="46.78435" lon="-0.34455">
        <ele>143.73</ele>
        <time>2024-06-24T17:52:58.164Z</time>
      </trkpt>
      <trkpt lat="46.78431" lon="-0.3446">
        <ele>143.77</ele>
        <time>2024-06-24T17:53:02.302Z</time>
      </trkpt>
      <trkpt lat="46.78427" lon="-0.34466">
        <ele>143.82</ele>
        <time>2024-06-24T17:53:06.441Z</time>
      </trkpt>
      <trkpt lat="46.78423" lon="-0.34472">
        <ele>143.86</ele>
        <time>2024-06-24T17:53:10.581Z</time>
      </trkpt>
      <trkpt lat="46.78419" lon="-0.34476">
        <ele>143.91</ele>
        <time>2024-06-24T17:53:14.722Z</time>
      </trkpt>
      <trkpt lat="46.78415" lon="-0.34481">
        <ele>143.96</ele>
        <time>2024-06-24T17:53:18.864Z</time>
      </trkpt>
      <trkpt lat="46.78411" lon="-0.34487">
        <ele>144.02</ele>
        <time>2024-06-24T17:53:23.007Z</time>
      </trkpt>
      <trkpt lat="46.78407" lon="-0.34491">
        <ele>144.08</ele>
        <time>2024-06-24T17:53:27.151Z</time>
      </trkpt>
      <trkpt lat="46.78403" lon="-0.34496">
        <ele>144.14</ele>
        <time>2024-06-24T17:53:31.296Z</time>
      </trkpt>
      <trkpt lat="46.78399" lon="-0.34501">
        <ele>144.21</ele>
        <time>2024-06-24T17:53:35.442Z</time>
      </trkpt>
      <trkpt lat="46.78395" lon="-0.34506">
        <ele>144.28</ele>
        <time>2024-06-24T17:53:39.589Z</time>
      </trkpt>
      <trkpt lat="46.78391" lon="-0.34511">
        <ele>144.35</ele>
        <time>2024-06-24T17:53:43.737Z</time>
      </trkpt>
      <trkpt lat="46.78387" lon="-0.34516">
        <ele>144.43</ele>
        <time>2024-06-24T17:53:47.886Z</time>
      </trkpt>
      <trkpt lat="46.78384" lon="-0.34521">
        <ele>144.51</ele>
        <time>2024-06-24T17:53:52.036Z</time>
      </trkpt>
      <trkpt lat="46.7838" lon="-0.34525">
        <ele>144.59</ele>
        <time>2024-06-24T17:53:56.187Z</time>
      </trkpt>
      <trkpt lat="46.78377" lon="-0.34529">
        <ele>144.66</ele>
        <time>2024-06-24T17:54:00.339Z</time>
      </trkpt>
      <trkpt lat="46.78373" lon="-0.34533">
        <ele>144.74</ele>
        <time>2024-06-24T17:54:04.492Z</time>
      </trkpt>
      <trkpt lat="46.7837" lon="-0.34537">
        <ele>144.82</ele>
        <time>2024-06-24T17:54:08.646Z</time>
      </trkpt>
      <trkpt lat="46.78367" lon="-0.34541">
        <ele>144.9</ele>
        <time>2024-06-24T17:54:12.801Z</time>
      </trkpt>
      <trkpt lat="46.78363" lon="-0.34546">
        <ele>144.98</ele>
        <time>2024-06-24T17:54:16.957Z</time>
      </trkpt>
      <trkpt lat="46.7836" lon="-0.34551">
        <ele>145.06</ele>
        <time>2024-06-24T17:54:21.114Z</time>
      </trkpt>
      <trkpt lat="46.78357" lon="-0.34555">
        <ele>145.15</ele>
        <time>2024-06-24T17:54:25.271Z</time>
      </trkpt>
      <trkpt lat="46.78353" lon="-0.34559">
        <ele>145.23</ele>
        <time>2024-06-24T17:54:29.429Z</time>
      </trkpt>
      <trkpt lat="46.7835" lon="-0.34563">
        <ele>145.32</ele>
        <time>2024-06-24T17:54:33.588Z</time>
      </trkpt>
      <trkpt lat="46.78347" lon="-0.34567">
        <ele>145.41</ele>
        <time>2024-06-24T17:54:37.748Z</time>
      </trkpt>
      <trkpt lat="46.78344" lon="-0.34571">
        <ele>145.51</ele>
        <time>2024-06-24T17:54:41.909Z</time>
      </trkpt>
      <trkpt lat="46.78341" lon="-0.34575">
        <ele>145.6</ele>
        <time>2024-06-24T17:54:46.071Z</time>
      </trkpt>
      <trkpt lat="46.78337" lon="-0.34579">
        <ele>145.69</ele>
        <time>2024-06-24T17:54:50.234Z</time>
      </trkpt>
      <trkpt lat="46.78334" lon="-0.34583">
        <ele>145.79</ele>
        <time>2024-06-24T17:54:54.397Z</time>
      </trkpt>
      <trkpt lat="46.78332" lon="-0.34587">
        <ele>145.89</ele>
        <time>2024-06-24T17:54:58.561Z</time>
      </trkpt>
      <trkpt lat="46.78329" lon="-0.34591">
        <ele>146</ele>
        <time>2024-06-24T17:55:02.726Z</time>
      </trkpt>
      <trkpt lat="46.78326" lon="-0.34596">
        <ele>146.1</ele>
        <time>2024-06-24T17:55:06.892Z</time>
      </trkpt>
      <trkpt lat="46.78323" lon="-0.346">
        <ele>146.2</ele>
        <time>2024-06-24T17:55:11.059Z</time>
      </trkpt>
      <trkpt lat="46.7832" lon="-0.34604">
        <ele>146.31</ele>
        <time>2024-06-24T17:55:15.226Z</time>
      </trkpt>
      <trkpt lat="46.78317" lon="-0.34608">
        <ele>146.41</ele>
        <time>2024-06-24T17:55:19.394Z</time>
      </trkpt>
      <trkpt lat="46.78315" lon="-0.34612">
        <ele>146.51</ele>
        <time>2024-06-24T17:55:23.563Z</time>
      </trkpt>
      <trkpt lat="46.78312" lon="-0.34617">
        <ele>146.62</ele>
        <time>2024-06-24T17:55:27.733Z</time>
      </trkpt>
      <trkpt lat="46.7831" lon="-0.34621">
        <ele>146.72</ele>
        <time>2024-06-24T17:55:31.904Z</time>
      </trkpt>
      <trkpt lat="46.78307" lon="-0.34626">
        <ele>146.83</ele>
        <time>2024-06-24T17:55:36.075Z</time>
      </trkpt>
      <trkpt lat="46.78304" lon="-0.34631">
        <ele>146.94</ele>
        <time>2024-06-24T17:55:40.247Z</time>
      </trkpt>
      <trkpt lat="46.78302" lon="-0.34636">
        <ele>147.05</ele>
        <time>2024-06-24T17:55:44.420Z</time>
      </trkpt>
      <trkpt lat="46.78299" lon="-0.34642">
        <ele>147.15</ele>
        <time>2024-06-24T17:55:48.594Z</time>
      </trkpt>
      <trkpt lat="46.78296" lon="-0.34646">
        <ele>147.26</ele>
        <time>2024-06-24T17:55:52.769Z</time>
      </trkpt>
      <trkpt lat="46.78293" lon="-0.34651">
        <ele>147.37</ele>
        <time>2024-06-24T17:55:56.945Z</time>
      </trkpt>
      <trkpt lat="46.7829" lon="-0.34656">
        <ele>147.48</ele>
        <time>2024-06-24T17:56:01.122Z</time>
      </trkpt>
      <trkpt lat="46.78286" lon="-0.3466">
        <ele>147.59</ele>
        <time>2024-06-24T17:56:05.300Z</time>
      </trkpt>
      <trkpt lat="46.78283" lon="-0.34665">
        <ele>147.7</ele>
        <time>2024-06-24T17:56:09.479Z</time>
      </trkpt>
      <trkpt lat="46.78279" lon="-0.3467">
        <ele>147.81</ele>
        <time>2024-06-24T17:56:13.659Z</time>
      </trkpt>
      <trkpt lat="46.78275" lon="-0.34675">
        <ele>147.92</ele>
        <time>2024-06-24T17:56:17.840Z</time>
      </trkpt>
      <trkpt lat="46.78272" lon="-0.34679">
        <ele>148.03</ele>
        <time>2024-06-24T17:56:22.022Z</time>
      </trkpt>
      <trkpt lat="46.78268" lon="-0.34683">
        <ele>148.14</ele>
        <time>2024-06-24T17:56:26.205Z</time>
      </trkpt>
      <trkpt lat="46.78264" lon="-0.34687">
        <ele>148.24</ele>
        <time>2024-06-24T17:56:30.389Z</time>
      </trkpt>
      <trkpt lat="46.7826" lon="-0.34691">
        <ele>148.35</ele>
        <time>2024-06-24T17:56:34.574Z</time>
      </trkpt>
      <trkpt lat="46.78256" lon="-0.34696">
        <ele>148.46</ele>
        <time>2024-06-24T17:56:38.760Z</time>
      </trkpt>
      <trkpt lat="46.78252" lon="-0.347">
        <ele>148.58</ele>
        <time>2024-06-24T17:56:42.947Z</time>
      </trkpt>
      <trkpt lat="46.78248" lon="-0.34704">
        <ele>148.69</ele>
        <time>2024-06-24T17:56:47.134Z</time>
      </trkpt>
      <trkpt lat="46.78244" lon="-0.34709">
        <ele>148.8</ele>
        <time>2024-06-24T17:56:51.323Z</time>
      </trkpt>
      <trkpt lat="46.7824" lon="-0.34713">
        <ele>148.91</ele>
        <time>2024-06-24T17:56:55.513Z</time>
      </trkpt>
      <trkpt lat="46.78236" lon="-0.34718">
        <ele>149.02</ele>
        <time>2024-06-24T17:56:59.704Z</time>
      </trkpt>
      <trkpt lat="46.78232" lon="-0.34722">
        <ele>149.13</ele>
        <time>2024-06-24T17:57:03.896Z</time>
      </trkpt>
      <trkpt lat="46.78229" lon="-0.34727">
        <ele>149.24</ele>
        <time>2024-06-24T17:57:08.088Z</time>
      </trkpt>
      <trkpt lat="46.78225" lon="-0.34732">
        <ele>149.35</ele>
        <time>2024-06-24T17:57:12.281Z</time>
      </trkpt>
      <trkpt lat="46.78222" lon="-0.34736">
        <ele>149.46</ele>
        <time>2024-06-24T17:57:16.475Z</time>
      </trkpt>
      <trkpt lat="46.78218" lon="-0.3474">
        <ele>149.57</ele>
        <time>2024-06-24T17:57:20.670Z</time>
      </trkpt>
      <trkpt lat="46.78215" lon="-0.34744">
        <ele>149.68</ele>
        <time>2024-06-24T17:57:24.866Z</time>
      </trkpt>
      <trkpt lat="46.78211" lon="-0.34748">
        <ele>149.79</ele>
        <time>2024-06-24T17:57:29.063Z</time>
      </trkpt>
      <trkpt lat="46.78207" lon="-0.34753">
        <ele>149.9</ele>
        <time>2024-06-24T17:57:33.261Z</time>
      </trkpt>
      <trkpt lat="46.78203" lon="-0.34757">
        <ele>150</ele>
        <time>2024-06-24T17:57:37.460Z</time>
      </trkpt>
      <trkpt lat="46.78199" lon="-0.3476">
        <ele>150.11</ele>
        <time>2024-06-24T17:57:41.660Z</time>
      </trkpt>
      <trkpt lat="46.78195" lon="-0.34764">
        <ele>150.22</ele>
        <time>2024-06-24T17:57:45.861Z</time>
      </trkpt>
      <trkpt lat="46.78192" lon="-0.34768">
        <ele>150.32</ele>
        <time>2024-06-24T17:57:50.063Z</time>
      </trkpt>
      <trkpt lat="46.78188" lon="-0.34772">
        <ele>150.43</ele>
        <time>2024-06-24T17:57:54.266Z</time>
      </trkpt>
      <trkpt lat="46.78184" lon="-0.34777">
        <ele>150.54</ele>
        <time>2024-06-24T17:57:58.470Z</time>
      </trkpt>
      <trkpt lat="46.78181" lon="-0.3478">
        <ele>150.64</ele>
        <time>2024-06-24T17:58:02.675Z</time>
      </trkpt>
      <trkpt lat="46.78179" lon="-0.34783">
        <ele>150.74</ele>
        <time>2024-06-24T17:58:06.880Z</time>
      </trkpt>
      <trkpt lat="46.78176" lon="-0.34786">
        <ele>150.84</ele>
        <time>2024-06-24T17:58:11.086Z</time>
      </trkpt>
      <trkpt lat="46.78174" lon="-0.34788">
        <ele>150.94</ele>
        <time>2024-06-24T17:58:15.292Z</time>
      </trkpt>
      <trkpt lat="46.78172" lon="-0.34791">
        <ele>151.03</ele>
        <time>2024-06-24T17:58:19.499Z</time>
      </trkpt>
      <trkpt lat="46.7817" lon="-0.34794">
        <ele>151.12</ele>
        <time>2024-06-24T17:58:23.707Z</time>
      </trkpt>
      <trkpt lat="46.78167" lon="-0.34797">
        <ele>151.21</ele>
        <time>2024-06-24T17:58:27.915Z</time>
      </trkpt>
      <trkpt lat="46.78164" lon="-0.348">
        <ele>151.3</ele>
        <time>2024-06-24T17:58:32.124Z</time>
      </trkpt>
      <trkpt lat="46.78161" lon="-0.34803">
        <ele>151.39</ele>
        <time>2024-06-24T17:58:36.334Z</time>
      </trkpt>
      <trkpt lat="46.78158" lon="-0.34805">
        <ele>151.47</ele>
        <time>2024-06-24T17:58:40.544Z</time>
      </trkpt>
      <trkpt lat="46.78155" lon="-0.34809">
        <ele>151.56</ele>
        <time>2024-06-24T17:58:44.755Z</time>
      </trkpt>
      <trkpt lat="46.78152" lon="-0.34813">
        <ele>151.64</ele>
        <time>2024-06-24T17:58:48.967Z</time>
      </trkpt>
      <trkpt lat="46.78148" lon="-0.34817">
        <ele>151.72</ele>
        <time>2024-06-24T17:58:53.180Z</time>
      </trkpt>
      <trkpt lat="46.78145" lon="-0.3482">
        <ele>151.8</ele>
        <time>2024-06-24T17:58:57.394Z</time>
      </trkpt>
      <trkpt lat="46.78141" lon="-0.34824">
        <ele>151.87</ele>
        <time>2024-06-24T17:59:01.609Z</time>
      </trkpt>
      <trkpt lat="46.78137" lon="-0.34827">
        <ele>151.95</ele>
        <time>2024-06-24T17:59:05.824Z</time>
      </trkpt>
      <trkpt lat="46.78133" lon="-0.3483">
        <ele>152.02</ele>
        <time>2024-06-24T17:59:10.040Z</time>
      </trkpt>
      <trkpt lat="46.78129" lon="-0.34832">
        <ele>152.09</ele>
        <time>2024-06-24T17:59:14.257Z</time>
      </trkpt>
      <trkpt lat="46.78124" lon="-0.34834">
        <ele>152.16</ele>
        <time>2024-06-24T17:59:18.475Z</time>
      </trkpt>
      <trkpt lat="46.7812" lon="-0.34836">
        <ele>152.23</ele>
        <time>2024-06-24T17:59:22.694Z</time>
      </trkpt>
      <trkpt lat="46.78115" lon="-0.34838">
        <ele>152.3</ele>
        <time>2024-06-24T17:59:26.914Z</time>
      </trkpt>
      <trkpt lat="46.78111" lon="-0.34839">
        <ele>152.38</ele>
        <time>2024-06-24T17:59:31.135Z</time>
      </trkpt>
      <trkpt lat="46.78106" lon="-0.34839">
        <ele>152.44</ele>
        <time>2024-06-24T17:59:35.357Z</time>
      </trkpt>
      <trkpt lat="46.78101" lon="-0.3484">
        <ele>152.51</ele>
        <time>2024-06-24T17:59:39.580Z</time>
      </trkpt>
      <trkpt lat="46.78096" lon="-0.3484">
        <ele>152.58</ele>
        <time>2024-06-24T17:59:43.804Z</time>
      </trkpt>
      <trkpt lat="46.78092" lon="-0.34839">
        <ele>152.64</ele>
        <time>2024-06-24T17:59:48.029Z</time>
      </trkpt>
      <trkpt lat="46.78087" lon="-0.34839">
        <ele>152.71</ele>
        <time>2024-06-24T17:59:52.255Z</time>
      </trkpt>
      <trkpt lat="46.78083" lon="-0.34839">
        <ele>152.77</ele>
        <time>2024-06-24T17:59:56.482Z</time>
      </trkpt>
      <trkpt lat="46.78078" lon="-0.34838">
        <ele>152.84</ele>
        <time>2024-06-24T18:00:00.710Z</time>
      </trkpt>
      <trkpt lat="46.78073" lon="-0.34837">
        <ele>152.9</ele>
        <time>2024-06-24T18:00:04.939Z</time>
      </trkpt>
      <trkpt lat="46.78068" lon="-0.34836">
        <ele>152.97</ele>
        <time>2024-06-24T18:00:09.169Z</time>
      </trkpt>
      <trkpt lat="46.78064" lon="-0.34834">
        <ele>153.03</ele>
        <time>2024-06-24T18:00:13.400Z</time>
      </trkpt>
      <trkpt lat="46.78059" lon="-0.34832">
        <ele>153.1</ele>
        <time>2024-06-24T18:00:17.631Z</time>
      </trkpt>
      <trkpt lat="46.78055" lon="-0.3483">
        <ele>153.16</ele>
        <time>2024-06-24T18:00:21.863Z</time>
      </trkpt>
      <trkpt lat="46.7805" lon="-0.34827">
        <ele>153.23</ele>
        <time>2024-06-24T18:00:26.096Z</time>
      </trkpt>
      <trkpt lat="46.78046" lon="-0.34825">
        <ele>153.3</ele>
        <time>2024-06-24T18:00:30.330Z</time>
      </trkpt>
      <trkpt lat="46.78041" lon="-0.34823">
        <ele>153.37</ele>
        <time>2024-06-24T18:00:34.565Z</time>
      </trkpt>
      <trkpt lat="46.78037" lon="-0.34821">
        <ele>153.44</ele>
        <time>2024-06-24T18:00:38.801Z</time>
      </trkpt>
      <trkpt lat="46.78033" lon="-0.34819">
        <ele>153.51</ele>
        <time>2024-06-24T18:00:43.038Z</time>
      </trkpt>
      <trkpt lat="46.78028" lon="-0.34818">
        <ele>153.59</ele>
        <time>2024-06-24T18:00:47.276Z</time>
      </trkpt>
      <trkpt lat="46.78024" lon="-0.34817">
        <ele>153.66</ele>
        <time>2024-06-24T18:00:51.515Z</time>
      </trkpt>
      <trkpt lat="46.78019" lon="-0.34817">
        <ele>153.75</ele>
        <time>2024-06-24T18:00:55.755Z</time>
      </trkpt>
      <trkpt lat="46.78014" lon="-0.34817">
        <ele>153.83</ele>
        <time>2024-06-24T18:00:59.996Z</time>
      </trkpt>
      <trkpt lat="46.7801" lon="-0.34818">
        <ele>153.92</ele>
        <time>2024-06-24T18:01:04.238Z</time>
      </trkpt>
      <trkpt lat="46.78006" lon="-0.34819">
        <ele>154.01</ele>
        <time>2024-06-24T18:01:08.480Z</time>
      </trkpt>
      <trkpt lat="46.78002" lon="-0.34821">
        <ele>154.1</ele>
        <time>2024-06-24T18:01:12.723Z</time>
      </trkpt>
      <trkpt lat="46.77998" lon="-0.34822">
        <ele>154.2</ele>
        <time>2024-06-24T18:01:16.967Z</time>
      </trkpt>
      <trkpt lat="46.77993" lon="-0.34823">
        <ele>154.3</ele>
        <time>2024-06-24T18:01:21.212Z</time>
      </trkpt>
      <trkpt lat="46.77988" lon="-0.34824">
        <ele>154.4</ele>
        <time>2024-06-24T18:01:25.458Z</time>
      </trkpt>
      <trkpt lat="46.77984" lon="-0.34825">
        <ele>154.51</ele>
        <time>2024-06-24T18:01:29.705Z</time>
      </trkpt>
      <trkpt lat="46.77979" lon="-0.34826">
        <ele>154.61</ele>
        <time>2024-06-24T18:01:33.953Z</time>
      </trkpt>
      <trkpt lat="46.77975" lon="-0.34826">
        <ele>154.72</ele>
        <time>2024-06-24T18:01:38.202Z</time>
      </trkpt>
      <trkpt lat="46.77971" lon="-0.34827">
        <ele>154.83</ele>
        <time>2024-06-24T18:01:42.452Z</time>
      </trkpt>
      <trkpt lat="46.77967" lon="-0.34827">
        <ele>154.94</ele>
        <time>2024-06-24T18:01:46.702Z</time>
      </trkpt>
      <trkpt lat="46.77962" lon="-0.34828">
        <ele>155.05</ele>
        <time>2024-06-24T18:01:50.953Z</time>
      </trkpt>
      <trkpt lat="46.77957" lon="-0.34828">
        <ele>155.17</ele>
        <time>2024-06-24T18:01:55.205Z</time>
      </trkpt>
      <trkpt lat="46.77953" lon="-0.34828">
        <ele>155.29</ele>
        <time>2024-06-24T18:01:59.458Z</time>
      </trkpt>
      <trkpt lat="46.77948" lon="-0.34829">
        <ele>155.4</ele>
        <time>2024-06-24T18:02:03.712Z</time>
      </trkpt>
      <trkpt lat="46.77944" lon="-0.34829">
        <ele>155.52</ele>
        <time>2024-06-24T18:02:07.967Z</time>
      </trkpt>
      <trkpt lat="46.77939" lon="-0.3483">
        <ele>155.64</ele>
        <time>2024-06-24T18:02:12.223Z</time>
      </trkpt>
      <trkpt lat="46.77935" lon="-0.34831">
        <ele>155.77</ele>
        <time>2024-06-24T18:02:16.480Z</time>
      </trkpt>
      <trkpt lat="46.77931" lon="-0.34832">
        <ele>155.89</ele>
        <time>2024-06-24T18:02:20.738Z</time>
      </trkpt>
      <trkpt lat="46.77927" lon="-0.34833">
        <ele>156.02</ele>
        <time>2024-06-24T18:02:24.996Z</time>
      </trkpt>
      <trkpt lat="46.77923" lon="-0.34834">
        <ele>156.16</ele>
        <time>2024-06-24T18:02:29.255Z</time>
      </trkpt>
      <trkpt lat="46.77919" lon="-0.34834">
        <ele>156.3</ele>
        <time>2024-06-24T18:02:33.515Z</time>
      </trkpt>
      <trkpt lat="46.77915" lon="-0.34836">
        <ele>156.44</ele>
        <time>2024-06-24T18:02:37.776Z</time>
      </trkpt>
      <trkpt lat="46.7791" lon="-0.34837">
        <ele>156.59</ele>
        <time>2024-06-24T18:02:42.038Z</time>
      </trkpt>
      <trkpt lat="46.77906" lon="-0.34838">
        <ele>156.73</ele>
        <time>2024-06-24T18:02:46.301Z</time>
      </trkpt>
      <trkpt lat="46.77902" lon="-0.34838">
        <ele>156.88</ele>
        <time>2024-06-24T18:02:50.564Z</time>
      </trkpt>
      <trkpt lat="46.77897" lon="-0.3484">
        <ele>157.04</ele>
        <time>2024-06-24T18:02:54.828Z</time>
      </trkpt>
      <trkpt lat="46.77893" lon="-0.3484">
        <ele>157.19</ele>
        <time>2024-06-24T18:02:59.093Z</time>
      </trkpt>
      <trkpt lat="46.7789" lon="-0.34841">
        <ele>157.34</ele>
        <time>2024-06-24T18:03:03.359Z</time>
      </trkpt>
      <trkpt lat="46.77886" lon="-0.34843">
        <ele>157.5</ele>
        <time>2024-06-24T18:03:07.626Z</time>
      </trkpt>
      <trkpt lat="46.77881" lon="-0.34844">
        <ele>157.65</ele>
        <time>2024-06-24T18:03:11.894Z</time>
      </trkpt>
      <trkpt lat="46.77877" lon="-0.34846">
        <ele>157.81</ele>
        <time>2024-06-24T18:03:16.162Z</time>
      </trkpt>
      <trkpt lat="46.77874" lon="-0.34848">
        <ele>157.98</ele>
        <time>2024-06-24T18:03:20.431Z</time>
      </trkpt>
      <trkpt lat="46.7787" lon="-0.3485">
        <ele>158.14</ele>
        <time>2024-06-24T18:03:24.701Z</time>
      </trkpt>
      <trkpt lat="46.77866" lon="-0.34852">
        <ele>158.3</ele>
        <time>2024-06-24T18:03:28.972Z</time>
      </trkpt>
      <trkpt lat="46.77862" lon="-0.34854">
        <ele>158.47</ele>
        <time>2024-06-24T18:03:33.244Z</time>
      </trkpt>
      <trkpt lat="46.77857" lon="-0.34856">
        <ele>158.64</ele>
        <time>2024-06-24T18:03:37.517Z</time>
      </trkpt>
      <trkpt lat="46.77853" lon="-0.34857">
        <ele>158.81</ele>
        <time>2024-06-24T18:03:41.791Z</time>
      </trkpt>
      <trkpt lat="46.77848" lon="-0.34857">
        <ele>158.98</ele>
        <time>2024-06-24T18:03:46.066Z</time>
      </trkpt>
      <trkpt lat="46.77844" lon="-0.34858">
        <ele>159.16</ele>
        <time>2024-06-24T18:03:50.341Z</time>
      </trkpt>
      <trkpt lat="46.7784" lon="-0.34858">
        <ele>159.34</ele>
        <time>2024-06-24T18:03:54.617Z</time>
      </trkpt>
      <trkpt lat="46.77836" lon="-0.34859">
        <ele>159.51</ele>
        <time>2024-06-24T18:03:58.894Z</time>
      </trkpt>
      <trkpt lat="46.77832" lon="-0.34859">
        <ele>159.69</ele>
        <time>2024-06-24T18:04:03.172Z</time>
      </trkpt>
      <trkpt lat="46.77829" lon="-0.3486">
        <ele>159.87</ele>
        <time>2024-06-24T18:04:07.450Z</time>
      </trkpt>
      <trkpt lat="46.77825" lon="-0.3486">
        <ele>160.05</ele>
        <time>2024-06-24T18:04:11.729Z</time>
      </trkpt>
      <trkpt lat="46.77821" lon="-0.3486">
        <ele>160.23</ele>
        <time>2024-06-24T18:04:16.009Z</time>
      </trkpt>
      <trkpt lat="46.77817" lon="-0.3486">
        <ele>160.41</ele>
        <time>2024-06-24T18:04:20.290Z</time>
      </trkpt>
      <trkpt lat="46.77813" lon="-0.3486">
        <ele>160.59</ele>
        <time>2024-06-24T18:04:24.572Z</time>
      </trkpt>
      <trkpt lat="46.77809" lon="-0.34861">
        <ele>160.78</ele>
        <time>2024-06-24T18:04:28.854Z</time>
      </trkpt>
      <trkpt lat="46.77806" lon="-0.34861">
        <ele>160.98</ele>
        <time>2024-06-24T18:04:33.137Z</time>
      </trkpt>
      <trkpt lat="46.77802" lon="-0.3486">
        <ele>161.17</ele>
        <time>2024-06-24T18:04:37.421Z</time>
      </trkpt>
      <trkpt lat="46.77799" lon="-0.3486">
        <ele>161.36</ele>
        <time>2024-06-24T18:04:41.705Z</time>
      </trkpt>
      <trkpt lat="46.77795" lon="-0.3486">
        <ele>161.56</ele>
        <time>2024-06-24T18:04:45.990Z</time>
      </trkpt>
      <trkpt lat="46.77792" lon="-0.34859">
        <ele>161.76</ele>
        <time>2024-06-24T18:04:50.276Z</time>
      </trkpt>
      <trkpt lat="46.77788" lon="-0.34859">
        <ele>161.96</ele>
        <time>2024-06-24T18:04:54.563Z</time>
      </trkpt>
      <trkpt lat="46.77785" lon="-0.34859">
        <ele>162.16</ele>
        <time>2024-06-24T18:04:58.850Z</time>
      </trkpt>
      <trkpt lat="46.77781" lon="-0.34858">
        <ele>162.36</ele>
        <time>2024-06-24T18:05:03.138Z</time>
      </trkpt>
      <trkpt lat="46.77778" lon="-0.34858">
        <ele>162.56</ele>
        <time>2024-06-24T18:05:07.427Z</time>
      </trkpt>
      <trkpt lat="46.77775" lon="-0.34857">
        <ele>162.76</ele>
        <time>2024-06-24T18:05:11.716Z</time>
      </trkpt>
      <trkpt lat="46.77771" lon="-0.34856">
        <ele>162.96</ele>
        <time>2024-06-24T18:05:16.006Z</time>
      </trkpt>
      <trkpt lat="46.77768" lon="-0.34855">
        <ele>163.16</ele>
        <time>2024-06-24T18:05:20.297Z</time>
      </trkpt>
      <trkpt lat="46.77764" lon="-0.34854">
        <ele>163.37</ele>
        <time>2024-06-24T18:05:24.588Z</time>
      </trkpt>
      <trkpt lat="46.77761" lon="-0.34854">
        <ele>163.57</ele>
        <time>2024-06-24T18:05:28.880Z</time>
      </trkpt>
      <trkpt lat="46.77758" lon="-0.34853">
        <ele>163.77</ele>
        <time>2024-06-24T18:05:33.173Z</time>
      </trkpt>
      <trkpt lat="46.77754" lon="-0.34853">
        <ele>163.97</ele>
        <time>2024-06-24T18:05:37.466Z</time>
      </trkpt>
      <trkpt lat="46.77751" lon="-0.34852">
        <ele>164.18</ele>
        <time>2024-06-24T18:05:41.760Z</time>
      </trkpt>
      <trkpt lat="46.77747" lon="-0.34851">
        <ele>164.38</ele>
        <time>2024-06-24T18:05:46.055Z</time>
      </trkpt>
      <trkpt lat="46.77744" lon="-0.3485">
        <ele>164.58</ele>
        <time>2024-06-24T18:05:50.350Z</time>
      </trkpt>
      <trkpt lat="46.7774" lon="-0.34848">
        <ele>164.79</ele>
        <time>2024-06-24T18:05:54.646Z</time>
      </trkpt>
      <trkpt lat="46.77736" lon="-0.34847">
        <ele>164.99</ele>
        <time>2024-06-24T18:05:58.943Z</time>
      </trkpt>
      <trkpt lat="46.77733" lon="-0.34846">
        <ele>165.19</ele>
        <time>2024-06-24T18:06:03.241Z</time>
      </trkpt>
      <trkpt lat="46.77729" lon="-0.34845">
        <ele>165.39</ele>
        <time>2024-06-24T18:06:07.540Z</time>
      </trkpt>
      <trkpt lat="46.77726" lon="-0.34844">
        <ele>165.59</ele>
        <time>2024-06-24T18:06:11.839Z</time>
      </trkpt>
      <trkpt lat="46.77722" lon="-0.34843">
        <ele>165.79</ele>
        <time>2024-06-24T18:06:16.139Z</time>
      </trkpt>
      <trkpt lat="46.77719" lon="-0.34843">
        <ele>165.99</ele>
        <time>2024-06-24T18:06:20.440Z</time>
      </trkpt>
      <trkpt lat="46.77715" lon="-0.34843">
        <ele>166.19</ele>
        <time>2024-06-24T18:06:24.741Z</time>
      </trkpt>
      <trkpt lat="46.77712" lon="-0.34843">
        <ele>166.39</ele>
        <time>2024-06-24T18:06:29.043Z</time>
      </trkpt>
      <trkpt lat="46.77708" lon="-0.34843">
        <ele>166.58</ele>
        <time>2024-06-24T18:06:33.346Z</time>
      </trkpt>
      <trkpt lat="46.77705" lon="-0.34843">
        <ele>166.78</ele>
        <time>2024-06-24T18:06:37.649Z</time>
      </trkpt>
      <trkpt lat="46.77702" lon="-0.34843">
        <ele>166.97</ele>
        <time>2024-06-24T18:06:41.953Z</time>
      </trkpt>
      <trkpt lat="46.77699" lon="-0.34844">
        <ele>167.16</ele>
        <time>2024-06-24T18:06:46.258Z</time>
      </trkpt>
      <trkpt lat="46.77696" lon="-0.34844">
        <ele>167.36</ele>
        <time>2024-06-24T18:06:50.563Z</time>
      </trkpt>
      <trkpt lat="46.77693" lon="-0.34844">
        <ele>167.55</ele>
        <time>2024-06-24T18:06:54.869Z</time>
      </trkpt>
      <trkpt lat="46.7769" lon="-0.34844">
        <ele>167.73</ele>
        <time>2024-06-24T18:06:59.175Z</time>
      </trkpt>
      <trkpt lat="46.77687" lon="-0.34843">
        <ele>167.92</ele>
        <time>2024-06-24T18:07:03.482Z</time>
      </trkpt>
      <trkpt lat="46.77684" lon="-0.34842">
        <ele>168.11</ele>
        <time>2024-06-24T18:07:07.790Z</time>
      </trkpt>
      <trkpt lat="46.77681" lon="-0.34841">
        <ele>168.3</ele>
        <time>2024-06-24T18:07:12.098Z</time>
      </trkpt>
      <trkpt lat="46.77678" lon="-0.3484">
        <ele>168.48</ele>
        <time>2024-06-24T18:07:16.407Z</time>
      </trkpt>
      <trkpt lat="46.77675" lon="-0.34839">
        <ele>168.66</ele>
        <time>2024-06-24T18:07:20.717Z</time>
      </trkpt>
      <trkpt lat="46.77672" lon="-0.34838">
        <ele>168.85</ele>
        <time>2024-06-24T18:07:25.027Z</time>
      </trkpt>
      <trkpt lat="46.7767" lon="-0.34837">
        <ele>169.03</ele>
        <time>2024-06-24T18:07:29.338Z</time>
      </trkpt>
      <trkpt lat="46.77667" lon="-0.34836">
        <ele>169.21</ele>
        <time>2024-06-24T18:07:33.649Z</time>
      </trkpt>
      <trkpt lat="46.77664" lon="-0.34835">
        <ele>169.39</ele>
        <time>2024-06-24T18:07:37.961Z</time>
      </trkpt>
      <trkpt lat="46.77662" lon="-0.34833">
        <ele>169.56</ele>
        <time>2024-06-24T18:07:42.273Z</time>
      </trkpt>
      <trkpt lat="46.77659" lon="-0.34831">
        <ele>169.74</ele>
        <time>2024-06-24T18:07:46.586Z</time>
      </trkpt>
      <trkpt lat="46.77657" lon="-0.34829">
        <ele>169.91</ele>
        <time>2024-06-24T18:07:50.899Z</time>
      </trkpt>
      <trkpt lat="46.77654" lon="-0.34827">
        <ele>170.09</ele>
        <time>2024-06-24T18:07:55.213Z</time>
      </trkpt>
      <trkpt lat="46.77651" lon="-0.34825">
        <ele>170.26</ele>
        <time>2024-06-24T18:07:59.528Z</time>
      </trkpt>
      <trkpt lat="46.77649" lon="-0.34824">
        <ele>170.44</ele>
        <time>2024-06-24T18:08:03.843Z</time>
      </trkpt>
      <trkpt lat="46.77646" lon="-0.34822">
        <ele>170.61</ele>
        <time>2024-06-24T18:08:08.159Z</time>
      </trkpt>
      <trkpt lat="46.77643" lon="-0.34821">
        <ele>170.79</ele>
        <time>2024-06-24T18:08:12.475Z</time>
      </trkpt>
      <trkpt lat="46.7764" lon="-0.3482">
        <ele>170.96</ele>
        <time>2024-06-24T18:08:16.792Z</time>
      </trkpt>
      <trkpt lat="46.77637" lon="-0.34819">
        <ele>171.14</ele>
        <time>2024-06-24T18:08:21.110Z</time>
      </trkpt>
      <trkpt lat="46.77634" lon="-0.34817">
        <ele>171.31</ele>
        <time>2024-06-24T18:08:25.428Z</time>
      </trkpt>
      <trkpt lat="46.7763" lon="-0.34817">
        <ele>171.49</ele>
        <time>2024-06-24T18:08:29.747Z</time>
      </trkpt>
      <trkpt lat="46.77627" lon="-0.34816">
        <ele>171.66</ele>
        <time>2024-06-24T18:08:34.067Z</time>
      </trkpt>
      <trkpt lat="46.77624" lon="-0.34815">
        <ele>171.84</ele>
        <time>2024-06-24T18:08:38.387Z</time>
      </trkpt>
      <trkpt lat="46.7762" lon="-0.34815">
        <ele>172.02</ele>
        <time>2024-06-24T18:08:42.708Z</time>
      </trkpt>
      <trkpt lat="46.77616" lon="-0.34815">
        <ele>172.2</ele>
        <time>2024-06-24T18:08:47.030Z</time>
      </trkpt>
      <trkpt lat="46.77613" lon="-0.34815">
        <ele>172.38</ele>
        <time>2024-06-24T18:08:51.353Z</time>
      </trkpt>
      <trkpt lat="46.7761" lon="-0.34815">
        <ele>172.56</ele>
        <time>2024-06-24T18:08:55.676Z</time>
      </trkpt>
      <trkpt lat="46.77607" lon="-0.34816">
        <ele>172.75</ele>
        <time>2024-06-24T18:09:00.000Z</time>
      </trkpt>
      <trkpt lat="46.77604" lon="-0.34818">
        <ele>172.94</ele>
        <time>2024-06-24T18:09:04.324Z</time>
      </trkpt>
      <trkpt lat="46.77601" lon="-0.34818">
        <ele>173.12</ele>
        <time>2024-06-24T18:09:08.649Z</time>
      </trkpt>
      <trkpt lat="46.77598" lon="-0.34819">
        <ele>173.31</ele>
        <time>2024-06-24T18:09:12.975Z</time>
      </trkpt>
      <trkpt lat="46.77594" lon="-0.34819">
        <ele>173.51</ele>
        <time>2024-06-24T18:09:17.301Z</time>
      </trkpt>
      <trkpt lat="46.77591" lon="-0.3482">
        <ele>173.7</ele>
        <time>2024-06-24T18:09:21.628Z</time>
      </trkpt>
      <trkpt lat="46.77588" lon="-0.3482">
        <ele>173.9</ele>
        <time>2024-06-24T18:09:25.956Z</time>
      </trkpt>
      <trkpt lat="46.77585" lon="-0.34821">
        <ele>174.1</ele>
        <time>2024-06-24T18:09:30.284Z</time>
      </trkpt>
      <trkpt lat="46.77582" lon="-0.34822">
        <ele>174.3</ele>
        <time>2024-06-24T18:09:34.613Z</time>
      </trkpt>
      <trkpt lat="46.77579" lon="-0.34823">
        <ele>174.51</ele>
        <time>2024-06-24T18:09:38.942Z</time>
      </trkpt>
      <trkpt lat="46.77576" lon="-0.34823">
        <ele>174.71</ele>
        <time>2024-06-24T18:09:43.272Z</time>
      </trkpt>
      <trkpt lat="46.77572" lon="-0.34824">
        <ele>174.92</ele>
        <time>2024-06-24T18:09:47.603Z</time>
      </trkpt>
      <trkpt lat="46.77569" lon="-0.34825">
        <ele>175.13</ele>
        <time>2024-06-24T18:09:51.934Z</time>
      </trkpt>
      <trkpt lat="46.77566" lon="-0.34826">
        <ele>175.34</ele>
        <time>2024-06-24T18:09:56.266Z</time>
      </trkpt>
      <trkpt lat="46.77563" lon="-0.34827">
        <ele>175.55</ele>
        <time>2024-06-24T18:10:00.599Z</time>
      </trkpt>
      <trkpt lat="46.7756" lon="-0.34828">
        <ele>175.76</ele>
        <time>2024-06-24T18:10:04.932Z</time>
      </trkpt>
      <trkpt lat="46.77557" lon="-0.34829">
        <ele>175.97</ele>
        <time>2024-06-24T18:10:09.266Z</time>
      </trkpt>
      <trkpt lat="46.77555" lon="-0.34832">
        <ele>176.18</ele>
        <time>2024-06-24T18:10:13.600Z</time>
      </trkpt>
      <trkpt lat="46.77552" lon="-0.34835">
        <ele>176.39</ele>
        <time>2024-06-24T18:10:17.935Z</time>
      </trkpt>
      <trkpt lat="46.77549" lon="-0.34838">
        <ele>176.61</ele>
        <time>2024-06-24T18:10:22.271Z</time>
      </trkpt>
      <trkpt lat="46.77547" lon="-0.34841">
        <ele>176.82</ele>
        <time>2024-06-24T18:10:26.608Z</time>
      </trkpt>
      <trkpt lat="46.77545" lon="-0.34845">
        <ele>177.04</ele>
        <time>2024-06-24T18:10:30.945Z</time>
      </trkpt>
      <trkpt lat="46.77543" lon="-0.34849">
        <ele>177.26</ele>
        <time>2024-06-24T18:10:35.283Z</time>
      </trkpt>
      <trkpt lat="46.77541" lon="-0.34853">
        <ele>177.47</ele>
        <time>2024-06-24T18:10:39.622Z</time>
      </trkpt>
      <trkpt lat="46.77539" lon="-0.34857">
        <ele>177.69</ele>
        <time>2024-06-24T18:10:43.961Z</time>
      </trkpt>
      <trkpt lat="46.77537" lon="-0.34861">
        <ele>177.91</ele>
        <time>2024-06-24T18:10:48.301Z</time>
      </trkpt>
      <trkpt lat="46.77535" lon="-0.34864">
        <ele>178.13</ele>
        <time>2024-06-24T18:10:52.641Z</time>
      </trkpt>
      <trkpt lat="46.77533" lon="-0.34869">
        <ele>178.35</ele>
        <time>2024-06-24T18:10:56.982Z</time>
      </trkpt>
      <trkpt lat="46.77532" lon="-0.34872">
        <ele>178.56</ele>
        <time>2024-06-24T18:11:01.324Z</time>
      </trkpt>
      <trkpt lat="46.7753" lon="-0.34876">
        <ele>178.78</ele>
        <time>2024-06-24T18:11:05.666Z</time>
      </trkpt>
      <trkpt lat="46.77528" lon="-0.3488">
        <ele>179</ele>
        <time>2024-06-24T18:11:10.009Z</time>
      </trkpt>
      <trkpt lat="46.77527" lon="-0.34883">
        <ele>179.21</ele>
        <time>2024-06-24T18:11:14.353Z</time>
      </trkpt>
      <trkpt lat="46.77525" lon="-0.34887">
        <ele>179.42</ele>
        <time>2024-06-24T18:11:18.697Z</time>
      </trkpt>
      <trkpt lat="46.77523" lon="-0.34891">
        <ele>179.63</ele>
        <time>2024-06-24T18:11:23.042Z</time>
      </trkpt>
      <trkpt lat="46.77521" lon="-0.34895">
        <ele>179.84</ele>
        <time>2024-06-24T18:11:27.387Z</time>
      </trkpt>
      <trkpt lat="46.77519" lon="-0.34899">
        <ele>180.05</ele>
        <time>2024-06-24T18:11:31.733Z</time>
      </trkpt>
      <trkpt lat="46.77518" lon="-0.34903">
        <ele>180.26</ele>
        <time>2024-06-24T18:11:36.080Z</time>
      </trkpt>
      <trkpt lat="46.77516" lon="-0.34907">
        <ele>180.47</ele>
        <time>2024-06-24T18:11:40.427Z</time>
      </trkpt>
      <trkpt lat="46.77514" lon="-0.3491">
        <ele>180.67</ele>
        <time>2024-06-24T18:11:44.775Z</time>
      </trkpt>
      <trkpt lat="46.77512" lon="-0.34914">
        <ele>180.88</ele>
        <time>2024-06-24T18:11:49.124Z</time>
      </trkpt>
      <trkpt lat="46.7751" lon="-0.34918">
        <ele>181.08</ele>
        <time>2024-06-24T18:11:53.473Z</time>
      </trkpt>
      <trkpt lat="46.77509" lon="-0.34922">
        <ele>181.28</ele>
        <time>2024-06-24T18:11:57.823Z</time>
      </trkpt>
      <trkpt lat="46.77507" lon="-0.34925">
        <ele>181.48</ele>
        <time>2024-06-24T18:12:02.174Z</time>
      </trkpt>
      <trkpt lat="46.77505" lon="-0.34928">
        <ele>181.68</ele>
        <time>2024-06-24T18:12:06.525Z</time>
      </trkpt>
      <trkpt lat="46.77503" lon="-0.34933">
        <ele>181.88</ele>
        <time>2024-06-24T18:12:10.877Z</time>
      </trkpt>
      <trkpt lat="46.77502" lon="-0.34937">
        <ele>182.08</ele>
        <time>2024-06-24T18:12:15.229Z</time>
      </trkpt>
      <trkpt lat="46.775" lon="-0.34941">
        <ele>182.27</ele>
        <time>2024-06-24T18:12:19.582Z</time>
      </trkpt>
      <trkpt lat="46.77498" lon="-0.34945">
        <ele>182.47</ele>
        <time>2024-06-24T18:12:23.936Z</time>
      </trkpt>
      <trkpt lat="46.77496" lon="-0.34949">
        <ele>182.67</ele>
        <time>2024-06-24T18:12:28.291Z</time>
      </trkpt>
      <trkpt lat="46.77495" lon="-0.34953">
        <ele>182.86</ele>
        <time>2024-06-24T18:12:32.646Z</time>
      </trkpt>
      <trkpt lat="46.77493" lon="-0.34957">
        <ele>183.06</ele>
        <time>2024-06-24T18:12:37.002Z</time>
      </trkpt>
      <trkpt lat="46.77491" lon="-0.3496">
        <ele>183.25</ele>
        <time>2024-06-24T18:12:41.358Z</time>
      </trkpt>
      <trkpt lat="46.77489" lon="-0.34964">
        <ele>183.44</ele>
        <time>2024-06-24T18:12:45.715Z</time>
      </trkpt>
      <trkpt lat="46.77487" lon="-0.34968">
        <ele>183.63</ele>
        <time>2024-06-24T18:12:50.073Z</time>
      </trkpt>
      <trkpt lat="46.77486" lon="-0.34973">
        <ele>183.82</ele>
        <time>2024-06-24T18:12:54.431Z</time>
      </trkpt>
      <trkpt lat="46.77484" lon="-0.34977">
        <ele>184</ele>
        <time>2024-06-24T18:12:58.790Z</time>
      </trkpt>
      <trkpt lat="46.77482" lon="-0.34981">
        <ele>184.19</ele>
        <time>2024-06-24T18:13:03.150Z</time>
      </trkpt>
      <trkpt lat="46.7748" lon="-0.34986">
        <ele>184.37</ele>
        <time>2024-06-24T18:13:07.510Z</time>
      </trkpt>
      <trkpt lat="46.77478" lon="-0.3499">
        <ele>184.55</ele>
        <time>2024-06-24T18:13:11.871Z</time>
      </trkpt>
      <trkpt lat="46.77477" lon="-0.34994">
        <ele>184.73</ele>
        <time>2024-06-24T18:13:16.233Z</time>
      </trkpt>
      <trkpt lat="46.77475" lon="-0.34998">
        <ele>184.9</ele>
        <time>2024-06-24T18:13:20.595Z</time>
      </trkpt>
      <trkpt lat="46.77473" lon="-0.35002">
        <ele>185.07</ele>
        <time>2024-06-24T18:13:24.958Z</time>
      </trkpt>
      <trkpt lat="46.77471" lon="-0.35006">
        <ele>185.23</ele>
        <time>2024-06-24T18:13:29.322Z</time>
      </trkpt>
      <trkpt lat="46.77469" lon="-0.3501">
        <ele>185.39</ele>
        <time>2024-06-24T18:13:33.686Z</time>
      </trkpt>
      <trkpt lat="46.77468" lon="-0.35014">
        <ele>185.55</ele>
        <time>2024-06-24T18:13:38.051Z</time>
      </trkpt>
      <trkpt lat="46.77466" lon="-0.35019">
        <ele>185.71</ele>
        <time>2024-06-24T18:13:42.417Z</time>
      </trkpt>
      <trkpt lat="46.77465" lon="-0.35023">
        <ele>185.87</ele>
        <time>2024-06-24T18:13:46.783Z</time>
      </trkpt>
      <trkpt lat="46.77462" lon="-0.35028">
        <ele>186.02</ele>
        <time>2024-06-24T18:13:51.150Z</time>
      </trkpt>
      <trkpt lat="46.77461" lon="-0.35032">
        <ele>186.18</ele>
        <time>2024-06-24T18:13:55.518Z</time>
      </trkpt>
      <trkpt lat="46.77459" lon="-0.35037">
        <ele>186.33</ele>
        <time>2024-06-24T18:13:59.887Z</time>
      </trkpt>
      <trkpt lat="46.77457" lon="-0.35042">
        <ele>186.48</ele>
        <time>2024-06-24T18:14:04.256Z</time>
      </trkpt>
      <trkpt lat="46.77455" lon="-0.35046">
        <ele>186.62</ele>
        <time>2024-06-24T18:14:08.626Z</time>
      </trkpt>
      <trkpt lat="46.77453" lon="-0.3505">
        <ele>186.77</ele>
        <time>2024-06-24T18:14:12.997Z</time>
      </trkpt>
      <trkpt lat="46.77451" lon="-0.35055">
        <ele>186.91</ele>
        <time>2024-06-24T18:14:17.369Z</time>
      </trkpt>
      <trkpt lat="46.77449" lon="-0.35059">
        <ele>187.04</ele>
        <time>2024-06-24T18:14:21.741Z</time>
      </trkpt>
      <trkpt lat="46.77447" lon="-0.35063">
        <ele>187.18</ele>
        <time>2024-06-24T18:14:26.114Z</time>
      </trkpt>
      <trkpt lat="46.77445" lon="-0.35067">
        <ele>187.31</ele>
        <time>2024-06-24T18:14:30.488Z</time>
      </trkpt>
      <trkpt lat="46.77443" lon="-0.35072">
        <ele>187.44</ele>
        <time>2024-06-24T18:14:34.862Z</time>
      </trkpt>
      <trkpt lat="46.77441" lon="-0.35077">
        <ele>187.57</ele>
        <time>2024-06-24T18:14:39.237Z</time>
      </trkpt>
      <trkpt lat="46.77439" lon="-0.35081">
        <ele>187.7</ele>
        <time>2024-06-24T18:14:43.613Z</time>
      </trkpt>
      <trkpt lat="46.77438" lon="-0.35086">
        <ele>187.82</ele>
        <time>2024-06-24T18:14:47.990Z</time>
      </trkpt>
      <trkpt lat="46.77436" lon="-0.35091">
        <ele>187.95</ele>
        <time>2024-06-24T18:14:52.367Z</time>
      </trkpt>
      <trkpt lat="46.77434" lon="-0.35096">
        <ele>188.07</ele>
        <time>2024-06-24T18:14:56.745Z</time>
      </trkpt>
      <trkpt lat="46.77431" lon="-0.351">
        <ele>188.19</ele>
        <time>2024-06-24T18:15:01.124Z</time>
      </trkpt>
      <trkpt lat="46.77429" lon="-0.35105">
        <ele>188.3</ele>
        <time>2024-06-24T18:15:05.504Z</time>
      </trkpt>
      <trkpt lat="46.77427" lon="-0.3511">
        <ele>188.41</ele>
        <time>2024-06-24T18:15:09.885Z</time>
      </trkpt>
      <trkpt lat="46.77425" lon="-0.35115">
        <ele>188.52</ele>
        <time>2024-06-24T18:15:14.266Z</time>
      </trkpt>
      <trkpt lat="46.77423" lon="-0.3512">
        <ele>188.62</ele>
        <time>2024-06-24T18:15:18.648Z</time>
      </trkpt>
      <trkpt lat="46.77421" lon="-0.35125">
        <ele>188.73</ele>
        <time>2024-06-24T18:15:23.031Z</time>
      </trkpt>
      <trkpt lat="46.7742" lon="-0.3513">
        <ele>188.82</ele>
        <time>2024-06-24T18:15:27.415Z</time>
      </trkpt>
      <trkpt lat="46.77418" lon="-0.35135">
        <ele>188.92</ele>
        <time>2024-06-24T18:15:31.799Z</time>
      </trkpt>
      <trkpt lat="46.77416" lon="-0.3514">
        <ele>189.01</ele>
        <time>2024-06-24T18:15:36.184Z</time>
      </trkpt>
      <trkpt lat="46.77414" lon="-0.35144">
        <ele>189.11</ele>
        <time>2024-06-24T18:15:40.570Z</time>
      </trkpt>
      <trkpt lat="46.77412" lon="-0.3515">
        <ele>189.19</ele>
        <time>2024-06-24T18:15:44.957Z</time>
      </trkpt>
      <trkpt lat="46.77409" lon="-0.35154">
        <ele>189.28</ele>
        <time>2024-06-24T18:15:49.345Z</time>
      </trkpt>
      <trkpt lat="46.77407" lon="-0.35159">
        <ele>189.36</ele>
        <time>2024-06-24T18:15:53.733Z</time>
      </trkpt>
      <trkpt lat="46.77404" lon="-0.35164">
        <ele>189.45</ele>
        <time>2024-06-24T18:15:58.122Z</time>
      </trkpt>
      <trkpt lat="46.77401" lon="-0.35168">
        <ele>189.53</ele>
        <time>2024-06-24T18:16:02.512Z</time>
      </trkpt>
      <trkpt lat="46.77397" lon="-0.35172">
        <ele>189.6</ele>
        <time>2024-06-24T18:16:06.903Z</time>
      </trkpt>
      <trkpt lat="46.77395" lon="-0.35177">
        <ele>189.68</ele>
        <time>2024-06-24T18:16:11.295Z</time>
      </trkpt>
      <trkpt lat="46.77392" lon="-0.35181">
        <ele>189.75</ele>
        <time>2024-06-24T18:16:15.688Z</time>
      </trkpt>
      <trkpt lat="46.77389" lon="-0.35186">
        <ele>189.82</ele>
        <time>2024-06-24T18:16:20.082Z</time>
      </trkpt>
      <trkpt lat="46.77386" lon="-0.3519">
        <ele>189.89</ele>
        <time>2024-06-24T18:16:24.477Z</time>
      </trkpt>
      <trkpt lat="46.77383" lon="-0.35194">
        <ele>189.96</ele>
        <time>2024-06-24T18:16:28.872Z</time>
      </trkpt>
      <trkpt lat="46.7738" lon="-0.35199">
        <ele>190.02</ele>
        <time>2024-06-24T18:16:33.268Z</time>
      </trkpt>
      <trkpt lat="46.77376" lon="-0.35203">
        <ele>190.08</ele>
        <time>2024-06-24T18:16:37.665Z</time>
      </trkpt>
      <trkpt lat="46.77373" lon="-0.35208">
        <ele>190.13</ele>
        <time>2024-06-24T18:16:42.063Z</time>
      </trkpt>
      <trkpt lat="46.7737" lon="-0.35213">
        <ele>190.19</ele>
        <time>2024-06-24T18:16:46.462Z</time>
      </trkpt>
      <trkpt lat="46.77367" lon="-0.35218">
        <ele>190.24</ele>
        <time>2024-06-24T18:16:50.862Z</time>
      </trkpt>
      <trkpt lat="46.77364" lon="-0.35223">
        <ele>190.29</ele>
        <time>2024-06-24T18:16:55.263Z</time>
      </trkpt>
      <trkpt lat="46.7736" lon="-0.35227">
        <ele>190.34</ele>
        <time>2024-06-24T18:16:59.665Z</time>
      </trkpt>
      <trkpt lat="46.77357" lon="-0.35232">
        <ele>190.38</ele>
        <time>2024-06-24T18:17:04.068Z</time>
      </trkpt>
      <trkpt lat="46.77354" lon="-0.35236">
        <ele>190.43</ele>
        <time>2024-06-24T18:17:08.471Z</time>
      </trkpt>
      <trkpt lat="46.77351" lon="-0.3524">
        <ele>190.47</ele>
        <time>2024-06-24T18:17:12.875Z</time>
      </trkpt>
      <trkpt lat="46.77347" lon="-0.35245">
        <ele>190.51</ele>
        <time>2024-06-24T18:17:17.280Z</time>
      </trkpt>
      <trkpt lat="46.77344" lon="-0.35249">
        <ele>190.56</ele>
        <time>2024-06-24T18:17:21.686Z</time>
      </trkpt>
      <trkpt lat="46.77341" lon="-0.35253">
        <ele>190.6</ele>
        <time>2024-06-24T18:17:26.093Z</time>
      </trkpt>
      <trkpt lat="46.77338" lon="-0.35258">
        <ele>190.63</ele>
        <time>2024-06-24T18:17:30.501Z</time>
      </trkpt>
      <trkpt lat="46.77335" lon="-0.35262">
        <ele>190.67</ele>
        <time>2024-06-24T18:17:34.910Z</time>
      </trkpt>
      <trkpt lat="46.77332" lon="-0.35267">
        <ele>190.71</ele>
        <time>2024-06-24T18:17:39.320Z</time>
      </trkpt>
      <trkpt lat="46.77329" lon="-0.35271">
        <ele>190.74</ele>
        <time>2024-06-24T18:17:43.730Z</time>
      </trkpt>
      <trkpt lat="46.77326" lon="-0.35276">
        <ele>190.77</ele>
        <time>2024-06-24T18:17:48.141Z</time>
      </trkpt>
      <trkpt lat="46.77323" lon="-0.3528">
        <ele>190.8</ele>
        <time>2024-06-24T18:17:52.553Z</time>
      </trkpt>
      <trkpt lat="46.7732" lon="-0.35285">
        <ele>190.82</ele>
        <time>2024-06-24T18:17:56.966Z</time>
      </trkpt>
      <trkpt lat="46.77317" lon="-0.35289">
        <ele>190.85</ele>
        <time>2024-06-24T18:18:01.380Z</time>
      </trkpt>
      <trkpt lat="46.77314" lon="-0.35293">
        <ele>190.88</ele>
        <time>2024-06-24T18:18:05.795Z</time>
      </trkpt>
      <trkpt lat="46.77311" lon="-0.35298">
        <ele>190.9</ele>
        <time>2024-06-24T18:18:10.211Z</time>
      </trkpt>
      <trkpt lat="46.77308" lon="-0.35302">
        <ele>190.92</ele>
        <time>2024-06-24T18:18:14.627Z</time>
      </trkpt>
      <trkpt lat="46.77304" lon="-0.35306">
        <ele>190.94</ele>
        <time>2024-06-24T18:18:19.044Z</time>
      </trkpt>
      <trkpt lat="46.77301" lon="-0.3531">
        <ele>190.96</ele>
        <time>2024-06-24T18:18:23.462Z</time>
      </trkpt>
      <trkpt lat="46.77297" lon="-0.35314">
        <ele>190.98</ele>
        <time>2024-06-24T18:18:27.881Z</time>
      </trkpt>
      <trkpt lat="46.77294" lon="-0.35317">
        <ele>191</ele>
        <time>2024-06-24T18:18:32.301Z</time>
      </trkpt>
      <trkpt lat="46.77291" lon="-0.35319">
        <ele>191.02</ele>
        <time>2024-06-24T18:18:36.722Z</time>
      </trkpt>
      <trkpt lat="46.77288" lon="-0.35322">
        <ele>191.04</ele>
        <time>2024-06-24T18:18:41.143Z</time>
      </trkpt>
      <trkpt lat="46.77285" lon="-0.35323">
        <ele>191.07</ele>
        <time>2024-06-24T18:18:45.565Z</time>
      </trkpt>
      <trkpt lat="46.77282" lon="-0.35324">
        <ele>191.1</ele>
        <time>2024-06-24T18:18:49.987Z</time>
      </trkpt>
      <trkpt lat="46.7728" lon="-0.35324">
        <ele>191.13</ele>
        <time>2024-06-24T18:18:54.410Z</time>
      </trkpt>
      <trkpt lat="46.77279" lon="-0.35324">
        <ele>191.16</ele>
        <time>2024-06-24T18:18:58.833Z</time>
      </trkpt>
      <trkpt lat="46.77279" lon="-0.35323">
        <ele>191.2</ele>
        <time>2024-06-24T18:19:03.256Z</time>
      </trkpt>
      <trkpt lat="46.77279" lon="-0.35324">
        <ele>191.24</ele>
        <time>2024-06-24T18:19:07.679Z</time>
      </trkpt>
      <trkpt lat="46.77271" lon="-0.35322">
        <ele>191.28</ele>
        <time>2024-06-24T18:19:12.104Z</time>
      </trkpt>
      <trkpt lat="46.77269" lon="-0.35323">
        <ele>191.32</ele>
        <time>2024-06-24T18:19:16.529Z</time>
      </trkpt>
      <trkpt lat="46.77266" lon="-0.35323">
        <ele>191.36</ele>
        <time>2024-06-24T18:19:20.955Z</time>
      </trkpt>
      <trkpt lat="46.77263" lon="-0.35324">
        <ele>191.41</ele>
        <time>2024-06-24T18:19:25.381Z</time>
      </trkpt>
      <trkpt lat="46.7726" lon="-0.35325">
        <ele>191.45</ele>
        <time>2024-06-24T18:19:29.808Z</time>
      </trkpt>
      <trkpt lat="46.77256" lon="-0.35324">
        <ele>191.5</ele>
        <time>2024-06-24T18:19:34.236Z</time>
      </trkpt>
      <trkpt lat="46.77252" lon="-0.35325">
        <ele>191.56</ele>
        <time>2024-06-24T18:19:38.665Z</time>
      </trkpt>
      <trkpt lat="46.77248" lon="-0.35325">
        <ele>191.61</ele>
        <time>2024-06-24T18:19:43.094Z</time>
      </trkpt>
      <trkpt lat="46.77244" lon="-0.35325">
        <ele>191.67</ele>
        <time>2024-06-24T18:19:47.524Z</time>
      </trkpt>
      <trkpt lat="46.7724" lon="-0.35326">
        <ele>191.73</ele>
        <time>2024-06-24T18:19:51.955Z</time>
      </trkpt>
      <trkpt lat="46.77235" lon="-0.35325">
        <ele>191.8</ele>
        <time>2024-06-24T18:19:56.387Z</time>
      </trkpt>
      <trkpt lat="46.7723" lon="-0.35326">
        <ele>191.86</ele>
        <time>2024-06-24T18:20:00.820Z</time>
      </trkpt>
      <trkpt lat="46.77225" lon="-0.35325">
        <ele>191.94</ele>
        <time>2024-06-24T18:20:05.254Z</time>
      </trkpt>
      <trkpt lat="46.77219" lon="-0.35325">
        <ele>192.02</ele>
        <time>2024-06-24T18:20:09.689Z</time>
      </trkpt>
      <trkpt lat="46.77215" lon="-0.35325">
        <ele>192.09</ele>
        <time>2024-06-24T18:20:14.125Z</time>
      </trkpt>
      <trkpt lat="46.7721" lon="-0.35325">
        <ele>192.18</ele>
        <time>2024-06-24T18:20:18.562Z</time>
      </trkpt>
      <trkpt lat="46.77205" lon="-0.35325">
        <ele>192.26</ele>
        <time>2024-06-24T18:20:23.000Z</time>
      </trkpt>
      <trkpt lat="46.77201" lon="-0.35325">
        <ele>192.35</ele>
        <time>2024-06-24T18:20:27.439Z</time>
      </trkpt>
      <trkpt lat="46.77197" lon="-0.35324">
        <ele>192.44</ele>
        <time>2024-06-24T18:20:31.879Z</time>
      </trkpt>
      <trkpt lat="46.77192" lon="-0.35324">
        <ele>192.53</ele>
        <time>2024-06-24T18:20:36.320Z</time>
      </trkpt>
      <trkpt lat="46.77187" lon="-0.35324">
        <ele>192.63</ele>
        <time>2024-06-24T18:20:40.762Z</time>
      </trkpt>
      <trkpt lat="46.77182" lon="-0.35324">
        <ele>192.73</ele>
        <time>2024-06-24T18:20:45.205Z</time>
      </trkpt>
      <trkpt lat="46.77178" lon="-0.35324">
        <ele>192.83</ele>
        <time>2024-06-24T18:20:49.648Z</time>
      </trkpt>
      <trkpt lat="46.77174" lon="-0.35324">
        <ele>192.93</ele>
        <time>2024-06-24T18:20:54.092Z</time>
      </trkpt>
      <trkpt lat="46.7717" lon="-0.35324">
        <ele>193.03</ele>
        <time>2024-06-24T18:20:58.537Z</time>
      </trkpt>
      <trkpt lat="46.77165" lon="-0.35324">
        <ele>193.13</ele>
        <time>2024-06-24T18:21:02.983Z</time>
      </trkpt>
      <trkpt lat="46.77161" lon="-0.35324">
        <ele>193.23</ele>
        <time>2024-06-24T18:21:07.430Z</time>
      </trkpt>
      <trkpt lat="46.77157" lon="-0.35324">
        <ele>193.33</ele>
        <time>2024-06-24T18:21:11.878Z</time>
      </trkpt>
      <trkpt lat="46.77153" lon="-0.35325">
        <ele>193.43</ele>
        <time>2024-06-24T18:21:16.326Z</time>
      </trkpt>
      <trkpt lat="46.77149" lon="-0.35325">
        <ele>193.54</ele>
        <time>2024-06-24T18:21:20.775Z</time>
      </trkpt>
      <trkpt lat="46.77146" lon="-0.35326">
        <ele>193.64</ele>
        <time>2024-06-24T18:21:25.225Z</time>
      </trkpt>
      <trkpt lat="46.77141" lon="-0.35326">
        <ele>193.75</ele>
        <time>2024-06-24T18:21:29.676Z</time>
      </trkpt>
      <trkpt lat="46.77137" lon="-0.35326">
        <ele>193.86</ele>
        <time>2024-06-24T18:21:34.128Z</time>
      </trkpt>
      <trkpt lat="46.77133" lon="-0.35326">
        <ele>193.96</ele>
        <time>2024-06-24T18:21:38.580Z</time>
      </trkpt>
      <trkpt lat="46.77129" lon="-0.35326">
        <ele>194.07</ele>
        <time>2024-06-24T18:21:43.033Z</time>
      </trkpt>
      <trkpt lat="46.77124" lon="-0.35326">
        <ele>194.17</ele>
        <time>2024-06-24T18:21:47.487Z</time>
      </trkpt>
      <trkpt lat="46.7712" lon="-0.35326">
        <ele>194.28</ele>
        <time>2024-06-24T18:21:51.942Z</time>
      </trkpt>
      <trkpt lat="46.77115" lon="-0.35326">
        <ele>194.38</ele>
        <time>2024-06-24T18:21:56.398Z</time>
      </trkpt>
      <trkpt lat="46.7711" lon="-0.35326">
        <ele>194.49</ele>
        <time>2024-06-24T18:22:00.855Z</time>
      </trkpt>
      <trkpt lat="46.77106" lon="-0.35326">
        <ele>194.59</ele>
        <time>2024-06-24T18:22:05.313Z</time>
      </trkpt>
      <trkpt lat="46.77101" lon="-0.35326">
        <ele>194.7</ele>
        <time>2024-06-24T18:22:09.772Z</time>
      </trkpt>
      <trkpt lat="46.77097" lon="-0.35326">
        <ele>194.8</ele>
        <time>2024-06-24T18:22:14.232Z</time>
      </trkpt>
      <trkpt lat="46.77093" lon="-0.35327">
        <ele>194.9</ele>
        <time>2024-06-24T18:22:18.692Z</time>
      </trkpt>
      <trkpt lat="46.77089" lon="-0.35327">
        <ele>195.01</ele>
        <time>2024-06-24T18:22:23.153Z</time>
      </trkpt>
      <trkpt lat="46.77085" lon="-0.35327">
        <ele>195.11</ele>
        <time>2024-06-24T18:22:27.615Z</time>
      </trkpt>
      <trkpt lat="46.77081" lon="-0.35328">
        <ele>195.21</ele>
        <time>2024-06-24T18:22:32.078Z</time>
      </trkpt>
      <trkpt lat="46.77076" lon="-0.35328">
        <ele>195.3</ele>
        <time>2024-06-24T18:22:36.542Z</time>
      </trkpt>
      <trkpt lat="46.77072" lon="-0.35328">
        <ele>195.4</ele>
        <time>2024-06-24T18:22:41.007Z</time>
      </trkpt>
      <trkpt lat="46.77068" lon="-0.35328">
        <ele>195.49</ele>
        <time>2024-06-24T18:22:45.472Z</time>
      </trkpt>
      <trkpt lat="46.77064" lon="-0.35328">
        <ele>195.59</ele>
        <time>2024-06-24T18:22:49.938Z</time>
      </trkpt>
      <trkpt lat="46.77059" lon="-0.35328">
        <ele>195.68</ele>
        <time>2024-06-24T18:22:54.405Z</time>
      </trkpt>
      <trkpt lat="46.77055" lon="-0.35329">
        <ele>195.77</ele>
        <time>2024-06-24T18:22:58.873Z</time>
      </trkpt>
      <trkpt lat="46.77051" lon="-0.3533">
        <ele>195.86</ele>
        <time>2024-06-24T18:23:03.342Z</time>
      </trkpt>
      <trkpt lat="46.77046" lon="-0.35331">
        <ele>195.94</ele>
        <time>2024-06-24T18:23:07.812Z</time>
      </trkpt>
      <trkpt lat="46.77041" lon="-0.35331">
        <ele>196.03</ele>
        <time>2024-06-24T18:23:12.283Z</time>
      </trkpt>
      <trkpt lat="46.77036" lon="-0.35332">
        <ele>196.11</ele>
        <time>2024-06-24T18:23:16.755Z</time>
      </trkpt>
      <trkpt lat="46.77031" lon="-0.35332">
        <ele>196.19</ele>
        <time>2024-06-24T18:23:21.228Z</time>
      </trkpt>
      <trkpt lat="46.77027" lon="-0.35332">
        <ele>196.26</ele>
        <time>2024-06-24T18:23:25.702Z</time>
      </trkpt>
      <trkpt lat="46.77023" lon="-0.35333">
        <ele>196.33</ele>
        <time>2024-06-24T18:23:30.176Z</time>
      </trkpt>
      <trkpt lat="46.77019" lon="-0.35333">
        <ele>196.4</ele>
        <time>2024-06-24T18:23:34.651Z</time>
      </trkpt>
      <trkpt lat="46.77015" lon="-0.35334">
        <ele>196.47</ele>
        <time>2024-06-24T18:23:39.127Z</time>
      </trkpt>
      <trkpt lat="46.7701" lon="-0.35334">
        <ele>196.54</ele>
        <time>2024-06-24T18:23:43.604Z</time>
      </trkpt>
      <trkpt lat="46.77006" lon="-0.35334">
        <ele>196.61</ele>
        <time>2024-06-24T18:23:48.082Z</time>
      </trkpt>
      <trkpt lat="46.77002" lon="-0.35335">
        <ele>196.67</ele>
        <time>2024-06-24T18:23:52.561Z</time>
      </trkpt>
      <trkpt lat="46.76998" lon="-0.35335">
        <ele>196.74</ele>
        <time>2024-06-24T18:23:57.041Z</time>
      </trkpt>
      <trkpt lat="46.76993" lon="-0.35336">
        <ele>196.81</ele>
        <time>2024-06-24T18:24:01.522Z</time>
      </trkpt>
      <trkpt lat="46.76988" lon="-0.35336">
        <ele>196.87</ele>
        <time>2024-06-24T18:24:06.003Z</time>
      </trkpt>
      <trkpt lat="46.76984" lon="-0.35336">
        <ele>196.94</ele>
        <time>2024-06-24T18:24:10.485Z</time>
      </trkpt>
      <trkpt lat="46.7698" lon="-0.35337">
        <ele>197</ele>
        <time>2024-06-24T18:24:14.968Z</time>
      </trkpt>
      <trkpt lat="46.76975" lon="-0.35338">
        <ele>197.07</ele>
        <time>2024-06-24T18:24:19.452Z</time>
      </trkpt>
      <trkpt lat="46.7697" lon="-0.35339">
        <ele>197.14</ele>
        <time>2024-06-24T18:24:23.937Z</time>
      </trkpt>
      <trkpt lat="46.76966" lon="-0.35341">
        <ele>197.21</ele>
        <time>2024-06-24T18:24:28.423Z</time>
      </trkpt>
      <trkpt lat="46.76961" lon="-0.35342">
        <ele>197.27</ele>
        <time>2024-06-24T18:24:32.910Z</time>
      </trkpt>
      <trkpt lat="46.76957" lon="-0.35343">
        <ele>197.33</ele>
        <time>2024-06-24T18:24:37.398Z</time>
      </trkpt>
      <trkpt lat="46.76953" lon="-0.35345">
        <ele>197.4</ele>
        <time>2024-06-24T18:24:41.887Z</time>
      </trkpt>
      <trkpt lat="46.76948" lon="-0.35346">
        <ele>197.47</ele>
        <time>2024-06-24T18:24:46.377Z</time>
      </trkpt>
      <trkpt lat="46.76944" lon="-0.35346">
        <ele>197.54</ele>
        <time>2024-06-24T18:24:50.867Z</time>
      </trkpt>
      <trkpt lat="46.7694" lon="-0.35347">
        <ele>197.61</ele>
        <time>2024-06-24T18:24:55.358Z</time>
      </trkpt>
      <trkpt lat="46.76935" lon="-0.35347">
        <ele>197.68</ele>
        <time>2024-06-24T18:24:59.850Z</time>
      </trkpt>
      <trkpt lat="46.7693" lon="-0.35347">
        <ele>197.75</ele>
        <time>2024-06-24T18:25:04.343Z</time>
      </trkpt>
      <trkpt lat="46.76926" lon="-0.35347">
        <ele>197.82</ele>
        <time>2024-06-24T18:25:08.837Z</time>
      </trkpt>
      <trkpt lat="46.76921" lon="-0.35347">
        <ele>197.9</ele>
        <time>2024-06-24T18:25:13.332Z</time>
      </trkpt>
      <trkpt lat="46.76916" lon="-0.35347">
        <ele>197.97</ele>
        <time>2024-06-24T18:25:17.828Z</time>
      </trkpt>
      <trkpt lat="46.76912" lon="-0.35346">
        <ele>198.04</ele>
        <time>2024-06-24T18:25:22.325Z</time>
      </trkpt>
      <trkpt lat="46.76908" lon="-0.35346">
        <ele>198.12</ele>
        <time>2024-06-24T18:25:26.823Z</time>
      </trkpt>
      <trkpt lat="46.76904" lon="-0.35346">
        <ele>198.19</ele>
        <time>2024-06-24T18:25:31.322Z</time>
      </trkpt>
      <trkpt lat="46.76899" lon="-0.35346">
        <ele>198.27</ele>
        <time>2024-06-24T18:25:35.821Z</time>
      </trkpt>
      <trkpt lat="46.76895" lon="-0.35346">
        <ele>198.34</ele>
        <time>2024-06-24T18:25:40.321Z</time>
      </trkpt>
      <trkpt lat="46.7689" lon="-0.35346">
        <ele>198.42</ele>
        <time>2024-06-24T18:25:44.822Z</time>
      </trkpt>
      <trkpt lat="46.76886" lon="-0.35346">
        <ele>198.5</ele>
        <time>2024-06-24T18:25:49.324Z</time>
      </trkpt>
      <trkpt lat="46.76882" lon="-0.35346">
        <ele>198.58</ele>
        <time>2024-06-24T18:25:53.827Z</time>
      </trkpt>
      <trkpt lat="46.76877" lon="-0.35345">
        <ele>198.67</ele>
        <time>2024-06-24T18:25:58.331Z</time>
      </trkpt>
      <trkpt lat="46.76872" lon="-0.35345">
        <ele>198.75</ele>
        <time>2024-06-24T18:26:02.836Z</time>
      </trkpt>
      <trkpt lat="46.76868" lon="-0.35344">
        <ele>198.84</ele>
        <time>2024-06-24T18:26:07.342Z</time>
      </trkpt>
      <trkpt lat="46.76863" lon="-0.35344">
        <ele>198.93</ele>
        <time>2024-06-24T18:26:11.849Z</time>
      </trkpt>
      <trkpt lat="46.76858" lon="-0.35343">
        <ele>199.01</ele>
        <time>2024-06-24T18:26:16.357Z</time>
      </trkpt>
      <trkpt lat="46.76853" lon="-0.35343">
        <ele>199.1</ele>
        <time>2024-06-24T18:26:20.866Z</time>
      </trkpt>
      <trkpt lat="46.76848" lon="-0.35342">
        <ele>199.19</ele>
        <time>2024-06-24T18:26:25.376Z</time>
      </trkpt>
      <trkpt lat="46.76844" lon="-0.3534">
        <ele>199.29</ele>
        <time>2024-06-24T18:26:29.887Z</time>
      </trkpt>
      <trkpt lat="46.76839" lon="-0.35339">
        <ele>199.39</ele>
        <time>2024-06-24T18:26:34.398Z</time>
      </trkpt>
      <trkpt lat="46.76835" lon="-0.35337">
        <ele>199.49</ele>
        <time>2024-06-24T18:26:38.910Z</time>
      </trkpt>
      <trkpt lat="46.7683" lon="-0.35336">
        <ele>199.6</ele>
        <time>2024-06-24T18:26:43.423Z</time>
      </trkpt>
      <trkpt lat="46.76826" lon="-0.35335">
        <ele>199.71</ele>
        <time>2024-06-24T18:26:47.937Z</time>
      </trkpt>
      <trkpt lat="46.76822" lon="-0.35333">
        <ele>199.82</ele>
        <time>2024-06-24T18:26:52.452Z</time>
      </trkpt>
      <trkpt lat="46.76817" lon="-0.35332">
        <ele>199.94</ele>
        <time>2024-06-24T18:26:56.968Z</time>
      </trkpt>
      <trkpt lat="46.76813" lon="-0.35331">
        <ele>200.06</ele>
        <time>2024-06-24T18:27:01.485Z</time>
      </trkpt>
      <trkpt lat="46.76808" lon="-0.35329">
        <ele>200.17</ele>
        <time>2024-06-24T18:27:06.003Z</time>
      </trkpt>
      <trkpt lat="46.76803" lon="-0.35327">
        <ele>200.29</ele>
        <time>2024-06-24T18:27:10.522Z</time>
      </trkpt>
      <trkpt lat="46.76799" lon="-0.35326">
        <ele>200.41</ele>
        <time>2024-06-24T18:27:15.042Z</time>
      </trkpt>
      <trkpt lat="46.76794" lon="-0.35324">
        <ele>200.53</ele>
        <time>2024-06-24T18:27:19.563Z</time>
      </trkpt>
      <trkpt lat="46.76789" lon="-0.35322">
        <ele>200.66</ele>
        <time>2024-06-24T18:27:24.085Z</time>
      </trkpt>
      <trkpt lat="46.76785" lon="-0.35321">
        <ele>200.79</ele>
        <time>2024-06-24T18:27:28.608Z</time>
      </trkpt>
      <trkpt lat="46.7678" lon="-0.3532">
        <ele>200.94</ele>
        <time>2024-06-24T18:27:33.132Z</time>
      </trkpt>
      <trkpt lat="46.76776" lon="-0.35318">
        <ele>201.08</ele>
        <time>2024-06-24T18:27:37.656Z</time>
      </trkpt>
      <trkpt lat="46.76771" lon="-0.35316">
        <ele>201.23</ele>
        <time>2024-06-24T18:27:42.181Z</time>
      </trkpt>
      <trkpt lat="46.76767" lon="-0.35315">
        <ele>201.39</ele>
        <time>2024-06-24T18:27:46.707Z</time>
      </trkpt>
      <trkpt lat="46.76762" lon="-0.35314">
        <ele>201.56</ele>
        <time>2024-06-24T18:27:51.234Z</time>
      </trkpt>
      <trkpt lat="46.76757" lon="-0.35312">
        <ele>201.73</ele>
        <time>2024-06-24T18:27:55.762Z</time>
      </trkpt>
      <trkpt lat="46.76753" lon="-0.35311">
        <ele>201.9</ele>
        <time>2024-06-24T18:28:00.291Z</time>
      </trkpt>
      <trkpt lat="46.76748" lon="-0.35309">
        <ele>202.08</ele>
        <time>2024-06-24T18:28:04.821Z</time>
      </trkpt>
      <trkpt lat="46.76743" lon="-0.35307">
        <ele>202.27</ele>
        <time>2024-06-24T18:28:09.352Z</time>
      </trkpt>
      <trkpt lat="46.76738" lon="-0.35306">
        <ele>202.46</ele>
        <time>2024-06-24T18:28:13.884Z</time>
      </trkpt>
      <trkpt lat="46.76734" lon="-0.35304">
        <ele>202.65</ele>
        <time>2024-06-24T18:28:18.417Z</time>
      </trkpt>
      <trkpt lat="46.76729" lon="-0.35304">
        <ele>202.85</ele>
        <time>2024-06-24T18:28:22.951Z</time>
      </trkpt>
      <trkpt lat="46.76724" lon="-0.35302">
        <ele>203.06</ele>
        <time>2024-06-24T18:28:27.486Z</time>
      </trkpt>
      <trkpt lat="46.7672" lon="-0.353">
        <ele>203.27</ele>
        <time>2024-06-24T18:28:32.022Z</time>
      </trkpt>
      <trkpt lat="46.76716" lon="-0.35299">
        <ele>203.49</ele>
        <time>2024-06-24T18:28:36.559Z</time>
      </trkpt>
      <trkpt lat="46.76712" lon="-0.35298">
        <ele>203.71</ele>
        <time>2024-06-24T18:28:41.097Z</time>
      </trkpt>
      <trkpt lat="46.76707" lon="-0.35297">
        <ele>203.94</ele>
        <time>2024-06-24T18:28:45.636Z</time>
      </trkpt>
      <trkpt lat="46.76703" lon="-0.35296">
        <ele>204.17</ele>
        <time>2024-06-24T18:28:50.175Z</time>
      </trkpt>
      <trkpt lat="46.76699" lon="-0.35296">
        <ele>204.41</ele>
        <time>2024-06-24T18:28:54.715Z</time>
      </trkpt>
      <trkpt lat="46.76695" lon="-0.35296">
        <ele>204.65</ele>
        <time>2024-06-24T18:28:59.256Z</time>
      </trkpt>
      <trkpt lat="46.76691" lon="-0.35296">
        <ele>204.89</ele>
        <time>2024-06-24T18:29:03.798Z</time>
      </trkpt>
      <trkpt lat="46.76686" lon="-0.35296">
        <ele>205.13</ele>
        <time>2024-06-24T18:29:08.341Z</time>
      </trkpt>
      <trkpt lat="46.76682" lon="-0.35297">
        <ele>205.38</ele>
        <time>2024-06-24T18:29:12.885Z</time>
      </trkpt>
      <trkpt lat="46.76678" lon="-0.35297">
        <ele>205.63</ele>
        <time>2024-06-24T18:29:17.429Z</time>
      </trkpt>
      <trkpt lat="46.76673" lon="-0.35297">
        <ele>205.89</ele>
        <time>2024-06-24T18:29:21.974Z</time>
      </trkpt>
      <trkpt lat="46.76669" lon="-0.35298">
        <ele>206.16</ele>
        <time>2024-06-24T18:29:26.520Z</time>
      </trkpt>
      <trkpt lat="46.76665" lon="-0.35298">
        <ele>206.42</ele>
        <time>2024-06-24T18:29:31.067Z</time>
      </trkpt>
      <trkpt lat="46.76661" lon="-0.35299">
        <ele>206.69</ele>
        <time>2024-06-24T18:29:35.615Z</time>
      </trkpt>
      <trkpt lat="46.76657" lon="-0.35299">
        <ele>206.96</ele>
        <time>2024-06-24T18:29:40.164Z</time>
      </trkpt>
      <trkpt lat="46.76652" lon="-0.353">
        <ele>207.24</ele>
        <time>2024-06-24T18:29:44.714Z</time>
      </trkpt>
      <trkpt lat="46.76648" lon="-0.35301">
        <ele>207.51</ele>
        <time>2024-06-24T18:29:49.264Z</time>
      </trkpt>
      <trkpt lat="46.76643" lon="-0.35302">
        <ele>207.79</ele>
        <time>2024-06-24T18:29:53.815Z</time>
      </trkpt>
      <trkpt lat="46.76639" lon="-0.35302">
        <ele>208.07</ele>
        <time>2024-06-24T18:29:58.367Z</time>
      </trkpt>
      <trkpt lat="46.76635" lon="-0.35303">
        <ele>208.35</ele>
        <time>2024-06-24T18:30:02.920Z</time>
      </trkpt>
      <trkpt lat="46.76631" lon="-0.35304">
        <ele>208.64</ele>
        <time>2024-06-24T18:30:07.474Z</time>
      </trkpt>
      <trkpt lat="46.76627" lon="-0.35305">
        <ele>208.92</ele>
        <time>2024-06-24T18:30:12.029Z</time>
      </trkpt>
      <trkpt lat="46.76623" lon="-0.35306">
        <ele>209.2</ele>
        <time>2024-06-24T18:30:16.585Z</time>
      </trkpt>
      <trkpt lat="46.76619" lon="-0.35308">
        <ele>209.48</ele>
        <time>2024-06-24T18:30:21.141Z</time>
      </trkpt>
      <trkpt lat="46.76615" lon="-0.35309">
        <ele>209.77</ele>
        <time>2024-06-24T18:30:25.698Z</time>
      </trkpt>
      <trkpt lat="46.76611" lon="-0.3531">
        <ele>210.06</ele>
        <time>2024-06-24T18:30:30.256Z</time>
      </trkpt>
      <trkpt lat="46.76607" lon="-0.35312">
        <ele>210.34</ele>
        <time>2024-06-24T18:30:34.815Z</time>
      </trkpt>
      <trkpt lat="46.76603" lon="-0.35313">
        <ele>210.62</ele>
        <time>2024-06-24T18:30:39.375Z</time>
      </trkpt>
      <trkpt lat="46.766" lon="-0.35314">
        <ele>210.9</ele>
        <time>2024-06-24T18:30:43.935Z</time>
      </trkpt>
      <trkpt lat="46.76595" lon="-0.35316">
        <ele>211.18</ele>
        <time>2024-06-24T18:30:48.496Z</time>
      </trkpt>
      <trkpt lat="46.76591" lon="-0.35317">
        <ele>211.46</ele>
        <time>2024-06-24T18:30:53.058Z</time>
      </trkpt>
      <trkpt lat="46.76587" lon="-0.35318">
        <ele>211.74</ele>
        <time>2024-06-24T18:30:57.621Z</time>
      </trkpt>
      <trkpt lat="46.76583" lon="-0.3532">
        <ele>212.01</ele>
        <time>2024-06-24T18:31:02.185Z</time>
      </trkpt>
      <trkpt lat="46.76579" lon="-0.35322">
        <ele>212.27</ele>
        <time>2024-06-24T18:31:06.750Z</time>
      </trkpt>
      <trkpt lat="46.76574" lon="-0.35324">
        <ele>212.54</ele>
        <time>2024-06-24T18:31:11.316Z</time>
      </trkpt>
      <trkpt lat="46.7657" lon="-0.35326">
        <ele>212.8</ele>
        <time>2024-06-24T18:31:15.882Z</time>
      </trkpt>
      <trkpt lat="46.76565" lon="-0.35327">
        <ele>213.06</ele>
        <time>2024-06-24T18:31:20.449Z</time>
      </trkpt>
      <trkpt lat="46.76561" lon="-0.35329">
        <ele>213.31</ele>
        <time>2024-06-24T18:31:25.017Z</time>
      </trkpt>
      <trkpt lat="46.76557" lon="-0.3533">
        <ele>213.56</ele>
        <time>2024-06-24T18:31:29.586Z</time>
      </trkpt>
      <trkpt lat="46.76553" lon="-0.35332">
        <ele>213.81</ele>
        <time>2024-06-24T18:31:34.156Z</time>
      </trkpt>
      <trkpt lat="46.76548" lon="-0.35333">
        <ele>214.05</ele>
        <time>2024-06-24T18:31:38.727Z</time>
      </trkpt>
      <trkpt lat="46.76544" lon="-0.35336">
        <ele>214.29</ele>
        <time>2024-06-24T18:31:43.299Z</time>
      </trkpt>
      <trkpt lat="46.7654" lon="-0.35338">
        <ele>214.52</ele>
        <time>2024-06-24T18:31:47.872Z</time>
      </trkpt>
      <trkpt lat="46.76537" lon="-0.3534">
        <ele>214.74</ele>
        <time>2024-06-24T18:31:52.445Z</time>
      </trkpt>
      <trkpt lat="46.76533" lon="-0.35342">
        <ele>214.96</ele>
        <time>2024-06-24T18:31:57.019Z</time>
      </trkpt>
      <trkpt lat="46.76529" lon="-0.35345">
        <ele>215.19</ele>
        <time>2024-06-24T18:32:01.594Z</time>
      </trkpt>
      <trkpt lat="46.76525" lon="-0.35348">
        <ele>215.4</ele>
        <time>2024-06-24T18:32:06.170Z</time>
      </trkpt>
      <trkpt lat="46.76521" lon="-0.35352">
        <ele>215.61</ele>
        <time>2024-06-24T18:32:10.747Z</time>
      </trkpt>
      <trkpt lat="46.76517" lon="-0.35356">
        <ele>215.81</ele>
        <time>2024-06-24T18:32:15.325Z</time>
      </trkpt>
      <trkpt lat="46.76514" lon="-0.3536">
        <ele>216</ele>
        <time>2024-06-24T18:32:19.904Z</time>
      </trkpt>
      <trkpt lat="46.76511" lon="-0.35365">
        <ele>216.18</ele>
        <time>2024-06-24T18:32:24.484Z</time>
      </trkpt>
      <trkpt lat="46.76508" lon="-0.3537">
        <ele>216.36</ele>
        <time>2024-06-24T18:32:29.065Z</time>
      </trkpt>
      <trkpt lat="46.76505" lon="-0.35375">
        <ele>216.53</ele>
        <time>2024-06-24T18:32:33.647Z</time>
      </trkpt>
      <trkpt lat="46.76502" lon="-0.3538">
        <ele>216.69</ele>
        <time>2024-06-24T18:32:38.229Z</time>
      </trkpt>
      <trkpt lat="46.765" lon="-0.35385">
        <ele>216.84</ele>
        <time>2024-06-24T18:32:42.812Z</time>
      </trkpt>
      <trkpt lat="46.76497" lon="-0.35391">
        <ele>216.98</ele>
        <time>2024-06-24T18:32:47.396Z</time>
      </trkpt>
      <trkpt lat="46.76495" lon="-0.35398">
        <ele>217.12</ele>
        <time>2024-06-24T18:32:51.981Z</time>
      </trkpt>
      <trkpt lat="46.76492" lon="-0.35403">
        <ele>217.24</ele>
        <time>2024-06-24T18:32:56.567Z</time>
      </trkpt>
      <trkpt lat="46.7649" lon="-0.35409">
        <ele>217.35</ele>
        <time>2024-06-24T18:33:01.154Z</time>
      </trkpt>
      <trkpt lat="46.76488" lon="-0.35416">
        <ele>217.45</ele>
        <time>2024-06-24T18:33:05.742Z</time>
      </trkpt>
      <trkpt lat="46.76485" lon="-0.35423">
        <ele>217.55</ele>
        <time>2024-06-24T18:33:10.331Z</time>
      </trkpt>
      <trkpt lat="46.76483" lon="-0.3543">
        <ele>217.64</ele>
        <time>2024-06-24T18:33:14.921Z</time>
      </trkpt>
      <trkpt lat="46.76481" lon="-0.35437">
        <ele>217.72</ele>
        <time>2024-06-24T18:33:19.512Z</time>
      </trkpt>
      <trkpt lat="46.76478" lon="-0.35444">
        <ele>217.79</ele>
        <time>2024-06-24T18:33:24.104Z</time>
      </trkpt>
      <trkpt lat="46.76476" lon="-0.3545">
        <ele>217.84</ele>
        <time>2024-06-24T18:33:28.697Z</time>
      </trkpt>
      <trkpt lat="46.76474" lon="-0.35457">
        <ele>217.89</ele>
        <time>2024-06-24T18:33:33.291Z</time>
      </trkpt>
      <trkpt lat="46.76472" lon="-0.35463">
        <ele>217.93</ele>
        <time>2024-06-24T18:33:37.886Z</time>
      </trkpt>
      <trkpt lat="46.7647" lon="-0.3547">
        <ele>217.96</ele>
        <time>2024-06-24T18:33:42.482Z</time>
      </trkpt>
      <trkpt lat="46.76468" lon="-0.35477">
        <ele>217.99</ele>
        <time>2024-06-24T18:33:47.079Z</time>
      </trkpt>
      <trkpt lat="46.76466" lon="-0.35484">
        <ele>218</ele>
        <time>2024-06-24T18:33:51.677Z</time>
      </trkpt>
      <trkpt lat="46.76464" lon="-0.3549">
        <ele>218.01</ele>
        <time>2024-06-24T18:33:56.276Z</time>
      </trkpt>
      <trkpt lat="46.76461" lon="-0.35497">
        <ele>218</ele>
        <time>2024-06-24T18:34:00.876Z</time>
      </trkpt>
      <trkpt lat="46.76459" lon="-0.35504">
        <ele>217.99</ele>
        <time>2024-06-24T18:34:05.478Z</time>
      </trkpt>
      <trkpt lat="46.76456" lon="-0.35511">
        <ele>217.98</ele>
        <time>2024-06-24T18:34:10.081Z</time>
      </trkpt>
      <trkpt lat="46.76454" lon="-0.35518">
        <ele>217.95</ele>
        <time>2024-06-24T18:34:14.685Z</time>
      </trkpt>
      <trkpt lat="46.76452" lon="-0.35524">
        <ele>217.92</ele>
        <time>2024-06-24T18:34:19.290Z</time>
      </trkpt>
      <trkpt lat="46.7645" lon="-0.35531">
        <ele>217.87</ele>
        <time>2024-06-24T18:34:23.896Z</time>
      </trkpt>
      <trkpt lat="46.76448" lon="-0.35539">
        <ele>217.82</ele>
        <time>2024-06-24T18:34:28.503Z</time>
      </trkpt>
      <trkpt lat="46.76446" lon="-0.35545">
        <ele>217.77</ele>
        <time>2024-06-24T18:34:33.111Z</time>
      </trkpt>
      <trkpt lat="46.76444" lon="-0.35553">
        <ele>217.7</ele>
        <time>2024-06-24T18:34:37.720Z</time>
      </trkpt>
      <trkpt lat="46.76443" lon="-0.35561">
        <ele>217.63</ele>
        <time>2024-06-24T18:34:42.330Z</time>
      </trkpt>
      <trkpt lat="46.76442" lon="-0.35568">
        <ele>217.55</ele>
        <time>2024-06-24T18:34:46.941Z</time>
      </trkpt>
      <trkpt lat="46.76442" lon="-0.35576">
        <ele>217.47</ele>
        <time>2024-06-24T18:34:51.553Z</time>
      </trkpt>
      <trkpt lat="46.76441" lon="-0.35583">
        <ele>217.38</ele>
        <time>2024-06-24T18:34:56.166Z</time>
      </trkpt>
      <trkpt lat="46.76441" lon="-0.3559">
        <ele>217.29</ele>
        <time>2024-06-24T18:35:00.780Z</time>
      </trkpt>
      <trkpt lat="46.76441" lon="-0.35598">
        <ele>217.2</ele>
        <time>2024-06-24T18:35:05.395Z</time>
      </trkpt>
      <trkpt lat="46.76442" lon="-0.35605">
        <ele>217.1</ele>
        <time>2024-06-24T18:35:10.011Z</time>
      </trkpt>
      <trkpt lat="46.76443" lon="-0.35613">
        <ele>217</ele>
        <time>2024-06-24T18:35:14.628Z</time>
      </trkpt>
      <trkpt lat="46.76443" lon="-0.35621">
        <ele>216.9</ele>
        <time>2024-06-24T18:35:19.246Z</time>
      </trkpt>
      <trkpt lat="46.76444" lon="-0.35629">
        <ele>216.79</ele>
        <time>2024-06-24T18:35:23.865Z</time>
      </trkpt>
      <trkpt lat="46.76445" lon="-0.35636">
        <ele>216.68</ele>
        <time>2024-06-24T18:35:28.485Z</time>
      </trkpt>
      <trkpt lat="46.76447" lon="-0.35642">
        <ele>216.56</ele>
        <time>2024-06-24T18:35:33.106Z</time>
      </trkpt>
      <trkpt lat="46.76447" lon="-0.35649">
        <ele>216.44</ele>
        <time>2024-06-24T18:35:37.728Z</time>
      </trkpt>
      <trkpt lat="46.76448" lon="-0.35655">
        <ele>216.31</ele>
        <time>2024-06-24T18:35:42.351Z</time>
      </trkpt>
      <trkpt lat="46.76449" lon="-0.35663">
        <ele>216.18</ele>
        <time>2024-06-24T18:35:46.975Z</time>
      </trkpt>
      <trkpt lat="46.76452" lon="-0.35672">
        <ele>216.05</ele>
        <time>2024-06-24T18:35:51.600Z</time>
      </trkpt>
      <trkpt lat="46.76453" lon="-0.3568">
        <ele>215.91</ele>
        <time>2024-06-24T18:35:56.227Z</time>
      </trkpt>
      <trkpt lat="46.76454" lon="-0.35688">
        <ele>215.76</ele>
        <time>2024-06-24T18:36:00.855Z</time>
      </trkpt>
      <trkpt lat="46.76456" lon="-0.35697">
        <ele>215.62</ele>
        <time>2024-06-24T18:36:05.484Z</time>
      </trkpt>
      <trkpt lat="46.76458" lon="-0.35706">
        <ele>215.47</ele>
        <time>2024-06-24T18:36:10.114Z</time>
      </trkpt>
      <trkpt lat="46.76459" lon="-0.35715">
        <ele>215.32</ele>
        <time>2024-06-24T18:36:14.746Z</time>
      </trkpt>
      <trkpt lat="46.76461" lon="-0.35724">
        <ele>215.17</ele>
        <time>2024-06-24T18:36:19.379Z</time>
      </trkpt>
      <trkpt lat="46.76462" lon="-0.35734">
        <ele>215.02</ele>
        <time>2024-06-24T18:36:24.013Z</time>
      </trkpt>
      <trkpt lat="46.76464" lon="-0.35744">
        <ele>214.87</ele>
        <time>2024-06-24T18:36:28.649Z</time>
      </trkpt>
      <trkpt lat="46.76465" lon="-0.35753">
        <ele>214.73</ele>
        <time>2024-06-24T18:36:33.286Z</time>
      </trkpt>
      <trkpt lat="46.76465" lon="-0.35762">
        <ele>214.58</ele>
        <time>2024-06-24T18:36:37.924Z</time>
      </trkpt>
      <trkpt lat="46.76466" lon="-0.35771">
        <ele>214.43</ele>
        <time>2024-06-24T18:36:42.563Z</time>
      </trkpt>
      <trkpt lat="46.76466" lon="-0.3578">
        <ele>214.28</ele>
        <time>2024-06-24T18:36:47.204Z</time>
      </trkpt>
      <trkpt lat="46.76467" lon="-0.35789">
        <ele>214.13</ele>
        <time>2024-06-24T18:36:51.846Z</time>
      </trkpt>
      <trkpt lat="46.76467" lon="-0.35798">
        <ele>213.97</ele>
        <time>2024-06-24T18:36:56.489Z</time>
      </trkpt>
      <trkpt lat="46.76467" lon="-0.35807">
        <ele>213.82</ele>
        <time>2024-06-24T18:37:01.133Z</time>
      </trkpt>
      <trkpt lat="46.76467" lon="-0.35816">
        <ele>213.67</ele>
        <time>2024-06-24T18:37:05.779Z</time>
      </trkpt>
      <trkpt lat="46.76467" lon="-0.35826">
        <ele>213.52</ele>
        <time>2024-06-24T18:37:10.426Z</time>
      </trkpt>
      <trkpt lat="46.76467" lon="-0.35835">
        <ele>213.37</ele>
        <time>2024-06-24T18:37:15.074Z</time>
      </trkpt>
      <trkpt lat="46.76467" lon="-0.35845">
        <ele>213.21</ele>
        <time>2024-06-24T18:37:19.724Z</time>
      </trkpt>
      <trkpt lat="46.76467" lon="-0.35855">
        <ele>213.06</ele>
        <time>2024-06-24T18:37:24.375Z</time>
      </trkpt>
      <trkpt lat="46.76467" lon="-0.35864">
        <ele>212.91</ele>
        <time>2024-06-24T18:37:29.027Z</time>
      </trkpt>
      <trkpt lat="46.76468" lon="-0.35873">
        <ele>212.77</ele>
        <time>2024-06-24T18:37:33.681Z</time>
      </trkpt>
      <trkpt lat="46.76468" lon="-0.35882">
        <ele>212.62</ele>
        <time>2024-06-24T18:37:38.336Z</time>
      </trkpt>
      <trkpt lat="46.76468" lon="-0.35891">
        <ele>212.48</ele>
        <time>2024-06-24T18:37:42.992Z</time>
      </trkpt>
      <trkpt lat="46.76468" lon="-0.359">
        <ele>212.33</ele>
        <time>2024-06-24T18:37:47.649Z</time>
      </trkpt>
      <trkpt lat="46.76468" lon="-0.35909">
        <ele>212.18</ele>
        <time>2024-06-24T18:37:52.308Z</time>
      </trkpt>
      <trkpt lat="46.76468" lon="-0.35917">
        <ele>212.04</ele>
        <time>2024-06-24T18:37:56.968Z</time>
      </trkpt>
      <trkpt lat="46.76467" lon="-0.35925">
        <ele>211.9</ele>
        <time>2024-06-24T18:38:01.629Z</time>
      </trkpt>
      <trkpt lat="46.76468" lon="-0.35934">
        <ele>211.75</ele>
        <time>2024-06-24T18:38:06.291Z</time>
      </trkpt>
      <trkpt lat="46.76469" lon="-0.35941">
        <ele>211.6</ele>
        <time>2024-06-24T18:38:10.954Z</time>
      </trkpt>
      <trkpt lat="46.76469" lon="-0.35951">
        <ele>211.44</ele>
        <time>2024-06-24T18:38:15.618Z</time>
      </trkpt>
      <trkpt lat="46.76469" lon="-0.3596">
        <ele>211.29</ele>
        <time>2024-06-24T18:38:20.284Z</time>
      </trkpt>
      <trkpt lat="46.76469" lon="-0.3597">
        <ele>211.14</ele>
        <time>2024-06-24T18:38:24.951Z</time>
      </trkpt>
      <trkpt lat="46.76469" lon="-0.3598">
        <ele>210.99</ele>
        <time>2024-06-24T18:38:29.619Z</time>
      </trkpt>
      <trkpt lat="46.76469" lon="-0.35988">
        <ele>210.84</ele>
        <time>2024-06-24T18:38:34.288Z</time>
      </trkpt>
      <trkpt lat="46.76468" lon="-0.35998">
        <ele>210.69</ele>
        <time>2024-06-24T18:38:38.959Z</time>
      </trkpt>
      <trkpt lat="46.76468" lon="-0.36006">
        <ele>210.53</ele>
        <time>2024-06-24T18:38:43.631Z</time>
      </trkpt>
      <trkpt lat="46.76468" lon="-0.36015">
        <ele>210.38</ele>
        <time>2024-06-24T18:38:48.304Z</time>
      </trkpt>
      <trkpt lat="46.76469" lon="-0.36024">
        <ele>210.22</ele>
        <time>2024-06-24T18:38:52.978Z</time>
      </trkpt>
      <trkpt lat="46.76469" lon="-0.36032">
        <ele>210.06</ele>
        <time>2024-06-24T18:38:57.653Z</time>
      </trkpt>
      <trkpt lat="46.76469" lon="-0.36041">
        <ele>209.9</ele>
        <time>2024-06-24T18:39:02.330Z</time>
      </trkpt>
      <trkpt lat="46.76469" lon="-0.36049">
        <ele>209.74</ele>
        <time>2024-06-24T18:39:07.008Z</time>
      </trkpt>
      <trkpt lat="46.76469" lon="-0.36059">
        <ele>209.57</ele>
        <time>2024-06-24T18:39:11.687Z</time>
      </trkpt>
      <trkpt lat="46.76469" lon="-0.36068">
        <ele>209.41</ele>
        <time>2024-06-24T18:39:16.367Z</time>
      </trkpt>
      <trkpt lat="46.7647" lon="-0.36076">
        <ele>209.24</ele>
        <time>2024-06-24T18:39:21.048Z</time>
      </trkpt>
      <trkpt lat="46.7647" lon="-0.36085">
        <ele>209.06</ele>
        <time>2024-06-24T18:39:25.731Z</time>
      </trkpt>
      <trkpt lat="46.7647" lon="-0.36093">
        <ele>208.89</ele>
        <time>2024-06-24T18:39:30.415Z</time>
      </trkpt>
      <trkpt lat="46.7647" lon="-0.36103">
        <ele>208.71</ele>
        <time>2024-06-24T18:39:35.100Z</time>
      </trkpt>
      <trkpt lat="46.7647" lon="-0.36111">
        <ele>208.52</ele>
        <time>2024-06-24T18:39:39.786Z</time>
      </trkpt>
      <trkpt lat="46.7647" lon="-0.36119">
        <ele>208.33</ele>
        <time>2024-06-24T18:39:44.473Z</time>
      </trkpt>
      <trkpt lat="46.76471" lon="-0.36128">
        <ele>208.14</ele>
        <time>2024-06-24T18:39:49.162Z</time>
      </trkpt>
      <trkpt lat="46.76471" lon="-0.36137">
        <ele>207.95</ele>
        <time>2024-06-24T18:39:53.852Z</time>
      </trkpt>
      <trkpt lat="46.76472" lon="-0.36145">
        <ele>207.74</ele>
        <time>2024-06-24T18:39:58.543Z</time>
      </trkpt>
      <trkpt lat="46.76473" lon="-0.36154">
        <ele>207.53</ele>
        <time>2024-06-24T18:40:03.235Z</time>
      </trkpt>
      <trkpt lat="46.76474" lon="-0.36164">
        <ele>207.31</ele>
        <time>2024-06-24T18:40:07.929Z</time>
      </trkpt>
      <trkpt lat="46.76476" lon="-0.36173">
        <ele>207.1</ele>
        <time>2024-06-24T18:40:12.624Z</time>
      </trkpt>
      <trkpt lat="46.76479" lon="-0.36182">
        <ele>206.88</ele>
        <time>2024-06-24T18:40:17.320Z</time>
      </trkpt>
      <trkpt lat="46.76481" lon="-0.36191">
        <ele>206.65</ele>
        <time>2024-06-24T18:40:22.018Z</time>
      </trkpt>
      <trkpt lat="46.76485" lon="-0.36201">
        <ele>206.42</ele>
        <time>2024-06-24T18:40:26.717Z</time>
      </trkpt>
      <trkpt lat="46.76489" lon="-0.3621">
        <ele>206.18</ele>
        <time>2024-06-24T18:40:31.418Z</time>
      </trkpt>
      <trkpt lat="46.76493" lon="-0.36219">
        <ele>205.91</ele>
        <time>2024-06-24T18:40:36.120Z</time>
      </trkpt>
      <trkpt lat="46.76497" lon="-0.36228">
        <ele>205.64</ele>
        <time>2024-06-24T18:40:40.824Z</time>
      </trkpt>
      <trkpt lat="46.76503" lon="-0.36238">
        <ele>205.37</ele>
        <time>2024-06-24T18:40:45.529Z</time>
      </trkpt>
      <trkpt lat="46.76508" lon="-0.36247">
        <ele>205.11</ele>
        <time>2024-06-24T18:40:50.236Z</time>
      </trkpt>
      <trkpt lat="46.76514" lon="-0.36256">
        <ele>204.82</ele>
        <time>2024-06-24T18:40:54.945Z</time>
      </trkpt>
      <trkpt lat="46.76519" lon="-0.36266">
        <ele>204.54</ele>
        <time>2024-06-24T18:40:59.655Z</time>
      </trkpt>
      <trkpt lat="46.76524" lon="-0.36276">
        <ele>204.27</ele>
        <time>2024-06-24T18:41:04.367Z</time>
      </trkpt>
      <trkpt lat="46.76529" lon="-0.36286">
        <ele>203.99</ele>
        <time>2024-06-24T18:41:09.081Z</time>
      </trkpt>
      <trkpt lat="46.76535" lon="-0.36297">
        <ele>203.72</ele>
        <time>2024-06-24T18:41:13.797Z</time>
      </trkpt>
      <trkpt lat="46.76541" lon="-0.36308">
        <ele>203.44</ele>
        <time>2024-06-24T18:41:18.515Z</time>
      </trkpt>
      <trkpt lat="46.76547" lon="-0.3632">
        <ele>203.16</ele>
        <time>2024-06-24T18:41:23.235Z</time>
      </trkpt>
      <trkpt lat="46.76553" lon="-0.36332">
        <ele>202.89</ele>
        <time>2024-06-24T18:41:27.957Z</time>
      </trkpt>
      <trkpt lat="46.76559" lon="-0.36343">
        <ele>202.62</ele>
        <time>2024-06-24T18:41:32.681Z</time>
      </trkpt>
      <trkpt lat="46.76565" lon="-0.36354">
        <ele>202.36</ele>
        <time>2024-06-24T18:41:37.407Z</time>
      </trkpt>
      <trkpt lat="46.76571" lon="-0.36365">
        <ele>202.1</ele>
        <time>2024-06-24T18:41:42.134Z</time>
      </trkpt>
      <trkpt lat="46.76576" lon="-0.36375">
        <ele>201.85</ele>
        <time>2024-06-24T18:41:46.863Z</time>
      </trkpt>
      <trkpt lat="46.76582" lon="-0.36385">
        <ele>201.62</ele>
        <time>2024-06-24T18:41:51.594Z</time>
      </trkpt>
      <trkpt lat="46.76587" lon="-0.36396">
        <ele>201.38</ele>
        <time>2024-06-24T18:41:56.327Z</time>
      </trkpt>
      <trkpt lat="46.76593" lon="-0.36406">
        <ele>201.13</ele>
        <time>2024-06-24T18:42:01.062Z</time>
      </trkpt>
      <trkpt lat="46.76597" lon="-0.36417">
        <ele>200.89</ele>
        <time>2024-06-24T18:42:05.798Z</time>
      </trkpt>
      <trkpt lat="46.76601" lon="-0.36428">
        <ele>200.66</ele>
        <time>2024-06-24T18:42:10.536Z</time>
      </trkpt>
      <trkpt lat="46.76603" lon="-0.36439">
        <ele>200.44</ele>
        <time>2024-06-24T18:42:15.276Z</time>
      </trkpt>
      <trkpt lat="46.76606" lon="-0.36452">
        <ele>200.21</ele>
        <time>2024-06-24T18:42:20.017Z</time>
      </trkpt>
      <trkpt lat="46.76607" lon="-0.36463">
        <ele>200.01</ele>
        <time>2024-06-24T18:42:24.760Z</time>
      </trkpt>
      <trkpt lat="46.76609" lon="-0.36475">
        <ele>199.81</ele>
        <time>2024-06-24T18:42:29.505Z</time>
      </trkpt>
      <trkpt lat="46.7661" lon="-0.36487">
        <ele>199.61</ele>
        <time>2024-06-24T18:42:34.251Z</time>
      </trkpt>
      <trkpt lat="46.7661" lon="-0.36498">
        <ele>199.42</ele>
        <time>2024-06-24T18:42:38.999Z</time>
      </trkpt>
      <trkpt lat="46.7661" lon="-0.3651">
        <ele>199.22</ele>
        <time>2024-06-24T18:42:43.749Z</time>
      </trkpt>
      <trkpt lat="46.76611" lon="-0.36521">
        <ele>199.03</ele>
        <time>2024-06-24T18:42:48.500Z</time>
      </trkpt>
      <trkpt lat="46.76611" lon="-0.36533">
        <ele>198.85</ele>
        <time>2024-06-24T18:42:53.253Z</time>
      </trkpt>
      <trkpt lat="46.76612" lon="-0.36544">
        <ele>198.67</ele>
        <time>2024-06-24T18:42:58.007Z</time>
      </trkpt>
      <trkpt lat="46.76612" lon="-0.36555">
        <ele>198.5</ele>
        <time>2024-06-24T18:43:02.763Z</time>
      </trkpt>
      <trkpt lat="46.76613" lon="-0.36566">
        <ele>198.34</ele>
        <time>2024-06-24T18:43:07.520Z</time>
      </trkpt>
      <trkpt lat="46.76613" lon="-0.36576">
        <ele>198.19</ele>
        <time>2024-06-24T18:43:12.279Z</time>
      </trkpt>
      <trkpt lat="46.76613" lon="-0.36587">
        <ele>198.04</ele>
        <time>2024-06-24T18:43:17.039Z</time>
      </trkpt>
      <trkpt lat="46.76614" lon="-0.36597">
        <ele>197.91</ele>
        <time>2024-06-24T18:43:21.801Z</time>
      </trkpt>
      <trkpt lat="46.76616" lon="-0.36606">
        <ele>197.78</ele>
        <time>2024-06-24T18:43:26.564Z</time>
      </trkpt>
      <trkpt lat="46.76617" lon="-0.36616">
        <ele>197.66</ele>
        <time>2024-06-24T18:43:31.328Z</time>
      </trkpt>
      <trkpt lat="46.76619" lon="-0.36626">
        <ele>197.54</ele>
        <time>2024-06-24T18:43:36.094Z</time>
      </trkpt>
      <trkpt lat="46.7662" lon="-0.36635">
        <ele>197.43</ele>
        <time>2024-06-24T18:43:40.861Z</time>
      </trkpt>
      <trkpt lat="46.76622" lon="-0.36645">
        <ele>197.34</ele>
        <time>2024-06-24T18:43:45.629Z</time>
      </trkpt>
      <trkpt lat="46.76624" lon="-0.36654">
        <ele>197.25</ele>
        <time>2024-06-24T18:43:50.399Z</time>
      </trkpt>
      <trkpt lat="46.76626" lon="-0.36662">
        <ele>197.17</ele>
        <time>2024-06-24T18:43:55.170Z</time>
      </trkpt>
      <trkpt lat="46.76627" lon="-0.36669">
        <ele>197.09</ele>
        <time>2024-06-24T18:43:59.942Z</time>
      </trkpt>
      <trkpt lat="46.76629" lon="-0.36678">
        <ele>197.02</ele>
        <time>2024-06-24T18:44:04.715Z</time>
      </trkpt>
      <trkpt lat="46.76632" lon="-0.36686">
        <ele>196.96</ele>
        <time>2024-06-24T18:44:09.489Z</time>
      </trkpt>
      <trkpt lat="46.76634" lon="-0.36694">
        <ele>196.9</ele>
        <time>2024-06-24T18:44:14.264Z</time>
      </trkpt>
      <trkpt lat="46.76636" lon="-0.36702">
        <ele>196.84</ele>
        <time>2024-06-24T18:44:19.041Z</time>
      </trkpt>
      <trkpt lat="46.76638" lon="-0.3671">
        <ele>196.79</ele>
        <time>2024-06-24T18:44:23.819Z</time>
      </trkpt>
      <trkpt lat="46.76641" lon="-0.36717">
        <ele>196.74</ele>
        <time>2024-06-24T18:44:28.598Z</time>
      </trkpt>
      <trkpt lat="46.76643" lon="-0.36725">
        <ele>196.69</ele>
        <time>2024-06-24T18:44:33.378Z</time>
      </trkpt>
      <trkpt lat="46.76645" lon="-0.36732">
        <ele>196.65</ele>
        <time>2024-06-24T18:44:38.159Z</time>
      </trkpt>
      <trkpt lat="46.76647" lon="-0.36739">
        <ele>196.6</ele>
        <time>2024-06-24T18:44:42.941Z</time>
      </trkpt>
      <trkpt lat="46.76649" lon="-0.36746">
        <ele>196.56</ele>
        <time>2024-06-24T18:44:47.724Z</time>
      </trkpt>
      <trkpt lat="46.76651" lon="-0.36753">
        <ele>196.53</ele>
        <time>2024-06-24T18:44:52.508Z</time>
      </trkpt>
      <trkpt lat="46.76653" lon="-0.3676">
        <ele>196.51</ele>
        <time>2024-06-24T18:44:57.293Z</time>
      </trkpt>
      <trkpt lat="46.76656" lon="-0.36767">
        <ele>196.48</ele>
        <time>2024-06-24T18:45:02.079Z</time>
      </trkpt>
      <trkpt lat="46.76658" lon="-0.36774">
        <ele>196.46</ele>
        <time>2024-06-24T18:45:06.866Z</time>
      </trkpt>
      <trkpt lat="46.7666" lon="-0.36782">
        <ele>196.43</ele>
        <time>2024-06-24T18:45:11.655Z</time>
      </trkpt>
      <trkpt lat="46.76662" lon="-0.36789">
        <ele>196.41</ele>
        <time>2024-06-24T18:45:16.445Z</time>
      </trkpt>
      <trkpt lat="46.76663" lon="-0.36797">
        <ele>196.39</ele>
        <time>2024-06-24T18:45:21.236Z</time>
      </trkpt>
      <trkpt lat="46.76665" lon="-0.36804">
        <ele>196.37</ele>
        <time>2024-06-24T18:45:26.028Z</time>
      </trkpt>
      <trkpt lat="46.76667" lon="-0.36812">
        <ele>196.36</ele>
        <time>2024-06-24T18:45:30.821Z</time>
      </trkpt>
      <trkpt lat="46.76669" lon="-0.3682">
        <ele>196.35</ele>
        <time>2024-06-24T18:45:35.615Z</time>
      </trkpt>
      <trkpt lat="46.76671" lon="-0.36828">
        <ele>196.34</ele>
        <time>2024-06-24T18:45:40.410Z</time>
      </trkpt>
      <trkpt lat="46.76672" lon="-0.36836">
        <ele>196.32</ele>
        <time>2024-06-24T18:45:45.207Z</time>
      </trkpt>
      <trkpt lat="46.76674" lon="-0.36845">
        <ele>196.31</ele>
        <time>2024-06-24T18:45:50.005Z</time>
      </trkpt>
      <trkpt lat="46.76676" lon="-0.36854">
        <ele>196.3</ele>
        <time>2024-06-24T18:45:54.804Z</time>
      </trkpt>
      <trkpt lat="46.76677" lon="-0.36862">
        <ele>196.29</ele>
        <time>2024-06-24T18:45:59.604Z</time>
      </trkpt>
      <trkpt lat="46.76678" lon="-0.36871">
        <ele>196.29</ele>
        <time>2024-06-24T18:46:04.406Z</time>
      </trkpt>
      <trkpt lat="46.7668" lon="-0.3688">
        <ele>196.28</ele>
        <time>2024-06-24T18:46:09.209Z</time>
      </trkpt>
      <trkpt lat="46.76682" lon="-0.36889">
        <ele>196.28</ele>
        <time>2024-06-24T18:46:14.013Z</time>
      </trkpt>
      <trkpt lat="46.76683" lon="-0.36898">
        <ele>196.29</ele>
        <time>2024-06-24T18:46:18.818Z</time>
      </trkpt>
      <trkpt lat="46.76685" lon="-0.36907">
        <ele>196.29</ele>
        <time>2024-06-24T18:46:23.625Z</time>
      </trkpt>
      <trkpt lat="46.76687" lon="-0.36917">
        <ele>196.3</ele>
        <time>2024-06-24T18:46:28.433Z</time>
      </trkpt>
      <trkpt lat="46.76689" lon="-0.36927">
        <ele>196.31</ele>
        <time>2024-06-24T18:46:33.242Z</time>
      </trkpt>
      <trkpt lat="46.7669" lon="-0.36938">
        <ele>196.33</ele>
        <time>2024-06-24T18:46:38.053Z</time>
      </trkpt>
      <trkpt lat="46.76692" lon="-0.36948">
        <ele>196.36</ele>
        <time>2024-06-24T18:46:42.865Z</time>
      </trkpt>
      <trkpt lat="46.76694" lon="-0.36958">
        <ele>196.39</ele>
        <time>2024-06-24T18:46:47.679Z</time>
      </trkpt>
      <trkpt lat="46.76696" lon="-0.36969">
        <ele>196.43</ele>
        <time>2024-06-24T18:46:52.494Z</time>
      </trkpt>
      <trkpt lat="46.76698" lon="-0.36979">
        <ele>196.47</ele>
        <time>2024-06-24T18:46:57.311Z</time>
      </trkpt>
      <trkpt lat="46.767" lon="-0.36989">
        <ele>196.51</ele>
        <time>2024-06-24T18:47:02.129Z</time>
      </trkpt>
      <trkpt lat="46.76702" lon="-0.37">
        <ele>196.56</ele>
        <time>2024-06-24T18:47:06.949Z</time>
      </trkpt>
      <trkpt lat="46.76704" lon="-0.37011">
        <ele>196.61</ele>
        <time>2024-06-24T18:47:11.770Z</time>
      </trkpt>
      <trkpt lat="46.76706" lon="-0.37021">
        <ele>196.67</ele>
        <time>2024-06-24T18:47:16.593Z</time>
      </trkpt>
      <trkpt lat="46.76708" lon="-0.37031">
        <ele>196.72</ele>
        <time>2024-06-24T18:47:21.417Z</time>
      </trkpt>
      <trkpt lat="46.7671" lon="-0.37041">
        <ele>196.77</ele>
        <time>2024-06-24T18:47:26.243Z</time>
      </trkpt>
      <trkpt lat="46.76712" lon="-0.37051">
        <ele>196.84</ele>
        <time>2024-06-24T18:47:31.070Z</time>
      </trkpt>
      <trkpt lat="46.76715" lon="-0.37061">
        <ele>196.92</ele>
        <time>2024-06-24T18:47:35.899Z</time>
      </trkpt>
      <trkpt lat="46.76718" lon="-0.37071">
        <ele>196.99</ele>
        <time>2024-06-24T18:47:40.729Z</time>
      </trkpt>
      <trkpt lat="46.76722" lon="-0.3708">
        <ele>197.07</ele>
        <time>2024-06-24T18:47:45.561Z</time>
      </trkpt>
      <trkpt lat="46.76727" lon="-0.37088">
        <ele>197.15</ele>
        <time>2024-06-24T18:47:50.394Z</time>
      </trkpt>
      <trkpt lat="46.76732" lon="-0.37095">
        <ele>197.24</ele>
        <time>2024-06-24T18:47:55.228Z</time>
      </trkpt>
      <trkpt lat="46.76737" lon="-0.37101">
        <ele>197.34</ele>
        <time>2024-06-24T18:48:00.064Z</time>
      </trkpt>
      <trkpt lat="46.76742" lon="-0.37107">
        <ele>197.45</ele>
        <time>2024-06-24T18:48:04.901Z</time>
      </trkpt>
      <trkpt lat="46.76747" lon="-0.37113">
        <ele>197.55</ele>
        <time>2024-06-24T18:48:09.739Z</time>
      </trkpt>
      <trkpt lat="46.76752" lon="-0.37119">
        <ele>197.67</ele>
        <time>2024-06-24T18:48:14.579Z</time>
      </trkpt>
      <trkpt lat="46.76757" lon="-0.37124">
        <ele>197.78</ele>
        <time>2024-06-24T18:48:19.420Z</time>
      </trkpt>
      <trkpt lat="46.76762" lon="-0.37129">
        <ele>197.91</ele>
        <time>2024-06-24T18:48:24.262Z</time>
      </trkpt>
      <trkpt lat="46.76767" lon="-0.37134">
        <ele>198.03</ele>
        <time>2024-06-24T18:48:29.105Z</time>
      </trkpt>
      <trkpt lat="46.76772" lon="-0.37139">
        <ele>198.16</ele>
        <time>2024-06-24T18:48:33.950Z</time>
      </trkpt>
      <trkpt lat="46.76777" lon="-0.37143">
        <ele>198.3</ele>
        <time>2024-06-24T18:48:38.796Z</time>
      </trkpt>
      <trkpt lat="46.76781" lon="-0.37148">
        <ele>198.44</ele>
        <time>2024-06-24T18:48:43.643Z</time>
      </trkpt>
      <trkpt lat="46.76785" lon="-0.37152">
        <ele>198.58</ele>
        <time>2024-06-24T18:48:48.491Z</time>
      </trkpt>
      <trkpt lat="46.76789" lon="-0.37157">
        <ele>198.72</ele>
        <time>2024-06-24T18:48:53.340Z</time>
      </trkpt>
      <trkpt lat="46.76794" lon="-0.37161">
        <ele>198.86</ele>
        <time>2024-06-24T18:48:58.190Z</time>
      </trkpt>
      <trkpt lat="46.76798" lon="-0.37166">
        <ele>199</ele>
        <time>2024-06-24T18:49:03.041Z</time>
      </trkpt>
      <trkpt lat="46.76802" lon="-0.3717">
        <ele>199.15</ele>
        <time>2024-06-24T18:49:07.893Z</time>
      </trkpt>
      <trkpt lat="46.76806" lon="-0.37174">
        <ele>199.3</ele>
        <time>2024-06-24T18:49:12.746Z</time>
      </trkpt>
      <trkpt lat="46.7681" lon="-0.37179">
        <ele>199.45</ele>
        <time>2024-06-24T18:49:17.600Z</time>
      </trkpt>
      <trkpt lat="46.76814" lon="-0.37183">
        <ele>199.61</ele>
        <time>2024-06-24T18:49:22.455Z</time>
      </trkpt>
      <trkpt lat="46.76819" lon="-0.37188">
        <ele>199.76</ele>
        <time>2024-06-24T18:49:27.311Z</time>
      </trkpt>
      <trkpt lat="46.76822" lon="-0.37192">
        <ele>199.92</ele>
        <time>2024-06-24T18:49:32.168Z</time>
      </trkpt>
      <trkpt lat="46.76826" lon="-0.37196">
        <ele>200.08</ele>
        <time>2024-06-24T18:49:37.026Z</time>
      </trkpt>
      <trkpt lat="46.76829" lon="-0.37201">
        <ele>200.25</ele>
        <time>2024-06-24T18:49:41.885Z</time>
      </trkpt>
      <trkpt lat="46.76833" lon="-0.37206">
        <ele>200.41</ele>
        <time>2024-06-24T18:49:46.745Z</time>
      </trkpt>
      <trkpt lat="46.76835" lon="-0.37211">
        <ele>200.57</ele>
        <time>2024-06-24T18:49:51.606Z</time>
      </trkpt>
      <trkpt lat="46.76838" lon="-0.37216">
        <ele>200.73</ele>
        <time>2024-06-24T18:49:56.468Z</time>
      </trkpt>
      <trkpt lat="46.76841" lon="-0.3722">
        <ele>200.89</ele>
        <time>2024-06-24T18:50:01.330Z</time>
      </trkpt>
      <trkpt lat="46.76844" lon="-0.37225">
        <ele>201.05</ele>
        <time>2024-06-24T18:50:06.193Z</time>
      </trkpt>
      <trkpt lat="46.76846" lon="-0.3723">
        <ele>201.21</ele>
        <time>2024-06-24T18:50:11.057Z</time>
      </trkpt>
      <trkpt lat="46.76849" lon="-0.37235">
        <ele>201.37</ele>
        <time>2024-06-24T18:50:15.922Z</time>
      </trkpt>
      <trkpt lat="46.76852" lon="-0.37241">
        <ele>201.54</ele>
        <time>2024-06-24T18:50:20.788Z</time>
      </trkpt>
      <trkpt lat="46.76854" lon="-0.37246">
        <ele>201.71</ele>
        <time>2024-06-24T18:50:25.655Z</time>
      </trkpt>
      <trkpt lat="46.76857" lon="-0.37252">
        <ele>201.87</ele>
        <time>2024-06-24T18:50:30.523Z</time>
      </trkpt>
      <trkpt lat="46.7686" lon="-0.37257">
        <ele>202.04</ele>
        <time>2024-06-24T18:50:35.392Z</time>
      </trkpt>
      <trkpt lat="46.76863" lon="-0.37262">
        <ele>202.2</ele>
        <time>2024-06-24T18:50:40.262Z</time>
      </trkpt>
      <trkpt lat="46.76866" lon="-0.37268">
        <ele>202.36</ele>
        <time>2024-06-24T18:50:45.133Z</time>
      </trkpt>
      <trkpt lat="46.76868" lon="-0.37273">
        <ele>202.52</ele>
        <time>2024-06-24T18:50:50.005Z</time>
      </trkpt>
      <trkpt lat="46.76871" lon="-0.37279">
        <ele>202.68</ele>
        <time>2024-06-24T18:50:54.877Z</time>
      </trkpt>
      <trkpt lat="46.76874" lon="-0.37284">
        <ele>202.83</ele>
        <time>2024-06-24T18:50:59.750Z</time>
      </trkpt>
      <trkpt lat="46.76876" lon="-0.37289">
        <ele>202.99</ele>
        <time>2024-06-24T18:51:04.624Z</time>
      </trkpt>
      <trkpt lat="46.76879" lon="-0.37294">
        <ele>203.14</ele>
        <time>2024-06-24T18:51:09.499Z</time>
      </trkpt>
      <trkpt lat="46.76882" lon="-0.373">
        <ele>203.28</ele>
        <time>2024-06-24T18:51:14.375Z</time>
      </trkpt>
      <trkpt lat="46.76885" lon="-0.37306">
        <ele>203.43</ele>
        <time>2024-06-24T18:51:19.252Z</time>
      </trkpt>
      <trkpt lat="46.76888" lon="-0.37311">
        <ele>203.58</ele>
        <time>2024-06-24T18:51:24.130Z</time>
      </trkpt>
      <trkpt lat="46.7689" lon="-0.37317">
        <ele>203.72</ele>
        <time>2024-06-24T18:51:29.009Z</time>
      </trkpt>
      <trkpt lat="46.76893" lon="-0.37323">
        <ele>203.86</ele>
        <time>2024-06-24T18:51:33.889Z</time>
      </trkpt>
      <trkpt lat="46.76896" lon="-0.37329">
        <ele>203.99</ele>
        <time>2024-06-24T18:51:38.770Z</time>
      </trkpt>
      <trkpt lat="46.76898" lon="-0.37335">
        <ele>204.13</ele>
        <time>2024-06-24T18:51:43.652Z</time>
      </trkpt>
      <trkpt lat="46.769" lon="-0.37342">
        <ele>204.26</ele>
        <time>2024-06-24T18:51:48.535Z</time>
      </trkpt>
      <trkpt lat="46.76901" lon="-0.37348">
        <ele>204.38</ele>
        <time>2024-06-24T18:51:53.419Z</time>
      </trkpt>
      <trkpt lat="46.76902" lon="-0.37355">
        <ele>204.51</ele>
        <time>2024-06-24T18:51:58.304Z</time>
      </trkpt>
      <trkpt lat="46.76903" lon="-0.37362">
        <ele>204.63</ele>
        <time>2024-06-24T18:52:03.190Z</time>
      </trkpt>
      <trkpt lat="46.76904" lon="-0.37369">
        <ele>204.75</ele>
        <time>2024-06-24T18:52:08.077Z</time>
      </trkpt>
      <trkpt lat="46.76904" lon="-0.37377">
        <ele>204.87</ele>
        <time>2024-06-24T18:52:12.965Z</time>
      </trkpt>
      <trkpt lat="46.76904" lon="-0.37384">
        <ele>204.98</ele>
        <time>2024-06-24T18:52:17.854Z</time>
      </trkpt>
      <trkpt lat="46.76904" lon="-0.37391">
        <ele>205.09</ele>
        <time>2024-06-24T18:52:22.744Z</time>
      </trkpt>
      <trkpt lat="46.76904" lon="-0.37399">
        <ele>205.19</ele>
        <time>2024-06-24T18:52:27.635Z</time>
      </trkpt>
      <trkpt lat="46.76904" lon="-0.37406">
        <ele>205.29</ele>
        <time>2024-06-24T18:52:32.527Z</time>
      </trkpt>
      <trkpt lat="46.76903" lon="-0.37414">
        <ele>205.39</ele>
        <time>2024-06-24T18:52:37.420Z</time>
      </trkpt>
      <trkpt lat="46.76903" lon="-0.37421">
        <ele>205.48</ele>
        <time>2024-06-24T18:52:42.314Z</time>
      </trkpt>
      <trkpt lat="46.76902" lon="-0.37428">
        <ele>205.57</ele>
        <time>2024-06-24T18:52:47.209Z</time>
      </trkpt>
      <trkpt lat="46.76902" lon="-0.37436">
        <ele>205.65</ele>
        <time>2024-06-24T18:52:52.105Z</time>
      </trkpt>
      <trkpt lat="46.76902" lon="-0.37444">
        <ele>205.74</ele>
        <time>2024-06-24T18:52:57.002Z</time>
      </trkpt>
      <trkpt lat="46.76901" lon="-0.37451">
        <ele>205.82</ele>
        <time>2024-06-24T18:53:01.900Z</time>
      </trkpt>
      <trkpt lat="46.769" lon="-0.37458">
        <ele>205.89</ele>
        <time>2024-06-24T18:53:06.799Z</time>
      </trkpt>
      <trkpt lat="46.769" lon="-0.37466">
        <ele>205.96</ele>
        <time>2024-06-24T18:53:11.699Z</time>
      </trkpt>
      <trkpt lat="46.76899" lon="-0.37472">
        <ele>206.03</ele>
        <time>2024-06-24T18:53:16.600Z</time>
      </trkpt>
      <trkpt lat="46.76899" lon="-0.3748">
        <ele>206.1</ele>
        <time>2024-06-24T18:53:21.502Z</time>
      </trkpt>
      <trkpt lat="46.76898" lon="-0.37487">
        <ele>206.16</ele>
        <time>2024-06-24T18:53:26.405Z</time>
      </trkpt>
      <trkpt lat="46.76897" lon="-0.37494">
        <ele>206.22</ele>
        <time>2024-06-24T18:53:31.309Z</time>
      </trkpt>
      <trkpt lat="46.76897" lon="-0.37501">
        <ele>206.27</ele>
        <time>2024-06-24T18:53:36.214Z</time>
      </trkpt>
      <trkpt lat="46.76896" lon="-0.37508">
        <ele>206.32</ele>
        <time>2024-06-24T18:53:41.120Z</time>
      </trkpt>
      <trkpt lat="46.76896" lon="-0.37515">
        <ele>206.37</ele>
        <time>2024-06-24T18:53:46.027Z</time>
      </trkpt>
      <trkpt lat="46.76895" lon="-0.37523">
        <ele>206.41</ele>
        <time>2024-06-24T18:53:50.935Z</time>
      </trkpt>
      <trkpt lat="46.76894" lon="-0.37529">
        <ele>206.45</ele>
        <time>2024-06-24T18:53:55.844Z</time>
      </trkpt>
      <trkpt lat="46.76894" lon="-0.37536">
        <ele>206.48</ele>
        <time>2024-06-24T18:54:00.754Z</time>
      </trkpt>
      <trkpt lat="46.76893" lon="-0.37543">
        <ele>206.51</ele>
        <time>2024-06-24T18:54:05.665Z</time>
      </trkpt>
      <trkpt lat="46.76893" lon="-0.3755">
        <ele>206.54</ele>
        <time>2024-06-24T18:54:10.577Z</time>
      </trkpt>
      <trkpt lat="46.76893" lon="-0.37556">
        <ele>206.56</ele>
        <time>2024-06-24T18:54:15.490Z</time>
      </trkpt>
      <trkpt lat="46.76893" lon="-0.37562">
        <ele>206.58</ele>
        <time>2024-06-24T18:54:20.403Z</time>
      </trkpt>
      <trkpt lat="46.76892" lon="-0.37568">
        <ele>206.6</ele>
        <time>2024-06-24T18:54:25.317Z</time>
      </trkpt>
      <trkpt lat="46.76892" lon="-0.37574">
        <ele>206.62</ele>
        <time>2024-06-24T18:54:30.232Z</time>
      </trkpt>
      <trkpt lat="46.76891" lon="-0.3758">
        <ele>206.63</ele>
        <time>2024-06-24T18:54:35.148Z</time>
      </trkpt>
      <trkpt lat="46.76889" lon="-0.37585">
        <ele>206.63</ele>
        <time>2024-06-24T18:54:40.065Z</time>
      </trkpt>
      <trkpt lat="46.76886" lon="-0.37589">
        <ele>206.64</ele>
        <time>2024-06-24T18:54:44.982Z</time>
      </trkpt>
      <trkpt lat="46.76883" lon="-0.37593">
        <ele>206.64</ele>
        <time>2024-06-24T18:54:49.900Z</time>
      </trkpt>
      <trkpt lat="46.76879" lon="-0.37597">
        <ele>206.64</ele>
        <time>2024-06-24T18:54:54.819Z</time>
      </trkpt>
      <trkpt lat="46.76875" lon="-0.37601">
        <ele>206.63</ele>
        <time>2024-06-24T18:54:59.739Z</time>
      </trkpt>
      <trkpt lat="46.76871" lon="-0.37605">
        <ele>206.62</ele>
        <time>2024-06-24T18:55:04.660Z</time>
      </trkpt>
      <trkpt lat="46.76866" lon="-0.37609">
        <ele>206.61</ele>
        <time>2024-06-24T18:55:09.582Z</time>
      </trkpt>
      <trkpt lat="46.76861" lon="-0.37613">
        <ele>206.6</ele>
        <time>2024-06-24T18:55:14.505Z</time>
      </trkpt>
      <trkpt lat="46.76857" lon="-0.37616">
        <ele>206.59</ele>
        <time>2024-06-24T18:55:19.429Z</time>
      </trkpt>
      <trkpt lat="46.76852" lon="-0.37619">
        <ele>206.57</ele>
        <time>2024-06-24T18:55:24.354Z</time>
      </trkpt>
      <trkpt lat="46.76848" lon="-0.37623">
        <ele>206.55</ele>
        <time>2024-06-24T18:55:29.280Z</time>
      </trkpt>
      <trkpt lat="46.76843" lon="-0.37627">
        <ele>206.53</ele>
        <time>2024-06-24T18:55:34.208Z</time>
      </trkpt>
      <trkpt lat="46.7684" lon="-0.37633">
        <ele>206.51</ele>
        <time>2024-06-24T18:55:39.137Z</time>
      </trkpt>
      <trkpt lat="46.76841" lon="-0.37641">
        <ele>206.49</ele>
        <time>2024-06-24T18:55:44.067Z</time>
      </trkpt>
      <trkpt lat="46.76844" lon="-0.37649">
        <ele>206.47</ele>
        <time>2024-06-24T18:55:48.998Z</time>
      </trkpt>
      <trkpt lat="46.76848" lon="-0.37654">
        <ele>206.45</ele>
        <time>2024-06-24T18:55:53.930Z</time>
      </trkpt>
      <trkpt lat="46.76852" lon="-0.37658">
        <ele>206.42</ele>
        <time>2024-06-24T18:55:58.863Z</time>
      </trkpt>
      <trkpt lat="46.76857" lon="-0.37663">
        <ele>206.39</ele>
        <time>2024-06-24T18:56:03.797Z</time>
      </trkpt>
      <trkpt lat="46.76861" lon="-0.37667">
        <ele>206.36</ele>
        <time>2024-06-24T18:56:08.732Z</time>
      </trkpt>
      <trkpt lat="46.76866" lon="-0.37672">
        <ele>206.32</ele>
        <time>2024-06-24T18:56:13.668Z</time>
      </trkpt>
      <trkpt lat="46.76871" lon="-0.37676">
        <ele>206.29</ele>
        <time>2024-06-24T18:56:18.605Z</time>
      </trkpt>
      <trkpt lat="46.76875" lon="-0.37681">
        <ele>206.26</ele>
        <time>2024-06-24T18:56:23.544Z</time>
      </trkpt>
      <trkpt lat="46.7688" lon="-0.37686">
        <ele>206.22</ele>
        <time>2024-06-24T18:56:28.484Z</time>
      </trkpt>
      <trkpt lat="46.76884" lon="-0.37691">
        <ele>206.19</ele>
        <time>2024-06-24T18:56:33.425Z</time>
      </trkpt>
      <trkpt lat="46.76889" lon="-0.37696">
        <ele>206.15</ele>
        <time>2024-06-24T18:56:38.367Z</time>
      </trkpt>
      <trkpt lat="46.76893" lon="-0.37701">
        <ele>206.11</ele>
        <time>2024-06-24T18:56:43.310Z</time>
      </trkpt>
      <trkpt lat="46.76898" lon="-0.37705">
        <ele>206.06</ele>
        <time>2024-06-24T18:56:48.254Z</time>
      </trkpt>
      <trkpt lat="46.76903" lon="-0.3771">
        <ele>206.01</ele>
        <time>2024-06-24T18:56:53.199Z</time>
      </trkpt>
      <trkpt lat="46.76908" lon="-0.37714">
        <ele>205.96</ele>
        <time>2024-06-24T18:56:58.146Z</time>
      </trkpt>
      <trkpt lat="46.76913" lon="-0.37719">
        <ele>205.9</ele>
        <time>2024-06-24T18:57:03.094Z</time>
      </trkpt>
      <trkpt lat="46.76918" lon="-0.37724">
        <ele>205.84</ele>
        <time>2024-06-24T18:57:08.043Z</time>
      </trkpt>
      <trkpt lat="46.76923" lon="-0.37729">
        <ele>205.79</ele>
        <time>2024-06-24T18:57:12.993Z</time>
      </trkpt>
      <trkpt lat="46.76927" lon="-0.37736">
        <ele>205.73</ele>
        <time>2024-06-24T18:57:17.944Z</time>
      </trkpt>
      <trkpt lat="46.7693" lon="-0.37743">
        <ele>205.67</ele>
        <time>2024-06-24T18:57:22.897Z</time>
      </trkpt>
      <trkpt lat="46.76932" lon="-0.37751">
        <ele>205.6</ele>
        <time>2024-06-24T18:57:27.851Z</time>
      </trkpt>
      <trkpt lat="46.76934" lon="-0.3776">
        <ele>205.53</ele>
        <time>2024-06-24T18:57:32.806Z</time>
      </trkpt>
      <trkpt lat="46.76934" lon="-0.37768">
        <ele>205.46</ele>
        <time>2024-06-24T18:57:37.762Z</time>
      </trkpt>
      <trkpt lat="46.76934" lon="-0.37777">
        <ele>205.39</ele>
        <time>2024-06-24T18:57:42.719Z</time>
      </trkpt>
      <trkpt lat="46.76934" lon="-0.37786">
        <ele>205.31</ele>
        <time>2024-06-24T18:57:47.678Z</time>
      </trkpt>
      <trkpt lat="46.76934" lon="-0.37795">
        <ele>205.23</ele>
        <time>2024-06-24T18:57:52.638Z</time>
      </trkpt>
      <trkpt lat="46.76934" lon="-0.37804">
        <ele>205.15</ele>
        <time>2024-06-24T18:57:57.599Z</time>
      </trkpt>
      <trkpt lat="46.76934" lon="-0.37812">
        <ele>205.06</ele>
        <time>2024-06-24T18:58:02.561Z</time>
      </trkpt>
      <trkpt lat="46.76934" lon="-0.37821">
        <ele>204.97</ele>
        <time>2024-06-24T18:58:07.524Z</time>
      </trkpt>
      <trkpt lat="46.76933" lon="-0.3783">
        <ele>204.88</ele>
        <time>2024-06-24T18:58:12.489Z</time>
      </trkpt>
      <trkpt lat="46.76933" lon="-0.37838">
        <ele>204.78</ele>
        <time>2024-06-24T18:58:17.455Z</time>
      </trkpt>
      <trkpt lat="46.76933" lon="-0.37847">
        <ele>204.68</ele>
        <time>2024-06-24T18:58:22.422Z</time>
      </trkpt>
      <trkpt lat="46.76933" lon="-0.37856">
        <ele>204.57</ele>
        <time>2024-06-24T18:58:27.390Z</time>
      </trkpt>
      <trkpt lat="46.76933" lon="-0.37865">
        <ele>204.45</ele>
        <time>2024-06-24T18:58:32.359Z</time>
      </trkpt>
      <trkpt lat="46.76933" lon="-0.37874">
        <ele>204.34</ele>
        <time>2024-06-24T18:58:37.330Z</time>
      </trkpt>
      <trkpt lat="46.76933" lon="-0.37882">
        <ele>204.22</ele>
        <time>2024-06-24T18:58:42.302Z</time>
      </trkpt>
      <trkpt lat="46.76933" lon="-0.37891">
        <ele>204.1</ele>
        <time>2024-06-24T18:58:47.275Z</time>
      </trkpt>
      <trkpt lat="46.76934" lon="-0.379">
        <ele>203.99</ele>
        <time>2024-06-24T18:58:52.249Z</time>
      </trkpt>
      <trkpt lat="46.76934" lon="-0.37909">
        <ele>203.86</ele>
        <time>2024-06-24T18:58:57.225Z</time>
      </trkpt>
      <trkpt lat="46.76935" lon="-0.37918">
        <ele>203.74</ele>
        <time>2024-06-24T18:59:02.202Z</time>
      </trkpt>
      <trkpt lat="46.76935" lon="-0.37928">
        <ele>203.61</ele>
        <time>2024-06-24T18:59:07.180Z</time>
      </trkpt>
      <trkpt lat="46.76935" lon="-0.37938">
        <ele>203.48</ele>
        <time>2024-06-24T18:59:12.159Z</time>
      </trkpt>
      <trkpt lat="46.76935" lon="-0.37947">
        <ele>203.35</ele>
        <time>2024-06-24T18:59:17.140Z</time>
      </trkpt>
      <trkpt lat="46.76935" lon="-0.37956">
        <ele>203.21</ele>
        <time>2024-06-24T18:59:22.122Z</time>
      </trkpt>
      <trkpt lat="46.76935" lon="-0.37966">
        <ele>203.07</ele>
        <time>2024-06-24T18:59:27.105Z</time>
      </trkpt>
      <trkpt lat="46.76935" lon="-0.37975">
        <ele>202.93</ele>
        <time>2024-06-24T18:59:32.090Z</time>
      </trkpt>
      <trkpt lat="46.76935" lon="-0.37985">
        <ele>202.79</ele>
        <time>2024-06-24T18:59:37.076Z</time>
      </trkpt>
      <trkpt lat="46.76935" lon="-0.37994">
        <ele>202.65</ele>
        <time>2024-06-24T18:59:42.063Z</time>
      </trkpt>
      <trkpt lat="46.76935" lon="-0.38003">
        <ele>202.49</ele>
        <time>2024-06-24T18:59:47.052Z</time>
      </trkpt>
      <trkpt lat="46.76934" lon="-0.38012">
        <ele>202.33</ele>
        <time>2024-06-24T18:59:52.042Z</time>
      </trkpt>
      <trkpt lat="46.76933" lon="-0.38022">
        <ele>202.16</ele>
        <time>2024-06-24T18:59:57.033Z</time>
      </trkpt>
      <trkpt lat="46.76933" lon="-0.38031">
        <ele>201.99</ele>
        <time>2024-06-24T19:00:02.025Z</time>
      </trkpt>
      <trkpt lat="46.76932" lon="-0.38041">
        <ele>201.82</ele>
        <time>2024-06-24T19:00:07.019Z</time>
      </trkpt>
      <trkpt lat="46.76932" lon="-0.38051">
        <ele>201.65</ele>
        <time>2024-06-24T19:00:12.014Z</time>
      </trkpt>
      <trkpt lat="46.76931" lon="-0.3806">
        <ele>201.47</ele>
        <time>2024-06-24T19:00:17.010Z</time>
      </trkpt>
      <trkpt lat="46.76932" lon="-0.3807">
        <ele>201.29</ele>
        <time>2024-06-24T19:00:22.008Z</time>
      </trkpt>
      <trkpt lat="46.76933" lon="-0.3808">
        <ele>201.1</ele>
        <time>2024-06-24T19:00:27.007Z</time>
      </trkpt>
      <trkpt lat="46.76934" lon="-0.38089">
        <ele>200.9</ele>
        <time>2024-06-24T19:00:32.007Z</time>
      </trkpt>
      <trkpt lat="46.76935" lon="-0.38099">
        <ele>200.7</ele>
        <time>2024-06-24T19:00:37.009Z</time>
      </trkpt>
      <trkpt lat="46.76937" lon="-0.38109">
        <ele>200.52</ele>
        <time>2024-06-24T19:00:42.012Z</time>
      </trkpt>
      <trkpt lat="46.76939" lon="-0.3812">
        <ele>200.33</ele>
        <time>2024-06-24T19:00:47.017Z</time>
      </trkpt>
      <trkpt lat="46.7694" lon="-0.3813">
        <ele>200.14</ele>
        <time>2024-06-24T19:00:52.023Z</time>
      </trkpt>
      <trkpt lat="46.76941" lon="-0.3814">
        <ele>199.95</ele>
        <time>2024-06-24T19:00:57.031Z</time>
      </trkpt>
      <trkpt lat="46.76943" lon="-0.3815">
        <ele>199.75</ele>
        <time>2024-06-24T19:01:02.040Z</time>
      </trkpt>
      <trkpt lat="46.76943" lon="-0.3816">
        <ele>199.56</ele>
        <time>2024-06-24T19:01:07.050Z</time>
      </trkpt>
      <trkpt lat="46.76944" lon="-0.38171">
        <ele>199.36</ele>
        <time>2024-06-24T19:01:12.062Z</time>
      </trkpt>
      <trkpt lat="46.76944" lon="-0.38182">
        <ele>199.15</ele>
        <time>2024-06-24T19:01:17.075Z</time>
      </trkpt>
      <trkpt lat="46.76944" lon="-0.38193">
        <ele>198.94</ele>
        <time>2024-06-24T19:01:22.090Z</time>
      </trkpt>
      <trkpt lat="46.76943" lon="-0.38204">
        <ele>198.74</ele>
        <time>2024-06-24T19:01:27.106Z</time>
      </trkpt>
      <trkpt lat="46.76942" lon="-0.38214">
        <ele>198.53</ele>
        <time>2024-06-24T19:01:32.124Z</time>
      </trkpt>
      <trkpt lat="46.76941" lon="-0.38224">
        <ele>198.33</ele>
        <time>2024-06-24T19:01:37.143Z</time>
      </trkpt>
      <trkpt lat="46.76939" lon="-0.38235">
        <ele>198.12</ele>
        <time>2024-06-24T19:01:42.164Z</time>
      </trkpt>
      <trkpt lat="46.76937" lon="-0.38245">
        <ele>197.91</ele>
        <time>2024-06-24T19:01:47.186Z</time>
      </trkpt>
      <trkpt lat="46.76935" lon="-0.38255">
        <ele>197.7</ele>
        <time>2024-06-24T19:01:52.210Z</time>
      </trkpt>
      <trkpt lat="46.76933" lon="-0.38265">
        <ele>197.48</ele>
        <time>2024-06-24T19:01:57.235Z</time>
      </trkpt>
      <trkpt lat="46.76931" lon="-0.38275">
        <ele>197.27</ele>
        <time>2024-06-24T19:02:02.262Z</time>
      </trkpt>
      <trkpt lat="46.76929" lon="-0.38285">
        <ele>197.05</ele>
        <time>2024-06-24T19:02:07.290Z</time>
      </trkpt>
      <trkpt lat="46.76926" lon="-0.38295">
        <ele>196.85</ele>
        <time>2024-06-24T19:02:12.319Z</time>
      </trkpt>
      <trkpt lat="46.76925" lon="-0.38306">
        <ele>196.64</ele>
        <time>2024-06-24T19:02:17.350Z</time>
      </trkpt>
      <trkpt lat="46.76923" lon="-0.38316">
        <ele>196.43</ele>
        <time>2024-06-24T19:02:22.382Z</time>
      </trkpt>
      <trkpt lat="46.76921" lon="-0.38326">
        <ele>196.23</ele>
        <time>2024-06-24T19:02:27.416Z</time>
      </trkpt>
      <trkpt lat="46.76921" lon="-0.38337">
        <ele>196.02</ele>
        <time>2024-06-24T19:02:32.451Z</time>
      </trkpt>
      <trkpt lat="46.76921" lon="-0.38347">
        <ele>195.82</ele>
        <time>2024-06-24T19:02:37.488Z</time>
      </trkpt>
      <trkpt lat="46.76921" lon="-0.38357">
        <ele>195.63</ele>
        <time>2024-06-24T19:02:42.526Z</time>
      </trkpt>
      <trkpt lat="46.76922" lon="-0.38367">
        <ele>195.43</ele>
        <time>2024-06-24T19:02:47.565Z</time>
      </trkpt>
      <trkpt lat="46.7692" lon="-0.38375">
        <ele>195.23</ele>
        <time>2024-06-24T19:02:52.606Z</time>
      </trkpt>
      <trkpt lat="46.76915" lon="-0.38381">
        <ele>195.04</ele>
        <time>2024-06-24T19:02:57.648Z</time>
      </trkpt>
      <trkpt lat="46.76911" lon="-0.38383">
        <ele>194.86</ele>
        <time>2024-06-24T19:03:02.691Z</time>
      </trkpt>
      <trkpt lat="46.76906" lon="-0.38386">
        <ele>194.69</ele>
        <time>2024-06-24T19:03:07.735Z</time>
      </trkpt>
      <trkpt lat="46.76902" lon="-0.3839">
        <ele>194.52</ele>
        <time>2024-06-24T19:03:12.780Z</time>
      </trkpt>
      <trkpt lat="46.76898" lon="-0.38393">
        <ele>194.35</ele>
        <time>2024-06-24T19:03:17.826Z</time>
      </trkpt>
      <trkpt lat="46.76895" lon="-0.38397">
        <ele>194.19</ele>
        <time>2024-06-24T19:03:22.872Z</time>
      </trkpt>
      <trkpt lat="46.76891" lon="-0.38401">
        <ele>194.03</ele>
        <time>2024-06-24T19:03:27.919Z</time>
      </trkpt>
      <trkpt lat="46.76887" lon="-0.38406">
        <ele>193.88</ele>
        <time>2024-06-24T19:03:32.967Z</time>
      </trkpt>
      <trkpt lat="46.76883" lon="-0.38411">
        <ele>193.74</ele>
        <time>2024-06-24T19:03:38.017Z</time>
      </trkpt>
      <trkpt lat="46.76879" lon="-0.38416">
        <ele>193.59</ele>
        <time>2024-06-24T19:03:43.068Z</time>
      </trkpt>
      <trkpt lat="46.76875" lon="-0.38422">
        <ele>193.46</ele>
        <time>2024-06-24T19:03:48.120Z</time>
      </trkpt>
      <trkpt lat="46.7687" lon="-0.38427">
        <ele>193.32</ele>
        <time>2024-06-24T19:03:53.173Z</time>
      </trkpt>
      <trkpt lat="46.76865" lon="-0.38432">
        <ele>193.19</ele>
        <time>2024-06-24T19:03:58.227Z</time>
      </trkpt>
      <trkpt lat="46.7686" lon="-0.38437">
        <ele>193.07</ele>
        <time>2024-06-24T19:04:03.282Z</time>
      </trkpt>
      <trkpt lat="46.76856" lon="-0.3844">
        <ele>192.95</ele>
        <time>2024-06-24T19:04:08.338Z</time>
      </trkpt>
      <trkpt lat="46.76851" lon="-0.38445">
        <ele>192.83</ele>
        <time>2024-06-24T19:04:13.396Z</time>
      </trkpt>
      <trkpt lat="46.76846" lon="-0.38449">
        <ele>192.72</ele>
        <time>2024-06-24T19:04:18.455Z</time>
      </trkpt>
      <trkpt lat="46.76841" lon="-0.38453">
        <ele>192.61</ele>
        <time>2024-06-24T19:04:23.515Z</time>
      </trkpt>
      <trkpt lat="46.76836" lon="-0.38457">
        <ele>192.51</ele>
        <time>2024-06-24T19:04:28.576Z</time>
      </trkpt>
      <trkpt lat="46.76832" lon="-0.38461">
        <ele>192.42</ele>
        <time>2024-06-24T19:04:33.638Z</time>
      </trkpt>
      <trkpt lat="46.76827" lon="-0.38465">
        <ele>192.32</ele>
        <time>2024-06-24T19:04:38.701Z</time>
      </trkpt>
      <trkpt lat="46.76822" lon="-0.3847">
        <ele>192.24</ele>
        <time>2024-06-24T19:04:43.765Z</time>
      </trkpt>
      <trkpt lat="46.76818" lon="-0.38473">
        <ele>192.15</ele>
        <time>2024-06-24T19:04:48.830Z</time>
      </trkpt>
      <trkpt lat="46.76814" lon="-0.38478">
        <ele>192.08</ele>
        <time>2024-06-24T19:04:53.896Z</time>
      </trkpt>
      <trkpt lat="46.76809" lon="-0.38481">
        <ele>192</ele>
        <time>2024-06-24T19:04:58.963Z</time>
      </trkpt>
      <trkpt lat="46.76805" lon="-0.38485">
        <ele>191.92</ele>
        <time>2024-06-24T19:05:04.031Z</time>
      </trkpt>
      <trkpt lat="46.76802" lon="-0.38491">
        <ele>191.85</ele>
        <time>2024-06-24T19:05:09.100Z</time>
      </trkpt>
      <trkpt lat="46.768" lon="-0.38499">
        <ele>191.78</ele>
        <time>2024-06-24T19:05:14.170Z</time>
      </trkpt>
      <trkpt lat="46.768" lon="-0.38507">
        <ele>191.72</ele>
        <time>2024-06-24T19:05:19.241Z</time>
      </trkpt>
      <trkpt lat="46.768" lon="-0.38514">
        <ele>191.66</ele>
        <time>2024-06-24T19:05:24.313Z</time>
      </trkpt>
      <trkpt lat="46.768" lon="-0.38522">
        <ele>191.6</ele>
        <time>2024-06-24T19:05:29.386Z</time>
      </trkpt>
      <trkpt lat="46.76799" lon="-0.3853">
        <ele>191.54</ele>
        <time>2024-06-24T19:05:34.461Z</time>
      </trkpt>
      <trkpt lat="46.76798" lon="-0.38537">
        <ele>191.48</ele>
        <time>2024-06-24T19:05:39.537Z</time>
      </trkpt>
      <trkpt lat="46.76797" lon="-0.38546">
        <ele>191.42</ele>
        <time>2024-06-24T19:05:44.614Z</time>
      </trkpt>
      <trkpt lat="46.76796" lon="-0.38554">
        <ele>191.37</ele>
        <time>2024-06-24T19:05:49.692Z</time>
      </trkpt>
      <trkpt lat="46.76796" lon="-0.38562">
        <ele>191.32</ele>
        <time>2024-06-24T19:05:54.771Z</time>
      </trkpt>
      <trkpt lat="46.76795" lon="-0.38571">
        <ele>191.27</ele>
        <time>2024-06-24T19:05:59.851Z</time>
      </trkpt>
      <trkpt lat="46.76795" lon="-0.3858">
        <ele>191.23</ele>
        <time>2024-06-24T19:06:04.933Z</time>
      </trkpt>
      <trkpt lat="46.76794" lon="-0.38588">
        <ele>191.19</ele>
        <time>2024-06-24T19:06:10.016Z</time>
      </trkpt>
      <trkpt lat="46.76793" lon="-0.38596">
        <ele>191.15</ele>
        <time>2024-06-24T19:06:15.100Z</time>
      </trkpt>
      <trkpt lat="46.76793" lon="-0.38604">
        <ele>191.11</ele>
        <time>2024-06-24T19:06:20.185Z</time>
      </trkpt>
      <trkpt lat="46.76793" lon="-0.38612">
        <ele>191.08</ele>
        <time>2024-06-24T19:06:25.271Z</time>
      </trkpt>
      <trkpt lat="46.76792" lon="-0.38622">
        <ele>191.04</ele>
        <time>2024-06-24T19:06:30.358Z</time>
      </trkpt>
      <trkpt lat="46.76792" lon="-0.3863">
        <ele>191</ele>
        <time>2024-06-24T19:06:35.447Z</time>
      </trkpt>
      <trkpt lat="46.76791" lon="-0.38639">
        <ele>190.95</ele>
        <time>2024-06-24T19:06:40.537Z</time>
      </trkpt>
      <trkpt lat="46.76791" lon="-0.38647">
        <ele>190.89</ele>
        <time>2024-06-24T19:06:45.628Z</time>
      </trkpt>
      <trkpt lat="46.7679" lon="-0.38656">
        <ele>190.83</ele>
        <time>2024-06-24T19:06:50.720Z</time>
      </trkpt>
      <trkpt lat="46.76789" lon="-0.38664">
        <ele>190.78</ele>
        <time>2024-06-24T19:06:55.813Z</time>
      </trkpt>
      <trkpt lat="46.76789" lon="-0.38673">
        <ele>190.72</ele>
        <time>2024-06-24T19:07:00.907Z</time>
      </trkpt>
      <trkpt lat="46.76789" lon="-0.38681">
        <ele>190.65</ele>
        <time>2024-06-24T19:07:06.003Z</time>
      </trkpt>
      <trkpt lat="46.76788" lon="-0.3869">
        <ele>190.58</ele>
        <time>2024-06-24T19:07:11.100Z</time>
      </trkpt>
      <trkpt lat="46.76787" lon="-0.38699">
        <ele>190.52</ele>
        <time>2024-06-24T19:07:16.198Z</time>
      </trkpt>
      <trkpt lat="46.76787" lon="-0.38708">
        <ele>190.45</ele>
        <time>2024-06-24T19:07:21.297Z</time>
      </trkpt>
      <trkpt lat="46.76786" lon="-0.38716">
        <ele>190.38</ele>
        <time>2024-06-24T19:07:26.397Z</time>
      </trkpt>
      <trkpt lat="46.76786" lon="-0.38724">
        <ele>190.3</ele>
        <time>2024-06-24T19:07:31.498Z</time>
      </trkpt>
      <trkpt lat="46.76785" lon="-0.38732">
        <ele>190.22</ele>
        <time>2024-06-24T19:07:36.601Z</time>
      </trkpt>
      <trkpt lat="46.76785" lon="-0.3874">
        <ele>190.13</ele>
        <time>2024-06-24T19:07:41.705Z</time>
      </trkpt>
      <trkpt lat="46.76784" lon="-0.38749">
        <ele>190.04</ele>
        <time>2024-06-24T19:07:46.810Z</time>
      </trkpt>
      <trkpt lat="46.76784" lon="-0.38757">
        <ele>189.94</ele>
        <time>2024-06-24T19:07:51.916Z</time>
      </trkpt>
      <trkpt lat="46.76784" lon="-0.38766">
        <ele>189.85</ele>
        <time>2024-06-24T19:07:57.023Z</time>
      </trkpt>
      <trkpt lat="46.76783" lon="-0.38773">
        <ele>189.75</ele>
        <time>2024-06-24T19:08:02.131Z</time>
      </trkpt>
      <trkpt lat="46.76783" lon="-0.3878">
        <ele>189.64</ele>
        <time>2024-06-24T19:08:07.240Z</time>
      </trkpt>
      <trkpt lat="46.76783" lon="-0.38788">
        <ele>189.52</ele>
        <time>2024-06-24T19:08:12.350Z</time>
      </trkpt>
      <trkpt lat="46.76782" lon="-0.38796">
        <ele>189.39</ele>
        <time>2024-06-24T19:08:17.461Z</time>
      </trkpt>
      <trkpt lat="46.7678" lon="-0.38803">
        <ele>189.27</ele>
        <time>2024-06-24T19:08:22.573Z</time>
      </trkpt>
      <trkpt lat="46.76778" lon="-0.3881">
        <ele>189.14</ele>
        <time>2024-06-24T19:08:27.686Z</time>
      </trkpt>
      <trkpt lat="46.76774" lon="-0.38815">
        <ele>189.01</ele>
        <time>2024-06-24T19:08:32.801Z</time>
      </trkpt>
      <trkpt lat="46.7677" lon="-0.38821">
        <ele>188.87</ele>
        <time>2024-06-24T19:08:37.917Z</time>
      </trkpt>
      <trkpt lat="46.76765" lon="-0.38826">
        <ele>188.72</ele>
        <time>2024-06-24T19:08:43.034Z</time>
      </trkpt>
      <trkpt lat="46.7676" lon="-0.3883">
        <ele>188.57</ele>
        <time>2024-06-24T19:08:48.152Z</time>
      </trkpt>
      <trkpt lat="46.76755" lon="-0.38833">
        <ele>188.41</ele>
        <time>2024-06-24T19:08:53.271Z</time>
      </trkpt>
      <trkpt lat="46.7675" lon="-0.38836">
        <ele>188.23</ele>
        <time>2024-06-24T19:08:58.391Z</time>
      </trkpt>
      <trkpt lat="46.76745" lon="-0.38839">
        <ele>188.05</ele>
        <time>2024-06-24T19:09:03.512Z</time>
      </trkpt>
      <trkpt lat="46.7674" lon="-0.38843">
        <ele>187.86</ele>
        <time>2024-06-24T19:09:08.634Z</time>
      </trkpt>
      <trkpt lat="46.76735" lon="-0.38846">
        <ele>187.66</ele>
        <time>2024-06-24T19:09:13.757Z</time>
      </trkpt>
      <trkpt lat="46.7673" lon="-0.38851">
        <ele>187.46</ele>
        <time>2024-06-24T19:09:18.882Z</time>
      </trkpt>
      <trkpt lat="46.76725" lon="-0.38855">
        <ele>187.25</ele>
        <time>2024-06-24T19:09:24.008Z</time>
      </trkpt>
      <trkpt lat="46.7672" lon="-0.38859">
        <ele>187.03</ele>
        <time>2024-06-24T19:09:29.135Z</time>
      </trkpt>
      <trkpt lat="46.76715" lon="-0.38863">
        <ele>186.81</ele>
        <time>2024-06-24T19:09:34.263Z</time>
      </trkpt>
      <trkpt lat="46.7671" lon="-0.38867">
        <ele>186.58</ele>
        <time>2024-06-24T19:09:39.392Z</time>
      </trkpt>
      <trkpt lat="46.76705" lon="-0.38871">
        <ele>186.34</ele>
        <time>2024-06-24T19:09:44.522Z</time>
      </trkpt>
      <trkpt lat="46.76699" lon="-0.38875">
        <ele>186.1</ele>
        <time>2024-06-24T19:09:49.654Z</time>
      </trkpt>
      <trkpt lat="46.76694" lon="-0.3888">
        <ele>185.86</ele>
        <time>2024-06-24T19:09:54.787Z</time>
      </trkpt>
      <trkpt lat="46.76689" lon="-0.38884">
        <ele>185.61</ele>
        <time>2024-06-24T19:09:59.921Z</time>
      </trkpt>
      <trkpt lat="46.76683" lon="-0.38889">
        <ele>185.34</ele>
        <time>2024-06-24T19:10:05.057Z</time>
      </trkpt>
      <trkpt lat="46.76677" lon="-0.38894">
        <ele>185.07</ele>
        <time>2024-06-24T19:10:10.194Z</time>
      </trkpt>
      <trkpt lat="46.76671" lon="-0.389">
        <ele>184.79</ele>
        <time>2024-06-24T19:10:15.332Z</time>
      </trkpt>
      <trkpt lat="46.76664" lon="-0.38904">
        <ele>184.5</ele>
        <time>2024-06-24T19:10:20.472Z</time>
      </trkpt>
      <trkpt lat="46.76659" lon="-0.38909">
        <ele>184.2</ele>
        <time>2024-06-24T19:10:25.613Z</time>
      </trkpt>
      <trkpt lat="46.76653" lon="-0.38915">
        <ele>183.89</ele>
        <time>2024-06-24T19:10:30.756Z</time>
      </trkpt>
      <trkpt lat="46.76646" lon="-0.3892">
        <ele>183.58</ele>
        <time>2024-06-24T19:10:35.900Z</time>
      </trkpt>
      <trkpt lat="46.7664" lon="-0.38926">
        <ele>183.26</ele>
        <time>2024-06-24T19:10:41.046Z</time>
      </trkpt>
      <trkpt lat="46.76633" lon="-0.38932">
        <ele>182.93</ele>
        <time>2024-06-24T19:10:46.193Z</time>
      </trkpt>
      <trkpt lat="46.76627" lon="-0.38936">
        <ele>182.6</ele>
        <time>2024-06-24T19:10:51.341Z</time>
      </trkpt>
      <trkpt lat="46.76621" lon="-0.38942">
        <ele>182.26</ele>
        <time>2024-06-24T19:10:56.491Z</time>
      </trkpt>
      <trkpt lat="46.76615" lon="-0.38948">
        <ele>181.93</ele>
        <time>2024-06-24T19:11:01.642Z</time>
      </trkpt>
      <trkpt lat="46.76608" lon="-0.38954">
        <ele>181.59</ele>
        <time>2024-06-24T19:11:06.795Z</time>
      </trkpt>
      <trkpt lat="46.76602" lon="-0.38961">
        <ele>181.25</ele>
        <time>2024-06-24T19:11:11.949Z</time>
      </trkpt>
      <trkpt lat="46.76595" lon="-0.38967">
        <ele>180.9</ele>
        <time>2024-06-24T19:11:17.105Z</time>
      </trkpt>
      <trkpt lat="46.76589" lon="-0.38975">
        <ele>180.56</ele>
        <time>2024-06-24T19:11:22.263Z</time>
      </trkpt>
      <trkpt lat="46.76582" lon="-0.38982">
        <ele>180.21</ele>
        <time>2024-06-24T19:11:27.422Z</time>
      </trkpt>
      <trkpt lat="46.76575" lon="-0.3899">
        <ele>179.86</ele>
        <time>2024-06-24T19:11:32.583Z</time>
      </trkpt>
      <trkpt lat="46.76567" lon="-0.38998">
        <ele>179.5</ele>
        <time>2024-06-24T19:11:37.746Z</time>
      </trkpt>
      <trkpt lat="46.7656" lon="-0.39007">
        <ele>179.13</ele>
        <time>2024-06-24T19:11:42.911Z</time>
      </trkpt>
      <trkpt lat="46.76553" lon="-0.39015">
        <ele>178.76</ele>
        <time>2024-06-24T19:11:48.078Z</time>
      </trkpt>
      <trkpt lat="46.76545" lon="-0.39023">
        <ele>178.39</ele>
        <time>2024-06-24T19:11:53.247Z</time>
      </trkpt>
      <trkpt lat="46.76538" lon="-0.3903">
        <ele>178.02</ele>
        <time>2024-06-24T19:11:58.417Z</time>
      </trkpt>
      <trkpt lat="46.76531" lon="-0.39038">
        <ele>177.65</ele>
        <time>2024-06-24T19:12:03.589Z</time>
      </trkpt>
      <trkpt lat="46.76523" lon="-0.39046">
        <ele>177.27</ele>
        <time>2024-06-24T19:12:08.763Z</time>
      </trkpt>
      <trkpt lat="46.76516" lon="-0.39053">
        <ele>176.9</ele>
        <time>2024-06-24T19:12:13.939Z</time>
      </trkpt>
      <trkpt lat="46.76509" lon="-0.39058">
        <ele>176.52</ele>
        <time>2024-06-24T19:12:19.116Z</time>
      </trkpt>
      <trkpt lat="46.76501" lon="-0.3906">
        <ele>176.14</ele>
        <time>2024-06-24T19:12:24.295Z</time>
      </trkpt>
      <trkpt lat="46.76494" lon="-0.39058">
        <ele>175.76</ele>
        <time>2024-06-24T19:12:29.476Z</time>
      </trkpt>
      <trkpt lat="46.76487" lon="-0.39055">
        <ele>175.39</ele>
        <time>2024-06-24T19:12:34.658Z</time>
      </trkpt>
      <trkpt lat="46.76479" lon="-0.39054">
        <ele>175</ele>
        <time>2024-06-24T19:12:39.841Z</time>
      </trkpt>
      <trkpt lat="46.76472" lon="-0.39053">
        <ele>174.62</ele>
        <time>2024-06-24T19:12:45.026Z</time>
      </trkpt>
      <trkpt lat="46.76465" lon="-0.39052">
        <ele>174.23</ele>
        <time>2024-06-24T19:12:50.212Z</time>
      </trkpt>
      <trkpt lat="46.76458" lon="-0.39049">
        <ele>173.84</ele>
        <time>2024-06-24T19:12:55.400Z</time>
      </trkpt>
      <trkpt lat="46.76451" lon="-0.39046">
        <ele>173.46</ele>
        <time>2024-06-24T19:13:00.589Z</time>
      </trkpt>
      <trkpt lat="46.76445" lon="-0.39042">
        <ele>173.08</ele>
        <time>2024-06-24T19:13:05.780Z</time>
      </trkpt>
      <trkpt lat="46.76439" lon="-0.39037">
        <ele>172.69</ele>
        <time>2024-06-24T19:13:10.972Z</time>
      </trkpt>
      <trkpt lat="46.76434" lon="-0.39032">
        <ele>172.3</ele>
        <time>2024-06-24T19:13:16.165Z</time>
      </trkpt>
      <trkpt lat="46.76428" lon="-0.39027">
        <ele>171.9</ele>
        <time>2024-06-24T19:13:21.360Z</time>
      </trkpt>
      <trkpt lat="46.76423" lon="-0.39022">
        <ele>171.49</ele>
        <time>2024-06-24T19:13:26.556Z</time>
      </trkpt>
      <trkpt lat="46.76418" lon="-0.39018">
        <ele>171.08</ele>
        <time>2024-06-24T19:13:31.753Z</time>
      </trkpt>
      <trkpt lat="46.76412" lon="-0.39013">
        <ele>170.67</ele>
        <time>2024-06-24T19:13:36.951Z</time>
      </trkpt>
      <trkpt lat="46.76407" lon="-0.39008">
        <ele>170.24</ele>
        <time>2024-06-24T19:13:42.150Z</time>
      </trkpt>
      <trkpt lat="46.76402" lon="-0.39004">
        <ele>169.81</ele>
        <time>2024-06-24T19:13:47.351Z</time>
      </trkpt>
      <trkpt lat="46.76397" lon="-0.39">
        <ele>169.38</ele>
        <time>2024-06-24T19:13:52.553Z</time>
      </trkpt>
      <trkpt lat="46.76392" lon="-0.38995">
        <ele>168.94</ele>
        <time>2024-06-24T19:13:57.756Z</time>
      </trkpt>
      <trkpt lat="46.76388" lon="-0.38989">
        <ele>168.49</ele>
        <time>2024-06-24T19:14:02.960Z</time>
      </trkpt>
      <trkpt lat="46.76383" lon="-0.38983">
        <ele>168.03</ele>
        <time>2024-06-24T19:14:08.165Z</time>
      </trkpt>
      <trkpt lat="46.76377" lon="-0.38977">
        <ele>167.58</ele>
        <time>2024-06-24T19:14:13.372Z</time>
      </trkpt>
      <trkpt lat="46.76371" lon="-0.3897">
        <ele>167.13</ele>
        <time>2024-06-24T19:14:18.580Z</time>
      </trkpt>
      <trkpt lat="46.76365" lon="-0.38963">
        <ele>166.68</ele>
        <time>2024-06-24T19:14:23.790Z</time>
      </trkpt>
      <trkpt lat="46.76358" lon="-0.38955">
        <ele>166.24</ele>
        <time>2024-06-24T19:14:29.002Z</time>
      </trkpt>
      <trkpt lat="46.76351" lon="-0.38947">
        <ele>165.79</ele>
        <time>2024-06-24T19:14:34.215Z</time>
      </trkpt>
      <trkpt lat="46.76344" lon="-0.38939">
        <ele>165.35</ele>
        <time>2024-06-24T19:14:39.430Z</time>
      </trkpt>
      <trkpt lat="46.76338" lon="-0.38931">
        <ele>164.91</ele>
        <time>2024-06-24T19:14:44.647Z</time>
      </trkpt>
      <trkpt lat="46.76331" lon="-0.38924">
        <ele>164.47</ele>
        <time>2024-06-24T19:14:49.866Z</time>
      </trkpt>
      <trkpt lat="46.76325" lon="-0.38918">
        <ele>164.03</ele>
        <time>2024-06-24T19:14:55.086Z</time>
      </trkpt>
      <trkpt lat="46.76319" lon="-0.38914">
        <ele>163.58</ele>
        <time>2024-06-24T19:15:00.307Z</time>
      </trkpt>
      <trkpt lat="46.76313" lon="-0.38911">
        <ele>163.15</ele>
        <time>2024-06-24T19:15:05.530Z</time>
      </trkpt>
      <trkpt lat="46.76305" lon="-0.3891">
        <ele>162.72</ele>
        <time>2024-06-24T19:15:10.754Z</time>
      </trkpt>
      <trkpt lat="46.76298" lon="-0.38909">
        <ele>162.3</ele>
        <time>2024-06-24T19:15:15.980Z</time>
      </trkpt>
      <trkpt lat="46.76291" lon="-0.38907">
        <ele>161.89</ele>
        <time>2024-06-24T19:15:21.207Z</time>
      </trkpt>
      <trkpt lat="46.76283" lon="-0.38905">
        <ele>161.47</ele>
        <time>2024-06-24T19:15:26.436Z</time>
      </trkpt>
      <trkpt lat="46.76276" lon="-0.38901">
        <ele>161.05</ele>
        <time>2024-06-24T19:15:31.666Z</time>
      </trkpt>
      <trkpt lat="46.76268" lon="-0.38898">
        <ele>160.64</ele>
        <time>2024-06-24T19:15:36.898Z</time>
      </trkpt>
      <trkpt lat="46.7626" lon="-0.38894">
        <ele>160.24</ele>
        <time>2024-06-24T19:15:42.132Z</time>
      </trkpt>
      <trkpt lat="46.76252" lon="-0.3889">
        <ele>159.84</ele>
        <time>2024-06-24T19:15:47.367Z</time>
      </trkpt>
      <trkpt lat="46.76244" lon="-0.38884">
        <ele>159.44</ele>
        <time>2024-06-24T19:15:52.604Z</time>
      </trkpt>
      <trkpt lat="46.76236" lon="-0.38878">
        <ele>159.05</ele>
        <time>2024-06-24T19:15:57.843Z</time>
      </trkpt>
      <trkpt lat="46.76228" lon="-0.38871">
        <ele>158.67</ele>
        <time>2024-06-24T19:16:03.084Z</time>
      </trkpt>
      <trkpt lat="46.76219" lon="-0.38865">
        <ele>158.3</ele>
        <time>2024-06-24T19:16:08.327Z</time>
      </trkpt>
      <trkpt lat="46.7621" lon="-0.38859">
        <ele>157.94</ele>
        <time>2024-06-24T19:16:13.572Z</time>
      </trkpt>
      <trkpt lat="46.76202" lon="-0.38853">
        <ele>157.6</ele>
        <time>2024-06-24T19:16:18.818Z</time>
      </trkpt>
      <trkpt lat="46.76195" lon="-0.38847">
        <ele>157.28</ele>
        <time>2024-06-24T19:16:24.066Z</time>
      </trkpt>
      <trkpt lat="46.76189" lon="-0.38839">
        <ele>156.96</ele>
        <time>2024-06-24T19:16:29.316Z</time>
      </trkpt>
      <trkpt lat="46.76183" lon="-0.38831">
        <ele>156.66</ele>
        <time>2024-06-24T19:16:34.567Z</time>
      </trkpt>
      <trkpt lat="46.76179" lon="-0.38823">
        <ele>156.37</ele>
        <time>2024-06-24T19:16:39.820Z</time>
      </trkpt>
      <trkpt lat="46.76174" lon="-0.38814">
        <ele>156.09</ele>
        <time>2024-06-24T19:16:45.074Z</time>
      </trkpt>
      <trkpt lat="46.76168" lon="-0.38806">
        <ele>155.82</ele>
        <time>2024-06-24T19:16:50.330Z</time>
      </trkpt>
      <trkpt lat="46.76164" lon="-0.38799">
        <ele>155.56</ele>
        <time>2024-06-24T19:16:55.587Z</time>
      </trkpt>
      <trkpt lat="46.7616" lon="-0.38791">
        <ele>155.32</ele>
        <time>2024-06-24T19:17:00.846Z</time>
      </trkpt>
      <trkpt lat="46.76155" lon="-0.38785">
        <ele>155.08</ele>
        <time>2024-06-24T19:17:06.106Z</time>
      </trkpt>
      <trkpt lat="46.76151" lon="-0.38778">
        <ele>154.86</ele>
        <time>2024-06-24T19:17:11.367Z</time>
      </trkpt>
      <trkpt lat="46.76146" lon="-0.38772">
        <ele>154.64</ele>
        <time>2024-06-24T19:17:16.629Z</time>
      </trkpt>
      <trkpt lat="46.76141" lon="-0.38765">
        <ele>154.44</ele>
        <time>2024-06-24T19:17:21.893Z</time>
      </trkpt>
      <trkpt lat="46.76137" lon="-0.3876">
        <ele>154.26</ele>
        <time>2024-06-24T19:17:27.158Z</time>
      </trkpt>
      <trkpt lat="46.76132" lon="-0.38753">
        <ele>154.08</ele>
        <time>2024-06-24T19:17:32.424Z</time>
      </trkpt>
      <trkpt lat="46.76127" lon="-0.38746">
        <ele>153.9</ele>
        <time>2024-06-24T19:17:37.692Z</time>
      </trkpt>
      <trkpt lat="46.76122" lon="-0.3874">
        <ele>153.74</ele>
        <time>2024-06-24T19:17:42.961Z</time>
      </trkpt>
      <trkpt lat="46.76118" lon="-0.38734">
        <ele>153.6</ele>
        <time>2024-06-24T19:17:48.231Z</time>
      </trkpt>
      <trkpt lat="46.76114" lon="-0.38729">
        <ele>153.46</ele>
        <time>2024-06-24T19:17:53.502Z</time>
      </trkpt>
      <trkpt lat="46.76109" lon="-0.38723">
        <ele>153.34</ele>
        <time>2024-06-24T19:17:58.774Z</time>
      </trkpt>
      <trkpt lat="46.76105" lon="-0.38717">
        <ele>153.23</ele>
        <time>2024-06-24T19:18:04.047Z</time>
      </trkpt>
      <trkpt lat="46.76101" lon="-0.38711">
        <ele>153.12</ele>
        <time>2024-06-24T19:18:09.322Z</time>
      </trkpt>
      <trkpt lat="46.76097" lon="-0.38706">
        <ele>153.02</ele>
        <time>2024-06-24T19:18:14.598Z</time>
      </trkpt>
      <trkpt lat="46.76094" lon="-0.38699">
        <ele>152.94</ele>
        <time>2024-06-24T19:18:19.875Z</time>
      </trkpt>
      <trkpt lat="46.76091" lon="-0.38693">
        <ele>152.86</ele>
        <time>2024-06-24T19:18:25.153Z</time>
      </trkpt>
      <trkpt lat="46.76087" lon="-0.38686">
        <ele>152.8</ele>
        <time>2024-06-24T19:18:30.432Z</time>
      </trkpt>
      <trkpt lat="46.76084" lon="-0.3868">
        <ele>152.74</ele>
        <time>2024-06-24T19:18:35.712Z</time>
      </trkpt>
      <trkpt lat="46.76079" lon="-0.38674">
        <ele>152.69</ele>
        <time>2024-06-24T19:18:40.993Z</time>
      </trkpt>
      <trkpt lat="46.76074" lon="-0.3867">
        <ele>152.65</ele>
        <time>2024-06-24T19:18:46.275Z</time>
      </trkpt>
      <trkpt lat="46.76069" lon="-0.38666">
        <ele>152.61</ele>
        <time>2024-06-24T19:18:51.559Z</time>
      </trkpt>
      <trkpt lat="46.76064" lon="-0.38664">
        <ele>152.57</ele>
        <time>2024-06-24T19:18:56.844Z</time>
      </trkpt>
      <trkpt lat="46.76058" lon="-0.38661">
        <ele>152.55</ele>
        <time>2024-06-24T19:19:02.130Z</time>
      </trkpt>
      <trkpt lat="46.76053" lon="-0.38658">
        <ele>152.52</ele>
        <time>2024-06-24T19:19:07.417Z</time>
      </trkpt>
      <trkpt lat="46.76047" lon="-0.38656">
        <ele>152.51</ele>
        <time>2024-06-24T19:19:12.705Z</time>
      </trkpt>
      <trkpt lat="46.76042" lon="-0.38652">
        <ele>152.51</ele>
        <time>2024-06-24T19:19:17.994Z</time>
      </trkpt>
      <trkpt lat="46.76037" lon="-0.38648">
        <ele>152.51</ele>
        <time>2024-06-24T19:19:23.285Z</time>
      </trkpt>
      <trkpt lat="46.76033" lon="-0.38644">
        <ele>152.53</ele>
        <time>2024-06-24T19:19:28.577Z</time>
      </trkpt>
      <trkpt lat="46.76028" lon="-0.38638">
        <ele>152.55</ele>
        <time>2024-06-24T19:19:33.870Z</time>
      </trkpt>
      <trkpt lat="46.76025" lon="-0.38633">
        <ele>152.57</ele>
        <time>2024-06-24T19:19:39.164Z</time>
      </trkpt>
      <trkpt lat="46.76022" lon="-0.38627">
        <ele>152.6</ele>
        <time>2024-06-24T19:19:44.459Z</time>
      </trkpt>
      <trkpt lat="46.76021" lon="-0.3862">
        <ele>152.64</ele>
        <time>2024-06-24T19:19:49.755Z</time>
      </trkpt>
      <trkpt lat="46.76021" lon="-0.38614">
        <ele>152.69</ele>
        <time>2024-06-24T19:19:55.052Z</time>
      </trkpt>
      <trkpt lat="46.7602" lon="-0.38608">
        <ele>152.73</ele>
        <time>2024-06-24T19:20:00.349Z</time>
      </trkpt>
      <trkpt lat="46.7602" lon="-0.38603">
        <ele>152.78</ele>
        <time>2024-06-24T19:20:05.647Z</time>
      </trkpt>
      <trkpt lat="46.7602" lon="-0.38597">
        <ele>152.83</ele>
        <time>2024-06-24T19:20:10.946Z</time>
      </trkpt>
      <trkpt lat="46.76019" lon="-0.38592">
        <ele>152.89</ele>
        <time>2024-06-24T19:20:16.246Z</time>
      </trkpt>
      <trkpt lat="46.76019" lon="-0.38587">
        <ele>152.95</ele>
        <time>2024-06-24T19:20:21.546Z</time>
      </trkpt>
      <trkpt lat="46.76018" lon="-0.38582">
        <ele>153.01</ele>
        <time>2024-06-24T19:20:26.847Z</time>
      </trkpt>
      <trkpt lat="46.76017" lon="-0.38578">
        <ele>153.07</ele>
        <time>2024-06-24T19:20:32.149Z</time>
      </trkpt>
      <trkpt lat="46.76016" lon="-0.38573">
        <ele>153.13</ele>
        <time>2024-06-24T19:20:37.451Z</time>
      </trkpt>
      <trkpt lat="46.76015" lon="-0.38568">
        <ele>153.19</ele>
        <time>2024-06-24T19:20:42.754Z</time>
      </trkpt>
      <trkpt lat="46.76014" lon="-0.38564">
        <ele>153.26</ele>
        <time>2024-06-24T19:20:48.058Z</time>
      </trkpt>
      <trkpt lat="46.76013" lon="-0.3856">
        <ele>153.33</ele>
        <time>2024-06-24T19:20:53.362Z</time>
      </trkpt>
      <trkpt lat="46.76012" lon="-0.38557">
        <ele>153.39</ele>
        <time>2024-06-24T19:20:58.667Z</time>
      </trkpt>
      <trkpt lat="46.76011" lon="-0.38554">
        <ele>153.46</ele>
        <time>2024-06-24T19:21:03.972Z</time>
      </trkpt>
      <trkpt lat="46.76011" lon="-0.38551">
        <ele>153.53</ele>
        <time>2024-06-24T19:21:09.277Z</time>
      </trkpt>
      <trkpt lat="46.7601" lon="-0.38549">
        <ele>153.6</ele>
        <time>2024-06-24T19:21:14.583Z</time>
      </trkpt>
      <trkpt lat="46.76009" lon="-0.38546">
        <ele>153.67</ele>
        <time>2024-06-24T19:21:19.889Z</time>
      </trkpt>
      <trkpt lat="46.76008" lon="-0.38543">
        <ele>153.74</ele>
        <time>2024-06-24T19:21:25.196Z</time>
      </trkpt>
      <trkpt lat="46.76008" lon="-0.38541">
        <ele>153.81</ele>
        <time>2024-06-24T19:21:30.503Z</time>
      </trkpt>
      <trkpt lat="46.76006" lon="-0.38539">
        <ele>153.88</ele>
        <time>2024-06-24T19:21:35.811Z</time>
      </trkpt>
      <trkpt lat="46.76003" lon="-0.38539">
        <ele>153.95</ele>
        <time>2024-06-24T19:21:41.119Z</time>
      </trkpt>
      <trkpt lat="46.76001" lon="-0.38539">
        <ele>154.02</ele>
        <time>2024-06-24T19:21:46.427Z</time>
      </trkpt>
      <trkpt lat="46.75999" lon="-0.38541">
        <ele>154.09</ele>
        <time>2024-06-24T19:21:51.736Z</time>
      </trkpt>
      <trkpt lat="46.75996" lon="-0.38544">
        <ele>154.16</ele>
        <time>2024-06-24T19:21:57.046Z</time>
      </trkpt>
      <trkpt lat="46.75993" lon="-0.38548">
        <ele>154.23</ele>
        <time>2024-06-24T19:22:02.356Z</time>
      </trkpt>
      <trkpt lat="46.7599" lon="-0.38552">
        <ele>154.3</ele>
        <time>2024-06-24T19:22:07.667Z</time>
      </trkpt>
      <trkpt lat="46.75986" lon="-0.38556">
        <ele>154.37</ele>
        <time>2024-06-24T19:22:12.979Z</time>
      </trkpt>
      <trkpt lat="46.75983" lon="-0.38561">
        <ele>154.44</ele>
        <time>2024-06-24T19:22:18.292Z</time>
      </trkpt>
      <trkpt lat="46.75979" lon="-0.38566">
        <ele>154.51</ele>
        <time>2024-06-24T19:22:23.606Z</time>
      </trkpt>
      <trkpt lat="46.75974" lon="-0.38571">
        <ele>154.59</ele>
        <time>2024-06-24T19:22:28.921Z</time>
      </trkpt>
      <trkpt lat="46.75969" lon="-0.38575">
        <ele>154.66</ele>
        <time>2024-06-24T19:22:34.238Z</time>
      </trkpt>
      <trkpt lat="46.75963" lon="-0.3858">
        <ele>154.74</ele>
        <time>2024-06-24T19:22:39.556Z</time>
      </trkpt>
      <trkpt lat="46.75958" lon="-0.38586">
        <ele>154.82</ele>
        <time>2024-06-24T19:22:44.875Z</time>
      </trkpt>
      <trkpt lat="46.75952" lon="-0.38592">
        <ele>154.9</ele>
        <time>2024-06-24T19:22:50.196Z</time>
      </trkpt>
      <trkpt lat="46.75945" lon="-0.38599">
        <ele>154.99</ele>
        <time>2024-06-24T19:22:55.518Z</time>
      </trkpt>
      <trkpt lat="46.7594" lon="-0.38605">
        <ele>155.09</ele>
        <time>2024-06-24T19:23:00.842Z</time>
      </trkpt>
      <trkpt lat="46.75933" lon="-0.38611">
        <ele>155.19</ele>
        <time>2024-06-24T19:23:06.167Z</time>
      </trkpt>
      <trkpt lat="46.75927" lon="-0.38619">
        <ele>155.29</ele>
        <time>2024-06-24T19:23:11.494Z</time>
      </trkpt>
      <trkpt lat="46.7592" lon="-0.38626">
        <ele>155.4</ele>
        <time>2024-06-24T19:23:16.823Z</time>
      </trkpt>
      <trkpt lat="46.75914" lon="-0.38634">
        <ele>155.51</ele>
        <time>2024-06-24T19:23:22.153Z</time>
      </trkpt>
      <trkpt lat="46.75907" lon="-0.38641">
        <ele>155.62</ele>
        <time>2024-06-24T19:23:27.485Z</time>
      </trkpt>
      <trkpt lat="46.75901" lon="-0.38648">
        <ele>155.73</ele>
        <time>2024-06-24T19:23:32.819Z</time>
      </trkpt>
      <trkpt lat="46.75895" lon="-0.38655">
        <ele>155.85</ele>
        <time>2024-06-24T19:23:38.154Z</time>
      </trkpt>
      <trkpt lat="46.75889" lon="-0.38662">
        <ele>155.98</ele>
        <time>2024-06-24T19:23:43.491Z</time>
      </trkpt>
      <trkpt lat="46.75883" lon="-0.38669">
        <ele>156.12</ele>
        <time>2024-06-24T19:23:48.829Z</time>
      </trkpt>
      <trkpt lat="46.75877" lon="-0.38675">
        <ele>156.26</ele>
        <time>2024-06-24T19:23:54.169Z</time>
      </trkpt>
      <trkpt lat="46.75872" lon="-0.38682">
        <ele>156.4</ele>
        <time>2024-06-24T19:23:59.510Z</time>
      </trkpt>
      <trkpt lat="46.75867" lon="-0.38688">
        <ele>156.55</ele>
        <time>2024-06-24T19:24:04.852Z</time>
      </trkpt>
      <trkpt lat="46.75862" lon="-0.38694">
        <ele>156.7</ele>
        <time>2024-06-24T19:24:10.196Z</time>
      </trkpt>
      <trkpt lat="46.75857" lon="-0.38701">
        <ele>156.87</ele>
        <time>2024-06-24T19:24:15.541Z</time>
      </trkpt>
      <trkpt lat="46.75851" lon="-0.38706">
        <ele>157.03</ele>
        <time>2024-06-24T19:24:20.887Z</time>
      </trkpt>
      <trkpt lat="46.75845" lon="-0.38707">
        <ele>157.2</ele>
        <time>2024-06-24T19:24:26.234Z</time>
      </trkpt>
      <trkpt lat="46.75839" lon="-0.38706">
        <ele>157.37</ele>
        <time>2024-06-24T19:24:31.583Z</time>
      </trkpt>
      <trkpt lat="46.75835" lon="-0.38704">
        <ele>157.54</ele>
        <time>2024-06-24T19:24:36.933Z</time>
      </trkpt>
      <trkpt lat="46.75831" lon="-0.38701">
        <ele>157.71</ele>
        <time>2024-06-24T19:24:42.284Z</time>
      </trkpt>
      <trkpt lat="46.75827" lon="-0.38697">
        <ele>157.88</ele>
        <time>2024-06-24T19:24:47.635Z</time>
      </trkpt>
      <trkpt lat="46.75824" lon="-0.38692">
        <ele>158.05</ele>
        <time>2024-06-24T19:24:52.987Z</time>
      </trkpt>
      <trkpt lat="46.7582" lon="-0.38688">
        <ele>158.21</ele>
        <time>2024-06-24T19:24:58.340Z</time>
      </trkpt>
      <trkpt lat="46.75816" lon="-0.38683">
        <ele>158.38</ele>
        <time>2024-06-24T19:25:03.694Z</time>
      </trkpt>
      <trkpt lat="46.75812" lon="-0.38679">
        <ele>158.54</ele>
        <time>2024-06-24T19:25:09.049Z</time>
      </trkpt>
      <trkpt lat="46.75807" lon="-0.38675">
        <ele>158.7</ele>
        <time>2024-06-24T19:25:14.405Z</time>
      </trkpt>
      <trkpt lat="46.75802" lon="-0.38671">
        <ele>158.87</ele>
        <time>2024-06-24T19:25:19.763Z</time>
      </trkpt>
      <trkpt lat="46.75798" lon="-0.38668">
        <ele>159.03</ele>
        <time>2024-06-24T19:25:25.122Z</time>
      </trkpt>
      <trkpt lat="46.75793" lon="-0.38666">
        <ele>159.19</ele>
        <time>2024-06-24T19:25:30.482Z</time>
      </trkpt>
      <trkpt lat="46.75789" lon="-0.38664">
        <ele>159.36</ele>
        <time>2024-06-24T19:25:35.842Z</time>
      </trkpt>
      <trkpt lat="46.75785" lon="-0.38663">
        <ele>159.52</ele>
        <time>2024-06-24T19:25:41.203Z</time>
      </trkpt>
      <trkpt lat="46.7578" lon="-0.3866">
        <ele>159.67</ele>
        <time>2024-06-24T19:25:46.565Z</time>
      </trkpt>
      <trkpt lat="46.75777" lon="-0.38658">
        <ele>159.82</ele>
        <time>2024-06-24T19:25:51.928Z</time>
      </trkpt>
      <trkpt lat="46.75773" lon="-0.38657">
        <ele>159.97</ele>
        <time>2024-06-24T19:25:57.292Z</time>
      </trkpt>
      <trkpt lat="46.7577" lon="-0.38656">
        <ele>160.12</ele>
        <time>2024-06-24T19:26:02.656Z</time>
      </trkpt>
      <trkpt lat="46.75766" lon="-0.38655">
        <ele>160.27</ele>
        <time>2024-06-24T19:26:08.021Z</time>
      </trkpt>
      <trkpt lat="46.75763" lon="-0.38654">
        <ele>160.42</ele>
        <time>2024-06-24T19:26:13.387Z</time>
      </trkpt>
      <trkpt lat="46.7576" lon="-0.38653">
        <ele>160.56</ele>
        <time>2024-06-24T19:26:18.753Z</time>
      </trkpt>
      <trkpt lat="46.75757" lon="-0.38652">
        <ele>160.71</ele>
        <time>2024-06-24T19:26:24.120Z</time>
      </trkpt>
      <trkpt lat="46.75754" lon="-0.38651">
        <ele>160.85</ele>
        <time>2024-06-24T19:26:29.488Z</time>
      </trkpt>
      <trkpt lat="46.7575" lon="-0.3865">
        <ele>160.99</ele>
        <time>2024-06-24T19:26:34.856Z</time>
      </trkpt>
      <trkpt lat="46.75748" lon="-0.3865">
        <ele>161.13</ele>
        <time>2024-06-24T19:26:40.225Z</time>
      </trkpt>
      <trkpt lat="46.75745" lon="-0.3865">
        <ele>161.26</ele>
        <time>2024-06-24T19:26:45.595Z</time>
      </trkpt>
      <trkpt lat="46.75743" lon="-0.3865">
        <ele>161.4</ele>
        <time>2024-06-24T19:26:50.965Z</time>
      </trkpt>
      <trkpt lat="46.75741" lon="-0.3865">
        <ele>161.53</ele>
        <time>2024-06-24T19:26:56.335Z</time>
      </trkpt>
      <trkpt lat="46.75738" lon="-0.38649">
        <ele>161.66</ele>
        <time>2024-06-24T19:27:01.706Z</time>
      </trkpt>
      <trkpt lat="46.75735" lon="-0.38649">
        <ele>161.79</ele>
        <time>2024-06-24T19:27:07.078Z</time>
      </trkpt>
      <trkpt lat="46.75732" lon="-0.38649">
        <ele>161.92</ele>
        <time>2024-06-24T19:27:12.450Z</time>
      </trkpt>
      <trkpt lat="46.75729" lon="-0.3865">
        <ele>162.04</ele>
        <time>2024-06-24T19:27:17.823Z</time>
      </trkpt>
      <trkpt lat="46.75725" lon="-0.3865">
        <ele>162.16</ele>
        <time>2024-06-24T19:27:23.196Z</time>
      </trkpt>
      <trkpt lat="46.75722" lon="-0.3865">
        <ele>162.28</ele>
        <time>2024-06-24T19:27:28.570Z</time>
      </trkpt>
      <trkpt lat="46.7572" lon="-0.3865">
        <ele>162.4</ele>
        <time>2024-06-24T19:27:33.945Z</time>
      </trkpt>
      <trkpt lat="46.75716" lon="-0.3865">
        <ele>162.51</ele>
        <time>2024-06-24T19:27:39.320Z</time>
      </trkpt>
      <trkpt lat="46.75713" lon="-0.38649">
        <ele>162.62</ele>
        <time>2024-06-24T19:27:44.696Z</time>
      </trkpt>
      <trkpt lat="46.75711" lon="-0.38649">
        <ele>162.74</ele>
        <time>2024-06-24T19:27:50.072Z</time>
      </trkpt>
      <trkpt lat="46.75708" lon="-0.38649">
        <ele>162.84</ele>
        <time>2024-06-24T19:27:55.449Z</time>
      </trkpt>
      <trkpt lat="46.75705" lon="-0.38649">
        <ele>162.95</ele>
        <time>2024-06-24T19:28:00.826Z</time>
      </trkpt>
      <trkpt lat="46.75702" lon="-0.38649">
        <ele>163.06</ele>
        <time>2024-06-24T19:28:06.204Z</time>
      </trkpt>
      <trkpt lat="46.75699" lon="-0.38649">
        <ele>163.17</ele>
        <time>2024-06-24T19:28:11.583Z</time>
      </trkpt>
      <trkpt lat="46.75696" lon="-0.38649">
        <ele>163.27</ele>
        <time>2024-06-24T19:28:16.962Z</time>
      </trkpt>
      <trkpt lat="46.75693" lon="-0.38648">
        <ele>163.38</ele>
        <time>2024-06-24T19:28:22.342Z</time>
      </trkpt>
      <trkpt lat="46.7569" lon="-0.38649">
        <ele>163.48</ele>
        <time>2024-06-24T19:28:27.723Z</time>
      </trkpt>
      <trkpt lat="46.75686" lon="-0.38649">
        <ele>163.58</ele>
        <time>2024-06-24T19:28:33.104Z</time>
      </trkpt>
      <trkpt lat="46.75683" lon="-0.38649">
        <ele>163.69</ele>
        <time>2024-06-24T19:28:38.486Z</time>
      </trkpt>
      <trkpt lat="46.7568" lon="-0.38649">
        <ele>163.79</ele>
        <time>2024-06-24T19:28:43.868Z</time>
      </trkpt>
      <trkpt lat="46.75677" lon="-0.3865">
        <ele>163.9</ele>
        <time>2024-06-24T19:28:49.251Z</time>
      </trkpt>
      <trkpt lat="46.75674" lon="-0.3865">
        <ele>164</ele>
        <time>2024-06-24T19:28:54.635Z</time>
      </trkpt>
      <trkpt lat="46.75671" lon="-0.3865">
        <ele>164.1</ele>
        <time>2024-06-24T19:29:00.019Z</time>
      </trkpt>
      <trkpt lat="46.75667" lon="-0.3865">
        <ele>164.21</ele>
        <time>2024-06-24T19:29:05.404Z</time>
      </trkpt>
      <trkpt lat="46.75664" lon="-0.38649">
        <ele>164.31</ele>
        <time>2024-06-24T19:29:10.790Z</time>
      </trkpt>
      <trkpt lat="46.75661" lon="-0.38649">
        <ele>164.42</ele>
        <time>2024-06-24T19:29:16.176Z</time>
      </trkpt>
      <trkpt lat="46.75657" lon="-0.3865">
        <ele>164.53</ele>
        <time>2024-06-24T19:29:21.563Z</time>
      </trkpt>
      <trkpt lat="46.75654" lon="-0.3865">
        <ele>164.63</ele>
        <time>2024-06-24T19:29:26.951Z</time>
      </trkpt>
      <trkpt lat="46.75651" lon="-0.3865">
        <ele>164.75</ele>
        <time>2024-06-24T19:29:32.339Z</time>
      </trkpt>
      <trkpt lat="46.75648" lon="-0.3865">
        <ele>164.86</ele>
        <time>2024-06-24T19:29:37.728Z</time>
      </trkpt>
      <trkpt lat="46.75645" lon="-0.3865">
        <ele>164.97</ele>
        <time>2024-06-24T19:29:43.118Z</time>
      </trkpt>
      <trkpt lat="46.75642" lon="-0.38651">
        <ele>165.08</ele>
        <time>2024-06-24T19:29:48.508Z</time>
      </trkpt>
      <trkpt lat="46.75639" lon="-0.38652">
        <ele>165.2</ele>
        <time>2024-06-24T19:29:53.899Z</time>
      </trkpt>
      <trkpt lat="46.75636" lon="-0.38653">
        <ele>165.32</ele>
        <time>2024-06-24T19:29:59.290Z</time>
      </trkpt>
      <trkpt lat="46.75633" lon="-0.38653">
        <ele>165.44</ele>
        <time>2024-06-24T19:30:04.682Z</time>
      </trkpt>
      <trkpt lat="46.7563" lon="-0.38653">
        <ele>165.56</ele>
        <time>2024-06-24T19:30:10.075Z</time>
      </trkpt>
      <trkpt lat="46.75627" lon="-0.38653">
        <ele>165.68</ele>
        <time>2024-06-24T19:30:15.468Z</time>
      </trkpt>
      <trkpt lat="46.75624" lon="-0.38653">
        <ele>165.8</ele>
        <time>2024-06-24T19:30:20.862Z</time>
      </trkpt>
      <trkpt lat="46.75621" lon="-0.38654">
        <ele>165.93</ele>
        <time>2024-06-24T19:30:26.256Z</time>
      </trkpt>
      <trkpt lat="46.75618" lon="-0.38654">
        <ele>166.06</ele>
        <time>2024-06-24T19:30:31.651Z</time>
      </trkpt>
      <trkpt lat="46.75615" lon="-0.38655">
        <ele>166.19</ele>
        <time>2024-06-24T19:30:37.047Z</time>
      </trkpt>
      <trkpt lat="46.75612" lon="-0.38655">
        <ele>166.32</ele>
        <time>2024-06-24T19:30:42.443Z</time>
      </trkpt>
      <trkpt lat="46.75609" lon="-0.38656">
        <ele>166.45</ele>
        <time>2024-06-24T19:30:47.840Z</time>
      </trkpt>
      <trkpt lat="46.75607" lon="-0.38656">
        <ele>166.59</ele>
        <time>2024-06-24T19:30:53.237Z</time>
      </trkpt>
      <trkpt lat="46.75604" lon="-0.38657">
        <ele>166.72</ele>
        <time>2024-06-24T19:30:58.635Z</time>
      </trkpt>
      <trkpt lat="46.75602" lon="-0.38658">
        <ele>166.86</ele>
        <time>2024-06-24T19:31:04.033Z</time>
      </trkpt>
      <trkpt lat="46.75599" lon="-0.38659">
        <ele>167</ele>
        <time>2024-06-24T19:31:09.432Z</time>
      </trkpt>
      <trkpt lat="46.75596" lon="-0.3866">
        <ele>167.14</ele>
        <time>2024-06-24T19:31:14.831Z</time>
      </trkpt>
      <trkpt lat="46.75593" lon="-0.38661">
        <ele>167.28</ele>
        <time>2024-06-24T19:31:20.231Z</time>
      </trkpt>
      <trkpt lat="46.7559" lon="-0.38661">
        <ele>167.43</ele>
        <time>2024-06-24T19:31:25.632Z</time>
      </trkpt>
      <trkpt lat="46.75588" lon="-0.38663">
        <ele>167.58</ele>
        <time>2024-06-24T19:31:31.033Z</time>
      </trkpt>
      <trkpt lat="46.75585" lon="-0.38663">
        <ele>167.72</ele>
        <time>2024-06-24T19:31:36.435Z</time>
      </trkpt>
      <trkpt lat="46.75582" lon="-0.38663">
        <ele>167.88</ele>
        <time>2024-06-24T19:31:41.837Z</time>
      </trkpt>
      <trkpt lat="46.75579" lon="-0.38664">
        <ele>168.03</ele>
        <time>2024-06-24T19:31:47.240Z</time>
      </trkpt>
      <trkpt lat="46.75577" lon="-0.38664">
        <ele>168.18</ele>
        <time>2024-06-24T19:31:52.643Z</time>
      </trkpt>
      <trkpt lat="46.75574" lon="-0.38665">
        <ele>168.33</ele>
        <time>2024-06-24T19:31:58.047Z</time>
      </trkpt>
      <trkpt lat="46.75571" lon="-0.38666">
        <ele>168.49</ele>
        <time>2024-06-24T19:32:03.452Z</time>
      </trkpt>
      <trkpt lat="46.75569" lon="-0.38666">
        <ele>168.64</ele>
        <time>2024-06-24T19:32:08.857Z</time>
      </trkpt>
      <trkpt lat="46.75566" lon="-0.38666">
        <ele>168.8</ele>
        <time>2024-06-24T19:32:14.263Z</time>
      </trkpt>
      <trkpt lat="46.75563" lon="-0.38667">
        <ele>168.96</ele>
        <time>2024-06-24T19:32:19.669Z</time>
      </trkpt>
      <trkpt lat="46.75561" lon="-0.38667">
        <ele>169.11</ele>
        <time>2024-06-24T19:32:25.076Z</time>
      </trkpt>
      <trkpt lat="46.75558" lon="-0.38668">
        <ele>169.27</ele>
        <time>2024-06-24T19:32:30.483Z</time>
      </trkpt>
      <trkpt lat="46.75554" lon="-0.38669">
        <ele>169.42</ele>
        <time>2024-06-24T19:32:35.891Z</time>
      </trkpt>
      <trkpt lat="46.75552" lon="-0.3867">
        <ele>169.58</ele>
        <time>2024-06-24T19:32:41.299Z</time>
      </trkpt>
      <trkpt lat="46.75549" lon="-0.3867">
        <ele>169.73</ele>
        <time>2024-06-24T19:32:46.708Z</time>
      </trkpt>
      <trkpt lat="46.75546" lon="-0.38671">
        <ele>169.89</ele>
        <time>2024-06-24T19:32:52.118Z</time>
      </trkpt>
      <trkpt lat="46.75544" lon="-0.38671">
        <ele>170.05</ele>
        <time>2024-06-24T19:32:57.528Z</time>
      </trkpt>
      <trkpt lat="46.75541" lon="-0.38673">
        <ele>170.2</ele>
        <time>2024-06-24T19:33:02.939Z</time>
      </trkpt>
      <trkpt lat="46.75539" lon="-0.38673">
        <ele>170.36</ele>
        <time>2024-06-24T19:33:08.350Z</time>
      </trkpt>
      <trkpt lat="46.75537" lon="-0.38674">
        <ele>170.52</ele>
        <time>2024-06-24T19:33:13.762Z</time>
      </trkpt>
      <trkpt lat="46.75534" lon="-0.38674">
        <ele>170.68</ele>
        <time>2024-06-24T19:33:19.174Z</time>
      </trkpt>
      <trkpt lat="46.75532" lon="-0.38674">
        <ele>170.84</ele>
        <time>2024-06-24T19:33:24.587Z</time>
      </trkpt>
      <trkpt lat="46.75529" lon="-0.38675">
        <ele>170.99</ele>
        <time>2024-06-24T19:33:30.000Z</time>
      </trkpt>
      <trkpt lat="46.75526" lon="-0.38676">
        <ele>171.15</ele>
        <time>2024-06-24T19:33:35.414Z</time>
      </trkpt>
      <trkpt lat="46.75524" lon="-0.38676">
        <ele>171.31</ele>
        <time>2024-06-24T19:33:40.828Z</time>
      </trkpt>
      <trkpt lat="46.75521" lon="-0.38677">
        <ele>171.47</ele>
        <time>2024-06-24T19:33:46.243Z</time>
      </trkpt>
      <trkpt lat="46.75519" lon="-0.38678">
        <ele>171.63</ele>
        <time>2024-06-24T19:33:51.658Z</time>
      </trkpt>
      <trkpt lat="46.75516" lon="-0.38678">
        <ele>171.79</ele>
        <time>2024-06-24T19:33:57.074Z</time>
      </trkpt>
      <trkpt lat="46.75513" lon="-0.38679">
        <ele>171.95</ele>
        <time>2024-06-24T19:34:02.490Z</time>
      </trkpt>
      <trkpt lat="46.75511" lon="-0.3868">
        <ele>172.11</ele>
        <time>2024-06-24T19:34:07.907Z</time>
      </trkpt>
      <trkpt lat="46.75508" lon="-0.38681">
        <ele>172.27</ele>
        <time>2024-06-24T19:34:13.324Z</time>
      </trkpt>
      <trkpt lat="46.75505" lon="-0.38682">
        <ele>172.43</ele>
        <time>2024-06-24T19:34:18.742Z</time>
      </trkpt>
      <trkpt lat="46.75503" lon="-0.38683">
        <ele>172.59</ele>
        <time>2024-06-24T19:34:24.160Z</time>
      </trkpt>
      <trkpt lat="46.755" lon="-0.38683">
        <ele>172.75</ele>
        <time>2024-06-24T19:34:29.579Z</time>
      </trkpt>
      <trkpt lat="46.75498" lon="-0.38684">
        <ele>172.91</ele>
        <time>2024-06-24T19:34:34.998Z</time>
      </trkpt>
      <trkpt lat="46.75495" lon="-0.38684">
        <ele>173.07</ele>
        <time>2024-06-24T19:34:40.418Z</time>
      </trkpt>
      <trkpt lat="46.75492" lon="-0.38685">
        <ele>173.23</ele>
        <time>2024-06-24T19:34:45.839Z</time>
      </trkpt>
      <trkpt lat="46.7549" lon="-0.38686">
        <ele>173.38</ele>
        <time>2024-06-24T19:34:51.260Z</time>
      </trkpt>
      <trkpt lat="46.75487" lon="-0.38687">
        <ele>173.54</ele>
        <time>2024-06-24T19:34:56.682Z</time>
      </trkpt>
      <trkpt lat="46.75485" lon="-0.38688">
        <ele>173.69</ele>
        <time>2024-06-24T19:35:02.104Z</time>
      </trkpt>
      <trkpt lat="46.75483" lon="-0.38689">
        <ele>173.85</ele>
        <time>2024-06-24T19:35:07.527Z</time>
      </trkpt>
      <trkpt lat="46.75481" lon="-0.3869">
        <ele>174</ele>
        <time>2024-06-24T19:35:12.950Z</time>
      </trkpt>
      <trkpt lat="46.75478" lon="-0.38691">
        <ele>174.15</ele>
        <time>2024-06-24T19:35:18.373Z</time>
      </trkpt>
      <trkpt lat="46.75476" lon="-0.38692">
        <ele>174.3</ele>
        <time>2024-06-24T19:35:23.797Z</time>
      </trkpt>
      <trkpt lat="46.75473" lon="-0.38692">
        <ele>174.45</ele>
        <time>2024-06-24T19:35:29.222Z</time>
      </trkpt>
      <trkpt lat="46.75471" lon="-0.38693">
        <ele>174.6</ele>
        <time>2024-06-24T19:35:34.647Z</time>
      </trkpt>
      <trkpt lat="46.75468" lon="-0.38693">
        <ele>174.74</ele>
        <time>2024-06-24T19:35:40.073Z</time>
      </trkpt>
      <trkpt lat="46.75466" lon="-0.38694">
        <ele>174.89</ele>
        <time>2024-06-24T19:35:45.499Z</time>
      </trkpt>
      <trkpt lat="46.75464" lon="-0.38695">
        <ele>175.03</ele>
        <time>2024-06-24T19:35:50.925Z</time>
      </trkpt>
      <trkpt lat="46.75461" lon="-0.38696">
        <ele>175.17</ele>
        <time>2024-06-24T19:35:56.352Z</time>
      </trkpt>
      <trkpt lat="46.75459" lon="-0.38697">
        <ele>175.31</ele>
        <time>2024-06-24T19:36:01.779Z</time>
      </trkpt>
      <trkpt lat="46.75456" lon="-0.38697">
        <ele>175.45</ele>
        <time>2024-06-24T19:36:07.207Z</time>
      </trkpt>
      <trkpt lat="46.75454" lon="-0.38699">
        <ele>175.59</ele>
        <time>2024-06-24T19:36:12.636Z</time>
      </trkpt>
      <trkpt lat="46.75451" lon="-0.387">
        <ele>175.73</ele>
        <time>2024-06-24T19:36:18.065Z</time>
      </trkpt>
      <trkpt lat="46.75448" lon="-0.38701">
        <ele>175.86</ele>
        <time>2024-06-24T19:36:23.495Z</time>
      </trkpt>
      <trkpt lat="46.75445" lon="-0.38702">
        <ele>175.99</ele>
        <time>2024-06-24T19:36:28.925Z</time>
      </trkpt>
      <trkpt lat="46.75443" lon="-0.38703">
        <ele>176.12</ele>
        <time>2024-06-24T19:36:34.356Z</time>
      </trkpt>
      <trkpt lat="46.7544" lon="-0.38704">
        <ele>176.24</ele>
        <time>2024-06-24T19:36:39.787Z</time>
      </trkpt>
      <trkpt lat="46.75438" lon="-0.38705">
        <ele>176.37</ele>
        <time>2024-06-24T19:36:45.219Z</time>
      </trkpt>
      <trkpt lat="46.75436" lon="-0.38706">
        <ele>176.49</ele>
        <time>2024-06-24T19:36:50.651Z</time>
      </trkpt>
      <trkpt lat="46.75434" lon="-0.38707">
        <ele>176.61</ele>
        <time>2024-06-24T19:36:56.084Z</time>
      </trkpt>
      <trkpt lat="46.75432" lon="-0.38707">
        <ele>176.73</ele>
        <time>2024-06-24T19:37:01.517Z</time>
      </trkpt>
      <trkpt lat="46.7543" lon="-0.38707">
        <ele>176.85</ele>
        <time>2024-06-24T19:37:06.950Z</time>
      </trkpt>
      <trkpt lat="46.75428" lon="-0.38708">
        <ele>176.96</ele>
        <time>2024-06-24T19:37:12.384Z</time>
      </trkpt>
      <trkpt lat="46.75427" lon="-0.38709">
        <ele>177.08</ele>
        <time>2024-06-24T19:37:17.818Z</time>
      </trkpt>
      <trkpt lat="46.75425" lon="-0.38709">
        <ele>177.19</ele>
        <time>2024-06-24T19:37:23.253Z</time>
      </trkpt>
      <trkpt lat="46.75423" lon="-0.38709">
        <ele>177.3</ele>
        <time>2024-06-24T19:37:28.688Z</time>
      </trkpt>
      <trkpt lat="46.7542" lon="-0.3871">
        <ele>177.41</ele>
        <time>2024-06-24T19:37:34.123Z</time>
      </trkpt>
      <trkpt lat="46.75419" lon="-0.3871">
        <ele>177.52</ele>
        <time>2024-06-24T19:37:39.559Z</time>
      </trkpt>
      <trkpt lat="46.75417" lon="-0.38711">
        <ele>177.62</ele>
        <time>2024-06-24T19:37:44.995Z</time>
      </trkpt>
      <trkpt lat="46.75414" lon="-0.38711">
        <ele>177.73</ele>
        <time>2024-06-24T19:37:50.432Z</time>
      </trkpt>
      <trkpt lat="46.75412" lon="-0.38712">
        <ele>177.83</ele>
        <time>2024-06-24T19:37:55.869Z</time>
      </trkpt>
      <trkpt lat="46.7541" lon="-0.38712">
        <ele>177.94</ele>
        <time>2024-06-24T19:38:01.307Z</time>
      </trkpt>
      <trkpt lat="46.75408" lon="-0.38713">
        <ele>178.04</ele>
        <time>2024-06-24T19:38:06.745Z</time>
      </trkpt>
      <trkpt lat="46.75406" lon="-0.38714">
        <ele>178.13</ele>
        <time>2024-06-24T19:38:12.183Z</time>
      </trkpt>
      <trkpt lat="46.75403" lon="-0.38716">
        <ele>178.23</ele>
        <time>2024-06-24T19:38:17.622Z</time>
      </trkpt>
      <trkpt lat="46.75401" lon="-0.38718">
        <ele>178.33</ele>
        <time>2024-06-24T19:38:23.062Z</time>
      </trkpt>
      <trkpt lat="46.75398" lon="-0.38719">
        <ele>178.42</ele>
        <time>2024-06-24T19:38:28.502Z</time>
      </trkpt>
      <trkpt lat="46.75396" lon="-0.3872">
        <ele>178.52</ele>
        <time>2024-06-24T19:38:33.943Z</time>
      </trkpt>
      <trkpt lat="46.75393" lon="-0.38722">
        <ele>178.61</ele>
        <time>2024-06-24T19:38:39.384Z</time>
      </trkpt>
      <trkpt lat="46.75391" lon="-0.38723">
        <ele>178.7</ele>
        <time>2024-06-24T19:38:44.826Z</time>
      </trkpt>
      <trkpt lat="46.75388" lon="-0.38725">
        <ele>178.8</ele>
        <time>2024-06-24T19:38:50.268Z</time>
      </trkpt>
      <trkpt lat="46.75386" lon="-0.38726">
        <ele>178.88</ele>
        <time>2024-06-24T19:38:55.711Z</time>
      </trkpt>
      <trkpt lat="46.75383" lon="-0.38728">
        <ele>178.97</ele>
        <time>2024-06-24T19:39:01.154Z</time>
      </trkpt>
      <trkpt lat="46.7538" lon="-0.3873">
        <ele>179.06</ele>
        <time>2024-06-24T19:39:06.598Z</time>
      </trkpt>
      <trkpt lat="46.75377" lon="-0.3873">
        <ele>179.15</ele>
        <time>2024-06-24T19:39:12.043Z</time>
      </trkpt>
      <trkpt lat="46.75374" lon="-0.38731">
        <ele>179.24</ele>
        <time>2024-06-24T19:39:17.488Z</time>
      </trkpt>
      <trkpt lat="46.7537" lon="-0.38732">
        <ele>179.32</ele>
        <time>2024-06-24T19:39:22.934Z</time>
      </trkpt>
      <trkpt lat="46.75367" lon="-0.38733">
        <ele>179.41</ele>
        <time>2024-06-24T19:39:28.381Z</time>
      </trkpt>
      <trkpt lat="46.75364" lon="-0.38734">
        <ele>179.49</ele>
        <time>2024-06-24T19:39:33.828Z</time>
      </trkpt>
      <trkpt lat="46.7536" lon="-0.38735">
        <ele>179.58</ele>
        <time>2024-06-24T19:39:39.276Z</time>
      </trkpt>
      <trkpt lat="46.75357" lon="-0.38736">
        <ele>179.67</ele>
        <time>2024-06-24T19:39:44.725Z</time>
      </trkpt>
      <trkpt lat="46.75353" lon="-0.38737">
        <ele>179.75</ele>
        <time>2024-06-24T19:39:50.174Z</time>
      </trkpt>
      <trkpt lat="46.7535" lon="-0.38738">
        <ele>179.83</ele>
        <time>2024-06-24T19:39:55.624Z</time>
      </trkpt>
      <trkpt lat="46.75346" lon="-0.3874">
        <ele>179.92</ele>
        <time>2024-06-24T19:40:01.075Z</time>
      </trkpt>
      <trkpt lat="46.75343" lon="-0.38742">
        <ele>180</ele>
        <time>2024-06-24T19:40:06.527Z</time>
      </trkpt>
      <trkpt lat="46.7534" lon="-0.38744">
        <ele>180.08</ele>
        <time>2024-06-24T19:40:11.979Z</time>
      </trkpt>
      <trkpt lat="46.75337" lon="-0.38747">
        <ele>180.15</ele>
        <time>2024-06-24T19:40:17.432Z</time>
      </trkpt>
      <trkpt lat="46.75334" lon="-0.3875">
        <ele>180.23</ele>
        <time>2024-06-24T19:40:22.886Z</time>
      </trkpt>
      <trkpt lat="46.75331" lon="-0.38754">
        <ele>180.3</ele>
        <time>2024-06-24T19:40:28.341Z</time>
      </trkpt>
      <trkpt lat="46.75328" lon="-0.38758">
        <ele>180.38</ele>
        <time>2024-06-24T19:40:33.796Z</time>
      </trkpt>
      <trkpt lat="46.75326" lon="-0.38762">
        <ele>180.45</ele>
        <time>2024-06-24T19:40:39.252Z</time>
      </trkpt>
      <trkpt lat="46.75324" lon="-0.38766">
        <ele>180.53</ele>
        <time>2024-06-24T19:40:44.709Z</time>
      </trkpt>
      <trkpt lat="46.75321" lon="-0.38771">
        <ele>180.6</ele>
        <time>2024-06-24T19:40:50.167Z</time>
      </trkpt>
      <trkpt lat="46.75319" lon="-0.38777">
        <ele>180.67</ele>
        <time>2024-06-24T19:40:55.626Z</time>
      </trkpt>
      <trkpt lat="46.75316" lon="-0.38783">
        <ele>180.74</ele>
        <time>2024-06-24T19:41:01.086Z</time>
      </trkpt>
      <trkpt lat="46.75313" lon="-0.38788">
        <ele>180.81</ele>
        <time>2024-06-24T19:41:06.546Z</time>
      </trkpt>
      <trkpt lat="46.7531" lon="-0.38794">
        <ele>180.88</ele>
        <time>2024-06-24T19:41:12.007Z</time>
      </trkpt>
      <trkpt lat="46.75308" lon="-0.38799">
        <ele>180.95</ele>
        <time>2024-06-24T19:41:17.469Z</time>
      </trkpt>
      <trkpt lat="46.75305" lon="-0.38805">
        <ele>181.02</ele>
        <time>2024-06-24T19:41:22.932Z</time>
      </trkpt>
      <trkpt lat="46.75301" lon="-0.3881">
        <ele>181.1</ele>
        <time>2024-06-24T19:41:28.396Z</time>
      </trkpt>
      <trkpt lat="46.75298" lon="-0.38815">
        <ele>181.17</ele>
        <time>2024-06-24T19:41:33.861Z</time>
      </trkpt>
      <trkpt lat="46.75294" lon="-0.3882">
        <ele>181.25</ele>
        <time>2024-06-24T19:41:39.327Z</time>
      </trkpt>
      <trkpt lat="46.75289" lon="-0.38824">
        <ele>181.33</ele>
        <time>2024-06-24T19:41:44.794Z</time>
      </trkpt>
      <trkpt lat="46.75285" lon="-0.38828">
        <ele>181.41</ele>
        <time>2024-06-24T19:41:50.262Z</time>
      </trkpt>
      <trkpt lat="46.7528" lon="-0.38829">
        <ele>181.49</ele>
        <time>2024-06-24T19:41:55.731Z</time>
      </trkpt>
      <trkpt lat="46.75275" lon="-0.38829">
        <ele>181.57</ele>
        <time>2024-06-24T19:42:01.201Z</time>
      </trkpt>
      <trkpt lat="46.7527" lon="-0.38829">
        <ele>181.66</ele>
        <time>2024-06-24T19:42:06.672Z</time>
      </trkpt>
      <trkpt lat="46.75266" lon="-0.38827">
        <ele>181.74</ele>
        <time>2024-06-24T19:42:12.144Z</time>
      </trkpt>
      <trkpt lat="46.75261" lon="-0.38825">
        <ele>181.83</ele>
        <time>2024-06-24T19:42:17.617Z</time>
      </trkpt>
      <trkpt lat="46.75257" lon="-0.38822">
        <ele>181.92</ele>
        <time>2024-06-24T19:42:23.091Z</time>
      </trkpt>
      <trkpt lat="46.75254" lon="-0.38818">
        <ele>182.01</ele>
        <time>2024-06-24T19:42:28.566Z</time>
      </trkpt>
      <trkpt lat="46.7525" lon="-0.38815">
        <ele>182.1</ele>
        <time>2024-06-24T19:42:34.042Z</time>
      </trkpt>
      <trkpt lat="46.75247" lon="-0.38812">
        <ele>182.19</ele>
        <time>2024-06-24T19:42:39.519Z</time>
      </trkpt>
      <trkpt lat="46.75243" lon="-0.38808">
        <ele>182.28</ele>
        <time>2024-06-24T19:42:44.996Z</time>
      </trkpt>
      <trkpt lat="46.7524" lon="-0.38805">
        <ele>182.38</ele>
        <time>2024-06-24T19:42:50.474Z</time>
      </trkpt>
      <trkpt lat="46.75236" lon="-0.38801">
        <ele>182.47</ele>
        <time>2024-06-24T19:42:55.953Z</time>
      </trkpt>
      <trkpt lat="46.75233" lon="-0.38798">
        <ele>182.57</ele>
        <time>2024-06-24T19:43:01.433Z</time>
      </trkpt>
      <trkpt lat="46.7523" lon="-0.38794">
        <ele>182.66</ele>
        <time>2024-06-24T19:43:06.914Z</time>
      </trkpt>
      <trkpt lat="46.75227" lon="-0.3879">
        <ele>182.75</ele>
        <time>2024-06-24T19:43:12.396Z</time>
      </trkpt>
      <trkpt lat="46.75224" lon="-0.38787">
        <ele>182.85</ele>
        <time>2024-06-24T19:43:17.878Z</time>
      </trkpt>
      <trkpt lat="46.75221" lon="-0.38784">
        <ele>182.94</ele>
        <time>2024-06-24T19:43:23.361Z</time>
      </trkpt>
      <trkpt lat="46.75217" lon="-0.38781">
        <ele>183.03</ele>
        <time>2024-06-24T19:43:28.845Z</time>
      </trkpt>
      <trkpt lat="46.75214" lon="-0.38778">
        <ele>183.12</ele>
        <time>2024-06-24T19:43:34.330Z</time>
      </trkpt>
      <trkpt lat="46.75212" lon="-0.38774">
        <ele>183.21</ele>
        <time>2024-06-24T19:43:39.815Z</time>
      </trkpt>
      <trkpt lat="46.75209" lon="-0.38771">
        <ele>183.31</ele>
        <time>2024-06-24T19:43:45.301Z</time>
      </trkpt>
      <trkpt lat="46.75206" lon="-0.38768">
        <ele>183.4</ele>
        <time>2024-06-24T19:43:50.788Z</time>
      </trkpt>
      <trkpt lat="46.75203" lon="-0.38765">
        <ele>183.5</ele>
        <time>2024-06-24T19:43:56.276Z</time>
      </trkpt>
      <trkpt lat="46.752" lon="-0.38761">
        <ele>183.6</ele>
        <time>2024-06-24T19:44:01.764Z</time>
      </trkpt>
      <trkpt lat="46.75198" lon="-0.38758">
        <ele>183.7</ele>
        <time>2024-06-24T19:44:07.253Z</time>
      </trkpt>
      <trkpt lat="46.75195" lon="-0.38755">
        <ele>183.8</ele>
        <time>2024-06-24T19:44:12.743Z</time>
      </trkpt>
      <trkpt lat="46.75192" lon="-0.38751">
        <ele>183.9</ele>
        <time>2024-06-24T19:44:18.233Z</time>
      </trkpt>
      <trkpt lat="46.7519" lon="-0.38748">
        <ele>184</ele>
        <time>2024-06-24T19:44:23.724Z</time>
      </trkpt>
      <trkpt lat="46.75188" lon="-0.38744">
        <ele>184.1</ele>
        <time>2024-06-24T19:44:29.216Z</time>
      </trkpt>
      <trkpt lat="46.75185" lon="-0.3874">
        <ele>184.19</ele>
        <time>2024-06-24T19:44:34.708Z</time>
      </trkpt>
      <trkpt lat="46.75183" lon="-0.38737">
        <ele>184.29</ele>
        <time>2024-06-24T19:44:40.201Z</time>
      </trkpt>
      <trkpt lat="46.7518" lon="-0.38733">
        <ele>184.39</ele>
        <time>2024-06-24T19:44:45.695Z</time>
      </trkpt>
      <trkpt lat="46.75178" lon="-0.38729">
        <ele>184.48</ele>
        <time>2024-06-24T19:44:51.190Z</time>
      </trkpt>
      <trkpt lat="46.75176" lon="-0.38725">
        <ele>184.58</ele>
        <time>2024-06-24T19:44:56.685Z</time>
      </trkpt>
      <trkpt lat="46.75173" lon="-0.38721">
        <ele>184.68</ele>
        <time>2024-06-24T19:45:02.181Z</time>
      </trkpt>
      <trkpt lat="46.75171" lon="-0.38718">
        <ele>184.77</ele>
        <time>2024-06-24T19:45:07.678Z</time>
      </trkpt>
      <trkpt lat="46.75169" lon="-0.38715">
        <ele>184.87</ele>
        <time>2024-06-24T19:45:13.175Z</time>
      </trkpt>
      <trkpt lat="46.75167" lon="-0.38711">
        <ele>184.96</ele>
        <time>2024-06-24T19:45:18.673Z</time>
      </trkpt>
      <trkpt lat="46.75165" lon="-0.38708">
        <ele>185.06</ele>
        <time>2024-06-24T19:45:24.171Z</time>
      </trkpt>
      <trkpt lat="46.75163" lon="-0.38704">
        <ele>185.15</ele>
        <time>2024-06-24T19:45:29.670Z</time>
      </trkpt>
      <trkpt lat="46.75161" lon="-0.387">
        <ele>185.25</ele>
        <time>2024-06-24T19:45:35.170Z</time>
      </trkpt>
      <trkpt lat="46.75159" lon="-0.38695">
        <ele>185.35</ele>
        <time>2024-06-24T19:45:40.671Z</time>
      </trkpt>
      <trkpt lat="46.75156" lon="-0.38691">
        <ele>185.45</ele>
        <time>2024-06-24T19:45:46.172Z</time>
      </trkpt>
      <trkpt lat="46.75155" lon="-0.38687">
        <ele>185.54</ele>
        <time>2024-06-24T19:45:51.674Z</time>
      </trkpt>
      <trkpt lat="46.75152" lon="-0.38683">
        <ele>185.64</ele>
        <time>2024-06-24T19:45:57.177Z</time>
      </trkpt>
      <trkpt lat="46.75151" lon="-0.38679">
        <ele>185.73</ele>
        <time>2024-06-24T19:46:02.680Z</time>
      </trkpt>
      <trkpt lat="46.75149" lon="-0.38675">
        <ele>185.82</ele>
        <time>2024-06-24T19:46:08.184Z</time>
      </trkpt>
      <trkpt lat="46.75147" lon="-0.3867">
        <ele>185.91</ele>
        <time>2024-06-24T19:46:13.689Z</time>
      </trkpt>
      <trkpt lat="46.75145" lon="-0.38666">
        <ele>185.99</ele>
        <time>2024-06-24T19:46:19.194Z</time>
      </trkpt>
      <trkpt lat="46.75143" lon="-0.38662">
        <ele>186.08</ele>
        <time>2024-06-24T19:46:24.700Z</time>
      </trkpt>
      <trkpt lat="46.75141" lon="-0.38658">
        <ele>186.17</ele>
        <time>2024-06-24T19:46:30.207Z</time>
      </trkpt>
      <trkpt lat="46.7514" lon="-0.38655">
        <ele>186.27</ele>
        <time>2024-06-24T19:46:35.714Z</time>
      </trkpt>
      <trkpt lat="46.75138" lon="-0.38651">
        <ele>186.36</ele>
        <time>2024-06-24T19:46:41.222Z</time>
      </trkpt>
      <trkpt lat="46.75137" lon="-0.38647">
        <ele>186.45</ele>
        <time>2024-06-24T19:46:46.731Z</time>
      </trkpt>
      <trkpt lat="46.75135" lon="-0.38644">
        <ele>186.54</ele>
        <time>2024-06-24T19:46:52.240Z</time>
      </trkpt>
      <trkpt lat="46.75132" lon="-0.38641">
        <ele>186.63</ele>
        <time>2024-06-24T19:46:57.750Z</time>
      </trkpt>
      <trkpt lat="46.7513" lon="-0.38638">
        <ele>186.72</ele>
        <time>2024-06-24T19:47:03.260Z</time>
      </trkpt>
      <trkpt lat="46.75128" lon="-0.38635">
        <ele>186.81</ele>
        <time>2024-06-24T19:47:08.771Z</time>
      </trkpt>
      <trkpt lat="46.75126" lon="-0.38632">
        <ele>186.9</ele>
        <time>2024-06-24T19:47:14.283Z</time>
      </trkpt>
      <trkpt lat="46.75123" lon="-0.38629">
        <ele>186.99</ele>
        <time>2024-06-24T19:47:19.795Z</time>
      </trkpt>
      <trkpt lat="46.75121" lon="-0.38626">
        <ele>187.09</ele>
        <time>2024-06-24T19:47:25.308Z</time>
      </trkpt>
      <trkpt lat="46.75118" lon="-0.38624">
        <ele>187.18</ele>
        <time>2024-06-24T19:47:30.822Z</time>
      </trkpt>
      <trkpt lat="46.75115" lon="-0.38621">
        <ele>187.27</ele>
        <time>2024-06-24T19:47:36.336Z</time>
      </trkpt>
      <trkpt lat="46.75112" lon="-0.38618">
        <ele>187.37</ele>
        <time>2024-06-24T19:47:41.851Z</time>
      </trkpt>
      <trkpt lat="46.7511" lon="-0.38617">
        <ele>187.46</ele>
        <time>2024-06-24T19:47:47.367Z</time>
      </trkpt>
      <trkpt lat="46.75107" lon="-0.38615">
        <ele>187.55</ele>
        <time>2024-06-24T19:47:52.883Z</time>
      </trkpt>
      <trkpt lat="46.75103" lon="-0.38613">
        <ele>187.64</ele>
        <time>2024-06-24T19:47:58.400Z</time>
      </trkpt>
      <trkpt lat="46.751" lon="-0.3861">
        <ele>187.74</ele>
        <time>2024-06-24T19:48:03.918Z</time>
      </trkpt>
      <trkpt lat="46.75097" lon="-0.38608">
        <ele>187.83</ele>
        <time>2024-06-24T19:48:09.436Z</time>
      </trkpt>
      <trkpt lat="46.75093" lon="-0.38606">
        <ele>187.92</ele>
        <time>2024-06-24T19:48:14.955Z</time>
      </trkpt>
      <trkpt lat="46.7509" lon="-0.38604">
        <ele>188.01</ele>
        <time>2024-06-24T19:48:20.475Z</time>
      </trkpt>
      <trkpt lat="46.75087" lon="-0.38602">
        <ele>188.1</ele>
        <time>2024-06-24T19:48:25.995Z</time>
      </trkpt>
      <trkpt lat="46.75084" lon="-0.386">
        <ele>188.18</ele>
        <time>2024-06-24T19:48:31.516Z</time>
      </trkpt>
      <trkpt lat="46.7508" lon="-0.38598">
        <ele>188.27</ele>
        <time>2024-06-24T19:48:37.038Z</time>
      </trkpt>
      <trkpt lat="46.75077" lon="-0.38596">
        <ele>188.36</ele>
        <time>2024-06-24T19:48:42.561Z</time>
      </trkpt>
      <trkpt lat="46.75073" lon="-0.38594">
        <ele>188.45</ele>
        <time>2024-06-24T19:48:48.084Z</time>
      </trkpt>
      <trkpt lat="46.75069" lon="-0.38592">
        <ele>188.54</ele>
        <time>2024-06-24T19:48:53.608Z</time>
      </trkpt>
      <trkpt lat="46.75066" lon="-0.3859">
        <ele>188.64</ele>
        <time>2024-06-24T19:48:59.133Z</time>
      </trkpt>
      <trkpt lat="46.75062" lon="-0.38588">
        <ele>188.73</ele>
        <time>2024-06-24T19:49:04.659Z</time>
      </trkpt>
      <trkpt lat="46.75059" lon="-0.38586">
        <ele>188.82</ele>
        <time>2024-06-24T19:49:10.185Z</time>
      </trkpt>
      <trkpt lat="46.75056" lon="-0.38585">
        <ele>188.91</ele>
        <time>2024-06-24T19:49:15.712Z</time>
      </trkpt>
      <trkpt lat="46.75052" lon="-0.38583">
        <ele>189</ele>
        <time>2024-06-24T19:49:21.240Z</time>
      </trkpt>
      <trkpt lat="46.75049" lon="-0.38581">
        <ele>189.09</ele>
        <time>2024-06-24T19:49:26.769Z</time>
      </trkpt>
      <trkpt lat="46.75046" lon="-0.3858">
        <ele>189.18</ele>
        <time>2024-06-24T19:49:32.298Z</time>
      </trkpt>
      <trkpt lat="46.75042" lon="-0.38578">
        <ele>189.28</ele>
        <time>2024-06-24T19:49:37.828Z</time>
      </trkpt>
      <trkpt lat="46.75039" lon="-0.38576">
        <ele>189.37</ele>
        <time>2024-06-24T19:49:43.359Z</time>
      </trkpt>
      <trkpt lat="46.75035" lon="-0.38573">
        <ele>189.47</ele>
        <time>2024-06-24T19:49:48.891Z</time>
      </trkpt>
      <trkpt lat="46.75032" lon="-0.38571">
        <ele>189.57</ele>
        <time>2024-06-24T19:49:54.423Z</time>
      </trkpt>
      <trkpt lat="46.75029" lon="-0.38568">
        <ele>189.67</ele>
        <time>2024-06-24T19:49:59.956Z</time>
      </trkpt>
      <trkpt lat="46.75025" lon="-0.38565">
        <ele>189.77</ele>
        <time>2024-06-24T19:50:05.490Z</time>
      </trkpt>
      <trkpt lat="46.75022" lon="-0.38562">
        <ele>189.87</ele>
        <time>2024-06-24T19:50:11.025Z</time>
      </trkpt>
      <trkpt lat="46.75019" lon="-0.38559">
        <ele>189.98</ele>
        <time>2024-06-24T19:50:16.560Z</time>
      </trkpt>
      <trkpt lat="46.75016" lon="-0.38557">
        <ele>190.08</ele>
        <time>2024-06-24T19:50:22.096Z</time>
      </trkpt>
      <trkpt lat="46.75013" lon="-0.38554">
        <ele>190.19</ele>
        <time>2024-06-24T19:50:27.633Z</time>
      </trkpt>
      <trkpt lat="46.7501" lon="-0.3855">
        <ele>190.29</ele>
        <time>2024-06-24T19:50:33.170Z</time>
      </trkpt>
      <trkpt lat="46.75007" lon="-0.38547">
        <ele>190.4</ele>
        <time>2024-06-24T19:50:38.708Z</time>
      </trkpt>
      <trkpt lat="46.75005" lon="-0.38543">
        <ele>190.51</ele>
        <time>2024-06-24T19:50:44.247Z</time>
      </trkpt>
      <trkpt lat="46.75002" lon="-0.38539">
        <ele>190.62</ele>
        <time>2024-06-24T19:50:49.787Z</time>
      </trkpt>
      <trkpt lat="46.74999" lon="-0.38536">
        <ele>190.73</ele>
        <time>2024-06-24T19:50:55.327Z</time>
      </trkpt>
      <trkpt lat="46.74997" lon="-0.38532">
        <ele>190.84</ele>
        <time>2024-06-24T19:51:00.868Z</time>
      </trkpt>
      <trkpt lat="46.74994" lon="-0.38527">
        <ele>190.95</ele>
        <time>2024-06-24T19:51:06.410Z</time>
      </trkpt>
      <trkpt lat="46.74992" lon="-0.38521">
        <ele>191.06</ele>
        <time>2024-06-24T19:51:11.953Z</time>
      </trkpt>
      <trkpt lat="46.74989" lon="-0.38517">
        <ele>191.18</ele>
        <time>2024-06-24T19:51:17.497Z</time>
      </trkpt>
      <trkpt lat="46.74987" lon="-0.38511">
        <ele>191.29</ele>
        <time>2024-06-24T19:51:23.042Z</time>
      </trkpt>
      <trkpt lat="46.74984" lon="-0.38506">
        <ele>191.4</ele>
        <time>2024-06-24T19:51:28.588Z</time>
      </trkpt>
      <trkpt lat="46.74981" lon="-0.38501">
        <ele>191.51</ele>
        <time>2024-06-24T19:51:34.134Z</time>
      </trkpt>
      <trkpt lat="46.74979" lon="-0.38496">
        <ele>191.63</ele>
        <time>2024-06-24T19:51:39.681Z</time>
      </trkpt>
      <trkpt lat="46.74976" lon="-0.38491">
        <ele>191.74</ele>
        <time>2024-06-24T19:51:45.229Z</time>
      </trkpt>
      <trkpt lat="46.74974" lon="-0.38486">
        <ele>191.86</ele>
        <time>2024-06-24T19:51:50.778Z</time>
      </trkpt>
      <trkpt lat="46.74971" lon="-0.38481">
        <ele>191.98</ele>
        <time>2024-06-24T19:51:56.328Z</time>
      </trkpt>
      <trkpt lat="46.74969" lon="-0.38476">
        <ele>192.09</ele>
        <time>2024-06-24T19:52:01.879Z</time>
      </trkpt>
      <trkpt lat="46.74967" lon="-0.38472">
        <ele>192.2</ele>
        <time>2024-06-24T19:52:07.430Z</time>
      </trkpt>
      <trkpt lat="46.74964" lon="-0.38467">
        <ele>192.31</ele>
        <time>2024-06-24T19:52:12.982Z</time>
      </trkpt>
      <trkpt lat="46.74961" lon="-0.38462">
        <ele>192.42</ele>
        <time>2024-06-24T19:52:18.535Z</time>
      </trkpt>
      <trkpt lat="46.74959" lon="-0.38456">
        <ele>192.52</ele>
        <time>2024-06-24T19:52:24.089Z</time>
      </trkpt>
      <trkpt lat="46.74956" lon="-0.38451">
        <ele>192.62</ele>
        <time>2024-06-24T19:52:29.644Z</time>
      </trkpt>
      <trkpt lat="46.74953" lon="-0.38445">
        <ele>192.72</ele>
        <time>2024-06-24T19:52:35.200Z</time>
      </trkpt>
      <trkpt lat="46.7495" lon="-0.3844">
        <ele>192.81</ele>
        <time>2024-06-24T19:52:40.757Z</time>
      </trkpt>
      <trkpt lat="46.74948" lon="-0.38435">
        <ele>192.89</ele>
        <time>2024-06-24T19:52:46.315Z</time>
      </trkpt>
      <trkpt lat="46.74945" lon="-0.38429">
        <ele>192.97</ele>
        <time>2024-06-24T19:52:51.874Z</time>
      </trkpt>
      <trkpt lat="46.74943" lon="-0.38423">
        <ele>193.05</ele>
        <time>2024-06-24T19:52:57.434Z</time>
      </trkpt>
      <trkpt lat="46.74941" lon="-0.38417">
        <ele>193.12</ele>
        <time>2024-06-24T19:53:02.995Z</time>
      </trkpt>
      <trkpt lat="46.74939" lon="-0.3841">
        <ele>193.19</ele>
        <time>2024-06-24T19:53:08.557Z</time>
      </trkpt>
      <trkpt lat="46.74937" lon="-0.38404">
        <ele>193.25</ele>
        <time>2024-06-24T19:53:14.120Z</time>
      </trkpt>
      <trkpt lat="46.74935" lon="-0.38398">
        <ele>193.31</ele>
        <time>2024-06-24T19:53:19.683Z</time>
      </trkpt>
      <trkpt lat="46.74934" lon="-0.38391">
        <ele>193.36</ele>
        <time>2024-06-24T19:53:25.247Z</time>
      </trkpt>
      <trkpt lat="46.74933" lon="-0.38384">
        <ele>193.41</ele>
        <time>2024-06-24T19:53:30.812Z</time>
      </trkpt>
      <trkpt lat="46.74932" lon="-0.38378">
        <ele>193.45</ele>
        <time>2024-06-24T19:53:36.378Z</time>
      </trkpt>
      <trkpt lat="46.74931" lon="-0.38371">
        <ele>193.49</ele>
        <time>2024-06-24T19:53:41.945Z</time>
      </trkpt>
      <trkpt lat="46.74931" lon="-0.38364">
        <ele>193.53</ele>
        <time>2024-06-24T19:53:47.513Z</time>
      </trkpt>
      <trkpt lat="46.7493" lon="-0.38357">
        <ele>193.56</ele>
        <time>2024-06-24T19:53:53.082Z</time>
      </trkpt>
      <trkpt lat="46.7493" lon="-0.3835">
        <ele>193.59</ele>
        <time>2024-06-24T19:53:58.652Z</time>
      </trkpt>
      <trkpt lat="46.74929" lon="-0.38343">
        <ele>193.6</ele>
        <time>2024-06-24T19:54:04.223Z</time>
      </trkpt>
      <trkpt lat="46.74929" lon="-0.38336">
        <ele>193.61</ele>
        <time>2024-06-24T19:54:09.795Z</time>
      </trkpt>
      <trkpt lat="46.74929" lon="-0.38329">
        <ele>193.62</ele>
        <time>2024-06-24T19:54:15.368Z</time>
      </trkpt>
      <trkpt lat="46.74929" lon="-0.38322">
        <ele>193.62</ele>
        <time>2024-06-24T19:54:20.942Z</time>
      </trkpt>
      <trkpt lat="46.74928" lon="-0.38315">
        <ele>193.61</ele>
        <time>2024-06-24T19:54:26.517Z</time>
      </trkpt>
      <trkpt lat="46.74927" lon="-0.38308">
        <ele>193.61</ele>
        <time>2024-06-24T19:54:32.093Z</time>
      </trkpt>
      <trkpt lat="46.74927" lon="-0.38301">
        <ele>193.59</ele>
        <time>2024-06-24T19:54:37.670Z</time>
      </trkpt>
      <trkpt lat="46.74926" lon="-0.38294">
        <ele>193.56</ele>
        <time>2024-06-24T19:54:43.248Z</time>
      </trkpt>
      <trkpt lat="46.74926" lon="-0.38287">
        <ele>193.53</ele>
        <time>2024-06-24T19:54:48.827Z</time>
      </trkpt>
      <trkpt lat="46.74926" lon="-0.38279">
        <ele>193.49</ele>
        <time>2024-06-24T19:54:54.407Z</time>
      </trkpt>
      <trkpt lat="46.74925" lon="-0.38272">
        <ele>193.45</ele>
        <time>2024-06-24T19:54:59.988Z</time>
      </trkpt>
      <trkpt lat="46.74925" lon="-0.38264">
        <ele>193.39</ele>
        <time>2024-06-24T19:55:05.570Z</time>
      </trkpt>
      <trkpt lat="46.74925" lon="-0.38256">
        <ele>193.33</ele>
        <time>2024-06-24T19:55:11.153Z</time>
      </trkpt>
      <trkpt lat="46.74925" lon="-0.38247">
        <ele>193.26</ele>
        <time>2024-06-24T19:55:16.737Z</time>
      </trkpt>
      <trkpt lat="46.74924" lon="-0.38238">
        <ele>193.19</ele>
        <time>2024-06-24T19:55:22.323Z</time>
      </trkpt>
      <trkpt lat="46.74924" lon="-0.38231">
        <ele>193.11</ele>
        <time>2024-06-24T19:55:27.910Z</time>
      </trkpt>
      <trkpt lat="46.74924" lon="-0.38224">
        <ele>193.03</ele>
        <time>2024-06-24T19:55:33.498Z</time>
      </trkpt>
      <trkpt lat="46.74924" lon="-0.38216">
        <ele>192.94</ele>
        <time>2024-06-24T19:55:39.087Z</time>
      </trkpt>
      <trkpt lat="46.74923" lon="-0.38208">
        <ele>192.86</ele>
        <time>2024-06-24T19:55:44.677Z</time>
      </trkpt>
      <trkpt lat="46.74922" lon="-0.38199">
        <ele>192.77</ele>
        <time>2024-06-24T19:55:50.268Z</time>
      </trkpt>
      <trkpt lat="46.74921" lon="-0.3819">
        <ele>192.67</ele>
        <time>2024-06-24T19:55:55.860Z</time>
      </trkpt>
      <trkpt lat="46.7492" lon="-0.38181">
        <ele>192.57</ele>
        <time>2024-06-24T19:56:01.453Z</time>
      </trkpt>
      <trkpt lat="46.74918" lon="-0.38172">
        <ele>192.47</ele>
        <time>2024-06-24T19:56:07.048Z</time>
      </trkpt>
      <trkpt lat="46.74917" lon="-0.38163">
        <ele>192.36</ele>
        <time>2024-06-24T19:56:12.644Z</time>
      </trkpt>
      <trkpt lat="46.74915" lon="-0.38154">
        <ele>192.24</ele>
        <time>2024-06-24T19:56:18.241Z</time>
      </trkpt>
      <trkpt lat="46.74912" lon="-0.38145">
        <ele>192.13</ele>
        <time>2024-06-24T19:56:23.840Z</time>
      </trkpt>
      <trkpt lat="46.7491" lon="-0.38136">
        <ele>192</ele>
        <time>2024-06-24T19:56:29.440Z</time>
      </trkpt>
      <trkpt lat="46.74908" lon="-0.38128">
        <ele>191.89</ele>
        <time>2024-06-24T19:56:35.041Z</time>
      </trkpt>
      <trkpt lat="46.74904" lon="-0.38119">
        <ele>191.77</ele>
        <time>2024-06-24T19:56:40.644Z</time>
      </trkpt>
      <trkpt lat="46.74902" lon="-0.38111">
        <ele>191.65</ele>
        <time>2024-06-24T19:56:46.248Z</time>
      </trkpt>
      <trkpt lat="46.74898" lon="-0.38102">
        <ele>191.52</ele>
        <time>2024-06-24T19:56:51.853Z</time>
      </trkpt>
      <trkpt lat="46.74895" lon="-0.38093">
        <ele>191.39</ele>
        <time>2024-06-24T19:56:57.460Z</time>
      </trkpt>
      <trkpt lat="46.74892" lon="-0.38085">
        <ele>191.26</ele>
        <time>2024-06-24T19:57:03.068Z</time>
      </trkpt>
      <trkpt lat="46.74889" lon="-0.38076">
        <ele>191.13</ele>
        <time>2024-06-24T19:57:08.677Z</time>
      </trkpt>
      <trkpt lat="46.74885" lon="-0.38068">
        <ele>191</ele>
        <time>2024-06-24T19:57:14.288Z</time>
      </trkpt>
      <trkpt lat="46.74882" lon="-0.38059">
        <ele>190.87</ele>
        <time>2024-06-24T19:57:19.900Z</time>
      </trkpt>
      <trkpt lat="46.74879" lon="-0.38051">
        <ele>190.74</ele>
        <time>2024-06-24T19:57:25.513Z</time>
      </trkpt>
      <trkpt lat="46.74876" lon="-0.38043">
        <ele>190.61</ele>
        <time>2024-06-24T19:57:31.127Z</time>
      </trkpt>
      <trkpt lat="46.74873" lon="-0.38035">
        <ele>190.48</ele>
        <time>2024-06-24T19:57:36.743Z</time>
      </trkpt>
      <trkpt lat="46.7487" lon="-0.38026">
        <ele>190.34</ele>
        <time>2024-06-24T19:57:42.360Z</time>
      </trkpt>
      <trkpt lat="46.74866" lon="-0.38018">
        <ele>190.22</ele>
        <time>2024-06-24T19:57:47.978Z</time>
      </trkpt>
      <trkpt lat="46.74863" lon="-0.38009">
        <ele>190.11</ele>
        <time>2024-06-24T19:57:53.598Z</time>
      </trkpt>
      <trkpt lat="46.7486" lon="-0.38001">
        <ele>189.99</ele>
        <time>2024-06-24T19:57:59.219Z</time>
      </trkpt>
      <trkpt lat="46.74857" lon="-0.37993">
        <ele>189.87</ele>
        <time>2024-06-24T19:58:04.841Z</time>
      </trkpt>
      <trkpt lat="46.74854" lon="-0.37985">
        <ele>189.75</ele>
        <time>2024-06-24T19:58:10.465Z</time>
      </trkpt>
      <trkpt lat="46.74851" lon="-0.37977">
        <ele>189.64</ele>
        <time>2024-06-24T19:58:16.090Z</time>
      </trkpt>
      <trkpt lat="46.74847" lon="-0.37967">
        <ele>189.53</ele>
        <time>2024-06-24T19:58:21.716Z</time>
      </trkpt>
      <trkpt lat="46.74844" lon="-0.37959">
        <ele>189.43</ele>
        <time>2024-06-24T19:58:27.344Z</time>
      </trkpt>
      <trkpt lat="46.74841" lon="-0.37951">
        <ele>189.34</ele>
        <time>2024-06-24T19:58:32.973Z</time>
      </trkpt>
      <trkpt lat="46.74837" lon="-0.37943">
        <ele>189.24</ele>
        <time>2024-06-24T19:58:38.603Z</time>
      </trkpt>
      <trkpt lat="46.74834" lon="-0.37934">
        <ele>189.15</ele>
        <time>2024-06-24T19:58:44.235Z</time>
      </trkpt>
      <trkpt lat="46.74832" lon="-0.37927">
        <ele>189.05</ele>
        <time>2024-06-24T19:58:49.868Z</time>
      </trkpt>
      <trkpt lat="46.74829" lon="-0.37918">
        <ele>188.97</ele>
        <time>2024-06-24T19:58:55.502Z</time>
      </trkpt>
      <trkpt lat="46.74827" lon="-0.37911">
        <ele>188.91</ele>
        <time>2024-06-24T19:59:01.137Z</time>
      </trkpt>
      <trkpt lat="46.74824" lon="-0.37903">
        <ele>188.84</ele>
        <time>2024-06-24T19:59:06.773Z</time>
      </trkpt>
      <trkpt lat="46.74821" lon="-0.37896">
        <ele>188.78</ele>
        <time>2024-06-24T19:59:12.411Z</time>
      </trkpt>
      <trkpt lat="46.74818" lon="-0.37888">
        <ele>188.72</ele>
        <time>2024-06-24T19:59:18.050Z</time>
      </trkpt>
      <trkpt lat="46.74816" lon="-0.3788">
        <ele>188.66</ele>
        <time>2024-06-24T19:59:23.690Z</time>
      </trkpt>
      <trkpt lat="46.74813" lon="-0.37873">
        <ele>188.6</ele>
        <time>2024-06-24T19:59:29.331Z</time>
      </trkpt>
      <trkpt lat="46.7481" lon="-0.37865">
        <ele>188.56</ele>
        <time>2024-06-24T19:59:34.973Z</time>
      </trkpt>
      <trkpt lat="46.74808" lon="-0.37857">
        <ele>188.52</ele>
        <time>2024-06-24T19:59:40.617Z</time>
      </trkpt>
      <trkpt lat="46.74805" lon="-0.37849">
        <ele>188.49</ele>
        <time>2024-06-24T19:59:46.262Z</time>
      </trkpt>
      <trkpt lat="46.74802" lon="-0.37841">
        <ele>188.46</ele>
        <time>2024-06-24T19:59:51.908Z</time>
      </trkpt>
      <trkpt lat="46.748" lon="-0.37834">
        <ele>188.43</ele>
        <time>2024-06-24T19:59:57.555Z</time>
      </trkpt>
      <trkpt lat="46.74797" lon="-0.37827">
        <ele>188.41</ele>
        <time>2024-06-24T20:00:03.203Z</time>
      </trkpt>
      <trkpt lat="46.74795" lon="-0.3782">
        <ele>188.38</ele>
        <time>2024-06-24T20:00:08.852Z</time>
      </trkpt>
      <trkpt lat="46.74793" lon="-0.37813">
        <ele>188.37</ele>
        <time>2024-06-24T20:00:14.502Z</time>
      </trkpt>
      <trkpt lat="46.74791" lon="-0.37806">
        <ele>188.36</ele>
        <time>2024-06-24T20:00:20.153Z</time>
      </trkpt>
      <trkpt lat="46.74789" lon="-0.378">
        <ele>188.35</ele>
        <time>2024-06-24T20:00:25.805Z</time>
      </trkpt>
      <trkpt lat="46.74786" lon="-0.37793">
        <ele>188.35</ele>
        <time>2024-06-24T20:00:31.458Z</time>
      </trkpt>
      <trkpt lat="46.74784" lon="-0.37786">
        <ele>188.36</ele>
        <time>2024-06-24T20:00:37.112Z</time>
      </trkpt>
      <trkpt lat="46.74782" lon="-0.3778">
        <ele>188.38</ele>
        <time>2024-06-24T20:00:42.767Z</time>
      </trkpt>
      <trkpt lat="46.74779" lon="-0.37773">
        <ele>188.39</ele>
        <time>2024-06-24T20:00:48.423Z</time>
      </trkpt>
      <trkpt lat="46.74777" lon="-0.37767">
        <ele>188.4</ele>
        <time>2024-06-24T20:00:54.080Z</time>
      </trkpt>
      <trkpt lat="46.74775" lon="-0.37761">
        <ele>188.41</ele>
        <time>2024-06-24T20:00:59.738Z</time>
      </trkpt>
      <trkpt lat="46.74773" lon="-0.37755">
        <ele>188.43</ele>
        <time>2024-06-24T20:01:05.397Z</time>
      </trkpt>
      <trkpt lat="46.74771" lon="-0.37749">
        <ele>188.45</ele>
        <time>2024-06-24T20:01:11.057Z</time>
      </trkpt>
      <trkpt lat="46.74769" lon="-0.37744">
        <ele>188.48</ele>
        <time>2024-06-24T20:01:16.718Z</time>
      </trkpt>
      <trkpt lat="46.74767" lon="-0.37739">
        <ele>188.52</ele>
        <time>2024-06-24T20:01:22.380Z</time>
      </trkpt>
      <trkpt lat="46.74765" lon="-0.37733">
        <ele>188.55</ele>
        <time>2024-06-24T20:01:28.043Z</time>
      </trkpt>
      <trkpt lat="46.74763" lon="-0.37727">
        <ele>188.59</ele>
        <time>2024-06-24T20:01:33.706Z</time>
      </trkpt>
      <trkpt lat="46.74761" lon="-0.37721">
        <ele>188.64</ele>
        <time>2024-06-24T20:01:39.370Z</time>
      </trkpt>
      <trkpt lat="46.74759" lon="-0.37715">
        <ele>188.68</ele>
        <time>2024-06-24T20:01:45.035Z</time>
      </trkpt>
      <trkpt lat="46.74757" lon="-0.37709">
        <ele>188.73</ele>
        <time>2024-06-24T20:01:50.701Z</time>
      </trkpt>
      <trkpt lat="46.74755" lon="-0.37703">
        <ele>188.77</ele>
        <time>2024-06-24T20:01:56.368Z</time>
      </trkpt>
      <trkpt lat="46.74753" lon="-0.37697">
        <ele>188.82</ele>
        <time>2024-06-24T20:02:02.036Z</time>
      </trkpt>
      <trkpt lat="46.74751" lon="-0.37691">
        <ele>188.88</ele>
        <time>2024-06-24T20:02:07.705Z</time>
      </trkpt>
      <trkpt lat="46.74749" lon="-0.37685">
        <ele>188.94</ele>
        <time>2024-06-24T20:02:13.375Z</time>
      </trkpt>
      <trkpt lat="46.74746" lon="-0.37679">
        <ele>189.01</ele>
        <time>2024-06-24T20:02:19.046Z</time>
      </trkpt>
      <trkpt lat="46.74744" lon="-0.37672">
        <ele>189.08</ele>
        <time>2024-06-24T20:02:24.718Z</time>
      </trkpt>
      <trkpt lat="46.74742" lon="-0.37666">
        <ele>189.15</ele>
        <time>2024-06-24T20:02:30.391Z</time>
      </trkpt>
      <trkpt lat="46.7474" lon="-0.37659">
        <ele>189.22</ele>
        <time>2024-06-24T20:02:36.065Z</time>
      </trkpt>
      <trkpt lat="46.74738" lon="-0.37653">
        <ele>189.29</ele>
        <time>2024-06-24T20:02:41.740Z</time>
      </trkpt>
      <trkpt lat="46.74736" lon="-0.37646">
        <ele>189.37</ele>
        <time>2024-06-24T20:02:47.416Z</time>
      </trkpt>
      <trkpt lat="46.74734" lon="-0.37639">
        <ele>189.44</ele>
        <time>2024-06-24T20:02:53.093Z</time>
      </trkpt>
      <trkpt lat="46.74731" lon="-0.37633">
        <ele>189.52</ele>
        <time>2024-06-24T20:02:58.771Z</time>
      </trkpt>
      <trkpt lat="46.74728" lon="-0.37626">
        <ele>189.61</ele>
        <time>2024-06-24T20:03:04.450Z</time>
      </trkpt>
      <trkpt lat="46.74725" lon="-0.37619">
        <ele>189.69</ele>
        <time>2024-06-24T20:03:10.130Z</time>
      </trkpt>
      <trkpt lat="46.74723" lon="-0.37612">
        <ele>189.77</ele>
        <time>2024-06-24T20:03:15.811Z</time>
      </trkpt>
      <trkpt lat="46.7472" lon="-0.37605">
        <ele>189.85</ele>
        <time>2024-06-24T20:03:21.493Z</time>
      </trkpt>
      <trkpt lat="46.74717" lon="-0.37599">
        <ele>189.93</ele>
        <time>2024-06-24T20:03:27.176Z</time>
      </trkpt>
      <trkpt lat="46.74714" lon="-0.37592">
        <ele>190.01</ele>
        <time>2024-06-24T20:03:32.860Z</time>
      </trkpt>
      <trkpt lat="46.74711" lon="-0.37586">
        <ele>190.1</ele>
        <time>2024-06-24T20:03:38.546Z</time>
      </trkpt>
      <trkpt lat="46.74708" lon="-0.37579">
        <ele>190.19</ele>
        <time>2024-06-24T20:03:44.233Z</time>
      </trkpt>
      <trkpt lat="46.74705" lon="-0.37573">
        <ele>190.28</ele>
        <time>2024-06-24T20:03:49.921Z</time>
      </trkpt>
      <trkpt lat="46.74701" lon="-0.37567">
        <ele>190.37</ele>
        <time>2024-06-24T20:03:55.610Z</time>
      </trkpt>
      <trkpt lat="46.74698" lon="-0.37561">
        <ele>190.45</ele>
        <time>2024-06-24T20:04:01.300Z</time>
      </trkpt>
      <trkpt lat="46.74694" lon="-0.37555">
        <ele>190.54</ele>
        <time>2024-06-24T20:04:06.991Z</time>
      </trkpt>
      <trkpt lat="46.74691" lon="-0.37549">
        <ele>190.63</ele>
        <time>2024-06-24T20:04:12.683Z</time>
      </trkpt>
      <trkpt lat="46.74688" lon="-0.37542">
        <ele>190.71</ele>
        <time>2024-06-24T20:04:18.376Z</time>
      </trkpt>
      <trkpt lat="46.74684" lon="-0.37536">
        <ele>190.8</ele>
        <time>2024-06-24T20:04:24.070Z</time>
      </trkpt>
      <trkpt lat="46.74681" lon="-0.3753">
        <ele>190.89</ele>
        <time>2024-06-24T20:04:29.765Z</time>
      </trkpt>
      <trkpt lat="46.74678" lon="-0.37525">
        <ele>190.98</ele>
        <time>2024-06-24T20:04:35.461Z</time>
      </trkpt>
      <trkpt lat="46.74675" lon="-0.37519">
        <ele>191.07</ele>
        <time>2024-06-24T20:04:41.158Z</time>
      </trkpt>
      <trkpt lat="46.74672" lon="-0.37513">
        <ele>191.16</ele>
        <time>2024-06-24T20:04:46.856Z</time>
      </trkpt>
      <trkpt lat="46.74668" lon="-0.37507">
        <ele>191.25</ele>
        <time>2024-06-24T20:04:52.555Z</time>
      </trkpt>
      <trkpt lat="46.74665" lon="-0.37501">
        <ele>191.35</ele>
        <time>2024-06-24T20:04:58.255Z</time>
      </trkpt>
      <trkpt lat="46.74662" lon="-0.37495">
        <ele>191.45</ele>
        <time>2024-06-24T20:05:03.956Z</time>
      </trkpt>
      <trkpt lat="46.74659" lon="-0.37489">
        <ele>191.55</ele>
        <time>2024-06-24T20:05:09.658Z</time>
      </trkpt>
      <trkpt lat="46.74656" lon="-0.37484">
        <ele>191.65</ele>
        <time>2024-06-24T20:05:15.361Z</time>
      </trkpt>
      <trkpt lat="46.74652" lon="-0.37477">
        <ele>191.74</ele>
        <time>2024-06-24T20:05:21.066Z</time>
      </trkpt>
      <trkpt lat="46.74649" lon="-0.37471">
        <ele>191.83</ele>
        <time>2024-06-24T20:05:26.772Z</time>
      </trkpt>
      <trkpt lat="46.74646" lon="-0.37465">
        <ele>191.93</ele>
        <time>2024-06-24T20:05:32.479Z</time>
      </trkpt>
      <trkpt lat="46.74643" lon="-0.37459">
        <ele>192.03</ele>
        <time>2024-06-24T20:05:38.187Z</time>
      </trkpt>
      <trkpt lat="46.74641" lon="-0.37453">
        <ele>192.12</ele>
        <time>2024-06-24T20:05:43.896Z</time>
      </trkpt>
      <trkpt lat="46.74638" lon="-0.37447">
        <ele>192.22</ele>
        <time>2024-06-24T20:05:49.606Z</time>
      </trkpt>
      <trkpt lat="46.74635" lon="-0.37444">
        <ele>192.31</ele>
        <time>2024-06-24T20:05:55.316Z</time>
      </trkpt>
      <trkpt lat="46.74631" lon="-0.37444">
        <ele>192.4</ele>
        <time>2024-06-24T20:06:01.027Z</time>
      </trkpt>
      <trkpt lat="46.74628" lon="-0.37446">
        <ele>192.49</ele>
        <time>2024-06-24T20:06:06.739Z</time>
      </trkpt>
      <trkpt lat="46.74625" lon="-0.3745">
        <ele>192.59</ele>
        <time>2024-06-24T20:06:12.452Z</time>
      </trkpt>
      <trkpt lat="46.74623" lon="-0.37455">
        <ele>192.68</ele>
        <time>2024-06-24T20:06:18.165Z</time>
      </trkpt>
      <trkpt lat="46.74621" lon="-0.3746">
        <ele>192.78</ele>
        <time>2024-06-24T20:06:23.879Z</time>
      </trkpt>
      <trkpt lat="46.7462" lon="-0.37464">
        <ele>192.87</ele>
        <time>2024-06-24T20:06:29.594Z</time>
      </trkpt>
      <trkpt lat="46.74618" lon="-0.37469">
        <ele>192.96</ele>
        <time>2024-06-24T20:06:35.310Z</time>
      </trkpt>
      <trkpt lat="46.74617" lon="-0.37474">
        <ele>193.05</ele>
        <time>2024-06-24T20:06:41.026Z</time>
      </trkpt>
      <trkpt lat="46.74615" lon="-0.37478">
        <ele>193.13</ele>
        <time>2024-06-24T20:06:46.743Z</time>
      </trkpt>
      <trkpt lat="46.74614" lon="-0.37481">
        <ele>193.22</ele>
        <time>2024-06-24T20:06:52.460Z</time>
      </trkpt>
      <trkpt lat="46.74612" lon="-0.37486">
        <ele>193.31</ele>
        <time>2024-06-24T20:06:58.178Z</time>
      </trkpt>
      <trkpt lat="46.74611" lon="-0.3749">
        <ele>193.39</ele>
        <time>2024-06-24T20:07:03.897Z</time>
      </trkpt>
      <trkpt lat="46.7461" lon="-0.37493">
        <ele>193.47</ele>
        <time>2024-06-24T20:07:09.616Z</time>
      </trkpt>
      <trkpt lat="46.74608" lon="-0.37497">
        <ele>193.56</ele>
        <time>2024-06-24T20:07:15.336Z</time>
      </trkpt>
      <trkpt lat="46.74607" lon="-0.37501">
        <ele>193.64</ele>
        <time>2024-06-24T20:07:21.057Z</time>
      </trkpt>
      <trkpt lat="46.74605" lon="-0.37505">
        <ele>193.72</ele>
        <time>2024-06-24T20:07:26.778Z</time>
      </trkpt>
      <trkpt lat="46.74604" lon="-0.37509">
        <ele>193.8</ele>
        <time>2024-06-24T20:07:32.500Z</time>
      </trkpt>
      <trkpt lat="46.74602" lon="-0.37513">
        <ele>193.88</ele>
        <time>2024-06-24T20:07:38.222Z</time>
      </trkpt>
      <trkpt lat="46.746" lon="-0.37517">
        <ele>193.95</ele>
        <time>2024-06-24T20:07:43.945Z</time>
      </trkpt>
      <trkpt lat="46.74599" lon="-0.37521">
        <ele>194.03</ele>
        <time>2024-06-24T20:07:49.669Z</time>
      </trkpt>
      <trkpt lat="46.74598" lon="-0.37524">
        <ele>194.1</ele>
        <time>2024-06-24T20:07:55.393Z</time>
      </trkpt>
      <trkpt lat="46.74597" lon="-0.37528">
        <ele>194.17</ele>
        <time>2024-06-24T20:08:01.118Z</time>
      </trkpt>
      <trkpt lat="46.74596" lon="-0.37532">
        <ele>194.25</ele>
        <time>2024-06-24T20:08:06.843Z</time>
      </trkpt>
      <trkpt lat="46.74594" lon="-0.37536">
        <ele>194.32</ele>
        <time>2024-06-24T20:08:12.569Z</time>
      </trkpt>
      <trkpt lat="46.74593" lon="-0.3754">
        <ele>194.39</ele>
        <time>2024-06-24T20:08:18.296Z</time>
      </trkpt>
      <trkpt lat="46.74591" lon="-0.37544">
        <ele>194.46</ele>
        <time>2024-06-24T20:08:24.023Z</time>
      </trkpt>
      <trkpt lat="46.74589" lon="-0.37549">
        <ele>194.53</ele>
        <time>2024-06-24T20:08:29.751Z</time>
      </trkpt>
      <trkpt lat="46.74587" lon="-0.37554">
        <ele>194.6</ele>
        <time>2024-06-24T20:08:35.480Z</time>
      </trkpt>
      <trkpt lat="46.74586" lon="-0.37559">
        <ele>194.67</ele>
        <time>2024-06-24T20:08:41.210Z</time>
      </trkpt>
      <trkpt lat="46.74584" lon="-0.37563">
        <ele>194.74</ele>
        <time>2024-06-24T20:08:46.940Z</time>
      </trkpt>
      <trkpt lat="46.74582" lon="-0.37568">
        <ele>194.81</ele>
        <time>2024-06-24T20:08:52.671Z</time>
      </trkpt>
      <trkpt lat="46.74581" lon="-0.37571">
        <ele>194.89</ele>
        <time>2024-06-24T20:08:58.403Z</time>
      </trkpt>
      <trkpt lat="46.74579" lon="-0.37575">
        <ele>194.96</ele>
        <time>2024-06-24T20:09:04.135Z</time>
      </trkpt>
      <trkpt lat="46.74577" lon="-0.37579">
        <ele>195.04</ele>
        <time>2024-06-24T20:09:09.868Z</time>
      </trkpt>
      <trkpt lat="46.74576" lon="-0.37582">
        <ele>195.12</ele>
        <time>2024-06-24T20:09:15.601Z</time>
      </trkpt>
      <trkpt lat="46.74574" lon="-0.37585">
        <ele>195.2</ele>
        <time>2024-06-24T20:09:21.335Z</time>
      </trkpt>
      <trkpt lat="46.74571" lon="-0.37589">
        <ele>195.28</ele>
        <time>2024-06-24T20:09:27.070Z</time>
      </trkpt>
      <trkpt lat="46.74569" lon="-0.37592">
        <ele>195.36</ele>
        <time>2024-06-24T20:09:32.805Z</time>
      </trkpt>
      <trkpt lat="46.74566" lon="-0.37596">
        <ele>195.44</ele>
        <time>2024-06-24T20:09:38.541Z</time>
      </trkpt>
      <trkpt lat="46.74564" lon="-0.37599">
        <ele>195.53</ele>
        <time>2024-06-24T20:09:44.278Z</time>
      </trkpt>
      <trkpt lat="46.74562" lon="-0.37601">
        <ele>195.62</ele>
        <time>2024-06-24T20:09:50.015Z</time>
      </trkpt>
      <trkpt lat="46.74561" lon="-0.37605">
        <ele>195.71</ele>
        <time>2024-06-24T20:09:55.753Z</time>
      </trkpt>
      <trkpt lat="46.74559" lon="-0.37609">
        <ele>195.81</ele>
        <time>2024-06-24T20:10:01.491Z</time>
      </trkpt>
      <trkpt lat="46.74557" lon="-0.37614">
        <ele>195.91</ele>
        <time>2024-06-24T20:10:07.230Z</time>
      </trkpt>
      <trkpt lat="46.74556" lon="-0.37619">
        <ele>196.01</ele>
        <time>2024-06-24T20:10:12.970Z</time>
      </trkpt>
      <trkpt lat="46.74555" lon="-0.37624">
        <ele>196.12</ele>
        <time>2024-06-24T20:10:18.711Z</time>
      </trkpt>
      <trkpt lat="46.74554" lon="-0.37629">
        <ele>196.22</ele>
        <time>2024-06-24T20:10:24.452Z</time>
      </trkpt>
      <trkpt lat="46.74553" lon="-0.37633">
        <ele>196.33</ele>
        <time>2024-06-24T20:10:30.194Z</time>
      </trkpt>
      <trkpt lat="46.74552" lon="-0.37637">
        <ele>196.44</ele>
        <time>2024-06-24T20:10:35.937Z</time>
      </trkpt>
      <trkpt lat="46.74551" lon="-0.37642">
        <ele>196.55</ele>
        <time>2024-06-24T20:10:41.680Z</time>
      </trkpt>
      <trkpt lat="46.7455" lon="-0.37647">
        <ele>196.67</ele>
        <time>2024-06-24T20:10:47.424Z</time>
      </trkpt>
      <trkpt lat="46.74548" lon="-0.37652">
        <ele>196.78</ele>
        <time>2024-06-24T20:10:53.169Z</time>
      </trkpt>
      <trkpt lat="46.74547" lon="-0.37657">
        <ele>196.9</ele>
        <time>2024-06-24T20:10:58.914Z</time>
      </trkpt>
      <trkpt lat="46.74545" lon="-0.37662">
        <ele>197.02</ele>
        <time>2024-06-24T20:11:04.660Z</time>
      </trkpt>
      <trkpt lat="46.74544" lon="-0.37666">
        <ele>197.14</ele>
        <time>2024-06-24T20:11:10.407Z</time>
      </trkpt>
      <trkpt lat="46.74543" lon="-0.37671">
        <ele>197.26</ele>
        <time>2024-06-24T20:11:16.154Z</time>
      </trkpt>
      <trkpt lat="46.74542" lon="-0.37676">
        <ele>197.38</ele>
        <time>2024-06-24T20:11:21.902Z</time>
      </trkpt>
      <trkpt lat="46.74541" lon="-0.37681">
        <ele>197.51</ele>
        <time>2024-06-24T20:11:27.651Z</time>
      </trkpt>
      <trkpt lat="46.74539" lon="-0.37685">
        <ele>197.63</ele>
        <time>2024-06-24T20:11:33.401Z</time>
      </trkpt>
      <trkpt lat="46.74538" lon="-0.3769">
        <ele>197.77</ele>
        <time>2024-06-24T20:11:39.151Z</time>
      </trkpt>
      <trkpt lat="46.74537" lon="-0.37694">
        <ele>197.9</ele>
        <time>2024-06-24T20:11:44.902Z</time>
      </trkpt>
      <trkpt lat="46.74535" lon="-0.37699">
        <ele>198.03</ele>
        <time>2024-06-24T20:11:50.654Z</time>
      </trkpt>
      <trkpt lat="46.74534" lon="-0.37704">
        <ele>198.17</ele>
        <time>2024-06-24T20:11:56.406Z</time>
      </trkpt>
      <trkpt lat="46.74533" lon="-0.37708">
        <ele>198.3</ele>
        <time>2024-06-24T20:12:02.159Z</time>
      </trkpt>
      <trkpt lat="46.74532" lon="-0.37713">
        <ele>198.44</ele>
        <time>2024-06-24T20:12:07.913Z</time>
      </trkpt>
      <trkpt lat="46.74531" lon="-0.37717">
        <ele>198.58</ele>
        <time>2024-06-24T20:12:13.667Z</time>
      </trkpt>
      <trkpt lat="46.7453" lon="-0.3772">
        <ele>198.72</ele>
        <time>2024-06-24T20:12:19.422Z</time>
      </trkpt>
      <trkpt lat="46.74528" lon="-0.37724">
        <ele>198.86</ele>
        <time>2024-06-24T20:12:25.177Z</time>
      </trkpt>
      <trkpt lat="46.74527" lon="-0.37728">
        <ele>198.99</ele>
        <time>2024-06-24T20:12:30.933Z</time>
      </trkpt>
      <trkpt lat="46.74526" lon="-0.37732">
        <ele>199.13</ele>
        <time>2024-06-24T20:12:36.690Z</time>
      </trkpt>
      <trkpt lat="46.74525" lon="-0.37736">
        <ele>199.27</ele>
        <time>2024-06-24T20:12:42.447Z</time>
      </trkpt>
      <trkpt lat="46.74524" lon="-0.3774">
        <ele>199.4</ele>
        <time>2024-06-24T20:12:48.205Z</time>
      </trkpt>
      <trkpt lat="46.74522" lon="-0.37745">
        <ele>199.54</ele>
        <time>2024-06-24T20:12:53.963Z</time>
      </trkpt>
      <trkpt lat="46.74521" lon="-0.3775">
        <ele>199.68</ele>
        <time>2024-06-24T20:12:59.722Z</time>
      </trkpt>
      <trkpt lat="46.74519" lon="-0.37755">
        <ele>199.81</ele>
        <time>2024-06-24T20:13:05.482Z</time>
      </trkpt>
      <trkpt lat="46.74518" lon="-0.37759">
        <ele>199.95</ele>
        <time>2024-06-24T20:13:11.243Z</time>
      </trkpt>
      <trkpt lat="46.74517" lon="-0.37764">
        <ele>200.08</ele>
        <time>2024-06-24T20:13:17.004Z</time>
      </trkpt>
      <trkpt lat="46.74515" lon="-0.37768">
        <ele>200.21</ele>
        <time>2024-06-24T20:13:22.766Z</time>
      </trkpt>
      <trkpt lat="46.74513" lon="-0.37772">
        <ele>200.35</ele>
        <time>2024-06-24T20:13:28.529Z</time>
      </trkpt>
      <trkpt lat="46.74512" lon="-0.37776">
        <ele>200.48</ele>
        <time>2024-06-24T20:13:34.292Z</time>
      </trkpt>
      <trkpt lat="46.7451" lon="-0.3778">
        <ele>200.61</ele>
        <time>2024-06-24T20:13:40.056Z</time>
      </trkpt>
      <trkpt lat="46.74509" lon="-0.37783">
        <ele>200.74</ele>
        <time>2024-06-24T20:13:45.820Z</time>
      </trkpt>
      <trkpt lat="46.74507" lon="-0.37786">
        <ele>200.87</ele>
        <time>2024-06-24T20:13:51.585Z</time>
      </trkpt>
      <trkpt lat="46.74505" lon="-0.37789">
        <ele>200.99</ele>
        <time>2024-06-24T20:13:57.351Z</time>
      </trkpt>
      <trkpt lat="46.74503" lon="-0.37793">
        <ele>201.11</ele>
        <time>2024-06-24T20:14:03.117Z</time>
      </trkpt>
      <trkpt lat="46.74501" lon="-0.37796">
        <ele>201.23</ele>
        <time>2024-06-24T20:14:08.884Z</time>
      </trkpt>
      <trkpt lat="46.74499" lon="-0.378">
        <ele>201.35</ele>
        <time>2024-06-24T20:14:14.651Z</time>
      </trkpt>
      <trkpt lat="46.74498" lon="-0.37802">
        <ele>201.46</ele>
        <time>2024-06-24T20:14:20.419Z</time>
      </trkpt>
      <trkpt lat="46.74497" lon="-0.37806">
        <ele>201.57</ele>
        <time>2024-06-24T20:14:26.187Z</time>
      </trkpt>
      <trkpt lat="46.74496" lon="-0.3781">
        <ele>201.67</ele>
        <time>2024-06-24T20:14:31.956Z</time>
      </trkpt>
      <trkpt lat="46.74495" lon="-0.37813">
        <ele>201.77</ele>
        <time>2024-06-24T20:14:37.725Z</time>
      </trkpt>
      <trkpt lat="46.74494" lon="-0.37817">
        <ele>201.87</ele>
        <time>2024-06-24T20:14:43.495Z</time>
      </trkpt>
      <trkpt lat="46.74492" lon="-0.37821">
        <ele>201.97</ele>
        <time>2024-06-24T20:14:49.266Z</time>
      </trkpt>
      <trkpt lat="46.74491" lon="-0.37825">
        <ele>202.06</ele>
        <time>2024-06-24T20:14:55.037Z</time>
      </trkpt>
      <trkpt lat="46.7449" lon="-0.3783">
        <ele>202.14</ele>
        <time>2024-06-24T20:15:00.809Z</time>
      </trkpt>
      <trkpt lat="46.7449" lon="-0.37835">
        <ele>202.23</ele>
        <time>2024-06-24T20:15:06.582Z</time>
      </trkpt>
      <trkpt lat="46.74488" lon="-0.37839">
        <ele>202.31</ele>
        <time>2024-06-24T20:15:12.355Z</time>
      </trkpt>
      <trkpt lat="46.74487" lon="-0.37843">
        <ele>202.39</ele>
        <time>2024-06-24T20:15:18.129Z</time>
      </trkpt>
      <trkpt lat="46.74486" lon="-0.37848">
        <ele>202.46</ele>
        <time>2024-06-24T20:15:23.904Z</time>
      </trkpt>
      <trkpt lat="46.74485" lon="-0.37853">
        <ele>202.53</ele>
        <time>2024-06-24T20:15:29.679Z</time>
      </trkpt>
      <trkpt lat="46.74484" lon="-0.37858">
        <ele>202.59</ele>
        <time>2024-06-24T20:15:35.455Z</time>
      </trkpt>
      <trkpt lat="46.74482" lon="-0.37862">
        <ele>202.65</ele>
        <time>2024-06-24T20:15:41.232Z</time>
      </trkpt>
      <trkpt lat="46.74481" lon="-0.37868">
        <ele>202.7</ele>
        <time>2024-06-24T20:15:47.009Z</time>
      </trkpt>
      <trkpt lat="46.7448" lon="-0.37872">
        <ele>202.75</ele>
        <time>2024-06-24T20:15:52.787Z</time>
      </trkpt>
      <trkpt lat="46.74479" lon="-0.37876">
        <ele>202.79</ele>
        <time>2024-06-24T20:15:58.566Z</time>
      </trkpt>
      <trkpt lat="46.74478" lon="-0.37881">
        <ele>202.83</ele>
        <time>2024-06-24T20:16:04.345Z</time>
      </trkpt>
      <trkpt lat="46.74477" lon="-0.37885">
        <ele>202.87</ele>
        <time>2024-06-24T20:16:10.125Z</time>
      </trkpt>
      <trkpt lat="46.74476" lon="-0.37889">
        <ele>202.89</ele>
        <time>2024-06-24T20:16:15.906Z</time>
      </trkpt>
      <trkpt lat="46.74475" lon="-0.37892">
        <ele>202.91</ele>
        <time>2024-06-24T20:16:21.687Z</time>
      </trkpt>
      <trkpt lat="46.74474" lon="-0.37897">
        <ele>202.93</ele>
        <time>2024-06-24T20:16:27.469Z</time>
      </trkpt>
      <trkpt lat="46.74472" lon="-0.37899">
        <ele>202.94</ele>
        <time>2024-06-24T20:16:33.251Z</time>
      </trkpt>
      <trkpt lat="46.7447" lon="-0.37901">
        <ele>202.95</ele>
        <time>2024-06-24T20:16:39.034Z</time>
      </trkpt>
      <trkpt lat="46.74468" lon="-0.37904">
        <ele>202.95</ele>
        <time>2024-06-24T20:16:44.817Z</time>
      </trkpt>
      <trkpt lat="46.74467" lon="-0.37908">
        <ele>202.95</ele>
        <time>2024-06-24T20:16:50.601Z</time>
      </trkpt>
      <trkpt lat="46.74466" lon="-0.37913">
        <ele>202.94</ele>
        <time>2024-06-24T20:16:56.386Z</time>
      </trkpt>
      <trkpt lat="46.74464" lon="-0.37917">
        <ele>202.93</ele>
        <time>2024-06-24T20:17:02.171Z</time>
      </trkpt>
      <trkpt lat="46.74462" lon="-0.37921">
        <ele>202.92</ele>
        <time>2024-06-24T20:17:07.957Z</time>
      </trkpt>
      <trkpt lat="46.7446" lon="-0.37925">
        <ele>202.9</ele>
        <time>2024-06-24T20:17:13.744Z</time>
      </trkpt>
      <trkpt lat="46.74459" lon="-0.3793">
        <ele>202.87</ele>
        <time>2024-06-24T20:17:19.531Z</time>
      </trkpt>
      <trkpt lat="46.74457" lon="-0.37934">
        <ele>202.85</ele>
        <time>2024-06-24T20:17:25.319Z</time>
      </trkpt>
      <trkpt lat="46.74455" lon="-0.37937">
        <ele>202.82</ele>
        <time>2024-06-24T20:17:31.107Z</time>
      </trkpt>
      <trkpt lat="46.74453" lon="-0.37942">
        <ele>202.78</ele>
        <time>2024-06-24T20:17:36.896Z</time>
      </trkpt>
      <trkpt lat="46.74451" lon="-0.37946">
        <ele>202.74</ele>
        <time>2024-06-24T20:17:42.686Z</time>
      </trkpt>
      <trkpt lat="46.74449" lon="-0.37951">
        <ele>202.7</ele>
        <time>2024-06-24T20:17:48.477Z</time>
      </trkpt>
      <trkpt lat="46.74447" lon="-0.37956">
        <ele>202.65</ele>
        <time>2024-06-24T20:17:54.269Z</time>
      </trkpt>
      <trkpt lat="46.74445" lon="-0.37961">
        <ele>202.6</ele>
        <time>2024-06-24T20:18:00.061Z</time>
      </trkpt>
      <trkpt lat="46.74443" lon="-0.37966">
        <ele>202.55</ele>
        <time>2024-06-24T20:18:05.854Z</time>
      </trkpt>
      <trkpt lat="46.7444" lon="-0.37972">
        <ele>202.49</ele>
        <time>2024-06-24T20:18:11.648Z</time>
      </trkpt>
      <trkpt lat="46.74437" lon="-0.37978">
        <ele>202.43</ele>
        <time>2024-06-24T20:18:17.443Z</time>
      </trkpt>
      <trkpt lat="46.74435" lon="-0.37983">
        <ele>202.37</ele>
        <time>2024-06-24T20:18:23.239Z</time>
      </trkpt>
      <trkpt lat="46.74432" lon="-0.37987">
        <ele>202.31</ele>
        <time>2024-06-24T20:18:29.036Z</time>
      </trkpt>
      <trkpt lat="46.74429" lon="-0.37992">
        <ele>202.24</ele>
        <time>2024-06-24T20:18:34.834Z</time>
      </trkpt>
      <trkpt lat="46.74426" lon="-0.37997">
        <ele>202.17</ele>
        <time>2024-06-24T20:18:40.633Z</time>
      </trkpt>
      <trkpt lat="46.74423" lon="-0.38001">
        <ele>202.1</ele>
        <time>2024-06-24T20:18:46.432Z</time>
      </trkpt>
      <trkpt lat="46.7442" lon="-0.38005">
        <ele>202.03</ele>
        <time>2024-06-24T20:18:52.232Z</time>
      </trkpt>
      <trkpt lat="46.74418" lon="-0.38009">
        <ele>201.95</ele>
        <time>2024-06-24T20:18:58.033Z</time>
      </trkpt>
      <trkpt lat="46.74415" lon="-0.38013">
        <ele>201.87</ele>
        <time>2024-06-24T20:19:03.835Z</time>
      </trkpt>
      <trkpt lat="46.74413" lon="-0.38018">
        <ele>201.79</ele>
        <time>2024-06-24T20:19:09.637Z</time>
      </trkpt>
      <trkpt lat="46.7441" lon="-0.38022">
        <ele>201.71</ele>
        <time>2024-06-24T20:19:15.440Z</time>
      </trkpt>
      <trkpt lat="46.74408" lon="-0.38027">
        <ele>201.62</ele>
        <time>2024-06-24T20:19:21.244Z</time>
      </trkpt>
      <trkpt lat="46.74406" lon="-0.38032">
        <ele>201.54</ele>
        <time>2024-06-24T20:19:27.049Z</time>
      </trkpt>
      <trkpt lat="46.74405" lon="-0.38038">
        <ele>201.45</ele>
        <time>2024-06-24T20:19:32.855Z</time>
      </trkpt>
      <trkpt lat="46.74403" lon="-0.38044">
        <ele>201.36</ele>
        <time>2024-06-24T20:19:38.662Z</time>
      </trkpt>
      <trkpt lat="46.74401" lon="-0.38048">
        <ele>201.28</ele>
        <time>2024-06-24T20:19:44.469Z</time>
      </trkpt>
      <trkpt lat="46.744" lon="-0.38053">
        <ele>201.19</ele>
        <time>2024-06-24T20:19:50.277Z</time>
      </trkpt>
      <trkpt lat="46.74398" lon="-0.38057">
        <ele>201.1</ele>
        <time>2024-06-24T20:19:56.086Z</time>
      </trkpt>
      <trkpt lat="46.74397" lon="-0.38062">
        <ele>201</ele>
        <time>2024-06-24T20:20:01.895Z</time>
      </trkpt>
      <trkpt lat="46.74396" lon="-0.38066">
        <ele>200.91</ele>
        <time>2024-06-24T20:20:07.705Z</time>
      </trkpt>
      <trkpt lat="46.74395" lon="-0.3807">
        <ele>200.81</ele>
        <time>2024-06-24T20:20:13.516Z</time>
      </trkpt>
      <trkpt lat="46.74393" lon="-0.38074">
        <ele>200.72</ele>
        <time>2024-06-24T20:20:19.327Z</time>
      </trkpt>
      <trkpt lat="46.74392" lon="-0.38078">
        <ele>200.62</ele>
        <time>2024-06-24T20:20:25.139Z</time>
      </trkpt>
      <trkpt lat="46.7439" lon="-0.38082">
        <ele>200.53</ele>
        <time>2024-06-24T20:20:30.951Z</time>
      </trkpt>
      <trkpt lat="46.74389" lon="-0.38086">
        <ele>200.43</ele>
        <time>2024-06-24T20:20:36.764Z</time>
      </trkpt>
      <trkpt lat="46.74388" lon="-0.38089">
        <ele>200.34</ele>
        <time>2024-06-24T20:20:42.578Z</time>
      </trkpt>
      <trkpt lat="46.74386" lon="-0.38094">
        <ele>200.24</ele>
        <time>2024-06-24T20:20:48.392Z</time>
      </trkpt>
      <trkpt lat="46.74384" lon="-0.38098">
        <ele>200.15</ele>
        <time>2024-06-24T20:20:54.207Z</time>
      </trkpt>
      <trkpt lat="46.74382" lon="-0.38102">
        <ele>200.05</ele>
        <time>2024-06-24T20:21:00.023Z</time>
      </trkpt>
      <trkpt lat="46.74381" lon="-0.38106">
        <ele>199.95</ele>
        <time>2024-06-24T20:21:05.839Z</time>
      </trkpt>
      <trkpt lat="46.74379" lon="-0.3811">
        <ele>199.85</ele>
        <time>2024-06-24T20:21:11.656Z</time>
      </trkpt>
      <trkpt lat="46.74378" lon="-0.38114">
        <ele>199.75</ele>
        <time>2024-06-24T20:21:17.474Z</time>
      </trkpt>
      <trkpt lat="46.74376" lon="-0.38118">
        <ele>199.65</ele>
        <time>2024-06-24T20:21:23.292Z</time>
      </trkpt>
      <trkpt lat="46.74374" lon="-0.38123">
        <ele>199.54</ele>
        <time>2024-06-24T20:21:29.111Z</time>
      </trkpt>
      <trkpt lat="46.74372" lon="-0.38128">
        <ele>199.44</ele>
        <time>2024-06-24T20:21:34.931Z</time>
      </trkpt>
      <trkpt lat="46.74371" lon="-0.38133">
        <ele>199.33</ele>
        <time>2024-06-24T20:21:40.751Z</time>
      </trkpt>
      <trkpt lat="46.74369" lon="-0.38137">
        <ele>199.22</ele>
        <time>2024-06-24T20:21:46.572Z</time>
      </trkpt>
      <trkpt lat="46.74368" lon="-0.38142">
        <ele>199.12</ele>
        <time>2024-06-24T20:21:52.394Z</time>
      </trkpt>
      <trkpt lat="46.74366" lon="-0.38147">
        <ele>199.01</ele>
        <time>2024-06-24T20:21:58.217Z</time>
      </trkpt>
      <trkpt lat="46.74365" lon="-0.38152">
        <ele>198.9</ele>
        <time>2024-06-24T20:22:04.040Z</time>
      </trkpt>
      <trkpt lat="46.74364" lon="-0.38157">
        <ele>198.79</ele>
        <time>2024-06-24T20:22:09.864Z</time>
      </trkpt>
      <trkpt lat="46.74362" lon="-0.38161">
        <ele>198.68</ele>
        <time>2024-06-24T20:22:15.689Z</time>
      </trkpt>
      <trkpt lat="46.74361" lon="-0.38166">
        <ele>198.57</ele>
        <time>2024-06-24T20:22:21.515Z</time>
      </trkpt>
      <trkpt lat="46.74359" lon="-0.38171">
        <ele>198.46</ele>
        <time>2024-06-24T20:22:27.341Z</time>
      </trkpt>
      <trkpt lat="46.74357" lon="-0.38176">
        <ele>198.35</ele>
        <time>2024-06-24T20:22:33.168Z</time>
      </trkpt>
      <trkpt lat="46.74355" lon="-0.38181">
        <ele>198.24</ele>
        <time>2024-06-24T20:22:38.996Z</time>
      </trkpt>
      <trkpt lat="46.74353" lon="-0.38186">
        <ele>198.13</ele>
        <time>2024-06-24T20:22:44.825Z</time>
      </trkpt>
      <trkpt lat="46.74351" lon="-0.38192">
        <ele>198.02</ele>
        <time>2024-06-24T20:22:50.655Z</time>
      </trkpt>
      <trkpt lat="46.74348" lon="-0.38198">
        <ele>197.91</ele>
        <time>2024-06-24T20:22:56.486Z</time>
      </trkpt>
      <trkpt lat="46.74346" lon="-0.38204">
        <ele>197.8</ele>
        <time>2024-06-24T20:23:02.317Z</time>
      </trkpt>
      <trkpt lat="46.74344" lon="-0.38209">
        <ele>197.69</ele>
        <time>2024-06-24T20:23:08.149Z</time>
      </trkpt>
      <trkpt lat="46.74342" lon="-0.38214">
        <ele>197.58</ele>
        <time>2024-06-24T20:23:13.982Z</time>
      </trkpt>
      <trkpt lat="46.7434" lon="-0.38219">
        <ele>197.47</ele>
        <time>2024-06-24T20:23:19.816Z</time>
      </trkpt>
      <trkpt lat="46.74339" lon="-0.38224">
        <ele>197.37</ele>
        <time>2024-06-24T20:23:25.651Z</time>
      </trkpt>
      <trkpt lat="46.74337" lon="-0.38229">
        <ele>197.26</ele>
        <time>2024-06-24T20:23:31.486Z</time>
      </trkpt>
      <trkpt lat="46.74334" lon="-0.38235">
        <ele>197.16</ele>
        <time>2024-06-24T20:23:37.322Z</time>
      </trkpt>
      <trkpt lat="46.74332" lon="-0.3824">
        <ele>197.05</ele>
        <time>2024-06-24T20:23:43.159Z</time>
      </trkpt>
      <trkpt lat="46.74329" lon="-0.38246">
        <ele>196.95</ele>
        <time>2024-06-24T20:23:48.997Z</time>
      </trkpt>
      <trkpt lat="46.74326" lon="-0.38252">
        <ele>196.85</ele>
        <time>2024-06-24T20:23:54.836Z</time>
      </trkpt>
      <trkpt lat="46.74323" lon="-0.38258">
        <ele>196.74</ele>
        <time>2024-06-24T20:24:00.676Z</time>
      </trkpt>
      <trkpt lat="46.7432" lon="-0.38263">
        <ele>196.64</ele>
        <time>2024-06-24T20:24:06.517Z</time>
      </trkpt>
      <trkpt lat="46.74318" lon="-0.38268">
        <ele>196.54</ele>
        <time>2024-06-24T20:24:12.359Z</time>
      </trkpt>
      <trkpt lat="46.74315" lon="-0.38274">
        <ele>196.44</ele>
        <time>2024-06-24T20:24:18.202Z</time>
      </trkpt>
      <trkpt lat="46.74312" lon="-0.3828">
        <ele>196.34</ele>
        <time>2024-06-24T20:24:24.046Z</time>
      </trkpt>
      <trkpt lat="46.7431" lon="-0.38286">
        <ele>196.24</ele>
        <time>2024-06-24T20:24:29.891Z</time>
      </trkpt>
      <trkpt lat="46.74307" lon="-0.38291">
        <ele>196.15</ele>
        <time>2024-06-24T20:24:35.737Z</time>
      </trkpt>
      <trkpt lat="46.74304" lon="-0.38297">
        <ele>196.06</ele>
        <time>2024-06-24T20:24:41.584Z</time>
      </trkpt>
      <trkpt lat="46.74302" lon="-0.38302">
        <ele>195.97</ele>
        <time>2024-06-24T20:24:47.432Z</time>
      </trkpt>
      <trkpt lat="46.743" lon="-0.38307">
        <ele>195.89</ele>
        <time>2024-06-24T20:24:53.280Z</time>
      </trkpt>
      <trkpt lat="46.74298" lon="-0.38311">
        <ele>195.81</ele>
        <time>2024-06-24T20:24:59.129Z</time>
      </trkpt>
      <trkpt lat="46.74295" lon="-0.38315">
        <ele>195.73</ele>
        <time>2024-06-24T20:25:04.979Z</time>
      </trkpt>
      <trkpt lat="46.74293" lon="-0.38319">
        <ele>195.65</ele>
        <time>2024-06-24T20:25:10.830Z</time>
      </trkpt>
      <trkpt lat="46.74292" lon="-0.38323">
        <ele>195.58</ele>
        <time>2024-06-24T20:25:16.681Z</time>
      </trkpt>
      <trkpt lat="46.7429" lon="-0.38327">
        <ele>195.51</ele>
        <time>2024-06-24T20:25:22.533Z</time>
      </trkpt>
      <trkpt lat="46.74288" lon="-0.38331">
        <ele>195.44</ele>
        <time>2024-06-24T20:25:28.385Z</time>
      </trkpt>
      <trkpt lat="46.74287" lon="-0.38336">
        <ele>195.37</ele>
        <time>2024-06-24T20:25:34.238Z</time>
      </trkpt>
      <trkpt lat="46.74286" lon="-0.38341">
        <ele>195.31</ele>
        <time>2024-06-24T20:25:40.092Z</time>
      </trkpt>
      <trkpt lat="46.74284" lon="-0.38347">
        <ele>195.25</ele>
        <time>2024-06-24T20:25:45.947Z</time>
      </trkpt>
      <trkpt lat="46.74283" lon="-0.38353">
        <ele>195.19</ele>
        <time>2024-06-24T20:25:51.803Z</time>
      </trkpt>
      <trkpt lat="46.74282" lon="-0.3836">
        <ele>195.14</ele>
        <time>2024-06-24T20:25:57.660Z</time>
      </trkpt>
      <trkpt lat="46.74282" lon="-0.38366">
        <ele>195.09</ele>
        <time>2024-06-24T20:26:03.518Z</time>
      </trkpt>
      <trkpt lat="46.74281" lon="-0.38373">
        <ele>195.04</ele>
        <time>2024-06-24T20:26:09.376Z</time>
      </trkpt>
      <trkpt lat="46.7428" lon="-0.3838">
        <ele>195</ele>
        <time>2024-06-24T20:26:15.235Z</time>
      </trkpt>
      <trkpt lat="46.7428" lon="-0.38387">
        <ele>194.95</ele>
        <time>2024-06-24T20:26:21.095Z</time>
      </trkpt>
      <trkpt lat="46.7428" lon="-0.38395">
        <ele>194.9</ele>
        <time>2024-06-24T20:26:26.956Z</time>
      </trkpt>
      <trkpt lat="46.7428" lon="-0.38402">
        <ele>194.86</ele>
        <time>2024-06-24T20:26:32.818Z</time>
      </trkpt>
      <trkpt lat="46.7428" lon="-0.38408">
        <ele>194.81</ele>
        <time>2024-06-24T20:26:38.681Z</time>
      </trkpt>
      <trkpt lat="46.74279" lon="-0.38414">
        <ele>194.77</ele>
        <time>2024-06-24T20:26:44.545Z</time>
      </trkpt>
      <trkpt lat="46.74278" lon="-0.38419">
        <ele>194.72</ele>
        <time>2024-06-24T20:26:50.410Z</time>
      </trkpt>
      <trkpt lat="46.74278" lon="-0.38424">
        <ele>194.67</ele>
        <time>2024-06-24T20:26:56.276Z</time>
      </trkpt>
      <trkpt lat="46.74275" lon="-0.38431">
        <ele>194.63</ele>
        <time>2024-06-24T20:27:02.143Z</time>
      </trkpt>
      <trkpt lat="46.74273" lon="-0.38437">
        <ele>194.59</ele>
        <time>2024-06-24T20:27:08.011Z</time>
      </trkpt>
      <trkpt lat="46.74271" lon="-0.38444">
        <ele>194.54</ele>
        <time>2024-06-24T20:27:13.880Z</time>
      </trkpt>
      <trkpt lat="46.74268" lon="-0.38451">
        <ele>194.5</ele>
        <time>2024-06-24T20:27:19.750Z</time>
      </trkpt>
      <trkpt lat="46.74265" lon="-0.38457">
        <ele>194.46</ele>
        <time>2024-06-24T20:27:25.621Z</time>
      </trkpt>
      <trkpt lat="46.74261" lon="-0.38462">
        <ele>194.42</ele>
        <time>2024-06-24T20:27:31.493Z</time>
      </trkpt>
      <trkpt lat="46.74258" lon="-0.38467">
        <ele>194.37</ele>
        <time>2024-06-24T20:27:37.366Z</time>
      </trkpt>
      <trkpt lat="46.74254" lon="-0.38472">
        <ele>194.33</ele>
        <time>2024-06-24T20:27:43.240Z</time>
      </trkpt>
      <trkpt lat="46.74251" lon="-0.38477">
        <ele>194.29</ele>
        <time>2024-06-24T20:27:49.115Z</time>
      </trkpt>
      <trkpt lat="46.74249" lon="-0.38484">
        <ele>194.25</ele>
        <time>2024-06-24T20:27:54.991Z</time>
      </trkpt>
      <trkpt lat="46.74247" lon="-0.38492">
        <ele>194.21</ele>
        <time>2024-06-24T20:28:00.868Z</time>
      </trkpt>
      <trkpt lat="46.74245" lon="-0.385">
        <ele>194.16</ele>
        <time>2024-06-24T20:28:06.746Z</time>
      </trkpt>
      <trkpt lat="46.74244" lon="-0.38508">
        <ele>194.12</ele>
        <time>2024-06-24T20:28:12.625Z</time>
      </trkpt>
      <trkpt lat="46.74242" lon="-0.38515">
        <ele>194.08</ele>
        <time>2024-06-24T20:28:18.505Z</time>
      </trkpt>
      <trkpt lat="46.74241" lon="-0.38521">
        <ele>194.04</ele>
        <time>2024-06-24T20:28:24.386Z</time>
      </trkpt>
      <trkpt lat="46.7424" lon="-0.38528">
        <ele>194</ele>
        <time>2024-06-24T20:28:30.268Z</time>
      </trkpt>
      <trkpt lat="46.74238" lon="-0.38533">
        <ele>193.95</ele>
        <time>2024-06-24T20:28:36.151Z</time>
      </trkpt>
      <trkpt lat="46.74235" lon="-0.38539">
        <ele>193.9</ele>
        <time>2024-06-24T20:28:42.035Z</time>
      </trkpt>
      <trkpt lat="46.74232" lon="-0.38545">
        <ele>193.85</ele>
        <time>2024-06-24T20:28:47.920Z</time>
      </trkpt>
      <trkpt lat="46.74228" lon="-0.38551">
        <ele>193.8</ele>
        <time>2024-06-24T20:28:53.806Z</time>
      </trkpt>
      <trkpt lat="46.74226" lon="-0.38556">
        <ele>193.75</ele>
        <time>2024-06-24T20:28:59.693Z</time>
      </trkpt>
      <trkpt lat="46.74223" lon="-0.38562">
        <ele>193.69</ele>
        <time>2024-06-24T20:29:05.581Z</time>
      </trkpt>
      <trkpt lat="46.74219" lon="-0.38568">
        <ele>193.63</ele>
        <time>2024-06-24T20:29:11.470Z</time>
      </trkpt>
      <trkpt lat="46.74216" lon="-0.38575">
        <ele>193.57</ele>
        <time>2024-06-24T20:29:17.360Z</time>
      </trkpt>
      <trkpt lat="46.74213" lon="-0.38582">
        <ele>193.51</ele>
        <time>2024-06-24T20:29:23.251Z</time>
      </trkpt>
      <trkpt lat="46.74209" lon="-0.38589">
        <ele>193.44</ele>
        <time>2024-06-24T20:29:29.143Z</time>
      </trkpt>
      <trkpt lat="46.74205" lon="-0.38596">
        <ele>193.37</ele>
        <time>2024-06-24T20:29:35.037Z</time>
      </trkpt>
      <trkpt lat="46.74201" lon="-0.38603">
        <ele>193.3</ele>
        <time>2024-06-24T20:29:40.932Z</time>
      </trkpt>
      <trkpt lat="46.74198" lon="-0.38609">
        <ele>193.23</ele>
        <time>2024-06-24T20:29:46.828Z</time>
      </trkpt>
      <trkpt lat="46.74195" lon="-0.38615">
        <ele>193.15</ele>
        <time>2024-06-24T20:29:52.725Z</time>
      </trkpt>
      <trkpt lat="46.74191" lon="-0.38622">
        <ele>193.06</ele>
        <time>2024-06-24T20:29:58.623Z</time>
      </trkpt>
      <trkpt lat="46.74189" lon="-0.38628">
        <ele>192.98</ele>
        <time>2024-06-24T20:30:04.522Z</time>
      </trkpt>
      <trkpt lat="46.74187" lon="-0.38635">
        <ele>192.89</ele>
        <time>2024-06-24T20:30:10.422Z</time>
      </trkpt>
      <trkpt lat="46.74184" lon="-0.38641">
        <ele>192.8</ele>
        <time>2024-06-24T20:30:16.323Z</time>
      </trkpt>
      <trkpt lat="46.74182" lon="-0.38647">
        <ele>192.71</ele>
        <time>2024-06-24T20:30:22.225Z</time>
      </trkpt>
      <trkpt lat="46.7418" lon="-0.38654">
        <ele>192.62</ele>
        <time>2024-06-24T20:30:28.128Z</time>
      </trkpt>
      <trkpt lat="46.74178" lon="-0.38661">
        <ele>192.53</ele>
        <time>2024-06-24T20:30:34.032Z</time>
      </trkpt>
      <trkpt lat="46.74175" lon="-0.38669">
        <ele>192.44</ele>
        <time>2024-06-24T20:30:39.937Z</time>
      </trkpt>
      <trkpt lat="46.74172" lon="-0.38676">
        <ele>192.35</ele>
        <time>2024-06-24T20:30:45.844Z</time>
      </trkpt>
      <trkpt lat="46.7417" lon="-0.38683">
        <ele>192.25</ele>
        <time>2024-06-24T20:30:51.752Z</time>
      </trkpt>
      <trkpt lat="46.74169" lon="-0.3869">
        <ele>192.16</ele>
        <time>2024-06-24T20:30:57.661Z</time>
      </trkpt>
      <trkpt lat="46.74167" lon="-0.38696">
        <ele>192.06</ele>
        <time>2024-06-24T20:31:03.571Z</time>
      </trkpt>
      <trkpt lat="46.74165" lon="-0.38704">
        <ele>191.96</ele>
        <time>2024-06-24T20:31:09.482Z</time>
      </trkpt>
      <trkpt lat="46.74164" lon="-0.38711">
        <ele>191.86</ele>
        <time>2024-06-24T20:31:15.394Z</time>
      </trkpt>
      <trkpt lat="46.74163" lon="-0.3872">
        <ele>191.76</ele>
        <time>2024-06-24T20:31:21.307Z</time>
      </trkpt>
      <trkpt lat="46.74163" lon="-0.38729">
        <ele>191.66</ele>
        <time>2024-06-24T20:31:27.221Z</time>
      </trkpt>
      <trkpt lat="46.74163" lon="-0.38737">
        <ele>191.56</ele>
        <time>2024-06-24T20:31:33.136Z</time>
      </trkpt>
      <trkpt lat="46.74164" lon="-0.38745">
        <ele>191.47</ele>
        <time>2024-06-24T20:31:39.052Z</time>
      </trkpt>
      <trkpt lat="46.74166" lon="-0.38753">
        <ele>191.36</ele>
        <time>2024-06-24T20:31:44.970Z</time>
      </trkpt>
      <trkpt lat="46.74167" lon="-0.38761">
        <ele>191.26</ele>
        <time>2024-06-24T20:31:50.889Z</time>
      </trkpt>
      <trkpt lat="46.7417" lon="-0.38769">
        <ele>191.16</ele>
        <time>2024-06-24T20:31:56.809Z</time>
      </trkpt>
      <trkpt lat="46.74172" lon="-0.38775">
        <ele>191.06</ele>
        <time>2024-06-24T20:32:02.730Z</time>
      </trkpt>
      <trkpt lat="46.74174" lon="-0.38782">
        <ele>190.96</ele>
        <time>2024-06-24T20:32:08.652Z</time>
      </trkpt>
      <trkpt lat="46.74176" lon="-0.38789">
        <ele>190.85</ele>
        <time>2024-06-24T20:32:14.575Z</time>
      </trkpt>
      <trkpt lat="46.74178" lon="-0.38797">
        <ele>190.74</ele>
        <time>2024-06-24T20:32:20.499Z</time>
      </trkpt>
      <trkpt lat="46.7418" lon="-0.38804">
        <ele>190.63</ele>
        <time>2024-06-24T20:32:26.424Z</time>
      </trkpt>
      <trkpt lat="46.74183" lon="-0.38811">
        <ele>190.53</ele>
        <time>2024-06-24T20:32:32.350Z</time>
      </trkpt>
      <trkpt lat="46.74186" lon="-0.38819">
        <ele>190.42</ele>
        <time>2024-06-24T20:32:38.277Z</time>
      </trkpt>
      <trkpt lat="46.74189" lon="-0.38825">
        <ele>190.31</ele>
        <time>2024-06-24T20:32:44.206Z</time>
      </trkpt>
      <trkpt lat="46.74192" lon="-0.38832">
        <ele>190.2</ele>
        <time>2024-06-24T20:32:50.136Z</time>
      </trkpt>
      <trkpt lat="46.74196" lon="-0.38839">
        <ele>190.1</ele>
        <time>2024-06-24T20:32:56.067Z</time>
      </trkpt>
      <trkpt lat="46.74199" lon="-0.38846">
        <ele>190.01</ele>
        <time>2024-06-24T20:33:01.999Z</time>
      </trkpt>
      <trkpt lat="46.74203" lon="-0.38854">
        <ele>189.91</ele>
        <time>2024-06-24T20:33:07.932Z</time>
      </trkpt>
      <trkpt lat="46.74206" lon="-0.38862">
        <ele>189.83</ele>
        <time>2024-06-24T20:33:13.867Z</time>
      </trkpt>
      <trkpt lat="46.74208" lon="-0.38872">
        <ele>189.74</ele>
        <time>2024-06-24T20:33:19.803Z</time>
      </trkpt>
      <trkpt lat="46.7421" lon="-0.38882">
        <ele>189.66</ele>
        <time>2024-06-24T20:33:25.740Z</time>
      </trkpt>
      <trkpt lat="46.74212" lon="-0.38892">
        <ele>189.58</ele>
        <time>2024-06-24T20:33:31.679Z</time>
      </trkpt>
      <trkpt lat="46.74213" lon="-0.38903">
        <ele>189.5</ele>
        <time>2024-06-24T20:33:37.619Z</time>
      </trkpt>
      <trkpt lat="46.74214" lon="-0.38914">
        <ele>189.42</ele>
        <time>2024-06-24T20:33:43.561Z</time>
      </trkpt>
      <trkpt lat="46.74215" lon="-0.38925">
        <ele>189.35</ele>
        <time>2024-06-24T20:33:49.504Z</time>
      </trkpt>
      <trkpt lat="46.74216" lon="-0.38936">
        <ele>189.3</ele>
        <time>2024-06-24T20:33:55.449Z</time>
      </trkpt>
      <trkpt lat="46.74217" lon="-0.38948">
        <ele>189.25</ele>
        <time>2024-06-24T20:34:01.396Z</time>
      </trkpt>
      <trkpt lat="46.74217" lon="-0.38961">
        <ele>189.2</ele>
        <time>2024-06-24T20:34:07.344Z</time>
      </trkpt>
      <trkpt lat="46.74216" lon="-0.38973">
        <ele>189.17</ele>
        <time>2024-06-24T20:34:13.294Z</time>
      </trkpt>
      <trkpt lat="46.74215" lon="-0.38986">
        <ele>189.14</ele>
        <time>2024-06-24T20:34:19.246Z</time>
      </trkpt>
      <trkpt lat="46.74214" lon="-0.38998">
        <ele>189.12</ele>
        <time>2024-06-24T20:34:25.200Z</time>
      </trkpt>
      <trkpt lat="46.74213" lon="-0.3901">
        <ele>189.11</ele>
        <time>2024-06-24T20:34:31.155Z</time>
      </trkpt>
      <trkpt lat="46.74212" lon="-0.39021">
        <ele>189.1</ele>
        <time>2024-06-24T20:34:37.112Z</time>
      </trkpt>
      <trkpt lat="46.74213" lon="-0.39032">
        <ele>189.11</ele>
        <time>2024-06-24T20:34:43.070Z</time>
      </trkpt>
      <trkpt lat="46.74214" lon="-0.39044">
        <ele>189.11</ele>
        <time>2024-06-24T20:34:49.030Z</time>
      </trkpt>
      <trkpt lat="46.74217" lon="-0.39054">
        <ele>189.12</ele>
        <time>2024-06-24T20:34:54.991Z</time>
      </trkpt>
      <trkpt lat="46.7422" lon="-0.39063">
        <ele>189.13</ele>
        <time>2024-06-24T20:35:00.954Z</time>
      </trkpt>
      <trkpt lat="46.74224" lon="-0.39071">
        <ele>189.15</ele>
        <time>2024-06-24T20:35:06.918Z</time>
      </trkpt>
      <trkpt lat="46.74228" lon="-0.39079">
        <ele>189.17</ele>
        <time>2024-06-24T20:35:12.884Z</time>
      </trkpt>
      <trkpt lat="46.74232" lon="-0.39086">
        <ele>189.2</ele>
        <time>2024-06-24T20:35:18.851Z</time>
      </trkpt>
      <trkpt lat="46.74236" lon="-0.39093">
        <ele>189.25</ele>
        <time>2024-06-24T20:35:24.819Z</time>
      </trkpt>
      <trkpt lat="46.74239" lon="-0.391">
        <ele>189.29</ele>
        <time>2024-06-24T20:35:30.788Z</time>
      </trkpt>
      <trkpt lat="46.74243" lon="-0.39106">
        <ele>189.32</ele>
        <time>2024-06-24T20:35:36.758Z</time>
      </trkpt>
      <trkpt lat="46.74247" lon="-0.39112">
        <ele>189.37</ele>
        <time>2024-06-24T20:35:42.729Z</time>
      </trkpt>
      <trkpt lat="46.7425" lon="-0.39117">
        <ele>189.42</ele>
        <time>2024-06-24T20:35:48.701Z</time>
      </trkpt>
      <trkpt lat="46.74254" lon="-0.39122">
        <ele>189.48</ele>
        <time>2024-06-24T20:35:54.674Z</time>
      </trkpt>
      <trkpt lat="46.74258" lon="-0.39127">
        <ele>189.54</ele>
        <time>2024-06-24T20:36:00.648Z</time>
      </trkpt>
      <trkpt lat="46.74261" lon="-0.39132">
        <ele>189.61</ele>
        <time>2024-06-24T20:36:06.623Z</time>
      </trkpt>
      <trkpt lat="46.74264" lon="-0.39138">
        <ele>189.68</ele>
        <time>2024-06-24T20:36:12.599Z</time>
      </trkpt>
      <trkpt lat="46.74267" lon="-0.39143">
        <ele>189.76</ele>
        <time>2024-06-24T20:36:18.576Z</time>
      </trkpt>
      <trkpt lat="46.74269" lon="-0.39148">
        <ele>189.84</ele>
        <time>2024-06-24T20:36:24.554Z</time>
      </trkpt>
      <trkpt lat="46.74271" lon="-0.39152">
        <ele>189.92</ele>
        <time>2024-06-24T20:36:30.533Z</time>
      </trkpt>
      <trkpt lat="46.74274" lon="-0.39156">
        <ele>190</ele>
        <time>2024-06-24T20:36:36.513Z</time>
      </trkpt>
      <trkpt lat="46.74276" lon="-0.3916">
        <ele>190.08</ele>
        <time>2024-06-24T20:36:42.493Z</time>
      </trkpt>
      <trkpt lat="46.74278" lon="-0.39164">
        <ele>190.17</ele>
        <time>2024-06-24T20:36:48.474Z</time>
      </trkpt>
      <trkpt lat="46.7428" lon="-0.39168">
        <ele>190.26</ele>
        <time>2024-06-24T20:36:54.456Z</time>
      </trkpt>
      <trkpt lat="46.74282" lon="-0.39171">
        <ele>190.35</ele>
        <time>2024-06-24T20:37:00.438Z</time>
      </trkpt>
      <trkpt lat="46.74284" lon="-0.39174">
        <ele>190.44</ele>
        <time>2024-06-24T20:37:06.421Z</time>
      </trkpt>
      <trkpt lat="46.74286" lon="-0.39177">
        <ele>190.53</ele>
        <time>2024-06-24T20:37:12.404Z</time>
      </trkpt>
      <trkpt lat="46.74288" lon="-0.3918">
        <ele>190.62</ele>
        <time>2024-06-24T20:37:18.388Z</time>
      </trkpt>
      <trkpt lat="46.74289" lon="-0.39183">
        <ele>190.71</ele>
        <time>2024-06-24T20:37:24.372Z</time>
      </trkpt>
      <trkpt lat="46.74291" lon="-0.39186">
        <ele>190.8</ele>
        <time>2024-06-24T20:37:30.357Z</time>
      </trkpt>
      <trkpt lat="46.74292" lon="-0.39189">
        <ele>190.89</ele>
        <time>2024-06-24T20:37:36.342Z</time>
      </trkpt>
      <trkpt lat="46.74293" lon="-0.39192">
        <ele>190.98</ele>
        <time>2024-06-24T20:37:42.328Z</time>
      </trkpt>
      <trkpt lat="46.74293" lon="-0.39192">
        <ele>191.06</ele>
        <time>2024-06-24T20:37:48.314Z</time>
      </trkpt>
      <trkpt lat="46.74293" lon="-0.39193">
        <ele>191.15</ele>
        <time>2024-06-24T20:37:54.300Z</time>
      </trkpt>
      <trkpt lat="46.74293" lon="-0.39193">
        <ele>191.23</ele>
        <time>2024-06-24T20:38:00.286Z</time>
      </trkpt>
      <trkpt lat="46.74296" lon="-0.39203">
        <ele>191.32</ele>
        <time>2024-06-24T20:38:06.274Z</time>
      </trkpt>
      <trkpt lat="46.74297" lon="-0.39205">
        <ele>191.4</ele>
        <time>2024-06-24T20:38:12.262Z</time>
      </trkpt>
      <trkpt lat="46.74299" lon="-0.39208">
        <ele>191.47</ele>
        <time>2024-06-24T20:38:18.250Z</time>
      </trkpt>
      <trkpt lat="46.743" lon="-0.39212">
        <ele>191.55</ele>
        <time>2024-06-24T20:38:24.239Z</time>
      </trkpt>
      <trkpt lat="46.74301" lon="-0.39216">
        <ele>191.62</ele>
        <time>2024-06-24T20:38:30.229Z</time>
      </trkpt>
      <trkpt lat="46.74303" lon="-0.3922">
        <ele>191.69</ele>
        <time>2024-06-24T20:38:36.219Z</time>
      </trkpt>
      <trkpt lat="46.74304" lon="-0.39224">
        <ele>191.75</ele>
        <time>2024-06-24T20:38:42.210Z</time>
      </trkpt>
      <trkpt lat="46.74305" lon="-0.39228">
        <ele>191.81</ele>
        <time>2024-06-24T20:38:48.202Z</time>
      </trkpt>
      <trkpt lat="46.74307" lon="-0.39233">
        <ele>191.86</ele>
        <time>2024-06-24T20:38:54.194Z</time>
      </trkpt>
      <trkpt lat="46.74308" lon="-0.39238">
        <ele>191.92</ele>
        <time>2024-06-24T20:39:00.187Z</time>
      </trkpt>
      <trkpt lat="46.7431" lon="-0.39244">
        <ele>191.97</ele>
        <time>2024-06-24T20:39:06.181Z</time>
      </trkpt>
      <trkpt lat="46.74312" lon="-0.39249">
        <ele>192.01</ele>
        <time>2024-06-24T20:39:12.176Z</time>
      </trkpt>
      <trkpt lat="46.74314" lon="-0.39255">
        <ele>192.04</ele>
        <time>2024-06-24T20:39:18.172Z</time>
      </trkpt>
      <trkpt lat="46.74316" lon="-0.3926">
        <ele>192.06</ele>
        <time>2024-06-24T20:39:24.168Z</time>
      </trkpt>
      <trkpt lat="46.74318" lon="-0.39267">
        <ele>192.08</ele>
        <time>2024-06-24T20:39:30.165Z</time>
      </trkpt>
      <trkpt lat="46.7432" lon="-0.39273">
        <ele>192.1</ele>
        <time>2024-06-24T20:39:36.163Z</time>
      </trkpt>
      <trkpt lat="46.74322" lon="-0.39278">
        <ele>192.12</ele>
        <time>2024-06-24T20:39:42.162Z</time>
      </trkpt>
      <trkpt lat="46.74324" lon="-0.39284">
        <ele>192.12</ele>
        <time>2024-06-24T20:39:48.162Z</time>
      </trkpt>
      <trkpt lat="46.74326" lon="-0.3929">
        <ele>192.12</ele>
        <time>2024-06-24T20:39:54.163Z</time>
      </trkpt>
      <trkpt lat="46.74329" lon="-0.39297">
        <ele>192.11</ele>
        <time>2024-06-24T20:40:00.165Z</time>
      </trkpt>
      <trkpt lat="46.74331" lon="-0.39304">
        <ele>192.09</ele>
        <time>2024-06-24T20:40:06.168Z</time>
      </trkpt>
      <trkpt lat="46.74334" lon="-0.39311">
        <ele>192.05</ele>
        <time>2024-06-24T20:40:12.172Z</time>
      </trkpt>
      <trkpt lat="46.74336" lon="-0.39319">
        <ele>192.02</ele>
        <time>2024-06-24T20:40:18.177Z</time>
      </trkpt>
      <trkpt lat="46.74339" lon="-0.39325">
        <ele>191.99</ele>
        <time>2024-06-24T20:40:24.183Z</time>
      </trkpt>
      <trkpt lat="46.74341" lon="-0.39332">
        <ele>191.94</ele>
        <time>2024-06-24T20:40:30.191Z</time>
      </trkpt>
      <trkpt lat="46.74344" lon="-0.39339">
        <ele>191.87</ele>
        <time>2024-06-24T20:40:36.200Z</time>
      </trkpt>
      <trkpt lat="46.74346" lon="-0.39346">
        <ele>191.79</ele>
        <time>2024-06-24T20:40:42.210Z</time>
      </trkpt>
      <trkpt lat="46.74348" lon="-0.39352">
        <ele>191.71</ele>
        <time>2024-06-24T20:40:48.221Z</time>
      </trkpt>
      <trkpt lat="46.74351" lon="-0.39359">
        <ele>191.63</ele>
        <time>2024-06-24T20:40:54.233Z</time>
      </trkpt>
      <trkpt lat="46.74353" lon="-0.39365">
        <ele>191.54</ele>
        <time>2024-06-24T20:41:00.246Z</time>
      </trkpt>
      <trkpt lat="46.74355" lon="-0.39372">
        <ele>191.43</ele>
        <time>2024-06-24T20:41:06.260Z</time>
      </trkpt>
      <trkpt lat="46.74358" lon="-0.39378">
        <ele>191.33</ele>
        <time>2024-06-24T20:41:12.275Z</time>
      </trkpt>
      <trkpt lat="46.7436" lon="-0.39386">
        <ele>191.22</ele>
        <time>2024-06-24T20:41:18.291Z</time>
      </trkpt>
      <trkpt lat="46.74362" lon="-0.39394">
        <ele>191.1</ele>
        <time>2024-06-24T20:41:24.308Z</time>
      </trkpt>
      <trkpt lat="46.74364" lon="-0.39401">
        <ele>190.98</ele>
        <time>2024-06-24T20:41:30.326Z</time>
      </trkpt>
      <trkpt lat="46.74366" lon="-0.39408">
        <ele>190.85</ele>
        <time>2024-06-24T20:41:36.345Z</time>
      </trkpt>
      <trkpt lat="46.74368" lon="-0.39416">
        <ele>190.71</ele>
        <time>2024-06-24T20:41:42.365Z</time>
      </trkpt>
      <trkpt lat="46.7437" lon="-0.39425">
        <ele>190.56</ele>
        <time>2024-06-24T20:41:48.387Z</time>
      </trkpt>
      <trkpt lat="46.74371" lon="-0.39434">
        <ele>190.41</ele>
        <time>2024-06-24T20:41:54.410Z</time>
      </trkpt>
      <trkpt lat="46.74371" lon="-0.39442">
        <ele>190.25</ele>
        <time>2024-06-24T20:42:00.434Z</time>
      </trkpt>
      <trkpt lat="46.74372" lon="-0.39449">
        <ele>190.08</ele>
        <time>2024-06-24T20:42:06.459Z</time>
      </trkpt>
      <trkpt lat="46.74372" lon="-0.39457">
        <ele>189.91</ele>
        <time>2024-06-24T20:42:12.485Z</time>
      </trkpt>
      <trkpt lat="46.74372" lon="-0.39466">
        <ele>189.74</ele>
        <time>2024-06-24T20:42:18.512Z</time>
      </trkpt>
      <trkpt lat="46.74372" lon="-0.39474">
        <ele>189.54</ele>
        <time>2024-06-24T20:42:24.540Z</time>
      </trkpt>
      <trkpt lat="46.74372" lon="-0.39483">
        <ele>189.35</ele>
        <time>2024-06-24T20:42:30.570Z</time>
      </trkpt>
      <trkpt lat="46.74372" lon="-0.39492">
        <ele>189.14</ele>
        <time>2024-06-24T20:42:36.601Z</time>
      </trkpt>
      <trkpt lat="46.74372" lon="-0.395">
        <ele>188.93</ele>
        <time>2024-06-24T20:42:42.633Z</time>
      </trkpt>
      <trkpt lat="46.74371" lon="-0.39509">
        <ele>188.71</ele>
        <time>2024-06-24T20:42:48.666Z</time>
      </trkpt>
      <trkpt lat="46.74371" lon="-0.39517">
        <ele>188.48</ele>
        <time>2024-06-24T20:42:54.700Z</time>
      </trkpt>
      <trkpt lat="46.7437" lon="-0.39526">
        <ele>188.24</ele>
        <time>2024-06-24T20:43:00.735Z</time>
      </trkpt>
      <trkpt lat="46.74369" lon="-0.39534">
        <ele>188</ele>
        <time>2024-06-24T20:43:06.772Z</time>
      </trkpt>
      <trkpt lat="46.74368" lon="-0.39543">
        <ele>187.75</ele>
        <time>2024-06-24T20:43:12.810Z</time>
      </trkpt>
      <trkpt lat="46.74366" lon="-0.3955">
        <ele>187.5</ele>
        <time>2024-06-24T20:43:18.849Z</time>
      </trkpt>
      <trkpt lat="46.74365" lon="-0.39558">
        <ele>187.24</ele>
        <time>2024-06-24T20:43:24.889Z</time>
      </trkpt>
      <trkpt lat="46.74364" lon="-0.39566">
        <ele>186.97</ele>
        <time>2024-06-24T20:43:30.930Z</time>
      </trkpt>
      <trkpt lat="46.74362" lon="-0.39573">
        <ele>186.69</ele>
        <time>2024-06-24T20:43:36.972Z</time>
      </trkpt>
      <trkpt lat="46.74361" lon="-0.39581">
        <ele>186.4</ele>
        <time>2024-06-24T20:43:43.015Z</time>
      </trkpt>
      <trkpt lat="46.7436" lon="-0.39587">
        <ele>186.11</ele>
        <time>2024-06-24T20:43:49.059Z</time>
      </trkpt>
      <trkpt lat="46.74359" lon="-0.39594">
        <ele>185.81</ele>
        <time>2024-06-24T20:43:55.104Z</time>
      </trkpt>
      <trkpt lat="46.74358" lon="-0.396">
        <ele>185.5</ele>
        <time>2024-06-24T20:44:01.150Z</time>
      </trkpt>
      <trkpt lat="46.74358" lon="-0.39604">
        <ele>185.19</ele>
        <time>2024-06-24T20:44:07.196Z</time>
      </trkpt>
      <trkpt lat="46.74357" lon="-0.39608">
        <ele>184.86</ele>
        <time>2024-06-24T20:44:13.243Z</time>
      </trkpt>
      <trkpt lat="46.74357" lon="-0.39612">
        <ele>184.53</ele>
        <time>2024-06-24T20:44:19.291Z</time>
      </trkpt>
      <trkpt lat="46.74356" lon="-0.39619">
        <ele>184.19</ele>
        <time>2024-06-24T20:44:25.340Z</time>
      </trkpt>
      <trkpt lat="46.74355" lon="-0.39625">
        <ele>183.83</ele>
        <time>2024-06-24T20:44:31.389Z</time>
      </trkpt>
      <trkpt lat="46.74353" lon="-0.39631">
        <ele>183.46</ele>
        <time>2024-06-24T20:44:37.439Z</time>
      </trkpt>
      <trkpt lat="46.7435" lon="-0.39638">
        <ele>183.09</ele>
        <time>2024-06-24T20:44:43.491Z</time>
      </trkpt>
      <trkpt lat="46.74347" lon="-0.39645">
        <ele>182.7</ele>
        <time>2024-06-24T20:44:49.544Z</time>
      </trkpt>
      <trkpt lat="46.74344" lon="-0.39651">
        <ele>182.31</ele>
        <time>2024-06-24T20:44:55.598Z</time>
      </trkpt>
      <trkpt lat="46.74341" lon="-0.39656">
        <ele>181.91</ele>
        <time>2024-06-24T20:45:01.653Z</time>
      </trkpt>
      <trkpt lat="46.74336" lon="-0.39662">
        <ele>181.5</ele>
        <time>2024-06-24T20:45:07.709Z</time>
      </trkpt>
      <trkpt lat="46.74332" lon="-0.39668">
        <ele>181.08</ele>
        <time>2024-06-24T20:45:13.766Z</time>
      </trkpt>
      <trkpt lat="46.74327" lon="-0.39673">
        <ele>180.65</ele>
        <time>2024-06-24T20:45:19.824Z</time>
      </trkpt>
      <trkpt lat="46.74322" lon="-0.39679">
        <ele>180.22</ele>
        <time>2024-06-24T20:45:25.884Z</time>
      </trkpt>
      <trkpt lat="46.74318" lon="-0.39685">
        <ele>179.77</ele>
        <time>2024-06-24T20:45:31.945Z</time>
      </trkpt>
      <trkpt lat="46.74313" lon="-0.39691">
        <ele>179.32</ele>
        <time>2024-06-24T20:45:38.007Z</time>
      </trkpt>
      <trkpt lat="46.74309" lon="-0.39698">
        <ele>178.86</ele>
        <time>2024-06-24T20:45:44.070Z</time>
      </trkpt>
      <trkpt lat="46.74305" lon="-0.39705">
        <ele>178.4</ele>
        <time>2024-06-24T20:45:50.135Z</time>
      </trkpt>
      <trkpt lat="46.74301" lon="-0.39714">
        <ele>177.94</ele>
        <time>2024-06-24T20:45:56.201Z</time>
      </trkpt>
      <trkpt lat="46.74299" lon="-0.39723">
        <ele>177.46</ele>
        <time>2024-06-24T20:46:02.268Z</time>
      </trkpt>
      <trkpt lat="46.74297" lon="-0.39733">
        <ele>176.98</ele>
        <time>2024-06-24T20:46:08.337Z</time>
      </trkpt>
      <trkpt lat="46.74296" lon="-0.39743">
        <ele>176.5</ele>
        <time>2024-06-24T20:46:14.407Z</time>
      </trkpt>
      <trkpt lat="46.74295" lon="-0.39752">
        <ele>176.02</ele>
        <time>2024-06-24T20:46:20.478Z</time>
      </trkpt>
      <trkpt lat="46.74295" lon="-0.39763">
        <ele>175.54</ele>
        <time>2024-06-24T20:46:26.551Z</time>
      </trkpt>
      <trkpt lat="46.74295" lon="-0.39773">
        <ele>175.05</ele>
        <time>2024-06-24T20:46:32.625Z</time>
      </trkpt>
      <trkpt lat="46.74296" lon="-0.39782">
        <ele>174.55</ele>
        <time>2024-06-24T20:46:38.700Z</time>
      </trkpt>
      <trkpt lat="46.74298" lon="-0.39792">
        <ele>174.05</ele>
        <time>2024-06-24T20:46:44.777Z</time>
      </trkpt>
      <trkpt lat="46.74301" lon="-0.39803">
        <ele>173.54</ele>
        <time>2024-06-24T20:46:50.855Z</time>
      </trkpt>
      <trkpt lat="46.74303" lon="-0.39814">
        <ele>173.03</ele>
        <time>2024-06-24T20:46:56.935Z</time>
      </trkpt>
      <trkpt lat="46.74306" lon="-0.39825">
        <ele>172.51</ele>
        <time>2024-06-24T20:47:03.017Z</time>
      </trkpt>
      <trkpt lat="46.74307" lon="-0.39834">
        <ele>172.01</ele>
        <time>2024-06-24T20:47:09.100Z</time>
      </trkpt>
      <trkpt lat="46.74309" lon="-0.39843">
        <ele>171.51</ele>
        <time>2024-06-24T20:47:15.184Z</time>
      </trkpt>
      <trkpt lat="46.74311" lon="-0.39852">
        <ele>171</ele>
        <time>2024-06-24T20:47:21.270Z</time>
      </trkpt>
      <trkpt lat="46.74312" lon="-0.39861">
        <ele>170.5</ele>
        <time>2024-06-24T20:47:27.357Z</time>
      </trkpt>
      <trkpt lat="46.74313" lon="-0.3987">
        <ele>170.01</ele>
        <time>2024-06-24T20:47:33.445Z</time>
      </trkpt>
      <trkpt lat="46.74313" lon="-0.3988">
        <ele>169.51</ele>
        <time>2024-06-24T20:47:39.534Z</time>
      </trkpt>
      <trkpt lat="46.74313" lon="-0.3989">
        <ele>169.03</ele>
        <time>2024-06-24T20:47:45.625Z</time>
      </trkpt>
      <trkpt lat="46.74312" lon="-0.399">
        <ele>168.55</ele>
        <time>2024-06-24T20:47:51.717Z</time>
      </trkpt>
      <trkpt lat="46.7431" lon="-0.3991">
        <ele>168.09</ele>
        <time>2024-06-24T20:47:57.811Z</time>
      </trkpt>
      <trkpt lat="46.74308" lon="-0.39918">
        <ele>167.63</ele>
        <time>2024-06-24T20:48:03.906Z</time>
      </trkpt>
      <trkpt lat="46.74304" lon="-0.39927">
        <ele>167.18</ele>
        <time>2024-06-24T20:48:10.002Z</time>
      </trkpt>
      <trkpt lat="46.74299" lon="-0.39936">
        <ele>166.75</ele>
        <time>2024-06-24T20:48:16.100Z</time>
      </trkpt>
      <trkpt lat="46.74294" lon="-0.39945">
        <ele>166.32</ele>
        <time>2024-06-24T20:48:22.199Z</time>
      </trkpt>
      <trkpt lat="46.74287" lon="-0.39951">
        <ele>165.91</ele>
        <time>2024-06-24T20:48:28.300Z</time>
      </trkpt>
      <trkpt lat="46.74281" lon="-0.39958">
        <ele>165.51</ele>
        <time>2024-06-24T20:48:34.403Z</time>
      </trkpt>
      <trkpt lat="46.74274" lon="-0.39964">
        <ele>165.13</ele>
        <time>2024-06-24T20:48:40.507Z</time>
      </trkpt>
      <trkpt lat="46.74267" lon="-0.3997">
        <ele>164.75</ele>
        <time>2024-06-24T20:48:46.613Z</time>
      </trkpt>
      <trkpt lat="46.7426" lon="-0.39977">
        <ele>164.38</ele>
        <time>2024-06-24T20:48:52.720Z</time>
      </trkpt>
      <trkpt lat="46.74254" lon="-0.39985">
        <ele>164.02</ele>
        <time>2024-06-24T20:48:58.829Z</time>
      </trkpt>
      <trkpt lat="46.74248" lon="-0.39993">
        <ele>163.67</ele>
        <time>2024-06-24T20:49:04.940Z</time>
      </trkpt>
      <trkpt lat="46.74242" lon="-0.40002">
        <ele>163.35</ele>
        <time>2024-06-24T20:49:11.052Z</time>
      </trkpt>
      <trkpt lat="46.74237" lon="-0.40009">
        <ele>163.04</ele>
        <time>2024-06-24T20:49:17.166Z</time>
      </trkpt>
      <trkpt lat="46.74231" lon="-0.40016">
        <ele>162.76</ele>
        <time>2024-06-24T20:49:23.281Z</time>
      </trkpt>
      <trkpt lat="46.74226" lon="-0.40022">
        <ele>162.49</ele>
        <time>2024-06-24T20:49:29.398Z</time>
      </trkpt>
      <trkpt lat="46.74222" lon="-0.40029">
        <ele>162.23</ele>
        <time>2024-06-24T20:49:35.516Z</time>
      </trkpt>
      <trkpt lat="46.74218" lon="-0.40036">
        <ele>162</ele>
        <time>2024-06-24T20:49:41.635Z</time>
      </trkpt>
      <trkpt lat="46.74213" lon="-0.40042">
        <ele>161.79</ele>
        <time>2024-06-24T20:49:47.756Z</time>
      </trkpt>
      <trkpt lat="46.74208" lon="-0.40047">
        <ele>161.59</ele>
        <time>2024-06-24T20:49:53.878Z</time>
      </trkpt>
      <trkpt lat="46.74203" lon="-0.40052">
        <ele>161.41</ele>
        <time>2024-06-24T20:50:00.001Z</time>
      </trkpt>
      <trkpt lat="46.74199" lon="-0.40057">
        <ele>161.25</ele>
        <time>2024-06-24T20:50:06.125Z</time>
      </trkpt>
      <trkpt lat="46.74194" lon="-0.40061">
        <ele>161.11</ele>
        <time>2024-06-24T20:50:12.250Z</time>
      </trkpt>
      <trkpt lat="46.74189" lon="-0.40065">
        <ele>160.99</ele>
        <time>2024-06-24T20:50:18.376Z</time>
      </trkpt>
      <trkpt lat="46.74185" lon="-0.40069">
        <ele>160.88</ele>
        <time>2024-06-24T20:50:24.503Z</time>
      </trkpt>
      <trkpt lat="46.74181" lon="-0.40072">
        <ele>160.79</ele>
        <time>2024-06-24T20:50:30.631Z</time>
      </trkpt>
      <trkpt lat="46.74177" lon="-0.40075">
        <ele>160.71</ele>
        <time>2024-06-24T20:50:36.760Z</time>
      </trkpt>
      <trkpt lat="46.74173" lon="-0.40077">
        <ele>160.65</ele>
        <time>2024-06-24T20:50:42.890Z</time>
      </trkpt>
      <trkpt lat="46.7417" lon="-0.40079">
        <ele>160.61</ele>
        <time>2024-06-24T20:50:49.021Z</time>
      </trkpt>
      <trkpt lat="46.74167" lon="-0.40081">
        <ele>160.58</ele>
        <time>2024-06-24T20:50:55.152Z</time>
      </trkpt>
      <trkpt lat="46.74163" lon="-0.40084">
        <ele>160.57</ele>
        <time>2024-06-24T20:51:01.284Z</time>
      </trkpt>
      <trkpt lat="46.74159" lon="-0.40087">
        <ele>160.57</ele>
        <time>2024-06-24T20:51:07.417Z</time>
      </trkpt>
      <trkpt lat="46.74155" lon="-0.4009">
        <ele>160.59</ele>
        <time>2024-06-24T20:51:13.551Z</time>
      </trkpt>
      <trkpt lat="46.74152" lon="-0.40092">
        <ele>160.62</ele>
        <time>2024-06-24T20:51:19.686Z</time>
      </trkpt>
      <trkpt lat="46.74149" lon="-0.40094">
        <ele>160.67</ele>
        <time>2024-06-24T20:51:25.821Z</time>
      </trkpt>
      <trkpt lat="46.74145" lon="-0.40096">
        <ele>160.73</ele>
        <time>2024-06-24T20:51:31.957Z</time>
      </trkpt>
      <trkpt lat="46.74141" lon="-0.40099">
        <ele>160.8</ele>
        <time>2024-06-24T20:51:38.094Z</time>
      </trkpt>
      <trkpt lat="46.74138" lon="-0.40101">
        <ele>160.88</ele>
        <time>2024-06-24T20:51:44.232Z</time>
      </trkpt>
      <trkpt lat="46.74135" lon="-0.40103">
        <ele>160.97</ele>
        <time>2024-06-24T20:51:50.370Z</time>
      </trkpt>
      <trkpt lat="46.74132" lon="-0.40105">
        <ele>161.08</ele>
        <time>2024-06-24T20:51:56.509Z</time>
      </trkpt>
      <trkpt lat="46.74128" lon="-0.40107">
        <ele>161.2</ele>
        <time>2024-06-24T20:52:02.649Z</time>
      </trkpt>
      <trkpt lat="46.74125" lon="-0.4011">
        <ele>161.33</ele>
        <time>2024-06-24T20:52:08.790Z</time>
      </trkpt>
      <trkpt lat="46.74122" lon="-0.40112">
        <ele>161.47</ele>
        <time>2024-06-24T20:52:14.931Z</time>
      </trkpt>
      <trkpt lat="46.74119" lon="-0.40114">
        <ele>161.62</ele>
        <time>2024-06-24T20:52:21.073Z</time>
      </trkpt>
      <trkpt lat="46.74116" lon="-0.40116">
        <ele>161.79</ele>
        <time>2024-06-24T20:52:27.215Z</time>
      </trkpt>
      <trkpt lat="46.74113" lon="-0.40118">
        <ele>161.96</ele>
        <time>2024-06-24T20:52:33.358Z</time>
      </trkpt>
      <trkpt lat="46.7411" lon="-0.4012">
        <ele>162.14</ele>
        <time>2024-06-24T20:52:39.502Z</time>
      </trkpt>
      <trkpt lat="46.74107" lon="-0.40122">
        <ele>162.33</ele>
        <time>2024-06-24T20:52:45.647Z</time>
      </trkpt>
      <trkpt lat="46.74104" lon="-0.40125">
        <ele>162.52</ele>
        <time>2024-06-24T20:52:51.792Z</time>
      </trkpt>
      <trkpt lat="46.74101" lon="-0.40128">
        <ele>162.73</ele>
        <time>2024-06-24T20:52:57.938Z</time>
      </trkpt>
      <trkpt lat="46.74098" lon="-0.40131">
        <ele>162.94</ele>
        <time>2024-06-24T20:53:04.085Z</time>
      </trkpt>
      <trkpt lat="46.74095" lon="-0.40135">
        <ele>163.16</ele>
        <time>2024-06-24T20:53:10.232Z</time>
      </trkpt>
      <trkpt lat="46.74093" lon="-0.40138">
        <ele>163.38</ele>
        <time>2024-06-24T20:53:16.380Z</time>
      </trkpt>
      <trkpt lat="46.74091" lon="-0.40142">
        <ele>163.61</ele>
        <time>2024-06-24T20:53:22.529Z</time>
      </trkpt>
      <trkpt lat="46.74088" lon="-0.40145">
        <ele>163.85</ele>
        <time>2024-06-24T20:53:28.678Z</time>
      </trkpt>
      <trkpt lat="46.74087" lon="-0.40148">
        <ele>164.09</ele>
        <time>2024-06-24T20:53:34.828Z</time>
      </trkpt>
      <trkpt lat="46.74085" lon="-0.40151">
        <ele>164.34</ele>
        <time>2024-06-24T20:53:40.978Z</time>
      </trkpt>
      <trkpt lat="46.74084" lon="-0.40154">
        <ele>164.59</ele>
        <time>2024-06-24T20:53:47.129Z</time>
      </trkpt>
      <trkpt lat="46.74082" lon="-0.40156">
        <ele>164.84</ele>
        <time>2024-06-24T20:53:53.280Z</time>
      </trkpt>
      <trkpt lat="46.74081" lon="-0.40159">
        <ele>165.1</ele>
        <time>2024-06-24T20:53:59.432Z</time>
      </trkpt>
      <trkpt lat="46.7408" lon="-0.40163">
        <ele>165.36</ele>
        <time>2024-06-24T20:54:05.584Z</time>
      </trkpt>
      <trkpt lat="46.74078" lon="-0.40166">
        <ele>165.63</ele>
        <time>2024-06-24T20:54:11.737Z</time>
      </trkpt>
      <trkpt lat="46.74077" lon="-0.40169">
        <ele>165.89</ele>
        <time>2024-06-24T20:54:17.890Z</time>
      </trkpt>
      <trkpt lat="46.74076" lon="-0.40172">
        <ele>166.16</ele>
        <time>2024-06-24T20:54:24.044Z</time>
      </trkpt>
      <trkpt lat="46.74074" lon="-0.40174">
        <ele>166.43</ele>
        <time>2024-06-24T20:54:30.198Z</time>
      </trkpt>
      <trkpt lat="46.74073" lon="-0.40177">
        <ele>166.7</ele>
        <time>2024-06-24T20:54:36.353Z</time>
      </trkpt>
      <trkpt lat="46.74071" lon="-0.4018">
        <ele>166.97</ele>
        <time>2024-06-24T20:54:42.508Z</time>
      </trkpt>
      <trkpt lat="46.7407" lon="-0.40182">
        <ele>167.24</ele>
        <time>2024-06-24T20:54:48.664Z</time>
      </trkpt>
      <trkpt lat="46.74069" lon="-0.40184">
        <ele>167.51</ele>
        <time>2024-06-24T20:54:54.820Z</time>
      </trkpt>
      <trkpt lat="46.74067" lon="-0.40186">
        <ele>167.78</ele>
        <time>2024-06-24T20:55:00.976Z</time>
      </trkpt>
      <trkpt lat="46.74066" lon="-0.40188">
        <ele>168.04</ele>
        <time>2024-06-24T20:55:07.133Z</time>
      </trkpt>
      <trkpt lat="46.74064" lon="-0.40191">
        <ele>168.31</ele>
        <time>2024-06-24T20:55:13.290Z</time>
      </trkpt>
      <trkpt lat="46.74063" lon="-0.40193">
        <ele>168.57</ele>
        <time>2024-06-24T20:55:19.448Z</time>
      </trkpt>
      <trkpt lat="46.74062" lon="-0.40195">
        <ele>168.83</ele>
        <time>2024-06-24T20:55:25.606Z</time>
      </trkpt>
      <trkpt lat="46.7406" lon="-0.40197">
        <ele>169.09</ele>
        <time>2024-06-24T20:55:31.765Z</time>
      </trkpt>
      <trkpt lat="46.74059" lon="-0.402">
        <ele>169.34</ele>
        <time>2024-06-24T20:55:37.924Z</time>
      </trkpt>
      <trkpt lat="46.74057" lon="-0.40202">
        <ele>169.59</ele>
        <time>2024-06-24T20:55:44.083Z</time>
      </trkpt>
      <trkpt lat="46.74056" lon="-0.40205">
        <ele>169.83</ele>
        <time>2024-06-24T20:55:50.243Z</time>
      </trkpt>
      <trkpt lat="46.74054" lon="-0.40208">
        <ele>170.07</ele>
        <time>2024-06-24T20:55:56.403Z</time>
      </trkpt>
      <trkpt lat="46.74052" lon="-0.4021">
        <ele>170.31</ele>
        <time>2024-06-24T20:56:02.564Z</time>
      </trkpt>
      <trkpt lat="46.74052" lon="-0.40213">
        <ele>170.54</ele>
        <time>2024-06-24T20:56:08.725Z</time>
      </trkpt>
      <trkpt lat="46.74051" lon="-0.40215">
        <ele>170.76</ele>
        <time>2024-06-24T20:56:14.887Z</time>
      </trkpt>
      <trkpt lat="46.7405" lon="-0.40217">
        <ele>170.98</ele>
        <time>2024-06-24T20:56:21.049Z</time>
      </trkpt>
      <trkpt lat="46.74048" lon="-0.40219">
        <ele>171.19</ele>
        <time>2024-06-24T20:56:27.211Z</time>
      </trkpt>
      <trkpt lat="46.74047" lon="-0.40222">
        <ele>171.39</ele>
        <time>2024-06-24T20:56:33.374Z</time>
      </trkpt>
      <trkpt lat="46.74045" lon="-0.40225">
        <ele>171.59</ele>
        <time>2024-06-24T20:56:39.537Z</time>
      </trkpt>
      <trkpt lat="46.74044" lon="-0.40227">
        <ele>171.78</ele>
        <time>2024-06-24T20:56:45.701Z</time>
      </trkpt>
      <trkpt lat="46.74042" lon="-0.40229">
        <ele>171.97</ele>
        <time>2024-06-24T20:56:51.865Z</time>
      </trkpt>
      <trkpt lat="46.74041" lon="-0.40231">
        <ele>172.14</ele>
        <time>2024-06-24T20:56:58.030Z</time>
      </trkpt>
      <trkpt lat="46.74039" lon="-0.40234">
        <ele>172.31</ele>
        <time>2024-06-24T20:57:04.195Z</time>
      </trkpt>
      <trkpt lat="46.74038" lon="-0.40237">
        <ele>172.47</ele>
        <time>2024-06-24T20:57:10.361Z</time>
      </trkpt>
      <trkpt lat="46.74037" lon="-0.40239">
        <ele>172.62</ele>
        <time>2024-06-24T20:57:16.527Z</time>
      </trkpt>
      <trkpt lat="46.74035" lon="-0.40241">
        <ele>172.77</ele>
        <time>2024-06-24T20:57:22.693Z</time>
      </trkpt>
      <trkpt lat="46.74033" lon="-0.40244">
        <ele>172.9</ele>
        <time>2024-06-24T20:57:28.860Z</time>
      </trkpt>
      <trkpt lat="46.74032" lon="-0.40246">
        <ele>173.03</ele>
        <time>2024-06-24T20:57:35.027Z</time>
      </trkpt>
      <trkpt lat="46.7403" lon="-0.40249">
        <ele>173.15</ele>
        <time>2024-06-24T20:57:41.195Z</time>
      </trkpt>
      <trkpt lat="46.74029" lon="-0.40251">
        <ele>173.26</ele>
        <time>2024-06-24T20:57:47.363Z</time>
      </trkpt>
      <trkpt lat="46.74028" lon="-0.40253">
        <ele>173.35</ele>
        <time>2024-06-24T20:57:53.532Z</time>
      </trkpt>
      <trkpt lat="46.74027" lon="-0.40255">
        <ele>173.44</ele>
        <time>2024-06-24T20:57:59.701Z</time>
      </trkpt>
      <trkpt lat="46.74026" lon="-0.40257">
        <ele>173.52</ele>
        <time>2024-06-24T20:58:05.870Z</time>
      </trkpt>
      <trkpt lat="46.74024" lon="-0.4026">
        <ele>173.6</ele>
        <time>2024-06-24T20:58:12.040Z</time>
      </trkpt>
      <trkpt lat="46.74023" lon="-0.40262">
        <ele>173.66</ele>
        <time>2024-06-24T20:58:18.210Z</time>
      </trkpt>
      <trkpt lat="46.74021" lon="-0.40265">
        <ele>173.71</ele>
        <time>2024-06-24T20:58:24.381Z</time>
      </trkpt>
      <trkpt lat="46.7402" lon="-0.40267">
        <ele>173.75</ele>
        <time>2024-06-24T20:58:30.552Z</time>
      </trkpt>
      <trkpt lat="46.74019" lon="-0.40269">
        <ele>173.78</ele>
        <time>2024-06-24T20:58:36.723Z</time>
      </trkpt>
      <trkpt lat="46.74018" lon="-0.40272">
        <ele>173.8</ele>
        <time>2024-06-24T20:58:42.895Z</time>
      </trkpt>
      <trkpt lat="46.74017" lon="-0.40275">
        <ele>173.81</ele>
        <time>2024-06-24T20:58:49.067Z</time>
      </trkpt>
      <trkpt lat="46.74016" lon="-0.40276">
        <ele>173.81</ele>
        <time>2024-06-24T20:58:55.240Z</time>
      </trkpt>
      <trkpt lat="46.74014" lon="-0.40278">
        <ele>173.8</ele>
        <time>2024-06-24T20:59:01.413Z</time>
      </trkpt>
      <trkpt lat="46.74011" lon="-0.40281">
        <ele>173.78</ele>
        <time>2024-06-24T20:59:07.587Z</time>
      </trkpt>
      <trkpt lat="46.74008" lon="-0.40282">
        <ele>173.75</ele>
        <time>2024-06-24T20:59:13.761Z</time>
      </trkpt>
      <trkpt lat="46.74005" lon="-0.40284">
        <ele>173.7</ele>
        <time>2024-06-24T20:59:19.936Z</time>
      </trkpt>
      <trkpt lat="46.74003" lon="-0.40286">
        <ele>173.65</ele>
        <time>2024-06-24T20:59:26.112Z</time>
      </trkpt>
      <trkpt lat="46.74" lon="-0.40287">
        <ele>173.59</ele>
        <time>2024-06-24T20:59:32.288Z</time>
      </trkpt>
      <trkpt lat="46.73997" lon="-0.40289">
        <ele>173.51</ele>
        <time>2024-06-24T20:59:38.465Z</time>
      </trkpt>
      <trkpt lat="46.73993" lon="-0.40291">
        <ele>173.43</ele>
        <time>2024-06-24T20:59:44.643Z</time>
      </trkpt>
      <trkpt lat="46.73991" lon="-0.40294">
        <ele>173.33</ele>
        <time>2024-06-24T20:59:50.821Z</time>
      </trkpt>
      <trkpt lat="46.73987" lon="-0.40296">
        <ele>173.22</ele>
        <time>2024-06-24T20:59:57.000Z</time>
      </trkpt>
      <trkpt lat="46.73985" lon="-0.40298">
        <ele>173.11</ele>
        <time>2024-06-24T21:00:03.180Z</time>
      </trkpt>
      <trkpt lat="46.73982" lon="-0.403">
        <ele>172.98</ele>
        <time>2024-06-24T21:00:09.360Z</time>
      </trkpt>
      <trkpt lat="46.7398" lon="-0.40302">
        <ele>172.84</ele>
        <time>2024-06-24T21:00:15.541Z</time>
      </trkpt>
      <trkpt lat="46.73977" lon="-0.40305">
        <ele>172.69</ele>
        <time>2024-06-24T21:00:21.722Z</time>
      </trkpt>
      <trkpt lat="46.73973" lon="-0.40307">
        <ele>172.53</ele>
        <time>2024-06-24T21:00:27.904Z</time>
      </trkpt>
      <trkpt lat="46.7397" lon="-0.40309">
        <ele>172.36</ele>
        <time>2024-06-24T21:00:34.087Z</time>
      </trkpt>
      <trkpt lat="46.73966" lon="-0.40312">
        <ele>172.18</ele>
        <time>2024-06-24T21:00:40.271Z</time>
      </trkpt>
      <trkpt lat="46.73963" lon="-0.40315">
        <ele>171.98</ele>
        <time>2024-06-24T21:00:46.456Z</time>
      </trkpt>
      <trkpt lat="46.73959" lon="-0.40318">
        <ele>171.78</ele>
        <time>2024-06-24T21:00:52.642Z</time>
      </trkpt>
      <trkpt lat="46.73954" lon="-0.40322">
        <ele>171.57</ele>
        <time>2024-06-24T21:00:58.829Z</time>
      </trkpt>
      <trkpt lat="46.73949" lon="-0.40326">
        <ele>171.35</ele>
        <time>2024-06-24T21:01:05.017Z</time>
      </trkpt>
      <trkpt lat="46.73944" lon="-0.4033">
        <ele>171.11</ele>
        <time>2024-06-24T21:01:11.206Z</time>
      </trkpt>
      <trkpt lat="46.73939" lon="-0.40334">
        <ele>170.86</ele>
        <time>2024-06-24T21:01:17.396Z</time>
      </trkpt>
      <trkpt lat="46.73933" lon="-0.40339">
        <ele>170.6</ele>
        <time>2024-06-24T21:01:23.587Z</time>
      </trkpt>
      <trkpt lat="46.73927" lon="-0.40343">
        <ele>170.34</ele>
        <time>2024-06-24T21:01:29.780Z</time>
      </trkpt>
      <trkpt lat="46.73921" lon="-0.40349">
        <ele>170.06</ele>
        <time>2024-06-24T21:01:35.974Z</time>
      </trkpt>
      <trkpt lat="46.73914" lon="-0.40354">
        <ele>169.78</ele>
        <time>2024-06-24T21:01:42.170Z</time>
      </trkpt>
      <trkpt lat="46.73908" lon="-0.4036">
        <ele>169.49</ele>
        <time>2024-06-24T21:01:48.367Z</time>
      </trkpt>
      <trkpt lat="46.73901" lon="-0.40366">
        <ele>169.19</ele>
        <time>2024-06-24T21:01:54.566Z</time>
      </trkpt>
      <trkpt lat="46.73894" lon="-0.40372">
        <ele>168.88</ele>
        <time>2024-06-24T21:02:00.766Z</time>
      </trkpt>
      <trkpt lat="46.73888" lon="-0.40379">
        <ele>168.57</ele>
        <time>2024-06-24T21:02:06.968Z</time>
      </trkpt>
      <trkpt lat="46.73881" lon="-0.40387">
        <ele>168.25</ele>
        <time>2024-06-24T21:02:13.172Z</time>
      </trkpt>
      <trkpt lat="46.73875" lon="-0.40395">
        <ele>167.94</ele>
        <time>2024-06-24T21:02:19.377Z</time>
      </trkpt>
      <trkpt lat="46.73869" lon="-0.40405">
        <ele>167.62</ele>
        <time>2024-06-24T21:02:25.584Z</time>
      </trkpt>
      <trkpt lat="46.73864" lon="-0.40414">
        <ele>167.31</ele>
        <time>2024-06-24T21:02:31.793Z</time>
      </trkpt>
      <trkpt lat="46.7386" lon="-0.40424">
        <ele>166.98</ele>
        <time>2024-06-24T21:02:38.003Z</time>
      </trkpt>
      <trkpt lat="46.73855" lon="-0.40434">
        <ele>166.65</ele>
        <time>2024-06-24T21:02:44.215Z</time>
      </trkpt>
      <trkpt lat="46.73852" lon="-0.40444">
        <ele>166.33</ele>
        <time>2024-06-24T21:02:50.429Z</time>
      </trkpt>
      <trkpt lat="46.73848" lon="-0.40454">
        <ele>166</ele>
        <time>2024-06-24T21:02:56.644Z</time>
      </trkpt>
      <trkpt lat="46.73844" lon="-0.40465">
        <ele>165.68</ele>
        <time>2024-06-24T21:03:02.861Z</time>
      </trkpt>
      <trkpt lat="46.73841" lon="-0.40475">
        <ele>165.34</ele>
        <time>2024-06-24T21:03:09.079Z</time>
      </trkpt>
      <trkpt lat="46.73837" lon="-0.40485">
        <ele>165</ele>
        <time>2024-06-24T21:03:15.299Z</time>
      </trkpt>
      <trkpt lat="46.73833" lon="-0.40494">
        <ele>164.65</ele>
        <time>2024-06-24T21:03:21.520Z</time>
      </trkpt>
      <trkpt lat="46.7383" lon="-0.40504">
        <ele>164.3</ele>
        <time>2024-06-24T21:03:27.743Z</time>
      </trkpt>
      <trkpt lat="46.73825" lon="-0.40512">
        <ele>163.95</ele>
        <time>2024-06-24T21:03:33.967Z</time>
      </trkpt>
      <trkpt lat="46.73821" lon="-0.40522">
        <ele>163.6</ele>
        <time>2024-06-24T21:03:40.193Z</time>
      </trkpt>
      <trkpt lat="46.73815" lon="-0.4053">
        <ele>163.25</ele>
        <time>2024-06-24T21:03:46.421Z</time>
      </trkpt>
      <trkpt lat="46.7381" lon="-0.40539">
        <ele>162.9</ele>
        <time>2024-06-24T21:03:52.650Z</time>
      </trkpt>
      <trkpt lat="46.73805" lon="-0.40547">
        <ele>162.55</ele>
        <time>2024-06-24T21:03:58.881Z</time>
      </trkpt>
      <trkpt lat="46.738" lon="-0.40556">
        <ele>162.21</ele>
        <time>2024-06-24T21:04:05.113Z</time>
      </trkpt>
      <trkpt lat="46.73795" lon="-0.40565">
        <ele>161.87</ele>
        <time>2024-06-24T21:04:11.347Z</time>
      </trkpt>
      <trkpt lat="46.7379" lon="-0.40573">
        <ele>161.53</ele>
        <time>2024-06-24T21:04:17.582Z</time>
      </trkpt>
      <trkpt lat="46.73784" lon="-0.40581">
        <ele>161.19</ele>
        <time>2024-06-24T21:04:23.819Z</time>
      </trkpt>
      <trkpt lat="46.7378" lon="-0.4059">
        <ele>160.87</ele>
        <time>2024-06-24T21:04:30.057Z</time>
      </trkpt>
      <trkpt lat="46.73774" lon="-0.40599">
        <ele>160.55</ele>
        <time>2024-06-24T21:04:36.297Z</time>
      </trkpt>
      <trkpt lat="46.73769" lon="-0.40607">
        <ele>160.23</ele>
        <time>2024-06-24T21:04:42.539Z</time>
      </trkpt>
      <trkpt lat="46.73763" lon="-0.40617">
        <ele>159.92</ele>
        <time>2024-06-24T21:04:48.782Z</time>
      </trkpt>
      <trkpt lat="46.73757" lon="-0.40627">
        <ele>159.62</ele>
        <time>2024-06-24T21:04:55.027Z</time>
      </trkpt>
      <trkpt lat="46.73751" lon="-0.40637">
        <ele>159.32</ele>
        <time>2024-06-24T21:05:01.274Z</time>
      </trkpt>
      <trkpt lat="46.73745" lon="-0.40649">
        <ele>159.02</ele>
        <time>2024-06-24T21:05:07.523Z</time>
      </trkpt>
      <trkpt lat="46.7374" lon="-0.40661">
        <ele>158.73</ele>
        <time>2024-06-24T21:05:13.774Z</time>
      </trkpt>
      <trkpt lat="46.73735" lon="-0.40675">
        <ele>158.44</ele>
        <time>2024-06-24T21:05:20.027Z</time>
      </trkpt>
      <trkpt lat="46.73732" lon="-0.40689">
        <ele>158.16</ele>
        <time>2024-06-24T21:05:26.282Z</time>
      </trkpt>
      <trkpt lat="46.73729" lon="-0.40702">
        <ele>157.9</ele>
        <time>2024-06-24T21:05:32.539Z</time>
      </trkpt>
      <trkpt lat="46.73726" lon="-0.40716">
        <ele>157.64</ele>
        <time>2024-06-24T21:05:38.798Z</time>
      </trkpt>
      <trkpt lat="46.73723" lon="-0.4073">
        <ele>157.4</ele>
        <time>2024-06-24T21:05:45.059Z</time>
      </trkpt>
      <trkpt lat="46.73721" lon="-0.40743">
        <ele>157.16</ele>
        <time>2024-06-24T21:05:51.322Z</time>
      </trkpt>
      <trkpt lat="46.73718" lon="-0.40755">
        <ele>156.94</ele>
        <time>2024-06-24T21:05:57.587Z</time>
      </trkpt>
      <trkpt lat="46.73716" lon="-0.40768">
        <ele>156.74</ele>
        <time>2024-06-24T21:06:03.854Z</time>
      </trkpt>
      <trkpt lat="46.73714" lon="-0.4078">
        <ele>156.55</ele>
        <time>2024-06-24T21:06:10.122Z</time>
      </trkpt>
      <trkpt lat="46.73712" lon="-0.40791">
        <ele>156.37</ele>
        <time>2024-06-24T21:06:16.392Z</time>
      </trkpt>
      <trkpt lat="46.73709" lon="-0.40801">
        <ele>156.19</ele>
        <time>2024-06-24T21:06:22.663Z</time>
      </trkpt>
      <trkpt lat="46.73707" lon="-0.40811">
        <ele>156.03</ele>
        <time>2024-06-24T21:06:28.936Z</time>
      </trkpt>
      <trkpt lat="46.73705" lon="-0.40821">
        <ele>155.87</ele>
        <time>2024-06-24T21:06:35.210Z</time>
      </trkpt>
      <trkpt lat="46.73702" lon="-0.40831">
        <ele>155.72</ele>
        <time>2024-06-24T21:06:41.486Z</time>
      </trkpt>
      <trkpt lat="46.73699" lon="-0.4084">
        <ele>155.59</ele>
        <time>2024-06-24T21:06:47.763Z</time>
      </trkpt>
      <trkpt lat="46.73695" lon="-0.40848">
        <ele>155.47</ele>
        <time>2024-06-24T21:06:54.041Z</time>
      </trkpt>
      <trkpt lat="46.7369" lon="-0.40854">
        <ele>155.35</ele>
        <time>2024-06-24T21:07:00.321Z</time>
      </trkpt>
      <trkpt lat="46.73686" lon="-0.4086">
        <ele>155.24</ele>
        <time>2024-06-24T21:07:06.602Z</time>
      </trkpt>
      <trkpt lat="46.73681" lon="-0.40863">
        <ele>155.13</ele>
        <time>2024-06-24T21:07:12.884Z</time>
      </trkpt>
      <trkpt lat="46.73676" lon="-0.40867">
        <ele>155.04</ele>
        <time>2024-06-24T21:07:19.167Z</time>
      </trkpt>
      <trkpt lat="46.7367" lon="-0.40868">
        <ele>154.95</ele>
        <time>2024-06-24T21:07:25.451Z</time>
      </trkpt>
      <trkpt lat="46.73665" lon="-0.40869">
        <ele>154.88</ele>
        <time>2024-06-24T21:07:31.736Z</time>
      </trkpt>
      <trkpt lat="46.73661" lon="-0.4087">
        <ele>154.81</ele>
        <time>2024-06-24T21:07:38.022Z</time>
      </trkpt>
      <trkpt lat="46.73657" lon="-0.4087">
        <ele>154.75</ele>
        <time>2024-06-24T21:07:44.309Z</time>
      </trkpt>
      <trkpt lat="46.73653" lon="-0.40871">
        <ele>154.69</ele>
        <time>2024-06-24T21:07:50.597Z</time>
      </trkpt>
      <trkpt lat="46.73649" lon="-0.40872">
        <ele>154.65</ele>
        <time>2024-06-24T21:07:56.885Z</time>
      </trkpt>
      <trkpt lat="46.73645" lon="-0.40873">
        <ele>154.61</ele>
        <time>2024-06-24T21:08:03.174Z</time>
      </trkpt>
      <trkpt lat="46.73641" lon="-0.40873">
        <ele>154.59</ele>
        <time>2024-06-24T21:08:09.464Z</time>
      </trkpt>
      <trkpt lat="46.73637" lon="-0.40873">
        <ele>154.57</ele>
        <time>2024-06-24T21:08:15.755Z</time>
      </trkpt>
      <trkpt lat="46.73633" lon="-0.40874">
        <ele>154.56</ele>
        <time>2024-06-24T21:08:22.047Z</time>
      </trkpt>
      <trkpt lat="46.73629" lon="-0.40874">
        <ele>154.56</ele>
        <time>2024-06-24T21:08:28.340Z</time>
      </trkpt>
      <trkpt lat="46.73625" lon="-0.40873">
        <ele>154.56</ele>
        <time>2024-06-24T21:08:34.633Z</time>
      </trkpt>
      <trkpt lat="46.73621" lon="-0.40873">
        <ele>154.57</ele>
        <time>2024-06-24T21:08:40.927Z</time>
      </trkpt>
      <trkpt lat="46.73617" lon="-0.40872">
        <ele>154.59</ele>
        <time>2024-06-24T21:08:47.222Z</time>
      </trkpt>
      <trkpt lat="46.73613" lon="-0.40872">
        <ele>154.61</ele>
        <time>2024-06-24T21:08:53.518Z</time>
      </trkpt>
      <trkpt lat="46.73608" lon="-0.40872">
        <ele>154.64</ele>
        <time>2024-06-24T21:08:59.815Z</time>
      </trkpt>
      <trkpt lat="46.73604" lon="-0.40873">
        <ele>154.68</ele>
        <time>2024-06-24T21:09:06.113Z</time>
      </trkpt>
      <trkpt lat="46.73599" lon="-0.40874">
        <ele>154.72</ele>
        <time>2024-06-24T21:09:12.411Z</time>
      </trkpt>
      <trkpt lat="46.73595" lon="-0.40875">
        <ele>154.77</ele>
        <time>2024-06-24T21:09:18.710Z</time>
      </trkpt>
      <trkpt lat="46.73591" lon="-0.40876">
        <ele>154.83</ele>
        <time>2024-06-24T21:09:25.010Z</time>
      </trkpt>
      <trkpt lat="46.73586" lon="-0.40877">
        <ele>154.89</ele>
        <time>2024-06-24T21:09:31.311Z</time>
      </trkpt>
      <trkpt lat="46.73582" lon="-0.40879">
        <ele>154.95</ele>
        <time>2024-06-24T21:09:37.613Z</time>
      </trkpt>
      <trkpt lat="46.73578" lon="-0.4088">
        <ele>155.02</ele>
        <time>2024-06-24T21:09:43.916Z</time>
      </trkpt>
      <trkpt lat="46.73574" lon="-0.40881">
        <ele>155.1</ele>
        <time>2024-06-24T21:09:50.220Z</time>
      </trkpt>
      <trkpt lat="46.73569" lon="-0.40884">
        <ele>155.18</ele>
        <time>2024-06-24T21:09:56.525Z</time>
      </trkpt>
      <trkpt lat="46.73565" lon="-0.40885">
        <ele>155.26</ele>
        <time>2024-06-24T21:10:02.830Z</time>
      </trkpt>
      <trkpt lat="46.73562" lon="-0.40887">
        <ele>155.35</ele>
        <time>2024-06-24T21:10:09.136Z</time>
      </trkpt>
      <trkpt lat="46.73558" lon="-0.4089">
        <ele>155.44</ele>
        <time>2024-06-24T21:10:15.443Z</time>
      </trkpt>
      <trkpt lat="46.73553" lon="-0.40892">
        <ele>155.54</ele>
        <time>2024-06-24T21:10:21.751Z</time>
      </trkpt>
      <trkpt lat="46.73549" lon="-0.40895">
        <ele>155.64</ele>
        <time>2024-06-24T21:10:28.060Z</time>
      </trkpt>
      <trkpt lat="46.73545" lon="-0.40898">
        <ele>155.74</ele>
        <time>2024-06-24T21:10:34.370Z</time>
      </trkpt>
      <trkpt lat="46.73541" lon="-0.409">
        <ele>155.85</ele>
        <time>2024-06-24T21:10:40.681Z</time>
      </trkpt>
      <trkpt lat="46.73538" lon="-0.40903">
        <ele>155.97</ele>
        <time>2024-06-24T21:10:46.993Z</time>
      </trkpt>
      <trkpt lat="46.73534" lon="-0.40905">
        <ele>156.08</ele>
        <time>2024-06-24T21:10:53.305Z</time>
      </trkpt>
      <trkpt lat="46.7353" lon="-0.40908">
        <ele>156.21</ele>
        <time>2024-06-24T21:10:59.618Z</time>
      </trkpt>
      <trkpt lat="46.73525" lon="-0.40911">
        <ele>156.34</ele>
        <time>2024-06-24T21:11:05.932Z</time>
      </trkpt>
      <trkpt lat="46.73521" lon="-0.40914">
        <ele>156.47</ele>
        <time>2024-06-24T21:11:12.247Z</time>
      </trkpt>
      <trkpt lat="46.73517" lon="-0.40917">
        <ele>156.61</ele>
        <time>2024-06-24T21:11:18.563Z</time>
      </trkpt>
      <trkpt lat="46.73513" lon="-0.40919">
        <ele>156.75</ele>
        <time>2024-06-24T21:11:24.880Z</time>
      </trkpt>
      <trkpt lat="46.73509" lon="-0.40922">
        <ele>156.9</ele>
        <time>2024-06-24T21:11:31.198Z</time>
      </trkpt>
      <trkpt lat="46.73505" lon="-0.40925">
        <ele>157.06</ele>
        <time>2024-06-24T21:11:37.517Z</time>
      </trkpt>
      <trkpt lat="46.735" lon="-0.40928">
        <ele>157.22</ele>
        <time>2024-06-24T21:11:43.837Z</time>
      </trkpt>
      <trkpt lat="46.73496" lon="-0.40931">
        <ele>157.39</ele>
        <time>2024-06-24T21:11:50.158Z</time>
      </trkpt>
      <trkpt lat="46.73491" lon="-0.40934">
        <ele>157.56</ele>
        <time>2024-06-24T21:11:56.480Z</time>
      </trkpt>
      <trkpt lat="46.73487" lon="-0.40937">
        <ele>157.74</ele>
        <time>2024-06-24T21:12:02.803Z</time>
      </trkpt>
      <trkpt lat="46.73482" lon="-0.40939">
        <ele>157.92</ele>
        <time>2024-06-24T21:12:09.127Z</time>
      </trkpt>
      <trkpt lat="46.73477" lon="-0.40941">
        <ele>158.11</ele>
        <time>2024-06-24T21:12:15.452Z</time>
      </trkpt>
      <trkpt lat="46.73473" lon="-0.40943">
        <ele>158.3</ele>
        <time>2024-06-24T21:12:21.778Z</time>
      </trkpt>
      <trkpt lat="46.73468" lon="-0.40945">
        <ele>158.5</ele>
        <time>2024-06-24T21:12:28.105Z</time>
      </trkpt>
      <trkpt lat="46.73463" lon="-0.40947">
        <ele>158.7</ele>
        <time>2024-06-24T21:12:34.433Z</time>
      </trkpt>
      <trkpt lat="46.73458" lon="-0.40948">
        <ele>158.91</ele>
        <time>2024-06-24T21:12:40.762Z</time>
      </trkpt>
      <trkpt lat="46.73453" lon="-0.40949">
        <ele>159.13</ele>
        <time>2024-06-24T21:12:47.092Z</time>
      </trkpt>
      <trkpt lat="46.73448" lon="-0.40949">
        <ele>159.35</ele>
        <time>2024-06-24T21:12:53.423Z</time>
      </trkpt>
      <trkpt lat="46.73443" lon="-0.40949">
        <ele>159.57</ele>
        <time>2024-06-24T21:12:59.755Z</time>
      </trkpt>
      <trkpt lat="46.73438" lon="-0.40948">
        <ele>159.8</ele>
        <time>2024-06-24T21:13:06.088Z</time>
      </trkpt>
      <trkpt lat="46.73433" lon="-0.40947">
        <ele>160.04</ele>
        <time>2024-06-24T21:13:12.422Z</time>
      </trkpt>
      <trkpt lat="46.73428" lon="-0.40945">
        <ele>160.28</ele>
        <time>2024-06-24T21:13:18.757Z</time>
      </trkpt>
      <trkpt lat="46.73423" lon="-0.40943">
        <ele>160.53</ele>
        <time>2024-06-24T21:13:25.093Z</time>
      </trkpt>
      <trkpt lat="46.73419" lon="-0.40941">
        <ele>160.79</ele>
        <time>2024-06-24T21:13:31.430Z</time>
      </trkpt>
      <trkpt lat="46.73414" lon="-0.40938">
        <ele>161.05</ele>
        <time>2024-06-24T21:13:37.768Z</time>
      </trkpt>
      <trkpt lat="46.7341" lon="-0.40936">
        <ele>161.33</ele>
        <time>2024-06-24T21:13:44.107Z</time>
      </trkpt>
      <trkpt lat="46.73406" lon="-0.40933">
        <ele>161.6</ele>
        <time>2024-06-24T21:13:50.446Z</time>
      </trkpt>
      <trkpt lat="46.73402" lon="-0.40931">
        <ele>161.89</ele>
        <time>2024-06-24T21:13:56.786Z</time>
      </trkpt>
      <trkpt lat="46.73399" lon="-0.40928">
        <ele>162.18</ele>
        <time>2024-06-24T21:14:03.127Z</time>
      </trkpt>
      <trkpt lat="46.73395" lon="-0.40926">
        <ele>162.47</ele>
        <time>2024-06-24T21:14:09.469Z</time>
      </trkpt>
      <trkpt lat="46.73391" lon="-0.40923">
        <ele>162.77</ele>
        <time>2024-06-24T21:14:15.812Z</time>
      </trkpt>
      <trkpt lat="46.73388" lon="-0.4092">
        <ele>163.07</ele>
        <time>2024-06-24T21:14:22.156Z</time>
      </trkpt>
      <trkpt lat="46.73384" lon="-0.40918">
        <ele>163.38</ele>
        <time>2024-06-24T21:14:28.500Z</time>
      </trkpt>
      <trkpt lat="46.73381" lon="-0.40915">
        <ele>163.69</ele>
        <time>2024-06-24T21:14:34.845Z</time>
      </trkpt>
      <trkpt lat="46.73378" lon="-0.40913">
        <ele>164.01</ele>
        <time>2024-06-24T21:14:41.191Z</time>
      </trkpt>
      <trkpt lat="46.73375" lon="-0.40911">
        <ele>164.33</ele>
        <time>2024-06-24T21:14:47.537Z</time>
      </trkpt>
      <trkpt lat="46.73371" lon="-0.40909">
        <ele>164.66</ele>
        <time>2024-06-24T21:14:53.884Z</time>
      </trkpt>
      <trkpt lat="46.73368" lon="-0.40907">
        <ele>164.99</ele>
        <time>2024-06-24T21:15:00.232Z</time>
      </trkpt>
      <trkpt lat="46.73365" lon="-0.40905">
        <ele>165.33</ele>
        <time>2024-06-24T21:15:06.580Z</time>
      </trkpt>
      <trkpt lat="46.73362" lon="-0.40903">
        <ele>165.67</ele>
        <time>2024-06-24T21:15:12.929Z</time>
      </trkpt>
      <trkpt lat="46.7336" lon="-0.40901">
        <ele>166.01</ele>
        <time>2024-06-24T21:15:19.279Z</time>
      </trkpt>
      <trkpt lat="46.73357" lon="-0.409">
        <ele>166.36</ele>
        <time>2024-06-24T21:15:25.629Z</time>
      </trkpt>
      <trkpt lat="46.73354" lon="-0.40898">
        <ele>166.71</ele>
        <time>2024-06-24T21:15:31.980Z</time>
      </trkpt>
      <trkpt lat="46.73351" lon="-0.40896">
        <ele>167.06</ele>
        <time>2024-06-24T21:15:38.332Z</time>
      </trkpt>
      <trkpt lat="46.73348" lon="-0.40895">
        <ele>167.41</ele>
        <time>2024-06-24T21:15:44.684Z</time>
      </trkpt>
      <trkpt lat="46.73345" lon="-0.40894">
        <ele>167.77</ele>
        <time>2024-06-24T21:15:51.037Z</time>
      </trkpt>
      <trkpt lat="46.73342" lon="-0.40893">
        <ele>168.12</ele>
        <time>2024-06-24T21:15:57.390Z</time>
      </trkpt>
      <trkpt lat="46.73339" lon="-0.40892">
        <ele>168.48</ele>
        <time>2024-06-24T21:16:03.744Z</time>
      </trkpt>
      <trkpt lat="46.73336" lon="-0.40891">
        <ele>168.84</ele>
        <time>2024-06-24T21:16:10.099Z</time>
      </trkpt>
      <trkpt lat="46.73332" lon="-0.40891">
        <ele>169.2</ele>
        <time>2024-06-24T21:16:16.454Z</time>
      </trkpt>
      <trkpt lat="46.73329" lon="-0.40891">
        <ele>169.56</ele>
        <time>2024-06-24T21:16:22.810Z</time>
      </trkpt>
      <trkpt lat="46.73326" lon="-0.40891">
        <ele>169.92</ele>
        <time>2024-06-24T21:16:29.167Z</time>
      </trkpt>
      <trkpt lat="46.73323" lon="-0.40891">
        <ele>170.27</ele>
        <time>2024-06-24T21:16:35.524Z</time>
      </trkpt>
      <trkpt lat="46.7332" lon="-0.40891">
        <ele>170.63</ele>
        <time>2024-06-24T21:16:41.882Z</time>
      </trkpt>
      <trkpt lat="46.73317" lon="-0.40892">
        <ele>170.98</ele>
        <time>2024-06-24T21:16:48.240Z</time>
      </trkpt>
      <trkpt lat="46.73314" lon="-0.40894">
        <ele>171.34</ele>
        <time>2024-06-24T21:16:54.599Z</time>
      </trkpt>
      <trkpt lat="46.73311" lon="-0.40895">
        <ele>171.69</ele>
        <time>2024-06-24T21:17:00.959Z</time>
      </trkpt>
      <trkpt lat="46.73308" lon="-0.40896">
        <ele>172.04</ele>
        <time>2024-06-24T21:17:07.319Z</time>
      </trkpt>
      <trkpt lat="46.73305" lon="-0.40898">
        <ele>172.39</ele>
        <time>2024-06-24T21:17:13.680Z</time>
      </trkpt>
      <trkpt lat="46.73302" lon="-0.40899">
        <ele>172.73</ele>
        <time>2024-06-24T21:17:20.042Z</time>
      </trkpt>
      <trkpt lat="46.733" lon="-0.40901">
        <ele>173.07</ele>
        <time>2024-06-24T21:17:26.404Z</time>
      </trkpt>
      <trkpt lat="46.73298" lon="-0.40903">
        <ele>173.41</ele>
        <time>2024-06-24T21:17:32.767Z</time>
      </trkpt>
      <trkpt lat="46.73295" lon="-0.40905">
        <ele>173.74</ele>
        <time>2024-06-24T21:17:39.130Z</time>
      </trkpt>
      <trkpt lat="46.73293" lon="-0.40907">
        <ele>174.07</ele>
        <time>2024-06-24T21:17:45.494Z</time>
      </trkpt>
      <trkpt lat="46.7329" lon="-0.40909">
        <ele>174.4</ele>
        <time>2024-06-24T21:17:51.858Z</time>
      </trkpt>
      <trkpt lat="46.73288" lon="-0.40911">
        <ele>174.72</ele>
        <time>2024-06-24T21:17:58.223Z</time>
      </trkpt>
      <trkpt lat="46.73285" lon="-0.40913">
        <ele>175.03</ele>
        <time>2024-06-24T21:18:04.588Z</time>
      </trkpt>
      <trkpt lat="46.73283" lon="-0.40916">
        <ele>175.34</ele>
        <time>2024-06-24T21:18:10.954Z</time>
      </trkpt>
      <trkpt lat="46.73281" lon="-0.40918">
        <ele>175.64</ele>
        <time>2024-06-24T21:18:17.321Z</time>
      </trkpt>
      <trkpt lat="46.73279" lon="-0.4092">
        <ele>175.93</ele>
        <time>2024-06-24T21:18:23.688Z</time>
      </trkpt>
      <trkpt lat="46.73277" lon="-0.40922">
        <ele>176.22</ele>
        <time>2024-06-24T21:18:30.056Z</time>
      </trkpt>
      <trkpt lat="46.73275" lon="-0.40924">
        <ele>176.5</ele>
        <time>2024-06-24T21:18:36.424Z</time>
      </trkpt>
      <trkpt lat="46.73272" lon="-0.40926">
        <ele>176.77</ele>
        <time>2024-06-24T21:18:42.793Z</time>
      </trkpt>
      <trkpt lat="46.73269" lon="-0.40928">
        <ele>177.04</ele>
        <time>2024-06-24T21:18:49.162Z</time>
      </trkpt>
      <trkpt lat="46.73266" lon="-0.40929">
        <ele>177.3</ele>
        <time>2024-06-24T21:18:55.532Z</time>
      </trkpt>
      <trkpt lat="46.73264" lon="-0.40931">
        <ele>177.55</ele>
        <time>2024-06-24T21:19:01.902Z</time>
      </trkpt>
      <trkpt lat="46.73261" lon="-0.40933">
        <ele>177.8</ele>
        <time>2024-06-24T21:19:08.273Z</time>
      </trkpt>
      <trkpt lat="46.73259" lon="-0.40934">
        <ele>178.03</ele>
        <time>2024-06-24T21:19:14.644Z</time>
      </trkpt>
      <trkpt lat="46.73257" lon="-0.40936">
        <ele>178.26</ele>
        <time>2024-06-24T21:19:21.016Z</time>
      </trkpt>
      <trkpt lat="46.73254" lon="-0.40937">
        <ele>178.48</ele>
        <time>2024-06-24T21:19:27.389Z</time>
      </trkpt>
      <trkpt lat="46.73251" lon="-0.40937">
        <ele>178.7</ele>
        <time>2024-06-24T21:19:33.762Z</time>
      </trkpt>
      <trkpt lat="46.73249" lon="-0.40938">
        <ele>178.9</ele>
        <time>2024-06-24T21:19:40.136Z</time>
      </trkpt>
      <trkpt lat="46.73246" lon="-0.40938">
        <ele>179.09</ele>
        <time>2024-06-24T21:19:46.510Z</time>
      </trkpt>
      <trkpt lat="46.73243" lon="-0.40938">
        <ele>179.28</ele>
        <time>2024-06-24T21:19:52.885Z</time>
      </trkpt>
      <trkpt lat="46.73241" lon="-0.40938">
        <ele>179.45</ele>
        <time>2024-06-24T21:19:59.260Z</time>
      </trkpt>
      <trkpt lat="46.73238" lon="-0.40938">
        <ele>179.62</ele>
        <time>2024-06-24T21:20:05.636Z</time>
      </trkpt>
      <trkpt lat="46.73236" lon="-0.40938">
        <ele>179.77</ele>
        <time>2024-06-24T21:20:12.012Z</time>
      </trkpt>
      <trkpt lat="46.73233" lon="-0.40937">
        <ele>179.92</ele>
        <time>2024-06-24T21:20:18.389Z</time>
      </trkpt>
      <trkpt lat="46.73231" lon="-0.40936">
        <ele>180.05</ele>
        <time>2024-06-24T21:20:24.766Z</time>
      </trkpt>
      <trkpt lat="46.73229" lon="-0.40934">
        <ele>180.17</ele>
        <time>2024-06-24T21:20:31.144Z</time>
      </trkpt>
      <trkpt lat="46.73226" lon="-0.40933">
        <ele>180.28</ele>
        <time>2024-06-24T21:20:37.522Z</time>
      </trkpt>
      <trkpt lat="46.73223" lon="-0.40931">
        <ele>180.39</ele>
        <time>2024-06-24T21:20:43.901Z</time>
      </trkpt>
      <trkpt lat="46.73221" lon="-0.40929">
        <ele>180.48</ele>
        <time>2024-06-24T21:20:50.281Z</time>
      </trkpt>
      <trkpt lat="46.73218" lon="-0.40927">
        <ele>180.55</ele>
        <time>2024-06-24T21:20:56.661Z</time>
      </trkpt>
      <trkpt lat="46.73215" lon="-0.40926">
        <ele>180.62</ele>
        <time>2024-06-24T21:21:03.042Z</time>
      </trkpt>
      <trkpt lat="46.73212" lon="-0.40923">
        <ele>180.67</ele>
        <time>2024-06-24T21:21:09.423Z</time>
      </trkpt>
      <trkpt lat="46.7321" lon="-0.40921">
        <ele>180.71</ele>
        <time>2024-06-24T21:21:15.805Z</time>
      </trkpt>
      <trkpt lat="46.73208" lon="-0.40919">
        <ele>180.74</ele>
        <time>2024-06-24T21:21:22.187Z</time>
      </trkpt>
      <trkpt lat="46.73205" lon="-0.40916">
        <ele>180.75</ele>
        <time>2024-06-24T21:21:28.570Z</time>
      </trkpt>
      <trkpt lat="46.73202" lon="-0.40914">
        <ele>180.76</ele>
        <time>2024-06-24T21:21:34.954Z</time>
      </trkpt>
      <trkpt lat="46.732" lon="-0.40912">
        <ele>180.75</ele>
        <time>2024-06-24T21:21:41.338Z</time>
      </trkpt>
      <trkpt lat="46.73198" lon="-0.40909">
        <ele>180.73</ele>
        <time>2024-06-24T21:21:47.723Z</time>
      </trkpt>
      <trkpt lat="46.73195" lon="-0.40907">
        <ele>180.7</ele>
        <time>2024-06-24T21:21:54.109Z</time>
      </trkpt>
      <trkpt lat="46.73192" lon="-0.40908">
        <ele>180.66</ele>
        <time>2024-06-24T21:22:00.495Z</time>
      </trkpt>
      <trkpt lat="46.7319" lon="-0.4091">
        <ele>180.6</ele>
        <time>2024-06-24T21:22:06.882Z</time>
      </trkpt>
      <trkpt lat="46.73188" lon="-0.40914">
        <ele>180.54</ele>
        <time>2024-06-24T21:22:13.269Z</time>
      </trkpt>
      <trkpt lat="46.73188" lon="-0.40918">
        <ele>180.45</ele>
        <time>2024-06-24T21:22:19.657Z</time>
      </trkpt>
      <trkpt lat="46.73189" lon="-0.40922">
        <ele>180.36</ele>
        <time>2024-06-24T21:22:26.045Z</time>
      </trkpt>
      <trkpt lat="46.73189" lon="-0.40926">
        <ele>180.26</ele>
        <time>2024-06-24T21:22:32.434Z</time>
      </trkpt>
      <trkpt lat="46.73189" lon="-0.40931">
        <ele>180.14</ele>
        <time>2024-06-24T21:22:38.824Z</time>
      </trkpt>
      <trkpt lat="46.7319" lon="-0.40936">
        <ele>180.02</ele>
        <time>2024-06-24T21:22:45.214Z</time>
      </trkpt>
      <trkpt lat="46.73191" lon="-0.40942">
        <ele>179.88</ele>
        <time>2024-06-24T21:22:51.605Z</time>
      </trkpt>
      <trkpt lat="46.73193" lon="-0.40948">
        <ele>179.73</ele>
        <time>2024-06-24T21:22:57.997Z</time>
      </trkpt>
      <trkpt lat="46.73193" lon="-0.40955">
        <ele>179.57</ele>
        <time>2024-06-24T21:23:04.390Z</time>
      </trkpt>
      <trkpt lat="46.73193" lon="-0.40963">
        <ele>179.41</ele>
        <time>2024-06-24T21:23:10.784Z</time>
      </trkpt>
      <trkpt lat="46.7319" lon="-0.40971">
        <ele>179.24</ele>
        <time>2024-06-24T21:23:17.179Z</time>
      </trkpt>
      <trkpt lat="46.73187" lon="-0.4098">
        <ele>179.06</ele>
        <time>2024-06-24T21:23:23.576Z</time>
      </trkpt>
      <trkpt lat="46.73185" lon="-0.40989">
        <ele>178.86</ele>
        <time>2024-06-24T21:23:29.974Z</time>
      </trkpt>
      <trkpt lat="46.73183" lon="-0.40999">
        <ele>178.66</ele>
        <time>2024-06-24T21:23:36.373Z</time>
      </trkpt>
      <trkpt lat="46.73183" lon="-0.4101">
        <ele>178.44</ele>
        <time>2024-06-24T21:23:42.774Z</time>
      </trkpt>
      <trkpt lat="46.73184" lon="-0.4102">
        <ele>178.21</ele>
        <time>2024-06-24T21:23:49.176Z</time>
      </trkpt>
      <trkpt lat="46.73187" lon="-0.41031">
        <ele>177.98</ele>
        <time>2024-06-24T21:23:55.580Z</time>
      </trkpt>
      <trkpt lat="46.7319" lon="-0.41042">
        <ele>177.74</ele>
        <time>2024-06-24T21:24:01.986Z</time>
      </trkpt>
      <trkpt lat="46.73194" lon="-0.41052">
        <ele>177.51</ele>
        <time>2024-06-24T21:24:08.393Z</time>
      </trkpt>
      <trkpt lat="46.73197" lon="-0.41062">
        <ele>177.27</ele>
        <time>2024-06-24T21:24:14.802Z</time>
      </trkpt>
      <trkpt lat="46.73199" lon="-0.41072">
        <ele>177.04</ele>
        <time>2024-06-24T21:24:21.212Z</time>
      </trkpt>
      <trkpt lat="46.73202" lon="-0.41083">
        <ele>176.8</ele>
        <time>2024-06-24T21:24:27.624Z</time>
      </trkpt>
      <trkpt lat="46.73205" lon="-0.41093">
        <ele>176.57</ele>
        <time>2024-06-24T21:24:34.037Z</time>
      </trkpt>
      <trkpt lat="46.73208" lon="-0.41103">
        <ele>176.34</ele>
        <time>2024-06-24T21:24:40.452Z</time>
      </trkpt>
      <trkpt lat="46.73212" lon="-0.41113">
        <ele>176.13</ele>
        <time>2024-06-24T21:24:46.868Z</time>
      </trkpt>
      <trkpt lat="46.73216" lon="-0.41123">
        <ele>175.92</ele>
        <time>2024-06-24T21:24:53.286Z</time>
      </trkpt>
      <trkpt lat="46.73219" lon="-0.41131">
        <ele>175.71</ele>
        <time>2024-06-24T21:24:59.705Z</time>
      </trkpt>
      <trkpt lat="46.73221" lon="-0.4114">
        <ele>175.5</ele>
        <time>2024-06-24T21:25:06.126Z</time>
      </trkpt>
      <trkpt lat="46.73223" lon="-0.41149">
        <ele>175.31</ele>
        <time>2024-06-24T21:25:12.548Z</time>
      </trkpt>
      <trkpt lat="46.73226" lon="-0.41157">
        <ele>175.11</ele>
        <time>2024-06-24T21:25:18.971Z</time>
      </trkpt>
      <trkpt lat="46.73229" lon="-0.41165">
        <ele>174.92</ele>
        <time>2024-06-24T21:25:25.395Z</time>
      </trkpt>
      <trkpt lat="46.73231" lon="-0.41174">
        <ele>174.73</ele>
        <time>2024-06-24T21:25:31.821Z</time>
      </trkpt>
      <trkpt lat="46.73234" lon="-0.41182">
        <ele>174.53</ele>
        <time>2024-06-24T21:25:38.248Z</time>
      </trkpt>
      <trkpt lat="46.73236" lon="-0.4119">
        <ele>174.34</ele>
        <time>2024-06-24T21:25:44.676Z</time>
      </trkpt>
      <trkpt lat="46.73238" lon="-0.41197">
        <ele>174.15</ele>
        <time>2024-06-24T21:25:51.105Z</time>
      </trkpt>
      <trkpt lat="46.7324" lon="-0.41205">
        <ele>173.96</ele>
        <time>2024-06-24T21:25:57.535Z</time>
      </trkpt>
      <trkpt lat="46.73241" lon="-0.41211">
        <ele>173.78</ele>
        <time>2024-06-24T21:26:03.966Z</time>
      </trkpt>
      <trkpt lat="46.73243" lon="-0.41219">
        <ele>173.6</ele>
        <time>2024-06-24T21:26:10.398Z</time>
      </trkpt>
      <trkpt lat="46.73245" lon="-0.41228">
        <ele>173.41</ele>
        <time>2024-06-24T21:26:16.832Z</time>
      </trkpt>
      <trkpt lat="46.73247" lon="-0.41235">
        <ele>173.23</ele>
        <time>2024-06-24T21:26:23.267Z</time>
      </trkpt>
      <trkpt lat="46.73249" lon="-0.41242">
        <ele>173.06</ele>
        <time>2024-06-24T21:26:29.703Z</time>
      </trkpt>
      <trkpt lat="46.73251" lon="-0.4125">
        <ele>172.89</ele>
        <time>2024-06-24T21:26:36.140Z</time>
      </trkpt>
      <trkpt lat="46.73251" lon="-0.41257">
        <ele>172.73</ele>
        <time>2024-06-24T21:26:42.578Z</time>
      </trkpt>
      <trkpt lat="46.73252" lon="-0.41265">
        <ele>172.57</ele>
        <time>2024-06-24T21:26:49.017Z</time>
      </trkpt>
      <trkpt lat="46.73253" lon="-0.41272">
        <ele>172.42</ele>
        <time>2024-06-24T21:26:55.457Z</time>
      </trkpt>
      <trkpt lat="46.73253" lon="-0.4128">
        <ele>172.26</ele>
        <time>2024-06-24T21:27:01.898Z</time>
      </trkpt>
      <trkpt lat="46.73254" lon="-0.41287">
        <ele>172.11</ele>
        <time>2024-06-24T21:27:08.340Z</time>
      </trkpt>
      <trkpt lat="46.73256" lon="-0.41294">
        <ele>171.96</ele>
        <time>2024-06-24T21:27:14.783Z</time>
      </trkpt>
      <trkpt lat="46.7326" lon="-0.413">
        <ele>171.81</ele>
        <time>2024-06-24T21:27:21.227Z</time>
      </trkpt>
      <trkpt lat="46.73264" lon="-0.41305">
        <ele>171.67</ele>
        <time>2024-06-24T21:27:27.672Z</time>
      </trkpt>
      <trkpt lat="46.73268" lon="-0.41311">
        <ele>171.52</ele>
        <time>2024-06-24T21:27:34.118Z</time>
      </trkpt>
      <trkpt lat="46.73272" lon="-0.41316">
        <ele>171.38</ele>
        <time>2024-06-24T21:27:40.565Z</time>
      </trkpt>
      <trkpt lat="46.73276" lon="-0.4132">
        <ele>171.24</ele>
        <time>2024-06-24T21:27:47.013Z</time>
      </trkpt>
      <trkpt lat="46.7328" lon="-0.41323">
        <ele>171.09</ele>
        <time>2024-06-24T21:27:53.462Z</time>
      </trkpt>
      <trkpt lat="46.73284" lon="-0.41326">
        <ele>170.95</ele>
        <time>2024-06-24T21:27:59.912Z</time>
      </trkpt>
      <trkpt lat="46.73289" lon="-0.41329">
        <ele>170.81</ele>
        <time>2024-06-24T21:28:06.363Z</time>
      </trkpt>
      <trkpt lat="46.73293" lon="-0.41333">
        <ele>170.67</ele>
        <time>2024-06-24T21:28:12.815Z</time>
      </trkpt>
      <trkpt lat="46.73298" lon="-0.41337">
        <ele>170.52</ele>
        <time>2024-06-24T21:28:19.268Z</time>
      </trkpt>
      <trkpt lat="46.73302" lon="-0.41341">
        <ele>170.38</ele>
        <time>2024-06-24T21:28:25.722Z</time>
      </trkpt>
      <trkpt lat="46.73307" lon="-0.41345">
        <ele>170.23</ele>
        <time>2024-06-24T21:28:32.177Z</time>
      </trkpt>
      <trkpt lat="46.73311" lon="-0.41348">
        <ele>170.09</ele>
        <time>2024-06-24T21:28:38.633Z</time>
      </trkpt>
      <trkpt lat="46.73315" lon="-0.41352">
        <ele>169.93</ele>
        <time>2024-06-24T21:28:45.090Z</time>
      </trkpt>
      <trkpt lat="46.7332" lon="-0.41357">
        <ele>169.77</ele>
        <time>2024-06-24T21:28:51.549Z</time>
      </trkpt>
      <trkpt lat="46.73324" lon="-0.41362">
        <ele>169.62</ele>
        <time>2024-06-24T21:28:58.009Z</time>
      </trkpt>
      <trkpt lat="46.73329" lon="-0.41367">
        <ele>169.45</ele>
        <time>2024-06-24T21:29:04.470Z</time>
      </trkpt>
      <trkpt lat="46.73333" lon="-0.41373">
        <ele>169.29</ele>
        <time>2024-06-24T21:29:10.932Z</time>
      </trkpt>
      <trkpt lat="46.73338" lon="-0.41378">
        <ele>169.13</ele>
        <time>2024-06-24T21:29:17.395Z</time>
      </trkpt>
      <trkpt lat="46.73342" lon="-0.41383">
        <ele>168.97</ele>
        <time>2024-06-24T21:29:23.859Z</time>
      </trkpt>
      <trkpt lat="46.73346" lon="-0.41388">
        <ele>168.81</ele>
        <time>2024-06-24T21:29:30.324Z</time>
      </trkpt>
      <trkpt lat="46.7335" lon="-0.41393">
        <ele>168.66</ele>
        <time>2024-06-24T21:29:36.790Z</time>
      </trkpt>
      <trkpt lat="46.73354" lon="-0.41398">
        <ele>168.5</ele>
        <time>2024-06-24T21:29:43.257Z</time>
      </trkpt>
      <trkpt lat="46.73358" lon="-0.41403">
        <ele>168.34</ele>
        <time>2024-06-24T21:29:49.725Z</time>
      </trkpt>
      <trkpt lat="46.73362" lon="-0.41409">
        <ele>168.19</ele>
        <time>2024-06-24T21:29:56.195Z</time>
      </trkpt>
      <trkpt lat="46.73367" lon="-0.41414">
        <ele>168.03</ele>
        <time>2024-06-24T21:30:02.666Z</time>
      </trkpt>
      <trkpt lat="46.73371" lon="-0.4142">
        <ele>167.87</ele>
        <time>2024-06-24T21:30:09.138Z</time>
      </trkpt>
      <trkpt lat="46.73375" lon="-0.41426">
        <ele>167.72</ele>
        <time>2024-06-24T21:30:15.611Z</time>
      </trkpt>
      <trkpt lat="46.73378" lon="-0.41431">
        <ele>167.56</ele>
        <time>2024-06-24T21:30:22.085Z</time>
      </trkpt>
      <trkpt lat="46.73382" lon="-0.41437">
        <ele>167.41</ele>
        <time>2024-06-24T21:30:28.560Z</time>
      </trkpt>
      <trkpt lat="46.73387" lon="-0.41443">
        <ele>167.27</ele>
        <time>2024-06-24T21:30:35.036Z</time>
      </trkpt>
      <trkpt lat="46.7339" lon="-0.41449">
        <ele>167.12</ele>
        <time>2024-06-24T21:30:41.513Z</time>
      </trkpt>
      <trkpt lat="46.73393" lon="-0.41456">
        <ele>166.98</ele>
        <time>2024-06-24T21:30:47.992Z</time>
      </trkpt>
      <trkpt lat="46.73396" lon="-0.41462">
        <ele>166.85</ele>
        <time>2024-06-24T21:30:54.472Z</time>
      </trkpt>
      <trkpt lat="46.73398" lon="-0.4147">
        <ele>166.7</ele>
        <time>2024-06-24T21:31:00.953Z</time>
      </trkpt>
      <trkpt lat="46.73401" lon="-0.41478">
        <ele>166.57</ele>
        <time>2024-06-24T21:31:07.435Z</time>
      </trkpt>
      <trkpt lat="46.73403" lon="-0.41486">
        <ele>166.44</ele>
        <time>2024-06-24T21:31:13.918Z</time>
      </trkpt>
      <trkpt lat="46.73405" lon="-0.41493">
        <ele>166.31</ele>
        <time>2024-06-24T21:31:20.402Z</time>
      </trkpt>
      <trkpt lat="46.73406" lon="-0.41501">
        <ele>166.19</ele>
        <time>2024-06-24T21:31:26.887Z</time>
      </trkpt>
      <trkpt lat="46.73407" lon="-0.41508">
        <ele>166.06</ele>
        <time>2024-06-24T21:31:33.373Z</time>
      </trkpt>
      <trkpt lat="46.73408" lon="-0.41515">
        <ele>165.94</ele>
        <time>2024-06-24T21:31:39.860Z</time>
      </trkpt>
      <trkpt lat="46.7341" lon="-0.41523">
        <ele>165.83</ele>
        <time>2024-06-24T21:31:46.348Z</time>
      </trkpt>
      <trkpt lat="46.73412" lon="-0.41531">
        <ele>165.72</ele>
        <time>2024-06-24T21:31:52.838Z</time>
      </trkpt>
      <trkpt lat="46.73413" lon="-0.41538">
        <ele>165.62</ele>
        <time>2024-06-24T21:31:59.329Z</time>
      </trkpt>
      <trkpt lat="46.73415" lon="-0.41545">
        <ele>165.52</ele>
        <time>2024-06-24T21:32:05.821Z</time>
      </trkpt>
      <trkpt lat="46.73416" lon="-0.41553">
        <ele>165.42</ele>
        <time>2024-06-24T21:32:12.314Z</time>
      </trkpt>
      <trkpt lat="46.73418" lon="-0.4156">
        <ele>165.33</ele>
        <time>2024-06-24T21:32:18.808Z</time>
      </trkpt>
      <trkpt lat="46.73419" lon="-0.41568">
        <ele>165.24</ele>
        <time>2024-06-24T21:32:25.303Z</time>
      </trkpt>
      <trkpt lat="46.7342" lon="-0.41576">
        <ele>165.15</ele>
        <time>2024-06-24T21:32:31.799Z</time>
      </trkpt>
      <trkpt lat="46.73422" lon="-0.41584">
        <ele>165.07</ele>
        <time>2024-06-24T21:32:38.296Z</time>
      </trkpt>
      <trkpt lat="46.73423" lon="-0.41592">
        <ele>165</ele>
        <time>2024-06-24T21:32:44.794Z</time>
      </trkpt>
      <trkpt lat="46.73424" lon="-0.41599">
        <ele>164.93</ele>
        <time>2024-06-24T21:32:51.293Z</time>
      </trkpt>
      <trkpt lat="46.73425" lon="-0.41607">
        <ele>164.87</ele>
        <time>2024-06-24T21:32:57.793Z</time>
      </trkpt>
      <trkpt lat="46.73425" lon="-0.41614">
        <ele>164.82</ele>
        <time>2024-06-24T21:33:04.294Z</time>
      </trkpt>
      <trkpt lat="46.73426" lon="-0.41621">
        <ele>164.77</ele>
        <time>2024-06-24T21:33:10.796Z</time>
      </trkpt>
      <trkpt lat="46.73427" lon="-0.41629">
        <ele>164.73</ele>
        <time>2024-06-24T21:33:17.299Z</time>
      </trkpt>
      <trkpt lat="46.73427" lon="-0.41636">
        <ele>164.69</ele>
        <time>2024-06-24T21:33:23.803Z</time>
      </trkpt>
      <trkpt lat="46.73427" lon="-0.41643">
        <ele>164.66</ele>
        <time>2024-06-24T21:33:30.308Z</time>
      </trkpt>
      <trkpt lat="46.73428" lon="-0.4165">
        <ele>164.63</ele>
        <time>2024-06-24T21:33:36.814Z</time>
      </trkpt>
      <trkpt lat="46.73428" lon="-0.41657">
        <ele>164.6</ele>
        <time>2024-06-24T21:33:43.321Z</time>
      </trkpt>
      <trkpt lat="46.73428" lon="-0.41664">
        <ele>164.59</ele>
        <time>2024-06-24T21:33:49.829Z</time>
      </trkpt>
      <trkpt lat="46.73429" lon="-0.41672">
        <ele>164.59</ele>
        <time>2024-06-24T21:33:56.338Z</time>
      </trkpt>
      <trkpt lat="46.73429" lon="-0.41679">
        <ele>164.59</ele>
        <time>2024-06-24T21:34:02.848Z</time>
      </trkpt>
      <trkpt lat="46.73429" lon="-0.41687">
        <ele>164.6</ele>
        <time>2024-06-24T21:34:09.360Z</time>
      </trkpt>
      <trkpt lat="46.73428" lon="-0.41696">
        <ele>164.62</ele>
        <time>2024-06-24T21:34:15.873Z</time>
      </trkpt>
      <trkpt lat="46.73428" lon="-0.41705">
        <ele>164.64</ele>
        <time>2024-06-24T21:34:22.387Z</time>
      </trkpt>
      <trkpt lat="46.73427" lon="-0.41714">
        <ele>164.67</ele>
        <time>2024-06-24T21:34:28.902Z</time>
      </trkpt>
      <trkpt lat="46.73426" lon="-0.41723">
        <ele>164.71</ele>
        <time>2024-06-24T21:34:35.418Z</time>
      </trkpt>
      <trkpt lat="46.73424" lon="-0.4173">
        <ele>164.74</ele>
        <time>2024-06-24T21:34:41.936Z</time>
      </trkpt>
      <trkpt lat="46.73422" lon="-0.41738">
        <ele>164.78</ele>
        <time>2024-06-24T21:34:48.455Z</time>
      </trkpt>
      <trkpt lat="46.73419" lon="-0.41746">
        <ele>164.82</ele>
        <time>2024-06-24T21:34:54.975Z</time>
      </trkpt>
      <trkpt lat="46.73416" lon="-0.41754">
        <ele>164.86</ele>
        <time>2024-06-24T21:35:01.496Z</time>
      </trkpt>
      <trkpt lat="46.73414" lon="-0.41761">
        <ele>164.91</ele>
        <time>2024-06-24T21:35:08.018Z</time>
      </trkpt>
      <trkpt lat="46.73413" lon="-0.41769">
        <ele>164.97</ele>
        <time>2024-06-24T21:35:14.541Z</time>
      </trkpt>
      <trkpt lat="46.73412" lon="-0.41777">
        <ele>165.03</ele>
        <time>2024-06-24T21:35:21.065Z</time>
      </trkpt>
      <trkpt lat="46.73412" lon="-0.41785">
        <ele>165.09</ele>
        <time>2024-06-24T21:35:27.591Z</time>
      </trkpt>
      <trkpt lat="46.73413" lon="-0.41792">
        <ele>165.16</ele>
        <time>2024-06-24T21:35:34.118Z</time>
      </trkpt>
      <trkpt lat="46.73413" lon="-0.418">
        <ele>165.23</ele>
        <time>2024-06-24T21:35:40.646Z</time>
      </trkpt>
      <trkpt lat="46.73414" lon="-0.41807">
        <ele>165.3</ele>
        <time>2024-06-24T21:35:47.175Z</time>
      </trkpt>
      <trkpt lat="46.73416" lon="-0.41812">
        <ele>165.38</ele>
        <time>2024-06-24T21:35:53.704Z</time>
      </trkpt>
      <trkpt lat="46.73418" lon="-0.41818">
        <ele>165.47</ele>
        <time>2024-06-24T21:36:00.234Z</time>
      </trkpt>
      <trkpt lat="46.7342" lon="-0.41824">
        <ele>165.56</ele>
        <time>2024-06-24T21:36:06.765Z</time>
      </trkpt>
      <trkpt lat="46.73421" lon="-0.4183">
        <ele>165.65</ele>
        <time>2024-06-24T21:36:13.297Z</time>
      </trkpt>
      <trkpt lat="46.73421" lon="-0.41837">
        <ele>165.74</ele>
        <time>2024-06-24T21:36:19.830Z</time>
      </trkpt>
      <trkpt lat="46.73422" lon="-0.41844">
        <ele>165.84</ele>
        <time>2024-06-24T21:36:26.364Z</time>
      </trkpt>
      <trkpt lat="46.73423" lon="-0.4185">
        <ele>165.93</ele>
        <time>2024-06-24T21:36:32.899Z</time>
      </trkpt>
      <trkpt lat="46.73423" lon="-0.41856">
        <ele>166.03</ele>
        <time>2024-06-24T21:36:39.435Z</time>
      </trkpt>
      <trkpt lat="46.73424" lon="-0.41861">
        <ele>166.14</ele>
        <time>2024-06-24T21:36:45.971Z</time>
      </trkpt>
      <trkpt lat="46.73425" lon="-0.41867">
        <ele>166.24</ele>
        <time>2024-06-24T21:36:52.508Z</time>
      </trkpt>
      <trkpt lat="46.73426" lon="-0.41873">
        <ele>166.35</ele>
        <time>2024-06-24T21:36:59.046Z</time>
      </trkpt>
      <trkpt lat="46.73428" lon="-0.41879">
        <ele>166.47</ele>
        <time>2024-06-24T21:37:05.585Z</time>
      </trkpt>
      <trkpt lat="46.73428" lon="-0.41885">
        <ele>166.58</ele>
        <time>2024-06-24T21:37:12.125Z</time>
      </trkpt>
      <trkpt lat="46.73429" lon="-0.4189">
        <ele>166.7</ele>
        <time>2024-06-24T21:37:18.666Z</time>
      </trkpt>
      <trkpt lat="46.7343" lon="-0.41896">
        <ele>166.83</ele>
        <time>2024-06-24T21:37:25.207Z</time>
      </trkpt>
      <trkpt lat="46.7343" lon="-0.41901">
        <ele>166.95</ele>
        <time>2024-06-24T21:37:31.749Z</time>
      </trkpt>
      <trkpt lat="46.73431" lon="-0.41905">
        <ele>167.07</ele>
        <time>2024-06-24T21:37:38.292Z</time>
      </trkpt>
      <trkpt lat="46.73432" lon="-0.41911">
        <ele>167.19</ele>
        <time>2024-06-24T21:37:44.835Z</time>
      </trkpt>
      <trkpt lat="46.73433" lon="-0.41916">
        <ele>167.31</ele>
        <time>2024-06-24T21:37:51.379Z</time>
      </trkpt>
      <trkpt lat="46.73434" lon="-0.41921">
        <ele>167.42</ele>
        <time>2024-06-24T21:37:57.924Z</time>
      </trkpt>
      <trkpt lat="46.73434" lon="-0.41926">
        <ele>167.53</ele>
        <time>2024-06-24T21:38:04.470Z</time>
      </trkpt>
      <trkpt lat="46.73435" lon="-0.4193">
        <ele>167.64</ele>
        <time>2024-06-24T21:38:11.016Z</time>
      </trkpt>
      <trkpt lat="46.73435" lon="-0.41934">
        <ele>167.75</ele>
        <time>2024-06-24T21:38:17.563Z</time>
      </trkpt>
      <trkpt lat="46.73436" lon="-0.41939">
        <ele>167.86</ele>
        <time>2024-06-24T21:38:24.110Z</time>
      </trkpt>
      <trkpt lat="46.73436" lon="-0.41943">
        <ele>167.97</ele>
        <time>2024-06-24T21:38:30.658Z</time>
      </trkpt>
      <trkpt lat="46.73437" lon="-0.41948">
        <ele>168.07</ele>
        <time>2024-06-24T21:38:37.207Z</time>
      </trkpt>
      <trkpt lat="46.73438" lon="-0.41952">
        <ele>168.17</ele>
        <time>2024-06-24T21:38:43.756Z</time>
      </trkpt>
      <trkpt lat="46.73439" lon="-0.41955">
        <ele>168.27</ele>
        <time>2024-06-24T21:38:50.306Z</time>
      </trkpt>
      <trkpt lat="46.7344" lon="-0.41959">
        <ele>168.36</ele>
        <time>2024-06-24T21:38:56.856Z</time>
      </trkpt>
      <trkpt lat="46.7344" lon="-0.41963">
        <ele>168.44</ele>
        <time>2024-06-24T21:39:03.407Z</time>
      </trkpt>
      <trkpt lat="46.73441" lon="-0.41967">
        <ele>168.52</ele>
        <time>2024-06-24T21:39:09.958Z</time>
      </trkpt>
      <trkpt lat="46.73441" lon="-0.41971">
        <ele>168.59</ele>
        <time>2024-06-24T21:39:16.510Z</time>
      </trkpt>
      <trkpt lat="46.73442" lon="-0.41975">
        <ele>168.65</ele>
        <time>2024-06-24T21:39:23.063Z</time>
      </trkpt>
      <trkpt lat="46.73443" lon="-0.41979">
        <ele>168.71</ele>
        <time>2024-06-24T21:39:29.616Z</time>
      </trkpt>
      <trkpt lat="46.73444" lon="-0.41982">
        <ele>168.76</ele>
        <time>2024-06-24T21:39:36.170Z</time>
      </trkpt>
      <trkpt lat="46.73445" lon="-0.41986">
        <ele>168.8</ele>
        <time>2024-06-24T21:39:42.724Z</time>
      </trkpt>
      <trkpt lat="46.73446" lon="-0.41989">
        <ele>168.83</ele>
        <time>2024-06-24T21:39:49.279Z</time>
      </trkpt>
      <trkpt lat="46.73448" lon="-0.41994">
        <ele>168.86</ele>
        <time>2024-06-24T21:39:55.834Z</time>
      </trkpt>
      <trkpt lat="46.73449" lon="-0.41998">
        <ele>168.88</ele>
        <time>2024-06-24T21:40:02.390Z</time>
      </trkpt>
      <trkpt lat="46.73451" lon="-0.42001">
        <ele>168.89</ele>
        <time>2024-06-24T21:40:08.947Z</time>
      </trkpt>
      <trkpt lat="46.73453" lon="-0.42005">
        <ele>168.89</ele>
        <time>2024-06-24T21:40:15.504Z</time>
      </trkpt>
      <trkpt lat="46.73456" lon="-0.42008">
        <ele>168.88</ele>
        <time>2024-06-24T21:40:22.062Z</time>
      </trkpt>
      <trkpt lat="46.73458" lon="-0.42011">
        <ele>168.87</ele>
        <time>2024-06-24T21:40:28.621Z</time>
      </trkpt>
      <trkpt lat="46.73461" lon="-0.42015">
        <ele>168.85</ele>
        <time>2024-06-24T21:40:35.180Z</time>
      </trkpt>
      <trkpt lat="46.73464" lon="-0.42019">
        <ele>168.81</ele>
        <time>2024-06-24T21:40:41.740Z</time>
      </trkpt>
      <trkpt lat="46.73466" lon="-0.42024">
        <ele>168.77</ele>
        <time>2024-06-24T21:40:48.301Z</time>
      </trkpt>
      <trkpt lat="46.73469" lon="-0.42029">
        <ele>168.72</ele>
        <time>2024-06-24T21:40:54.863Z</time>
      </trkpt>
      <trkpt lat="46.73471" lon="-0.42034">
        <ele>168.66</ele>
        <time>2024-06-24T21:41:01.426Z</time>
      </trkpt>
      <trkpt lat="46.73473" lon="-0.4204">
        <ele>168.59</ele>
        <time>2024-06-24T21:41:07.989Z</time>
      </trkpt>
      <trkpt lat="46.73474" lon="-0.42046">
        <ele>168.52</ele>
        <time>2024-06-24T21:41:14.553Z</time>
      </trkpt>
      <trkpt lat="46.73476" lon="-0.42052">
        <ele>168.44</ele>
        <time>2024-06-24T21:41:21.118Z</time>
      </trkpt>
      <trkpt lat="46.73477" lon="-0.42059">
        <ele>168.35</ele>
        <time>2024-06-24T21:41:27.684Z</time>
      </trkpt>
      <trkpt lat="46.73477" lon="-0.42066">
        <ele>168.26</ele>
        <time>2024-06-24T21:41:34.251Z</time>
      </trkpt>
      <trkpt lat="46.73477" lon="-0.42074">
        <ele>168.17</ele>
        <time>2024-06-24T21:41:40.819Z</time>
      </trkpt>
      <trkpt lat="46.73477" lon="-0.42083">
        <ele>168.06</ele>
        <time>2024-06-24T21:41:47.389Z</time>
      </trkpt>
      <trkpt lat="46.73476" lon="-0.42092">
        <ele>167.95</ele>
        <time>2024-06-24T21:41:53.960Z</time>
      </trkpt>
      <trkpt lat="46.73476" lon="-0.42102">
        <ele>167.84</ele>
        <time>2024-06-24T21:42:00.532Z</time>
      </trkpt>
      <trkpt lat="46.73474" lon="-0.42113">
        <ele>167.72</ele>
        <time>2024-06-24T21:42:07.106Z</time>
      </trkpt>
      <trkpt lat="46.73473" lon="-0.42125">
        <ele>167.6</ele>
        <time>2024-06-24T21:42:13.681Z</time>
      </trkpt>
      <trkpt lat="46.73471" lon="-0.42136">
        <ele>167.48</ele>
        <time>2024-06-24T21:42:20.258Z</time>
      </trkpt>
      <trkpt lat="46.7347" lon="-0.42147">
        <ele>167.36</ele>
        <time>2024-06-24T21:42:26.837Z</time>
      </trkpt>
      <trkpt lat="46.73468" lon="-0.4216">
        <ele>167.23</ele>
        <time>2024-06-24T21:42:33.417Z</time>
      </trkpt>
      <trkpt lat="46.73467" lon="-0.42171">
        <ele>167.11</ele>
        <time>2024-06-24T21:42:39.999Z</time>
      </trkpt>
      <trkpt lat="46.73465" lon="-0.42184">
        <ele>166.99</ele>
        <time>2024-06-24T21:42:46.583Z</time>
      </trkpt>
      <trkpt lat="46.73463" lon="-0.42196">
        <ele>166.87</ele>
        <time>2024-06-24T21:42:53.168Z</time>
      </trkpt>
      <trkpt lat="46.73461" lon="-0.42208">
        <ele>166.75</ele>
        <time>2024-06-24T21:42:59.755Z</time>
      </trkpt>
      <trkpt lat="46.7346" lon="-0.42221">
        <ele>166.65</ele>
        <time>2024-06-24T21:43:06.344Z</time>
      </trkpt>
      <trkpt lat="46.73458" lon="-0.42234">
        <ele>166.55</ele>
        <time>2024-06-24T21:43:12.935Z</time>
      </trkpt>
      <trkpt lat="46.73456" lon="-0.42246">
        <ele>166.44</ele>
        <time>2024-06-24T21:43:19.527Z</time>
      </trkpt>
      <trkpt lat="46.73455" lon="-0.42258">
        <ele>166.35</ele>
        <time>2024-06-24T21:43:26.121Z</time>
      </trkpt>
      <trkpt lat="46.73454" lon="-0.42269">
        <ele>166.25</ele>
        <time>2024-06-24T21:43:32.717Z</time>
      </trkpt>
      <trkpt lat="46.73453" lon="-0.4228">
        <ele>166.17</ele>
        <time>2024-06-24T21:43:39.314Z</time>
      </trkpt>
      <trkpt lat="46.73451" lon="-0.4229">
        <ele>166.1</ele>
        <time>2024-06-24T21:43:45.913Z</time>
      </trkpt>
      <trkpt lat="46.7345" lon="-0.423">
        <ele>166.03</ele>
        <time>2024-06-24T21:43:52.513Z</time>
      </trkpt>
      <trkpt lat="46.7345" lon="-0.4231">
        <ele>165.97</ele>
        <time>2024-06-24T21:43:59.114Z</time>
      </trkpt>
      <trkpt lat="46.73449" lon="-0.42319">
        <ele>165.93</ele>
        <time>2024-06-24T21:44:05.717Z</time>
      </trkpt>
      <trkpt lat="46.73449" lon="-0.42328">
        <ele>165.89</ele>
        <time>2024-06-24T21:44:12.321Z</time>
      </trkpt>
      <trkpt lat="46.73448" lon="-0.42338">
        <ele>165.85</ele>
        <time>2024-06-24T21:44:18.926Z</time>
      </trkpt>
      <trkpt lat="46.73448" lon="-0.42347">
        <ele>165.82</ele>
        <time>2024-06-24T21:44:25.532Z</time>
      </trkpt>
      <trkpt lat="46.73449" lon="-0.42355">
        <ele>165.8</ele>
        <time>2024-06-24T21:44:32.140Z</time>
      </trkpt>
      <trkpt lat="46.7345" lon="-0.42364">
        <ele>165.79</ele>
        <time>2024-06-24T21:44:38.749Z</time>
      </trkpt>
      <trkpt lat="46.73451" lon="-0.42372">
        <ele>165.79</ele>
        <time>2024-06-24T21:44:45.359Z</time>
      </trkpt>
      <trkpt lat="46.73453" lon="-0.4238">
        <ele>165.8</ele>
        <time>2024-06-24T21:44:51.970Z</time>
      </trkpt>
      <trkpt lat="46.73455" lon="-0.42388">
        <ele>165.81</ele>
        <time>2024-06-24T21:44:58.582Z</time>
      </trkpt>
      <trkpt lat="46.73457" lon="-0.42396">
        <ele>165.81</ele>
        <time>2024-06-24T21:45:05.195Z</time>
      </trkpt>
      <trkpt lat="46.73459" lon="-0.42403">
        <ele>165.83</ele>
        <time>2024-06-24T21:45:11.809Z</time>
      </trkpt>
      <trkpt lat="46.73461" lon="-0.42409">
        <ele>165.85</ele>
        <time>2024-06-24T21:45:18.424Z</time>
      </trkpt>
      <trkpt lat="46.73463" lon="-0.42415">
        <ele>165.88</ele>
        <time>2024-06-24T21:45:25.040Z</time>
      </trkpt>
      <trkpt lat="46.73465" lon="-0.42421">
        <ele>165.92</ele>
        <time>2024-06-24T21:45:31.657Z</time>
      </trkpt>
      <trkpt lat="46.73468" lon="-0.42428">
        <ele>165.97</ele>
        <time>2024-06-24T21:45:38.275Z</time>
      </trkpt>
      <trkpt lat="46.73469" lon="-0.42434">
        <ele>166.02</ele>
        <time>2024-06-24T21:45:44.894Z</time>
      </trkpt>
      <trkpt lat="46.73471" lon="-0.42441">
        <ele>166.07</ele>
        <time>2024-06-24T21:45:51.514Z</time>
      </trkpt>
      <trkpt lat="46.73471" lon="-0.42448">
        <ele>166.14</ele>
        <time>2024-06-24T21:45:58.135Z</time>
      </trkpt>
      <trkpt lat="46.7347" lon="-0.42454">
        <ele>166.22</ele>
        <time>2024-06-24T21:46:04.757Z</time>
      </trkpt>
      <trkpt lat="46.73468" lon="-0.4246">
        <ele>166.3</ele>
        <time>2024-06-24T21:46:11.380Z</time>
      </trkpt>
      <trkpt lat="46.73466" lon="-0.42466">
        <ele>166.4</ele>
        <time>2024-06-24T21:46:18.004Z</time>
      </trkpt>
      <trkpt lat="46.73463" lon="-0.42471">
        <ele>166.5</ele>
        <time>2024-06-24T21:46:24.629Z</time>
      </trkpt>
      <trkpt lat="46.7346" lon="-0.42477">
        <ele>166.61</ele>
        <time>2024-06-24T21:46:31.255Z</time>
      </trkpt>
      <trkpt lat="46.73456" lon="-0.42482">
        <ele>166.72</ele>
        <time>2024-06-24T21:46:37.882Z</time>
      </trkpt>
      <trkpt lat="46.73453" lon="-0.42486">
        <ele>166.84</ele>
        <time>2024-06-24T21:46:44.510Z</time>
      </trkpt>
      <trkpt lat="46.73449" lon="-0.4249">
        <ele>166.96</ele>
        <time>2024-06-24T21:46:51.139Z</time>
      </trkpt>
      <trkpt lat="46.73446" lon="-0.42495">
        <ele>167.09</ele>
        <time>2024-06-24T21:46:57.768Z</time>
      </trkpt>
      <trkpt lat="46.73442" lon="-0.425">
        <ele>167.22</ele>
        <time>2024-06-24T21:47:04.398Z</time>
      </trkpt>
      <trkpt lat="46.73439" lon="-0.42504">
        <ele>167.36</ele>
        <time>2024-06-24T21:47:11.029Z</time>
      </trkpt>
      <trkpt lat="46.73436" lon="-0.42509">
        <ele>167.5</ele>
        <time>2024-06-24T21:47:17.661Z</time>
      </trkpt>
      <trkpt lat="46.73433" lon="-0.42513">
        <ele>167.65</ele>
        <time>2024-06-24T21:47:24.294Z</time>
      </trkpt>
      <trkpt lat="46.7343" lon="-0.42518">
        <ele>167.8</ele>
        <time>2024-06-24T21:47:30.928Z</time>
      </trkpt>
      <trkpt lat="46.73427" lon="-0.42521">
        <ele>167.95</ele>
        <time>2024-06-24T21:47:37.563Z</time>
      </trkpt>
      <trkpt lat="46.73424" lon="-0.42525">
        <ele>168.11</ele>
        <time>2024-06-24T21:47:44.199Z</time>
      </trkpt>
      <trkpt lat="46.73421" lon="-0.42529">
        <ele>168.27</ele>
        <time>2024-06-24T21:47:50.835Z</time>
      </trkpt>
      <trkpt lat="46.73417" lon="-0.42534">
        <ele>168.44</ele>
        <time>2024-06-24T21:47:57.472Z</time>
      </trkpt>
      <trkpt lat="46.73414" lon="-0.42538">
        <ele>168.6</ele>
        <time>2024-06-24T21:48:04.110Z</time>
      </trkpt>
      <trkpt lat="46.73411" lon="-0.42542">
        <ele>168.77</ele>
        <time>2024-06-24T21:48:10.749Z</time>
      </trkpt>
      <trkpt lat="46.73407" lon="-0.42547">
        <ele>168.94</ele>
        <time>2024-06-24T21:48:17.389Z</time>
      </trkpt>
      <trkpt lat="46.73405" lon="-0.42549">
        <ele>169.11</ele>
        <time>2024-06-24T21:48:24.030Z</time>
      </trkpt>
      <trkpt lat="46.73401" lon="-0.42553">
        <ele>169.29</ele>
        <time>2024-06-24T21:48:30.671Z</time>
      </trkpt>
      <trkpt lat="46.73398" lon="-0.42556">
        <ele>169.47</ele>
        <time>2024-06-24T21:48:37.313Z</time>
      </trkpt>
      <trkpt lat="46.73393" lon="-0.42559">
        <ele>169.65</ele>
        <time>2024-06-24T21:48:43.956Z</time>
      </trkpt>
      <trkpt lat="46.73389" lon="-0.42562">
        <ele>169.84</ele>
        <time>2024-06-24T21:48:50.600Z</time>
      </trkpt>
      <trkpt lat="46.73385" lon="-0.42564">
        <ele>170.03</ele>
        <time>2024-06-24T21:48:57.245Z</time>
      </trkpt>
      <trkpt lat="46.73382" lon="-0.42566">
        <ele>170.21</ele>
        <time>2024-06-24T21:49:03.891Z</time>
      </trkpt>
      <trkpt lat="46.73379" lon="-0.42568">
        <ele>170.4</ele>
        <time>2024-06-24T21:49:10.538Z</time>
      </trkpt>
      <trkpt lat="46.73375" lon="-0.42571">
        <ele>170.59</ele>
        <time>2024-06-24T21:49:17.185Z</time>
      </trkpt>
      <trkpt lat="46.73372" lon="-0.42573">
        <ele>170.77</ele>
        <time>2024-06-24T21:49:23.833Z</time>
      </trkpt>
      <trkpt lat="46.73369" lon="-0.42575">
        <ele>170.96</ele>
        <time>2024-06-24T21:49:30.482Z</time>
      </trkpt>
      <trkpt lat="46.73366" lon="-0.42577">
        <ele>171.14</ele>
        <time>2024-06-24T21:49:37.131Z</time>
      </trkpt>
      <trkpt lat="46.73363" lon="-0.42578">
        <ele>171.32</ele>
        <time>2024-06-24T21:49:43.781Z</time>
      </trkpt>
      <trkpt lat="46.73359" lon="-0.42579">
        <ele>171.5</ele>
        <time>2024-06-24T21:49:50.432Z</time>
      </trkpt>
      <trkpt lat="46.73356" lon="-0.4258">
        <ele>171.68</ele>
        <time>2024-06-24T21:49:57.083Z</time>
      </trkpt>
      <trkpt lat="46.73353" lon="-0.42581">
        <ele>171.85</ele>
        <time>2024-06-24T21:50:03.735Z</time>
      </trkpt>
      <trkpt lat="46.7335" lon="-0.42583">
        <ele>172.02</ele>
        <time>2024-06-24T21:50:10.388Z</time>
      </trkpt>
      <trkpt lat="46.73347" lon="-0.42584">
        <ele>172.2</ele>
        <time>2024-06-24T21:50:17.041Z</time>
      </trkpt>
      <trkpt lat="46.73344" lon="-0.42586">
        <ele>172.36</ele>
        <time>2024-06-24T21:50:23.695Z</time>
      </trkpt>
      <trkpt lat="46.7334" lon="-0.42588">
        <ele>172.53</ele>
        <time>2024-06-24T21:50:30.350Z</time>
      </trkpt>
      <trkpt lat="46.73337" lon="-0.42588">
        <ele>172.68</ele>
        <time>2024-06-24T21:50:37.005Z</time>
      </trkpt>
      <trkpt lat="46.73334" lon="-0.42589">
        <ele>172.84</ele>
        <time>2024-06-24T21:50:43.661Z</time>
      </trkpt>
      <trkpt lat="46.7333" lon="-0.4259">
        <ele>172.99</ele>
        <time>2024-06-24T21:50:50.318Z</time>
      </trkpt>
      <trkpt lat="46.73326" lon="-0.42591">
        <ele>173.13</ele>
        <time>2024-06-24T21:50:56.975Z</time>
      </trkpt>
      <trkpt lat="46.73323" lon="-0.42592">
        <ele>173.27</ele>
        <time>2024-06-24T21:51:03.633Z</time>
      </trkpt>
      <trkpt lat="46.73319" lon="-0.42593">
        <ele>173.41</ele>
        <time>2024-06-24T21:51:10.292Z</time>
      </trkpt>
      <trkpt lat="46.73314" lon="-0.42594">
        <ele>173.54</ele>
        <time>2024-06-24T21:51:16.952Z</time>
      </trkpt>
      <trkpt lat="46.73309" lon="-0.42596">
        <ele>173.67</ele>
        <time>2024-06-24T21:51:23.613Z</time>
      </trkpt>
      <trkpt lat="46.73304" lon="-0.42597">
        <ele>173.8</ele>
        <time>2024-06-24T21:51:30.275Z</time>
      </trkpt>
      <trkpt lat="46.73298" lon="-0.42598">
        <ele>173.91</ele>
        <time>2024-06-24T21:51:36.938Z</time>
      </trkpt>
      <trkpt lat="46.73292" lon="-0.426">
        <ele>174.03</ele>
        <time>2024-06-24T21:51:43.602Z</time>
      </trkpt>
      <trkpt lat="46.73286" lon="-0.42603">
        <ele>174.14</ele>
        <time>2024-06-24T21:51:50.268Z</time>
      </trkpt>
      <trkpt lat="46.7328" lon="-0.42605">
        <ele>174.24</ele>
        <time>2024-06-24T21:51:56.935Z</time>
      </trkpt>
      <trkpt lat="46.73274" lon="-0.42609">
        <ele>174.35</ele>
        <time>2024-06-24T21:52:03.603Z</time>
      </trkpt>
      <trkpt lat="46.73268" lon="-0.42613">
        <ele>174.45</ele>
        <time>2024-06-24T21:52:10.273Z</time>
      </trkpt>
      <trkpt lat="46.73262" lon="-0.42618">
        <ele>174.54</ele>
        <time>2024-06-24T21:52:16.944Z</time>
      </trkpt>
      <trkpt lat="46.73256" lon="-0.42623">
        <ele>174.63</ele>
        <time>2024-06-24T21:52:23.616Z</time>
      </trkpt>
      <trkpt lat="46.7325" lon="-0.42629">
        <ele>174.71</ele>
        <time>2024-06-24T21:52:30.290Z</time>
      </trkpt>
      <trkpt lat="46.73244" lon="-0.42635">
        <ele>174.78</ele>
        <time>2024-06-24T21:52:36.965Z</time>
      </trkpt>
      <trkpt lat="46.73238" lon="-0.4264">
        <ele>174.84</ele>
        <time>2024-06-24T21:52:43.642Z</time>
      </trkpt>
      <trkpt lat="46.73232" lon="-0.42645">
        <ele>174.9</ele>
        <time>2024-06-24T21:52:50.320Z</time>
      </trkpt>
      <trkpt lat="46.73227" lon="-0.42649">
        <ele>174.94</ele>
        <time>2024-06-24T21:52:56.999Z</time>
      </trkpt>
      <trkpt lat="46.73223" lon="-0.42653">
        <ele>174.99</ele>
        <time>2024-06-24T21:53:03.679Z</time>
      </trkpt>
      <trkpt lat="46.73218" lon="-0.42658">
        <ele>175.02</ele>
        <time>2024-06-24T21:53:10.360Z</time>
      </trkpt>
      <trkpt lat="46.73212" lon="-0.42662">
        <ele>175.05</ele>
        <time>2024-06-24T21:53:17.043Z</time>
      </trkpt>
      <trkpt lat="46.73207" lon="-0.42667">
        <ele>175.07</ele>
        <time>2024-06-24T21:53:23.727Z</time>
      </trkpt>
      <trkpt lat="46.73202" lon="-0.42671">
        <ele>175.09</ele>
        <time>2024-06-24T21:53:30.412Z</time>
      </trkpt>
      <trkpt lat="46.73197" lon="-0.42676">
        <ele>175.12</ele>
        <time>2024-06-24T21:53:37.098Z</time>
      </trkpt>
      <trkpt lat="46.73193" lon="-0.42681">
        <ele>175.14</ele>
        <time>2024-06-24T21:53:43.785Z</time>
      </trkpt>
      <trkpt lat="46.73189" lon="-0.42686">
        <ele>175.15</ele>
        <time>2024-06-24T21:53:50.473Z</time>
      </trkpt>
      <trkpt lat="46.73186" lon="-0.42692">
        <ele>175.17</ele>
        <time>2024-06-24T21:53:57.162Z</time>
      </trkpt>
      <trkpt lat="46.73182" lon="-0.42698">
        <ele>175.18</ele>
        <time>2024-06-24T21:54:03.852Z</time>
      </trkpt>
      <trkpt lat="46.73179" lon="-0.42703">
        <ele>175.19</ele>
        <time>2024-06-24T21:54:10.543Z</time>
      </trkpt>
      <trkpt lat="46.73175" lon="-0.42709">
        <ele>175.19</ele>
        <time>2024-06-24T21:54:17.236Z</time>
      </trkpt>
      <trkpt lat="46.73171" lon="-0.42714">
        <ele>175.2</ele>
        <time>2024-06-24T21:54:23.930Z</time>
      </trkpt>
      <trkpt lat="46.73167" lon="-0.42719">
        <ele>175.19</ele>
        <time>2024-06-24T21:54:30.625Z</time>
      </trkpt>
      <trkpt lat="46.73163" lon="-0.42723">
        <ele>175.19</ele>
        <time>2024-06-24T21:54:37.321Z</time>
      </trkpt>
      <trkpt lat="46.7316" lon="-0.42728">
        <ele>175.18</ele>
        <time>2024-06-24T21:54:44.018Z</time>
      </trkpt>
      <trkpt lat="46.73155" lon="-0.42732">
        <ele>175.16</ele>
        <time>2024-06-24T21:54:50.716Z</time>
      </trkpt>
      <trkpt lat="46.73151" lon="-0.42736">
        <ele>175.14</ele>
        <time>2024-06-24T21:54:57.415Z</time>
      </trkpt>
      <trkpt lat="46.73147" lon="-0.4274">
        <ele>175.13</ele>
        <time>2024-06-24T21:55:04.115Z</time>
      </trkpt>
      <trkpt lat="46.73143" lon="-0.42744">
        <ele>175.1</ele>
        <time>2024-06-24T21:55:10.815Z</time>
      </trkpt>
      <trkpt lat="46.7314" lon="-0.42747">
        <ele>175.08</ele>
        <time>2024-06-24T21:55:17.516Z</time>
      </trkpt>
      <trkpt lat="46.73136" lon="-0.42751">
        <ele>175.05</ele>
        <time>2024-06-24T21:55:24.218Z</time>
      </trkpt>
      <trkpt lat="46.73132" lon="-0.42754">
        <ele>175.03</ele>
        <time>2024-06-24T21:55:30.921Z</time>
      </trkpt>
      <trkpt lat="46.73127" lon="-0.42758">
        <ele>175</ele>
        <time>2024-06-24T21:55:37.625Z</time>
      </trkpt>
      <trkpt lat="46.73123" lon="-0.42762">
        <ele>174.97</ele>
        <time>2024-06-24T21:55:44.330Z</time>
      </trkpt>
      <trkpt lat="46.73118" lon="-0.42765">
        <ele>174.94</ele>
        <time>2024-06-24T21:55:51.036Z</time>
      </trkpt>
      <trkpt lat="46.73114" lon="-0.42769">
        <ele>174.91</ele>
        <time>2024-06-24T21:55:57.743Z</time>
      </trkpt>
      <trkpt lat="46.7311" lon="-0.42773">
        <ele>174.88</ele>
        <time>2024-06-24T21:56:04.451Z</time>
      </trkpt>
      <trkpt lat="46.73105" lon="-0.42776">
        <ele>174.85</ele>
        <time>2024-06-24T21:56:11.160Z</time>
      </trkpt>
      <trkpt lat="46.73101" lon="-0.4278">
        <ele>174.81</ele>
        <time>2024-06-24T21:56:17.870Z</time>
      </trkpt>
      <trkpt lat="46.73096" lon="-0.42785">
        <ele>174.78</ele>
        <time>2024-06-24T21:56:24.581Z</time>
      </trkpt>
      <trkpt lat="46.73088" lon="-0.42793">
        <ele>174.75</ele>
        <time>2024-06-24T21:56:31.294Z</time>
      </trkpt>
      <trkpt lat="46.73084" lon="-0.42797">
        <ele>174.72</ele>
        <time>2024-06-24T21:56:38.008Z</time>
      </trkpt>
      <trkpt lat="46.7308" lon="-0.42801">
        <ele>174.69</ele>
        <time>2024-06-24T21:56:44.723Z</time>
      </trkpt>
      <trkpt lat="46.73076" lon="-0.42805">
        <ele>174.66</ele>
        <time>2024-06-24T21:56:51.439Z</time>
      </trkpt>
      <trkpt lat="46.73071" lon="-0.42809">
        <ele>174.64</ele>
        <time>2024-06-24T21:56:58.157Z</time>
      </trkpt>
      <trkpt lat="46.73067" lon="-0.42814">
        <ele>174.61</ele>
        <time>2024-06-24T21:57:04.876Z</time>
      </trkpt>
      <trkpt lat="46.73063" lon="-0.42819">
        <ele>174.59</ele>
        <time>2024-06-24T21:57:11.596Z</time>
      </trkpt>
      <trkpt lat="46.73058" lon="-0.42823">
        <ele>174.56</ele>
        <time>2024-06-24T21:57:18.317Z</time>
      </trkpt>
      <trkpt lat="46.73053" lon="-0.42827">
        <ele>174.54</ele>
        <time>2024-06-24T21:57:25.039Z</time>
      </trkpt>
      <trkpt lat="46.73049" lon="-0.42832">
        <ele>174.52</ele>
        <time>2024-06-24T21:57:31.762Z</time>
      </trkpt>
      <trkpt lat="46.73044" lon="-0.42838">
        <ele>174.5</ele>
        <time>2024-06-24T21:57:38.486Z</time>
      </trkpt>
      <trkpt lat="46.7304" lon="-0.42844">
        <ele>174.48</ele>
        <time>2024-06-24T21:57:45.211Z</time>
      </trkpt>
      <trkpt lat="46.73037" lon="-0.4285">
        <ele>174.47</ele>
        <time>2024-06-24T21:57:51.938Z</time>
      </trkpt>
      <trkpt lat="46.73035" lon="-0.42857">
        <ele>174.46</ele>
        <time>2024-06-24T21:57:58.666Z</time>
      </trkpt>
      <trkpt lat="46.73034" lon="-0.42864">
        <ele>174.46</ele>
        <time>2024-06-24T21:58:05.394Z</time>
      </trkpt>
      <trkpt lat="46.73033" lon="-0.42872">
        <ele>174.46</ele>
        <time>2024-06-24T21:58:12.124Z</time>
      </trkpt>
      <trkpt lat="46.73032" lon="-0.42879">
        <ele>174.47</ele>
        <time>2024-06-24T21:58:18.855Z</time>
      </trkpt>
      <trkpt lat="46.73032" lon="-0.42886">
        <ele>174.48</ele>
        <time>2024-06-24T21:58:25.587Z</time>
      </trkpt>
      <trkpt lat="46.73031" lon="-0.42894">
        <ele>174.49</ele>
        <time>2024-06-24T21:58:32.320Z</time>
      </trkpt>
      <trkpt lat="46.73031" lon="-0.42902">
        <ele>174.51</ele>
        <time>2024-06-24T21:58:39.054Z</time>
      </trkpt>
      <trkpt lat="46.7303" lon="-0.42909">
        <ele>174.52</ele>
        <time>2024-06-24T21:58:45.789Z</time>
      </trkpt>
      <trkpt lat="46.73029" lon="-0.42917">
        <ele>174.54</ele>
        <time>2024-06-24T21:58:52.525Z</time>
      </trkpt>
      <trkpt lat="46.73028" lon="-0.42925">
        <ele>174.57</ele>
        <time>2024-06-24T21:58:59.262Z</time>
      </trkpt>
      <trkpt lat="46.73027" lon="-0.42933">
        <ele>174.6</ele>
        <time>2024-06-24T21:59:06.000Z</time>
      </trkpt>
      <trkpt lat="46.73026" lon="-0.42941">
        <ele>174.63</ele>
        <time>2024-06-24T21:59:12.739Z</time>
      </trkpt>
      <trkpt lat="46.73025" lon="-0.4295">
        <ele>174.65</ele>
        <time>2024-06-24T21:59:19.480Z</time>
      </trkpt>
      <trkpt lat="46.73024" lon="-0.42959">
        <ele>174.69</ele>
        <time>2024-06-24T21:59:26.222Z</time>
      </trkpt>
      <trkpt lat="46.73023" lon="-0.42967">
        <ele>174.73</ele>
        <time>2024-06-24T21:59:32.965Z</time>
      </trkpt>
      <trkpt lat="46.73023" lon="-0.42976">
        <ele>174.77</ele>
        <time>2024-06-24T21:59:39.709Z</time>
      </trkpt>
      <trkpt lat="46.73023" lon="-0.42983">
        <ele>174.81</ele>
        <time>2024-06-24T21:59:46.454Z</time>
      </trkpt>
      <trkpt lat="46.73023" lon="-0.4299">
        <ele>174.86</ele>
        <time>2024-06-24T21:59:53.200Z</time>
      </trkpt>
      <trkpt lat="46.73023" lon="-0.42998">
        <ele>174.91</ele>
        <time>2024-06-24T21:59:59.947Z</time>
      </trkpt>
      <trkpt lat="46.73023" lon="-0.43004">
        <ele>174.96</ele>
        <time>2024-06-24T22:00:06.695Z</time>
      </trkpt>
      <trkpt lat="46.73023" lon="-0.43011">
        <ele>175.01</ele>
        <time>2024-06-24T22:00:13.444Z</time>
      </trkpt>
      <trkpt lat="46.73023" lon="-0.43017">
        <ele>175.07</ele>
        <time>2024-06-24T22:00:20.194Z</time>
      </trkpt>
      <trkpt lat="46.73022" lon="-0.43024">
        <ele>175.12</ele>
        <time>2024-06-24T22:00:26.945Z</time>
      </trkpt>
      <trkpt lat="46.73021" lon="-0.4303">
        <ele>175.18</ele>
        <time>2024-06-24T22:00:33.697Z</time>
      </trkpt>
      <trkpt lat="46.7302" lon="-0.43036">
        <ele>175.24</ele>
        <time>2024-06-24T22:00:40.449Z</time>
      </trkpt>
      <trkpt lat="46.73017" lon="-0.43041">
        <ele>175.3</ele>
        <time>2024-06-24T22:00:47.202Z</time>
      </trkpt>
      <trkpt lat="46.73015" lon="-0.43047">
        <ele>175.37</ele>
        <time>2024-06-24T22:00:53.956Z</time>
      </trkpt>
      <trkpt lat="46.73013" lon="-0.43052">
        <ele>175.44</ele>
        <time>2024-06-24T22:01:00.711Z</time>
      </trkpt>
      <trkpt lat="46.7301" lon="-0.43057">
        <ele>175.51</ele>
        <time>2024-06-24T22:01:07.467Z</time>
      </trkpt>
      <trkpt lat="46.73008" lon="-0.43061">
        <ele>175.59</ele>
        <time>2024-06-24T22:01:14.224Z</time>
      </trkpt>
      <trkpt lat="46.73006" lon="-0.43066">
        <ele>175.67</ele>
        <time>2024-06-24T22:01:20.981Z</time>
      </trkpt>
      <trkpt lat="46.73004" lon="-0.43071">
        <ele>175.75</ele>
        <time>2024-06-24T22:01:27.739Z</time>
      </trkpt>
      <trkpt lat="46.73002" lon="-0.43076">
        <ele>175.84</ele>
        <time>2024-06-24T22:01:34.498Z</time>
      </trkpt>
      <trkpt lat="46.73" lon="-0.43081">
        <ele>175.93</ele>
        <time>2024-06-24T22:01:41.258Z</time>
      </trkpt>
      <trkpt lat="46.72997" lon="-0.43086">
        <ele>176.03</ele>
        <time>2024-06-24T22:01:48.019Z</time>
      </trkpt>
      <trkpt lat="46.72995" lon="-0.43091">
        <ele>176.14</ele>
        <time>2024-06-24T22:01:54.781Z</time>
      </trkpt>
      <trkpt lat="46.72993" lon="-0.43097">
        <ele>176.24</ele>
        <time>2024-06-24T22:02:01.543Z</time>
      </trkpt>
      <trkpt lat="46.72991" lon="-0.43102">
        <ele>176.35</ele>
        <time>2024-06-24T22:02:08.306Z</time>
      </trkpt>
      <trkpt lat="46.72989" lon="-0.43108">
        <ele>176.46</ele>
        <time>2024-06-24T22:02:15.070Z</time>
      </trkpt>
      <trkpt lat="46.72987" lon="-0.43113">
        <ele>176.58</ele>
        <time>2024-06-24T22:02:21.835Z</time>
      </trkpt>
      <trkpt lat="46.72985" lon="-0.43118">
        <ele>176.7</ele>
        <time>2024-06-24T22:02:28.601Z</time>
      </trkpt>
      <trkpt lat="46.72984" lon="-0.43122">
        <ele>176.82</ele>
        <time>2024-06-24T22:02:35.367Z</time>
      </trkpt>
      <trkpt lat="46.72982" lon="-0.43126">
        <ele>176.95</ele>
        <time>2024-06-24T22:02:42.134Z</time>
      </trkpt>
      <trkpt lat="46.72981" lon="-0.4313">
        <ele>177.08</ele>
        <time>2024-06-24T22:02:48.902Z</time>
      </trkpt>
      <trkpt lat="46.7298" lon="-0.43134">
        <ele>177.21</ele>
        <time>2024-06-24T22:02:55.670Z</time>
      </trkpt>
      <trkpt lat="46.72979" lon="-0.43138">
        <ele>177.34</ele>
        <time>2024-06-24T22:03:02.439Z</time>
      </trkpt>
      <trkpt lat="46.72978" lon="-0.43142">
        <ele>177.49</ele>
        <time>2024-06-24T22:03:09.208Z</time>
      </trkpt>
      <trkpt lat="46.72977" lon="-0.43146">
        <ele>177.63</ele>
        <time>2024-06-24T22:03:15.978Z</time>
      </trkpt>
      <trkpt lat="46.72975" lon="-0.4315">
        <ele>177.78</ele>
        <time>2024-06-24T22:03:22.749Z</time>
      </trkpt>
      <trkpt lat="46.72974" lon="-0.43154">
        <ele>177.93</ele>
        <time>2024-06-24T22:03:29.520Z</time>
      </trkpt>
      <trkpt lat="46.72974" lon="-0.43158">
        <ele>178.09</ele>
        <time>2024-06-24T22:03:36.292Z</time>
      </trkpt>
      <trkpt lat="46.72973" lon="-0.43162">
        <ele>178.24</ele>
        <time>2024-06-24T22:03:43.064Z</time>
      </trkpt>
      <trkpt lat="46.72972" lon="-0.43166">
        <ele>178.4</ele>
        <time>2024-06-24T22:03:49.837Z</time>
      </trkpt>
      <trkpt lat="46.72971" lon="-0.4317">
        <ele>178.56</ele>
        <time>2024-06-24T22:03:56.610Z</time>
      </trkpt>
      <trkpt lat="46.7297" lon="-0.43175">
        <ele>178.72</ele>
        <time>2024-06-24T22:04:03.384Z</time>
      </trkpt>
      <trkpt lat="46.72969" lon="-0.43179">
        <ele>178.88</ele>
        <time>2024-06-24T22:04:10.159Z</time>
      </trkpt>
      <trkpt lat="46.72968" lon="-0.43184">
        <ele>179.05</ele>
        <time>2024-06-24T22:04:16.934Z</time>
      </trkpt>
      <trkpt lat="46.72967" lon="-0.43188">
        <ele>179.21</ele>
        <time>2024-06-24T22:04:23.710Z</time>
      </trkpt>
      <trkpt lat="46.72966" lon="-0.43192">
        <ele>179.37</ele>
        <time>2024-06-24T22:04:30.487Z</time>
      </trkpt>
      <trkpt lat="46.72965" lon="-0.43197">
        <ele>179.55</ele>
        <time>2024-06-24T22:04:37.264Z</time>
      </trkpt>
      <trkpt lat="46.72964" lon="-0.43201">
        <ele>179.72</ele>
        <time>2024-06-24T22:04:44.042Z</time>
      </trkpt>
      <trkpt lat="46.72963" lon="-0.43206">
        <ele>179.89</ele>
        <time>2024-06-24T22:04:50.821Z</time>
      </trkpt>
      <trkpt lat="46.72962" lon="-0.4321">
        <ele>180.06</ele>
        <time>2024-06-24T22:04:57.600Z</time>
      </trkpt>
      <trkpt lat="46.72962" lon="-0.43214">
        <ele>180.23</ele>
        <time>2024-06-24T22:05:04.380Z</time>
      </trkpt>
      <trkpt lat="46.72961" lon="-0.43219">
        <ele>180.4</ele>
        <time>2024-06-24T22:05:11.160Z</time>
      </trkpt>
      <trkpt lat="46.7296" lon="-0.43224">
        <ele>180.56</ele>
        <time>2024-06-24T22:05:17.941Z</time>
      </trkpt>
      <trkpt lat="46.72959" lon="-0.43228">
        <ele>180.73</ele>
        <time>2024-06-24T22:05:24.723Z</time>
      </trkpt>
      <trkpt lat="46.72958" lon="-0.43232">
        <ele>180.89</ele>
        <time>2024-06-24T22:05:31.505Z</time>
      </trkpt>
      <trkpt lat="46.72957" lon="-0.43236">
        <ele>181.06</ele>
        <time>2024-06-24T22:05:38.288Z</time>
      </trkpt>
      <trkpt lat="46.72956" lon="-0.43241">
        <ele>181.22</ele>
        <time>2024-06-24T22:05:45.072Z</time>
      </trkpt>
      <trkpt lat="46.72955" lon="-0.43246">
        <ele>181.37</ele>
        <time>2024-06-24T22:05:51.856Z</time>
      </trkpt>
      <trkpt lat="46.72955" lon="-0.4325">
        <ele>181.53</ele>
        <time>2024-06-24T22:05:58.641Z</time>
      </trkpt>
      <trkpt lat="46.72953" lon="-0.43255">
        <ele>181.68</ele>
        <time>2024-06-24T22:06:05.427Z</time>
      </trkpt>
      <trkpt lat="46.72953" lon="-0.4326">
        <ele>181.83</ele>
        <time>2024-06-24T22:06:12.213Z</time>
      </trkpt>
      <trkpt lat="46.72952" lon="-0.43265">
        <ele>181.97</ele>
        <time>2024-06-24T22:06:19.000Z</time>
      </trkpt>
      <trkpt lat="46.72951" lon="-0.43269">
        <ele>182.12</ele>
        <time>2024-06-24T22:06:25.788Z</time>
      </trkpt>
      <trkpt lat="46.7295" lon="-0.43274">
        <ele>182.26</ele>
        <time>2024-06-24T22:06:32.576Z</time>
      </trkpt>
      <trkpt lat="46.72949" lon="-0.43278">
        <ele>182.39</ele>
        <time>2024-06-24T22:06:39.365Z</time>
      </trkpt>
      <trkpt lat="46.72948" lon="-0.43283">
        <ele>182.52</ele>
        <time>2024-06-24T22:06:46.155Z</time>
      </trkpt>
      <trkpt lat="46.72948" lon="-0.43288">
        <ele>182.65</ele>
        <time>2024-06-24T22:06:52.945Z</time>
      </trkpt>
      <trkpt lat="46.72947" lon="-0.43292">
        <ele>182.78</ele>
        <time>2024-06-24T22:06:59.736Z</time>
      </trkpt>
      <trkpt lat="46.72946" lon="-0.43297">
        <ele>182.9</ele>
        <time>2024-06-24T22:07:06.528Z</time>
      </trkpt>
      <trkpt lat="46.72946" lon="-0.43302">
        <ele>183.02</ele>
        <time>2024-06-24T22:07:13.320Z</time>
      </trkpt>
      <trkpt lat="46.72945" lon="-0.43306">
        <ele>183.13</ele>
        <time>2024-06-24T22:07:20.113Z</time>
      </trkpt>
      <trkpt lat="46.72944" lon="-0.43311">
        <ele>183.24</ele>
        <time>2024-06-24T22:07:26.907Z</time>
      </trkpt>
      <trkpt lat="46.72943" lon="-0.43316">
        <ele>183.34</ele>
        <time>2024-06-24T22:07:33.701Z</time>
      </trkpt>
      <trkpt lat="46.72942" lon="-0.4332">
        <ele>183.44</ele>
        <time>2024-06-24T22:07:40.496Z</time>
      </trkpt>
      <trkpt lat="46.72941" lon="-0.43325">
        <ele>183.54</ele>
        <time>2024-06-24T22:07:47.292Z</time>
      </trkpt>
      <trkpt lat="46.7294" lon="-0.43331">
        <ele>183.63</ele>
        <time>2024-06-24T22:07:54.088Z</time>
      </trkpt>
      <trkpt lat="46.72939" lon="-0.43336">
        <ele>183.72</ele>
        <time>2024-06-24T22:08:00.885Z</time>
      </trkpt>
      <trkpt lat="46.72939" lon="-0.43341">
        <ele>183.81</ele>
        <time>2024-06-24T22:08:07.683Z</time>
      </trkpt>
      <trkpt lat="46.72938" lon="-0.43346">
        <ele>183.89</ele>
        <time>2024-06-24T22:08:14.482Z</time>
      </trkpt>
      <trkpt lat="46.72937" lon="-0.43351">
        <ele>183.97</ele>
        <time>2024-06-24T22:08:21.281Z</time>
      </trkpt>
      <trkpt lat="46.72936" lon="-0.43356">
        <ele>184.05</ele>
        <time>2024-06-24T22:08:28.081Z</time>
      </trkpt>
      <trkpt lat="46.72936" lon="-0.43361">
        <ele>184.12</ele>
        <time>2024-06-24T22:08:34.882Z</time>
      </trkpt>
      <trkpt lat="46.72935" lon="-0.43366">
        <ele>184.2</ele>
        <time>2024-06-24T22:08:41.683Z</time>
      </trkpt>
      <trkpt lat="46.72934" lon="-0.43371">
        <ele>184.27</ele>
        <time>2024-06-24T22:08:48.485Z</time>
      </trkpt>
      <trkpt lat="46.72933" lon="-0.43376">
        <ele>184.35</ele>
        <time>2024-06-24T22:08:55.288Z</time>
      </trkpt>
      <trkpt lat="46.72932" lon="-0.43381">
        <ele>184.42</ele>
        <time>2024-06-24T22:09:02.092Z</time>
      </trkpt>
      <trkpt lat="46.72931" lon="-0.43385">
        <ele>184.48</ele>
        <time>2024-06-24T22:09:08.896Z</time>
      </trkpt>
      <trkpt lat="46.7293" lon="-0.4339">
        <ele>184.55</ele>
        <time>2024-06-24T22:09:15.701Z</time>
      </trkpt>
      <trkpt lat="46.72929" lon="-0.43395">
        <ele>184.61</ele>
        <time>2024-06-24T22:09:22.507Z</time>
      </trkpt>
      <trkpt lat="46.72928" lon="-0.434">
        <ele>184.67</ele>
        <time>2024-06-24T22:09:29.313Z</time>
      </trkpt>
      <trkpt lat="46.72928" lon="-0.43404">
        <ele>184.74</ele>
        <time>2024-06-24T22:09:36.120Z</time>
      </trkpt>
      <trkpt lat="46.72926" lon="-0.43408">
        <ele>184.8</ele>
        <time>2024-06-24T22:09:42.927Z</time>
      </trkpt>
      <trkpt lat="46.72925" lon="-0.43413">
        <ele>184.86</ele>
        <time>2024-06-24T22:09:49.735Z</time>
      </trkpt>
      <trkpt lat="46.72924" lon="-0.43417">
        <ele>184.92</ele>
        <time>2024-06-24T22:09:56.544Z</time>
      </trkpt>
      <trkpt lat="46.72922" lon="-0.4342">
        <ele>184.98</ele>
        <time>2024-06-24T22:10:03.353Z</time>
      </trkpt>
      <trkpt lat="46.7292" lon="-0.43423">
        <ele>185.03</ele>
        <time>2024-06-24T22:10:10.163Z</time>
      </trkpt>
      <trkpt lat="46.72916" lon="-0.43424">
        <ele>185.09</ele>
        <time>2024-06-24T22:10:16.974Z</time>
      </trkpt>
      <trkpt lat="46.72913" lon="-0.43425">
        <ele>185.15</ele>
        <time>2024-06-24T22:10:23.785Z</time>
      </trkpt>
      <trkpt lat="46.72909" lon="-0.43425">
        <ele>185.21</ele>
        <time>2024-06-24T22:10:30.597Z</time>
      </trkpt>
      <trkpt lat="46.72906" lon="-0.43424">
        <ele>185.26</ele>
        <time>2024-06-24T22:10:37.410Z</time>
      </trkpt>
      <trkpt lat="46.72902" lon="-0.43423">
        <ele>185.32</ele>
        <time>2024-06-24T22:10:44.224Z</time>
      </trkpt>
      <trkpt lat="46.72898" lon="-0.43422">
        <ele>185.38</ele>
        <time>2024-06-24T22:10:51.038Z</time>
      </trkpt>
      <trkpt lat="46.72894" lon="-0.43421">
        <ele>185.44</ele>
        <time>2024-06-24T22:10:57.853Z</time>
      </trkpt>
      <trkpt lat="46.72889" lon="-0.43419">
        <ele>185.5</ele>
        <time>2024-06-24T22:11:04.669Z</time>
      </trkpt>
      <trkpt lat="46.72885" lon="-0.43417">
        <ele>185.55</ele>
        <time>2024-06-24T22:11:11.486Z</time>
      </trkpt>
      <trkpt lat="46.7288" lon="-0.43415">
        <ele>185.61</ele>
        <time>2024-06-24T22:11:18.304Z</time>
      </trkpt>
      <trkpt lat="46.72874" lon="-0.43412">
        <ele>185.67</ele>
        <time>2024-06-24T22:11:25.123Z</time>
      </trkpt>
      <trkpt lat="46.72869" lon="-0.43407">
        <ele>185.73</ele>
        <time>2024-06-24T22:11:31.944Z</time>
      </trkpt>
      <trkpt lat="46.72863" lon="-0.43403">
        <ele>185.78</ele>
        <time>2024-06-24T22:11:38.766Z</time>
      </trkpt>
      <trkpt lat="46.72858" lon="-0.43397">
        <ele>185.84</ele>
        <time>2024-06-24T22:11:45.589Z</time>
      </trkpt>
      <trkpt lat="46.72852" lon="-0.43391">
        <ele>185.9</ele>
        <time>2024-06-24T22:11:52.414Z</time>
      </trkpt>
      <trkpt lat="46.72847" lon="-0.43385">
        <ele>185.97</ele>
        <time>2024-06-24T22:11:59.240Z</time>
      </trkpt>
      <trkpt lat="46.72842" lon="-0.43378">
        <ele>186.04</ele>
        <time>2024-06-24T22:12:06.067Z</time>
      </trkpt>
      <trkpt lat="46.72837" lon="-0.43369">
        <ele>186.12</ele>
        <time>2024-06-24T22:12:12.896Z</time>
      </trkpt>
      <trkpt lat="46.72833" lon="-0.4336">
        <ele>186.21</ele>
        <time>2024-06-24T22:12:19.726Z</time>
      </trkpt>
      <trkpt lat="46.72828" lon="-0.43351">
        <ele>186.29</ele>
        <time>2024-06-24T22:12:26.558Z</time>
      </trkpt>
      <trkpt lat="46.72823" lon="-0.43342">
        <ele>186.38</ele>
        <time>2024-06-24T22:12:33.392Z</time>
      </trkpt>
      <trkpt lat="46.72819" lon="-0.43334">
        <ele>186.48</ele>
        <time>2024-06-24T22:12:40.227Z</time>
      </trkpt>
      <trkpt lat="46.72815" lon="-0.43326">
        <ele>186.58</ele>
        <time>2024-06-24T22:12:47.063Z</time>
      </trkpt>
      <trkpt lat="46.7281" lon="-0.43322">
        <ele>186.69</ele>
        <time>2024-06-24T22:12:53.900Z</time>
      </trkpt>
      <trkpt lat="46.72805" lon="-0.43317">
        <ele>186.8</ele>
        <time>2024-06-24T22:13:00.739Z</time>
      </trkpt>
      <trkpt lat="46.728" lon="-0.43314">
        <ele>186.91</ele>
        <time>2024-06-24T22:13:07.579Z</time>
      </trkpt>
      <trkpt lat="46.72794" lon="-0.43313">
        <ele>187.02</ele>
        <time>2024-06-24T22:13:14.420Z</time>
      </trkpt>
      <trkpt lat="46.72789" lon="-0.43313">
        <ele>187.14</ele>
        <time>2024-06-24T22:13:21.262Z</time>
      </trkpt>
      <trkpt lat="46.72784" lon="-0.43313">
        <ele>187.26</ele>
        <time>2024-06-24T22:13:28.105Z</time>
      </trkpt>
      <trkpt lat="46.72779" lon="-0.43313">
        <ele>187.38</ele>
        <time>2024-06-24T22:13:34.949Z</time>
      </trkpt>
      <trkpt lat="46.72775" lon="-0.43314">
        <ele>187.49</ele>
        <time>2024-06-24T22:13:41.794Z</time>
      </trkpt>
      <trkpt lat="46.7277" lon="-0.43314">
        <ele>187.6</ele>
        <time>2024-06-24T22:13:48.640Z</time>
      </trkpt>
      <trkpt lat="46.72766" lon="-0.43315">
        <ele>187.72</ele>
        <time>2024-06-24T22:13:55.486Z</time>
      </trkpt>
      <trkpt lat="46.72762" lon="-0.43315">
        <ele>187.84</ele>
        <time>2024-06-24T22:14:02.333Z</time>
      </trkpt>
      <trkpt lat="46.72759" lon="-0.43315">
        <ele>187.97</ele>
        <time>2024-06-24T22:14:09.181Z</time>
      </trkpt>
      <trkpt lat="46.72755" lon="-0.43315">
        <ele>188.09</ele>
        <time>2024-06-24T22:14:16.030Z</time>
      </trkpt>
      <trkpt lat="46.7275" lon="-0.43314">
        <ele>188.22</ele>
        <time>2024-06-24T22:14:22.880Z</time>
      </trkpt>
      <trkpt lat="46.72746" lon="-0.43313">
        <ele>188.35</ele>
        <time>2024-06-24T22:14:29.730Z</time>
      </trkpt>
      <trkpt lat="46.72743" lon="-0.43312">
        <ele>188.48</ele>
        <time>2024-06-24T22:14:36.581Z</time>
      </trkpt>
      <trkpt lat="46.7274" lon="-0.43311">
        <ele>188.61</ele>
        <time>2024-06-24T22:14:43.433Z</time>
      </trkpt>
      <trkpt lat="46.72737" lon="-0.4331">
        <ele>188.75</ele>
        <time>2024-06-24T22:14:50.285Z</time>
      </trkpt>
      <trkpt lat="46.72733" lon="-0.43309">
        <ele>188.89</ele>
        <time>2024-06-24T22:14:57.138Z</time>
      </trkpt>
      <trkpt lat="46.7273" lon="-0.43307">
        <ele>189.03</ele>
        <time>2024-06-24T22:15:03.992Z</time>
      </trkpt>
      <trkpt lat="46.72727" lon="-0.43306">
        <ele>189.17</ele>
        <time>2024-06-24T22:15:10.846Z</time>
      </trkpt>
      <trkpt lat="46.72724" lon="-0.43304">
        <ele>189.32</ele>
        <time>2024-06-24T22:15:17.701Z</time>
      </trkpt>
      <trkpt lat="46.72722" lon="-0.43303">
        <ele>189.46</ele>
        <time>2024-06-24T22:15:24.557Z</time>
      </trkpt>
      <trkpt lat="46.7272" lon="-0.43301">
        <ele>189.6</ele>
        <time>2024-06-24T22:15:31.413Z</time>
      </trkpt>
      <trkpt lat="46.72718" lon="-0.43299">
        <ele>189.74</ele>
        <time>2024-06-24T22:15:38.270Z</time>
      </trkpt>
      <trkpt lat="46.72716" lon="-0.43298">
        <ele>189.89</ele>
        <time>2024-06-24T22:15:45.127Z</time>
      </trkpt>
      <trkpt lat="46.72713" lon="-0.43296">
        <ele>190.03</ele>
        <time>2024-06-24T22:15:51.984Z</time>
      </trkpt>
      <trkpt lat="46.72711" lon="-0.43294">
        <ele>190.18</ele>
        <time>2024-06-24T22:15:58.842Z</time>
      </trkpt>
      <trkpt lat="46.72709" lon="-0.43292">
        <ele>190.32</ele>
        <time>2024-06-24T22:16:05.701Z</time>
      </trkpt>
      <trkpt lat="46.72706" lon="-0.4329">
        <ele>190.47</ele>
        <time>2024-06-24T22:16:12.560Z</time>
      </trkpt>
      <trkpt lat="46.72704" lon="-0.43288">
        <ele>190.62</ele>
        <time>2024-06-24T22:16:19.420Z</time>
      </trkpt>
      <trkpt lat="46.72702" lon="-0.43285">
        <ele>190.77</ele>
        <time>2024-06-24T22:16:26.280Z</time>
      </trkpt>
      <trkpt lat="46.72701" lon="-0.43282">
        <ele>190.92</ele>
        <time>2024-06-24T22:16:33.141Z</time>
      </trkpt>
      <trkpt lat="46.72699" lon="-0.43278">
        <ele>191.07</ele>
        <time>2024-06-24T22:16:40.002Z</time>
      </trkpt>
      <trkpt lat="46.72697" lon="-0.43276">
        <ele>191.21</ele>
        <time>2024-06-24T22:16:46.864Z</time>
      </trkpt>
      <trkpt lat="46.72696" lon="-0.43273">
        <ele>191.36</ele>
        <time>2024-06-24T22:16:53.726Z</time>
      </trkpt>
      <trkpt lat="46.72695" lon="-0.4327">
        <ele>191.5</ele>
        <time>2024-06-24T22:17:00.589Z</time>
      </trkpt>
      <trkpt lat="46.72694" lon="-0.43267">
        <ele>191.64</ele>
        <time>2024-06-24T22:17:07.452Z</time>
      </trkpt>
      <trkpt lat="46.72693" lon="-0.43263">
        <ele>191.78</ele>
        <time>2024-06-24T22:17:14.316Z</time>
      </trkpt>
      <trkpt lat="46.72692" lon="-0.43259">
        <ele>191.92</ele>
        <time>2024-06-24T22:17:21.180Z</time>
      </trkpt>
      <trkpt lat="46.72691" lon="-0.43255">
        <ele>192.06</ele>
        <time>2024-06-24T22:17:28.045Z</time>
      </trkpt>
      <trkpt lat="46.7269" lon="-0.43251">
        <ele>192.2</ele>
        <time>2024-06-24T22:17:34.910Z</time>
      </trkpt>
      <trkpt lat="46.72689" lon="-0.43247">
        <ele>192.33</ele>
        <time>2024-06-24T22:17:41.776Z</time>
      </trkpt>
      <trkpt lat="46.72688" lon="-0.43242">
        <ele>192.47</ele>
        <time>2024-06-24T22:17:48.643Z</time>
      </trkpt>
      <trkpt lat="46.72688" lon="-0.43237">
        <ele>192.6</ele>
        <time>2024-06-24T22:17:55.510Z</time>
      </trkpt>
      <trkpt lat="46.72687" lon="-0.43233">
        <ele>192.73</ele>
        <time>2024-06-24T22:18:02.378Z</time>
      </trkpt>
      <trkpt lat="46.72686" lon="-0.43228">
        <ele>192.86</ele>
        <time>2024-06-24T22:18:09.247Z</time>
      </trkpt>
      <trkpt lat="46.72686" lon="-0.43223">
        <ele>192.98</ele>
        <time>2024-06-24T22:18:16.116Z</time>
      </trkpt>
      <trkpt lat="46.72685" lon="-0.43219">
        <ele>193.1</ele>
        <time>2024-06-24T22:18:22.986Z</time>
      </trkpt>
      <trkpt lat="46.72685" lon="-0.43214">
        <ele>193.22</ele>
        <time>2024-06-24T22:18:29.857Z</time>
      </trkpt>
      <trkpt lat="46.72684" lon="-0.43209">
        <ele>193.34</ele>
        <time>2024-06-24T22:18:36.728Z</time>
      </trkpt>
      <trkpt lat="46.72683" lon="-0.43205">
        <ele>193.44</ele>
        <time>2024-06-24T22:18:43.600Z</time>
      </trkpt>
      <trkpt lat="46.72683" lon="-0.432">
        <ele>193.55</ele>
        <time>2024-06-24T22:18:50.473Z</time>
      </trkpt>
      <trkpt lat="46.72682" lon="-0.43194">
        <ele>193.66</ele>
        <time>2024-06-24T22:18:57.347Z</time>
      </trkpt>
      <trkpt lat="46.72681" lon="-0.43189">
        <ele>193.76</ele>
        <time>2024-06-24T22:19:04.221Z</time>
      </trkpt>
      <trkpt lat="46.7268" lon="-0.43184">
        <ele>193.86</ele>
        <time>2024-06-24T22:19:11.096Z</time>
      </trkpt>
      <trkpt lat="46.72679" lon="-0.43179">
        <ele>193.95</ele>
        <time>2024-06-24T22:19:17.972Z</time>
      </trkpt>
      <trkpt lat="46.72678" lon="-0.43174">
        <ele>194.04</ele>
        <time>2024-06-24T22:19:24.848Z</time>
      </trkpt>
      <trkpt lat="46.72677" lon="-0.4317">
        <ele>194.13</ele>
        <time>2024-06-24T22:19:31.725Z</time>
      </trkpt>
      <trkpt lat="46.72677" lon="-0.43165">
        <ele>194.22</ele>
        <time>2024-06-24T22:19:38.603Z</time>
      </trkpt>
      <trkpt lat="46.72676" lon="-0.4316">
        <ele>194.31</ele>
        <time>2024-06-24T22:19:45.481Z</time>
      </trkpt>
      <trkpt lat="46.72675" lon="-0.43155">
        <ele>194.39</ele>
        <time>2024-06-24T22:19:52.360Z</time>
      </trkpt>
      <trkpt lat="46.72674" lon="-0.4315">
        <ele>194.47</ele>
        <time>2024-06-24T22:19:59.240Z</time>
      </trkpt>
      <trkpt lat="46.72674" lon="-0.43146">
        <ele>194.55</ele>
        <time>2024-06-24T22:20:06.120Z</time>
      </trkpt>
      <trkpt lat="46.72673" lon="-0.43141">
        <ele>194.62</ele>
        <time>2024-06-24T22:20:13.001Z</time>
      </trkpt>
      <trkpt lat="46.72672" lon="-0.43137">
        <ele>194.7</ele>
        <time>2024-06-24T22:20:19.883Z</time>
      </trkpt>
      <trkpt lat="46.72671" lon="-0.43132">
        <ele>194.76</ele>
        <time>2024-06-24T22:20:26.765Z</time>
      </trkpt>
      <trkpt lat="46.7267" lon="-0.43127">
        <ele>194.83</ele>
        <time>2024-06-24T22:20:33.648Z</time>
      </trkpt>
      <trkpt lat="46.72669" lon="-0.43121">
        <ele>194.89</ele>
        <time>2024-06-24T22:20:40.532Z</time>
      </trkpt>
      <trkpt lat="46.72668" lon="-0.43115">
        <ele>194.95</ele>
        <time>2024-06-24T22:20:47.417Z</time>
      </trkpt>
      <trkpt lat="46.72667" lon="-0.4311">
        <ele>195.02</ele>
        <time>2024-06-24T22:20:54.302Z</time>
      </trkpt>
      <trkpt lat="46.72666" lon="-0.43104">
        <ele>195.08</ele>
        <time>2024-06-24T22:21:01.188Z</time>
      </trkpt>
      <trkpt lat="46.72664" lon="-0.43099">
        <ele>195.14</ele>
        <time>2024-06-24T22:21:08.075Z</time>
      </trkpt>
      <trkpt lat="46.72663" lon="-0.43094">
        <ele>195.2</ele>
        <time>2024-06-24T22:21:14.963Z</time>
      </trkpt>
      <trkpt lat="46.72662" lon="-0.43087">
        <ele>195.26</ele>
        <time>2024-06-24T22:21:21.852Z</time>
      </trkpt>
      <trkpt lat="46.72661" lon="-0.43081">
        <ele>195.32</ele>
        <time>2024-06-24T22:21:28.742Z</time>
      </trkpt>
      <trkpt lat="46.7266" lon="-0.43076">
        <ele>195.38</ele>
        <time>2024-06-24T22:21:35.632Z</time>
      </trkpt>
      <trkpt lat="46.72658" lon="-0.4307">
        <ele>195.44</ele>
        <time>2024-06-24T22:21:42.523Z</time>
      </trkpt>
      <trkpt lat="46.72657" lon="-0.43065">
        <ele>195.49</ele>
        <time>2024-06-24T22:21:49.415Z</time>
      </trkpt>
      <trkpt lat="46.72656" lon="-0.4306">
        <ele>195.55</ele>
        <time>2024-06-24T22:21:56.308Z</time>
      </trkpt>
      <trkpt lat="46.72655" lon="-0.43054">
        <ele>195.6</ele>
        <time>2024-06-24T22:22:03.202Z</time>
      </trkpt>
      <trkpt lat="46.72654" lon="-0.43048">
        <ele>195.66</ele>
        <time>2024-06-24T22:22:10.096Z</time>
      </trkpt>
      <trkpt lat="46.72654" lon="-0.43042">
        <ele>195.72</ele>
        <time>2024-06-24T22:22:16.991Z</time>
      </trkpt>
      <trkpt lat="46.72653" lon="-0.43037">
        <ele>195.78</ele>
        <time>2024-06-24T22:22:23.887Z</time>
      </trkpt>
      <trkpt lat="46.72652" lon="-0.43032">
        <ele>195.83</ele>
        <time>2024-06-24T22:22:30.784Z</time>
      </trkpt>
      <trkpt lat="46.72652" lon="-0.43027">
        <ele>195.89</ele>
        <time>2024-06-24T22:22:37.681Z</time>
      </trkpt>
      <trkpt lat="46.72651" lon="-0.43021">
        <ele>195.95</ele>
        <time>2024-06-24T22:22:44.579Z</time>
      </trkpt>
      <trkpt lat="46.72649" lon="-0.43015">
        <ele>196.01</ele>
        <time>2024-06-24T22:22:51.478Z</time>
      </trkpt>
      <trkpt lat="46.72647" lon="-0.43011">
        <ele>196.07</ele>
        <time>2024-06-24T22:22:58.378Z</time>
      </trkpt>
      <trkpt lat="46.72643" lon="-0.43009">
        <ele>196.12</ele>
        <time>2024-06-24T22:23:05.279Z</time>
      </trkpt>
      <trkpt lat="46.7264" lon="-0.43009">
        <ele>196.18</ele>
        <time>2024-06-24T22:23:12.180Z</time>
      </trkpt>
      <trkpt lat="46.72636" lon="-0.43009">
        <ele>196.24</ele>
        <time>2024-06-24T22:23:19.082Z</time>
      </trkpt>
      <trkpt lat="46.72632" lon="-0.43009">
        <ele>196.29</ele>
        <time>2024-06-24T22:23:25.985Z</time>
      </trkpt>
      <trkpt lat="46.72628" lon="-0.4301">
        <ele>196.35</ele>
        <time>2024-06-24T22:23:32.889Z</time>
      </trkpt>
      <trkpt lat="46.72624" lon="-0.4301">
        <ele>196.41</ele>
        <time>2024-06-24T22:23:39.793Z</time>
      </trkpt>
      <trkpt lat="46.7262" lon="-0.4301">
        <ele>196.46</ele>
        <time>2024-06-24T22:23:46.698Z</time>
      </trkpt>
      <trkpt lat="46.72616" lon="-0.4301">
        <ele>196.52</ele>
        <time>2024-06-24T22:23:53.604Z</time>
      </trkpt>
      <trkpt lat="46.72612" lon="-0.43009">
        <ele>196.58</ele>
        <time>2024-06-24T22:24:00.511Z</time>
      </trkpt>
      <trkpt lat="46.72609" lon="-0.43009">
        <ele>196.63</ele>
        <time>2024-06-24T22:24:07.419Z</time>
      </trkpt>
      <trkpt lat="46.72604" lon="-0.4301">
        <ele>196.69</ele>
        <time>2024-06-24T22:24:14.327Z</time>
      </trkpt>
      <trkpt lat="46.726" lon="-0.4301">
        <ele>196.75</ele>
        <time>2024-06-24T22:24:21.236Z</time>
      </trkpt>
      <trkpt lat="46.72596" lon="-0.4301">
        <ele>196.8</ele>
        <time>2024-06-24T22:24:28.146Z</time>
      </trkpt>
      <trkpt lat="46.72592" lon="-0.4301">
        <ele>196.86</ele>
        <time>2024-06-24T22:24:35.057Z</time>
      </trkpt>
      <trkpt lat="46.72589" lon="-0.4301">
        <ele>196.92</ele>
        <time>2024-06-24T22:24:41.968Z</time>
      </trkpt>
      <trkpt lat="46.72585" lon="-0.43011">
        <ele>196.99</ele>
        <time>2024-06-24T22:24:48.880Z</time>
      </trkpt>
      <trkpt lat="46.72581" lon="-0.43012">
        <ele>197.06</ele>
        <time>2024-06-24T22:24:55.793Z</time>
      </trkpt>
      <trkpt lat="46.72577" lon="-0.43012">
        <ele>197.13</ele>
        <time>2024-06-24T22:25:02.707Z</time>
      </trkpt>
      <trkpt lat="46.72573" lon="-0.43013">
        <ele>197.2</ele>
        <time>2024-06-24T22:25:09.622Z</time>
      </trkpt>
      <trkpt lat="46.7257" lon="-0.43013">
        <ele>197.28</ele>
        <time>2024-06-24T22:25:16.537Z</time>
      </trkpt>
      <trkpt lat="46.72566" lon="-0.43014">
        <ele>197.35</ele>
        <time>2024-06-24T22:25:23.453Z</time>
      </trkpt>
      <trkpt lat="46.72562" lon="-0.43015">
        <ele>197.43</ele>
        <time>2024-06-24T22:25:30.370Z</time>
      </trkpt>
      <trkpt lat="46.72558" lon="-0.43016">
        <ele>197.51</ele>
        <time>2024-06-24T22:25:37.288Z</time>
      </trkpt>
      <trkpt lat="46.72554" lon="-0.43017">
        <ele>197.59</ele>
        <time>2024-06-24T22:25:44.206Z</time>
      </trkpt>
      <trkpt lat="46.72551" lon="-0.43019">
        <ele>197.67</ele>
        <time>2024-06-24T22:25:51.125Z</time>
      </trkpt>
      <trkpt lat="46.72547" lon="-0.4302">
        <ele>197.76</ele>
        <time>2024-06-24T22:25:58.045Z</time>
      </trkpt>
      <trkpt lat="46.72544" lon="-0.43022">
        <ele>197.85</ele>
        <time>2024-06-24T22:26:04.966Z</time>
      </trkpt>
      <trkpt lat="46.7254" lon="-0.43024">
        <ele>197.94</ele>
        <time>2024-06-24T22:26:11.887Z</time>
      </trkpt>
      <trkpt lat="46.72536" lon="-0.43026">
        <ele>198.04</ele>
        <time>2024-06-24T22:26:18.809Z</time>
      </trkpt>
      <trkpt lat="46.72533" lon="-0.43028">
        <ele>198.14</ele>
        <time>2024-06-24T22:26:25.732Z</time>
      </trkpt>
      <trkpt lat="46.72529" lon="-0.4303">
        <ele>198.24</ele>
        <time>2024-06-24T22:26:32.656Z</time>
      </trkpt>
      <trkpt lat="46.72526" lon="-0.43032">
        <ele>198.34</ele>
        <time>2024-06-24T22:26:39.581Z</time>
      </trkpt>
      <trkpt lat="46.72522" lon="-0.43035">
        <ele>198.45</ele>
        <time>2024-06-24T22:26:46.506Z</time>
      </trkpt>
      <trkpt lat="46.72519" lon="-0.43037">
        <ele>198.56</ele>
        <time>2024-06-24T22:26:53.432Z</time>
      </trkpt>
      <trkpt lat="46.72516" lon="-0.4304">
        <ele>198.67</ele>
        <time>2024-06-24T22:27:00.359Z</time>
      </trkpt>
      <trkpt lat="46.72512" lon="-0.43042">
        <ele>198.79</ele>
        <time>2024-06-24T22:27:07.287Z</time>
      </trkpt>
      <trkpt lat="46.72509" lon="-0.43044">
        <ele>198.91</ele>
        <time>2024-06-24T22:27:14.215Z</time>
      </trkpt>
      <trkpt lat="46.72506" lon="-0.43047">
        <ele>199.03</ele>
        <time>2024-06-24T22:27:21.144Z</time>
      </trkpt>
      <trkpt lat="46.72503" lon="-0.43049">
        <ele>199.16</ele>
        <time>2024-06-24T22:27:28.074Z</time>
      </trkpt>
      <trkpt lat="46.72499" lon="-0.43052">
        <ele>199.28</ele>
        <time>2024-06-24T22:27:35.005Z</time>
      </trkpt>
      <trkpt lat="46.72496" lon="-0.43054">
        <ele>199.41</ele>
        <time>2024-06-24T22:27:41.936Z</time>
      </trkpt>
      <trkpt lat="46.72493" lon="-0.43056">
        <ele>199.55</ele>
        <time>2024-06-24T22:27:48.868Z</time>
      </trkpt>
      <trkpt lat="46.7249" lon="-0.43059">
        <ele>199.68</ele>
        <time>2024-06-24T22:27:55.801Z</time>
      </trkpt>
      <trkpt lat="46.72487" lon="-0.43062">
        <ele>199.82</ele>
        <time>2024-06-24T22:28:02.734Z</time>
      </trkpt>
      <trkpt lat="46.72483" lon="-0.43065">
        <ele>199.96</ele>
        <time>2024-06-24T22:28:09.668Z</time>
      </trkpt>
      <trkpt lat="46.7248" lon="-0.43067">
        <ele>200.1</ele>
        <time>2024-06-24T22:28:16.603Z</time>
      </trkpt>
      <trkpt lat="46.72478" lon="-0.4307">
        <ele>200.24</ele>
        <time>2024-06-24T22:28:23.539Z</time>
      </trkpt>
      <trkpt lat="46.72474" lon="-0.43073">
        <ele>200.4</ele>
        <time>2024-06-24T22:28:30.475Z</time>
      </trkpt>
      <trkpt lat="46.72471" lon="-0.43076">
        <ele>200.55</ele>
        <time>2024-06-24T22:28:37.412Z</time>
      </trkpt>
      <trkpt lat="46.72468" lon="-0.43078">
        <ele>200.7</ele>
        <time>2024-06-24T22:28:44.350Z</time>
      </trkpt>
      <trkpt lat="46.72465" lon="-0.43082">
        <ele>200.86</ele>
        <time>2024-06-24T22:28:51.288Z</time>
      </trkpt>
      <trkpt lat="46.72462" lon="-0.43085">
        <ele>201.03</ele>
        <time>2024-06-24T22:28:58.227Z</time>
      </trkpt>
      <trkpt lat="46.72459" lon="-0.43088">
        <ele>201.19</ele>
        <time>2024-06-24T22:29:05.167Z</time>
      </trkpt>
      <trkpt lat="46.72456" lon="-0.43091">
        <ele>201.36</ele>
        <time>2024-06-24T22:29:12.108Z</time>
      </trkpt>
      <trkpt lat="46.72453" lon="-0.43094">
        <ele>201.53</ele>
        <time>2024-06-24T22:29:19.049Z</time>
      </trkpt>
      <trkpt lat="46.7245" lon="-0.43096">
        <ele>201.71</ele>
        <time>2024-06-24T22:29:25.991Z</time>
      </trkpt>
      <trkpt lat="46.72447" lon="-0.43099">
        <ele>201.88</ele>
        <time>2024-06-24T22:29:32.934Z</time>
      </trkpt>
      <trkpt lat="46.72444" lon="-0.43102">
        <ele>202.05</ele>
        <time>2024-06-24T22:29:39.878Z</time>
      </trkpt>
      <trkpt lat="46.72441" lon="-0.43105">
        <ele>202.22</ele>
        <time>2024-06-24T22:29:46.822Z</time>
      </trkpt>
      <trkpt lat="46.72438" lon="-0.43108">
        <ele>202.4</ele>
        <time>2024-06-24T22:29:53.767Z</time>
      </trkpt>
      <trkpt lat="46.72435" lon="-0.43111">
        <ele>202.57</ele>
        <time>2024-06-24T22:30:00.713Z</time>
      </trkpt>
      <trkpt lat="46.72432" lon="-0.43114">
        <ele>202.75</ele>
        <time>2024-06-24T22:30:07.659Z</time>
      </trkpt>
      <trkpt lat="46.72429" lon="-0.43116">
        <ele>202.93</ele>
        <time>2024-06-24T22:30:14.606Z</time>
      </trkpt>
      <trkpt lat="46.72426" lon="-0.43119">
        <ele>203.11</ele>
        <time>2024-06-24T22:30:21.554Z</time>
      </trkpt>
      <trkpt lat="46.72424" lon="-0.43122">
        <ele>203.28</ele>
        <time>2024-06-24T22:30:28.502Z</time>
      </trkpt>
      <trkpt lat="46.72421" lon="-0.43125">
        <ele>203.46</ele>
        <time>2024-06-24T22:30:35.451Z</time>
      </trkpt>
      <trkpt lat="46.72418" lon="-0.43128">
        <ele>203.64</ele>
        <time>2024-06-24T22:30:42.401Z</time>
      </trkpt>
      <trkpt lat="46.72415" lon="-0.43131">
        <ele>203.82</ele>
        <time>2024-06-24T22:30:49.351Z</time>
      </trkpt>
      <trkpt lat="46.72413" lon="-0.43134">
        <ele>204</ele>
        <time>2024-06-24T22:30:56.302Z</time>
      </trkpt>
      <trkpt lat="46.7241" lon="-0.43137">
        <ele>204.17</ele>
        <time>2024-06-24T22:31:03.254Z</time>
      </trkpt>
      <trkpt lat="46.72407" lon="-0.4314">
        <ele>204.35</ele>
        <time>2024-06-24T22:31:10.207Z</time>
      </trkpt>
      <trkpt lat="46.72403" lon="-0.43142">
        <ele>204.53</ele>
        <time>2024-06-24T22:31:17.160Z</time>
      </trkpt>
      <trkpt lat="46.724" lon="-0.43145">
        <ele>204.7</ele>
        <time>2024-06-24T22:31:24.114Z</time>
      </trkpt>
      <trkpt lat="46.72397" lon="-0.43148">
        <ele>204.88</ele>
        <time>2024-06-24T22:31:31.069Z</time>
      </trkpt>
      <trkpt lat="46.72394" lon="-0.43152">
        <ele>205.05</ele>
        <time>2024-06-24T22:31:38.025Z</time>
      </trkpt>
      <trkpt lat="46.72392" lon="-0.43155">
        <ele>205.22</ele>
        <time>2024-06-24T22:31:44.981Z</time>
      </trkpt>
      <trkpt lat="46.72389" lon="-0.43158">
        <ele>205.39</ele>
        <time>2024-06-24T22:31:51.938Z</time>
      </trkpt>
      <trkpt lat="46.72386" lon="-0.43161">
        <ele>205.55</ele>
        <time>2024-06-24T22:31:58.896Z</time>
      </trkpt>
      <trkpt lat="46.72383" lon="-0.43164">
        <ele>205.72</ele>
        <time>2024-06-24T22:32:05.854Z</time>
      </trkpt>
      <trkpt lat="46.7238" lon="-0.43168">
        <ele>205.88</ele>
        <time>2024-06-24T22:32:12.813Z</time>
      </trkpt>
      <trkpt lat="46.72377" lon="-0.43171">
        <ele>206.03</ele>
        <time>2024-06-24T22:32:19.773Z</time>
      </trkpt>
      <trkpt lat="46.72374" lon="-0.43174">
        <ele>206.19</ele>
        <time>2024-06-24T22:32:26.734Z</time>
      </trkpt>
      <trkpt lat="46.72371" lon="-0.43177">
        <ele>206.34</ele>
        <time>2024-06-24T22:32:33.695Z</time>
      </trkpt>
      <trkpt lat="46.72368" lon="-0.43179">
        <ele>206.49</ele>
        <time>2024-06-24T22:32:40.657Z</time>
      </trkpt>
      <trkpt lat="46.72365" lon="-0.43182">
        <ele>206.64</ele>
        <time>2024-06-24T22:32:47.620Z</time>
      </trkpt>
      <trkpt lat="46.72362" lon="-0.43184">
        <ele>206.79</ele>
        <time>2024-06-24T22:32:54.583Z</time>
      </trkpt>
      <trkpt lat="46.72359" lon="-0.43185">
        <ele>206.94</ele>
        <time>2024-06-24T22:33:01.547Z</time>
      </trkpt>
      <trkpt lat="46.72356" lon="-0.43186">
        <ele>207.08</ele>
        <time>2024-06-24T22:33:08.512Z</time>
      </trkpt>
      <trkpt lat="46.72352" lon="-0.43188">
        <ele>207.22</ele>
        <time>2024-06-24T22:33:15.478Z</time>
      </trkpt>
      <trkpt lat="46.72348" lon="-0.43188">
        <ele>207.36</ele>
        <time>2024-06-24T22:33:22.444Z</time>
      </trkpt>
      <trkpt lat="46.72344" lon="-0.43189">
        <ele>207.5</ele>
        <time>2024-06-24T22:33:29.411Z</time>
      </trkpt>
      <trkpt lat="46.7234" lon="-0.43189">
        <ele>207.63</ele>
        <time>2024-06-24T22:33:36.379Z</time>
      </trkpt>
      <trkpt lat="46.72337" lon="-0.43189">
        <ele>207.76</ele>
        <time>2024-06-24T22:33:43.348Z</time>
      </trkpt>
      <trkpt lat="46.72333" lon="-0.43189">
        <ele>207.89</ele>
        <time>2024-06-24T22:33:50.317Z</time>
      </trkpt>
      <trkpt lat="46.72329" lon="-0.43188">
        <ele>208.01</ele>
        <time>2024-06-24T22:33:57.287Z</time>
      </trkpt>
      <trkpt lat="46.72326" lon="-0.43188">
        <ele>208.13</ele>
        <time>2024-06-24T22:34:04.258Z</time>
      </trkpt>
      <trkpt lat="46.72323" lon="-0.43188">
        <ele>208.25</ele>
        <time>2024-06-24T22:34:11.229Z</time>
      </trkpt>
      <trkpt lat="46.72319" lon="-0.43188">
        <ele>208.37</ele>
        <time>2024-06-24T22:34:18.201Z</time>
      </trkpt>
      <trkpt lat="46.72315" lon="-0.43188">
        <ele>208.48</ele>
        <time>2024-06-24T22:34:25.174Z</time>
      </trkpt>
      <trkpt lat="46.72312" lon="-0.43187">
        <ele>208.58</ele>
        <time>2024-06-24T22:34:32.148Z</time>
      </trkpt>
      <trkpt lat="46.72308" lon="-0.43187">
        <ele>208.69</ele>
        <time>2024-06-24T22:34:39.122Z</time>
      </trkpt>
      <trkpt lat="46.72304" lon="-0.43187">
        <ele>208.79</ele>
        <time>2024-06-24T22:34:46.097Z</time>
      </trkpt>
      <trkpt lat="46.723" lon="-0.43186">
        <ele>208.89</ele>
        <time>2024-06-24T22:34:53.073Z</time>
      </trkpt>
      <trkpt lat="46.72296" lon="-0.43185">
        <ele>208.98</ele>
        <time>2024-06-24T22:35:00.050Z</time>
      </trkpt>
      <trkpt lat="46.72292" lon="-0.43185">
        <ele>209.07</ele>
        <time>2024-06-24T22:35:07.028Z</time>
      </trkpt>
      <trkpt lat="46.72288" lon="-0.43185">
        <ele>209.16</ele>
        <time>2024-06-24T22:35:14.006Z</time>
      </trkpt>
      <trkpt lat="46.72284" lon="-0.43184">
        <ele>209.24</ele>
        <time>2024-06-24T22:35:20.985Z</time>
      </trkpt>
      <trkpt lat="46.72281" lon="-0.43184">
        <ele>209.32</ele>
        <time>2024-06-24T22:35:27.965Z</time>
      </trkpt>
      <trkpt lat="46.72278" lon="-0.43184">
        <ele>209.39</ele>
        <time>2024-06-24T22:35:34.945Z</time>
      </trkpt>
      <trkpt lat="46.72274" lon="-0.43184">
        <ele>209.46</ele>
        <time>2024-06-24T22:35:41.926Z</time>
      </trkpt>
      <trkpt lat="46.7227" lon="-0.43184">
        <ele>209.52</ele>
        <time>2024-06-24T22:35:48.908Z</time>
      </trkpt>
      <trkpt lat="46.72266" lon="-0.43185">
        <ele>209.58</ele>
        <time>2024-06-24T22:35:55.891Z</time>
      </trkpt>
      <trkpt lat="46.72262" lon="-0.43184">
        <ele>209.64</ele>
        <time>2024-06-24T22:36:02.875Z</time>
      </trkpt>
      <trkpt lat="46.72258" lon="-0.43184">
        <ele>209.7</ele>
        <time>2024-06-24T22:36:09.859Z</time>
      </trkpt>
      <trkpt lat="46.72254" lon="-0.43184">
        <ele>209.75</ele>
        <time>2024-06-24T22:36:16.844Z</time>
      </trkpt>
      <trkpt lat="46.72251" lon="-0.43186">
        <ele>209.8</ele>
        <time>2024-06-24T22:36:23.830Z</time>
      </trkpt>
      <trkpt lat="46.72248" lon="-0.43188">
        <ele>209.85</ele>
        <time>2024-06-24T22:36:30.817Z</time>
      </trkpt>
      <trkpt lat="46.72245" lon="-0.43192">
        <ele>209.89</ele>
        <time>2024-06-24T22:36:37.804Z</time>
      </trkpt>
      <trkpt lat="46.72244" lon="-0.43197">
        <ele>209.93</ele>
        <time>2024-06-24T22:36:44.792Z</time>
      </trkpt>
      <trkpt lat="46.72243" lon="-0.43203">
        <ele>209.96</ele>
        <time>2024-06-24T22:36:51.781Z</time>
      </trkpt>
      <trkpt lat="46.72242" lon="-0.43209">
        <ele>210</ele>
        <time>2024-06-24T22:36:58.771Z</time>
      </trkpt>
      <trkpt lat="46.72242" lon="-0.43215">
        <ele>210.03</ele>
        <time>2024-06-24T22:37:05.762Z</time>
      </trkpt>
      <trkpt lat="46.72241" lon="-0.43222">
        <ele>210.06</ele>
        <time>2024-06-24T22:37:12.754Z</time>
      </trkpt>
      <trkpt lat="46.7224" lon="-0.43229">
        <ele>210.08</ele>
        <time>2024-06-24T22:37:19.747Z</time>
      </trkpt>
      <trkpt lat="46.72239" lon="-0.43236">
        <ele>210.1</ele>
        <time>2024-06-24T22:37:26.741Z</time>
      </trkpt>
      <trkpt lat="46.72238" lon="-0.43242">
        <ele>210.11</ele>
        <time>2024-06-24T22:37:33.735Z</time>
      </trkpt>
      <trkpt lat="46.72238" lon="-0.4325">
        <ele>210.12</ele>
        <time>2024-06-24T22:37:40.730Z</time>
      </trkpt>
      <trkpt lat="46.72237" lon="-0.43258">
        <ele>210.12</ele>
        <time>2024-06-24T22:37:47.727Z</time>
      </trkpt>
      <trkpt lat="46.72236" lon="-0.43264">
        <ele>210.12</ele>
        <time>2024-06-24T22:37:54.724Z</time>
      </trkpt>
      <trkpt lat="46.72235" lon="-0.43271">
        <ele>210.12</ele>
        <time>2024-06-24T22:38:01.722Z</time>
      </trkpt>
      <trkpt lat="46.72234" lon="-0.43278">
        <ele>210.12</ele>
        <time>2024-06-24T22:38:08.721Z</time>
      </trkpt>
      <trkpt lat="46.72234" lon="-0.43284">
        <ele>210.12</ele>
        <time>2024-06-24T22:38:15.721Z</time>
      </trkpt>
      <trkpt lat="46.72236" lon="-0.4329">
        <ele>210.11</ele>
        <time>2024-06-24T22:38:22.722Z</time>
      </trkpt>
      <trkpt lat="46.72239" lon="-0.43294">
        <ele>210.11</ele>
        <time>2024-06-24T22:38:29.724Z</time>
      </trkpt>
      <trkpt lat="46.72242" lon="-0.43296">
        <ele>210.1</ele>
        <time>2024-06-24T22:38:36.727Z</time>
      </trkpt>
      <trkpt lat="46.72244" lon="-0.433">
        <ele>210.1</ele>
        <time>2024-06-24T22:38:43.730Z</time>
      </trkpt>
      <trkpt lat="46.72246" lon="-0.43305">
        <ele>210.09</ele>
        <time>2024-06-24T22:38:50.734Z</time>
      </trkpt>
      <trkpt lat="46.72248" lon="-0.43309">
        <ele>210.08</ele>
        <time>2024-06-24T22:38:57.739Z</time>
      </trkpt>
      <trkpt lat="46.72251" lon="-0.43314">
        <ele>210.07</ele>
        <time>2024-06-24T22:39:04.745Z</time>
      </trkpt>
      <trkpt lat="46.72254" lon="-0.4332">
        <ele>210.06</ele>
        <time>2024-06-24T22:39:11.752Z</time>
      </trkpt>
      <trkpt lat="46.72257" lon="-0.43326">
        <ele>210.04</ele>
        <time>2024-06-24T22:39:18.760Z</time>
      </trkpt>
      <trkpt lat="46.72259" lon="-0.43331">
        <ele>210.02</ele>
        <time>2024-06-24T22:39:25.769Z</time>
      </trkpt>
      <trkpt lat="46.72262" lon="-0.43337">
        <ele>210.01</ele>
        <time>2024-06-24T22:39:32.779Z</time>
      </trkpt>
      <trkpt lat="46.72265" lon="-0.43342">
        <ele>209.99</ele>
        <time>2024-06-24T22:39:39.789Z</time>
      </trkpt>
      <trkpt lat="46.72268" lon="-0.43347">
        <ele>209.97</ele>
        <time>2024-06-24T22:39:46.800Z</time>
      </trkpt>
      <trkpt lat="46.72271" lon="-0.43353">
        <ele>209.95</ele>
        <time>2024-06-24T22:39:53.812Z</time>
      </trkpt>
      <trkpt lat="46.72274" lon="-0.43358">
        <ele>209.93</ele>
        <time>2024-06-24T22:40:00.825Z</time>
      </trkpt>
      <trkpt lat="46.72277" lon="-0.43364">
        <ele>209.9</ele>
        <time>2024-06-24T22:40:07.839Z</time>
      </trkpt>
      <trkpt lat="46.7228" lon="-0.43369">
        <ele>209.88</ele>
        <time>2024-06-24T22:40:14.854Z</time>
      </trkpt>
      <trkpt lat="46.72283" lon="-0.43375">
        <ele>209.86</ele>
        <time>2024-06-24T22:40:21.870Z</time>
      </trkpt>
      <trkpt lat="46.72286" lon="-0.43381">
        <ele>209.83</ele>
        <time>2024-06-24T22:40:28.887Z</time>
      </trkpt>
      <trkpt lat="46.72289" lon="-0.43387">
        <ele>209.8</ele>
        <time>2024-06-24T22:40:35.905Z</time>
      </trkpt>
      <trkpt lat="46.72292" lon="-0.43393">
        <ele>209.76</ele>
        <time>2024-06-24T22:40:42.924Z</time>
      </trkpt>
      <trkpt lat="46.72295" lon="-0.43399">
        <ele>209.73</ele>
        <time>2024-06-24T22:40:49.944Z</time>
      </trkpt>
      <trkpt lat="46.72298" lon="-0.43405">
        <ele>209.69</ele>
        <time>2024-06-24T22:40:56.965Z</time>
      </trkpt>
      <trkpt lat="46.72301" lon="-0.4341">
        <ele>209.65</ele>
        <time>2024-06-24T22:41:03.987Z</time>
      </trkpt>
      <trkpt lat="46.72304" lon="-0.43416">
        <ele>209.62</ele>
        <time>2024-06-24T22:41:11.010Z</time>
      </trkpt>
      <trkpt lat="46.72307" lon="-0.43422">
        <ele>209.58</ele>
        <time>2024-06-24T22:41:18.034Z</time>
      </trkpt>
      <trkpt lat="46.7231" lon="-0.43429">
        <ele>209.55</ele>
        <time>2024-06-24T22:41:25.059Z</time>
      </trkpt>
      <trkpt lat="46.72313" lon="-0.43434">
        <ele>209.52</ele>
        <time>2024-06-24T22:41:32.085Z</time>
      </trkpt>
      <trkpt lat="46.72316" lon="-0.4344">
        <ele>209.48</ele>
        <time>2024-06-24T22:41:39.112Z</time>
      </trkpt>
      <trkpt lat="46.72319" lon="-0.43446">
        <ele>209.44</ele>
        <time>2024-06-24T22:41:46.140Z</time>
      </trkpt>
      <trkpt lat="46.72321" lon="-0.43452">
        <ele>209.41</ele>
        <time>2024-06-24T22:41:53.169Z</time>
      </trkpt>
      <trkpt lat="46.72325" lon="-0.43458">
        <ele>209.37</ele>
        <time>2024-06-24T22:42:00.199Z</time>
      </trkpt>
      <trkpt lat="46.72328" lon="-0.43464">
        <ele>209.33</ele>
        <time>2024-06-24T22:42:07.231Z</time>
      </trkpt>
      <trkpt lat="46.72332" lon="-0.43471">
        <ele>209.3</ele>
        <time>2024-06-24T22:42:14.264Z</time>
      </trkpt>
      <trkpt lat="46.72336" lon="-0.43477">
        <ele>209.26</ele>
        <time>2024-06-24T22:42:21.298Z</time>
      </trkpt>
      <trkpt lat="46.72339" lon="-0.43484">
        <ele>209.22</ele>
        <time>2024-06-24T22:42:28.333Z</time>
      </trkpt>
      <trkpt lat="46.72343" lon="-0.4349">
        <ele>209.19</ele>
        <time>2024-06-24T22:42:35.369Z</time>
      </trkpt>
      <trkpt lat="46.72346" lon="-0.43496">
        <ele>209.15</ele>
        <time>2024-06-24T22:42:42.406Z</time>
      </trkpt>
      <trkpt lat="46.72349" lon="-0.43502">
        <ele>209.11</ele>
        <time>2024-06-24T22:42:49.444Z</time>
      </trkpt>
      <trkpt lat="46.72352" lon="-0.43509">
        <ele>209.07</ele>
        <time>2024-06-24T22:42:56.483Z</time>
      </trkpt>
      <trkpt lat="46.72355" lon="-0.43515">
        <ele>209.04</ele>
        <time>2024-06-24T22:43:03.523Z</time>
      </trkpt>
      <trkpt lat="46.72359" lon="-0.43521">
        <ele>209.01</ele>
        <time>2024-06-24T22:43:10.565Z</time>
      </trkpt>
      <trkpt lat="46.72362" lon="-0.43528">
        <ele>208.98</ele>
        <time>2024-06-24T22:43:17.608Z</time>
      </trkpt>
      <trkpt lat="46.72365" lon="-0.43534">
        <ele>208.95</ele>
        <time>2024-06-24T22:43:24.652Z</time>
      </trkpt>
      <trkpt lat="46.72368" lon="-0.4354">
        <ele>208.91</ele>
        <time>2024-06-24T22:43:31.697Z</time>
      </trkpt>
      <trkpt lat="46.72372" lon="-0.43546">
        <ele>208.88</ele>
        <time>2024-06-24T22:43:38.743Z</time>
      </trkpt>
      <trkpt lat="46.72375" lon="-0.43552">
        <ele>208.85</ele>
        <time>2024-06-24T22:43:45.790Z</time>
      </trkpt>
      <trkpt lat="46.72378" lon="-0.43558">
        <ele>208.82</ele>
        <time>2024-06-24T22:43:52.838Z</time>
      </trkpt>
      <trkpt lat="46.72382" lon="-0.43565">
        <ele>208.78</ele>
        <time>2024-06-24T22:43:59.887Z</time>
      </trkpt>
      <trkpt lat="46.72385" lon="-0.43571">
        <ele>208.76</ele>
        <time>2024-06-24T22:44:06.937Z</time>
      </trkpt>
      <trkpt lat="46.72389" lon="-0.43578">
        <ele>208.73</ele>
        <time>2024-06-24T22:44:13.988Z</time>
      </trkpt>
      <trkpt lat="46.72392" lon="-0.43585">
        <ele>208.71</ele>
        <time>2024-06-24T22:44:21.041Z</time>
      </trkpt>
      <trkpt lat="46.72396" lon="-0.43591">
        <ele>208.67</ele>
        <time>2024-06-24T22:44:28.095Z</time>
      </trkpt>
      <trkpt lat="46.72399" lon="-0.43598">
        <ele>208.64</ele>
        <time>2024-06-24T22:44:35.150Z</time>
      </trkpt>
      <trkpt lat="46.72402" lon="-0.43604">
        <ele>208.61</ele>
        <time>2024-06-24T22:44:42.206Z</time>
      </trkpt>
      <trkpt lat="46.72406" lon="-0.43611">
        <ele>208.58</ele>
        <time>2024-06-24T22:44:49.263Z</time>
      </trkpt>
      <trkpt lat="46.72409" lon="-0.43617">
        <ele>208.55</ele>
        <time>2024-06-24T22:44:56.321Z</time>
      </trkpt>
      <trkpt lat="46.72413" lon="-0.43624">
        <ele>208.52</ele>
        <time>2024-06-24T22:45:03.380Z</time>
      </trkpt>
      <trkpt lat="46.72417" lon="-0.4363">
        <ele>208.48</ele>
        <time>2024-06-24T22:45:10.441Z</time>
      </trkpt>
      <trkpt lat="46.7242" lon="-0.43637">
        <ele>208.44</ele>
        <time>2024-06-24T22:45:17.503Z</time>
      </trkpt>
      <trkpt lat="46.72423" lon="-0.43643">
        <ele>208.41</ele>
        <time>2024-06-24T22:45:24.566Z</time>
      </trkpt>
      <trkpt lat="46.72426" lon="-0.4365">
        <ele>208.37</ele>
        <time>2024-06-24T22:45:31.630Z</time>
      </trkpt>
      <trkpt lat="46.7243" lon="-0.43656">
        <ele>208.34</ele>
        <time>2024-06-24T22:45:38.695Z</time>
      </trkpt>
      <trkpt lat="46.72434" lon="-0.43663">
        <ele>208.31</ele>
        <time>2024-06-24T22:45:45.761Z</time>
      </trkpt>
      <trkpt lat="46.72437" lon="-0.43669">
        <ele>208.27</ele>
        <time>2024-06-24T22:45:52.828Z</time>
      </trkpt>
      <trkpt lat="46.7244" lon="-0.43676">
        <ele>208.23</ele>
        <time>2024-06-24T22:45:59.896Z</time>
      </trkpt>
      <trkpt lat="46.72443" lon="-0.43682">
        <ele>208.18</ele>
        <time>2024-06-24T22:46:06.965Z</time>
      </trkpt>
      <trkpt lat="46.72447" lon="-0.43688">
        <ele>208.12</ele>
        <time>2024-06-24T22:46:14.035Z</time>
      </trkpt>
      <trkpt lat="46.7245" lon="-0.43694">
        <ele>208.07</ele>
        <time>2024-06-24T22:46:21.107Z</time>
      </trkpt>
      <trkpt lat="46.72453" lon="-0.437">
        <ele>208.01</ele>
        <time>2024-06-24T22:46:28.180Z</time>
      </trkpt>
      <trkpt lat="46.72456" lon="-0.43707">
        <ele>207.96</ele>
        <time>2024-06-24T22:46:35.254Z</time>
      </trkpt>
      <trkpt lat="46.7246" lon="-0.43713">
        <ele>207.9</ele>
        <time>2024-06-24T22:46:42.329Z</time>
      </trkpt>
      <trkpt lat="46.72463" lon="-0.4372">
        <ele>207.83</ele>
        <time>2024-06-24T22:46:49.405Z</time>
      </trkpt>
      <trkpt lat="46.72467" lon="-0.43726">
        <ele>207.75</ele>
        <time>2024-06-24T22:46:56.482Z</time>
      </trkpt>
      <trkpt lat="46.7247" lon="-0.43732">
        <ele>207.66</ele>
        <time>2024-06-24T22:47:03.560Z</time>
      </trkpt>
      <trkpt lat="46.72473" lon="-0.43739">
        <ele>207.58</ele>
        <time>2024-06-24T22:47:10.639Z</time>
      </trkpt>
      <trkpt lat="46.72476" lon="-0.43745">
        <ele>207.49</ele>
        <time>2024-06-24T22:47:17.719Z</time>
      </trkpt>
      <trkpt lat="46.7248" lon="-0.43752">
        <ele>207.39</ele>
        <time>2024-06-24T22:47:24.800Z</time>
      </trkpt>
      <trkpt lat="46.72483" lon="-0.43758">
        <ele>207.29</ele>
        <time>2024-06-24T22:47:31.883Z</time>
      </trkpt>
      <trkpt lat="46.72487" lon="-0.43764">
        <ele>207.18</ele>
        <time>2024-06-24T22:47:38.967Z</time>
      </trkpt>
      <trkpt lat="46.7249" lon="-0.43771">
        <ele>207.08</ele>
        <time>2024-06-24T22:47:46.052Z</time>
      </trkpt>
      <trkpt lat="46.72494" lon="-0.43777">
        <ele>206.97</ele>
        <time>2024-06-24T22:47:53.138Z</time>
      </trkpt>
      <trkpt lat="46.72497" lon="-0.43784">
        <ele>206.86</ele>
        <time>2024-06-24T22:48:00.225Z</time>
      </trkpt>
      <trkpt lat="46.72501" lon="-0.4379">
        <ele>206.75</ele>
        <time>2024-06-24T22:48:07.313Z</time>
      </trkpt>
      <trkpt lat="46.72505" lon="-0.43796">
        <ele>206.63</ele>
        <time>2024-06-24T22:48:14.402Z</time>
      </trkpt>
      <trkpt lat="46.72509" lon="-0.43802">
        <ele>206.5</ele>
        <time>2024-06-24T22:48:21.493Z</time>
      </trkpt>
      <trkpt lat="46.72513" lon="-0.43809">
        <ele>206.38</ele>
        <time>2024-06-24T22:48:28.585Z</time>
      </trkpt>
      <trkpt lat="46.72517" lon="-0.43815">
        <ele>206.25</ele>
        <time>2024-06-24T22:48:35.678Z</time>
      </trkpt>
      <trkpt lat="46.72522" lon="-0.43821">
        <ele>206.12</ele>
        <time>2024-06-24T22:48:42.772Z</time>
      </trkpt>
      <trkpt lat="46.72526" lon="-0.43827">
        <ele>206</ele>
        <time>2024-06-24T22:48:49.867Z</time>
      </trkpt>
      <trkpt lat="46.7253" lon="-0.43833">
        <ele>205.88</ele>
        <time>2024-06-24T22:48:56.964Z</time>
      </trkpt>
      <trkpt lat="46.72535" lon="-0.4384">
        <ele>205.76</ele>
        <time>2024-06-24T22:49:04.062Z</time>
      </trkpt>
      <trkpt lat="46.72539" lon="-0.43846">
        <ele>205.63</ele>
        <time>2024-06-24T22:49:11.161Z</time>
      </trkpt>
      <trkpt lat="46.72544" lon="-0.43851">
        <ele>205.51</ele>
        <time>2024-06-24T22:49:18.261Z</time>
      </trkpt>
      <trkpt lat="46.72548" lon="-0.43856">
        <ele>205.39</ele>
        <time>2024-06-24T22:49:25.362Z</time>
      </trkpt>
      <trkpt lat="46.72553" lon="-0.43862">
        <ele>205.28</ele>
        <time>2024-06-24T22:49:32.465Z</time>
      </trkpt>
      <trkpt lat="46.72557" lon="-0.43868">
        <ele>205.16</ele>
        <time>2024-06-24T22:49:39.569Z</time>
      </trkpt>
      <trkpt lat="46.72561" lon="-0.43873">
        <ele>205.05</ele>
        <time>2024-06-24T22:49:46.674Z</time>
      </trkpt>
      <trkpt lat="46.72565" lon="-0.43878">
        <ele>204.95</ele>
        <time>2024-06-24T22:49:53.780Z</time>
      </trkpt>
      <trkpt lat="46.7257" lon="-0.43883">
        <ele>204.84</ele>
        <time>2024-06-24T22:50:00.887Z</time>
      </trkpt>
      <trkpt lat="46.72574" lon="-0.43888">
        <ele>204.73</ele>
        <time>2024-06-24T22:50:07.995Z</time>
      </trkpt>
      <trkpt lat="46.72579" lon="-0.43893">
        <ele>204.61</ele>
        <time>2024-06-24T22:50:15.104Z</time>
      </trkpt>
      <trkpt lat="46.72584" lon="-0.43898">
        <ele>204.51</ele>
        <time>2024-06-24T22:50:22.215Z</time>
      </trkpt>
      <trkpt lat="46.72589" lon="-0.43903">
        <ele>204.41</ele>
        <time>2024-06-24T22:50:29.327Z</time>
      </trkpt>
      <trkpt lat="46.72594" lon="-0.43907">
        <ele>204.31</ele>
        <time>2024-06-24T22:50:36.440Z</time>
      </trkpt>
      <trkpt lat="46.72599" lon="-0.43912">
        <ele>204.22</ele>
        <time>2024-06-24T22:50:43.554Z</time>
      </trkpt>
      <trkpt lat="46.72604" lon="-0.43916">
        <ele>204.14</ele>
        <time>2024-06-24T22:50:50.669Z</time>
      </trkpt>
      <trkpt lat="46.72609" lon="-0.4392">
        <ele>204.06</ele>
        <time>2024-06-24T22:50:57.785Z</time>
      </trkpt>
      <trkpt lat="46.72614" lon="-0.43924">
        <ele>203.98</ele>
        <time>2024-06-24T22:51:04.902Z</time>
      </trkpt>
      <trkpt lat="46.72618" lon="-0.43928">
        <ele>203.91</ele>
        <time>2024-06-24T22:51:12.021Z</time>
      </trkpt>
      <trkpt lat="46.72623" lon="-0.43933">
        <ele>203.84</ele>
        <time>2024-06-24T22:51:19.141Z</time>
      </trkpt>
      <trkpt lat="46.72628" lon="-0.43937">
        <ele>203.77</ele>
        <time>2024-06-24T22:51:26.262Z</time>
      </trkpt>
      <trkpt lat="46.72634" lon="-0.43941">
        <ele>203.7</ele>
        <time>2024-06-24T22:51:33.384Z</time>
      </trkpt>
      <trkpt lat="46.72638" lon="-0.43945">
        <ele>203.64</ele>
        <time>2024-06-24T22:51:40.507Z</time>
      </trkpt>
      <trkpt lat="46.72642" lon="-0.43949">
        <ele>203.58</ele>
        <time>2024-06-24T22:51:47.631Z</time>
      </trkpt>
      <trkpt lat="46.72648" lon="-0.43952">
        <ele>203.52</ele>
        <time>2024-06-24T22:51:54.756Z</time>
      </trkpt>
      <trkpt lat="46.72654" lon="-0.43956">
        <ele>203.46</ele>
        <time>2024-06-24T22:52:01.883Z</time>
      </trkpt>
      <trkpt lat="46.72659" lon="-0.43959">
        <ele>203.41</ele>
        <time>2024-06-24T22:52:09.011Z</time>
      </trkpt>
      <trkpt lat="46.72664" lon="-0.43963">
        <ele>203.36</ele>
        <time>2024-06-24T22:52:16.140Z</time>
      </trkpt>
      <trkpt lat="46.7267" lon="-0.43966">
        <ele>203.32</ele>
        <time>2024-06-24T22:52:23.270Z</time>
      </trkpt>
      <trkpt lat="46.72675" lon="-0.43969">
        <ele>203.27</ele>
        <time>2024-06-24T22:52:30.401Z</time>
      </trkpt>
      <trkpt lat="46.72681" lon="-0.43973">
        <ele>203.24</ele>
        <time>2024-06-24T22:52:37.534Z</time>
      </trkpt>
      <trkpt lat="46.72687" lon="-0.43976">
        <ele>203.2</ele>
        <time>2024-06-24T22:52:44.668Z</time>
      </trkpt>
      <trkpt lat="46.72693" lon="-0.43979">
        <ele>203.16</ele>
        <time>2024-06-24T22:52:51.803Z</time>
      </trkpt>
      <trkpt lat="46.72699" lon="-0.43982">
        <ele>203.13</ele>
        <time>2024-06-24T22:52:58.939Z</time>
      </trkpt>
      <trkpt lat="46.72704" lon="-0.43984">
        <ele>203.1</ele>
        <time>2024-06-24T22:53:06.077Z</time>
      </trkpt>
      <trkpt lat="46.7271" lon="-0.43986">
        <ele>203.07</ele>
        <time>2024-06-24T22:53:13.216Z</time>
      </trkpt>
      <trkpt lat="46.72716" lon="-0.43989">
        <ele>203.05</ele>
        <time>2024-06-24T22:53:20.356Z</time>
      </trkpt>
      <trkpt lat="46.72721" lon="-0.43991">
        <ele>203.02</ele>
        <time>2024-06-24T22:53:27.497Z</time>
      </trkpt>
      <trkpt lat="46.72727" lon="-0.43994">
        <ele>203</ele>
        <time>2024-06-24T22:53:34.639Z</time>
      </trkpt>
      <trkpt lat="46.72732" lon="-0.43996">
        <ele>202.99</ele>
        <time>2024-06-24T22:53:41.782Z</time>
      </trkpt>
      <trkpt lat="46.72738" lon="-0.43998">
        <ele>202.98</ele>
        <time>2024-06-24T22:53:48.926Z</time>
      </trkpt>
      <trkpt lat="46.72743" lon="-0.44">
        <ele>202.97</ele>
        <time>2024-06-24T22:53:56.071Z</time>
      </trkpt>
      <trkpt lat="46.72748" lon="-0.44001">
        <ele>202.95</ele>
        <time>2024-06-24T22:54:03.218Z</time>
      </trkpt>
      <trkpt lat="46.72754" lon="-0.44002">
        <ele>202.94</ele>
        <time>2024-06-24T22:54:10.366Z</time>
      </trkpt>
      <trkpt lat="46.7276" lon="-0.44004">
        <ele>202.93</ele>
        <time>2024-06-24T22:54:17.515Z</time>
      </trkpt>
      <trkpt lat="46.72765" lon="-0.44005">
        <ele>202.91</ele>
        <time>2024-06-24T22:54:24.665Z</time>
      </trkpt>
      <trkpt lat="46.72771" lon="-0.44006">
        <ele>202.9</ele>
        <time>2024-06-24T22:54:31.816Z</time>
      </trkpt>
      <trkpt lat="46.72777" lon="-0.44008">
        <ele>202.88</ele>
        <time>2024-06-24T22:54:38.968Z</time>
      </trkpt>
      <trkpt lat="46.72783" lon="-0.4401">
        <ele>202.87</ele>
        <time>2024-06-24T22:54:46.122Z</time>
      </trkpt>
      <trkpt lat="46.72789" lon="-0.44011">
        <ele>202.84</ele>
        <time>2024-06-24T22:54:53.277Z</time>
      </trkpt>
      <trkpt lat="46.72795" lon="-0.44013">
        <ele>202.81</ele>
        <time>2024-06-24T22:55:00.433Z</time>
      </trkpt>
      <trkpt lat="46.72801" lon="-0.44014">
        <ele>202.78</ele>
        <time>2024-06-24T22:55:07.590Z</time>
      </trkpt>
      <trkpt lat="46.72807" lon="-0.44015">
        <ele>202.75</ele>
        <time>2024-06-24T22:55:14.748Z</time>
      </trkpt>
      <trkpt lat="46.72813" lon="-0.44016">
        <ele>202.72</ele>
        <time>2024-06-24T22:55:21.908Z</time>
      </trkpt>
      <trkpt lat="46.72819" lon="-0.44016">
        <ele>202.68</ele>
        <time>2024-06-24T22:55:29.069Z</time>
      </trkpt>
      <trkpt lat="46.72824" lon="-0.44017">
        <ele>202.64</ele>
        <time>2024-06-24T22:55:36.231Z</time>
      </trkpt>
      <trkpt lat="46.7283" lon="-0.44018">
        <ele>202.59</ele>
        <time>2024-06-24T22:55:43.394Z</time>
      </trkpt>
      <trkpt lat="46.72836" lon="-0.44017">
        <ele>202.54</ele>
        <time>2024-06-24T22:55:50.558Z</time>
      </trkpt>
      <trkpt lat="46.72841" lon="-0.44017">
        <ele>202.49</ele>
        <time>2024-06-24T22:55:57.723Z</time>
      </trkpt>
      <trkpt lat="46.72847" lon="-0.44016">
        <ele>202.44</ele>
        <time>2024-06-24T22:56:04.889Z</time>
      </trkpt>
      <trkpt lat="46.72852" lon="-0.44015">
        <ele>202.39</ele>
        <time>2024-06-24T22:56:12.056Z</time>
      </trkpt>
      <trkpt lat="46.72857" lon="-0.44015">
        <ele>202.34</ele>
        <time>2024-06-24T22:56:19.225Z</time>
      </trkpt>
      <trkpt lat="46.72863" lon="-0.44014">
        <ele>202.29</ele>
        <time>2024-06-24T22:56:26.395Z</time>
      </trkpt>
      <trkpt lat="46.72869" lon="-0.44014">
        <ele>202.23</ele>
        <time>2024-06-24T22:56:33.566Z</time>
      </trkpt>
      <trkpt lat="46.72875" lon="-0.44014">
        <ele>202.18</ele>
        <time>2024-06-24T22:56:40.738Z</time>
      </trkpt>
      <trkpt lat="46.7288" lon="-0.44013">
        <ele>202.12</ele>
        <time>2024-06-24T22:56:47.911Z</time>
      </trkpt>
      <trkpt lat="46.72886" lon="-0.44012">
        <ele>202.05</ele>
        <time>2024-06-24T22:56:55.085Z</time>
      </trkpt>
      <trkpt lat="46.72891" lon="-0.44012">
        <ele>201.99</ele>
        <time>2024-06-24T22:57:02.260Z</time>
      </trkpt>
      <trkpt lat="46.72897" lon="-0.44012">
        <ele>201.92</ele>
        <time>2024-06-24T22:57:09.437Z</time>
      </trkpt>
      <trkpt lat="46.72902" lon="-0.44011">
        <ele>201.84</ele>
        <time>2024-06-24T22:57:16.615Z</time>
      </trkpt>
      <trkpt lat="46.72908" lon="-0.4401">
        <ele>201.76</ele>
        <time>2024-06-24T22:57:23.794Z</time>
      </trkpt>
      <trkpt lat="46.72914" lon="-0.44008">
        <ele>201.68</ele>
        <time>2024-06-24T22:57:30.974Z</time>
      </trkpt>
      <trkpt lat="46.7292" lon="-0.44008">
        <ele>201.6</ele>
        <time>2024-06-24T22:57:38.155Z</time>
      </trkpt>
      <trkpt lat="46.72925" lon="-0.44007">
        <ele>201.52</ele>
        <time>2024-06-24T22:57:45.337Z</time>
      </trkpt>
      <trkpt lat="46.72931" lon="-0.44006">
        <ele>201.43</ele>
        <time>2024-06-24T22:57:52.520Z</time>
      </trkpt>
      <trkpt lat="46.72937" lon="-0.44005">
        <ele>201.34</ele>
        <time>2024-06-24T22:57:59.705Z</time>
      </trkpt>
      <trkpt lat="46.72943" lon="-0.44004">
        <ele>201.24</ele>
        <time>2024-06-24T22:58:06.891Z</time>
      </trkpt>
      <trkpt lat="46.72949" lon="-0.44003">
        <ele>201.15</ele>
        <time>2024-06-24T22:58:14.078Z</time>
      </trkpt>
      <trkpt lat="46.72955" lon="-0.44002">
        <ele>201.05</ele>
        <time>2024-06-24T22:58:21.266Z</time>
      </trkpt>
      <trkpt lat="46.72961" lon="-0.44001">
        <ele>200.96</ele>
        <time>2024-06-24T22:58:28.455Z</time>
      </trkpt>
      <trkpt lat="46.72967" lon="-0.44">
        <ele>200.86</ele>
        <time>2024-06-24T22:58:35.646Z</time>
      </trkpt>
      <trkpt lat="46.72972" lon="-0.43999">
        <ele>200.77</ele>
        <time>2024-06-24T22:58:42.838Z</time>
      </trkpt>
      <trkpt lat="46.72978" lon="-0.43999">
        <ele>200.67</ele>
        <time>2024-06-24T22:58:50.031Z</time>
      </trkpt>
      <trkpt lat="46.72983" lon="-0.43998">
        <ele>200.59</ele>
        <time>2024-06-24T22:58:57.225Z</time>
      </trkpt>
      <trkpt lat="46.72989" lon="-0.43998">
        <ele>200.5</ele>
        <time>2024-06-24T22:59:04.420Z</time>
      </trkpt>
      <trkpt lat="46.72995" lon="-0.43997">
        <ele>200.41</ele>
        <time>2024-06-24T22:59:11.616Z</time>
      </trkpt>
      <trkpt lat="46.73001" lon="-0.43995">
        <ele>200.33</ele>
        <time>2024-06-24T22:59:18.814Z</time>
      </trkpt>
      <trkpt lat="46.73007" lon="-0.43994">
        <ele>200.24</ele>
        <time>2024-06-24T22:59:26.013Z</time>
      </trkpt>
      <trkpt lat="46.73013" lon="-0.43994">
        <ele>200.17</ele>
        <time>2024-06-24T22:59:33.213Z</time>
      </trkpt>
      <trkpt lat="46.73018" lon="-0.43993">
        <ele>200.09</ele>
        <time>2024-06-24T22:59:40.414Z</time>
      </trkpt>
      <trkpt lat="46.73023" lon="-0.43992">
        <ele>200.01</ele>
        <time>2024-06-24T22:59:47.616Z</time>
      </trkpt>
      <trkpt lat="46.7303" lon="-0.43992">
        <ele>199.94</ele>
        <time>2024-06-24T22:59:54.819Z</time>
      </trkpt>
      <trkpt lat="46.73035" lon="-0.43991">
        <ele>199.87</ele>
        <time>2024-06-24T23:00:02.023Z</time>
      </trkpt>
      <trkpt lat="46.73041" lon="-0.4399">
        <ele>199.79</ele>
        <time>2024-06-24T23:00:09.229Z</time>
      </trkpt>
      <trkpt lat="46.73047" lon="-0.43989">
        <ele>199.72</ele>
        <time>2024-06-24T23:00:16.436Z</time>
      </trkpt>
      <trkpt lat="46.73052" lon="-0.43988">
        <ele>199.66</ele>
        <time>2024-06-24T23:00:23.644Z</time>
      </trkpt>
      <trkpt lat="46.73058" lon="-0.43987">
        <ele>199.59</ele>
        <time>2024-06-24T23:00:30.853Z</time>
      </trkpt>
      <trkpt lat="46.73063" lon="-0.43986">
        <ele>199.53</ele>
        <time>2024-06-24T23:00:38.063Z</time>
      </trkpt>
      <trkpt lat="46.73069" lon="-0.43985">
        <ele>199.46</ele>
        <time>2024-06-24T23:00:45.274Z</time>
      </trkpt>
      <trkpt lat="46.73075" lon="-0.43985">
        <ele>199.39</ele>
        <time>2024-06-24T23:00:52.486Z</time>
      </trkpt>
      <trkpt lat="46.7308" lon="-0.43984">
        <ele>199.32</ele>
        <time>2024-06-24T23:00:59.699Z</time>
      </trkpt>
      <trkpt lat="46.73087" lon="-0.43983">
        <ele>199.26</ele>
        <time>2024-06-24T23:01:06.914Z</time>
      </trkpt>
      <trkpt lat="46.73092" lon="-0.43982">
        <ele>199.19</ele>
        <time>2024-06-24T23:01:14.130Z</time>
      </trkpt>
      <trkpt lat="46.73098" lon="-0.43981">
        <ele>199.12</ele>
        <time>2024-06-24T23:01:21.347Z</time>
      </trkpt>
      <trkpt lat="46.73104" lon="-0.43981">
        <ele>199.06</ele>
        <time>2024-06-24T23:01:28.565Z</time>
      </trkpt>
      <trkpt lat="46.7311" lon="-0.4398">
        <ele>198.99</ele>
        <time>2024-06-24T23:01:35.784Z</time>
      </trkpt>
      <trkpt lat="46.73115" lon="-0.43979">
        <ele>198.93</ele>
        <time>2024-06-24T23:01:43.004Z</time>
      </trkpt>
      <trkpt lat="46.7312" lon="-0.43978">
        <ele>198.87</ele>
        <time>2024-06-24T23:01:50.226Z</time>
      </trkpt>
      <trkpt lat="46.73126" lon="-0.43977">
        <ele>198.82</ele>
        <time>2024-06-24T23:01:57.449Z</time>
      </trkpt>
      <trkpt lat="46.73131" lon="-0.43976">
        <ele>198.76</ele>
        <time>2024-06-24T23:02:04.673Z</time>
      </trkpt>
      <trkpt lat="46.73137" lon="-0.43975">
        <ele>198.72</ele>
        <time>2024-06-24T23:02:11.898Z</time>
      </trkpt>
      <trkpt lat="46.73143" lon="-0.43974">
        <ele>198.67</ele>
        <time>2024-06-24T23:02:19.124Z</time>
      </trkpt>
      <trkpt lat="46.73148" lon="-0.43974">
        <ele>198.64</ele>
        <time>2024-06-24T23:02:26.351Z</time>
      </trkpt>
      <trkpt lat="46.73154" lon="-0.43973">
        <ele>198.61</ele>
        <time>2024-06-24T23:02:33.579Z</time>
      </trkpt>
      <trkpt lat="46.73159" lon="-0.43972">
        <ele>198.59</ele>
        <time>2024-06-24T23:02:40.808Z</time>
      </trkpt>
      <trkpt lat="46.73165" lon="-0.43971">
        <ele>198.58</ele>
        <time>2024-06-24T23:02:48.039Z</time>
      </trkpt>
      <trkpt lat="46.7317" lon="-0.4397">
        <ele>198.56</ele>
        <time>2024-06-24T23:02:55.271Z</time>
      </trkpt>
      <trkpt lat="46.73176" lon="-0.43969">
        <ele>198.56</ele>
        <time>2024-06-24T23:03:02.504Z</time>
      </trkpt>
      <trkpt lat="46.73182" lon="-0.43968">
        <ele>198.55</ele>
        <time>2024-06-24T23:03:09.738Z</time>
      </trkpt>
      <trkpt lat="46.73188" lon="-0.43968">
        <ele>198.56</ele>
        <time>2024-06-24T23:03:16.973Z</time>
      </trkpt>
      <trkpt lat="46.73194" lon="-0.43967">
        <ele>198.57</ele>
        <time>2024-06-24T23:03:24.209Z</time>
      </trkpt>
      <trkpt lat="46.73199" lon="-0.43966">
        <ele>198.58</ele>
        <time>2024-06-24T23:03:31.446Z</time>
      </trkpt>
      <trkpt lat="46.73205" lon="-0.43966">
        <ele>198.59</ele>
        <time>2024-06-24T23:03:38.684Z</time>
      </trkpt>
      <trkpt lat="46.7321" lon="-0.43965">
        <ele>198.6</ele>
        <time>2024-06-24T23:03:45.924Z</time>
      </trkpt>
      <trkpt lat="46.73215" lon="-0.43965">
        <ele>198.62</ele>
        <time>2024-06-24T23:03:53.165Z</time>
      </trkpt>
      <trkpt lat="46.73221" lon="-0.43964">
        <ele>198.63</ele>
        <time>2024-06-24T23:04:00.407Z</time>
      </trkpt>
      <trkpt lat="46.73227" lon="-0.43963">
        <ele>198.66</ele>
        <time>2024-06-24T23:04:07.650Z</time>
      </trkpt>
      <trkpt lat="46.73232" lon="-0.43962">
        <ele>198.68</ele>
        <time>2024-06-24T23:04:14.894Z</time>
      </trkpt>
      <trkpt lat="46.73238" lon="-0.4396">
        <ele>198.71</ele>
        <time>2024-06-24T23:04:22.139Z</time>
      </trkpt>
      <trkpt lat="46.73243" lon="-0.4396">
        <ele>198.74</ele>
        <time>2024-06-24T23:04:29.385Z</time>
      </trkpt>
      <trkpt lat="46.73248" lon="-0.43959">
        <ele>198.78</ele>
        <time>2024-06-24T23:04:36.632Z</time>
      </trkpt>
      <trkpt lat="46.73254" lon="-0.43958">
        <ele>198.82</ele>
        <time>2024-06-24T23:04:43.880Z</time>
      </trkpt>
      <trkpt lat="46.7326" lon="-0.43958">
        <ele>198.86</ele>
        <time>2024-06-24T23:04:51.130Z</time>
      </trkpt>
      <trkpt lat="46.73265" lon="-0.43957">
        <ele>198.91</ele>
        <time>2024-06-24T23:04:58.381Z</time>
      </trkpt>
      <trkpt lat="46.73271" lon="-0.43955">
        <ele>198.96</ele>
        <time>2024-06-24T23:05:05.633Z</time>
      </trkpt>
      <trkpt lat="46.73277" lon="-0.43954">
        <ele>199.02</ele>
        <time>2024-06-24T23:05:12.886Z</time>
      </trkpt>
      <trkpt lat="46.73282" lon="-0.43954">
        <ele>199.08</ele>
        <time>2024-06-24T23:05:20.140Z</time>
      </trkpt>
      <trkpt lat="46.73288" lon="-0.43954">
        <ele>199.15</ele>
        <time>2024-06-24T23:05:27.395Z</time>
      </trkpt>
      <trkpt lat="46.73293" lon="-0.43953">
        <ele>199.23</ele>
        <time>2024-06-24T23:05:34.651Z</time>
      </trkpt>
      <trkpt lat="46.73299" lon="-0.43952">
        <ele>199.3</ele>
        <time>2024-06-24T23:05:41.908Z</time>
      </trkpt>
      <trkpt lat="46.73304" lon="-0.43952">
        <ele>199.38</ele>
        <time>2024-06-24T23:05:49.166Z</time>
      </trkpt>
      <trkpt lat="46.73309" lon="-0.43952">
        <ele>199.46</ele>
        <time>2024-06-24T23:05:56.425Z</time>
      </trkpt>
      <trkpt lat="46.73314" lon="-0.43953">
        <ele>199.54</ele>
        <time>2024-06-24T23:06:03.685Z</time>
      </trkpt>
      <trkpt lat="46.7332" lon="-0.43953">
        <ele>199.62</ele>
        <time>2024-06-24T23:06:10.947Z</time>
      </trkpt>
      <trkpt lat="46.73326" lon="-0.43953">
        <ele>199.71</ele>
        <time>2024-06-24T23:06:18.210Z</time>
      </trkpt>
      <trkpt lat="46.73332" lon="-0.43953">
        <ele>199.79</ele>
        <time>2024-06-24T23:06:25.474Z</time>
      </trkpt>
      <trkpt lat="46.73337" lon="-0.43953">
        <ele>199.88</ele>
        <time>2024-06-24T23:06:32.739Z</time>
      </trkpt>
      <trkpt lat="46.73343" lon="-0.43954">
        <ele>199.98</ele>
        <time>2024-06-24T23:06:40.005Z</time>
      </trkpt>
      <trkpt lat="46.73348" lon="-0.43954">
        <ele>200.07</ele>
        <time>2024-06-24T23:06:47.272Z</time>
      </trkpt>
      <trkpt lat="46.73354" lon="-0.43955">
        <ele>200.17</ele>
        <time>2024-06-24T23:06:54.541Z</time>
      </trkpt>
      <trkpt lat="46.7336" lon="-0.43956">
        <ele>200.27</ele>
        <time>2024-06-24T23:07:01.811Z</time>
      </trkpt>
      <trkpt lat="46.73365" lon="-0.43957">
        <ele>200.37</ele>
        <time>2024-06-24T23:07:09.082Z</time>
      </trkpt>
      <trkpt lat="46.73371" lon="-0.43958">
        <ele>200.48</ele>
        <time>2024-06-24T23:07:16.354Z</time>
      </trkpt>
      <trkpt lat="46.73377" lon="-0.4396">
        <ele>200.59</ele>
        <time>2024-06-24T23:07:23.627Z</time>
      </trkpt>
      <trkpt lat="46.73382" lon="-0.4396">
        <ele>200.7</ele>
        <time>2024-06-24T23:07:30.901Z</time>
      </trkpt>
      <trkpt lat="46.73388" lon="-0.43962">
        <ele>200.82</ele>
        <time>2024-06-24T23:07:38.176Z</time>
      </trkpt>
      <trkpt lat="46.73394" lon="-0.43963">
        <ele>200.94</ele>
        <time>2024-06-24T23:07:45.453Z</time>
      </trkpt>
      <trkpt lat="46.734" lon="-0.43964">
        <ele>201.06</ele>
        <time>2024-06-24T23:07:52.731Z</time>
      </trkpt>
      <trkpt lat="46.73406" lon="-0.43966">
        <ele>201.19</ele>
        <time>2024-06-24T23:08:00.010Z</time>
      </trkpt>
      <trkpt lat="46.73411" lon="-0.43968">
        <ele>201.32</ele>
        <time>2024-06-24T23:08:07.290Z</time>
      </trkpt>
      <trkpt lat="46.73417" lon="-0.43969">
        <ele>201.45</ele>
        <time>2024-06-24T23:08:14.571Z</time>
      </trkpt>
      <trkpt lat="46.73423" lon="-0.43972">
        <ele>201.58</ele>
        <time>2024-06-24T23:08:21.853Z</time>
      </trkpt>
      <trkpt lat="46.73428" lon="-0.43974">
        <ele>201.71</ele>
        <time>2024-06-24T23:08:29.137Z</time>
      </trkpt>
      <trkpt lat="46.73434" lon="-0.43976">
        <ele>201.84</ele>
        <time>2024-06-24T23:08:36.422Z</time>
      </trkpt>
      <trkpt lat="46.73439" lon="-0.43979">
        <ele>201.97</ele>
        <time>2024-06-24T23:08:43.708Z</time>
      </trkpt>
      <trkpt lat="46.73445" lon="-0.43982">
        <ele>202.1</ele>
        <time>2024-06-24T23:08:50.995Z</time>
      </trkpt>
      <trkpt lat="46.7345" lon="-0.43984">
        <ele>202.24</ele>
        <time>2024-06-24T23:08:58.283Z</time>
      </trkpt>
      <trkpt lat="46.73456" lon="-0.43986">
        <ele>202.37</ele>
        <time>2024-06-24T23:09:05.572Z</time>
      </trkpt>
      <trkpt lat="46.73461" lon="-0.4399">
        <ele>202.51</ele>
        <time>2024-06-24T23:09:12.863Z</time>
      </trkpt>
      <trkpt lat="46.73467" lon="-0.43993">
        <ele>202.65</ele>
        <time>2024-06-24T23:09:20.155Z</time>
      </trkpt>
      <trkpt lat="46.73472" lon="-0.43996">
        <ele>202.8</ele>
        <time>2024-06-24T23:09:27.448Z</time>
      </trkpt>
      <trkpt lat="46.73477" lon="-0.43998">
        <ele>202.95</ele>
        <time>2024-06-24T23:09:34.742Z</time>
      </trkpt>
      <trkpt lat="46.73482" lon="-0.44001">
        <ele>203.09</ele>
        <time>2024-06-24T23:09:42.037Z</time>
      </trkpt>
      <trkpt lat="46.73487" lon="-0.44005">
        <ele>203.24</ele>
        <time>2024-06-24T23:09:49.333Z</time>
      </trkpt>
      <trkpt lat="46.73492" lon="-0.44009">
        <ele>203.39</ele>
        <time>2024-06-24T23:09:56.630Z</time>
      </trkpt>
      <trkpt lat="46.73497" lon="-0.44012">
        <ele>203.54</ele>
        <time>2024-06-24T23:10:03.928Z</time>
      </trkpt>
      <trkpt lat="46.73502" lon="-0.44016">
        <ele>203.69</ele>
        <time>2024-06-24T23:10:11.228Z</time>
      </trkpt>
      <trkpt lat="46.73508" lon="-0.44019">
        <ele>203.84</ele>
        <time>2024-06-24T23:10:18.529Z</time>
      </trkpt>
      <trkpt lat="46.73513" lon="-0.44023">
        <ele>204</ele>
        <time>2024-06-24T23:10:25.831Z</time>
      </trkpt>
      <trkpt lat="46.73518" lon="-0.44026">
        <ele>204.16</ele>
        <time>2024-06-24T23:10:33.134Z</time>
      </trkpt>
      <trkpt lat="46.73523" lon="-0.4403">
        <ele>204.32</ele>
        <time>2024-06-24T23:10:40.438Z</time>
      </trkpt>
      <trkpt lat="46.73529" lon="-0.44035">
        <ele>204.49</ele>
        <time>2024-06-24T23:10:47.743Z</time>
      </trkpt>
      <trkpt lat="46.73534" lon="-0.44038">
        <ele>204.66</ele>
        <time>2024-06-24T23:10:55.050Z</time>
      </trkpt>
      <trkpt lat="46.73538" lon="-0.44041">
        <ele>204.84</ele>
        <time>2024-06-24T23:11:02.358Z</time>
      </trkpt>
      <trkpt lat="46.73543" lon="-0.44046">
        <ele>205.01</ele>
        <time>2024-06-24T23:11:09.667Z</time>
      </trkpt>
      <trkpt lat="46.73547" lon="-0.44049">
        <ele>205.19</ele>
        <time>2024-06-24T23:11:16.977Z</time>
      </trkpt>
      <trkpt lat="46.73551" lon="-0.44054">
        <ele>205.37</ele>
        <time>2024-06-24T23:11:24.288Z</time>
      </trkpt>
      <trkpt lat="46.73556" lon="-0.44058">
        <ele>205.55</ele>
        <time>2024-06-24T23:11:31.600Z</time>
      </trkpt>
      <trkpt lat="46.7356" lon="-0.44062">
        <ele>205.74</ele>
        <time>2024-06-24T23:11:38.913Z</time>
      </trkpt>
      <trkpt lat="46.73563" lon="-0.44066">
        <ele>205.93</ele>
        <time>2024-06-24T23:11:46.227Z</time>
      </trkpt>
      <trkpt lat="46.73564" lon="-0.44071">
        <ele>206.13</ele>
        <time>2024-06-24T23:11:53.541Z</time>
      </trkpt>
      <trkpt lat="46.73565" lon="-0.44077">
        <ele>206.32</ele>
        <time>2024-06-24T23:12:00.856Z</time>
      </trkpt>
      <trkpt lat="46.73564" lon="-0.44083">
        <ele>206.52</ele>
        <time>2024-06-24T23:12:08.172Z</time>
      </trkpt>
      <trkpt lat="46.73564" lon="-0.44088">
        <ele>206.71</ele>
        <time>2024-06-24T23:12:15.489Z</time>
      </trkpt>
      <trkpt lat="46.73563" lon="-0.44093">
        <ele>206.91</ele>
        <time>2024-06-24T23:12:22.806Z</time>
      </trkpt>
      <trkpt lat="46.73564" lon="-0.441">
        <ele>207.1</ele>
        <time>2024-06-24T23:12:30.124Z</time>
      </trkpt>
      <trkpt lat="46.73564" lon="-0.44106">
        <ele>207.3</ele>
        <time>2024-06-24T23:12:37.443Z</time>
      </trkpt>
      <trkpt lat="46.73564" lon="-0.44111">
        <ele>207.49</ele>
        <time>2024-06-24T23:12:44.763Z</time>
      </trkpt>
      <trkpt lat="46.73564" lon="-0.44117">
        <ele>207.69</ele>
        <time>2024-06-24T23:12:52.084Z</time>
      </trkpt>
      <trkpt lat="46.73564" lon="-0.44123">
        <ele>207.89</ele>
        <time>2024-06-24T23:12:59.406Z</time>
      </trkpt>
      <trkpt lat="46.73563" lon="-0.44129">
        <ele>208.09</ele>
        <time>2024-06-24T23:13:06.728Z</time>
      </trkpt>
      <trkpt lat="46.73563" lon="-0.44134">
        <ele>208.28</ele>
        <time>2024-06-24T23:13:14.051Z</time>
      </trkpt>
      <trkpt lat="46.73562" lon="-0.44141">
        <ele>208.47</ele>
        <time>2024-06-24T23:13:21.375Z</time>
      </trkpt>
      <trkpt lat="46.73561" lon="-0.44146">
        <ele>208.66</ele>
        <time>2024-06-24T23:13:28.700Z</time>
      </trkpt>
      <trkpt lat="46.73561" lon="-0.44151">
        <ele>208.85</ele>
        <time>2024-06-24T23:13:36.025Z</time>
      </trkpt>
      <trkpt lat="46.7356" lon="-0.44157">
        <ele>209.04</ele>
        <time>2024-06-24T23:13:43.351Z</time>
      </trkpt>
      <trkpt lat="46.73559" lon="-0.44162">
        <ele>209.22</ele>
        <time>2024-06-24T23:13:50.678Z</time>
      </trkpt>
      <trkpt lat="46.73559" lon="-0.44167">
        <ele>209.39</ele>
        <time>2024-06-24T23:13:58.006Z</time>
      </trkpt>
      <trkpt lat="46.73558" lon="-0.44173">
        <ele>209.56</ele>
        <time>2024-06-24T23:14:05.334Z</time>
      </trkpt>
      <trkpt lat="46.73557" lon="-0.44178">
        <ele>209.73</ele>
        <time>2024-06-24T23:14:12.663Z</time>
      </trkpt>
      <trkpt lat="46.73556" lon="-0.44183">
        <ele>209.89</ele>
        <time>2024-06-24T23:14:19.993Z</time>
      </trkpt>
      <trkpt lat="46.73555" lon="-0.44188">
        <ele>210.04</ele>
        <time>2024-06-24T23:14:27.324Z</time>
      </trkpt>
      <trkpt lat="46.73554" lon="-0.44193">
        <ele>210.19</ele>
        <time>2024-06-24T23:14:34.655Z</time>
      </trkpt>
      <trkpt lat="46.73553" lon="-0.44198">
        <ele>210.33</ele>
        <time>2024-06-24T23:14:41.987Z</time>
      </trkpt>
      <trkpt lat="46.73552" lon="-0.44203">
        <ele>210.47</ele>
        <time>2024-06-24T23:14:49.320Z</time>
      </trkpt>
      <trkpt lat="46.73551" lon="-0.44208">
        <ele>210.6</ele>
        <time>2024-06-24T23:14:56.654Z</time>
      </trkpt>
      <trkpt lat="46.73549" lon="-0.44212">
        <ele>210.72</ele>
        <time>2024-06-24T23:15:03.988Z</time>
      </trkpt>
      <trkpt lat="46.73547" lon="-0.44216">
        <ele>210.83</ele>
        <time>2024-06-24T23:15:11.323Z</time>
      </trkpt>
      <trkpt lat="46.73546" lon="-0.44221">
        <ele>210.94</ele>
        <time>2024-06-24T23:15:18.659Z</time>
      </trkpt>
      <trkpt lat="46.73544" lon="-0.44225">
        <ele>211.04</ele>
        <time>2024-06-24T23:15:25.995Z</time>
      </trkpt>
      <trkpt lat="46.73543" lon="-0.44229">
        <ele>211.13</ele>
        <time>2024-06-24T23:15:33.332Z</time>
      </trkpt>
      <trkpt lat="46.73541" lon="-0.44234">
        <ele>211.21</ele>
        <time>2024-06-24T23:15:40.670Z</time>
      </trkpt>
      <trkpt lat="46.73539" lon="-0.44237">
        <ele>211.29</ele>
        <time>2024-06-24T23:15:48.008Z</time>
      </trkpt>
      <trkpt lat="46.73537" lon="-0.44242">
        <ele>211.36</ele>
        <time>2024-06-24T23:15:55.347Z</time>
      </trkpt>
      <trkpt lat="46.73535" lon="-0.44246">
        <ele>211.42</ele>
        <time>2024-06-24T23:16:02.687Z</time>
      </trkpt>
      <trkpt lat="46.73533" lon="-0.4425">
        <ele>211.47</ele>
        <time>2024-06-24T23:16:10.027Z</time>
      </trkpt>
      <trkpt lat="46.73531" lon="-0.44254">
        <ele>211.52</ele>
        <time>2024-06-24T23:16:17.368Z</time>
      </trkpt>
      <trkpt lat="46.73529" lon="-0.4426">
        <ele>211.56</ele>
        <time>2024-06-24T23:16:24.710Z</time>
      </trkpt>
      <trkpt lat="46.73528" lon="-0.44266">
        <ele>211.59</ele>
        <time>2024-06-24T23:16:32.053Z</time>
      </trkpt>
      <trkpt lat="46.73527" lon="-0.44272">
        <ele>211.62</ele>
        <time>2024-06-24T23:16:39.397Z</time>
      </trkpt>
      <trkpt lat="46.73526" lon="-0.44278">
        <ele>211.65</ele>
        <time>2024-06-24T23:16:46.741Z</time>
      </trkpt>
      <trkpt lat="46.73526" lon="-0.44284">
        <ele>211.66</ele>
        <time>2024-06-24T23:16:54.086Z</time>
      </trkpt>
      <trkpt lat="46.73525" lon="-0.44291">
        <ele>211.67</ele>
        <time>2024-06-24T23:17:01.432Z</time>
      </trkpt>
      <trkpt lat="46.73524" lon="-0.44297">
        <ele>211.67</ele>
        <time>2024-06-24T23:17:08.779Z</time>
      </trkpt>
      <trkpt lat="46.73524" lon="-0.44303">
        <ele>211.66</ele>
        <time>2024-06-24T23:17:16.127Z</time>
      </trkpt>
      <trkpt lat="46.73524" lon="-0.44311">
        <ele>211.65</ele>
        <time>2024-06-24T23:17:23.476Z</time>
      </trkpt>
      <trkpt lat="46.73524" lon="-0.44317">
        <ele>211.63</ele>
        <time>2024-06-24T23:17:30.826Z</time>
      </trkpt>
      <trkpt lat="46.73523" lon="-0.44325">
        <ele>211.6</ele>
        <time>2024-06-24T23:17:38.177Z</time>
      </trkpt>
      <trkpt lat="46.73522" lon="-0.44332">
        <ele>211.57</ele>
        <time>2024-06-24T23:17:45.529Z</time>
      </trkpt>
      <trkpt lat="46.73521" lon="-0.4434">
        <ele>211.53</ele>
        <time>2024-06-24T23:17:52.882Z</time>
      </trkpt>
      <trkpt lat="46.7352" lon="-0.44348">
        <ele>211.48</ele>
        <time>2024-06-24T23:18:00.236Z</time>
      </trkpt>
      <trkpt lat="46.73519" lon="-0.44357">
        <ele>211.42</ele>
        <time>2024-06-24T23:18:07.592Z</time>
      </trkpt>
      <trkpt lat="46.73517" lon="-0.44367">
        <ele>211.36</ele>
        <time>2024-06-24T23:18:14.949Z</time>
      </trkpt>
      <trkpt lat="46.73517" lon="-0.44377">
        <ele>211.3</ele>
        <time>2024-06-24T23:18:22.307Z</time>
      </trkpt>
      <trkpt lat="46.73516" lon="-0.44386">
        <ele>211.23</ele>
        <time>2024-06-24T23:18:29.667Z</time>
      </trkpt>
      <trkpt lat="46.73515" lon="-0.44395">
        <ele>211.17</ele>
        <time>2024-06-24T23:18:37.028Z</time>
      </trkpt>
      <trkpt lat="46.73515" lon="-0.44405">
        <ele>211.1</ele>
        <time>2024-06-24T23:18:44.390Z</time>
      </trkpt>
      <trkpt lat="46.73515" lon="-0.44414">
        <ele>211.02</ele>
        <time>2024-06-24T23:18:51.753Z</time>
      </trkpt>
      <trkpt lat="46.73515" lon="-0.44422">
        <ele>210.93</ele>
        <time>2024-06-24T23:18:59.117Z</time>
      </trkpt>
      <trkpt lat="46.73516" lon="-0.4443">
        <ele>210.84</ele>
        <time>2024-06-24T23:19:06.483Z</time>
      </trkpt>
      <trkpt lat="46.73516" lon="-0.44439">
        <ele>210.75</ele>
        <time>2024-06-24T23:19:13.850Z</time>
      </trkpt>
      <trkpt lat="46.73516" lon="-0.44448">
        <ele>210.66</ele>
        <time>2024-06-24T23:19:21.218Z</time>
      </trkpt>
      <trkpt lat="46.73516" lon="-0.44456">
        <ele>210.57</ele>
        <time>2024-06-24T23:19:28.587Z</time>
      </trkpt>
      <trkpt lat="46.73517" lon="-0.44464">
        <ele>210.47</ele>
        <time>2024-06-24T23:19:35.957Z</time>
      </trkpt>
      <trkpt lat="46.73517" lon="-0.44472">
        <ele>210.38</ele>
        <time>2024-06-24T23:19:43.328Z</time>
      </trkpt>
      <trkpt lat="46.73518" lon="-0.4448">
        <ele>210.29</ele>
        <time>2024-06-24T23:19:50.700Z</time>
      </trkpt>
      <trkpt lat="46.73518" lon="-0.44489">
        <ele>210.2</ele>
        <time>2024-06-24T23:19:58.074Z</time>
      </trkpt>
      <trkpt lat="46.73518" lon="-0.44497">
        <ele>210.11</ele>
        <time>2024-06-24T23:20:05.449Z</time>
      </trkpt>
      <trkpt lat="46.73518" lon="-0.44506">
        <ele>210.02</ele>
        <time>2024-06-24T23:20:12.825Z</time>
      </trkpt>
      <trkpt lat="46.73518" lon="-0.44515">
        <ele>209.93</ele>
        <time>2024-06-24T23:20:20.202Z</time>
      </trkpt>
      <trkpt lat="46.73517" lon="-0.44523">
        <ele>209.84</ele>
        <time>2024-06-24T23:20:27.580Z</time>
      </trkpt>
      <trkpt lat="46.73516" lon="-0.44532">
        <ele>209.74</ele>
        <time>2024-06-24T23:20:34.960Z</time>
      </trkpt>
      <trkpt lat="46.73516" lon="-0.4454">
        <ele>209.63</ele>
        <time>2024-06-24T23:20:42.341Z</time>
      </trkpt>
      <trkpt lat="46.73515" lon="-0.44548">
        <ele>209.53</ele>
        <time>2024-06-24T23:20:49.723Z</time>
      </trkpt>
      <trkpt lat="46.73514" lon="-0.44556">
        <ele>209.42</ele>
        <time>2024-06-24T23:20:57.106Z</time>
      </trkpt>
      <trkpt lat="46.73513" lon="-0.44564">
        <ele>209.32</ele>
        <time>2024-06-24T23:21:04.490Z</time>
      </trkpt>
      <trkpt lat="46.73512" lon="-0.44572">
        <ele>209.21</ele>
        <time>2024-06-24T23:21:11.875Z</time>
      </trkpt>
      <trkpt lat="46.73511" lon="-0.44581">
        <ele>209.11</ele>
        <time>2024-06-24T23:21:19.261Z</time>
      </trkpt>
      <trkpt lat="46.73511" lon="-0.4459">
        <ele>209</ele>
        <time>2024-06-24T23:21:26.649Z</time>
      </trkpt>
      <trkpt lat="46.73511" lon="-0.44599">
        <ele>208.9</ele>
        <time>2024-06-24T23:21:34.038Z</time>
      </trkpt>
      <trkpt lat="46.73511" lon="-0.44608">
        <ele>208.8</ele>
        <time>2024-06-24T23:21:41.428Z</time>
      </trkpt>
      <trkpt lat="46.73511" lon="-0.44618">
        <ele>208.68</ele>
        <time>2024-06-24T23:21:48.820Z</time>
      </trkpt>
      <trkpt lat="46.73511" lon="-0.44627">
        <ele>208.57</ele>
        <time>2024-06-24T23:21:56.213Z</time>
      </trkpt>
      <trkpt lat="46.73512" lon="-0.44637">
        <ele>208.46</ele>
        <time>2024-06-24T23:22:03.607Z</time>
      </trkpt>
      <trkpt lat="46.73512" lon="-0.44645">
        <ele>208.36</ele>
        <time>2024-06-24T23:22:11.002Z</time>
      </trkpt>
      <trkpt lat="46.73513" lon="-0.44654">
        <ele>208.25</ele>
        <time>2024-06-24T23:22:18.398Z</time>
      </trkpt>
      <trkpt lat="46.73513" lon="-0.44662">
        <ele>208.14</ele>
        <time>2024-06-24T23:22:25.796Z</time>
      </trkpt>
      <trkpt lat="46.73513" lon="-0.4467">
        <ele>208.03</ele>
        <time>2024-06-24T23:22:33.195Z</time>
      </trkpt>
      <trkpt lat="46.73514" lon="-0.44678">
        <ele>207.92</ele>
        <time>2024-06-24T23:22:40.595Z</time>
      </trkpt>
      <trkpt lat="46.73514" lon="-0.44686">
        <ele>207.82</ele>
        <time>2024-06-24T23:22:47.996Z</time>
      </trkpt>
      <trkpt lat="46.73515" lon="-0.44694">
        <ele>207.71</ele>
        <time>2024-06-24T23:22:55.398Z</time>
      </trkpt>
      <trkpt lat="46.73515" lon="-0.44702">
        <ele>207.62</ele>
        <time>2024-06-24T23:23:02.801Z</time>
      </trkpt>
      <trkpt lat="46.73515" lon="-0.44711">
        <ele>207.52</ele>
        <time>2024-06-24T23:23:10.205Z</time>
      </trkpt>
      <trkpt lat="46.73515" lon="-0.44719">
        <ele>207.42</ele>
        <time>2024-06-24T23:23:17.610Z</time>
      </trkpt>
      <trkpt lat="46.73515" lon="-0.44728">
        <ele>207.33</ele>
        <time>2024-06-24T23:23:25.017Z</time>
      </trkpt>
      <trkpt lat="46.73514" lon="-0.44736">
        <ele>207.23</ele>
        <time>2024-06-24T23:23:32.425Z</time>
      </trkpt>
      <trkpt lat="46.73514" lon="-0.44743">
        <ele>207.14</ele>
        <time>2024-06-24T23:23:39.834Z</time>
      </trkpt>
      <trkpt lat="46.73514" lon="-0.44751">
        <ele>207.04</ele>
        <time>2024-06-24T23:23:47.244Z</time>
      </trkpt>
      <trkpt lat="46.73513" lon="-0.4476">
        <ele>206.95</ele>
        <time>2024-06-24T23:23:54.655Z</time>
      </trkpt>
      <trkpt lat="46.73512" lon="-0.44768">
        <ele>206.85</ele>
        <time>2024-06-24T23:24:02.067Z</time>
      </trkpt>
      <trkpt lat="46.7351" lon="-0.44777">
        <ele>206.75</ele>
        <time>2024-06-24T23:24:09.481Z</time>
      </trkpt>
      <trkpt lat="46.73508" lon="-0.44785">
        <ele>206.64</ele>
        <time>2024-06-24T23:24:16.896Z</time>
      </trkpt>
      <trkpt lat="46.73505" lon="-0.44793">
        <ele>206.53</ele>
        <time>2024-06-24T23:24:24.312Z</time>
      </trkpt>
      <trkpt lat="46.73501" lon="-0.44801">
        <ele>206.42</ele>
        <time>2024-06-24T23:24:31.729Z</time>
      </trkpt>
      <trkpt lat="46.73498" lon="-0.44809">
        <ele>206.3</ele>
        <time>2024-06-24T23:24:39.148Z</time>
      </trkpt>
      <trkpt lat="46.73494" lon="-0.44816">
        <ele>206.19</ele>
        <time>2024-06-24T23:24:46.568Z</time>
      </trkpt>
      <trkpt lat="46.73491" lon="-0.44824">
        <ele>206.07</ele>
        <time>2024-06-24T23:24:53.989Z</time>
      </trkpt>
      <trkpt lat="46.73487" lon="-0.44832">
        <ele>205.96</ele>
        <time>2024-06-24T23:25:01.411Z</time>
      </trkpt>
      <trkpt lat="46.73484" lon="-0.4484">
        <ele>205.84</ele>
        <time>2024-06-24T23:25:08.835Z</time>
      </trkpt>
      <trkpt lat="46.73481" lon="-0.44847">
        <ele>205.72</ele>
        <time>2024-06-24T23:25:16.260Z</time>
      </trkpt>
      <trkpt lat="46.73478" lon="-0.44853">
        <ele>205.61</ele>
        <time>2024-06-24T23:25:23.686Z</time>
      </trkpt>
      <trkpt lat="46.73476" lon="-0.44861">
        <ele>205.49</ele>
        <time>2024-06-24T23:25:31.113Z</time>
      </trkpt>
      <trkpt lat="46.73473" lon="-0.44868">
        <ele>205.37</ele>
        <time>2024-06-24T23:25:38.541Z</time>
      </trkpt>
      <trkpt lat="46.73471" lon="-0.44876">
        <ele>205.25</ele>
        <time>2024-06-24T23:25:45.970Z</time>
      </trkpt>
      <trkpt lat="46.73469" lon="-0.44884">
        <ele>205.14</ele>
        <time>2024-06-24T23:25:53.400Z</time>
      </trkpt>
      <trkpt lat="46.73467" lon="-0.44891">
        <ele>205.02</ele>
        <time>2024-06-24T23:26:00.831Z</time>
      </trkpt>
      <trkpt lat="46.73466" lon="-0.44899">
        <ele>204.9</ele>
        <time>2024-06-24T23:26:08.264Z</time>
      </trkpt>
      <trkpt lat="46.73465" lon="-0.44907">
        <ele>204.79</ele>
        <time>2024-06-24T23:26:15.698Z</time>
      </trkpt>
      <trkpt lat="46.73464" lon="-0.44915">
        <ele>204.67</ele>
        <time>2024-06-24T23:26:23.133Z</time>
      </trkpt>
      <trkpt lat="46.73463" lon="-0.44923">
        <ele>204.54</ele>
        <time>2024-06-24T23:26:30.569Z</time>
      </trkpt>
      <trkpt lat="46.73461" lon="-0.44931">
        <ele>204.41</ele>
        <time>2024-06-24T23:26:38.006Z</time>
      </trkpt>
      <trkpt lat="46.7346" lon="-0.44939">
        <ele>204.28</ele>
        <time>2024-06-24T23:26:45.444Z</time>
      </trkpt>
      <trkpt lat="46.73458" lon="-0.44948">
        <ele>204.15</ele>
        <time>2024-06-24T23:26:52.883Z</time>
      </trkpt>
      <trkpt lat="46.73457" lon="-0.44956">
        <ele>204.02</ele>
        <time>2024-06-24T23:27:00.324Z</time>
      </trkpt>
      <trkpt lat="46.73455" lon="-0.44963">
        <ele>203.89</ele>
        <time>2024-06-24T23:27:07.766Z</time>
      </trkpt>
      <trkpt lat="46.73453" lon="-0.44971">
        <ele>203.75</ele>
        <time>2024-06-24T23:27:15.209Z</time>
      </trkpt>
      <trkpt lat="46.73451" lon="-0.44977">
        <ele>203.6</ele>
        <time>2024-06-24T23:27:22.653Z</time>
      </trkpt>
      <trkpt lat="46.73448" lon="-0.44985">
        <ele>203.45</ele>
        <time>2024-06-24T23:27:30.098Z</time>
      </trkpt>
      <trkpt lat="46.73445" lon="-0.44993">
        <ele>203.3</ele>
        <time>2024-06-24T23:27:37.544Z</time>
      </trkpt>
      <trkpt lat="46.73442" lon="-0.45">
        <ele>203.14</ele>
        <time>2024-06-24T23:27:44.991Z</time>
      </trkpt>
      <trkpt lat="46.73438" lon="-0.45007">
        <ele>202.98</ele>
        <time>2024-06-24T23:27:52.440Z</time>
      </trkpt>
      <trkpt lat="46.73434" lon="-0.45015">
        <ele>202.81</ele>
        <time>2024-06-24T23:27:59.890Z</time>
      </trkpt>
      <trkpt lat="46.7343" lon="-0.45024">
        <ele>202.65</ele>
        <time>2024-06-24T23:28:07.341Z</time>
      </trkpt>
      <trkpt lat="46.73427" lon="-0.45033">
        <ele>202.48</ele>
        <time>2024-06-24T23:28:14.794Z</time>
      </trkpt>
      <trkpt lat="46.73425" lon="-0.45042">
        <ele>202.3</ele>
        <time>2024-06-24T23:28:22.248Z</time>
      </trkpt>
      <trkpt lat="46.73422" lon="-0.45051">
        <ele>202.12</ele>
        <time>2024-06-24T23:28:29.704Z</time>
      </trkpt>
      <trkpt lat="46.7342" lon="-0.45061">
        <ele>201.95</ele>
        <time>2024-06-24T23:28:37.161Z</time>
      </trkpt>
      <trkpt lat="46.73419" lon="-0.45072">
        <ele>201.79</ele>
        <time>2024-06-24T23:28:44.619Z</time>
      </trkpt>
      <trkpt lat="46.73418" lon="-0.45082">
        <ele>201.62</ele>
        <time>2024-06-24T23:28:52.079Z</time>
      </trkpt>
      <trkpt lat="46.73418" lon="-0.45091">
        <ele>201.44</ele>
        <time>2024-06-24T23:28:59.540Z</time>
      </trkpt>
      <trkpt lat="46.73417" lon="-0.45099">
        <ele>201.26</ele>
        <time>2024-06-24T23:29:07.002Z</time>
      </trkpt>
      <trkpt lat="46.73416" lon="-0.45108">
        <ele>201.07</ele>
        <time>2024-06-24T23:29:14.466Z</time>
      </trkpt>
      <trkpt lat="46.73414" lon="-0.45117">
        <ele>200.87</ele>
        <time>2024-06-24T23:29:21.931Z</time>
      </trkpt>
      <trkpt lat="46.73411" lon="-0.45124">
        <ele>200.67</ele>
        <time>2024-06-24T23:29:29.397Z</time>
      </trkpt>
      <trkpt lat="46.73408" lon="-0.4513">
        <ele>200.47</ele>
        <time>2024-06-24T23:29:36.864Z</time>
      </trkpt>
      <trkpt lat="46.73404" lon="-0.45136">
        <ele>200.26</ele>
        <time>2024-06-24T23:29:44.332Z</time>
      </trkpt>
      <trkpt lat="46.73399" lon="-0.4514">
        <ele>200.03</ele>
        <time>2024-06-24T23:29:51.801Z</time>
      </trkpt>
      <trkpt lat="46.73394" lon="-0.45145">
        <ele>199.81</ele>
        <time>2024-06-24T23:29:59.271Z</time>
      </trkpt>
      <trkpt lat="46.73389" lon="-0.45148">
        <ele>199.58</ele>
        <time>2024-06-24T23:30:06.743Z</time>
      </trkpt>
      <trkpt lat="46.73384" lon="-0.45152">
        <ele>199.34</ele>
        <time>2024-06-24T23:30:14.216Z</time>
      </trkpt>
      <trkpt lat="46.73379" lon="-0.45156">
        <ele>199.1</ele>
        <time>2024-06-24T23:30:21.690Z</time>
      </trkpt>
      <trkpt lat="46.73375" lon="-0.45159">
        <ele>198.87</ele>
        <time>2024-06-24T23:30:29.165Z</time>
      </trkpt>
      <trkpt lat="46.7337" lon="-0.45164">
        <ele>198.62</ele>
        <time>2024-06-24T23:30:36.641Z</time>
      </trkpt>
      <trkpt lat="46.73364" lon="-0.45169">
        <ele>198.39</ele>
        <time>2024-06-24T23:30:44.118Z</time>
      </trkpt>
      <trkpt lat="46.7336" lon="-0.45174">
        <ele>198.15</ele>
        <time>2024-06-24T23:30:51.596Z</time>
      </trkpt>
      <trkpt lat="46.73355" lon="-0.4518">
        <ele>197.92</ele>
        <time>2024-06-24T23:30:59.076Z</time>
      </trkpt>
      <trkpt lat="46.73351" lon="-0.45186">
        <ele>197.68</ele>
        <time>2024-06-24T23:31:06.557Z</time>
      </trkpt>
      <trkpt lat="46.73346" lon="-0.45191">
        <ele>197.45</ele>
        <time>2024-06-24T23:31:14.039Z</time>
      </trkpt>
      <trkpt lat="46.73341" lon="-0.45196">
        <ele>197.21</ele>
        <time>2024-06-24T23:31:21.522Z</time>
      </trkpt>
      <trkpt lat="46.73336" lon="-0.452">
        <ele>196.98</ele>
        <time>2024-06-24T23:31:29.006Z</time>
      </trkpt>
      <trkpt lat="46.73331" lon="-0.452">
        <ele>196.74</ele>
        <time>2024-06-24T23:31:36.491Z</time>
      </trkpt>
      <trkpt lat="46.73325" lon="-0.452">
        <ele>196.51</ele>
        <time>2024-06-24T23:31:43.978Z</time>
      </trkpt>
      <trkpt lat="46.73319" lon="-0.45197">
        <ele>196.27</ele>
        <time>2024-06-24T23:31:51.466Z</time>
      </trkpt>
      <trkpt lat="46.73312" lon="-0.45195">
        <ele>196.04</ele>
        <time>2024-06-24T23:31:58.955Z</time>
      </trkpt>
      <trkpt lat="46.73306" lon="-0.45192">
        <ele>195.82</ele>
        <time>2024-06-24T23:32:06.445Z</time>
      </trkpt>
      <trkpt lat="46.733" lon="-0.45188">
        <ele>195.59</ele>
        <time>2024-06-24T23:32:13.937Z</time>
      </trkpt>
      <trkpt lat="46.73294" lon="-0.45185">
        <ele>195.37</ele>
        <time>2024-06-24T23:32:21.430Z</time>
      </trkpt>
      <trkpt lat="46.73288" lon="-0.45181">
        <ele>195.16</ele>
        <time>2024-06-24T23:32:28.924Z</time>
      </trkpt>
      <trkpt lat="46.73282" lon="-0.45178">
        <ele>194.94</ele>
        <time>2024-06-24T23:32:36.420Z</time>
      </trkpt>
      <trkpt lat="46.73275" lon="-0.45175">
        <ele>194.73</ele>
        <time>2024-06-24T23:32:43.917Z</time>
      </trkpt>
      <trkpt lat="46.73269" lon="-0.45172">
        <ele>194.52</ele>
        <time>2024-06-24T23:32:51.415Z</time>
      </trkpt>
      <trkpt lat="46.73263" lon="-0.45169">
        <ele>194.32</ele>
        <time>2024-06-24T23:32:58.915Z</time>
      </trkpt>
      <trkpt lat="46.73257" lon="-0.45168">
        <ele>194.11</ele>
        <time>2024-06-24T23:33:06.416Z</time>
      </trkpt>
      <trkpt lat="46.73251" lon="-0.45167">
        <ele>193.92</ele>
        <time>2024-06-24T23:33:13.918Z</time>
      </trkpt>
      <trkpt lat="46.73244" lon="-0.45167">
        <ele>193.73</ele>
        <time>2024-06-24T23:33:21.421Z</time>
      </trkpt>
      <trkpt lat="46.73238" lon="-0.45167">
        <ele>193.55</ele>
        <time>2024-06-24T23:33:28.926Z</time>
      </trkpt>
      <trkpt lat="46.73232" lon="-0.45168">
        <ele>193.37</ele>
        <time>2024-06-24T23:33:36.432Z</time>
      </trkpt>
      <trkpt lat="46.73225" lon="-0.45168">
        <ele>193.19</ele>
        <time>2024-06-24T23:33:43.939Z</time>
      </trkpt>
      <trkpt lat="46.73219" lon="-0.45169">
        <ele>193.02</ele>
        <time>2024-06-24T23:33:51.448Z</time>
      </trkpt>
      <trkpt lat="46.73213" lon="-0.4517">
        <ele>192.84</ele>
        <time>2024-06-24T23:33:58.958Z</time>
      </trkpt>
      <trkpt lat="46.73207" lon="-0.45172">
        <ele>192.68</ele>
        <time>2024-06-24T23:34:06.469Z</time>
      </trkpt>
      <trkpt lat="46.732" lon="-0.45173">
        <ele>192.52</ele>
        <time>2024-06-24T23:34:13.981Z</time>
      </trkpt>
      <trkpt lat="46.73195" lon="-0.45175">
        <ele>192.36</ele>
        <time>2024-06-24T23:34:21.494Z</time>
      </trkpt>
      <trkpt lat="46.73189" lon="-0.45177">
        <ele>192.21</ele>
        <time>2024-06-24T23:34:29.009Z</time>
      </trkpt>
      <trkpt lat="46.73183" lon="-0.45179">
        <ele>192.07</ele>
        <time>2024-06-24T23:34:36.525Z</time>
      </trkpt>
      <trkpt lat="46.73177" lon="-0.45181">
        <ele>191.93</ele>
        <time>2024-06-24T23:34:44.042Z</time>
      </trkpt>
      <trkpt lat="46.73171" lon="-0.45183">
        <ele>191.79</ele>
        <time>2024-06-24T23:34:51.560Z</time>
      </trkpt>
      <trkpt lat="46.73166" lon="-0.45185">
        <ele>191.67</ele>
        <time>2024-06-24T23:34:59.079Z</time>
      </trkpt>
      <trkpt lat="46.7316" lon="-0.45188">
        <ele>191.55</ele>
        <time>2024-06-24T23:35:06.600Z</time>
      </trkpt>
      <trkpt lat="46.73154" lon="-0.45191">
        <ele>191.44</ele>
        <time>2024-06-24T23:35:14.122Z</time>
      </trkpt>
      <trkpt lat="46.73149" lon="-0.45193">
        <ele>191.33</ele>
        <time>2024-06-24T23:35:21.645Z</time>
      </trkpt>
      <trkpt lat="46.73143" lon="-0.45196">
        <ele>191.23</ele>
        <time>2024-06-24T23:35:29.169Z</time>
      </trkpt>
      <trkpt lat="46.73138" lon="-0.45199">
        <ele>191.12</ele>
        <time>2024-06-24T23:35:36.694Z</time>
      </trkpt>
      <trkpt lat="46.73132" lon="-0.45202">
        <ele>191.02</ele>
        <time>2024-06-24T23:35:44.220Z</time>
      </trkpt>
      <trkpt lat="46.73128" lon="-0.45205">
        <ele>190.92</ele>
        <time>2024-06-24T23:35:51.748Z</time>
      </trkpt>
      <trkpt lat="46.73123" lon="-0.45208">
        <ele>190.83</ele>
        <time>2024-06-24T23:35:59.277Z</time>
      </trkpt>
      <trkpt lat="46.73117" lon="-0.45211">
        <ele>190.74</ele>
        <time>2024-06-24T23:36:06.807Z</time>
      </trkpt>
      <trkpt lat="46.73112" lon="-0.45214">
        <ele>190.66</ele>
        <time>2024-06-24T23:36:14.338Z</time>
      </trkpt>
      <trkpt lat="46.73107" lon="-0.45217">
        <ele>190.59</ele>
        <time>2024-06-24T23:36:21.870Z</time>
      </trkpt>
      <trkpt lat="46.73102" lon="-0.45221">
        <ele>190.51</ele>
        <time>2024-06-24T23:36:29.403Z</time>
      </trkpt>
      <trkpt lat="46.73097" lon="-0.45225">
        <ele>190.45</ele>
        <time>2024-06-24T23:36:36.937Z</time>
      </trkpt>
      <trkpt lat="46.73092" lon="-0.45228">
        <ele>190.39</ele>
        <time>2024-06-24T23:36:44.472Z</time>
      </trkpt>
      <trkpt lat="46.73087" lon="-0.45232">
        <ele>190.32</ele>
        <time>2024-06-24T23:36:52.008Z</time>
      </trkpt>
      <trkpt lat="46.73082" lon="-0.45235">
        <ele>190.27</ele>
        <time>2024-06-24T23:36:59.546Z</time>
      </trkpt>
      <trkpt lat="46.73076" lon="-0.45239">
        <ele>190.21</ele>
        <time>2024-06-24T23:37:07.085Z</time>
      </trkpt>
      <trkpt lat="46.73071" lon="-0.45243">
        <ele>190.16</ele>
        <time>2024-06-24T23:37:14.625Z</time>
      </trkpt>
      <trkpt lat="46.73066" lon="-0.45246">
        <ele>190.11</ele>
        <time>2024-06-24T23:37:22.166Z</time>
      </trkpt>
      <trkpt lat="46.7306" lon="-0.45251">
        <ele>190.06</ele>
        <time>2024-06-24T23:37:29.708Z</time>
      </trkpt>
      <trkpt lat="46.73055" lon="-0.45255">
        <ele>190.01</ele>
        <time>2024-06-24T23:37:37.252Z</time>
      </trkpt>
      <trkpt lat="46.7305" lon="-0.4526">
        <ele>189.96</ele>
        <time>2024-06-24T23:37:44.797Z</time>
      </trkpt>
      <trkpt lat="46.73046" lon="-0.45265">
        <ele>189.92</ele>
        <time>2024-06-24T23:37:52.343Z</time>
      </trkpt>
      <trkpt lat="46.73042" lon="-0.45271">
        <ele>189.88</ele>
        <time>2024-06-24T23:37:59.890Z</time>
      </trkpt>
      <trkpt lat="46.73038" lon="-0.45278">
        <ele>189.84</ele>
        <time>2024-06-24T23:38:07.438Z</time>
      </trkpt>
      <trkpt lat="46.73034" lon="-0.45284">
        <ele>189.81</ele>
        <time>2024-06-24T23:38:14.987Z</time>
      </trkpt>
      <trkpt lat="46.73032" lon="-0.45291">
        <ele>189.77</ele>
        <time>2024-06-24T23:38:22.538Z</time>
      </trkpt>
      <trkpt lat="46.7303" lon="-0.45299">
        <ele>189.74</ele>
        <time>2024-06-24T23:38:30.090Z</time>
      </trkpt>
      <trkpt lat="46.73028" lon="-0.45307">
        <ele>189.72</ele>
        <time>2024-06-24T23:38:37.643Z</time>
      </trkpt>
      <trkpt lat="46.73027" lon="-0.45315">
        <ele>189.7</ele>
        <time>2024-06-24T23:38:45.197Z</time>
      </trkpt>
      <trkpt lat="46.73025" lon="-0.45322">
        <ele>189.68</ele>
        <time>2024-06-24T23:38:52.752Z</time>
      </trkpt>
      <trkpt lat="46.73023" lon="-0.45329">
        <ele>189.65</ele>
        <time>2024-06-24T23:39:00.308Z</time>
      </trkpt>
      <trkpt lat="46.73021" lon="-0.45336">
        <ele>189.64</ele>
        <time>2024-06-24T23:39:07.865Z</time>
      </trkpt>
      <trkpt lat="46.73018" lon="-0.45343">
        <ele>189.62</ele>
        <time>2024-06-24T23:39:15.423Z</time>
      </trkpt>
      <trkpt lat="46.73015" lon="-0.4535">
        <ele>189.6</ele>
        <time>2024-06-24T23:39:22.982Z</time>
      </trkpt>
      <trkpt lat="46.73012" lon="-0.45356">
        <ele>189.59</ele>
        <time>2024-06-24T23:39:30.542Z</time>
      </trkpt>
      <trkpt lat="46.7301" lon="-0.4536">
        <ele>189.58</ele>
        <time>2024-06-24T23:39:38.103Z</time>
      </trkpt>
      <trkpt lat="46.73007" lon="-0.45363">
        <ele>189.56</ele>
        <time>2024-06-24T23:39:45.665Z</time>
      </trkpt>
      <trkpt lat="46.73003" lon="-0.45364">
        <ele>189.55</ele>
        <time>2024-06-24T23:39:53.228Z</time>
      </trkpt>
      <trkpt lat="46.72999" lon="-0.45365">
        <ele>189.54</ele>
        <time>2024-06-24T23:40:00.791Z</time>
      </trkpt>
      <trkpt lat="46.72994" lon="-0.45364">
        <ele>189.54</ele>
        <time>2024-06-24T23:40:08.355Z</time>
      </trkpt>
      <trkpt lat="46.72989" lon="-0.45363">
        <ele>189.53</ele>
        <time>2024-06-24T23:40:15.920Z</time>
      </trkpt>
      <trkpt lat="46.72983" lon="-0.4536">
        <ele>189.53</ele>
        <time>2024-06-24T23:40:23.487Z</time>
      </trkpt>
      <trkpt lat="46.72978" lon="-0.45357">
        <ele>189.52</ele>
        <time>2024-06-24T23:40:31.055Z</time>
      </trkpt>
      <trkpt lat="46.72971" lon="-0.45353">
        <ele>189.52</ele>
        <time>2024-06-24T23:40:38.624Z</time>
      </trkpt>
      <trkpt lat="46.72965" lon="-0.4535">
        <ele>189.52</ele>
        <time>2024-06-24T23:40:46.194Z</time>
      </trkpt>
      <trkpt lat="46.72959" lon="-0.45347">
        <ele>189.51</ele>
        <time>2024-06-24T23:40:53.766Z</time>
      </trkpt>
      <trkpt lat="46.72952" lon="-0.45345">
        <ele>189.5</ele>
        <time>2024-06-24T23:41:01.339Z</time>
      </trkpt>
      <trkpt lat="46.72946" lon="-0.45342">
        <ele>189.5</ele>
        <time>2024-06-24T23:41:08.913Z</time>
      </trkpt>
      <trkpt lat="46.72939" lon="-0.4534">
        <ele>189.5</ele>
        <time>2024-06-24T23:41:16.489Z</time>
      </trkpt>
      <trkpt lat="46.72933" lon="-0.45339">
        <ele>189.5</ele>
        <time>2024-06-24T23:41:24.066Z</time>
      </trkpt>
      <trkpt lat="46.72926" lon="-0.45337">
        <ele>189.5</ele>
        <time>2024-06-24T23:41:31.644Z</time>
      </trkpt>
      <trkpt lat="46.72921" lon="-0.45335">
        <ele>189.5</ele>
        <time>2024-06-24T23:41:39.224Z</time>
      </trkpt>
      <trkpt lat="46.72915" lon="-0.45334">
        <ele>189.51</ele>
        <time>2024-06-24T23:41:46.805Z</time>
      </trkpt>
      <trkpt lat="46.72909" lon="-0.45332">
        <ele>189.51</ele>
        <time>2024-06-24T23:41:54.387Z</time>
      </trkpt>
      <trkpt lat="46.72903" lon="-0.45329">
        <ele>189.52</ele>
        <time>2024-06-24T23:42:01.970Z</time>
      </trkpt>
      <trkpt lat="46.72898" lon="-0.45329">
        <ele>189.52</ele>
        <time>2024-06-24T23:42:09.554Z</time>
      </trkpt>
      <trkpt lat="46.72893" lon="-0.45331">
        <ele>189.54</ele>
        <time>2024-06-24T23:42:17.139Z</time>
      </trkpt>
      <trkpt lat="46.72888" lon="-0.45335">
        <ele>189.55</ele>
        <time>2024-06-24T23:42:24.725Z</time>
      </trkpt>
      <trkpt lat="46.72884" lon="-0.45341">
        <ele>189.56</ele>
        <time>2024-06-24T23:42:32.312Z</time>
      </trkpt>
      <trkpt lat="46.72881" lon="-0.45346">
        <ele>189.58</ele>
        <time>2024-06-24T23:42:39.901Z</time>
      </trkpt>
      <trkpt lat="46.72876" lon="-0.45352">
        <ele>189.59</ele>
        <time>2024-06-24T23:42:47.491Z</time>
      </trkpt>
      <trkpt lat="46.72871" lon="-0.45356">
        <ele>189.61</ele>
        <time>2024-06-24T23:42:55.082Z</time>
      </trkpt>
      <trkpt lat="46.72866" lon="-0.45359">
        <ele>189.63</ele>
        <time>2024-06-24T23:43:02.674Z</time>
      </trkpt>
      <trkpt lat="46.72861" lon="-0.45362">
        <ele>189.64</ele>
        <time>2024-06-24T23:43:10.267Z</time>
      </trkpt>
      <trkpt lat="46.72856" lon="-0.45365">
        <ele>189.66</ele>
        <time>2024-06-24T23:43:17.861Z</time>
      </trkpt>
      <trkpt lat="46.7285" lon="-0.45368">
        <ele>189.67</ele>
        <time>2024-06-24T23:43:25.456Z</time>
      </trkpt>
      <trkpt lat="46.72845" lon="-0.4537">
        <ele>189.69</ele>
        <time>2024-06-24T23:43:33.052Z</time>
      </trkpt>
      <trkpt lat="46.7284" lon="-0.45372">
        <ele>189.7</ele>
        <time>2024-06-24T23:43:40.650Z</time>
      </trkpt>
      <trkpt lat="46.72834" lon="-0.45374">
        <ele>189.72</ele>
        <time>2024-06-24T23:43:48.249Z</time>
      </trkpt>
      <trkpt lat="46.72829" lon="-0.45376">
        <ele>189.74</ele>
        <time>2024-06-24T23:43:55.849Z</time>
      </trkpt>
      <trkpt lat="46.72824" lon="-0.45378">
        <ele>189.76</ele>
        <time>2024-06-24T23:44:03.450Z</time>
      </trkpt>
      <trkpt lat="46.72819" lon="-0.4538">
        <ele>189.78</ele>
        <time>2024-06-24T23:44:11.052Z</time>
      </trkpt>
      <trkpt lat="46.72813" lon="-0.45382">
        <ele>189.81</ele>
        <time>2024-06-24T23:44:18.655Z</time>
      </trkpt>
      <trkpt lat="46.72808" lon="-0.45383">
        <ele>189.83</ele>
        <time>2024-06-24T23:44:26.259Z</time>
      </trkpt>
      <trkpt lat="46.72802" lon="-0.45384">
        <ele>189.85</ele>
        <time>2024-06-24T23:44:33.864Z</time>
      </trkpt>
      <trkpt lat="46.72796" lon="-0.45386">
        <ele>189.87</ele>
        <time>2024-06-24T23:44:41.471Z</time>
      </trkpt>
      <trkpt lat="46.72789" lon="-0.45386">
        <ele>189.9</ele>
        <time>2024-06-24T23:44:49.079Z</time>
      </trkpt>
      <trkpt lat="46.72783" lon="-0.45387">
        <ele>189.93</ele>
        <time>2024-06-24T23:44:56.688Z</time>
      </trkpt>
      <trkpt lat="46.72778" lon="-0.45387">
        <ele>189.96</ele>
        <time>2024-06-24T23:45:04.298Z</time>
      </trkpt>
      <trkpt lat="46.72772" lon="-0.45388">
        <ele>189.99</ele>
        <time>2024-06-24T23:45:11.909Z</time>
      </trkpt>
      <trkpt lat="46.72766" lon="-0.45388">
        <ele>190.03</ele>
        <time>2024-06-24T23:45:19.522Z</time>
      </trkpt>
      <trkpt lat="46.7276" lon="-0.45388">
        <ele>190.07</ele>
        <time>2024-06-24T23:45:27.136Z</time>
      </trkpt>
      <trkpt lat="46.72755" lon="-0.45389">
        <ele>190.11</ele>
        <time>2024-06-24T23:45:34.751Z</time>
      </trkpt>
      <trkpt lat="46.72749" lon="-0.45388">
        <ele>190.15</ele>
        <time>2024-06-24T23:45:42.367Z</time>
      </trkpt>
      <trkpt lat="46.72743" lon="-0.45389">
        <ele>190.19</ele>
        <time>2024-06-24T23:45:49.984Z</time>
      </trkpt>
      <trkpt lat="46.72736" lon="-0.45389">
        <ele>190.24</ele>
        <time>2024-06-24T23:45:57.603Z</time>
      </trkpt>
      <trkpt lat="46.72729" lon="-0.4539">
        <ele>190.28</ele>
        <time>2024-06-24T23:46:05.223Z</time>
      </trkpt>
      <trkpt lat="46.72722" lon="-0.45391">
        <ele>190.33</ele>
        <time>2024-06-24T23:46:12.844Z</time>
      </trkpt>
      <trkpt lat="46.72716" lon="-0.45392">
        <ele>190.39</ele>
        <time>2024-06-24T23:46:20.467Z</time>
      </trkpt>
      <trkpt lat="46.72709" lon="-0.45394">
        <ele>190.44</ele>
        <time>2024-06-24T23:46:28.091Z</time>
      </trkpt>
      <trkpt lat="46.72703" lon="-0.45398">
        <ele>190.5</ele>
        <time>2024-06-24T23:46:35.716Z</time>
      </trkpt>
      <trkpt lat="46.72697" lon="-0.45402">
        <ele>190.55</ele>
        <time>2024-06-24T23:46:43.343Z</time>
      </trkpt>
      <trkpt lat="46.72691" lon="-0.45407">
        <ele>190.61</ele>
        <time>2024-06-24T23:46:50.971Z</time>
      </trkpt>
      <trkpt lat="46.72685" lon="-0.45412">
        <ele>190.67</ele>
        <time>2024-06-24T23:46:58.600Z</time>
      </trkpt>
      <trkpt lat="46.7268" lon="-0.45417">
        <ele>190.73</ele>
        <time>2024-06-24T23:47:06.231Z</time>
      </trkpt>
      <trkpt lat="46.72676" lon="-0.45423">
        <ele>190.78</ele>
        <time>2024-06-24T23:47:13.863Z</time>
      </trkpt>
      <trkpt lat="46.72671" lon="-0.45429">
        <ele>190.84</ele>
        <time>2024-06-24T23:47:21.496Z</time>
      </trkpt>
      <trkpt lat="46.72667" lon="-0.45433">
        <ele>190.9</ele>
        <time>2024-06-24T23:47:29.130Z</time>
      </trkpt>
      <trkpt lat="46.72661" lon="-0.45438">
        <ele>190.95</ele>
        <time>2024-06-24T23:47:36.765Z</time>
      </trkpt>
      <trkpt lat="46.72656" lon="-0.45443">
        <ele>191.01</ele>
        <time>2024-06-24T23:47:44.402Z</time>
      </trkpt>
      <trkpt lat="46.72651" lon="-0.45447">
        <ele>191.06</ele>
        <time>2024-06-24T23:47:52.040Z</time>
      </trkpt>
      <trkpt lat="46.72646" lon="-0.45452">
        <ele>191.12</ele>
        <time>2024-06-24T23:47:59.679Z</time>
      </trkpt>
      <trkpt lat="46.72641" lon="-0.45456">
        <ele>191.17</ele>
        <time>2024-06-24T23:48:07.319Z</time>
      </trkpt>
      <trkpt lat="46.72636" lon="-0.45459">
        <ele>191.22</ele>
        <time>2024-06-24T23:48:14.960Z</time>
      </trkpt>
      <trkpt lat="46.7263" lon="-0.45462">
        <ele>191.27</ele>
        <time>2024-06-24T23:48:22.602Z</time>
      </trkpt>
      <trkpt lat="46.72625" lon="-0.45466">
        <ele>191.32</ele>
        <time>2024-06-24T23:48:30.246Z</time>
      </trkpt>
      <trkpt lat="46.7262" lon="-0.4547">
        <ele>191.37</ele>
        <time>2024-06-24T23:48:37.891Z</time>
      </trkpt>
      <trkpt lat="46.72615" lon="-0.45474">
        <ele>191.42</ele>
        <time>2024-06-24T23:48:45.537Z</time>
      </trkpt>
      <trkpt lat="46.7261" lon="-0.45477">
        <ele>191.47</ele>
        <time>2024-06-24T23:48:53.184Z</time>
      </trkpt>
      <trkpt lat="46.72605" lon="-0.45479">
        <ele>191.52</ele>
        <time>2024-06-24T23:49:00.832Z</time>
      </trkpt>
      <trkpt lat="46.726" lon="-0.45481">
        <ele>191.57</ele>
        <time>2024-06-24T23:49:08.481Z</time>
      </trkpt>
      <trkpt lat="46.72595" lon="-0.45483">
        <ele>191.62</ele>
        <time>2024-06-24T23:49:16.131Z</time>
      </trkpt>
      <trkpt lat="46.7259" lon="-0.45484">
        <ele>191.66</ele>
        <time>2024-06-24T23:49:23.782Z</time>
      </trkpt>
      <trkpt lat="46.72585" lon="-0.45485">
        <ele>191.72</ele>
        <time>2024-06-24T23:49:31.434Z</time>
      </trkpt>
      <trkpt lat="46.7258" lon="-0.45487">
        <ele>191.77</ele>
        <time>2024-06-24T23:49:39.087Z</time>
      </trkpt>
      <trkpt lat="46.72575" lon="-0.45488">
        <ele>191.82</ele>
        <time>2024-06-24T23:49:46.741Z</time>
      </trkpt>
      <trkpt lat="46.72569" lon="-0.45489">
        <ele>191.87</ele>
        <time>2024-06-24T23:49:54.396Z</time>
      </trkpt>
      <trkpt lat="46.72564" lon="-0.45491">
        <ele>191.92</ele>
        <time>2024-06-24T23:50:02.052Z</time>
      </trkpt>
      <trkpt lat="46.72558" lon="-0.45492">
        <ele>191.96</ele>
        <time>2024-06-24T23:50:09.709Z</time>
      </trkpt>
      <trkpt lat="46.72553" lon="-0.45495">
        <ele>192</ele>
        <time>2024-06-24T23:50:17.368Z</time>
      </trkpt>
      <trkpt lat="46.72548" lon="-0.45497">
        <ele>192.04</ele>
        <time>2024-06-24T23:50:25.028Z</time>
      </trkpt>
      <trkpt lat="46.72543" lon="-0.455">
        <ele>192.07</ele>
        <time>2024-06-24T23:50:32.689Z</time>
      </trkpt>
      <trkpt lat="46.72538" lon="-0.45502">
        <ele>192.1</ele>
        <time>2024-06-24T23:50:40.351Z</time>
      </trkpt>
      <trkpt lat="46.72533" lon="-0.45506">
        <ele>192.13</ele>
        <time>2024-06-24T23:50:48.014Z</time>
      </trkpt>
      <trkpt lat="46.72529" lon="-0.45509">
        <ele>192.15</ele>
        <time>2024-06-24T23:50:55.678Z</time>
      </trkpt>
      <trkpt lat="46.72524" lon="-0.45513">
        <ele>192.16</ele>
        <time>2024-06-24T23:51:03.343Z</time>
      </trkpt>
      <trkpt lat="46.72518" lon="-0.45517">
        <ele>192.17</ele>
        <time>2024-06-24T23:51:11.009Z</time>
      </trkpt>
      <trkpt lat="46.72513" lon="-0.45521">
        <ele>192.17</ele>
        <time>2024-06-24T23:51:18.676Z</time>
      </trkpt>
      <trkpt lat="46.72508" lon="-0.45525">
        <ele>192.17</ele>
        <time>2024-06-24T23:51:26.345Z</time>
      </trkpt>
      <trkpt lat="46.72503" lon="-0.45529">
        <ele>192.17</ele>
        <time>2024-06-24T23:51:34.015Z</time>
      </trkpt>
      <trkpt lat="46.72498" lon="-0.45532">
        <ele>192.17</ele>
        <time>2024-06-24T23:51:41.686Z</time>
      </trkpt>
      <trkpt lat="46.72493" lon="-0.45537">
        <ele>192.17</ele>
        <time>2024-06-24T23:51:49.358Z</time>
      </trkpt>
      <trkpt lat="46.72488" lon="-0.45541">
        <ele>192.16</ele>
        <time>2024-06-24T23:51:57.031Z</time>
      </trkpt>
      <trkpt lat="46.72483" lon="-0.45545">
        <ele>192.15</ele>
        <time>2024-06-24T23:52:04.705Z</time>
      </trkpt>
      <trkpt lat="46.72478" lon="-0.45549">
        <ele>192.13</ele>
        <time>2024-06-24T23:52:12.380Z</time>
      </trkpt>
      <trkpt lat="46.72473" lon="-0.45554">
        <ele>192.1</ele>
        <time>2024-06-24T23:52:20.057Z</time>
      </trkpt>
      <trkpt lat="46.72468" lon="-0.45558">
        <ele>192.07</ele>
        <time>2024-06-24T23:52:27.735Z</time>
      </trkpt>
      <trkpt lat="46.72462" lon="-0.45563">
        <ele>192.03</ele>
        <time>2024-06-24T23:52:35.414Z</time>
      </trkpt>
      <trkpt lat="46.72456" lon="-0.45567">
        <ele>191.99</ele>
        <time>2024-06-24T23:52:43.094Z</time>
      </trkpt>
      <trkpt lat="46.72451" lon="-0.45572">
        <ele>191.94</ele>
        <time>2024-06-24T23:52:50.776Z</time>
      </trkpt>
      <trkpt lat="46.72445" lon="-0.45576">
        <ele>191.89</ele>
        <time>2024-06-24T23:52:58.459Z</time>
      </trkpt>
      <trkpt lat="46.72439" lon="-0.45581">
        <ele>191.83</ele>
        <time>2024-06-24T23:53:06.143Z</time>
      </trkpt>
      <trkpt lat="46.72434" lon="-0.45586">
        <ele>191.78</ele>
        <time>2024-06-24T23:53:13.829Z</time>
      </trkpt>
      <trkpt lat="46.72428" lon="-0.4559">
        <ele>191.72</ele>
        <time>2024-06-24T23:53:21.516Z</time>
      </trkpt>
      <trkpt lat="46.72422" lon="-0.45595">
        <ele>191.65</ele>
        <time>2024-06-24T23:53:29.204Z</time>
      </trkpt>
      <trkpt lat="46.72417" lon="-0.45599">
        <ele>191.59</ele>
        <time>2024-06-24T23:53:36.893Z</time>
      </trkpt>
      <trkpt lat="46.7241" lon="-0.45604">
        <ele>191.52</ele>
        <time>2024-06-24T23:53:44.584Z</time>
      </trkpt>
      <trkpt lat="46.72405" lon="-0.45609">
        <ele>191.45</ele>
        <time>2024-06-24T23:53:52.276Z</time>
      </trkpt>
      <trkpt lat="46.724" lon="-0.45613">
        <ele>191.37</ele>
        <time>2024-06-24T23:53:59.969Z</time>
      </trkpt>
      <trkpt lat="46.72394" lon="-0.45618">
        <ele>191.29</ele>
        <time>2024-06-24T23:54:07.664Z</time>
      </trkpt>
      <trkpt lat="46.72388" lon="-0.45622">
        <ele>191.21</ele>
        <time>2024-06-24T23:54:15.360Z</time>
      </trkpt>
      <trkpt lat="46.72383" lon="-0.45627">
        <ele>191.12</ele>
        <time>2024-06-24T23:54:23.057Z</time>
      </trkpt>
      <trkpt lat="46.72377" lon="-0.45631">
        <ele>191.02</ele>
        <time>2024-06-24T23:54:30.756Z</time>
      </trkpt>
      <trkpt lat="46.72371" lon="-0.45636">
        <ele>190.93</ele>
        <time>2024-06-24T23:54:38.456Z</time>
      </trkpt>
      <trkpt lat="46.72365" lon="-0.45642">
        <ele>190.82</ele>
        <time>2024-06-24T23:54:46.157Z</time>
      </trkpt>
      <trkpt lat="46.72359" lon="-0.45648">
        <ele>190.7</ele>
        <time>2024-06-24T23:54:53.860Z</time>
      </trkpt>
      <trkpt lat="46.72353" lon="-0.45653">
        <ele>190.58</ele>
        <time>2024-06-24T23:55:01.564Z</time>
      </trkpt>
      <trkpt lat="46.72347" lon="-0.4566">
        <ele>190.46</ele>
        <time>2024-06-24T23:55:09.270Z</time>
      </trkpt>
      <trkpt lat="46.72341" lon="-0.45666">
        <ele>190.34</ele>
        <time>2024-06-24T23:55:16.977Z</time>
      </trkpt>
      <trkpt lat="46.72336" lon="-0.45673">
        <ele>190.22</ele>
        <time>2024-06-24T23:55:24.686Z</time>
      </trkpt>
      <trkpt lat="46.7233" lon="-0.4568">
        <ele>190.1</ele>
        <time>2024-06-24T23:55:32.396Z</time>
      </trkpt>
      <trkpt lat="46.72324" lon="-0.45687">
        <ele>189.98</ele>
        <time>2024-06-24T23:55:40.108Z</time>
      </trkpt>
      <trkpt lat="46.72319" lon="-0.45695">
        <ele>189.86</ele>
        <time>2024-06-24T23:55:47.821Z</time>
      </trkpt>
      <trkpt lat="46.72313" lon="-0.45702">
        <ele>189.73</ele>
        <time>2024-06-24T23:55:55.536Z</time>
      </trkpt>
      <trkpt lat="46.72308" lon="-0.45709">
        <ele>189.61</ele>
        <time>2024-06-24T23:56:03.252Z</time>
      </trkpt>
      <trkpt lat="46.72302" lon="-0.45716">
        <ele>189.49</ele>
        <time>2024-06-24T23:56:10.970Z</time>
      </trkpt>
      <trkpt lat="46.72296" lon="-0.45724">
        <ele>189.37</ele>
        <time>2024-06-24T23:56:18.689Z</time>
      </trkpt>
      <trkpt lat="46.72291" lon="-0.45732">
        <ele>189.26</ele>
        <time>2024-06-24T23:56:26.410Z</time>
      </trkpt>
      <trkpt lat="46.72288" lon="-0.45741">
        <ele>189.15</ele>
        <time>2024-06-24T23:56:34.132Z</time>
      </trkpt>
      <trkpt lat="46.72286" lon="-0.45751">
        <ele>189.04</ele>
        <time>2024-06-24T23:56:41.856Z</time>
      </trkpt>
      <trkpt lat="46.72286" lon="-0.45762">
        <ele>188.94</ele>
        <time>2024-06-24T23:56:49.581Z</time>
      </trkpt>
      <trkpt lat="46.72287" lon="-0.45772">
        <ele>188.83</ele>
        <time>2024-06-24T23:56:57.307Z</time>
      </trkpt>
      <trkpt lat="46.72288" lon="-0.45782">
        <ele>188.73</ele>
        <time>2024-06-24T23:57:05.035Z</time>
      </trkpt>
      <trkpt lat="46.72288" lon="-0.45792">
        <ele>188.62</ele>
        <time>2024-06-24T23:57:12.764Z</time>
      </trkpt>
      <trkpt lat="46.72289" lon="-0.45801">
        <ele>188.52</ele>
        <time>2024-06-24T23:57:20.494Z</time>
      </trkpt>
      <trkpt lat="46.7229" lon="-0.45811">
        <ele>188.42</ele>
        <time>2024-06-24T23:57:28.226Z</time>
      </trkpt>
      <trkpt lat="46.72291" lon="-0.4582">
        <ele>188.32</ele>
        <time>2024-06-24T23:57:35.959Z</time>
      </trkpt>
      <trkpt lat="46.72293" lon="-0.4583">
        <ele>188.22</ele>
        <time>2024-06-24T23:57:43.693Z</time>
      </trkpt>
      <trkpt lat="46.72295" lon="-0.45838">
        <ele>188.13</ele>
        <time>2024-06-24T23:57:51.429Z</time>
      </trkpt>
      <trkpt lat="46.72297" lon="-0.45847">
        <ele>188.04</ele>
        <time>2024-06-24T23:57:59.166Z</time>
      </trkpt>
      <trkpt lat="46.723" lon="-0.45855">
        <ele>187.96</ele>
        <time>2024-06-24T23:58:06.904Z</time>
      </trkpt>
      <trkpt lat="46.72304" lon="-0.45862">
        <ele>187.88</ele>
        <time>2024-06-24T23:58:14.643Z</time>
      </trkpt>
      <trkpt lat="46.72307" lon="-0.45869">
        <ele>187.8</ele>
        <time>2024-06-24T23:58:22.384Z</time>
      </trkpt>
      <trkpt lat="46.72311" lon="-0.45876">
        <ele>187.73</ele>
        <time>2024-06-24T23:58:30.126Z</time>
      </trkpt>
      <trkpt lat="46.72314" lon="-0.45882">
        <ele>187.66</ele>
        <time>2024-06-24T23:58:37.869Z</time>
      </trkpt>
      <trkpt lat="46.72319" lon="-0.45888">
        <ele>187.59</ele>
        <time>2024-06-24T23:58:45.613Z</time>
      </trkpt>
      <trkpt lat="46.72322" lon="-0.45893">
        <ele>187.52</ele>
        <time>2024-06-24T23:58:53.358Z</time>
      </trkpt>
      <trkpt lat="46.72326" lon="-0.45899">
        <ele>187.46</ele>
        <time>2024-06-24T23:59:01.104Z</time>
      </trkpt>
      <trkpt lat="46.7233" lon="-0.45904">
        <ele>187.39</ele>
        <time>2024-06-24T23:59:08.851Z</time>
      </trkpt>
      <trkpt lat="46.72333" lon="-0.45909">
        <ele>187.33</ele>
        <time>2024-06-24T23:59:16.599Z</time>
      </trkpt>
      <trkpt lat="46.72337" lon="-0.45915">
        <ele>187.27</ele>
        <time>2024-06-24T23:59:24.348Z</time>
      </trkpt>
      <trkpt lat="46.72341" lon="-0.45921">
        <ele>187.2</ele>
        <time>2024-06-24T23:59:32.098Z</time>
      </trkpt>
      <trkpt lat="46.72345" lon="-0.45927">
        <ele>187.15</ele>
        <time>2024-06-24T23:59:39.850Z</time>
      </trkpt>
      <trkpt lat="46.72349" lon="-0.45933">
        <ele>187.09</ele>
        <time>2024-06-24T23:59:47.603Z</time>
      </trkpt>
      <trkpt lat="46.72353" lon="-0.45939">
        <ele>187.03</ele>
        <time>2024-06-24T23:59:55.357Z</time>
      </trkpt>
      <trkpt lat="46.72358" lon="-0.45945">
        <ele>186.97</ele>
        <time>2024-06-25T00:00:03.112Z</time>
      </trkpt>
      <trkpt lat="46.72362" lon="-0.45951">
        <ele>186.91</ele>
        <time>2024-06-25T00:00:10.868Z</time>
      </trkpt>
      <trkpt lat="46.72368" lon="-0.45956">
        <ele>186.86</ele>
        <time>2024-06-25T00:00:18.626Z</time>
      </trkpt>
      <trkpt lat="46.72373" lon="-0.4596">
        <ele>186.81</ele>
        <time>2024-06-25T00:00:26.385Z</time>
      </trkpt>
      <trkpt lat="46.7238" lon="-0.45964">
        <ele>186.77</ele>
        <time>2024-06-25T00:00:34.145Z</time>
      </trkpt>
      <trkpt lat="46.72385" lon="-0.45968">
        <ele>186.73</ele>
        <time>2024-06-25T00:00:41.907Z</time>
      </trkpt>
      <trkpt lat="46.72391" lon="-0.45971">
        <ele>186.7</ele>
        <time>2024-06-25T00:00:49.670Z</time>
      </trkpt>
      <trkpt lat="46.72396" lon="-0.45975">
        <ele>186.67</ele>
        <time>2024-06-25T00:00:57.434Z</time>
      </trkpt>
      <trkpt lat="46.72401" lon="-0.4598">
        <ele>186.64</ele>
        <time>2024-06-25T00:01:05.199Z</time>
      </trkpt>
      <trkpt lat="46.72406" lon="-0.45986">
        <ele>186.61</ele>
        <time>2024-06-25T00:01:12.965Z</time>
      </trkpt>
      <trkpt lat="46.72409" lon="-0.45992">
        <ele>186.58</ele>
        <time>2024-06-25T00:01:20.733Z</time>
      </trkpt>
      <trkpt lat="46.72413" lon="-0.46">
        <ele>186.57</ele>
        <time>2024-06-25T00:01:28.502Z</time>
      </trkpt>
      <trkpt lat="46.72417" lon="-0.46007">
        <ele>186.53</ele>
        <time>2024-06-25T00:01:36.272Z</time>
      </trkpt>
      <trkpt lat="46.7242" lon="-0.46014">
        <ele>186.53</ele>
        <time>2024-06-25T00:01:44.043Z</time>
      </trkpt>
      <trkpt lat="46.72423" lon="-0.46021">
        <ele>186.52</ele>
        <time>2024-06-25T00:01:51.815Z</time>
      </trkpt>
      <trkpt lat="46.72426" lon="-0.46028">
        <ele>186.5</ele>
        <time>2024-06-25T00:01:59.588Z</time>
      </trkpt>
      <trkpt lat="46.72429" lon="-0.46035">
        <ele>186.48</ele>
        <time>2024-06-25T00:02:07.363Z</time>
      </trkpt>
      <trkpt lat="46.72432" lon="-0.46042">
        <ele>186.46</ele>
        <time>2024-06-25T00:02:15.139Z</time>
      </trkpt>
      <trkpt lat="46.72435" lon="-0.4605">
        <ele>186.45</ele>
        <time>2024-06-25T00:02:22.916Z</time>
      </trkpt>
      <trkpt lat="46.72438" lon="-0.46056">
        <ele>186.46</ele>
        <time>2024-06-25T00:02:30.694Z</time>
      </trkpt>
      <trkpt lat="46.72441" lon="-0.46063">
        <ele>186.47</ele>
        <time>2024-06-25T00:02:38.473Z</time>
      </trkpt>
      <trkpt lat="46.72445" lon="-0.4607">
        <ele>186.49</ele>
        <time>2024-06-25T00:02:46.253Z</time>
      </trkpt>
      <trkpt lat="46.72448" lon="-0.46077">
        <ele>186.51</ele>
        <time>2024-06-25T00:02:54.035Z</time>
      </trkpt>
      <trkpt lat="46.72451" lon="-0.46084">
        <ele>186.52</ele>
        <time>2024-06-25T00:03:01.818Z</time>
      </trkpt>
      <trkpt lat="46.72454" lon="-0.46091">
        <ele>186.52</ele>
        <time>2024-06-25T00:03:09.602Z</time>
      </trkpt>
      <trkpt lat="46.72456" lon="-0.46098">
        <ele>186.52</ele>
        <time>2024-06-25T00:03:17.387Z</time>
      </trkpt>
      <trkpt lat="46.72459" lon="-0.46105">
        <ele>186.53</ele>
        <time>2024-06-25T00:03:25.173Z</time>
      </trkpt>
      <trkpt lat="46.72462" lon="-0.46112">
        <ele>186.56</ele>
        <time>2024-06-25T00:03:32.960Z</time>
      </trkpt>
      <trkpt lat="46.72466" lon="-0.46119">
        <ele>186.59</ele>
        <time>2024-06-25T00:03:40.748Z</time>
      </trkpt>
      <trkpt lat="46.72469" lon="-0.46126">
        <ele>186.62</ele>
        <time>2024-06-25T00:03:48.537Z</time>
      </trkpt>
      <trkpt lat="46.72472" lon="-0.46133">
        <ele>186.66</ele>
        <time>2024-06-25T00:03:56.328Z</time>
      </trkpt>
      <trkpt lat="46.72475" lon="-0.4614">
        <ele>186.69</ele>
        <time>2024-06-25T00:04:04.120Z</time>
      </trkpt>
      <trkpt lat="46.72478" lon="-0.46146">
        <ele>186.73</ele>
        <time>2024-06-25T00:04:11.913Z</time>
      </trkpt>
      <trkpt lat="46.72481" lon="-0.46153">
        <ele>186.78</ele>
        <time>2024-06-25T00:04:19.707Z</time>
      </trkpt>
      <trkpt lat="46.72484" lon="-0.46159">
        <ele>186.82</ele>
        <time>2024-06-25T00:04:27.502Z</time>
      </trkpt>
      <trkpt lat="46.72487" lon="-0.46166">
        <ele>186.87</ele>
        <time>2024-06-25T00:04:35.298Z</time>
      </trkpt>
      <trkpt lat="46.7249" lon="-0.46173">
        <ele>186.92</ele>
        <time>2024-06-25T00:04:43.095Z</time>
      </trkpt>
      <trkpt lat="46.72493" lon="-0.4618">
        <ele>186.98</ele>
        <time>2024-06-25T00:04:50.893Z</time>
      </trkpt>
      <trkpt lat="46.72495" lon="-0.46188">
        <ele>187.03</ele>
        <time>2024-06-25T00:04:58.693Z</time>
      </trkpt>
      <trkpt lat="46.72497" lon="-0.46196">
        <ele>187.09</ele>
        <time>2024-06-25T00:05:06.494Z</time>
      </trkpt>
      <trkpt lat="46.72498" lon="-0.46205">
        <ele>187.15</ele>
        <time>2024-06-25T00:05:14.296Z</time>
      </trkpt>
      <trkpt lat="46.72497" lon="-0.46213">
        <ele>187.21</ele>
        <time>2024-06-25T00:05:22.099Z</time>
      </trkpt>
      <trkpt lat="46.72496" lon="-0.4622">
        <ele>187.27</ele>
        <time>2024-06-25T00:05:29.903Z</time>
      </trkpt>
      <trkpt lat="46.72495" lon="-0.46228">
        <ele>187.32</ele>
        <time>2024-06-25T00:05:37.708Z</time>
      </trkpt>
      <trkpt lat="46.72494" lon="-0.46235">
        <ele>187.38</ele>
        <time>2024-06-25T00:05:45.514Z</time>
      </trkpt>
      <trkpt lat="46.72492" lon="-0.46242">
        <ele>187.43</ele>
        <time>2024-06-25T00:05:53.321Z</time>
      </trkpt>
      <trkpt lat="46.72491" lon="-0.46249">
        <ele>187.49</ele>
        <time>2024-06-25T00:06:01.129Z</time>
      </trkpt>
      <trkpt lat="46.72489" lon="-0.46256">
        <ele>187.56</ele>
        <time>2024-06-25T00:06:08.938Z</time>
      </trkpt>
      <trkpt lat="46.72488" lon="-0.46263">
        <ele>187.62</ele>
        <time>2024-06-25T00:06:16.748Z</time>
      </trkpt>
      <trkpt lat="46.72486" lon="-0.4627">
        <ele>187.69</ele>
        <time>2024-06-25T00:06:24.559Z</time>
      </trkpt>
      <trkpt lat="46.72485" lon="-0.46276">
        <ele>187.76</ele>
        <time>2024-06-25T00:06:32.371Z</time>
      </trkpt>
      <trkpt lat="46.72485" lon="-0.46282">
        <ele>187.84</ele>
        <time>2024-06-25T00:06:40.184Z</time>
      </trkpt>
      <trkpt lat="46.72484" lon="-0.46287">
        <ele>187.91</ele>
        <time>2024-06-25T00:06:47.998Z</time>
      </trkpt>
      <trkpt lat="46.72483" lon="-0.46294">
        <ele>187.99</ele>
        <time>2024-06-25T00:06:55.813Z</time>
      </trkpt>
      <trkpt lat="46.72483" lon="-0.46299">
        <ele>188.06</ele>
        <time>2024-06-25T00:07:03.628Z</time>
      </trkpt>
      <trkpt lat="46.72482" lon="-0.46304">
        <ele>188.13</ele>
        <time>2024-06-25T00:07:11.444Z</time>
      </trkpt>
      <trkpt lat="46.72482" lon="-0.46309">
        <ele>188.2</ele>
        <time>2024-06-25T00:07:19.261Z</time>
      </trkpt>
      <trkpt lat="46.72482" lon="-0.46314">
        <ele>188.27</ele>
        <time>2024-06-25T00:07:27.078Z</time>
      </trkpt>
      <trkpt lat="46.72481" lon="-0.4632">
        <ele>188.34</ele>
        <time>2024-06-25T00:07:34.896Z</time>
      </trkpt>
      <trkpt lat="46.72481" lon="-0.46325">
        <ele>188.41</ele>
        <time>2024-06-25T00:07:42.715Z</time>
      </trkpt>
      <trkpt lat="46.72481" lon="-0.4633">
        <ele>188.47</ele>
        <time>2024-06-25T00:07:50.535Z</time>
      </trkpt>
      <trkpt lat="46.72481" lon="-0.46335">
        <ele>188.52</ele>
        <time>2024-06-25T00:07:58.355Z</time>
      </trkpt>
      <trkpt lat="46.72481" lon="-0.4634">
        <ele>188.58</ele>
        <time>2024-06-25T00:08:06.176Z</time>
      </trkpt>
      <trkpt lat="46.72481" lon="-0.46345">
        <ele>188.63</ele>
        <time>2024-06-25T00:08:13.998Z</time>
      </trkpt>
      <trkpt lat="46.72481" lon="-0.4635">
        <ele>188.67</ele>
        <time>2024-06-25T00:08:21.820Z</time>
      </trkpt>
      <trkpt lat="46.72481" lon="-0.46355">
        <ele>188.71</ele>
        <time>2024-06-25T00:08:29.643Z</time>
      </trkpt>
      <trkpt lat="46.72481" lon="-0.46361">
        <ele>188.75</ele>
        <time>2024-06-25T00:08:37.467Z</time>
      </trkpt>
      <trkpt lat="46.72481" lon="-0.46366">
        <ele>188.78</ele>
        <time>2024-06-25T00:08:45.292Z</time>
      </trkpt>
      <trkpt lat="46.72481" lon="-0.46373">
        <ele>188.81</ele>
        <time>2024-06-25T00:08:53.117Z</time>
      </trkpt>
      <trkpt lat="46.72482" lon="-0.46379">
        <ele>188.83</ele>
        <time>2024-06-25T00:09:00.943Z</time>
      </trkpt>
      <trkpt lat="46.72482" lon="-0.46385">
        <ele>188.84</ele>
        <time>2024-06-25T00:09:08.770Z</time>
      </trkpt>
      <trkpt lat="46.72482" lon="-0.46392">
        <ele>188.85</ele>
        <time>2024-06-25T00:09:16.598Z</time>
      </trkpt>
      <trkpt lat="46.72483" lon="-0.464">
        <ele>188.86</ele>
        <time>2024-06-25T00:09:24.427Z</time>
      </trkpt>
      <trkpt lat="46.72484" lon="-0.46407">
        <ele>188.86</ele>
        <time>2024-06-25T00:09:32.257Z</time>
      </trkpt>
      <trkpt lat="46.72484" lon="-0.46416">
        <ele>188.86</ele>
        <time>2024-06-25T00:09:40.088Z</time>
      </trkpt>
      <trkpt lat="46.72486" lon="-0.46424">
        <ele>188.85</ele>
        <time>2024-06-25T00:09:47.921Z</time>
      </trkpt>
      <trkpt lat="46.72487" lon="-0.46432">
        <ele>188.83</ele>
        <time>2024-06-25T00:09:55.755Z</time>
      </trkpt>
      <trkpt lat="46.72488" lon="-0.4644">
        <ele>188.81</ele>
        <time>2024-06-25T00:10:03.590Z</time>
      </trkpt>
      <trkpt lat="46.7249" lon="-0.46448">
        <ele>188.79</ele>
        <time>2024-06-25T00:10:11.426Z</time>
      </trkpt>
      <trkpt lat="46.72491" lon="-0.46456">
        <ele>188.75</ele>
        <time>2024-06-25T00:10:19.263Z</time>
      </trkpt>
      <trkpt lat="46.72493" lon="-0.46465">
        <ele>188.72</ele>
        <time>2024-06-25T00:10:27.101Z</time>
      </trkpt>
      <trkpt lat="46.72494" lon="-0.46472">
        <ele>188.68</ele>
        <time>2024-06-25T00:10:34.940Z</time>
      </trkpt>
      <trkpt lat="46.72496" lon="-0.4648">
        <ele>188.62</ele>
        <time>2024-06-25T00:10:42.781Z</time>
      </trkpt>
      <trkpt lat="46.72497" lon="-0.46488">
        <ele>188.57</ele>
        <time>2024-06-25T00:10:50.623Z</time>
      </trkpt>
      <trkpt lat="46.72498" lon="-0.46496">
        <ele>188.5</ele>
        <time>2024-06-25T00:10:58.466Z</time>
      </trkpt>
      <trkpt lat="46.72499" lon="-0.46504">
        <ele>188.43</ele>
        <time>2024-06-25T00:11:06.310Z</time>
      </trkpt>
      <trkpt lat="46.725" lon="-0.46512">
        <ele>188.37</ele>
        <time>2024-06-25T00:11:14.155Z</time>
      </trkpt>
      <trkpt lat="46.725" lon="-0.4652">
        <ele>188.3</ele>
        <time>2024-06-25T00:11:22.001Z</time>
      </trkpt>
      <trkpt lat="46.72501" lon="-0.46529">
        <ele>188.22</ele>
        <time>2024-06-25T00:11:29.848Z</time>
      </trkpt>
      <trkpt lat="46.72501" lon="-0.46537">
        <ele>188.14</ele>
        <time>2024-06-25T00:11:37.696Z</time>
      </trkpt>
      <trkpt lat="46.72501" lon="-0.46545">
        <ele>188.05</ele>
        <time>2024-06-25T00:11:45.546Z</time>
      </trkpt>
      <trkpt lat="46.72501" lon="-0.46554">
        <ele>187.95</ele>
        <time>2024-06-25T00:11:53.397Z</time>
      </trkpt>
      <trkpt lat="46.725" lon="-0.46563">
        <ele>187.86</ele>
        <time>2024-06-25T00:12:01.249Z</time>
      </trkpt>
      <trkpt lat="46.725" lon="-0.46572">
        <ele>187.76</ele>
        <time>2024-06-25T00:12:09.102Z</time>
      </trkpt>
      <trkpt lat="46.72498" lon="-0.46581">
        <ele>187.66</ele>
        <time>2024-06-25T00:12:16.957Z</time>
      </trkpt>
      <trkpt lat="46.72497" lon="-0.46591">
        <ele>187.55</ele>
        <time>2024-06-25T00:12:24.813Z</time>
      </trkpt>
      <trkpt lat="46.72495" lon="-0.466">
        <ele>187.45</ele>
        <time>2024-06-25T00:12:32.670Z</time>
      </trkpt>
      <trkpt lat="46.72491" lon="-0.4661">
        <ele>187.34</ele>
        <time>2024-06-25T00:12:40.529Z</time>
      </trkpt>
      <trkpt lat="46.72487" lon="-0.46619">
        <ele>187.22</ele>
        <time>2024-06-25T00:12:48.389Z</time>
      </trkpt>
      <trkpt lat="46.72482" lon="-0.46627">
        <ele>187.11</ele>
        <time>2024-06-25T00:12:56.251Z</time>
      </trkpt>
      <trkpt lat="46.72476" lon="-0.46632">
        <ele>186.98</ele>
        <time>2024-06-25T00:13:04.114Z</time>
      </trkpt>
      <trkpt lat="46.72469" lon="-0.46637">
        <ele>186.86</ele>
        <time>2024-06-25T00:13:11.979Z</time>
      </trkpt>
      <trkpt lat="46.72463" lon="-0.46641">
        <ele>186.73</ele>
        <time>2024-06-25T00:13:19.845Z</time>
      </trkpt>
      <trkpt lat="46.72457" lon="-0.46646">
        <ele>186.6</ele>
        <time>2024-06-25T00:13:27.712Z</time>
      </trkpt>
      <trkpt lat="46.72451" lon="-0.46649">
        <ele>186.47</ele>
        <time>2024-06-25T00:13:35.581Z</time>
      </trkpt>
      <trkpt lat="46.72444" lon="-0.46653">
        <ele>186.34</ele>
        <time>2024-06-25T00:13:43.451Z</time>
      </trkpt>
      <trkpt lat="46.72438" lon="-0.46656">
        <ele>186.21</ele>
        <time>2024-06-25T00:13:51.322Z</time>
      </trkpt>
      <trkpt lat="46.72432" lon="-0.46659">
        <ele>186.08</ele>
        <time>2024-06-25T00:13:59.195Z</time>
      </trkpt>
      <trkpt lat="46.72425" lon="-0.46662">
        <ele>185.95</ele>
        <time>2024-06-25T00:14:07.069Z</time>
      </trkpt>
      <trkpt lat="46.72419" lon="-0.46665">
        <ele>185.83</ele>
        <time>2024-06-25T00:14:14.945Z</time>
      </trkpt>
      <trkpt lat="46.72413" lon="-0.46669">
        <ele>185.71</ele>
        <time>2024-06-25T00:14:22.822Z</time>
      </trkpt>
      <trkpt lat="46.72406" lon="-0.46673">
        <ele>185.6</ele>
        <time>2024-06-25T00:14:30.700Z</time>
      </trkpt>
      <trkpt lat="46.724" lon="-0.46676">
        <ele>185.49</ele>
        <time>2024-06-25T00:14:38.580Z</time>
      </trkpt>
      <trkpt lat="46.72394" lon="-0.46679">
        <ele>185.38</ele>
        <time>2024-06-25T00:14:46.461Z</time>
      </trkpt>
      <trkpt lat="46.72387" lon="-0.46683">
        <ele>185.28</ele>
        <time>2024-06-25T00:14:54.343Z</time>
      </trkpt>
      <trkpt lat="46.72381" lon="-0.46686">
        <ele>185.17</ele>
        <time>2024-06-25T00:15:02.227Z</time>
      </trkpt>
      <trkpt lat="46.72375" lon="-0.46688">
        <ele>185.07</ele>
        <time>2024-06-25T00:15:10.112Z</time>
      </trkpt>
      <trkpt lat="46.72369" lon="-0.46691">
        <ele>184.97</ele>
        <time>2024-06-25T00:15:17.998Z</time>
      </trkpt>
      <trkpt lat="46.72363" lon="-0.46693">
        <ele>184.86</ele>
        <time>2024-06-25T00:15:25.885Z</time>
      </trkpt>
      <trkpt lat="46.72356" lon="-0.46695">
        <ele>184.75</ele>
        <time>2024-06-25T00:15:33.774Z</time>
      </trkpt>
      <trkpt lat="46.7235" lon="-0.46696">
        <ele>184.65</ele>
        <time>2024-06-25T00:15:41.664Z</time>
      </trkpt>
      <trkpt lat="46.72345" lon="-0.46698">
        <ele>184.54</ele>
        <time>2024-06-25T00:15:49.555Z</time>
      </trkpt>
      <trkpt lat="46.72339" lon="-0.46699">
        <ele>184.44</ele>
        <time>2024-06-25T00:15:57.447Z</time>
      </trkpt>
      <trkpt lat="46.72332" lon="-0.467">
        <ele>184.33</ele>
        <time>2024-06-25T00:16:05.341Z</time>
      </trkpt>
      <trkpt lat="46.72326" lon="-0.46702">
        <ele>184.22</ele>
        <time>2024-06-25T00:16:13.236Z</time>
      </trkpt>
      <trkpt lat="46.72319" lon="-0.46704">
        <ele>184.12</ele>
        <time>2024-06-25T00:16:21.132Z</time>
      </trkpt>
      <trkpt lat="46.72313" lon="-0.46706">
        <ele>184.01</ele>
        <time>2024-06-25T00:16:29.029Z</time>
      </trkpt>
      <trkpt lat="46.72307" lon="-0.46709">
        <ele>183.92</ele>
        <time>2024-06-25T00:16:36.928Z</time>
      </trkpt>
      <trkpt lat="46.72301" lon="-0.46711">
        <ele>183.83</ele>
        <time>2024-06-25T00:16:44.828Z</time>
      </trkpt>
      <trkpt lat="46.72294" lon="-0.46714">
        <ele>183.74</ele>
        <time>2024-06-25T00:16:52.730Z</time>
      </trkpt>
      <trkpt lat="46.72287" lon="-0.46718">
        <ele>183.66</ele>
        <time>2024-06-25T00:17:00.633Z</time>
      </trkpt>
      <trkpt lat="46.7228" lon="-0.46722">
        <ele>183.59</ele>
        <time>2024-06-25T00:17:08.537Z</time>
      </trkpt>
      <trkpt lat="46.72273" lon="-0.46728">
        <ele>183.52</ele>
        <time>2024-06-25T00:17:16.443Z</time>
      </trkpt>
      <trkpt lat="46.72268" lon="-0.46736">
        <ele>183.45</ele>
        <time>2024-06-25T00:17:24.351Z</time>
      </trkpt>
      <trkpt lat="46.72262" lon="-0.46745">
        <ele>183.39</ele>
        <time>2024-06-25T00:17:32.260Z</time>
      </trkpt>
      <trkpt lat="46.72256" lon="-0.46755">
        <ele>183.32</ele>
        <time>2024-06-25T00:17:40.171Z</time>
      </trkpt>
      <trkpt lat="46.72251" lon="-0.46764">
        <ele>183.24</ele>
        <time>2024-06-25T00:17:48.084Z</time>
      </trkpt>
      <trkpt lat="46.72245" lon="-0.46771">
        <ele>183.17</ele>
        <time>2024-06-25T00:17:55.998Z</time>
      </trkpt>
      <trkpt lat="46.72238" lon="-0.46776">
        <ele>183.11</ele>
        <time>2024-06-25T00:18:03.914Z</time>
      </trkpt>
      <trkpt lat="46.7223" lon="-0.46777">
        <ele>183.07</ele>
        <time>2024-06-25T00:18:11.831Z</time>
      </trkpt>
      <trkpt lat="46.72223" lon="-0.46777">
        <ele>183.03</ele>
        <time>2024-06-25T00:18:19.750Z</time>
      </trkpt>
      <trkpt lat="46.72215" lon="-0.46776">
        <ele>183</ele>
        <time>2024-06-25T00:18:27.670Z</time>
      </trkpt>
      <trkpt lat="46.72208" lon="-0.46774">
        <ele>182.98</ele>
        <time>2024-06-25T00:18:35.592Z</time>
      </trkpt>
      <trkpt lat="46.72201" lon="-0.46772">
        <ele>182.97</ele>
        <time>2024-06-25T00:18:43.515Z</time>
      </trkpt>
      <trkpt lat="46.72194" lon="-0.46771">
        <ele>182.98</ele>
        <time>2024-06-25T00:18:51.440Z</time>
      </trkpt>
      <trkpt lat="46.72187" lon="-0.46769">
        <ele>182.99</ele>
        <time>2024-06-25T00:18:59.366Z</time>
      </trkpt>
      <trkpt lat="46.72181" lon="-0.46768">
        <ele>183.01</ele>
        <time>2024-06-25T00:19:07.293Z</time>
      </trkpt>
      <trkpt lat="46.72174" lon="-0.46766">
        <ele>183.02</ele>
        <time>2024-06-25T00:19:15.222Z</time>
      </trkpt>
      <trkpt lat="46.72167" lon="-0.46765">
        <ele>183.04</ele>
        <time>2024-06-25T00:19:23.152Z</time>
      </trkpt>
      <trkpt lat="46.72161" lon="-0.46763">
        <ele>183.07</ele>
        <time>2024-06-25T00:19:31.083Z</time>
      </trkpt>
      <trkpt lat="46.72154" lon="-0.46762">
        <ele>183.1</ele>
        <time>2024-06-25T00:19:39.016Z</time>
      </trkpt>
      <trkpt lat="46.72148" lon="-0.46761">
        <ele>183.14</ele>
        <time>2024-06-25T00:19:46.950Z</time>
      </trkpt>
      <trkpt lat="46.72142" lon="-0.46759">
        <ele>183.19</ele>
        <time>2024-06-25T00:19:54.885Z</time>
      </trkpt>
      <trkpt lat="46.72135" lon="-0.46758">
        <ele>183.25</ele>
        <time>2024-06-25T00:20:02.822Z</time>
      </trkpt>
      <trkpt lat="46.72129" lon="-0.46756">
        <ele>183.3</ele>
        <time>2024-06-25T00:20:10.760Z</time>
      </trkpt>
      <trkpt lat="46.72123" lon="-0.46754">
        <ele>183.37</ele>
        <time>2024-06-25T00:20:18.699Z</time>
      </trkpt>
      <trkpt lat="46.72117" lon="-0.46753">
        <ele>183.44</ele>
        <time>2024-06-25T00:20:26.639Z</time>
      </trkpt>
      <trkpt lat="46.72111" lon="-0.46752">
        <ele>183.51</ele>
        <time>2024-06-25T00:20:34.581Z</time>
      </trkpt>
      <trkpt lat="46.72104" lon="-0.4675">
        <ele>183.59</ele>
        <time>2024-06-25T00:20:42.524Z</time>
      </trkpt>
      <trkpt lat="46.72098" lon="-0.46749">
        <ele>183.67</ele>
        <time>2024-06-25T00:20:50.468Z</time>
      </trkpt>
      <trkpt lat="46.72092" lon="-0.46747">
        <ele>183.76</ele>
        <time>2024-06-25T00:20:58.413Z</time>
      </trkpt>
      <trkpt lat="46.72086" lon="-0.46745">
        <ele>183.85</ele>
        <time>2024-06-25T00:21:06.360Z</time>
      </trkpt>
      <trkpt lat="46.7208" lon="-0.46743">
        <ele>183.95</ele>
        <time>2024-06-25T00:21:14.308Z</time>
      </trkpt>
      <trkpt lat="46.72074" lon="-0.46742">
        <ele>184.05</ele>
        <time>2024-06-25T00:21:22.257Z</time>
      </trkpt>
      <trkpt lat="46.72068" lon="-0.46741">
        <ele>184.15</ele>
        <time>2024-06-25T00:21:30.207Z</time>
      </trkpt>
      <trkpt lat="46.72062" lon="-0.4674">
        <ele>184.25</ele>
        <time>2024-06-25T00:21:38.159Z</time>
      </trkpt>
      <trkpt lat="46.72055" lon="-0.46739">
        <ele>184.36</ele>
        <time>2024-06-25T00:21:46.112Z</time>
      </trkpt>
      <trkpt lat="46.7205" lon="-0.46738">
        <ele>184.47</ele>
        <time>2024-06-25T00:21:54.066Z</time>
      </trkpt>
      <trkpt lat="46.72044" lon="-0.46737">
        <ele>184.58</ele>
        <time>2024-06-25T00:22:02.021Z</time>
      </trkpt>
      <trkpt lat="46.72038" lon="-0.46735">
        <ele>184.7</ele>
        <time>2024-06-25T00:22:09.977Z</time>
      </trkpt>
      <trkpt lat="46.72033" lon="-0.46732">
        <ele>184.82</ele>
        <time>2024-06-25T00:22:17.934Z</time>
      </trkpt>
      <trkpt lat="46.72029" lon="-0.46729">
        <ele>184.94</ele>
        <time>2024-06-25T00:22:25.892Z</time>
      </trkpt>
      <trkpt lat="46.72024" lon="-0.46725">
        <ele>185.06</ele>
        <time>2024-06-25T00:22:33.851Z</time>
      </trkpt>
      <trkpt lat="46.7202" lon="-0.46721">
        <ele>185.17</ele>
        <time>2024-06-25T00:22:41.811Z</time>
      </trkpt>
      <trkpt lat="46.72016" lon="-0.46717">
        <ele>185.29</ele>
        <time>2024-06-25T00:22:49.772Z</time>
      </trkpt>
      <trkpt lat="46.72011" lon="-0.46713">
        <ele>185.4</ele>
        <time>2024-06-25T00:22:57.734Z</time>
      </trkpt>
      <trkpt lat="46.72008" lon="-0.46708">
        <ele>185.52</ele>
        <time>2024-06-25T00:23:05.697Z</time>
      </trkpt>
      <trkpt lat="46.72004" lon="-0.46704">
        <ele>185.63</ele>
        <time>2024-06-25T00:23:13.661Z</time>
      </trkpt>
      <trkpt lat="46.72" lon="-0.46699">
        <ele>185.75</ele>
        <time>2024-06-25T00:23:21.626Z</time>
      </trkpt>
      <trkpt lat="46.71997" lon="-0.46696">
        <ele>185.87</ele>
        <time>2024-06-25T00:23:29.592Z</time>
      </trkpt>
      <trkpt lat="46.71993" lon="-0.46692">
        <ele>185.99</ele>
        <time>2024-06-25T00:23:37.559Z</time>
      </trkpt>
      <trkpt lat="46.71989" lon="-0.4669">
        <ele>186.11</ele>
        <time>2024-06-25T00:23:45.527Z</time>
      </trkpt>
      <trkpt lat="46.71986" lon="-0.46687">
        <ele>186.23</ele>
        <time>2024-06-25T00:23:53.496Z</time>
      </trkpt>
      <trkpt lat="46.71982" lon="-0.46686">
        <ele>186.34</ele>
        <time>2024-06-25T00:24:01.466Z</time>
      </trkpt>
      <trkpt lat="46.71978" lon="-0.46684">
        <ele>186.45</ele>
        <time>2024-06-25T00:24:09.436Z</time>
      </trkpt>
      <trkpt lat="46.71974" lon="-0.46682">
        <ele>186.55</ele>
        <time>2024-06-25T00:24:17.407Z</time>
      </trkpt>
      <trkpt lat="46.7197" lon="-0.4668">
        <ele>186.66</ele>
        <time>2024-06-25T00:24:25.379Z</time>
      </trkpt>
      <trkpt lat="46.71965" lon="-0.46678">
        <ele>186.77</ele>
        <time>2024-06-25T00:24:33.352Z</time>
      </trkpt>
      <trkpt lat="46.71961" lon="-0.46676">
        <ele>186.87</ele>
        <time>2024-06-25T00:24:41.326Z</time>
      </trkpt>
      <trkpt lat="46.71957" lon="-0.46674">
        <ele>186.97</ele>
        <time>2024-06-25T00:24:49.301Z</time>
      </trkpt>
      <trkpt lat="46.71953" lon="-0.46672">
        <ele>187.07</ele>
        <time>2024-06-25T00:24:57.277Z</time>
      </trkpt>
      <trkpt lat="46.7195" lon="-0.46671">
        <ele>187.17</ele>
        <time>2024-06-25T00:25:05.253Z</time>
      </trkpt>
      <trkpt lat="46.71946" lon="-0.4667">
        <ele>187.26</ele>
        <time>2024-06-25T00:25:13.230Z</time>
      </trkpt>
      <trkpt lat="46.71942" lon="-0.46668">
        <ele>187.35</ele>
        <time>2024-06-25T00:25:21.208Z</time>
      </trkpt>
      <trkpt lat="46.71939" lon="-0.46666">
        <ele>187.43</ele>
        <time>2024-06-25T00:25:29.187Z</time>
      </trkpt>
      <trkpt lat="46.71935" lon="-0.46665">
        <ele>187.5</ele>
        <time>2024-06-25T00:25:37.166Z</time>
      </trkpt>
      <trkpt lat="46.71931" lon="-0.46662">
        <ele>187.58</ele>
        <time>2024-06-25T00:25:45.146Z</time>
      </trkpt>
      <trkpt lat="46.71928" lon="-0.46661">
        <ele>187.65</ele>
        <time>2024-06-25T00:25:53.127Z</time>
      </trkpt>
      <trkpt lat="46.71924" lon="-0.4666">
        <ele>187.72</ele>
        <time>2024-06-25T00:26:01.109Z</time>
      </trkpt>
      <trkpt lat="46.7192" lon="-0.46658">
        <ele>187.78</ele>
        <time>2024-06-25T00:26:09.092Z</time>
      </trkpt>
      <trkpt lat="46.71916" lon="-0.46656">
        <ele>187.84</ele>
        <time>2024-06-25T00:26:17.075Z</time>
      </trkpt>
      <trkpt lat="46.71912" lon="-0.46655">
        <ele>187.9</ele>
        <time>2024-06-25T00:26:25.059Z</time>
      </trkpt>
      <trkpt lat="46.71909" lon="-0.46653">
        <ele>187.96</ele>
        <time>2024-06-25T00:26:33.044Z</time>
      </trkpt>
      <trkpt lat="46.71904" lon="-0.46652">
        <ele>188.02</ele>
        <time>2024-06-25T00:26:41.030Z</time>
      </trkpt>
      <trkpt lat="46.719" lon="-0.46651">
        <ele>188.07</ele>
        <time>2024-06-25T00:26:49.017Z</time>
      </trkpt>
      <trkpt lat="46.71897" lon="-0.4665">
        <ele>188.12</ele>
        <time>2024-06-25T00:26:57.004Z</time>
      </trkpt>
      <trkpt lat="46.71892" lon="-0.46649">
        <ele>188.17</ele>
        <time>2024-06-25T00:27:04.992Z</time>
      </trkpt>
      <trkpt lat="46.71888" lon="-0.46648">
        <ele>188.21</ele>
        <time>2024-06-25T00:27:12.981Z</time>
      </trkpt>
      <trkpt lat="46.71884" lon="-0.46646">
        <ele>188.25</ele>
        <time>2024-06-25T00:27:20.971Z</time>
      </trkpt>
      <trkpt lat="46.71879" lon="-0.46645">
        <ele>188.29</ele>
        <time>2024-06-25T00:27:28.962Z</time>
      </trkpt>
      <trkpt lat="46.71874" lon="-0.46644">
        <ele>188.32</ele>
        <time>2024-06-25T00:27:36.954Z</time>
      </trkpt>
      <trkpt lat="46.71869" lon="-0.46643">
        <ele>188.35</ele>
        <time>2024-06-25T00:27:44.947Z</time>
      </trkpt>
      <trkpt lat="46.71864" lon="-0.46643">
        <ele>188.38</ele>
        <time>2024-06-25T00:27:52.941Z</time>
      </trkpt>
      <trkpt lat="46.71859" lon="-0.46642">
        <ele>188.4</ele>
        <time>2024-06-25T00:28:00.936Z</time>
      </trkpt>
      <trkpt lat="46.71853" lon="-0.46642">
        <ele>188.43</ele>
        <time>2024-06-25T00:28:08.932Z</time>
      </trkpt>
      <trkpt lat="46.71847" lon="-0.46642">
        <ele>188.45</ele>
        <time>2024-06-25T00:28:16.929Z</time>
      </trkpt>
      <trkpt lat="46.71842" lon="-0.46642">
        <ele>188.46</ele>
        <time>2024-06-25T00:28:24.927Z</time>
      </trkpt>
      <trkpt lat="46.71836" lon="-0.46642">
        <ele>188.48</ele>
        <time>2024-06-25T00:28:32.926Z</time>
      </trkpt>
      <trkpt lat="46.71831" lon="-0.46642">
        <ele>188.5</ele>
        <time>2024-06-25T00:28:40.926Z</time>
      </trkpt>
      <trkpt lat="46.71826" lon="-0.46641">
        <ele>188.51</ele>
        <time>2024-06-25T00:28:48.928Z</time>
      </trkpt>
      <trkpt lat="46.7182" lon="-0.46642">
        <ele>188.53</ele>
        <time>2024-06-25T00:28:56.931Z</time>
      </trkpt>
      <trkpt lat="46.71815" lon="-0.46641">
        <ele>188.54</ele>
        <time>2024-06-25T00:29:04.935Z</time>
      </trkpt>
      <trkpt lat="46.71809" lon="-0.46641">
        <ele>188.56</ele>
        <time>2024-06-25T00:29:12.940Z</time>
      </trkpt>
      <trkpt lat="46.71804" lon="-0.46642">
        <ele>188.58</ele>
        <time>2024-06-25T00:29:20.946Z</time>
      </trkpt>
      <trkpt lat="46.71799" lon="-0.46641">
        <ele>188.6</ele>
        <time>2024-06-25T00:29:28.953Z</time>
      </trkpt>
      <trkpt lat="46.71794" lon="-0.46641">
        <ele>188.62</ele>
        <time>2024-06-25T00:29:36.961Z</time>
      </trkpt>
      <trkpt lat="46.7179" lon="-0.46641">
        <ele>188.64</ele>
        <time>2024-06-25T00:29:44.970Z</time>
      </trkpt>
      <trkpt lat="46.71785" lon="-0.46641">
        <ele>188.66</ele>
        <time>2024-06-25T00:29:52.980Z</time>
      </trkpt>
      <trkpt lat="46.7178" lon="-0.46641">
        <ele>188.67</ele>
        <time>2024-06-25T00:30:00.991Z</time>
      </trkpt>
      <trkpt lat="46.71775" lon="-0.46641">
        <ele>188.69</ele>
        <time>2024-06-25T00:30:09.003Z</time>
      </trkpt>
      <trkpt lat="46.71769" lon="-0.46641">
        <ele>188.71</ele>
        <time>2024-06-25T00:30:17.016Z</time>
      </trkpt>
      <trkpt lat="46.71765" lon="-0.46642">
        <ele>188.73</ele>
        <time>2024-06-25T00:30:25.030Z</time>
      </trkpt>
      <trkpt lat="46.71759" lon="-0.46642">
        <ele>188.74</ele>
        <time>2024-06-25T00:30:33.045Z</time>
      </trkpt>
      <trkpt lat="46.71754" lon="-0.46641">
        <ele>188.76</ele>
        <time>2024-06-25T00:30:41.061Z</time>
      </trkpt>
      <trkpt lat="46.71749" lon="-0.46641">
        <ele>188.78</ele>
        <time>2024-06-25T00:30:49.078Z</time>
      </trkpt>
      <trkpt lat="46.71744" lon="-0.46641">
        <ele>188.8</ele>
        <time>2024-06-25T00:30:57.096Z</time>
      </trkpt>
      <trkpt lat="46.71739" lon="-0.46641">
        <ele>188.82</ele>
        <time>2024-06-25T00:31:05.115Z</time>
      </trkpt>
      <trkpt lat="46.71734" lon="-0.46641">
        <ele>188.85</ele>
        <time>2024-06-25T00:31:13.135Z</time>
      </trkpt>
      <trkpt lat="46.71729" lon="-0.46641">
        <ele>188.87</ele>
        <time>2024-06-25T00:31:21.156Z</time>
      </trkpt>
      <trkpt lat="46.71724" lon="-0.46641">
        <ele>188.9</ele>
        <time>2024-06-25T00:31:29.178Z</time>
      </trkpt>
      <trkpt lat="46.71718" lon="-0.46641">
        <ele>188.93</ele>
        <time>2024-06-25T00:31:37.201Z</time>
      </trkpt>
      <trkpt lat="46.71713" lon="-0.46641">
        <ele>188.96</ele>
        <time>2024-06-25T00:31:45.225Z</time>
      </trkpt>
      <trkpt lat="46.71708" lon="-0.4664">
        <ele>188.99</ele>
        <time>2024-06-25T00:31:53.250Z</time>
      </trkpt>
      <trkpt lat="46.71702" lon="-0.46639">
        <ele>189.03</ele>
        <time>2024-06-25T00:32:01.276Z</time>
      </trkpt>
      <trkpt lat="46.71697" lon="-0.46638">
        <ele>189.07</ele>
        <time>2024-06-25T00:32:09.303Z</time>
      </trkpt>
      <trkpt lat="46.71692" lon="-0.46637">
        <ele>189.1</ele>
        <time>2024-06-25T00:32:17.331Z</time>
      </trkpt>
      <trkpt lat="46.71687" lon="-0.46635">
        <ele>189.14</ele>
        <time>2024-06-25T00:32:25.360Z</time>
      </trkpt>
      <trkpt lat="46.71682" lon="-0.46634">
        <ele>189.18</ele>
        <time>2024-06-25T00:32:33.391Z</time>
      </trkpt>
      <trkpt lat="46.71677" lon="-0.46633">
        <ele>189.22</ele>
        <time>2024-06-25T00:32:41.423Z</time>
      </trkpt>
      <trkpt lat="46.71672" lon="-0.46632">
        <ele>189.27</ele>
        <time>2024-06-25T00:32:49.455Z</time>
      </trkpt>
      <trkpt lat="46.71667" lon="-0.46631">
        <ele>189.31</ele>
        <time>2024-06-25T00:32:57.488Z</time>
      </trkpt>
      <trkpt lat="46.71662" lon="-0.4663">
        <ele>189.36</ele>
        <time>2024-06-25T00:33:05.522Z</time>
      </trkpt>
      <trkpt lat="46.71658" lon="-0.46628">
        <ele>189.41</ele>
        <time>2024-06-25T00:33:13.557Z</time>
      </trkpt>
      <trkpt lat="46.71653" lon="-0.46627">
        <ele>189.46</ele>
        <time>2024-06-25T00:33:21.593Z</time>
      </trkpt>
      <trkpt lat="46.71649" lon="-0.46626">
        <ele>189.52</ele>
        <time>2024-06-25T00:33:29.630Z</time>
      </trkpt>
      <trkpt lat="46.71644" lon="-0.46624">
        <ele>189.57</ele>
        <time>2024-06-25T00:33:37.668Z</time>
      </trkpt>
      <trkpt lat="46.71639" lon="-0.46623">
        <ele>189.62</ele>
        <time>2024-06-25T00:33:45.707Z</time>
      </trkpt>
      <trkpt lat="46.71634" lon="-0.46622">
        <ele>189.67</ele>
        <time>2024-06-25T00:33:53.747Z</time>
      </trkpt>
      <trkpt lat="46.71629" lon="-0.46622">
        <ele>189.72</ele>
        <time>2024-06-25T00:34:01.788Z</time>
      </trkpt>
      <trkpt lat="46.71624" lon="-0.46621">
        <ele>189.77</ele>
        <time>2024-06-25T00:34:09.830Z</time>
      </trkpt>
      <trkpt lat="46.71618" lon="-0.4662">
        <ele>189.82</ele>
        <time>2024-06-25T00:34:17.873Z</time>
      </trkpt>
      <trkpt lat="46.71613" lon="-0.4662">
        <ele>189.88</ele>
        <time>2024-06-25T00:34:25.917Z</time>
      </trkpt>
      <trkpt lat="46.71608" lon="-0.46619">
        <ele>189.93</ele>
        <time>2024-06-25T00:34:33.962Z</time>
      </trkpt>
      <trkpt lat="46.71602" lon="-0.46619">
        <ele>189.99</ele>
        <time>2024-06-25T00:34:42.009Z</time>
      </trkpt>
      <trkpt lat="46.71596" lon="-0.46619">
        <ele>190.06</ele>
        <time>2024-06-25T00:34:50.057Z</time>
      </trkpt>
      <trkpt lat="46.7159" lon="-0.46619">
        <ele>190.12</ele>
        <time>2024-06-25T00:34:58.106Z</time>
      </trkpt>
      <trkpt lat="46.71584" lon="-0.46618">
        <ele>190.19</ele>
        <time>2024-06-25T00:35:06.156Z</time>
      </trkpt>
      <trkpt lat="46.71579" lon="-0.46617">
        <ele>190.27</ele>
        <time>2024-06-25T00:35:14.207Z</time>
      </trkpt>
      <trkpt lat="46.71573" lon="-0.46616">
        <ele>190.36</ele>
        <time>2024-06-25T00:35:22.259Z</time>
      </trkpt>
      <trkpt lat="46.71568" lon="-0.46614">
        <ele>190.44</ele>
        <time>2024-06-25T00:35:30.313Z</time>
      </trkpt>
      <trkpt lat="46.71562" lon="-0.46611">
        <ele>190.53</ele>
        <time>2024-06-25T00:35:38.368Z</time>
      </trkpt>
      <trkpt lat="46.71557" lon="-0.46608">
        <ele>190.62</ele>
        <time>2024-06-25T00:35:46.424Z</time>
      </trkpt>
      <trkpt lat="46.71552" lon="-0.46605">
        <ele>190.71</ele>
        <time>2024-06-25T00:35:54.481Z</time>
      </trkpt>
      <trkpt lat="46.71546" lon="-0.46601">
        <ele>190.8</ele>
        <time>2024-06-25T00:36:02.539Z</time>
      </trkpt>
      <trkpt lat="46.71541" lon="-0.46597">
        <ele>190.9</ele>
        <time>2024-06-25T00:36:10.598Z</time>
      </trkpt>
      <trkpt lat="46.71537" lon="-0.46594">
        <ele>190.99</ele>
        <time>2024-06-25T00:36:18.658Z</time>
      </trkpt>
      <trkpt lat="46.71532" lon="-0.4659">
        <ele>191.09</ele>
        <time>2024-06-25T00:36:26.719Z</time>
      </trkpt>
      <trkpt lat="46.71528" lon="-0.46587">
        <ele>191.18</ele>
        <time>2024-06-25T00:36:34.781Z</time>
      </trkpt>
      <trkpt lat="46.71523" lon="-0.46583">
        <ele>191.28</ele>
        <time>2024-06-25T00:36:42.844Z</time>
      </trkpt>
      <trkpt lat="46.71519" lon="-0.46579">
        <ele>191.38</ele>
        <time>2024-06-25T00:36:50.908Z</time>
      </trkpt>
      <trkpt lat="46.71515" lon="-0.46576">
        <ele>191.47</ele>
        <time>2024-06-25T00:36:58.973Z</time>
      </trkpt>
      <trkpt lat="46.71511" lon="-0.46571">
        <ele>191.58</ele>
        <time>2024-06-25T00:37:07.039Z</time>
      </trkpt>
      <trkpt lat="46.71506" lon="-0.46567">
        <ele>191.69</ele>
        <time>2024-06-25T00:37:15.106Z</time>
      </trkpt>
      <trkpt lat="46.71502" lon="-0.46563">
        <ele>191.8</ele>
        <time>2024-06-25T00:37:23.174Z</time>
      </trkpt>
      <trkpt lat="46.71498" lon="-0.46559">
        <ele>191.91</ele>
        <time>2024-06-25T00:37:31.243Z</time>
      </trkpt>
      <trkpt lat="46.71493" lon="-0.46554">
        <ele>192.03</ele>
        <time>2024-06-25T00:37:39.314Z</time>
      </trkpt>
      <trkpt lat="46.71489" lon="-0.4655">
        <ele>192.14</ele>
        <time>2024-06-25T00:37:47.386Z</time>
      </trkpt>
      <trkpt lat="46.71485" lon="-0.46546">
        <ele>192.26</ele>
        <time>2024-06-25T00:37:55.459Z</time>
      </trkpt>
      <trkpt lat="46.71481" lon="-0.46542">
        <ele>192.38</ele>
        <time>2024-06-25T00:38:03.533Z</time>
      </trkpt>
      <trkpt lat="46.71477" lon="-0.46538">
        <ele>192.5</ele>
        <time>2024-06-25T00:38:11.608Z</time>
      </trkpt>
      <trkpt lat="46.71473" lon="-0.46534">
        <ele>192.63</ele>
        <time>2024-06-25T00:38:19.684Z</time>
      </trkpt>
      <trkpt lat="46.71469" lon="-0.46529">
        <ele>192.75</ele>
        <time>2024-06-25T00:38:27.761Z</time>
      </trkpt>
      <trkpt lat="46.71464" lon="-0.46525">
        <ele>192.87</ele>
        <time>2024-06-25T00:38:35.839Z</time>
      </trkpt>
      <trkpt lat="46.7146" lon="-0.46521">
        <ele>192.99</ele>
        <time>2024-06-25T00:38:43.918Z</time>
      </trkpt>
      <trkpt lat="46.71456" lon="-0.46518">
        <ele>193.11</ele>
        <time>2024-06-25T00:38:51.998Z</time>
      </trkpt>
      <trkpt lat="46.71451" lon="-0.46513">
        <ele>193.23</ele>
        <time>2024-06-25T00:39:00.079Z</time>
      </trkpt>
      <trkpt lat="46.71447" lon="-0.46509">
        <ele>193.35</ele>
        <time>2024-06-25T00:39:08.161Z</time>
      </trkpt>
      <trkpt lat="46.71443" lon="-0.46505">
        <ele>193.46</ele>
        <time>2024-06-25T00:39:16.244Z</time>
      </trkpt>
      <trkpt lat="46.71439" lon="-0.46501">
        <ele>193.57</ele>
        <time>2024-06-25T00:39:24.328Z</time>
      </trkpt>
      <trkpt lat="46.71435" lon="-0.46496">
        <ele>193.68</ele>
        <time>2024-06-25T00:39:32.413Z</time>
      </trkpt>
      <trkpt lat="46.71431" lon="-0.46492">
        <ele>193.78</ele>
        <time>2024-06-25T00:39:40.499Z</time>
      </trkpt>
      <trkpt lat="46.71427" lon="-0.46487">
        <ele>193.89</ele>
        <time>2024-06-25T00:39:48.586Z</time>
      </trkpt>
      <trkpt lat="46.71423" lon="-0.46483">
        <ele>194</ele>
        <time>2024-06-25T00:39:56.674Z</time>
      </trkpt>
      <trkpt lat="46.7142" lon="-0.46479">
        <ele>194.11</ele>
        <time>2024-06-25T00:40:04.763Z</time>
      </trkpt>
      <trkpt lat="46.71415" lon="-0.46474">
        <ele>194.21</ele>
        <time>2024-06-25T00:40:12.853Z</time>
      </trkpt>
      <trkpt lat="46.71412" lon="-0.46469">
        <ele>194.3</ele>
        <time>2024-06-25T00:40:20.944Z</time>
      </trkpt>
      <trkpt lat="46.71408" lon="-0.46464">
        <ele>194.4</ele>
        <time>2024-06-25T00:40:29.036Z</time>
      </trkpt>
      <trkpt lat="46.71405" lon="-0.4646">
        <ele>194.49</ele>
        <time>2024-06-25T00:40:37.129Z</time>
      </trkpt>
      <trkpt lat="46.71401" lon="-0.46455">
        <ele>194.58</ele>
        <time>2024-06-25T00:40:45.223Z</time>
      </trkpt>
      <trkpt lat="46.71397" lon="-0.4645">
        <ele>194.67</ele>
        <time>2024-06-25T00:40:53.318Z</time>
      </trkpt>
      <trkpt lat="46.71394" lon="-0.46445">
        <ele>194.76</ele>
        <time>2024-06-25T00:41:01.414Z</time>
      </trkpt>
      <trkpt lat="46.7139" lon="-0.4644">
        <ele>194.85</ele>
        <time>2024-06-25T00:41:09.511Z</time>
      </trkpt>
      <trkpt lat="46.71387" lon="-0.46435">
        <ele>194.94</ele>
        <time>2024-06-25T00:41:17.609Z</time>
      </trkpt>
      <trkpt lat="46.71384" lon="-0.4643">
        <ele>195.03</ele>
        <time>2024-06-25T00:41:25.707Z</time>
      </trkpt>
      <trkpt lat="46.7138" lon="-0.46425">
        <ele>195.12</ele>
        <time>2024-06-25T00:41:33.806Z</time>
      </trkpt>
      <trkpt lat="46.71377" lon="-0.4642">
        <ele>195.21</ele>
        <time>2024-06-25T00:41:41.906Z</time>
      </trkpt>
      <trkpt lat="46.71373" lon="-0.46416">
        <ele>195.29</ele>
        <time>2024-06-25T00:41:50.007Z</time>
      </trkpt>
      <trkpt lat="46.71369" lon="-0.46412">
        <ele>195.37</ele>
        <time>2024-06-25T00:41:58.109Z</time>
      </trkpt>
      <trkpt lat="46.71366" lon="-0.46408">
        <ele>195.45</ele>
        <time>2024-06-25T00:42:06.212Z</time>
      </trkpt>
      <trkpt lat="46.71363" lon="-0.46403">
        <ele>195.52</ele>
        <time>2024-06-25T00:42:14.316Z</time>
      </trkpt>
      <trkpt lat="46.7136" lon="-0.46399">
        <ele>195.59</ele>
        <time>2024-06-25T00:42:22.421Z</time>
      </trkpt>
      <trkpt lat="46.71356" lon="-0.46395">
        <ele>195.66</ele>
        <time>2024-06-25T00:42:30.527Z</time>
      </trkpt>
      <trkpt lat="46.71353" lon="-0.46392">
        <ele>195.73</ele>
        <time>2024-06-25T00:42:38.634Z</time>
      </trkpt>
      <trkpt lat="46.71349" lon="-0.4639">
        <ele>195.79</ele>
        <time>2024-06-25T00:42:46.741Z</time>
      </trkpt>
      <trkpt lat="46.71346" lon="-0.46386">
        <ele>195.85</ele>
        <time>2024-06-25T00:42:54.849Z</time>
      </trkpt>
      <trkpt lat="46.71342" lon="-0.46383">
        <ele>195.9</ele>
        <time>2024-06-25T00:43:02.958Z</time>
      </trkpt>
      <trkpt lat="46.71339" lon="-0.46379">
        <ele>195.96</ele>
        <time>2024-06-25T00:43:11.068Z</time>
      </trkpt>
      <trkpt lat="46.71335" lon="-0.46376">
        <ele>196</ele>
        <time>2024-06-25T00:43:19.179Z</time>
      </trkpt>
      <trkpt lat="46.71332" lon="-0.46372">
        <ele>196.05</ele>
        <time>2024-06-25T00:43:27.291Z</time>
      </trkpt>
      <trkpt lat="46.71328" lon="-0.46369">
        <ele>196.08</ele>
        <time>2024-06-25T00:43:35.403Z</time>
      </trkpt>
      <trkpt lat="46.71325" lon="-0.46366">
        <ele>196.12</ele>
        <time>2024-06-25T00:43:43.516Z</time>
      </trkpt>
      <trkpt lat="46.71322" lon="-0.46362">
        <ele>196.15</ele>
        <time>2024-06-25T00:43:51.630Z</time>
      </trkpt>
      <trkpt lat="46.71318" lon="-0.46359">
        <ele>196.17</ele>
        <time>2024-06-25T00:43:59.745Z</time>
      </trkpt>
      <trkpt lat="46.71315" lon="-0.46355">
        <ele>196.2</ele>
        <time>2024-06-25T00:44:07.861Z</time>
      </trkpt>
      <trkpt lat="46.71312" lon="-0.46352">
        <ele>196.21</ele>
        <time>2024-06-25T00:44:15.977Z</time>
      </trkpt>
      <trkpt lat="46.71308" lon="-0.46349">
        <ele>196.22</ele>
        <time>2024-06-25T00:44:24.094Z</time>
      </trkpt>
      <trkpt lat="46.71305" lon="-0.46346">
        <ele>196.22</ele>
        <time>2024-06-25T00:44:32.212Z</time>
      </trkpt>
      <trkpt lat="46.71302" lon="-0.46343">
        <ele>196.22</ele>
        <time>2024-06-25T00:44:40.331Z</time>
      </trkpt>
      <trkpt lat="46.71299" lon="-0.46341">
        <ele>196.22</ele>
        <time>2024-06-25T00:44:48.450Z</time>
      </trkpt>
      <trkpt lat="46.71297" lon="-0.46338">
        <ele>196.21</ele>
        <time>2024-06-25T00:44:56.570Z</time>
      </trkpt>
      <trkpt lat="46.71294" lon="-0.46336">
        <ele>196.19</ele>
        <time>2024-06-25T00:45:04.691Z</time>
      </trkpt>
      <trkpt lat="46.71291" lon="-0.46335">
        <ele>196.17</ele>
        <time>2024-06-25T00:45:12.812Z</time>
      </trkpt>
      <trkpt lat="46.71289" lon="-0.46334">
        <ele>196.15</ele>
        <time>2024-06-25T00:45:20.934Z</time>
      </trkpt>
      <trkpt lat="46.71288" lon="-0.46332">
        <ele>196.11</ele>
        <time>2024-06-25T00:45:29.056Z</time>
      </trkpt>
      <trkpt lat="46.71287" lon="-0.4633">
        <ele>196.08</ele>
        <time>2024-06-25T00:45:37.178Z</time>
      </trkpt>
      <trkpt lat="46.71286" lon="-0.46326">
        <ele>196.04</ele>
        <time>2024-06-25T00:45:45.301Z</time>
      </trkpt>
      <trkpt lat="46.71286" lon="-0.46322">
        <ele>195.99</ele>
        <time>2024-06-25T00:45:53.425Z</time>
      </trkpt>
      <trkpt lat="46.71285" lon="-0.46316">
        <ele>195.94</ele>
        <time>2024-06-25T00:46:01.549Z</time>
      </trkpt>
      <trkpt lat="46.71285" lon="-0.46311">
        <ele>195.89</ele>
        <time>2024-06-25T00:46:09.674Z</time>
      </trkpt>
      <trkpt lat="46.71284" lon="-0.46304">
        <ele>195.83</ele>
        <time>2024-06-25T00:46:17.800Z</time>
      </trkpt>
      <trkpt lat="46.71282" lon="-0.46297">
        <ele>195.76</ele>
        <time>2024-06-25T00:46:25.927Z</time>
      </trkpt>
      <trkpt lat="46.71279" lon="-0.46291">
        <ele>195.69</ele>
        <time>2024-06-25T00:46:34.055Z</time>
      </trkpt>
      <trkpt lat="46.71276" lon="-0.46287">
        <ele>195.62</ele>
        <time>2024-06-25T00:46:42.184Z</time>
      </trkpt>
      <trkpt lat="46.71272" lon="-0.46283">
        <ele>195.54</ele>
        <time>2024-06-25T00:46:50.314Z</time>
      </trkpt>
      <trkpt lat="46.71268" lon="-0.46279">
        <ele>195.46</ele>
        <time>2024-06-25T00:46:58.445Z</time>
      </trkpt>
      <trkpt lat="46.71263" lon="-0.46276">
        <ele>195.37</ele>
        <time>2024-06-25T00:47:06.577Z</time>
      </trkpt>
      <trkpt lat="46.71259" lon="-0.46273">
        <ele>195.28</ele>
        <time>2024-06-25T00:47:14.710Z</time>
      </trkpt>
      <trkpt lat="46.71254" lon="-0.4627">
        <ele>195.18</ele>
        <time>2024-06-25T00:47:22.844Z</time>
      </trkpt>
      <trkpt lat="46.71249" lon="-0.46266">
        <ele>195.08</ele>
        <time>2024-06-25T00:47:30.979Z</time>
      </trkpt>
      <trkpt lat="46.71244" lon="-0.46262">
        <ele>194.97</ele>
        <time>2024-06-25T00:47:39.115Z</time>
      </trkpt>
      <trkpt lat="46.71239" lon="-0.46258">
        <ele>194.87</ele>
        <time>2024-06-25T00:47:47.252Z</time>
      </trkpt>
      <trkpt lat="46.71234" lon="-0.46254">
        <ele>194.76</ele>
        <time>2024-06-25T00:47:55.391Z</time>
      </trkpt>
      <trkpt lat="46.71229" lon="-0.46249">
        <ele>194.66</ele>
        <time>2024-06-25T00:48:03.531Z</time>
      </trkpt>
      <trkpt lat="46.71225" lon="-0.46243">
        <ele>194.54</ele>
        <time>2024-06-25T00:48:11.672Z</time>
      </trkpt>
      <trkpt lat="46.71221" lon="-0.46236">
        <ele>194.41</ele>
        <time>2024-06-25T00:48:19.814Z</time>
      </trkpt>
      <trkpt lat="46.71217" lon="-0.46229">
        <ele>194.29</ele>
        <time>2024-06-25T00:48:27.957Z</time>
      </trkpt>
      <trkpt lat="46.71213" lon="-0.46221">
        <ele>194.16</ele>
        <time>2024-06-25T00:48:36.102Z</time>
      </trkpt>
      <trkpt lat="46.71211" lon="-0.46213">
        <ele>194.03</ele>
        <time>2024-06-25T00:48:44.248Z</time>
      </trkpt>
      <trkpt lat="46.71209" lon="-0.46205">
        <ele>193.89</ele>
        <time>2024-06-25T00:48:52.395Z</time>
      </trkpt>
      <trkpt lat="46.71207" lon="-0.46197">
        <ele>193.75</ele>
        <time>2024-06-25T00:49:00.543Z</time>
      </trkpt>
      <trkpt lat="46.71205" lon="-0.46189">
        <ele>193.61</ele>
        <time>2024-06-25T00:49:08.692Z</time>
      </trkpt>
      <trkpt lat="46.71203" lon="-0.46182">
        <ele>193.48</ele>
        <time>2024-06-25T00:49:16.842Z</time>
      </trkpt>
      <trkpt lat="46.71201" lon="-0.46173">
        <ele>193.34</ele>
        <time>2024-06-25T00:49:24.994Z</time>
      </trkpt>
      <trkpt lat="46.712" lon="-0.46165">
        <ele>193.21</ele>
        <time>2024-06-25T00:49:33.147Z</time>
      </trkpt>
      <trkpt lat="46.71197" lon="-0.46156">
        <ele>193.08</ele>
        <time>2024-06-25T00:49:41.301Z</time>
      </trkpt>
      <trkpt lat="46.71194" lon="-0.46148">
        <ele>192.95</ele>
        <time>2024-06-25T00:49:49.456Z</time>
      </trkpt>
      <trkpt lat="46.71191" lon="-0.46141">
        <ele>192.82</ele>
        <time>2024-06-25T00:49:57.613Z</time>
      </trkpt>
      <trkpt lat="46.71187" lon="-0.46133">
        <ele>192.7</ele>
        <time>2024-06-25T00:50:05.771Z</time>
      </trkpt>
      <trkpt lat="46.71182" lon="-0.46126">
        <ele>192.57</ele>
        <time>2024-06-25T00:50:13.930Z</time>
      </trkpt>
      <trkpt lat="46.71177" lon="-0.46121">
        <ele>192.45</ele>
        <time>2024-06-25T00:50:22.091Z</time>
      </trkpt>
      <trkpt lat="46.71171" lon="-0.46117">
        <ele>192.33</ele>
        <time>2024-06-25T00:50:30.253Z</time>
      </trkpt>
      <trkpt lat="46.71165" lon="-0.46114">
        <ele>192.2</ele>
        <time>2024-06-25T00:50:38.416Z</time>
      </trkpt>
      <trkpt lat="46.71159" lon="-0.46112">
        <ele>192.08</ele>
        <time>2024-06-25T00:50:46.580Z</time>
      </trkpt>
      <trkpt lat="46.71153" lon="-0.4611">
        <ele>191.96</ele>
        <time>2024-06-25T00:50:54.746Z</time>
      </trkpt>
      <trkpt lat="46.71147" lon="-0.46108">
        <ele>191.84</ele>
        <time>2024-06-25T00:51:02.913Z</time>
      </trkpt>
      <trkpt lat="46.71141" lon="-0.46107">
        <ele>191.73</ele>
        <time>2024-06-25T00:51:11.081Z</time>
      </trkpt>
      <trkpt lat="46.71135" lon="-0.46107">
        <ele>191.63</ele>
        <time>2024-06-25T00:51:19.250Z</time>
      </trkpt>
      <trkpt lat="46.71129" lon="-0.46106">
        <ele>191.52</ele>
        <time>2024-06-25T00:51:27.420Z</time>
      </trkpt>
      <trkpt lat="46.71123" lon="-0.46105">
        <ele>191.42</ele>
        <time>2024-06-25T00:51:35.592Z</time>
      </trkpt>
      <trkpt lat="46.71116" lon="-0.46105">
        <ele>191.33</ele>
        <time>2024-06-25T00:51:43.765Z</time>
      </trkpt>
      <trkpt lat="46.7111" lon="-0.46104">
        <ele>191.24</ele>
        <time>2024-06-25T00:51:51.939Z</time>
      </trkpt>
      <trkpt lat="46.71105" lon="-0.46103">
        <ele>191.16</ele>
        <time>2024-06-25T00:52:00.114Z</time>
      </trkpt>
      <trkpt lat="46.71099" lon="-0.46103">
        <ele>191.08</ele>
        <time>2024-06-25T00:52:08.290Z</time>
      </trkpt>
      <trkpt lat="46.71094" lon="-0.46102">
        <ele>191</ele>
        <time>2024-06-25T00:52:16.468Z</time>
      </trkpt>
      <trkpt lat="46.71088" lon="-0.46101">
        <ele>190.93</ele>
        <time>2024-06-25T00:52:24.647Z</time>
      </trkpt>
      <trkpt lat="46.71083" lon="-0.46101">
        <ele>190.86</ele>
        <time>2024-06-25T00:52:32.827Z</time>
      </trkpt>
      <trkpt lat="46.71077" lon="-0.461">
        <ele>190.79</ele>
        <time>2024-06-25T00:52:41.008Z</time>
      </trkpt>
      <trkpt lat="46.71072" lon="-0.461">
        <ele>190.73</ele>
        <time>2024-06-25T00:52:49.190Z</time>
      </trkpt>
      <trkpt lat="46.71066" lon="-0.46099">
        <ele>190.67</ele>
        <time>2024-06-25T00:52:57.373Z</time>
      </trkpt>
      <trkpt lat="46.7106" lon="-0.46099">
        <ele>190.62</ele>
        <time>2024-06-25T00:53:05.557Z</time>
      </trkpt>
      <trkpt lat="46.71055" lon="-0.46097">
        <ele>190.56</ele>
        <time>2024-06-25T00:53:13.742Z</time>
      </trkpt>
      <trkpt lat="46.71049" lon="-0.46097">
        <ele>190.52</ele>
        <time>2024-06-25T00:53:21.929Z</time>
      </trkpt>
      <trkpt lat="46.71042" lon="-0.46097">
        <ele>190.47</ele>
        <time>2024-06-25T00:53:30.117Z</time>
      </trkpt>
      <trkpt lat="46.71036" lon="-0.46096">
        <ele>190.44</ele>
        <time>2024-06-25T00:53:38.306Z</time>
      </trkpt>
      <trkpt lat="46.7103" lon="-0.46097">
        <ele>190.4</ele>
        <time>2024-06-25T00:53:46.496Z</time>
      </trkpt>
      <trkpt lat="46.71024" lon="-0.46097">
        <ele>190.37</ele>
        <time>2024-06-25T00:53:54.688Z</time>
      </trkpt>
      <trkpt lat="46.71018" lon="-0.46098">
        <ele>190.35</ele>
        <time>2024-06-25T00:54:02.881Z</time>
      </trkpt>
      <trkpt lat="46.71013" lon="-0.46098">
        <ele>190.33</ele>
        <time>2024-06-25T00:54:11.075Z</time>
      </trkpt>
      <trkpt lat="46.71007" lon="-0.46099">
        <ele>190.32</ele>
        <time>2024-06-25T00:54:19.270Z</time>
      </trkpt>
      <trkpt lat="46.71002" lon="-0.46101">
        <ele>190.31</ele>
        <time>2024-06-25T00:54:27.466Z</time>
      </trkpt>
      <trkpt lat="46.70996" lon="-0.46104">
        <ele>190.31</ele>
        <time>2024-06-25T00:54:35.663Z</time>
      </trkpt>
      <trkpt lat="46.70991" lon="-0.46107">
        <ele>190.31</ele>
        <time>2024-06-25T00:54:43.861Z</time>
      </trkpt>
      <trkpt lat="46.70985" lon="-0.4611">
        <ele>190.32</ele>
        <time>2024-06-25T00:54:52.061Z</time>
      </trkpt>
      <trkpt lat="46.70981" lon="-0.46114">
        <ele>190.33</ele>
        <time>2024-06-25T00:55:00.262Z</time>
      </trkpt>
      <trkpt lat="46.70976" lon="-0.46119">
        <ele>190.35</ele>
        <time>2024-06-25T00:55:08.464Z</time>
      </trkpt>
      <trkpt lat="46.70971" lon="-0.46123">
        <ele>190.37</ele>
        <time>2024-06-25T00:55:16.667Z</time>
      </trkpt>
      <trkpt lat="46.70966" lon="-0.46127">
        <ele>190.41</ele>
        <time>2024-06-25T00:55:24.871Z</time>
      </trkpt>
      <trkpt lat="46.70962" lon="-0.4613">
        <ele>190.45</ele>
        <time>2024-06-25T00:55:33.076Z</time>
      </trkpt>
      <trkpt lat="46.70958" lon="-0.46134">
        <ele>190.49</ele>
        <time>2024-06-25T00:55:41.282Z</time>
      </trkpt>
      <trkpt lat="46.70953" lon="-0.46138">
        <ele>190.54</ele>
        <time>2024-06-25T00:55:49.489Z</time>
      </trkpt>
      <trkpt lat="46.70948" lon="-0.46142">
        <ele>190.6</ele>
        <time>2024-06-25T00:55:57.697Z</time>
      </trkpt>
      <trkpt lat="46.70944" lon="-0.46145">
        <ele>190.67</ele>
        <time>2024-06-25T00:56:05.906Z</time>
      </trkpt>
      <trkpt lat="46.7094" lon="-0.46149">
        <ele>190.75</ele>
        <time>2024-06-25T00:56:14.116Z</time>
      </trkpt>
      <trkpt lat="46.70935" lon="-0.46153">
        <ele>190.83</ele>
        <time>2024-06-25T00:56:22.327Z</time>
      </trkpt>
      <trkpt lat="46.70931" lon="-0.46157">
        <ele>190.92</ele>
        <time>2024-06-25T00:56:30.539Z</time>
      </trkpt>
      <trkpt lat="46.70926" lon="-0.4616">
        <ele>191.02</ele>
        <time>2024-06-25T00:56:38.752Z</time>
      </trkpt>
      <trkpt lat="46.70922" lon="-0.46164">
        <ele>191.12</ele>
        <time>2024-06-25T00:56:46.966Z</time>
      </trkpt>
      <trkpt lat="46.70918" lon="-0.46168">
        <ele>191.22</ele>
        <time>2024-06-25T00:56:55.181Z</time>
      </trkpt>
      <trkpt lat="46.70914" lon="-0.46172">
        <ele>191.34</ele>
        <time>2024-06-25T00:57:03.397Z</time>
      </trkpt>
      <trkpt lat="46.70909" lon="-0.46176">
        <ele>191.46</ele>
        <time>2024-06-25T00:57:11.614Z</time>
      </trkpt>
      <trkpt lat="46.70905" lon="-0.4618">
        <ele>191.59</ele>
        <time>2024-06-25T00:57:19.832Z</time>
      </trkpt>
      <trkpt lat="46.70901" lon="-0.46184">
        <ele>191.72</ele>
        <time>2024-06-25T00:57:28.051Z</time>
      </trkpt>
      <trkpt lat="46.70897" lon="-0.46189">
        <ele>191.86</ele>
        <time>2024-06-25T00:57:36.271Z</time>
      </trkpt>
      <trkpt lat="46.70894" lon="-0.46194">
        <ele>192</ele>
        <time>2024-06-25T00:57:44.492Z</time>
      </trkpt>
      <trkpt lat="46.70892" lon="-0.46199">
        <ele>192.14</ele>
        <time>2024-06-25T00:57:52.714Z</time>
      </trkpt>
      <trkpt lat="46.70889" lon="-0.46204">
        <ele>192.28</ele>
        <time>2024-06-25T00:58:00.937Z</time>
      </trkpt>
      <trkpt lat="46.70887" lon="-0.46209">
        <ele>192.43</ele>
        <time>2024-06-25T00:58:09.161Z</time>
      </trkpt>
      <trkpt lat="46.70885" lon="-0.46214">
        <ele>192.58</ele>
        <time>2024-06-25T00:58:17.386Z</time>
      </trkpt>
      <trkpt lat="46.70883" lon="-0.4622">
        <ele>192.74</ele>
        <time>2024-06-25T00:58:25.611Z</time>
      </trkpt>
      <trkpt lat="46.70881" lon="-0.46226">
        <ele>192.9</ele>
        <time>2024-06-25T00:58:33.837Z</time>
      </trkpt>
      <trkpt lat="46.70879" lon="-0.46232">
        <ele>193.07</ele>
        <time>2024-06-25T00:58:42.064Z</time>
      </trkpt>
      <trkpt lat="46.70877" lon="-0.46238">
        <ele>193.24</ele>
        <time>2024-06-25T00:58:50.292Z</time>
      </trkpt>
      <trkpt lat="46.70875" lon="-0.46245">
        <ele>193.41</ele>
        <time>2024-06-25T00:58:58.521Z</time>
      </trkpt>
      <trkpt lat="46.70874" lon="-0.4625">
        <ele>193.59</ele>
        <time>2024-06-25T00:59:06.751Z</time>
      </trkpt>
      <trkpt lat="46.70872" lon="-0.46256">
        <ele>193.76</ele>
        <time>2024-06-25T00:59:14.982Z</time>
      </trkpt>
      <trkpt lat="46.70871" lon="-0.46261">
        <ele>193.94</ele>
        <time>2024-06-25T00:59:23.214Z</time>
      </trkpt>
      <trkpt lat="46.70871" lon="-0.46266">
        <ele>194.12</ele>
        <time>2024-06-25T00:59:31.446Z</time>
      </trkpt>
      <trkpt lat="46.7087" lon="-0.46272">
        <ele>194.3</ele>
        <time>2024-06-25T00:59:39.679Z</time>
      </trkpt>
      <trkpt lat="46.7087" lon="-0.46277">
        <ele>194.49</ele>
        <time>2024-06-25T00:59:47.913Z</time>
      </trkpt>
      <trkpt lat="46.70869" lon="-0.46283">
        <ele>194.68</ele>
        <time>2024-06-25T00:59:56.148Z</time>
      </trkpt>
      <trkpt lat="46.70868" lon="-0.46289">
        <ele>194.88</ele>
        <time>2024-06-25T01:00:04.383Z</time>
      </trkpt>
      <trkpt lat="46.70867" lon="-0.46295">
        <ele>195.07</ele>
        <time>2024-06-25T01:00:12.619Z</time>
      </trkpt>
      <trkpt lat="46.70867" lon="-0.463">
        <ele>195.27</ele>
        <time>2024-06-25T01:00:20.856Z</time>
      </trkpt>
      <trkpt lat="46.70866" lon="-0.46306">
        <ele>195.47</ele>
        <time>2024-06-25T01:00:29.094Z</time>
      </trkpt>
      <trkpt lat="46.70865" lon="-0.46312">
        <ele>195.66</ele>
        <time>2024-06-25T01:00:37.333Z</time>
      </trkpt>
      <trkpt lat="46.70864" lon="-0.46318">
        <ele>195.85</ele>
        <time>2024-06-25T01:00:45.573Z</time>
      </trkpt>
      <trkpt lat="46.70863" lon="-0.46323">
        <ele>196.05</ele>
        <time>2024-06-25T01:00:53.813Z</time>
      </trkpt>
      <trkpt lat="46.70862" lon="-0.46329">
        <ele>196.24</ele>
        <time>2024-06-25T01:01:02.054Z</time>
      </trkpt>
      <trkpt lat="46.70861" lon="-0.46334">
        <ele>196.43</ele>
        <time>2024-06-25T01:01:10.296Z</time>
      </trkpt>
      <trkpt lat="46.70859" lon="-0.46338">
        <ele>196.61</ele>
        <time>2024-06-25T01:01:18.539Z</time>
      </trkpt>
      <trkpt lat="46.70856" lon="-0.46342">
        <ele>196.8</ele>
        <time>2024-06-25T01:01:26.782Z</time>
      </trkpt>
      <trkpt lat="46.70852" lon="-0.46343">
        <ele>196.98</ele>
        <time>2024-06-25T01:01:35.026Z</time>
      </trkpt>
      <trkpt lat="46.70849" lon="-0.46342">
        <ele>197.17</ele>
        <time>2024-06-25T01:01:43.271Z</time>
      </trkpt>
      <trkpt lat="46.70846" lon="-0.46341">
        <ele>197.35</ele>
        <time>2024-06-25T01:01:51.516Z</time>
      </trkpt>
      <trkpt lat="46.70842" lon="-0.4634">
        <ele>197.52</ele>
        <time>2024-06-25T01:01:59.762Z</time>
      </trkpt>
      <trkpt lat="46.70838" lon="-0.46339">
        <ele>197.7</ele>
        <time>2024-06-25T01:02:08.009Z</time>
      </trkpt>
      <trkpt lat="46.70835" lon="-0.46338">
        <ele>197.88</ele>
        <time>2024-06-25T01:02:16.257Z</time>
      </trkpt>
      <trkpt lat="46.70831" lon="-0.46337">
        <ele>198.05</ele>
        <time>2024-06-25T01:02:24.505Z</time>
      </trkpt>
      <trkpt lat="46.70826" lon="-0.46337">
        <ele>198.22</ele>
        <time>2024-06-25T01:02:32.754Z</time>
      </trkpt>
      <trkpt lat="46.70822" lon="-0.46336">
        <ele>198.39</ele>
        <time>2024-06-25T01:02:41.004Z</time>
      </trkpt>
      <trkpt lat="46.70819" lon="-0.46336">
        <ele>198.55</ele>
        <time>2024-06-25T01:02:49.255Z</time>
      </trkpt>
      <trkpt lat="46.70815" lon="-0.46335">
        <ele>198.72</ele>
        <time>2024-06-25T01:02:57.507Z</time>
      </trkpt>
      <trkpt lat="46.7081" lon="-0.46335">
        <ele>198.87</ele>
        <time>2024-06-25T01:03:05.760Z</time>
      </trkpt>
      <trkpt lat="46.70806" lon="-0.46334">
        <ele>199.02</ele>
        <time>2024-06-25T01:03:14.013Z</time>
      </trkpt>
      <trkpt lat="46.70802" lon="-0.46333">
        <ele>199.17</ele>
        <time>2024-06-25T01:03:22.267Z</time>
      </trkpt>
      <trkpt lat="46.70798" lon="-0.46332">
        <ele>199.31</ele>
        <time>2024-06-25T01:03:30.522Z</time>
      </trkpt>
      <trkpt lat="46.70794" lon="-0.46332">
        <ele>199.45</ele>
        <time>2024-06-25T01:03:38.778Z</time>
      </trkpt>
      <trkpt lat="46.70789" lon="-0.46332">
        <ele>199.59</ele>
        <time>2024-06-25T01:03:47.035Z</time>
      </trkpt>
      <trkpt lat="46.70785" lon="-0.46332">
        <ele>199.72</ele>
        <time>2024-06-25T01:03:55.293Z</time>
      </trkpt>
      <trkpt lat="46.7078" lon="-0.46331">
        <ele>199.84</ele>
        <time>2024-06-25T01:04:03.552Z</time>
      </trkpt>
      <trkpt lat="46.70776" lon="-0.46331">
        <ele>199.95</ele>
        <time>2024-06-25T01:04:11.811Z</time>
      </trkpt>
      <trkpt lat="46.70772" lon="-0.46331">
        <ele>200.06</ele>
        <time>2024-06-25T01:04:20.071Z</time>
      </trkpt>
      <trkpt lat="46.70767" lon="-0.4633">
        <ele>200.17</ele>
        <time>2024-06-25T01:04:28.332Z</time>
      </trkpt>
      <trkpt lat="46.70763" lon="-0.46329">
        <ele>200.27</ele>
        <time>2024-06-25T01:04:36.594Z</time>
      </trkpt>
      <trkpt lat="46.70759" lon="-0.46329">
        <ele>200.37</ele>
        <time>2024-06-25T01:04:44.857Z</time>
      </trkpt>
      <trkpt lat="46.70754" lon="-0.46328">
        <ele>200.47</ele>
        <time>2024-06-25T01:04:53.121Z</time>
      </trkpt>
      <trkpt lat="46.70749" lon="-0.46328">
        <ele>200.56</ele>
        <time>2024-06-25T01:05:01.386Z</time>
      </trkpt>
      <trkpt lat="46.70745" lon="-0.46327">
        <ele>200.65</ele>
        <time>2024-06-25T01:05:09.652Z</time>
      </trkpt>
      <trkpt lat="46.70741" lon="-0.46327">
        <ele>200.74</ele>
        <time>2024-06-25T01:05:17.919Z</time>
      </trkpt>
      <trkpt lat="46.70736" lon="-0.46327">
        <ele>200.82</ele>
        <time>2024-06-25T01:05:26.186Z</time>
      </trkpt>
      <trkpt lat="46.70732" lon="-0.46326">
        <ele>200.9</ele>
        <time>2024-06-25T01:05:34.454Z</time>
      </trkpt>
      <trkpt lat="46.70727" lon="-0.46327">
        <ele>200.97</ele>
        <time>2024-06-25T01:05:42.723Z</time>
      </trkpt>
      <trkpt lat="46.70723" lon="-0.46327">
        <ele>201.05</ele>
        <time>2024-06-25T01:05:50.993Z</time>
      </trkpt>
      <trkpt lat="46.70718" lon="-0.46328">
        <ele>201.12</ele>
        <time>2024-06-25T01:05:59.264Z</time>
      </trkpt>
      <trkpt lat="46.70714" lon="-0.46328">
        <ele>201.19</ele>
        <time>2024-06-25T01:06:07.536Z</time>
      </trkpt>
      <trkpt lat="46.70709" lon="-0.46329">
        <ele>201.25</ele>
        <time>2024-06-25T01:06:15.809Z</time>
      </trkpt>
      <trkpt lat="46.70705" lon="-0.4633">
        <ele>201.32</ele>
        <time>2024-06-25T01:06:24.083Z</time>
      </trkpt>
      <trkpt lat="46.707" lon="-0.4633">
        <ele>201.37</ele>
        <time>2024-06-25T01:06:32.358Z</time>
      </trkpt>
      <trkpt lat="46.70695" lon="-0.46331">
        <ele>201.43</ele>
        <time>2024-06-25T01:06:40.634Z</time>
      </trkpt>
      <trkpt lat="46.70691" lon="-0.46332">
        <ele>201.48</ele>
        <time>2024-06-25T01:06:48.911Z</time>
      </trkpt>
      <trkpt lat="46.70686" lon="-0.46332">
        <ele>201.52</ele>
        <time>2024-06-25T01:06:57.188Z</time>
      </trkpt>
      <trkpt lat="46.70682" lon="-0.46333">
        <ele>201.56</ele>
        <time>2024-06-25T01:07:05.466Z</time>
      </trkpt>
      <trkpt lat="46.70677" lon="-0.46333">
        <ele>201.6</ele>
        <time>2024-06-25T01:07:13.745Z</time>
      </trkpt>
      <trkpt lat="46.70672" lon="-0.46334">
        <ele>201.64</ele>
        <time>2024-06-25T01:07:22.025Z</time>
      </trkpt>
      <trkpt lat="46.70668" lon="-0.46335">
        <ele>201.68</ele>
        <time>2024-06-25T01:07:30.306Z</time>
      </trkpt>
      <trkpt lat="46.70663" lon="-0.46335">
        <ele>201.71</ele>
        <time>2024-06-25T01:07:38.588Z</time>
      </trkpt>
      <trkpt lat="46.70658" lon="-0.46336">
        <ele>201.74</ele>
        <time>2024-06-25T01:07:46.871Z</time>
      </trkpt>
      <trkpt lat="46.70653" lon="-0.46336">
        <ele>201.77</ele>
        <time>2024-06-25T01:07:55.155Z</time>
      </trkpt>
      <trkpt lat="46.70649" lon="-0.46337">
        <ele>201.79</ele>
        <time>2024-06-25T01:08:03.440Z</time>
      </trkpt>
      <trkpt lat="46.70644" lon="-0.46337">
        <ele>201.82</ele>
        <time>2024-06-25T01:08:11.726Z</time>
      </trkpt>
      <trkpt lat="46.70639" lon="-0.46337">
        <ele>201.84</ele>
        <time>2024-06-25T01:08:20.013Z</time>
      </trkpt>
      <trkpt lat="46.70634" lon="-0.46336">
        <ele>201.86</ele>
        <time>2024-06-25T01:08:28.301Z</time>
      </trkpt>
      <trkpt lat="46.70629" lon="-0.46336">
        <ele>201.88</ele>
        <time>2024-06-25T01:08:36.590Z</time>
      </trkpt>
      <trkpt lat="46.70624" lon="-0.46335">
        <ele>201.9</ele>
        <time>2024-06-25T01:08:44.880Z</time>
      </trkpt>
      <trkpt lat="46.70619" lon="-0.46335">
        <ele>201.91</ele>
        <time>2024-06-25T01:08:53.171Z</time>
      </trkpt>
      <trkpt lat="46.70614" lon="-0.46334">
        <ele>201.93</ele>
        <time>2024-06-25T01:09:01.463Z</time>
      </trkpt>
      <trkpt lat="46.70608" lon="-0.46334">
        <ele>201.94</ele>
        <time>2024-06-25T01:09:09.756Z</time>
      </trkpt>
      <trkpt lat="46.70603" lon="-0.46333">
        <ele>201.95</ele>
        <time>2024-06-25T01:09:18.050Z</time>
      </trkpt>
      <trkpt lat="46.70598" lon="-0.46332">
        <ele>201.96</ele>
        <time>2024-06-25T01:09:26.345Z</time>
      </trkpt>
      <trkpt lat="46.70593" lon="-0.46331">
        <ele>201.97</ele>
        <time>2024-06-25T01:09:34.641Z</time>
      </trkpt>
      <trkpt lat="46.70588" lon="-0.46331">
        <ele>201.98</ele>
        <time>2024-06-25T01:09:42.938Z</time>
      </trkpt>
      <trkpt lat="46.70583" lon="-0.46329">
        <ele>201.99</ele>
        <time>2024-06-25T01:09:51.236Z</time>
      </trkpt>
      <trkpt lat="46.70577" lon="-0.46328">
        <ele>202</ele>
        <time>2024-06-25T01:09:59.535Z</time>
      </trkpt>
      <trkpt lat="46.70573" lon="-0.46327">
        <ele>202.01</ele>
        <time>2024-06-25T01:10:07.835Z</time>
      </trkpt>
      <trkpt lat="46.70567" lon="-0.46326">
        <ele>202.02</ele>
        <time>2024-06-25T01:10:16.136Z</time>
      </trkpt>
      <trkpt lat="46.70562" lon="-0.46326">
        <ele>202.02</ele>
        <time>2024-06-25T01:10:24.438Z</time>
      </trkpt>
      <trkpt lat="46.70557" lon="-0.46327">
        <ele>202.03</ele>
        <time>2024-06-25T01:10:32.741Z</time>
      </trkpt>
      <trkpt lat="46.70552" lon="-0.46328">
        <ele>202.05</ele>
        <time>2024-06-25T01:10:41.045Z</time>
      </trkpt>
      <trkpt lat="46.70547" lon="-0.4633">
        <ele>202.06</ele>
        <time>2024-06-25T01:10:49.350Z</time>
      </trkpt>
      <trkpt lat="46.70542" lon="-0.46331">
        <ele>202.07</ele>
        <time>2024-06-25T01:10:57.656Z</time>
      </trkpt>
      <trkpt lat="46.70537" lon="-0.46333">
        <ele>202.08</ele>
        <time>2024-06-25T01:11:05.963Z</time>
      </trkpt>
      <trkpt lat="46.70533" lon="-0.46334">
        <ele>202.1</ele>
        <time>2024-06-25T01:11:14.271Z</time>
      </trkpt>
      <trkpt lat="46.70528" lon="-0.46335">
        <ele>202.11</ele>
        <time>2024-06-25T01:11:22.580Z</time>
      </trkpt>
      <trkpt lat="46.70523" lon="-0.46337">
        <ele>202.12</ele>
        <time>2024-06-25T01:11:30.890Z</time>
      </trkpt>
      <trkpt lat="46.70519" lon="-0.46338">
        <ele>202.13</ele>
        <time>2024-06-25T01:11:39.201Z</time>
      </trkpt>
      <trkpt lat="46.70515" lon="-0.46339">
        <ele>202.14</ele>
        <time>2024-06-25T01:11:47.513Z</time>
      </trkpt>
      <trkpt lat="46.7051" lon="-0.4634">
        <ele>202.15</ele>
        <time>2024-06-25T01:11:55.826Z</time>
      </trkpt>
      <trkpt lat="46.70506" lon="-0.4634">
        <ele>202.16</ele>
        <time>2024-06-25T01:12:04.140Z</time>
      </trkpt>
      <trkpt lat="46.70502" lon="-0.46341">
        <ele>202.17</ele>
        <time>2024-06-25T01:12:12.455Z</time>
      </trkpt>
      <trkpt lat="46.70497" lon="-0.46341">
        <ele>202.17</ele>
        <time>2024-06-25T01:12:20.771Z</time>
      </trkpt>
      <trkpt lat="46.70492" lon="-0.46342">
        <ele>202.18</ele>
        <time>2024-06-25T01:12:29.088Z</time>
      </trkpt>
      <trkpt lat="46.70488" lon="-0.46341">
        <ele>202.19</ele>
        <time>2024-06-25T01:12:37.405Z</time>
      </trkpt>
      <trkpt lat="46.70484" lon="-0.46341">
        <ele>202.2</ele>
        <time>2024-06-25T01:12:45.723Z</time>
      </trkpt>
      <trkpt lat="46.7048" lon="-0.4634">
        <ele>202.22</ele>
        <time>2024-06-25T01:12:54.042Z</time>
      </trkpt>
      <trkpt lat="46.70476" lon="-0.46339">
        <ele>202.23</ele>
        <time>2024-06-25T01:13:02.362Z</time>
      </trkpt>
      <trkpt lat="46.70472" lon="-0.4634">
        <ele>202.24</ele>
        <time>2024-06-25T01:13:10.683Z</time>
      </trkpt>
      <trkpt lat="46.70469" lon="-0.46345">
        <ele>202.24</ele>
        <time>2024-06-25T01:13:19.005Z</time>
      </trkpt>
      <trkpt lat="46.70468" lon="-0.4635">
        <ele>202.25</ele>
        <time>2024-06-25T01:13:27.327Z</time>
      </trkpt>
      <trkpt lat="46.70467" lon="-0.46357">
        <ele>202.26</ele>
        <time>2024-06-25T01:13:35.650Z</time>
      </trkpt>
      <trkpt lat="46.70467" lon="-0.46364">
        <ele>202.28</ele>
        <time>2024-06-25T01:13:43.974Z</time>
      </trkpt>
      <trkpt lat="46.70467" lon="-0.46371">
        <ele>202.3</ele>
        <time>2024-06-25T01:13:52.299Z</time>
      </trkpt>
      <trkpt lat="46.70466" lon="-0.46377">
        <ele>202.33</ele>
        <time>2024-06-25T01:14:00.625Z</time>
      </trkpt>
      <trkpt lat="46.70465" lon="-0.46384">
        <ele>202.35</ele>
        <time>2024-06-25T01:14:08.952Z</time>
      </trkpt>
      <trkpt lat="46.70465" lon="-0.4639">
        <ele>202.37</ele>
        <time>2024-06-25T01:14:17.280Z</time>
      </trkpt>
      <trkpt lat="46.70464" lon="-0.46398">
        <ele>202.4</ele>
        <time>2024-06-25T01:14:25.609Z</time>
      </trkpt>
      <trkpt lat="46.70463" lon="-0.46404">
        <ele>202.42</ele>
        <time>2024-06-25T01:14:33.939Z</time>
      </trkpt>
      <trkpt lat="46.70461" lon="-0.46411">
        <ele>202.45</ele>
        <time>2024-06-25T01:14:42.270Z</time>
      </trkpt>
      <trkpt lat="46.7046" lon="-0.46418">
        <ele>202.47</ele>
        <time>2024-06-25T01:14:50.602Z</time>
      </trkpt>
      <trkpt lat="46.70459" lon="-0.46425">
        <ele>202.51</ele>
        <time>2024-06-25T01:14:58.935Z</time>
      </trkpt>
      <trkpt lat="46.70458" lon="-0.46432">
        <ele>202.54</ele>
        <time>2024-06-25T01:15:07.269Z</time>
      </trkpt>
      <trkpt lat="46.70457" lon="-0.46439">
        <ele>202.58</ele>
        <time>2024-06-25T01:15:15.604Z</time>
      </trkpt>
      <trkpt lat="46.70456" lon="-0.46446">
        <ele>202.61</ele>
        <time>2024-06-25T01:15:23.940Z</time>
      </trkpt>
      <trkpt lat="46.70455" lon="-0.46453">
        <ele>202.64</ele>
        <time>2024-06-25T01:15:32.277Z</time>
      </trkpt>
      <trkpt lat="46.70454" lon="-0.46461">
        <ele>202.68</ele>
        <time>2024-06-25T01:15:40.615Z</time>
      </trkpt>
      <trkpt lat="46.70454" lon="-0.46468">
        <ele>202.72</ele>
        <time>2024-06-25T01:15:48.954Z</time>
      </trkpt>
      <trkpt lat="46.70453" lon="-0.46475">
        <ele>202.76</ele>
        <time>2024-06-25T01:15:57.294Z</time>
      </trkpt>
      <trkpt lat="46.70452" lon="-0.46481">
        <ele>202.8</ele>
        <time>2024-06-25T01:16:05.635Z</time>
      </trkpt>
      <trkpt lat="46.70452" lon="-0.46488">
        <ele>202.84</ele>
        <time>2024-06-25T01:16:13.977Z</time>
      </trkpt>
      <trkpt lat="46.70451" lon="-0.46496">
        <ele>202.89</ele>
        <time>2024-06-25T01:16:22.320Z</time>
      </trkpt>
      <trkpt lat="46.70451" lon="-0.46503">
        <ele>202.93</ele>
        <time>2024-06-25T01:16:30.664Z</time>
      </trkpt>
      <trkpt lat="46.7045" lon="-0.4651">
        <ele>202.98</ele>
        <time>2024-06-25T01:16:39.009Z</time>
      </trkpt>
      <trkpt lat="46.70449" lon="-0.46517">
        <ele>203.03</ele>
        <time>2024-06-25T01:16:47.355Z</time>
      </trkpt>
      <trkpt lat="46.70449" lon="-0.46525">
        <ele>203.08</ele>
        <time>2024-06-25T01:16:55.702Z</time>
      </trkpt>
      <trkpt lat="46.70448" lon="-0.46532">
        <ele>203.13</ele>
        <time>2024-06-25T01:17:04.050Z</time>
      </trkpt>
      <trkpt lat="46.70448" lon="-0.46539">
        <ele>203.19</ele>
        <time>2024-06-25T01:17:12.399Z</time>
      </trkpt>
      <trkpt lat="46.70448" lon="-0.46546">
        <ele>203.24</ele>
        <time>2024-06-25T01:17:20.749Z</time>
      </trkpt>
      <trkpt lat="46.70447" lon="-0.46553">
        <ele>203.3</ele>
        <time>2024-06-25T01:17:29.100Z</time>
      </trkpt>
      <trkpt lat="46.70447" lon="-0.4656">
        <ele>203.36</ele>
        <time>2024-06-25T01:17:37.452Z</time>
      </trkpt>
      <trkpt lat="46.70447" lon="-0.46568">
        <ele>203.43</ele>
        <time>2024-06-25T01:17:45.805Z</time>
      </trkpt>
      <trkpt lat="46.70446" lon="-0.46576">
        <ele>203.49</ele>
        <time>2024-06-25T01:17:54.159Z</time>
      </trkpt>
      <trkpt lat="46.70446" lon="-0.46584">
        <ele>203.55</ele>
        <time>2024-06-25T01:18:02.514Z</time>
      </trkpt>
      <trkpt lat="46.70447" lon="-0.46591">
        <ele>203.62</ele>
        <time>2024-06-25T01:18:10.870Z</time>
      </trkpt>
      <trkpt lat="46.70447" lon="-0.466">
        <ele>203.7</ele>
        <time>2024-06-25T01:18:19.227Z</time>
      </trkpt>
      <trkpt lat="46.70447" lon="-0.46607">
        <ele>203.77</ele>
        <time>2024-06-25T01:18:27.585Z</time>
      </trkpt>
      <trkpt lat="46.70448" lon="-0.46614">
        <ele>203.85</ele>
        <time>2024-06-25T01:18:35.944Z</time>
      </trkpt>
      <trkpt lat="46.70448" lon="-0.46621">
        <ele>203.93</ele>
        <time>2024-06-25T01:18:44.304Z</time>
      </trkpt>
      <trkpt lat="46.70449" lon="-0.46628">
        <ele>204.01</ele>
        <time>2024-06-25T01:18:52.665Z</time>
      </trkpt>
      <trkpt lat="46.70449" lon="-0.46636">
        <ele>204.09</ele>
        <time>2024-06-25T01:19:01.027Z</time>
      </trkpt>
      <trkpt lat="46.70449" lon="-0.46643">
        <ele>204.16</ele>
        <time>2024-06-25T01:19:09.390Z</time>
      </trkpt>
      <trkpt lat="46.70449" lon="-0.46651">
        <ele>204.24</ele>
        <time>2024-06-25T01:19:17.754Z</time>
      </trkpt>
      <trkpt lat="46.70449" lon="-0.46659">
        <ele>204.32</ele>
        <time>2024-06-25T01:19:26.119Z</time>
      </trkpt>
      <trkpt lat="46.70449" lon="-0.46667">
        <ele>204.39</ele>
        <time>2024-06-25T01:19:34.485Z</time>
      </trkpt>
      <trkpt lat="46.70449" lon="-0.46674">
        <ele>204.47</ele>
        <time>2024-06-25T01:19:42.852Z</time>
      </trkpt>
      <trkpt lat="46.70449" lon="-0.46681">
        <ele>204.54</ele>
        <time>2024-06-25T01:19:51.220Z</time>
      </trkpt>
      <trkpt lat="46.7045" lon="-0.46689">
        <ele>204.61</ele>
        <time>2024-06-25T01:19:59.589Z</time>
      </trkpt>
      <trkpt lat="46.70449" lon="-0.46696">
        <ele>204.69</ele>
        <time>2024-06-25T01:20:07.959Z</time>
      </trkpt>
      <trkpt lat="46.70449" lon="-0.46704">
        <ele>204.76</ele>
        <time>2024-06-25T01:20:16.330Z</time>
      </trkpt>
      <trkpt lat="46.70449" lon="-0.46712">
        <ele>204.84</ele>
        <time>2024-06-25T01:20:24.702Z</time>
      </trkpt>
      <trkpt lat="46.70449" lon="-0.46719">
        <ele>204.92</ele>
        <time>2024-06-25T01:20:33.075Z</time>
      </trkpt>
      <trkpt lat="46.70449" lon="-0.46727">
        <ele>205</ele>
        <time>2024-06-25T01:20:41.450Z</time>
      </trkpt>
      <trkpt lat="46.70449" lon="-0.46735">
        <ele>205.08</ele>
        <time>2024-06-25T01:20:49.826Z</time>
      </trkpt>
      <trkpt lat="46.70449" lon="-0.46743">
        <ele>205.17</ele>
        <time>2024-06-25T01:20:58.203Z</time>
      </trkpt>
      <trkpt lat="46.70449" lon="-0.46751">
        <ele>205.25</ele>
        <time>2024-06-25T01:21:06.581Z</time>
      </trkpt>
      <trkpt lat="46.70449" lon="-0.46759">
        <ele>205.35</ele>
        <time>2024-06-25T01:21:14.960Z</time>
      </trkpt>
      <trkpt lat="46.70449" lon="-0.46767">
        <ele>205.44</ele>
        <time>2024-06-25T01:21:23.340Z</time>
      </trkpt>
      <trkpt lat="46.70449" lon="-0.46774">
        <ele>205.53</ele>
        <time>2024-06-25T01:21:31.721Z</time>
      </trkpt>
      <trkpt lat="46.70449" lon="-0.46782">
        <ele>205.62</ele>
        <time>2024-06-25T01:21:40.103Z</time>
      </trkpt>
      <trkpt lat="46.70449" lon="-0.4679">
        <ele>205.71</ele>
        <time>2024-06-25T01:21:48.486Z</time>
      </trkpt>
      <trkpt lat="46.7045" lon="-0.46798">
        <ele>205.8</ele>
        <time>2024-06-25T01:21:56.870Z</time>
      </trkpt>
      <trkpt lat="46.7045" lon="-0.46805">
        <ele>205.89</ele>
        <time>2024-06-25T01:22:05.255Z</time>
      </trkpt>
      <trkpt lat="46.70451" lon="-0.46813">
        <ele>205.98</ele>
        <time>2024-06-25T01:22:13.641Z</time>
      </trkpt>
      <trkpt lat="46.70452" lon="-0.4682">
        <ele>206.07</ele>
        <time>2024-06-25T01:22:22.028Z</time>
      </trkpt>
      <trkpt lat="46.70453" lon="-0.46827">
        <ele>206.15</ele>
        <time>2024-06-25T01:22:30.416Z</time>
      </trkpt>
      <trkpt lat="46.70454" lon="-0.46835">
        <ele>206.24</ele>
        <time>2024-06-25T01:22:38.805Z</time>
      </trkpt>
      <trkpt lat="46.70456" lon="-0.46841">
        <ele>206.32</ele>
        <time>2024-06-25T01:22:47.195Z</time>
      </trkpt>
      <trkpt lat="46.70457" lon="-0.46847">
        <ele>206.4</ele>
        <time>2024-06-25T01:22:55.586Z</time>
      </trkpt>
      <trkpt lat="46.70458" lon="-0.46854">
        <ele>206.47</ele>
        <time>2024-06-25T01:23:03.978Z</time>
      </trkpt>
      <trkpt lat="46.7046" lon="-0.46861">
        <ele>206.55</ele>
        <time>2024-06-25T01:23:12.371Z</time>
      </trkpt>
      <trkpt lat="46.70461" lon="-0.46866">
        <ele>206.62</ele>
        <time>2024-06-25T01:23:20.765Z</time>
      </trkpt>
      <trkpt lat="46.70462" lon="-0.4687">
        <ele>206.69</ele>
        <time>2024-06-25T01:23:29.160Z</time>
      </trkpt>
      <trkpt lat="46.70463" lon="-0.46875">
        <ele>206.76</ele>
        <time>2024-06-25T01:23:37.555Z</time>
      </trkpt>
      <trkpt lat="46.70464" lon="-0.46877">
        <ele>206.82</ele>
        <time>2024-06-25T01:23:45.951Z</time>
      </trkpt>
      <trkpt lat="46.70465" lon="-0.4688">
        <ele>206.88</ele>
        <time>2024-06-25T01:23:54.347Z</time>
      </trkpt>
      <trkpt lat="46.70466" lon="-0.46884">
        <ele>206.93</ele>
        <time>2024-06-25T01:24:02.744Z</time>
      </trkpt>
      <trkpt lat="46.70467" lon="-0.46887">
        <ele>206.98</ele>
        <time>2024-06-25T01:24:11.141Z</time>
      </trkpt>
      <trkpt lat="46.70468" lon="-0.46891">
        <ele>207.03</ele>
        <time>2024-06-25T01:24:19.539Z</time>
      </trkpt>
      <trkpt lat="46.7047" lon="-0.46896">
        <ele>207.08</ele>
        <time>2024-06-25T01:24:27.938Z</time>
      </trkpt>
      <trkpt lat="46.70473" lon="-0.46901">
        <ele>207.12</ele>
        <time>2024-06-25T01:24:36.337Z</time>
      </trkpt>
      <trkpt lat="46.70475" lon="-0.46906">
        <ele>207.15</ele>
        <time>2024-06-25T01:24:44.737Z</time>
      </trkpt>
      <trkpt lat="46.70479" lon="-0.46911">
        <ele>207.18</ele>
        <time>2024-06-25T01:24:53.138Z</time>
      </trkpt>
      <trkpt lat="46.70482" lon="-0.46916">
        <ele>207.21</ele>
        <time>2024-06-25T01:25:01.540Z</time>
      </trkpt>
      <trkpt lat="46.70486" lon="-0.4692">
        <ele>207.23</ele>
        <time>2024-06-25T01:25:09.943Z</time>
      </trkpt>
      <trkpt lat="46.7049" lon="-0.46923">
        <ele>207.24</ele>
        <time>2024-06-25T01:25:18.347Z</time>
      </trkpt>
      <trkpt lat="46.70495" lon="-0.46926">
        <ele>207.26</ele>
        <time>2024-06-25T01:25:26.752Z</time>
      </trkpt>
      <trkpt lat="46.70499" lon="-0.4693">
        <ele>207.26</ele>
        <time>2024-06-25T01:25:35.158Z</time>
      </trkpt>
      <trkpt lat="46.70504" lon="-0.46934">
        <ele>207.27</ele>
        <time>2024-06-25T01:25:43.565Z</time>
      </trkpt>
      <trkpt lat="46.70508" lon="-0.46939">
        <ele>207.27</ele>
        <time>2024-06-25T01:25:51.973Z</time>
      </trkpt>
      <trkpt lat="46.70511" lon="-0.46944">
        <ele>207.27</ele>
        <time>2024-06-25T01:26:00.382Z</time>
      </trkpt>
      <trkpt lat="46.70514" lon="-0.4695">
        <ele>207.27</ele>
        <time>2024-06-25T01:26:08.792Z</time>
      </trkpt>
      <trkpt lat="46.70517" lon="-0.46956">
        <ele>207.27</ele>
        <time>2024-06-25T01:26:17.203Z</time>
      </trkpt>
      <trkpt lat="46.7052" lon="-0.46963">
        <ele>207.27</ele>
        <time>2024-06-25T01:26:25.615Z</time>
      </trkpt>
      <trkpt lat="46.70522" lon="-0.46969">
        <ele>207.26</ele>
        <time>2024-06-25T01:26:34.028Z</time>
      </trkpt>
      <trkpt lat="46.70524" lon="-0.46975">
        <ele>207.24</ele>
        <time>2024-06-25T01:26:42.442Z</time>
      </trkpt>
      <trkpt lat="46.70526" lon="-0.46981">
        <ele>207.23</ele>
        <time>2024-06-25T01:26:50.857Z</time>
      </trkpt>
      <trkpt lat="46.70529" lon="-0.46988">
        <ele>207.21</ele>
        <time>2024-06-25T01:26:59.273Z</time>
      </trkpt>
      <trkpt lat="46.70531" lon="-0.46993">
        <ele>207.19</ele>
        <time>2024-06-25T01:27:07.690Z</time>
      </trkpt>
      <trkpt lat="46.70533" lon="-0.46999">
        <ele>207.17</ele>
        <time>2024-06-25T01:27:16.108Z</time>
      </trkpt>
      <trkpt lat="46.70536" lon="-0.47005">
        <ele>207.14</ele>
        <time>2024-06-25T01:27:24.527Z</time>
      </trkpt>
      <trkpt lat="46.70538" lon="-0.47011">
        <ele>207.12</ele>
        <time>2024-06-25T01:27:32.947Z</time>
      </trkpt>
      <trkpt lat="46.70541" lon="-0.47018">
        <ele>207.09</ele>
        <time>2024-06-25T01:27:41.368Z</time>
      </trkpt>
      <trkpt lat="46.70543" lon="-0.47024">
        <ele>207.05</ele>
        <time>2024-06-25T01:27:49.790Z</time>
      </trkpt>
      <trkpt lat="46.70545" lon="-0.47029">
        <ele>207.01</ele>
        <time>2024-06-25T01:27:58.213Z</time>
      </trkpt>
      <trkpt lat="46.70548" lon="-0.47035">
        <ele>206.97</ele>
        <time>2024-06-25T01:28:06.637Z</time>
      </trkpt>
      <trkpt lat="46.7055" lon="-0.47041">
        <ele>206.92</ele>
        <time>2024-06-25T01:28:15.062Z</time>
      </trkpt>
      <trkpt lat="46.70552" lon="-0.47047">
        <ele>206.88</ele>
        <time>2024-06-25T01:28:23.488Z</time>
      </trkpt>
      <trkpt lat="46.70554" lon="-0.47052">
        <ele>206.83</ele>
        <time>2024-06-25T01:28:31.914Z</time>
      </trkpt>
      <trkpt lat="46.70556" lon="-0.47058">
        <ele>206.78</ele>
        <time>2024-06-25T01:28:40.341Z</time>
      </trkpt>
      <trkpt lat="46.70559" lon="-0.47064">
        <ele>206.72</ele>
        <time>2024-06-25T01:28:48.769Z</time>
      </trkpt>
      <trkpt lat="46.70561" lon="-0.47072">
        <ele>206.66</ele>
        <time>2024-06-25T01:28:57.198Z</time>
      </trkpt>
      <trkpt lat="46.70562" lon="-0.47079">
        <ele>206.6</ele>
        <time>2024-06-25T01:29:05.628Z</time>
      </trkpt>
      <trkpt lat="46.70562" lon="-0.47086">
        <ele>206.54</ele>
        <time>2024-06-25T01:29:14.059Z</time>
      </trkpt>
      <trkpt lat="46.70562" lon="-0.47094">
        <ele>206.47</ele>
        <time>2024-06-25T01:29:22.492Z</time>
      </trkpt>
      <trkpt lat="46.70562" lon="-0.47102">
        <ele>206.4</ele>
        <time>2024-06-25T01:29:30.926Z</time>
      </trkpt>
      <trkpt lat="46.70562" lon="-0.47111">
        <ele>206.33</ele>
        <time>2024-06-25T01:29:39.361Z</time>
      </trkpt>
      <trkpt lat="46.70563" lon="-0.4712">
        <ele>206.27</ele>
        <time>2024-06-25T01:29:47.797Z</time>
      </trkpt>
      <trkpt lat="46.70563" lon="-0.47129">
        <ele>206.2</ele>
        <time>2024-06-25T01:29:56.234Z</time>
      </trkpt>
      <trkpt lat="46.70564" lon="-0.47138">
        <ele>206.13</ele>
        <time>2024-06-25T01:30:04.673Z</time>
      </trkpt>
      <trkpt lat="46.70566" lon="-0.47147">
        <ele>206.05</ele>
        <time>2024-06-25T01:30:13.113Z</time>
      </trkpt>
      <trkpt lat="46.70567" lon="-0.47156">
        <ele>205.96</ele>
        <time>2024-06-25T01:30:21.554Z</time>
      </trkpt>
      <trkpt lat="46.70569" lon="-0.47165">
        <ele>205.89</ele>
        <time>2024-06-25T01:30:29.996Z</time>
      </trkpt>
      <trkpt lat="46.70571" lon="-0.47174">
        <ele>205.8</ele>
        <time>2024-06-25T01:30:38.440Z</time>
      </trkpt>
      <trkpt lat="46.70572" lon="-0.47182">
        <ele>205.71</ele>
        <time>2024-06-25T01:30:46.885Z</time>
      </trkpt>
      <trkpt lat="46.70573" lon="-0.47191">
        <ele>205.61</ele>
        <time>2024-06-25T01:30:55.331Z</time>
      </trkpt>
      <trkpt lat="46.70574" lon="-0.47201">
        <ele>205.52</ele>
        <time>2024-06-25T01:31:03.778Z</time>
      </trkpt>
      <trkpt lat="46.70574" lon="-0.47211">
        <ele>205.43</ele>
        <time>2024-06-25T01:31:12.227Z</time>
      </trkpt>
      <trkpt lat="46.70574" lon="-0.47221">
        <ele>205.34</ele>
        <time>2024-06-25T01:31:20.677Z</time>
      </trkpt>
      <trkpt lat="46.70573" lon="-0.47229">
        <ele>205.25</ele>
        <time>2024-06-25T01:31:29.128Z</time>
      </trkpt>
      <trkpt lat="46.70572" lon="-0.47239">
        <ele>205.16</ele>
        <time>2024-06-25T01:31:37.581Z</time>
      </trkpt>
      <trkpt lat="46.70569" lon="-0.47248">
        <ele>205.07</ele>
        <time>2024-06-25T01:31:46.035Z</time>
      </trkpt>
      <trkpt lat="46.70566" lon="-0.47257">
        <ele>204.98</ele>
        <time>2024-06-25T01:31:54.491Z</time>
      </trkpt>
      <trkpt lat="46.70562" lon="-0.47264">
        <ele>204.9</ele>
        <time>2024-06-25T01:32:02.948Z</time>
      </trkpt>
      <trkpt lat="46.70558" lon="-0.47273">
        <ele>204.82</ele>
        <time>2024-06-25T01:32:11.406Z</time>
      </trkpt>
      <trkpt lat="46.70554" lon="-0.47281">
        <ele>204.74</ele>
        <time>2024-06-25T01:32:19.866Z</time>
      </trkpt>
      <trkpt lat="46.7055" lon="-0.47289">
        <ele>204.66</ele>
        <time>2024-06-25T01:32:28.327Z</time>
      </trkpt>
      <trkpt lat="46.70547" lon="-0.47298">
        <ele>204.58</ele>
        <time>2024-06-25T01:32:36.789Z</time>
      </trkpt>
      <trkpt lat="46.70544" lon="-0.47306">
        <ele>204.51</ele>
        <time>2024-06-25T01:32:45.253Z</time>
      </trkpt>
      <trkpt lat="46.70541" lon="-0.47315">
        <ele>204.43</ele>
        <time>2024-06-25T01:32:53.718Z</time>
      </trkpt>
      <trkpt lat="46.70538" lon="-0.47325">
        <ele>204.36</ele>
        <time>2024-06-25T01:33:02.184Z</time>
      </trkpt>
      <trkpt lat="46.70535" lon="-0.47334">
        <ele>204.29</ele>
        <time>2024-06-25T01:33:10.652Z</time>
      </trkpt>
      <trkpt lat="46.70532" lon="-0.47343">
        <ele>204.22</ele>
        <time>2024-06-25T01:33:19.121Z</time>
      </trkpt>
      <trkpt lat="46.70529" lon="-0.47353">
        <ele>204.16</ele>
        <time>2024-06-25T01:33:27.592Z</time>
      </trkpt>
      <trkpt lat="46.70526" lon="-0.47362">
        <ele>204.09</ele>
        <time>2024-06-25T01:33:36.064Z</time>
      </trkpt>
      <trkpt lat="46.70524" lon="-0.47372">
        <ele>204.03</ele>
        <time>2024-06-25T01:33:44.537Z</time>
      </trkpt>
      <trkpt lat="46.70522" lon="-0.47381">
        <ele>203.98</ele>
        <time>2024-06-25T01:33:53.012Z</time>
      </trkpt>
      <trkpt lat="46.7052" lon="-0.4739">
        <ele>203.94</ele>
        <time>2024-06-25T01:34:01.488Z</time>
      </trkpt>
      <trkpt lat="46.70518" lon="-0.474">
        <ele>203.89</ele>
        <time>2024-06-25T01:34:09.966Z</time>
      </trkpt>
      <trkpt lat="46.70515" lon="-0.47409">
        <ele>203.85</ele>
        <time>2024-06-25T01:34:18.445Z</time>
      </trkpt>
      <trkpt lat="46.70512" lon="-0.47419">
        <ele>203.81</ele>
        <time>2024-06-25T01:34:26.925Z</time>
      </trkpt>
      <trkpt lat="46.70509" lon="-0.47427">
        <ele>203.78</ele>
        <time>2024-06-25T01:34:35.407Z</time>
      </trkpt>
      <trkpt lat="46.70507" lon="-0.47437">
        <ele>203.76</ele>
        <time>2024-06-25T01:34:43.890Z</time>
      </trkpt>
      <trkpt lat="46.70504" lon="-0.47446">
        <ele>203.73</ele>
        <time>2024-06-25T01:34:52.374Z</time>
      </trkpt>
      <trkpt lat="46.70502" lon="-0.47454">
        <ele>203.72</ele>
        <time>2024-06-25T01:35:00.860Z</time>
      </trkpt>
      <trkpt lat="46.70499" lon="-0.47463">
        <ele>203.71</ele>
        <time>2024-06-25T01:35:09.347Z</time>
      </trkpt>
      <trkpt lat="46.70497" lon="-0.47471">
        <ele>203.7</ele>
        <time>2024-06-25T01:35:17.835Z</time>
      </trkpt>
      <trkpt lat="46.70494" lon="-0.47479">
        <ele>203.69</ele>
        <time>2024-06-25T01:35:26.324Z</time>
      </trkpt>
      <trkpt lat="46.70492" lon="-0.47487">
        <ele>203.69</ele>
        <time>2024-06-25T01:35:34.815Z</time>
      </trkpt>
      <trkpt lat="46.70491" lon="-0.47496">
        <ele>203.68</ele>
        <time>2024-06-25T01:35:43.307Z</time>
      </trkpt>
      <trkpt lat="46.7049" lon="-0.47504">
        <ele>203.69</ele>
        <time>2024-06-25T01:35:51.800Z</time>
      </trkpt>
      <trkpt lat="46.70489" lon="-0.47513">
        <ele>203.7</ele>
        <time>2024-06-25T01:36:00.294Z</time>
      </trkpt>
      <trkpt lat="46.70489" lon="-0.47521">
        <ele>203.71</ele>
        <time>2024-06-25T01:36:08.789Z</time>
      </trkpt>
      <trkpt lat="46.7049" lon="-0.47529">
        <ele>203.72</ele>
        <time>2024-06-25T01:36:17.285Z</time>
      </trkpt>
      <trkpt lat="46.7049" lon="-0.47537">
        <ele>203.74</ele>
        <time>2024-06-25T01:36:25.783Z</time>
      </trkpt>
      <trkpt lat="46.70492" lon="-0.47544">
        <ele>203.75</ele>
        <time>2024-06-25T01:36:34.282Z</time>
      </trkpt>
      <trkpt lat="46.70493" lon="-0.47551">
        <ele>203.76</ele>
        <time>2024-06-25T01:36:42.782Z</time>
      </trkpt>
      <trkpt lat="46.70494" lon="-0.47559">
        <ele>203.78</ele>
        <time>2024-06-25T01:36:51.283Z</time>
      </trkpt>
      <trkpt lat="46.70495" lon="-0.47566">
        <ele>203.79</ele>
        <time>2024-06-25T01:36:59.785Z</time>
      </trkpt>
      <trkpt lat="46.70495" lon="-0.47573">
        <ele>203.8</ele>
        <time>2024-06-25T01:37:08.288Z</time>
      </trkpt>
      <trkpt lat="46.70496" lon="-0.4758">
        <ele>203.81</ele>
        <time>2024-06-25T01:37:16.792Z</time>
      </trkpt>
      <trkpt lat="46.70496" lon="-0.47587">
        <ele>203.82</ele>
        <time>2024-06-25T01:37:25.297Z</time>
      </trkpt>
      <trkpt lat="46.70496" lon="-0.47594">
        <ele>203.82</ele>
        <time>2024-06-25T01:37:33.802Z</time>
      </trkpt>
      <trkpt lat="46.70496" lon="-0.47601">
        <ele>203.84</ele>
        <time>2024-06-25T01:37:42.308Z</time>
      </trkpt>
      <trkpt lat="46.70496" lon="-0.47607">
        <ele>203.86</ele>
        <time>2024-06-25T01:37:50.815Z</time>
      </trkpt>
      <trkpt lat="46.70497" lon="-0.47614">
        <ele>203.87</ele>
        <time>2024-06-25T01:37:59.323Z</time>
      </trkpt>
      <trkpt lat="46.70498" lon="-0.47621">
        <ele>203.88</ele>
        <time>2024-06-25T01:38:07.832Z</time>
      </trkpt>
      <trkpt lat="46.70498" lon="-0.47629">
        <ele>203.88</ele>
        <time>2024-06-25T01:38:16.342Z</time>
      </trkpt>
      <trkpt lat="46.70499" lon="-0.47636">
        <ele>203.89</ele>
        <time>2024-06-25T01:38:24.853Z</time>
      </trkpt>
      <trkpt lat="46.70499" lon="-0.47643">
        <ele>203.89</ele>
        <time>2024-06-25T01:38:33.365Z</time>
      </trkpt>
      <trkpt lat="46.705" lon="-0.47651">
        <ele>203.88</ele>
        <time>2024-06-25T01:38:41.878Z</time>
      </trkpt>
      <trkpt lat="46.705" lon="-0.47658">
        <ele>203.88</ele>
        <time>2024-06-25T01:38:50.392Z</time>
      </trkpt>
      <trkpt lat="46.705" lon="-0.47666">
        <ele>203.87</ele>
        <time>2024-06-25T01:38:58.908Z</time>
      </trkpt>
      <trkpt lat="46.70501" lon="-0.47674">
        <ele>203.86</ele>
        <time>2024-06-25T01:39:07.425Z</time>
      </trkpt>
      <trkpt lat="46.70501" lon="-0.47682">
        <ele>203.85</ele>
        <time>2024-06-25T01:39:15.943Z</time>
      </trkpt>
      <trkpt lat="46.70502" lon="-0.47691">
        <ele>203.84</ele>
        <time>2024-06-25T01:39:24.462Z</time>
      </trkpt>
      <trkpt lat="46.70502" lon="-0.47699">
        <ele>203.83</ele>
        <time>2024-06-25T01:39:32.982Z</time>
      </trkpt>
      <trkpt lat="46.70503" lon="-0.47708">
        <ele>203.82</ele>
        <time>2024-06-25T01:39:41.503Z</time>
      </trkpt>
      <trkpt lat="46.70504" lon="-0.47717">
        <ele>203.82</ele>
        <time>2024-06-25T01:39:50.025Z</time>
      </trkpt>
      <trkpt lat="46.70505" lon="-0.47727">
        <ele>203.81</ele>
        <time>2024-06-25T01:39:58.549Z</time>
      </trkpt>
      <trkpt lat="46.70506" lon="-0.47736">
        <ele>203.79</ele>
        <time>2024-06-25T01:40:07.074Z</time>
      </trkpt>
      <trkpt lat="46.70507" lon="-0.47746">
        <ele>203.77</ele>
        <time>2024-06-25T01:40:15.601Z</time>
      </trkpt>
      <trkpt lat="46.70509" lon="-0.47755">
        <ele>203.74</ele>
        <time>2024-06-25T01:40:24.129Z</time>
      </trkpt>
      <trkpt lat="46.70512" lon="-0.47764">
        <ele>203.72</ele>
        <time>2024-06-25T01:40:32.658Z</time>
      </trkpt>
      <trkpt lat="46.70514" lon="-0.47772">
        <ele>203.69</ele>
        <time>2024-06-25T01:40:41.188Z</time>
      </trkpt>
      <trkpt lat="46.70516" lon="-0.47781">
        <ele>203.65</ele>
        <time>2024-06-25T01:40:49.720Z</time>
      </trkpt>
      <trkpt lat="46.70519" lon="-0.4779">
        <ele>203.61</ele>
        <time>2024-06-25T01:40:58.253Z</time>
      </trkpt>
      <trkpt lat="46.70521" lon="-0.47799">
        <ele>203.56</ele>
        <time>2024-06-25T01:41:06.787Z</time>
      </trkpt>
      <trkpt lat="46.70523" lon="-0.47808">
        <ele>203.51</ele>
        <time>2024-06-25T01:41:15.323Z</time>
      </trkpt>
      <trkpt lat="46.70525" lon="-0.47817">
        <ele>203.45</ele>
        <time>2024-06-25T01:41:23.860Z</time>
      </trkpt>
      <trkpt lat="46.70527" lon="-0.47825">
        <ele>203.4</ele>
        <time>2024-06-25T01:41:32.398Z</time>
      </trkpt>
      <trkpt lat="46.70529" lon="-0.47834">
        <ele>203.34</ele>
        <time>2024-06-25T01:41:40.937Z</time>
      </trkpt>
      <trkpt lat="46.70531" lon="-0.47842">
        <ele>203.27</ele>
        <time>2024-06-25T01:41:49.478Z</time>
      </trkpt>
      <trkpt lat="46.70533" lon="-0.4785">
        <ele>203.19</ele>
        <time>2024-06-25T01:41:58.020Z</time>
      </trkpt>
      <trkpt lat="46.70535" lon="-0.47859">
        <ele>203.11</ele>
        <time>2024-06-25T01:42:06.563Z</time>
      </trkpt>
      <trkpt lat="46.70537" lon="-0.47868">
        <ele>203.04</ele>
        <time>2024-06-25T01:42:15.107Z</time>
      </trkpt>
      <trkpt lat="46.70539" lon="-0.47878">
        <ele>202.97</ele>
        <time>2024-06-25T01:42:23.653Z</time>
      </trkpt>
      <trkpt lat="46.7054" lon="-0.47886">
        <ele>202.89</ele>
        <time>2024-06-25T01:42:32.200Z</time>
      </trkpt>
      <trkpt lat="46.70543" lon="-0.47894">
        <ele>202.8</ele>
        <time>2024-06-25T01:42:40.748Z</time>
      </trkpt>
      <trkpt lat="46.70544" lon="-0.47902">
        <ele>202.71</ele>
        <time>2024-06-25T01:42:49.297Z</time>
      </trkpt>
      <trkpt lat="46.70547" lon="-0.47911">
        <ele>202.63</ele>
        <time>2024-06-25T01:42:57.848Z</time>
      </trkpt>
      <trkpt lat="46.70549" lon="-0.47919">
        <ele>202.55</ele>
        <time>2024-06-25T01:43:06.400Z</time>
      </trkpt>
      <trkpt lat="46.7055" lon="-0.47928">
        <ele>202.46</ele>
        <time>2024-06-25T01:43:14.953Z</time>
      </trkpt>
      <trkpt lat="46.70552" lon="-0.47937">
        <ele>202.37</ele>
        <time>2024-06-25T01:43:23.507Z</time>
      </trkpt>
      <trkpt lat="46.70554" lon="-0.47945">
        <ele>202.27</ele>
        <time>2024-06-25T01:43:32.063Z</time>
      </trkpt>
      <trkpt lat="46.70557" lon="-0.47953">
        <ele>202.17</ele>
        <time>2024-06-25T01:43:40.620Z</time>
      </trkpt>
      <trkpt lat="46.7056" lon="-0.4796">
        <ele>202.07</ele>
        <time>2024-06-25T01:43:49.178Z</time>
      </trkpt>
      <trkpt lat="46.70563" lon="-0.47966">
        <ele>201.96</ele>
        <time>2024-06-25T01:43:57.737Z</time>
      </trkpt>
      <trkpt lat="46.70567" lon="-0.47972">
        <ele>201.86</ele>
        <time>2024-06-25T01:44:06.297Z</time>
      </trkpt>
      <trkpt lat="46.7057" lon="-0.47979">
        <ele>201.74</ele>
        <time>2024-06-25T01:44:14.858Z</time>
      </trkpt>
      <trkpt lat="46.70573" lon="-0.47987">
        <ele>201.62</ele>
        <time>2024-06-25T01:44:23.420Z</time>
      </trkpt>
      <trkpt lat="46.70577" lon="-0.47994">
        <ele>201.49</ele>
        <time>2024-06-25T01:44:31.984Z</time>
      </trkpt>
      <trkpt lat="46.70579" lon="-0.48001">
        <ele>201.36</ele>
        <time>2024-06-25T01:44:40.549Z</time>
      </trkpt>
      <trkpt lat="46.70583" lon="-0.48009">
        <ele>201.23</ele>
        <time>2024-06-25T01:44:49.115Z</time>
      </trkpt>
      <trkpt lat="46.70586" lon="-0.48016">
        <ele>201.09</ele>
        <time>2024-06-25T01:44:57.682Z</time>
      </trkpt>
      <trkpt lat="46.70589" lon="-0.48023">
        <ele>200.94</ele>
        <time>2024-06-25T01:45:06.250Z</time>
      </trkpt>
      <trkpt lat="46.7059" lon="-0.48031">
        <ele>200.79</ele>
        <time>2024-06-25T01:45:14.820Z</time>
      </trkpt>
      <trkpt lat="46.70592" lon="-0.48039">
        <ele>200.64</ele>
        <time>2024-06-25T01:45:23.391Z</time>
      </trkpt>
      <trkpt lat="46.70592" lon="-0.48047">
        <ele>200.49</ele>
        <time>2024-06-25T01:45:31.963Z</time>
      </trkpt>
      <trkpt lat="46.70593" lon="-0.48056">
        <ele>200.33</ele>
        <time>2024-06-25T01:45:40.536Z</time>
      </trkpt>
      <trkpt lat="46.70595" lon="-0.48064">
        <ele>200.17</ele>
        <time>2024-06-25T01:45:49.110Z</time>
      </trkpt>
      <trkpt lat="46.70597" lon="-0.48071">
        <ele>200</ele>
        <time>2024-06-25T01:45:57.685Z</time>
      </trkpt>
      <trkpt lat="46.706" lon="-0.48078">
        <ele>199.84</ele>
        <time>2024-06-25T01:46:06.261Z</time>
      </trkpt>
      <trkpt lat="46.70603" lon="-0.48086">
        <ele>199.66</ele>
        <time>2024-06-25T01:46:14.839Z</time>
      </trkpt>
      <trkpt lat="46.70606" lon="-0.48093">
        <ele>199.48</ele>
        <time>2024-06-25T01:46:23.418Z</time>
      </trkpt>
      <trkpt lat="46.70609" lon="-0.48101">
        <ele>199.3</ele>
        <time>2024-06-25T01:46:31.998Z</time>
      </trkpt>
      <trkpt lat="46.70612" lon="-0.48109">
        <ele>199.12</ele>
        <time>2024-06-25T01:46:40.579Z</time>
      </trkpt>
      <trkpt lat="46.70615" lon="-0.48116">
        <ele>198.93</ele>
        <time>2024-06-25T01:46:49.161Z</time>
      </trkpt>
      <trkpt lat="46.70619" lon="-0.48124">
        <ele>198.74</ele>
        <time>2024-06-25T01:46:57.745Z</time>
      </trkpt>
      <trkpt lat="46.70622" lon="-0.48131">
        <ele>198.55</ele>
        <time>2024-06-25T01:47:06.330Z</time>
      </trkpt>
      <trkpt lat="46.70625" lon="-0.48138">
        <ele>198.36</ele>
        <time>2024-06-25T01:47:14.916Z</time>
      </trkpt>
      <trkpt lat="46.70628" lon="-0.48144">
        <ele>198.16</ele>
        <time>2024-06-25T01:47:23.503Z</time>
      </trkpt>
      <trkpt lat="46.70631" lon="-0.48149">
        <ele>197.97</ele>
        <time>2024-06-25T01:47:32.091Z</time>
      </trkpt>
      <trkpt lat="46.70634" lon="-0.48153">
        <ele>197.78</ele>
        <time>2024-06-25T01:47:40.680Z</time>
      </trkpt>
      <trkpt lat="46.70636" lon="-0.48156">
        <ele>197.59</ele>
        <time>2024-06-25T01:47:49.269Z</time>
      </trkpt>
      <trkpt lat="46.70639" lon="-0.48159">
        <ele>197.4</ele>
        <time>2024-06-25T01:47:57.859Z</time>
      </trkpt>
      <trkpt lat="46.70641" lon="-0.48163">
        <ele>197.21</ele>
        <time>2024-06-25T01:48:06.450Z</time>
      </trkpt>
      <trkpt lat="46.70644" lon="-0.48167">
        <ele>197.02</ele>
        <time>2024-06-25T01:48:15.042Z</time>
      </trkpt>
      <trkpt lat="46.70647" lon="-0.48172">
        <ele>196.83</ele>
        <time>2024-06-25T01:48:23.634Z</time>
      </trkpt>
      <trkpt lat="46.7065" lon="-0.48178">
        <ele>196.64</ele>
        <time>2024-06-25T01:48:32.227Z</time>
      </trkpt>
      <trkpt lat="46.70653" lon="-0.48184">
        <ele>196.45</ele>
        <time>2024-06-25T01:48:40.822Z</time>
      </trkpt>
      <trkpt lat="46.70657" lon="-0.4819">
        <ele>196.26</ele>
        <time>2024-06-25T01:48:49.418Z</time>
      </trkpt>
      <trkpt lat="46.70661" lon="-0.48197">
        <ele>196.07</ele>
        <time>2024-06-25T01:48:58.015Z</time>
      </trkpt>
      <trkpt lat="46.70665" lon="-0.48203">
        <ele>195.89</ele>
        <time>2024-06-25T01:49:06.613Z</time>
      </trkpt>
      <trkpt lat="46.70669" lon="-0.4821">
        <ele>195.71</ele>
        <time>2024-06-25T01:49:15.212Z</time>
      </trkpt>
      <trkpt lat="46.70673" lon="-0.48216">
        <ele>195.54</ele>
        <time>2024-06-25T01:49:23.813Z</time>
      </trkpt>
      <trkpt lat="46.70678" lon="-0.48223">
        <ele>195.37</ele>
        <time>2024-06-25T01:49:32.415Z</time>
      </trkpt>
      <trkpt lat="46.70682" lon="-0.48229">
        <ele>195.2</ele>
        <time>2024-06-25T01:49:41.018Z</time>
      </trkpt>
      <trkpt lat="46.70686" lon="-0.48236">
        <ele>195.04</ele>
        <time>2024-06-25T01:49:49.622Z</time>
      </trkpt>
      <trkpt lat="46.7069" lon="-0.48242">
        <ele>194.89</ele>
        <time>2024-06-25T01:49:58.227Z</time>
      </trkpt>
      <trkpt lat="46.70694" lon="-0.48249">
        <ele>194.74</ele>
        <time>2024-06-25T01:50:06.834Z</time>
      </trkpt>
      <trkpt lat="46.70698" lon="-0.48256">
        <ele>194.58</ele>
        <time>2024-06-25T01:50:15.442Z</time>
      </trkpt>
      <trkpt lat="46.70702" lon="-0.48263">
        <ele>194.43</ele>
        <time>2024-06-25T01:50:24.051Z</time>
      </trkpt>
      <trkpt lat="46.70706" lon="-0.48269">
        <ele>194.28</ele>
        <time>2024-06-25T01:50:32.661Z</time>
      </trkpt>
      <trkpt lat="46.70711" lon="-0.48276">
        <ele>194.14</ele>
        <time>2024-06-25T01:50:41.273Z</time>
      </trkpt>
      <trkpt lat="46.70715" lon="-0.48283">
        <ele>194.01</ele>
        <time>2024-06-25T01:50:49.886Z</time>
      </trkpt>
      <trkpt lat="46.70719" lon="-0.4829">
        <ele>193.87</ele>
        <time>2024-06-25T01:50:58.500Z</time>
      </trkpt>
      <trkpt lat="46.70724" lon="-0.48298">
        <ele>193.74</ele>
        <time>2024-06-25T01:51:07.116Z</time>
      </trkpt>
      <trkpt lat="46.70728" lon="-0.48305">
        <ele>193.62</ele>
        <time>2024-06-25T01:51:15.733Z</time>
      </trkpt>
      <trkpt lat="46.70732" lon="-0.48312">
        <ele>193.49</ele>
        <time>2024-06-25T01:51:24.351Z</time>
      </trkpt>
      <trkpt lat="46.70736" lon="-0.48319">
        <ele>193.36</ele>
        <time>2024-06-25T01:51:32.970Z</time>
      </trkpt>
      <trkpt lat="46.70741" lon="-0.48326">
        <ele>193.24</ele>
        <time>2024-06-25T01:51:41.591Z</time>
      </trkpt>
      <trkpt lat="46.70745" lon="-0.48333">
        <ele>193.12</ele>
        <time>2024-06-25T01:51:50.213Z</time>
      </trkpt>
      <trkpt lat="46.70749" lon="-0.48341">
        <ele>192.99</ele>
        <time>2024-06-25T01:51:58.836Z</time>
      </trkpt>
      <trkpt lat="46.70753" lon="-0.48347">
        <ele>192.86</ele>
        <time>2024-06-25T01:52:07.461Z</time>
      </trkpt>
      <trkpt lat="46.70757" lon="-0.48354">
        <ele>192.74</ele>
        <time>2024-06-25T01:52:16.087Z</time>
      </trkpt>
      <trkpt lat="46.70761" lon="-0.48361">
        <ele>192.62</ele>
        <time>2024-06-25T01:52:24.714Z</time>
      </trkpt>
      <trkpt lat="46.70765" lon="-0.48368">
        <ele>192.49</ele>
        <time>2024-06-25T01:52:33.342Z</time>
      </trkpt>
      <trkpt lat="46.70769" lon="-0.48374">
        <ele>192.38</ele>
        <time>2024-06-25T01:52:41.971Z</time>
      </trkpt>
      <trkpt lat="46.70773" lon="-0.4838">
        <ele>192.27</ele>
        <time>2024-06-25T01:52:50.602Z</time>
      </trkpt>
      <trkpt lat="46.70777" lon="-0.48387">
        <ele>192.16</ele>
        <time>2024-06-25T01:52:59.234Z</time>
      </trkpt>
      <trkpt lat="46.70782" lon="-0.48393">
        <ele>192.06</ele>
        <time>2024-06-25T01:53:07.867Z</time>
      </trkpt>
      <trkpt lat="46.70786" lon="-0.484">
        <ele>191.97</ele>
        <time>2024-06-25T01:53:16.501Z</time>
      </trkpt>
      <trkpt lat="46.7079" lon="-0.48407">
        <ele>191.88</ele>
        <time>2024-06-25T01:53:25.137Z</time>
      </trkpt>
      <trkpt lat="46.70794" lon="-0.48413">
        <ele>191.79</ele>
        <time>2024-06-25T01:53:33.774Z</time>
      </trkpt>
      <trkpt lat="46.70799" lon="-0.4842">
        <ele>191.7</ele>
        <time>2024-06-25T01:53:42.412Z</time>
      </trkpt>
      <trkpt lat="46.70803" lon="-0.48427">
        <ele>191.61</ele>
        <time>2024-06-25T01:53:51.051Z</time>
      </trkpt>
      <trkpt lat="46.70807" lon="-0.48434">
        <ele>191.51</ele>
        <time>2024-06-25T01:53:59.692Z</time>
      </trkpt>
      <trkpt lat="46.70811" lon="-0.48441">
        <ele>191.41</ele>
        <time>2024-06-25T01:54:08.334Z</time>
      </trkpt>
      <trkpt lat="46.70816" lon="-0.48448">
        <ele>191.3</ele>
        <time>2024-06-25T01:54:16.977Z</time>
      </trkpt>
      <trkpt lat="46.7082" lon="-0.48455">
        <ele>191.2</ele>
        <time>2024-06-25T01:54:25.622Z</time>
      </trkpt>
      <trkpt lat="46.70825" lon="-0.48461">
        <ele>191.1</ele>
        <time>2024-06-25T01:54:34.268Z</time>
      </trkpt>
      <trkpt lat="46.70829" lon="-0.48469">
        <ele>190.99</ele>
        <time>2024-06-25T01:54:42.915Z</time>
      </trkpt>
      <trkpt lat="46.70833" lon="-0.48475">
        <ele>190.89</ele>
        <time>2024-06-25T01:54:51.563Z</time>
      </trkpt>
      <trkpt lat="46.70838" lon="-0.48482">
        <ele>190.8</ele>
        <time>2024-06-25T01:55:00.213Z</time>
      </trkpt>
      <trkpt lat="46.70842" lon="-0.48489">
        <ele>190.71</ele>
        <time>2024-06-25T01:55:08.864Z</time>
      </trkpt>
      <trkpt lat="46.70846" lon="-0.48496">
        <ele>190.63</ele>
        <time>2024-06-25T01:55:17.516Z</time>
      </trkpt>
      <trkpt lat="46.70851" lon="-0.48503">
        <ele>190.55</ele>
        <time>2024-06-25T01:55:26.170Z</time>
      </trkpt>
      <trkpt lat="46.70855" lon="-0.4851">
        <ele>190.46</ele>
        <time>2024-06-25T01:55:34.825Z</time>
      </trkpt>
      <trkpt lat="46.70859" lon="-0.48517">
        <ele>190.38</ele>
        <time>2024-06-25T01:55:43.481Z</time>
      </trkpt>
      <trkpt lat="46.70863" lon="-0.48524">
        <ele>190.3</ele>
        <time>2024-06-25T01:55:52.138Z</time>
      </trkpt>
      <trkpt lat="46.70868" lon="-0.48532">
        <ele>190.22</ele>
        <time>2024-06-25T01:56:00.797Z</time>
      </trkpt>
      <trkpt lat="46.70872" lon="-0.4854">
        <ele>190.14</ele>
        <time>2024-06-25T01:56:09.457Z</time>
      </trkpt>
      <trkpt lat="46.70876" lon="-0.48547">
        <ele>190.07</ele>
        <time>2024-06-25T01:56:18.119Z</time>
      </trkpt>
      <trkpt lat="46.7088" lon="-0.48556">
        <ele>189.98</ele>
        <time>2024-06-25T01:56:26.782Z</time>
      </trkpt>
      <trkpt lat="46.70884" lon="-0.48564">
        <ele>189.89</ele>
        <time>2024-06-25T01:56:35.446Z</time>
      </trkpt>
      <trkpt lat="46.70889" lon="-0.48572">
        <ele>189.82</ele>
        <time>2024-06-25T01:56:44.112Z</time>
      </trkpt>
      <trkpt lat="46.70893" lon="-0.48579">
        <ele>189.74</ele>
        <time>2024-06-25T01:56:52.779Z</time>
      </trkpt>
      <trkpt lat="46.70898" lon="-0.48586">
        <ele>189.66</ele>
        <time>2024-06-25T01:57:01.447Z</time>
      </trkpt>
      <trkpt lat="46.70902" lon="-0.48593">
        <ele>189.57</ele>
        <time>2024-06-25T01:57:10.117Z</time>
      </trkpt>
      <trkpt lat="46.70906" lon="-0.48601">
        <ele>189.48</ele>
        <time>2024-06-25T01:57:18.788Z</time>
      </trkpt>
      <trkpt lat="46.7091" lon="-0.48608">
        <ele>189.41</ele>
        <time>2024-06-25T01:57:27.460Z</time>
      </trkpt>
      <trkpt lat="46.70914" lon="-0.48615">
        <ele>189.33</ele>
        <time>2024-06-25T01:57:36.134Z</time>
      </trkpt>
      <trkpt lat="46.70917" lon="-0.48622">
        <ele>189.25</ele>
        <time>2024-06-25T01:57:44.809Z</time>
      </trkpt>
      <trkpt lat="46.70921" lon="-0.48629">
        <ele>189.17</ele>
        <time>2024-06-25T01:57:53.485Z</time>
      </trkpt>
      <trkpt lat="46.70924" lon="-0.48636">
        <ele>189.09</ele>
        <time>2024-06-25T01:58:02.162Z</time>
      </trkpt>
      <trkpt lat="46.70927" lon="-0.48642">
        <ele>189</ele>
        <time>2024-06-25T01:58:10.840Z</time>
      </trkpt>
      <trkpt lat="46.7093" lon="-0.48649">
        <ele>188.92</ele>
        <time>2024-06-25T01:58:19.519Z</time>
      </trkpt>
      <trkpt lat="46.70933" lon="-0.48656">
        <ele>188.83</ele>
        <time>2024-06-25T01:58:28.199Z</time>
      </trkpt>
      <trkpt lat="46.70936" lon="-0.48663">
        <ele>188.74</ele>
        <time>2024-06-25T01:58:36.880Z</time>
      </trkpt>
      <trkpt lat="46.70939" lon="-0.48671">
        <ele>188.64</ele>
        <time>2024-06-25T01:58:45.563Z</time>
      </trkpt>
      <trkpt lat="46.70941" lon="-0.48678">
        <ele>188.54</ele>
        <time>2024-06-25T01:58:54.247Z</time>
      </trkpt>
      <trkpt lat="46.70944" lon="-0.48686">
        <ele>188.44</ele>
        <time>2024-06-25T01:59:02.932Z</time>
      </trkpt>
      <trkpt lat="46.70947" lon="-0.48695">
        <ele>188.34</ele>
        <time>2024-06-25T01:59:11.618Z</time>
      </trkpt>
      <trkpt lat="46.7095" lon="-0.48703">
        <ele>188.23</ele>
        <time>2024-06-25T01:59:20.306Z</time>
      </trkpt>
      <trkpt lat="46.70953" lon="-0.48712">
        <ele>188.13</ele>
        <time>2024-06-25T01:59:28.995Z</time>
      </trkpt>
      <trkpt lat="46.70956" lon="-0.48721">
        <ele>188.02</ele>
        <time>2024-06-25T01:59:37.686Z</time>
      </trkpt>
      <trkpt lat="46.7096" lon="-0.4873">
        <ele>187.91</ele>
        <time>2024-06-25T01:59:46.378Z</time>
      </trkpt>
      <trkpt lat="46.70963" lon="-0.48739">
        <ele>187.8</ele>
        <time>2024-06-25T01:59:55.071Z</time>
      </trkpt>
      <trkpt lat="46.70966" lon="-0.48746">
        <ele>187.7</ele>
        <time>2024-06-25T02:00:03.766Z</time>
      </trkpt>
      <trkpt lat="46.7097" lon="-0.48754">
        <ele>187.6</ele>
        <time>2024-06-25T02:00:12.462Z</time>
      </trkpt>
      <trkpt lat="46.70973" lon="-0.48763">
        <ele>187.5</ele>
        <time>2024-06-25T02:00:21.159Z</time>
      </trkpt>
      <trkpt lat="46.70978" lon="-0.48771">
        <ele>187.4</ele>
        <time>2024-06-25T02:00:29.858Z</time>
      </trkpt>
      <trkpt lat="46.70982" lon="-0.48779">
        <ele>187.3</ele>
        <time>2024-06-25T02:00:38.558Z</time>
      </trkpt>
      <trkpt lat="46.70986" lon="-0.48787">
        <ele>187.21</ele>
        <time>2024-06-25T02:00:47.259Z</time>
      </trkpt>
      <trkpt lat="46.7099" lon="-0.48794">
        <ele>187.11</ele>
        <time>2024-06-25T02:00:55.962Z</time>
      </trkpt>
      <trkpt lat="46.70994" lon="-0.48802">
        <ele>187</ele>
        <time>2024-06-25T02:01:04.666Z</time>
      </trkpt>
      <trkpt lat="46.70999" lon="-0.48809">
        <ele>186.89</ele>
        <time>2024-06-25T02:01:13.371Z</time>
      </trkpt>
      <trkpt lat="46.71003" lon="-0.48816">
        <ele>186.77</ele>
        <time>2024-06-25T02:01:22.078Z</time>
      </trkpt>
      <trkpt lat="46.71006" lon="-0.48823">
        <ele>186.65</ele>
        <time>2024-06-25T02:01:30.786Z</time>
      </trkpt>
      <trkpt lat="46.7101" lon="-0.4883">
        <ele>186.53</ele>
        <time>2024-06-25T02:01:39.495Z</time>
      </trkpt>
      <trkpt lat="46.71013" lon="-0.48837">
        <ele>186.41</ele>
        <time>2024-06-25T02:01:48.205Z</time>
      </trkpt>
      <trkpt lat="46.71016" lon="-0.48845">
        <ele>186.28</ele>
        <time>2024-06-25T02:01:56.916Z</time>
      </trkpt>
      <trkpt lat="46.7102" lon="-0.48853">
        <ele>186.15</ele>
        <time>2024-06-25T02:02:05.629Z</time>
      </trkpt>
      <trkpt lat="46.71023" lon="-0.48862">
        <ele>186.02</ele>
        <time>2024-06-25T02:02:14.343Z</time>
      </trkpt>
      <trkpt lat="46.71025" lon="-0.4887">
        <ele>185.9</ele>
        <time>2024-06-25T02:02:23.058Z</time>
      </trkpt>
      <trkpt lat="46.71028" lon="-0.48878">
        <ele>185.77</ele>
        <time>2024-06-25T02:02:31.775Z</time>
      </trkpt>
      <trkpt lat="46.7103" lon="-0.48887">
        <ele>185.64</ele>
        <time>2024-06-25T02:02:40.493Z</time>
      </trkpt>
      <trkpt lat="46.71033" lon="-0.48896">
        <ele>185.5</ele>
        <time>2024-06-25T02:02:49.212Z</time>
      </trkpt>
      <trkpt lat="46.71035" lon="-0.48905">
        <ele>185.36</ele>
        <time>2024-06-25T02:02:57.932Z</time>
      </trkpt>
      <trkpt lat="46.71036" lon="-0.48915">
        <ele>185.22</ele>
        <time>2024-06-25T02:03:06.654Z</time>
      </trkpt>
      <trkpt lat="46.71038" lon="-0.48924">
        <ele>185.06</ele>
        <time>2024-06-25T02:03:15.377Z</time>
      </trkpt>
      <trkpt lat="46.7104" lon="-0.48933">
        <ele>184.9</ele>
        <time>2024-06-25T02:03:24.102Z</time>
      </trkpt>
      <trkpt lat="46.71042" lon="-0.48943">
        <ele>184.74</ele>
        <time>2024-06-25T02:03:32.828Z</time>
      </trkpt>
      <trkpt lat="46.71045" lon="-0.48953">
        <ele>184.57</ele>
        <time>2024-06-25T02:03:41.555Z</time>
      </trkpt>
      <trkpt lat="46.71048" lon="-0.48962">
        <ele>184.4</ele>
        <time>2024-06-25T02:03:50.284Z</time>
      </trkpt>
      <trkpt lat="46.71052" lon="-0.4897">
        <ele>184.24</ele>
        <time>2024-06-25T02:03:59.014Z</time>
      </trkpt>
      <trkpt lat="46.71056" lon="-0.48979">
        <ele>184.07</ele>
        <time>2024-06-25T02:04:07.746Z</time>
      </trkpt>
      <trkpt lat="46.71059" lon="-0.48988">
        <ele>183.9</ele>
        <time>2024-06-25T02:04:16.479Z</time>
      </trkpt>
      <trkpt lat="46.71063" lon="-0.48996">
        <ele>183.73</ele>
        <time>2024-06-25T02:04:25.213Z</time>
      </trkpt>
      <trkpt lat="46.71066" lon="-0.49005">
        <ele>183.57</ele>
        <time>2024-06-25T02:04:33.949Z</time>
      </trkpt>
      <trkpt lat="46.7107" lon="-0.49013">
        <ele>183.41</ele>
        <time>2024-06-25T02:04:42.686Z</time>
      </trkpt>
      <trkpt lat="46.71075" lon="-0.49021">
        <ele>183.25</ele>
        <time>2024-06-25T02:04:51.425Z</time>
      </trkpt>
      <trkpt lat="46.7108" lon="-0.49028">
        <ele>183.09</ele>
        <time>2024-06-25T02:05:00.165Z</time>
      </trkpt>
      <trkpt lat="46.71085" lon="-0.49035">
        <ele>182.93</ele>
        <time>2024-06-25T02:05:08.906Z</time>
      </trkpt>
      <trkpt lat="46.7109" lon="-0.49041">
        <ele>182.77</ele>
        <time>2024-06-25T02:05:17.649Z</time>
      </trkpt>
      <trkpt lat="46.71096" lon="-0.49046">
        <ele>182.6</ele>
        <time>2024-06-25T02:05:26.393Z</time>
      </trkpt>
      <trkpt lat="46.71102" lon="-0.49051">
        <ele>182.43</ele>
        <time>2024-06-25T02:05:35.138Z</time>
      </trkpt>
      <trkpt lat="46.71107" lon="-0.49056">
        <ele>182.25</ele>
        <time>2024-06-25T02:05:43.885Z</time>
      </trkpt>
      <trkpt lat="46.71113" lon="-0.49062">
        <ele>182.08</ele>
        <time>2024-06-25T02:05:52.633Z</time>
      </trkpt>
      <trkpt lat="46.71119" lon="-0.49067">
        <ele>181.9</ele>
        <time>2024-06-25T02:06:01.382Z</time>
      </trkpt>
      <trkpt lat="46.71124" lon="-0.49072">
        <ele>181.72</ele>
        <time>2024-06-25T02:06:10.133Z</time>
      </trkpt>
      <trkpt lat="46.7113" lon="-0.49075">
        <ele>181.54</ele>
        <time>2024-06-25T02:06:18.885Z</time>
      </trkpt>
      <trkpt lat="46.71136" lon="-0.4908">
        <ele>181.36</ele>
        <time>2024-06-25T02:06:27.638Z</time>
      </trkpt>
      <trkpt lat="46.71141" lon="-0.49085">
        <ele>181.18</ele>
        <time>2024-06-25T02:06:36.393Z</time>
      </trkpt>
      <trkpt lat="46.71147" lon="-0.49089">
        <ele>181</ele>
        <time>2024-06-25T02:06:45.149Z</time>
      </trkpt>
      <trkpt lat="46.71152" lon="-0.49094">
        <ele>180.82</ele>
        <time>2024-06-25T02:06:53.906Z</time>
      </trkpt>
      <trkpt lat="46.71158" lon="-0.49098">
        <ele>180.63</ele>
        <time>2024-06-25T02:07:02.664Z</time>
      </trkpt>
      <trkpt lat="46.71163" lon="-0.49101">
        <ele>180.46</ele>
        <time>2024-06-25T02:07:11.423Z</time>
      </trkpt>
      <trkpt lat="46.71169" lon="-0.49105">
        <ele>180.28</ele>
        <time>2024-06-25T02:07:20.184Z</time>
      </trkpt>
      <trkpt lat="46.71174" lon="-0.49109">
        <ele>180.1</ele>
        <time>2024-06-25T02:07:28.946Z</time>
      </trkpt>
      <trkpt lat="46.7118" lon="-0.49112">
        <ele>179.92</ele>
        <time>2024-06-25T02:07:37.709Z</time>
      </trkpt>
      <trkpt lat="46.71185" lon="-0.49113">
        <ele>179.73</ele>
        <time>2024-06-25T02:07:46.473Z</time>
      </trkpt>
      <trkpt lat="46.71191" lon="-0.49112">
        <ele>179.55</ele>
        <time>2024-06-25T02:07:55.238Z</time>
      </trkpt>
      <trkpt lat="46.71195" lon="-0.49109">
        <ele>179.37</ele>
        <time>2024-06-25T02:08:04.004Z</time>
      </trkpt>
      <trkpt lat="46.71199" lon="-0.49103">
        <ele>179.19</ele>
        <time>2024-06-25T02:08:12.771Z</time>
      </trkpt>
      <trkpt lat="46.71203" lon="-0.49096">
        <ele>179.01</ele>
        <time>2024-06-25T02:08:21.540Z</time>
      </trkpt>
      <trkpt lat="46.71206" lon="-0.4909">
        <ele>178.84</ele>
        <time>2024-06-25T02:08:30.310Z</time>
      </trkpt>
      <trkpt lat="46.71209" lon="-0.49083">
        <ele>178.66</ele>
        <time>2024-06-25T02:08:39.081Z</time>
      </trkpt>
      <trkpt lat="46.71212" lon="-0.49075">
        <ele>178.49</ele>
        <time>2024-06-25T02:08:47.853Z</time>
      </trkpt>
      <trkpt lat="46.71215" lon="-0.49067">
        <ele>178.32</ele>
        <time>2024-06-25T02:08:56.626Z</time>
      </trkpt>
      <trkpt lat="46.71218" lon="-0.4906">
        <ele>178.15</ele>
        <time>2024-06-25T02:09:05.401Z</time>
      </trkpt>
      <trkpt lat="46.71221" lon="-0.49052">
        <ele>177.99</ele>
        <time>2024-06-25T02:09:14.177Z</time>
      </trkpt>
      <trkpt lat="46.71224" lon="-0.49045">
        <ele>177.83</ele>
        <time>2024-06-25T02:09:22.954Z</time>
      </trkpt>
      <trkpt lat="46.71228" lon="-0.49037">
        <ele>177.67</ele>
        <time>2024-06-25T02:09:31.732Z</time>
      </trkpt>
      <trkpt lat="46.71231" lon="-0.4903">
        <ele>177.52</ele>
        <time>2024-06-25T02:09:40.511Z</time>
      </trkpt>
      <trkpt lat="46.71234" lon="-0.49022">
        <ele>177.37</ele>
        <time>2024-06-25T02:09:49.292Z</time>
      </trkpt>
      <trkpt lat="46.71238" lon="-0.49015">
        <ele>177.21</ele>
        <time>2024-06-25T02:09:58.074Z</time>
      </trkpt>
      <trkpt lat="46.71241" lon="-0.49007">
        <ele>177.06</ele>
        <time>2024-06-25T02:10:06.857Z</time>
      </trkpt>
      <trkpt lat="46.71245" lon="-0.48999">
        <ele>176.91</ele>
        <time>2024-06-25T02:10:15.641Z</time>
      </trkpt>
      <trkpt lat="46.71247" lon="-0.4899">
        <ele>176.77</ele>
        <time>2024-06-25T02:10:24.427Z</time>
      </trkpt>
      <trkpt lat="46.7125" lon="-0.48982">
        <ele>176.63</ele>
        <time>2024-06-25T02:10:33.214Z</time>
      </trkpt>
      <trkpt lat="46.71253" lon="-0.48973">
        <ele>176.49</ele>
        <time>2024-06-25T02:10:42.002Z</time>
      </trkpt>
      <trkpt lat="46.71255" lon="-0.48965">
        <ele>176.35</ele>
        <time>2024-06-25T02:10:50.792Z</time>
      </trkpt>
      <trkpt lat="46.71258" lon="-0.48956">
        <ele>176.22</ele>
        <time>2024-06-25T02:10:59.583Z</time>
      </trkpt>
      <trkpt lat="46.7126" lon="-0.48948">
        <ele>176.08</ele>
        <time>2024-06-25T02:11:08.375Z</time>
      </trkpt>
      <trkpt lat="46.71263" lon="-0.48938">
        <ele>175.95</ele>
        <time>2024-06-25T02:11:17.169Z</time>
      </trkpt>
      <trkpt lat="46.71265" lon="-0.48929">
        <ele>175.83</ele>
        <time>2024-06-25T02:11:25.964Z</time>
      </trkpt>
      <trkpt lat="46.71268" lon="-0.48921">
        <ele>175.71</ele>
        <time>2024-06-25T02:11:34.760Z</time>
      </trkpt>
      <trkpt lat="46.7127" lon="-0.48913">
        <ele>175.59</ele>
        <time>2024-06-25T02:11:43.557Z</time>
      </trkpt>
      <trkpt lat="46.71273" lon="-0.48905">
        <ele>175.47</ele>
        <time>2024-06-25T02:11:52.356Z</time>
      </trkpt>
      <trkpt lat="46.71277" lon="-0.48896">
        <ele>175.36</ele>
        <time>2024-06-25T02:12:01.156Z</time>
      </trkpt>
      <trkpt lat="46.7128" lon="-0.48889">
        <ele>175.24</ele>
        <time>2024-06-25T02:12:09.957Z</time>
      </trkpt>
      <trkpt lat="46.71283" lon="-0.48881">
        <ele>175.15</ele>
        <time>2024-06-25T02:12:18.759Z</time>
      </trkpt>
      <trkpt lat="46.71285" lon="-0.48874">
        <ele>175.05</ele>
        <time>2024-06-25T02:12:27.562Z</time>
      </trkpt>
      <trkpt lat="46.71288" lon="-0.48867">
        <ele>174.96</ele>
        <time>2024-06-25T02:12:36.367Z</time>
      </trkpt>
      <trkpt lat="46.7129" lon="-0.48859">
        <ele>174.87</ele>
        <time>2024-06-25T02:12:45.173Z</time>
      </trkpt>
      <trkpt lat="46.71292" lon="-0.48851">
        <ele>174.78</ele>
        <time>2024-06-25T02:12:53.980Z</time>
      </trkpt>
      <trkpt lat="46.71295" lon="-0.48845">
        <ele>174.7</ele>
        <time>2024-06-25T02:13:02.788Z</time>
      </trkpt>
      <trkpt lat="46.71297" lon="-0.48838">
        <ele>174.62</ele>
        <time>2024-06-25T02:13:11.597Z</time>
      </trkpt>
      <trkpt lat="46.713" lon="-0.48833">
        <ele>174.54</ele>
        <time>2024-06-25T02:13:20.407Z</time>
      </trkpt>
      <trkpt lat="46.71303" lon="-0.48828">
        <ele>174.46</ele>
        <time>2024-06-25T02:13:29.218Z</time>
      </trkpt>
      <trkpt lat="46.71307" lon="-0.48824">
        <ele>174.39</ele>
        <time>2024-06-25T02:13:38.030Z</time>
      </trkpt>
      <trkpt lat="46.71312" lon="-0.48823">
        <ele>174.32</ele>
        <time>2024-06-25T02:13:46.843Z</time>
      </trkpt>
      <trkpt lat="46.71317" lon="-0.48824">
        <ele>174.25</ele>
        <time>2024-06-25T02:13:55.657Z</time>
      </trkpt>
      <trkpt lat="46.71322" lon="-0.48827">
        <ele>174.19</ele>
        <time>2024-06-25T02:14:04.472Z</time>
      </trkpt>
      <trkpt lat="46.71327" lon="-0.4883">
        <ele>174.12</ele>
        <time>2024-06-25T02:14:13.288Z</time>
      </trkpt>
      <trkpt lat="46.71332" lon="-0.48834">
        <ele>174.06</ele>
        <time>2024-06-25T02:14:22.105Z</time>
      </trkpt>
      <trkpt lat="46.71337" lon="-0.4884">
        <ele>174</ele>
        <time>2024-06-25T02:14:30.923Z</time>
      </trkpt>
      <trkpt lat="46.71342" lon="-0.48846">
        <ele>173.95</ele>
        <time>2024-06-25T02:14:39.743Z</time>
      </trkpt>
      <trkpt lat="46.71347" lon="-0.48851">
        <ele>173.89</ele>
        <time>2024-06-25T02:14:48.564Z</time>
      </trkpt>
      <trkpt lat="46.71352" lon="-0.48856">
        <ele>173.85</ele>
        <time>2024-06-25T02:14:57.386Z</time>
      </trkpt>
      <trkpt lat="46.71357" lon="-0.4886">
        <ele>173.81</ele>
        <time>2024-06-25T02:15:06.209Z</time>
      </trkpt>
      <trkpt lat="46.71362" lon="-0.48865">
        <ele>173.78</ele>
        <time>2024-06-25T02:15:15.034Z</time>
      </trkpt>
      <trkpt lat="46.71368" lon="-0.48871">
        <ele>173.75</ele>
        <time>2024-06-25T02:15:23.860Z</time>
      </trkpt>
      <trkpt lat="46.71374" lon="-0.48877">
        <ele>173.72</ele>
        <time>2024-06-25T02:15:32.687Z</time>
      </trkpt>
      <trkpt lat="46.71379" lon="-0.48883">
        <ele>173.7</ele>
        <time>2024-06-25T02:15:41.516Z</time>
      </trkpt>
      <trkpt lat="46.71385" lon="-0.48888">
        <ele>173.68</ele>
        <time>2024-06-25T02:15:50.346Z</time>
      </trkpt>
      <trkpt lat="46.71391" lon="-0.48892">
        <ele>173.68</ele>
        <time>2024-06-25T02:15:59.177Z</time>
      </trkpt>
      <trkpt lat="46.71398" lon="-0.48894">
        <ele>173.68</ele>
        <time>2024-06-25T02:16:08.010Z</time>
      </trkpt>
      <trkpt lat="46.71403" lon="-0.48897">
        <ele>173.7</ele>
        <time>2024-06-25T02:16:16.844Z</time>
      </trkpt>
      <trkpt lat="46.71409" lon="-0.48899">
        <ele>173.72</ele>
        <time>2024-06-25T02:16:25.679Z</time>
      </trkpt>
      <trkpt lat="46.71415" lon="-0.48901">
        <ele>173.75</ele>
        <time>2024-06-25T02:16:34.515Z</time>
      </trkpt>
      <trkpt lat="46.71421" lon="-0.48904">
        <ele>173.77</ele>
        <time>2024-06-25T02:16:43.353Z</time>
      </trkpt>
      <trkpt lat="46.71427" lon="-0.48906">
        <ele>173.81</ele>
        <time>2024-06-25T02:16:52.192Z</time>
      </trkpt>
      <trkpt lat="46.71432" lon="-0.48908">
        <ele>173.85</ele>
        <time>2024-06-25T02:17:01.032Z</time>
      </trkpt>
      <trkpt lat="46.71438" lon="-0.48911">
        <ele>173.9</ele>
        <time>2024-06-25T02:17:09.873Z</time>
      </trkpt>
      <trkpt lat="46.71443" lon="-0.48913">
        <ele>173.96</ele>
        <time>2024-06-25T02:17:18.715Z</time>
      </trkpt>
      <trkpt lat="46.71448" lon="-0.48915">
        <ele>174.02</ele>
        <time>2024-06-25T02:17:27.558Z</time>
      </trkpt>
      <trkpt lat="46.71453" lon="-0.48917">
        <ele>174.09</ele>
        <time>2024-06-25T02:17:36.402Z</time>
      </trkpt>
      <trkpt lat="46.71457" lon="-0.48918">
        <ele>174.16</ele>
        <time>2024-06-25T02:17:45.247Z</time>
      </trkpt>
      <trkpt lat="46.71462" lon="-0.48919">
        <ele>174.23</ele>
        <time>2024-06-25T02:17:54.093Z</time>
      </trkpt>
      <trkpt lat="46.71467" lon="-0.4892">
        <ele>174.31</ele>
        <time>2024-06-25T02:18:02.940Z</time>
      </trkpt>
      <trkpt lat="46.71471" lon="-0.4892">
        <ele>174.4</ele>
        <time>2024-06-25T02:18:11.788Z</time>
      </trkpt>
      <trkpt lat="46.71475" lon="-0.4892">
        <ele>174.49</ele>
        <time>2024-06-25T02:18:20.637Z</time>
      </trkpt>
      <trkpt lat="46.71479" lon="-0.48922">
        <ele>174.6</ele>
        <time>2024-06-25T02:18:29.487Z</time>
      </trkpt>
      <trkpt lat="46.71483" lon="-0.48923">
        <ele>174.71</ele>
        <time>2024-06-25T02:18:38.337Z</time>
      </trkpt>
      <trkpt lat="46.71487" lon="-0.48925">
        <ele>174.83</ele>
        <time>2024-06-25T02:18:47.188Z</time>
      </trkpt>
      <trkpt lat="46.71492" lon="-0.48927">
        <ele>174.95</ele>
        <time>2024-06-25T02:18:56.040Z</time>
      </trkpt>
      <trkpt lat="46.71496" lon="-0.48929">
        <ele>175.07</ele>
        <time>2024-06-25T02:19:04.893Z</time>
      </trkpt>
      <trkpt lat="46.715" lon="-0.4893">
        <ele>175.2</ele>
        <time>2024-06-25T02:19:13.747Z</time>
      </trkpt>
      <trkpt lat="46.71503" lon="-0.48931">
        <ele>175.33</ele>
        <time>2024-06-25T02:19:22.602Z</time>
      </trkpt>
      <trkpt lat="46.71507" lon="-0.48933">
        <ele>175.46</ele>
        <time>2024-06-25T02:19:31.457Z</time>
      </trkpt>
      <trkpt lat="46.7151" lon="-0.48934">
        <ele>175.6</ele>
        <time>2024-06-25T02:19:40.313Z</time>
      </trkpt>
      <trkpt lat="46.71513" lon="-0.48935">
        <ele>175.74</ele>
        <time>2024-06-25T02:19:49.169Z</time>
      </trkpt>
      <trkpt lat="46.71515" lon="-0.48937">
        <ele>175.88</ele>
        <time>2024-06-25T02:19:58.026Z</time>
      </trkpt>
      <trkpt lat="46.71518" lon="-0.48939">
        <ele>176.02</ele>
        <time>2024-06-25T02:20:06.884Z</time>
      </trkpt>
      <trkpt lat="46.71521" lon="-0.4894">
        <ele>176.17</ele>
        <time>2024-06-25T02:20:15.742Z</time>
      </trkpt>
      <trkpt lat="46.71524" lon="-0.48941">
        <ele>176.32</ele>
        <time>2024-06-25T02:20:24.601Z</time>
      </trkpt>
      <trkpt lat="46.71527" lon="-0.48943">
        <ele>176.48</ele>
        <time>2024-06-25T02:20:33.461Z</time>
      </trkpt>
      <trkpt lat="46.71531" lon="-0.48944">
        <ele>176.63</ele>
        <time>2024-06-25T02:20:42.321Z</time>
      </trkpt>
      <trkpt lat="46.71534" lon="-0.48945">
        <ele>176.79</ele>
        <time>2024-06-25T02:20:51.182Z</time>
      </trkpt>
      <trkpt lat="46.71538" lon="-0.48946">
        <ele>176.95</ele>
        <time>2024-06-25T02:21:00.044Z</time>
      </trkpt>
      <trkpt lat="46.71541" lon="-0.48947">
        <ele>177.11</ele>
        <time>2024-06-25T02:21:08.906Z</time>
      </trkpt>
      <trkpt lat="46.71545" lon="-0.48948">
        <ele>177.27</ele>
        <time>2024-06-25T02:21:17.769Z</time>
      </trkpt>
      <trkpt lat="46.71548" lon="-0.48949">
        <ele>177.43</ele>
        <time>2024-06-25T02:21:26.633Z</time>
      </trkpt>
      <trkpt lat="46.7155" lon="-0.4895">
        <ele>177.59</ele>
        <time>2024-06-25T02:21:35.497Z</time>
      </trkpt>
      <trkpt lat="46.71554" lon="-0.48951">
        <ele>177.75</ele>
        <time>2024-06-25T02:21:44.362Z</time>
      </trkpt>
      <trkpt lat="46.71556" lon="-0.48953">
        <ele>177.92</ele>
        <time>2024-06-25T02:21:53.228Z</time>
      </trkpt>
      <trkpt lat="46.71559" lon="-0.48954">
        <ele>178.08</ele>
        <time>2024-06-25T02:22:02.094Z</time>
      </trkpt>
      <trkpt lat="46.71563" lon="-0.48955">
        <ele>178.25</ele>
        <time>2024-06-25T02:22:10.961Z</time>
      </trkpt>
      <trkpt lat="46.71566" lon="-0.48956">
        <ele>178.42</ele>
        <time>2024-06-25T02:22:19.828Z</time>
      </trkpt>
      <trkpt lat="46.71569" lon="-0.48956">
        <ele>178.59</ele>
        <time>2024-06-25T02:22:28.696Z</time>
      </trkpt>
      <trkpt lat="46.71572" lon="-0.48957">
        <ele>178.76</ele>
        <time>2024-06-25T02:22:37.565Z</time>
      </trkpt>
      <trkpt lat="46.71575" lon="-0.48958">
        <ele>178.93</ele>
        <time>2024-06-25T02:22:46.434Z</time>
      </trkpt>
      <trkpt lat="46.71578" lon="-0.48959">
        <ele>179.1</ele>
        <time>2024-06-25T02:22:55.304Z</time>
      </trkpt>
      <trkpt lat="46.71581" lon="-0.4896">
        <ele>179.27</ele>
        <time>2024-06-25T02:23:04.175Z</time>
      </trkpt>
      <trkpt lat="46.71585" lon="-0.48961">
        <ele>179.44</ele>
        <time>2024-06-25T02:23:13.046Z</time>
      </trkpt>
      <trkpt lat="46.71588" lon="-0.48962">
        <ele>179.61</ele>
        <time>2024-06-25T02:23:21.918Z</time>
      </trkpt>
      <trkpt lat="46.71592" lon="-0.48963">
        <ele>179.77</ele>
        <time>2024-06-25T02:23:30.791Z</time>
      </trkpt>
      <trkpt lat="46.71596" lon="-0.48964">
        <ele>179.94</ele>
        <time>2024-06-25T02:23:39.665Z</time>
      </trkpt>
      <trkpt lat="46.716" lon="-0.48964">
        <ele>180.09</ele>
        <time>2024-06-25T02:23:48.539Z</time>
      </trkpt>
      <trkpt lat="46.71604" lon="-0.48964">
        <ele>180.25</ele>
        <time>2024-06-25T02:23:57.414Z</time>
      </trkpt>
      <trkpt lat="46.71608" lon="-0.48964">
        <ele>180.4</ele>
        <time>2024-06-25T02:24:06.290Z</time>
      </trkpt>
      <trkpt lat="46.71612" lon="-0.48964">
        <ele>180.56</ele>
        <time>2024-06-25T02:24:15.167Z</time>
      </trkpt>
      <trkpt lat="46.71616" lon="-0.48963">
        <ele>180.71</ele>
        <time>2024-06-25T02:24:24.045Z</time>
      </trkpt>
      <trkpt lat="46.71619" lon="-0.48963">
        <ele>180.86</ele>
        <time>2024-06-25T02:24:32.923Z</time>
      </trkpt>
      <trkpt lat="46.71623" lon="-0.48962">
        <ele>181</ele>
        <time>2024-06-25T02:24:41.802Z</time>
      </trkpt>
      <trkpt lat="46.71627" lon="-0.48961">
        <ele>181.15</ele>
        <time>2024-06-25T02:24:50.682Z</time>
      </trkpt>
      <trkpt lat="46.71631" lon="-0.48961">
        <ele>181.3</ele>
        <time>2024-06-25T02:24:59.563Z</time>
      </trkpt>
      <trkpt lat="46.71635" lon="-0.4896">
        <ele>181.44</ele>
        <time>2024-06-25T02:25:08.445Z</time>
      </trkpt>
      <trkpt lat="46.71639" lon="-0.48959">
        <ele>181.58</ele>
        <time>2024-06-25T02:25:17.327Z</time>
      </trkpt>
      <trkpt lat="46.71643" lon="-0.48958">
        <ele>181.72</ele>
        <time>2024-06-25T02:25:26.210Z</time>
      </trkpt>
      <trkpt lat="46.71647" lon="-0.48957">
        <ele>181.85</ele>
        <time>2024-06-25T02:25:35.094Z</time>
      </trkpt>
      <trkpt lat="46.71652" lon="-0.48956">
        <ele>181.98</ele>
        <time>2024-06-25T02:25:43.979Z</time>
      </trkpt>
      <trkpt lat="46.71656" lon="-0.48955">
        <ele>182.11</ele>
        <time>2024-06-25T02:25:52.865Z</time>
      </trkpt>
      <trkpt lat="46.7166" lon="-0.48954">
        <ele>182.24</ele>
        <time>2024-06-25T02:26:01.752Z</time>
      </trkpt>
      <trkpt lat="46.71663" lon="-0.48953">
        <ele>182.36</ele>
        <time>2024-06-25T02:26:10.639Z</time>
      </trkpt>
      <trkpt lat="46.71668" lon="-0.48951">
        <ele>182.48</ele>
        <time>2024-06-25T02:26:19.527Z</time>
      </trkpt>
      <trkpt lat="46.71672" lon="-0.4895">
        <ele>182.6</ele>
        <time>2024-06-25T02:26:28.416Z</time>
      </trkpt>
      <trkpt lat="46.71676" lon="-0.48949">
        <ele>182.71</ele>
        <time>2024-06-25T02:26:37.306Z</time>
      </trkpt>
      <trkpt lat="46.71681" lon="-0.48947">
        <ele>182.82</ele>
        <time>2024-06-25T02:26:46.197Z</time>
      </trkpt>
      <trkpt lat="46.71685" lon="-0.48946">
        <ele>182.93</ele>
        <time>2024-06-25T02:26:55.089Z</time>
      </trkpt>
      <trkpt lat="46.7169" lon="-0.48944">
        <ele>183.03</ele>
        <time>2024-06-25T02:27:03.982Z</time>
      </trkpt>
      <trkpt lat="46.71693" lon="-0.48943">
        <ele>183.13</ele>
        <time>2024-06-25T02:27:12.875Z</time>
      </trkpt>
      <trkpt lat="46.71697" lon="-0.48942">
        <ele>183.23</ele>
        <time>2024-06-25T02:27:21.769Z</time>
      </trkpt>
      <trkpt lat="46.71701" lon="-0.48942">
        <ele>183.33</ele>
        <time>2024-06-25T02:27:30.664Z</time>
      </trkpt>
      <trkpt lat="46.71706" lon="-0.4894">
        <ele>183.42</ele>
        <time>2024-06-25T02:27:39.560Z</time>
      </trkpt>
      <trkpt lat="46.7171" lon="-0.4894">
        <ele>183.51</ele>
        <time>2024-06-25T02:27:48.457Z</time>
      </trkpt>
      <trkpt lat="46.71715" lon="-0.48939">
        <ele>183.6</ele>
        <time>2024-06-25T02:27:57.355Z</time>
      </trkpt>
      <trkpt lat="46.71719" lon="-0.48939">
        <ele>183.69</ele>
        <time>2024-06-25T02:28:06.254Z</time>
      </trkpt>
      <trkpt lat="46.71723" lon="-0.48939">
        <ele>183.78</ele>
        <time>2024-06-25T02:28:15.153Z</time>
      </trkpt>
      <trkpt lat="46.71728" lon="-0.48939">
        <ele>183.86</ele>
        <time>2024-06-25T02:28:24.053Z</time>
      </trkpt>
      <trkpt lat="46.71733" lon="-0.48938">
        <ele>183.94</ele>
        <time>2024-06-25T02:28:32.954Z</time>
      </trkpt>
      <trkpt lat="46.71738" lon="-0.48938">
        <ele>184.03</ele>
        <time>2024-06-25T02:28:41.856Z</time>
      </trkpt>
      <trkpt lat="46.71742" lon="-0.48937">
        <ele>184.11</ele>
        <time>2024-06-25T02:28:50.759Z</time>
      </trkpt>
      <trkpt lat="46.71746" lon="-0.48936">
        <ele>184.18</ele>
        <time>2024-06-25T02:28:59.663Z</time>
      </trkpt>
      <trkpt lat="46.7175" lon="-0.48934">
        <ele>184.25</ele>
        <time>2024-06-25T02:29:08.568Z</time>
      </trkpt>
      <trkpt lat="46.71754" lon="-0.48932">
        <ele>184.32</ele>
        <time>2024-06-25T02:29:17.474Z</time>
      </trkpt>
      <trkpt lat="46.71758" lon="-0.4893">
        <ele>184.39</ele>
        <time>2024-06-25T02:29:26.380Z</time>
      </trkpt>
      <trkpt lat="46.71762" lon="-0.48926">
        <ele>184.45</ele>
        <time>2024-06-25T02:29:35.287Z</time>
      </trkpt>
      <trkpt lat="46.71766" lon="-0.48924">
        <ele>184.51</ele>
        <time>2024-06-25T02:29:44.195Z</time>
      </trkpt>
      <trkpt lat="46.7177" lon="-0.48921">
        <ele>184.56</ele>
        <time>2024-06-25T02:29:53.104Z</time>
      </trkpt>
      <trkpt lat="46.71774" lon="-0.48918">
        <ele>184.62</ele>
        <time>2024-06-25T02:30:02.014Z</time>
      </trkpt>
      <trkpt lat="46.71778" lon="-0.48916">
        <ele>184.67</ele>
        <time>2024-06-25T02:30:10.925Z</time>
      </trkpt>
      <trkpt lat="46.71782" lon="-0.48913">
        <ele>184.72</ele>
        <time>2024-06-25T02:30:19.837Z</time>
      </trkpt>
      <trkpt lat="46.71787" lon="-0.4891">
        <ele>184.77</ele>
        <time>2024-06-25T02:30:28.750Z</time>
      </trkpt>
      <trkpt lat="46.71791" lon="-0.48908">
        <ele>184.82</ele>
        <time>2024-06-25T02:30:37.664Z</time>
      </trkpt>
      <trkpt lat="46.71795" lon="-0.48905">
        <ele>184.87</ele>
        <time>2024-06-25T02:30:46.579Z</time>
      </trkpt>
      <trkpt lat="46.71799" lon="-0.48902">
        <ele>184.92</ele>
        <time>2024-06-25T02:30:55.495Z</time>
      </trkpt>
      <trkpt lat="46.71803" lon="-0.489">
        <ele>184.97</ele>
        <time>2024-06-25T02:31:04.411Z</time>
      </trkpt>
      <trkpt lat="46.71807" lon="-0.48897">
        <ele>185.02</ele>
        <time>2024-06-25T02:31:13.328Z</time>
      </trkpt>
      <trkpt lat="46.71811" lon="-0.48894">
        <ele>185.06</ele>
        <time>2024-06-25T02:31:22.246Z</time>
      </trkpt>
      <trkpt lat="46.71816" lon="-0.48892">
        <ele>185.11</ele>
        <time>2024-06-25T02:31:31.165Z</time>
      </trkpt>
      <trkpt lat="46.7182" lon="-0.48889">
        <ele>185.16</ele>
        <time>2024-06-25T02:31:40.085Z</time>
      </trkpt>
      <trkpt lat="46.71824" lon="-0.48887">
        <ele>185.22</ele>
        <time>2024-06-25T02:31:49.006Z</time>
      </trkpt>
      <trkpt lat="46.71829" lon="-0.48885">
        <ele>185.27</ele>
        <time>2024-06-25T02:31:57.928Z</time>
      </trkpt>
      <trkpt lat="46.71833" lon="-0.48883">
        <ele>185.32</ele>
        <time>2024-06-25T02:32:06.851Z</time>
      </trkpt>
      <trkpt lat="46.71837" lon="-0.48881">
        <ele>185.37</ele>
        <time>2024-06-25T02:32:15.775Z</time>
      </trkpt>
      <trkpt lat="46.71841" lon="-0.48879">
        <ele>185.43</ele>
        <time>2024-06-25T02:32:24.700Z</time>
      </trkpt>
      <trkpt lat="46.71845" lon="-0.48878">
        <ele>185.49</ele>
        <time>2024-06-25T02:32:33.625Z</time>
      </trkpt>
      <trkpt lat="46.71849" lon="-0.48877">
        <ele>185.55</ele>
        <time>2024-06-25T02:32:42.551Z</time>
      </trkpt>
      <trkpt lat="46.71854" lon="-0.48878">
        <ele>185.6</ele>
        <time>2024-06-25T02:32:51.478Z</time>
      </trkpt>
      <trkpt lat="46.71859" lon="-0.48879">
        <ele>185.66</ele>
        <time>2024-06-25T02:33:00.406Z</time>
      </trkpt>
      <trkpt lat="46.71863" lon="-0.4888">
        <ele>185.72</ele>
        <time>2024-06-25T02:33:09.335Z</time>
      </trkpt>
      <trkpt lat="46.71867" lon="-0.48882">
        <ele>185.78</ele>
        <time>2024-06-25T02:33:18.265Z</time>
      </trkpt>
      <trkpt lat="46.71871" lon="-0.48884">
        <ele>185.84</ele>
        <time>2024-06-25T02:33:27.196Z</time>
      </trkpt>
      <trkpt lat="46.71875" lon="-0.48887">
        <ele>185.91</ele>
        <time>2024-06-25T02:33:36.128Z</time>
      </trkpt>
      <trkpt lat="46.71878" lon="-0.4889">
        <ele>185.97</ele>
        <time>2024-06-25T02:33:45.060Z</time>
      </trkpt>
      <trkpt lat="46.71882" lon="-0.48894">
        <ele>186.04</ele>
        <time>2024-06-25T02:33:53.993Z</time>
      </trkpt>
      <trkpt lat="46.71886" lon="-0.48897">
        <ele>186.12</ele>
        <time>2024-06-25T02:34:02.927Z</time>
      </trkpt>
      <trkpt lat="46.71889" lon="-0.48901">
        <ele>186.19</ele>
        <time>2024-06-25T02:34:11.862Z</time>
      </trkpt>
      <trkpt lat="46.71893" lon="-0.48904">
        <ele>186.26</ele>
        <time>2024-06-25T02:34:20.798Z</time>
      </trkpt>
      <trkpt lat="46.71897" lon="-0.48908">
        <ele>186.33</ele>
        <time>2024-06-25T02:34:29.735Z</time>
      </trkpt>
      <trkpt lat="46.719" lon="-0.48911">
        <ele>186.4</ele>
        <time>2024-06-25T02:34:38.673Z</time>
      </trkpt>
      <trkpt lat="46.71904" lon="-0.48915">
        <ele>186.49</ele>
        <time>2024-06-25T02:34:47.612Z</time>
      </trkpt>
      <trkpt lat="46.71907" lon="-0.48918">
        <ele>186.57</ele>
        <time>2024-06-25T02:34:56.551Z</time>
      </trkpt>
      <trkpt lat="46.7191" lon="-0.48921">
        <ele>186.65</ele>
        <time>2024-06-25T02:35:05.491Z</time>
      </trkpt>
      <trkpt lat="46.71914" lon="-0.48925">
        <ele>186.74</ele>
        <time>2024-06-25T02:35:14.432Z</time>
      </trkpt>
      <trkpt lat="46.71917" lon="-0.48928">
        <ele>186.82</ele>
        <time>2024-06-25T02:35:23.374Z</time>
      </trkpt>
      <trkpt lat="46.71921" lon="-0.48932">
        <ele>186.91</ele>
        <time>2024-06-25T02:35:32.317Z</time>
      </trkpt>
      <trkpt lat="46.71924" lon="-0.48937">
        <ele>186.99</ele>
        <time>2024-06-25T02:35:41.261Z</time>
      </trkpt>
      <trkpt lat="46.71927" lon="-0.48941">
        <ele>187.08</ele>
        <time>2024-06-25T02:35:50.205Z</time>
      </trkpt>
      <trkpt lat="46.7193" lon="-0.48945">
        <ele>187.16</ele>
        <time>2024-06-25T02:35:59.150Z</time>
      </trkpt>
      <trkpt lat="46.71933" lon="-0.48949">
        <ele>187.25</ele>
        <time>2024-06-25T02:36:08.096Z</time>
      </trkpt>
      <trkpt lat="46.71935" lon="-0.48954">
        <ele>187.33</ele>
        <time>2024-06-25T02:36:17.043Z</time>
      </trkpt>
      <trkpt lat="46.71938" lon="-0.48958">
        <ele>187.42</ele>
        <time>2024-06-25T02:36:25.991Z</time>
      </trkpt>
      <trkpt lat="46.7194" lon="-0.48962">
        <ele>187.51</ele>
        <time>2024-06-25T02:36:34.939Z</time>
      </trkpt>
      <trkpt lat="46.71943" lon="-0.48967">
        <ele>187.59</ele>
        <time>2024-06-25T02:36:43.888Z</time>
      </trkpt>
      <trkpt lat="46.71945" lon="-0.48972">
        <ele>187.68</ele>
        <time>2024-06-25T02:36:52.838Z</time>
      </trkpt>
      <trkpt lat="46.71948" lon="-0.48976">
        <ele>187.76</ele>
        <time>2024-06-25T02:37:01.789Z</time>
      </trkpt>
      <trkpt lat="46.71951" lon="-0.48981">
        <ele>187.84</ele>
        <time>2024-06-25T02:37:10.741Z</time>
      </trkpt>
      <trkpt lat="46.71953" lon="-0.48986">
        <ele>187.92</ele>
        <time>2024-06-25T02:37:19.694Z</time>
      </trkpt>
      <trkpt lat="46.71956" lon="-0.48991">
        <ele>188</ele>
        <time>2024-06-25T02:37:28.648Z</time>
      </trkpt>
      <trkpt lat="46.71959" lon="-0.48996">
        <ele>188.08</ele>
        <time>2024-06-25T02:37:37.602Z</time>
      </trkpt>
      <trkpt lat="46.71962" lon="-0.49001">
        <ele>188.17</ele>
        <time>2024-06-25T02:37:46.557Z</time>
      </trkpt>
      <trkpt lat="46.71965" lon="-0.49006">
        <ele>188.25</ele>
        <time>2024-06-25T02:37:55.513Z</time>
      </trkpt>
      <trkpt lat="46.71969" lon="-0.49009">
        <ele>188.33</ele>
        <time>2024-06-25T02:38:04.470Z</time>
      </trkpt>
      <trkpt lat="46.71973" lon="-0.49012">
        <ele>188.41</ele>
        <time>2024-06-25T02:38:13.428Z</time>
      </trkpt>
      <trkpt lat="46.71977" lon="-0.49012">
        <ele>188.48</ele>
        <time>2024-06-25T02:38:22.387Z</time>
      </trkpt>
      <trkpt lat="46.71982" lon="-0.49012">
        <ele>188.56</ele>
        <time>2024-06-25T02:38:31.347Z</time>
      </trkpt>
      <trkpt lat="46.71986" lon="-0.49011">
        <ele>188.63</ele>
        <time>2024-06-25T02:38:40.308Z</time>
      </trkpt>
      <trkpt lat="46.71991" lon="-0.49011">
        <ele>188.71</ele>
        <time>2024-06-25T02:38:49.270Z</time>
      </trkpt>
      <trkpt lat="46.71995" lon="-0.49009">
        <ele>188.78</ele>
        <time>2024-06-25T02:38:58.232Z</time>
      </trkpt>
      <trkpt lat="46.72" lon="-0.49008">
        <ele>188.85</ele>
        <time>2024-06-25T02:39:07.195Z</time>
      </trkpt>
      <trkpt lat="46.72004" lon="-0.49007">
        <ele>188.92</ele>
        <time>2024-06-25T02:39:16.159Z</time>
      </trkpt>
      <trkpt lat="46.72009" lon="-0.49006">
        <ele>188.98</ele>
        <time>2024-06-25T02:39:25.124Z</time>
      </trkpt>
      <trkpt lat="46.72013" lon="-0.49006">
        <ele>189.05</ele>
        <time>2024-06-25T02:39:34.090Z</time>
      </trkpt>
      <trkpt lat="46.72018" lon="-0.49004">
        <ele>189.12</ele>
        <time>2024-06-25T02:39:43.057Z</time>
      </trkpt>
      <trkpt lat="46.72023" lon="-0.49003">
        <ele>189.18</ele>
        <time>2024-06-25T02:39:52.025Z</time>
      </trkpt>
      <trkpt lat="46.72028" lon="-0.49002">
        <ele>189.24</ele>
        <time>2024-06-25T02:40:00.994Z</time>
      </trkpt>
      <trkpt lat="46.72032" lon="-0.49001">
        <ele>189.3</ele>
        <time>2024-06-25T02:40:09.964Z</time>
      </trkpt>
      <trkpt lat="46.72037" lon="-0.49">
        <ele>189.35</ele>
        <time>2024-06-25T02:40:18.935Z</time>
      </trkpt>
      <trkpt lat="46.72041" lon="-0.48998">
        <ele>189.41</ele>
        <time>2024-06-25T02:40:27.907Z</time>
      </trkpt>
      <trkpt lat="46.72045" lon="-0.48998">
        <ele>189.46</ele>
        <time>2024-06-25T02:40:36.880Z</time>
      </trkpt>
      <trkpt lat="46.72049" lon="-0.48997">
        <ele>189.5</ele>
        <time>2024-06-25T02:40:45.853Z</time>
      </trkpt>
      <trkpt lat="46.72052" lon="-0.48998">
        <ele>189.55</ele>
        <time>2024-06-25T02:40:54.827Z</time>
      </trkpt>
      <trkpt lat="46.72054" lon="-0.49">
        <ele>189.59</ele>
        <time>2024-06-25T02:41:03.802Z</time>
      </trkpt>
      <trkpt lat="46.72057" lon="-0.49003">
        <ele>189.63</ele>
        <time>2024-06-25T02:41:12.777Z</time>
      </trkpt>
      <trkpt lat="46.7206" lon="-0.49006">
        <ele>189.67</ele>
        <time>2024-06-25T02:41:21.753Z</time>
      </trkpt>
      <trkpt lat="46.72061" lon="-0.4901">
        <ele>189.7</ele>
        <time>2024-06-25T02:41:30.730Z</time>
      </trkpt>
      <trkpt lat="46.72063" lon="-0.49015">
        <ele>189.73</ele>
        <time>2024-06-25T02:41:39.707Z</time>
      </trkpt>
      <trkpt lat="46.72065" lon="-0.4902">
        <ele>189.76</ele>
        <time>2024-06-25T02:41:48.685Z</time>
      </trkpt>
      <trkpt lat="46.72066" lon="-0.49025">
        <ele>189.79</ele>
        <time>2024-06-25T02:41:57.664Z</time>
      </trkpt>
      <trkpt lat="46.72068" lon="-0.49029">
        <ele>189.82</ele>
        <time>2024-06-25T02:42:06.643Z</time>
      </trkpt>
      <trkpt lat="46.72069" lon="-0.49034">
        <ele>189.85</ele>
        <time>2024-06-25T02:42:15.623Z</time>
      </trkpt>
      <trkpt lat="46.72071" lon="-0.49039">
        <ele>189.88</ele>
        <time>2024-06-25T02:42:24.604Z</time>
      </trkpt>
      <trkpt lat="46.72072" lon="-0.49044">
        <ele>189.91</ele>
        <time>2024-06-25T02:42:33.586Z</time>
      </trkpt>
      <trkpt lat="46.72073" lon="-0.49048">
        <ele>189.93</ele>
        <time>2024-06-25T02:42:42.568Z</time>
      </trkpt>
      <trkpt lat="46.72074" lon="-0.49052">
        <ele>189.96</ele>
        <time>2024-06-25T02:42:51.551Z</time>
      </trkpt>
      <trkpt lat="46.72076" lon="-0.49057">
        <ele>189.98</ele>
        <time>2024-06-25T02:43:00.535Z</time>
      </trkpt>
      <trkpt lat="46.72077" lon="-0.49061">
        <ele>190</ele>
        <time>2024-06-25T02:43:09.519Z</time>
      </trkpt>
      <trkpt lat="46.72079" lon="-0.49065">
        <ele>190.01</ele>
        <time>2024-06-25T02:43:18.504Z</time>
      </trkpt>
      <trkpt lat="46.7208" lon="-0.4907">
        <ele>190.03</ele>
        <time>2024-06-25T02:43:27.490Z</time>
      </trkpt>
      <trkpt lat="46.72081" lon="-0.49074">
        <ele>190.04</ele>
        <time>2024-06-25T02:43:36.476Z</time>
      </trkpt>
      <trkpt lat="46.72083" lon="-0.49078">
        <ele>190.05</ele>
        <time>2024-06-25T02:43:45.463Z</time>
      </trkpt>
      <trkpt lat="46.72084" lon="-0.49083">
        <ele>190.06</ele>
        <time>2024-06-25T02:43:54.451Z</time>
      </trkpt>
      <trkpt lat="46.72086" lon="-0.49087">
        <ele>190.08</ele>
        <time>2024-06-25T02:44:03.439Z</time>
      </trkpt>
      <trkpt lat="46.72089" lon="-0.4909">
        <ele>190.08</ele>
        <time>2024-06-25T02:44:12.428Z</time>
      </trkpt>
      <trkpt lat="46.72092" lon="-0.49091">
        <ele>190.09</ele>
        <time>2024-06-25T02:44:21.418Z</time>
      </trkpt>
      <trkpt lat="46.72096" lon="-0.49089">
        <ele>190.09</ele>
        <time>2024-06-25T02:44:30.408Z</time>
      </trkpt>
      <trkpt lat="46.72098" lon="-0.49086">
        <ele>190.09</ele>
        <time>2024-06-25T02:44:39.399Z</time>
      </trkpt>
      <trkpt lat="46.721" lon="-0.49082">
        <ele>190.09</ele>
        <time>2024-06-25T02:44:48.391Z</time>
      </trkpt>
      <trkpt lat="46.72103" lon="-0.49078">
        <ele>190.09</ele>
        <time>2024-06-25T02:44:57.383Z</time>
      </trkpt>
      <trkpt lat="46.72105" lon="-0.49074">
        <ele>190.09</ele>
        <time>2024-06-25T02:45:06.376Z</time>
      </trkpt>
      <trkpt lat="46.72109" lon="-0.49069">
        <ele>190.1</ele>
        <time>2024-06-25T02:45:15.370Z</time>
      </trkpt>
      <trkpt lat="46.72112" lon="-0.49065">
        <ele>190.1</ele>
        <time>2024-06-25T02:45:24.365Z</time>
      </trkpt>
      <trkpt lat="46.72115" lon="-0.4906">
        <ele>190.1</ele>
        <time>2024-06-25T02:45:33.361Z</time>
      </trkpt>
      <trkpt lat="46.72119" lon="-0.49055">
        <ele>190.1</ele>
        <time>2024-06-25T02:45:42.358Z</time>
      </trkpt>
      <trkpt lat="46.72123" lon="-0.4905">
        <ele>190.1</ele>
        <time>2024-06-25T02:45:51.356Z</time>
      </trkpt>
      <trkpt lat="46.72127" lon="-0.49044">
        <ele>190.1</ele>
        <time>2024-06-25T02:46:00.355Z</time>
      </trkpt>
      <trkpt lat="46.72131" lon="-0.49039">
        <ele>190.1</ele>
        <time>2024-06-25T02:46:09.355Z</time>
      </trkpt>
      <trkpt lat="46.72135" lon="-0.49033">
        <ele>190.09</ele>
        <time>2024-06-25T02:46:18.356Z</time>
      </trkpt>
      <trkpt lat="46.7214" lon="-0.49028">
        <ele>190.09</ele>
        <time>2024-06-25T02:46:27.359Z</time>
      </trkpt>
      <trkpt lat="46.72144" lon="-0.49022">
        <ele>190.09</ele>
        <time>2024-06-25T02:46:36.363Z</time>
      </trkpt>
      <trkpt lat="46.72148" lon="-0.49017">
        <ele>190.09</ele>
        <time>2024-06-25T02:46:45.368Z</time>
      </trkpt>
      <trkpt lat="46.72152" lon="-0.49011">
        <ele>190.09</ele>
        <time>2024-06-25T02:46:54.374Z</time>
      </trkpt>
      <trkpt lat="46.72156" lon="-0.49005">
        <ele>190.08</ele>
        <time>2024-06-25T02:47:03.381Z</time>
      </trkpt>
      <trkpt lat="46.7216" lon="-0.48999">
        <ele>190.08</ele>
        <time>2024-06-25T02:47:12.389Z</time>
      </trkpt>
      <trkpt lat="46.72165" lon="-0.48993">
        <ele>190.08</ele>
        <time>2024-06-25T02:47:21.398Z</time>
      </trkpt>
      <trkpt lat="46.72169" lon="-0.48988">
        <ele>190.08</ele>
        <time>2024-06-25T02:47:30.409Z</time>
      </trkpt>
      <trkpt lat="46.72174" lon="-0.48983">
        <ele>190.08</ele>
        <time>2024-06-25T02:47:39.421Z</time>
      </trkpt>
      <trkpt lat="46.72178" lon="-0.48979">
        <ele>190.07</ele>
        <time>2024-06-25T02:47:48.434Z</time>
      </trkpt>
      <trkpt lat="46.72183" lon="-0.48975">
        <ele>190.07</ele>
        <time>2024-06-25T02:47:57.448Z</time>
      </trkpt>
      <trkpt lat="46.72188" lon="-0.48972">
        <ele>190.07</ele>
        <time>2024-06-25T02:48:06.463Z</time>
      </trkpt>
      <trkpt lat="46.72193" lon="-0.48968">
        <ele>190.07</ele>
        <time>2024-06-25T02:48:15.479Z</time>
      </trkpt>
      <trkpt lat="46.72198" lon="-0.48965">
        <ele>190.06</ele>
        <time>2024-06-25T02:48:24.496Z</time>
      </trkpt>
      <trkpt lat="46.72204" lon="-0.48962">
        <ele>190.07</ele>
        <time>2024-06-25T02:48:33.514Z</time>
      </trkpt>
      <trkpt lat="46.7221" lon="-0.48959">
        <ele>190.07</ele>
        <time>2024-06-25T02:48:42.534Z</time>
      </trkpt>
      <trkpt lat="46.72216" lon="-0.48957">
        <ele>190.08</ele>
        <time>2024-06-25T02:48:51.555Z</time>
      </trkpt>
      <trkpt lat="46.72222" lon="-0.48956">
        <ele>190.08</ele>
        <time>2024-06-25T02:49:00.577Z</time>
      </trkpt>
      <trkpt lat="46.72227" lon="-0.48954">
        <ele>190.09</ele>
        <time>2024-06-25T02:49:09.600Z</time>
      </trkpt>
      <trkpt lat="46.72233" lon="-0.48954">
        <ele>190.1</ele>
        <time>2024-06-25T02:49:18.624Z</time>
      </trkpt>
      <trkpt lat="46.72238" lon="-0.48954">
        <ele>190.12</ele>
        <time>2024-06-25T02:49:27.649Z</time>
      </trkpt>
      <trkpt lat="46.72244" lon="-0.48954">
        <ele>190.13</ele>
        <time>2024-06-25T02:49:36.676Z</time>
      </trkpt>
      <trkpt lat="46.7225" lon="-0.48954">
        <ele>190.15</ele>
        <time>2024-06-25T02:49:45.704Z</time>
      </trkpt>
      <trkpt lat="46.72255" lon="-0.48954">
        <ele>190.17</ele>
        <time>2024-06-25T02:49:54.733Z</time>
      </trkpt>
      <trkpt lat="46.7226" lon="-0.48954">
        <ele>190.18</ele>
        <time>2024-06-25T02:50:03.763Z</time>
      </trkpt>
      <trkpt lat="46.72266" lon="-0.48955">
        <ele>190.2</ele>
        <time>2024-06-25T02:50:12.794Z</time>
      </trkpt>
      <trkpt lat="46.72271" lon="-0.48955">
        <ele>190.22</ele>
        <time>2024-06-25T02:50:21.826Z</time>
      </trkpt>
      <trkpt lat="46.72277" lon="-0.48955">
        <ele>190.24</ele>
        <time>2024-06-25T02:50:30.859Z</time>
      </trkpt>
      <trkpt lat="46.72282" lon="-0.48956">
        <ele>190.26</ele>
        <time>2024-06-25T02:50:39.893Z</time>
      </trkpt>
      <trkpt lat="46.72288" lon="-0.48956">
        <ele>190.29</ele>
        <time>2024-06-25T02:50:48.928Z</time>
      </trkpt>
      <trkpt lat="46.72293" lon="-0.48957">
        <ele>190.31</ele>
        <time>2024-06-25T02:50:57.964Z</time>
      </trkpt>
      <trkpt lat="46.72298" lon="-0.48957">
        <ele>190.33</ele>
        <time>2024-06-25T02:51:07.001Z</time>
      </trkpt>
      <trkpt lat="46.72303" lon="-0.48957">
        <ele>190.35</ele>
        <time>2024-06-25T02:51:16.039Z</time>
      </trkpt>
      <trkpt lat="46.72309" lon="-0.48958">
        <ele>190.38</ele>
        <time>2024-06-25T02:51:25.079Z</time>
      </trkpt>
      <trkpt lat="46.72314" lon="-0.48959">
        <ele>190.4</ele>
        <time>2024-06-25T02:51:34.120Z</time>
      </trkpt>
      <trkpt lat="46.72318" lon="-0.4896">
        <ele>190.42</ele>
        <time>2024-06-25T02:51:43.161Z</time>
      </trkpt>
      <trkpt lat="46.72323" lon="-0.48961">
        <ele>190.45</ele>
        <time>2024-06-25T02:51:52.204Z</time>
      </trkpt>
      <trkpt lat="46.72329" lon="-0.48962">
        <ele>190.47</ele>
        <time>2024-06-25T02:52:01.248Z</time>
      </trkpt>
      <trkpt lat="46.72334" lon="-0.48963">
        <ele>190.49</ele>
        <time>2024-06-25T02:52:10.293Z</time>
      </trkpt>
      <trkpt lat="46.72339" lon="-0.48964">
        <ele>190.52</ele>
        <time>2024-06-25T02:52:19.339Z</time>
      </trkpt>
      <trkpt lat="46.72344" lon="-0.48965">
        <ele>190.54</ele>
        <time>2024-06-25T02:52:28.386Z</time>
      </trkpt>
      <trkpt lat="46.72349" lon="-0.48967">
        <ele>190.57</ele>
        <time>2024-06-25T02:52:37.434Z</time>
      </trkpt>
      <trkpt lat="46.72354" lon="-0.48968">
        <ele>190.6</ele>
        <time>2024-06-25T02:52:46.483Z</time>
      </trkpt>
      <trkpt lat="46.72358" lon="-0.48969">
        <ele>190.64</ele>
        <time>2024-06-25T02:52:55.533Z</time>
      </trkpt>
      <trkpt lat="46.72363" lon="-0.4897">
        <ele>190.67</ele>
        <time>2024-06-25T02:53:04.584Z</time>
      </trkpt>
      <trkpt lat="46.72368" lon="-0.48971">
        <ele>190.7</ele>
        <time>2024-06-25T02:53:13.636Z</time>
      </trkpt>
      <trkpt lat="46.72372" lon="-0.48972">
        <ele>190.73</ele>
        <time>2024-06-25T02:53:22.688Z</time>
      </trkpt>
      <trkpt lat="46.72378" lon="-0.48973">
        <ele>190.76</ele>
        <time>2024-06-25T02:53:31.741Z</time>
      </trkpt>
      <trkpt lat="46.72382" lon="-0.48974">
        <ele>190.79</ele>
        <time>2024-06-25T02:53:40.795Z</time>
      </trkpt>
      <trkpt lat="46.72387" lon="-0.48976">
        <ele>190.82</ele>
        <time>2024-06-25T02:53:49.850Z</time>
      </trkpt>
      <trkpt lat="46.72392" lon="-0.48977">
        <ele>190.85</ele>
        <time>2024-06-25T02:53:58.906Z</time>
      </trkpt>
      <trkpt lat="46.72397" lon="-0.48978">
        <ele>190.88</ele>
        <time>2024-06-25T02:54:07.963Z</time>
      </trkpt>
      <trkpt lat="46.72402" lon="-0.48978">
        <ele>190.92</ele>
        <time>2024-06-25T02:54:17.021Z</time>
      </trkpt>
      <trkpt lat="46.72406" lon="-0.4898">
        <ele>190.95</ele>
        <time>2024-06-25T02:54:26.080Z</time>
      </trkpt>
      <trkpt lat="46.72411" lon="-0.48981">
        <ele>190.99</ele>
        <time>2024-06-25T02:54:35.140Z</time>
      </trkpt>
      <trkpt lat="46.72416" lon="-0.48982">
        <ele>191.03</ele>
        <time>2024-06-25T02:54:44.201Z</time>
      </trkpt>
      <trkpt lat="46.72421" lon="-0.48983">
        <ele>191.07</ele>
        <time>2024-06-25T02:54:53.263Z</time>
      </trkpt>
      <trkpt lat="46.72427" lon="-0.48984">
        <ele>191.13</ele>
        <time>2024-06-25T02:55:02.326Z</time>
      </trkpt>
      <trkpt lat="46.72432" lon="-0.48986">
        <ele>191.18</ele>
        <time>2024-06-25T02:55:11.390Z</time>
      </trkpt>
      <trkpt lat="46.72437" lon="-0.48987">
        <ele>191.24</ele>
        <time>2024-06-25T02:55:20.456Z</time>
      </trkpt>
      <trkpt lat="46.72443" lon="-0.48988">
        <ele>191.29</ele>
        <time>2024-06-25T02:55:29.523Z</time>
      </trkpt>
      <trkpt lat="46.72448" lon="-0.4899">
        <ele>191.35</ele>
        <time>2024-06-25T02:55:38.591Z</time>
      </trkpt>
      <trkpt lat="46.72453" lon="-0.48991">
        <ele>191.41</ele>
        <time>2024-06-25T02:55:47.660Z</time>
      </trkpt>
      <trkpt lat="46.72459" lon="-0.48992">
        <ele>191.48</ele>
        <time>2024-06-25T02:55:56.730Z</time>
      </trkpt>
      <trkpt lat="46.72464" lon="-0.48993">
        <ele>191.55</ele>
        <time>2024-06-25T02:56:05.801Z</time>
      </trkpt>
      <trkpt lat="46.7247" lon="-0.48994">
        <ele>191.63</ele>
        <time>2024-06-25T02:56:14.873Z</time>
      </trkpt>
      <trkpt lat="46.72476" lon="-0.48996">
        <ele>191.7</ele>
        <time>2024-06-25T02:56:23.946Z</time>
      </trkpt>
      <trkpt lat="46.72481" lon="-0.48996">
        <ele>191.79</ele>
        <time>2024-06-25T02:56:33.020Z</time>
      </trkpt>
      <trkpt lat="46.72487" lon="-0.48997">
        <ele>191.87</ele>
        <time>2024-06-25T02:56:42.096Z</time>
      </trkpt>
      <trkpt lat="46.72492" lon="-0.48997">
        <ele>191.96</ele>
        <time>2024-06-25T02:56:51.173Z</time>
      </trkpt>
      <trkpt lat="46.72497" lon="-0.48997">
        <ele>192.05</ele>
        <time>2024-06-25T02:57:00.251Z</time>
      </trkpt>
      <trkpt lat="46.72502" lon="-0.48997">
        <ele>192.14</ele>
        <time>2024-06-25T02:57:09.330Z</time>
      </trkpt>
      <trkpt lat="46.72507" lon="-0.48997">
        <ele>192.24</ele>
        <time>2024-06-25T02:57:18.410Z</time>
      </trkpt>
      <trkpt lat="46.72513" lon="-0.48996">
        <ele>192.34</ele>
        <time>2024-06-25T02:57:27.491Z</time>
      </trkpt>
      <trkpt lat="46.72518" lon="-0.48995">
        <ele>192.43</ele>
        <time>2024-06-25T02:57:36.573Z</time>
      </trkpt>
      <trkpt lat="46.72523" lon="-0.48994">
        <ele>192.54</ele>
        <time>2024-06-25T02:57:45.656Z</time>
      </trkpt>
      <trkpt lat="46.72528" lon="-0.48994">
        <ele>192.64</ele>
        <time>2024-06-25T02:57:54.740Z</time>
      </trkpt>
      <trkpt lat="46.72533" lon="-0.48993">
        <ele>192.75</ele>
        <time>2024-06-25T02:58:03.825Z</time>
      </trkpt>
      <trkpt lat="46.72537" lon="-0.48992">
        <ele>192.86</ele>
        <time>2024-06-25T02:58:12.911Z</time>
      </trkpt>
      <trkpt lat="46.72542" lon="-0.48991">
        <ele>192.98</ele>
        <time>2024-06-25T02:58:21.998Z</time>
      </trkpt>
      <trkpt lat="46.72546" lon="-0.48991">
        <ele>193.1</ele>
        <time>2024-06-25T02:58:31.086Z</time>
      </trkpt>
      <trkpt lat="46.72551" lon="-0.4899">
        <ele>193.23</ele>
        <time>2024-06-25T02:58:40.175Z</time>
      </trkpt>
      <trkpt lat="46.72555" lon="-0.48989">
        <ele>193.36</ele>
        <time>2024-06-25T02:58:49.264Z</time>
      </trkpt>
      <trkpt lat="46.72559" lon="-0.48988">
        <ele>193.49</ele>
        <time>2024-06-25T02:58:58.354Z</time>
      </trkpt>
      <trkpt lat="46.72563" lon="-0.48987">
        <ele>193.62</ele>
        <time>2024-06-25T02:59:07.445Z</time>
      </trkpt>
      <trkpt lat="46.72567" lon="-0.48987">
        <ele>193.76</ele>
        <time>2024-06-25T02:59:16.537Z</time>
      </trkpt>
      <trkpt lat="46.72571" lon="-0.48986">
        <ele>193.9</ele>
        <time>2024-06-25T02:59:25.630Z</time>
      </trkpt>
      <trkpt lat="46.72575" lon="-0.48985">
        <ele>194.04</ele>
        <time>2024-06-25T02:59:34.723Z</time>
      </trkpt>
      <trkpt lat="46.72579" lon="-0.48984">
        <ele>194.19</ele>
        <time>2024-06-25T02:59:43.817Z</time>
      </trkpt>
      <trkpt lat="46.72583" lon="-0.48983">
        <ele>194.34</ele>
        <time>2024-06-25T02:59:52.912Z</time>
      </trkpt>
      <trkpt lat="46.72587" lon="-0.48983">
        <ele>194.49</ele>
        <time>2024-06-25T03:00:02.008Z</time>
      </trkpt>
      <trkpt lat="46.72591" lon="-0.48982">
        <ele>194.64</ele>
        <time>2024-06-25T03:00:11.105Z</time>
      </trkpt>
      <trkpt lat="46.72596" lon="-0.48982">
        <ele>194.8</ele>
        <time>2024-06-25T03:00:20.203Z</time>
      </trkpt>
      <trkpt lat="46.726" lon="-0.48981">
        <ele>194.96</ele>
        <time>2024-06-25T03:00:29.301Z</time>
      </trkpt>
      <trkpt lat="46.72604" lon="-0.48981">
        <ele>195.13</ele>
        <time>2024-06-25T03:00:38.400Z</time>
      </trkpt>
      <trkpt lat="46.72609" lon="-0.4898">
        <ele>195.29</ele>
        <time>2024-06-25T03:00:47.500Z</time>
      </trkpt>
      <trkpt lat="46.72614" lon="-0.48979">
        <ele>195.47</ele>
        <time>2024-06-25T03:00:56.601Z</time>
      </trkpt>
      <trkpt lat="46.72618" lon="-0.48979">
        <ele>195.64</ele>
        <time>2024-06-25T03:01:05.703Z</time>
      </trkpt>
      <trkpt lat="46.72623" lon="-0.48978">
        <ele>195.81</ele>
        <time>2024-06-25T03:01:14.806Z</time>
      </trkpt>
      <trkpt lat="46.72627" lon="-0.48978">
        <ele>195.98</ele>
        <time>2024-06-25T03:01:23.910Z</time>
      </trkpt>
      <trkpt lat="46.72632" lon="-0.48977">
        <ele>196.15</ele>
        <time>2024-06-25T03:01:33.015Z</time>
      </trkpt>
      <trkpt lat="46.72636" lon="-0.48977">
        <ele>196.32</ele>
        <time>2024-06-25T03:01:42.121Z</time>
      </trkpt>
      <trkpt lat="46.7264" lon="-0.48977">
        <ele>196.5</ele>
        <time>2024-06-25T03:01:51.228Z</time>
      </trkpt>
      <trkpt lat="46.72644" lon="-0.48979">
        <ele>196.68</ele>
        <time>2024-06-25T03:02:00.335Z</time>
      </trkpt>
      <trkpt lat="46.72648" lon="-0.48983">
        <ele>196.87</ele>
        <time>2024-06-25T03:02:09.443Z</time>
      </trkpt>
      <trkpt lat="46.72651" lon="-0.48989">
        <ele>197.05</ele>
        <time>2024-06-25T03:02:18.552Z</time>
      </trkpt>
      <trkpt lat="46.72654" lon="-0.48995">
        <ele>197.24</ele>
        <time>2024-06-25T03:02:27.662Z</time>
      </trkpt>
      <trkpt lat="46.72655" lon="-0.49001">
        <ele>197.42</ele>
        <time>2024-06-25T03:02:36.773Z</time>
      </trkpt>
      <trkpt lat="46.72657" lon="-0.49007">
        <ele>197.6</ele>
        <time>2024-06-25T03:02:45.885Z</time>
      </trkpt>
      <trkpt lat="46.72659" lon="-0.49013">
        <ele>197.79</ele>
        <time>2024-06-25T03:02:54.998Z</time>
      </trkpt>
      <trkpt lat="46.72661" lon="-0.49018">
        <ele>197.97</ele>
        <time>2024-06-25T03:03:04.112Z</time>
      </trkpt>
      <trkpt lat="46.72663" lon="-0.49024">
        <ele>198.16</ele>
        <time>2024-06-25T03:03:13.227Z</time>
      </trkpt>
      <trkpt lat="46.72666" lon="-0.49028">
        <ele>198.34</ele>
        <time>2024-06-25T03:03:22.343Z</time>
      </trkpt>
      <trkpt lat="46.72668" lon="-0.49033">
        <ele>198.52</ele>
        <time>2024-06-25T03:03:31.459Z</time>
      </trkpt>
      <trkpt lat="46.7267" lon="-0.49038">
        <ele>198.7</ele>
        <time>2024-06-25T03:03:40.576Z</time>
      </trkpt>
      <trkpt lat="46.72672" lon="-0.49043">
        <ele>198.88</ele>
        <time>2024-06-25T03:03:49.694Z</time>
      </trkpt>
      <trkpt lat="46.72674" lon="-0.49048">
        <ele>199.05</ele>
        <time>2024-06-25T03:03:58.813Z</time>
      </trkpt>
      <trkpt lat="46.72676" lon="-0.49052">
        <ele>199.23</ele>
        <time>2024-06-25T03:04:07.932Z</time>
      </trkpt>
      <trkpt lat="46.72678" lon="-0.49056">
        <ele>199.4</ele>
        <time>2024-06-25T03:04:17.052Z</time>
      </trkpt>
      <trkpt lat="46.72679" lon="-0.4906">
        <ele>199.57</ele>
        <time>2024-06-25T03:04:26.173Z</time>
      </trkpt>
      <trkpt lat="46.72681" lon="-0.49065">
        <ele>199.73</ele>
        <time>2024-06-25T03:04:35.294Z</time>
      </trkpt>
      <trkpt lat="46.72683" lon="-0.49068">
        <ele>199.89</ele>
        <time>2024-06-25T03:04:44.416Z</time>
      </trkpt>
      <trkpt lat="46.72685" lon="-0.49072">
        <ele>200.05</ele>
        <time>2024-06-25T03:04:53.539Z</time>
      </trkpt>
      <trkpt lat="46.72687" lon="-0.49076">
        <ele>200.21</ele>
        <time>2024-06-25T03:05:02.662Z</time>
      </trkpt>
      <trkpt lat="46.72689" lon="-0.4908">
        <ele>200.37</ele>
        <time>2024-06-25T03:05:11.786Z</time>
      </trkpt>
      <trkpt lat="46.72691" lon="-0.49084">
        <ele>200.53</ele>
        <time>2024-06-25T03:05:20.911Z</time>
      </trkpt>
      <trkpt lat="46.72693" lon="-0.49088">
        <ele>200.67</ele>
        <time>2024-06-25T03:05:30.036Z</time>
      </trkpt>
      <trkpt lat="46.72695" lon="-0.49091">
        <ele>200.81</ele>
        <time>2024-06-25T03:05:39.162Z</time>
      </trkpt>
      <trkpt lat="46.72697" lon="-0.49095">
        <ele>200.95</ele>
        <time>2024-06-25T03:05:48.289Z</time>
      </trkpt>
      <trkpt lat="46.72699" lon="-0.49099">
        <ele>201.09</ele>
        <time>2024-06-25T03:05:57.416Z</time>
      </trkpt>
      <trkpt lat="46.72701" lon="-0.49103">
        <ele>201.22</ele>
        <time>2024-06-25T03:06:06.544Z</time>
      </trkpt>
      <trkpt lat="46.72703" lon="-0.49106">
        <ele>201.34</ele>
        <time>2024-06-25T03:06:15.673Z</time>
      </trkpt>
      <trkpt lat="46.72705" lon="-0.4911">
        <ele>201.46</ele>
        <time>2024-06-25T03:06:24.802Z</time>
      </trkpt>
      <trkpt lat="46.72707" lon="-0.49114">
        <ele>201.57</ele>
        <time>2024-06-25T03:06:33.932Z</time>
      </trkpt>
      <trkpt lat="46.72709" lon="-0.49117">
        <ele>201.68</ele>
        <time>2024-06-25T03:06:43.062Z</time>
      </trkpt>
      <trkpt lat="46.72711" lon="-0.4912">
        <ele>201.78</ele>
        <time>2024-06-25T03:06:52.193Z</time>
      </trkpt>
      <trkpt lat="46.72713" lon="-0.49123">
        <ele>201.88</ele>
        <time>2024-06-25T03:07:01.325Z</time>
      </trkpt>
      <trkpt lat="46.72715" lon="-0.49127">
        <ele>201.97</ele>
        <time>2024-06-25T03:07:10.457Z</time>
      </trkpt>
      <trkpt lat="46.72717" lon="-0.4913">
        <ele>202.05</ele>
        <time>2024-06-25T03:07:19.590Z</time>
      </trkpt>
      <trkpt lat="46.72719" lon="-0.49133">
        <ele>202.13</ele>
        <time>2024-06-25T03:07:28.723Z</time>
      </trkpt>
      <trkpt lat="46.72721" lon="-0.49136">
        <ele>202.21</ele>
        <time>2024-06-25T03:07:37.857Z</time>
      </trkpt>
      <trkpt lat="46.72723" lon="-0.49139">
        <ele>202.28</ele>
        <time>2024-06-25T03:07:46.992Z</time>
      </trkpt>
      <trkpt lat="46.72725" lon="-0.49143">
        <ele>202.34</ele>
        <time>2024-06-25T03:07:56.127Z</time>
      </trkpt>
      <trkpt lat="46.72726" lon="-0.49146">
        <ele>202.4</ele>
        <time>2024-06-25T03:08:05.263Z</time>
      </trkpt>
      <trkpt lat="46.72728" lon="-0.4915">
        <ele>202.46</ele>
        <time>2024-06-25T03:08:14.399Z</time>
      </trkpt>
      <trkpt lat="46.72731" lon="-0.49154">
        <ele>202.51</ele>
        <time>2024-06-25T03:08:23.536Z</time>
      </trkpt>
      <trkpt lat="46.72733" lon="-0.49158">
        <ele>202.55</ele>
        <time>2024-06-25T03:08:32.674Z</time>
      </trkpt>
      <trkpt lat="46.72735" lon="-0.49162">
        <ele>202.59</ele>
        <time>2024-06-25T03:08:41.813Z</time>
      </trkpt>
      <trkpt lat="46.72737" lon="-0.49166">
        <ele>202.63</ele>
        <time>2024-06-25T03:08:50.952Z</time>
      </trkpt>
      <trkpt lat="46.72739" lon="-0.49171">
        <ele>202.66</ele>
        <time>2024-06-25T03:09:00.092Z</time>
      </trkpt>
      <trkpt lat="46.72741" lon="-0.49175">
        <ele>202.68</ele>
        <time>2024-06-25T03:09:09.233Z</time>
      </trkpt>
      <trkpt lat="46.72744" lon="-0.49179">
        <ele>202.71</ele>
        <time>2024-06-25T03:09:18.375Z</time>
      </trkpt>
      <trkpt lat="46.72746" lon="-0.49183">
        <ele>202.72</ele>
        <time>2024-06-25T03:09:27.517Z</time>
      </trkpt>
      <trkpt lat="46.72748" lon="-0.49187">
        <ele>202.74</ele>
        <time>2024-06-25T03:09:36.660Z</time>
      </trkpt>
      <trkpt lat="46.7275" lon="-0.49191">
        <ele>202.75</ele>
        <time>2024-06-25T03:09:45.804Z</time>
      </trkpt>
      <trkpt lat="46.72753" lon="-0.49195">
        <ele>202.75</ele>
        <time>2024-06-25T03:09:54.948Z</time>
      </trkpt>
      <trkpt lat="46.72756" lon="-0.49198">
        <ele>202.76</ele>
        <time>2024-06-25T03:10:04.093Z</time>
      </trkpt>
      <trkpt lat="46.72758" lon="-0.49202">
        <ele>202.75</ele>
        <time>2024-06-25T03:10:13.239Z</time>
      </trkpt>
      <trkpt lat="46.72761" lon="-0.49205">
        <ele>202.75</ele>
        <time>2024-06-25T03:10:22.386Z</time>
      </trkpt>
      <trkpt lat="46.72765" lon="-0.49209">
        <ele>202.74</ele>
        <time>2024-06-25T03:10:31.533Z</time>
      </trkpt>
      <trkpt lat="46.72768" lon="-0.49212">
        <ele>202.73</ele>
        <time>2024-06-25T03:10:40.681Z</time>
      </trkpt>
      <trkpt lat="46.72772" lon="-0.49215">
        <ele>202.71</ele>
        <time>2024-06-25T03:10:49.830Z</time>
      </trkpt>
      <trkpt lat="46.72775" lon="-0.49219">
        <ele>202.7</ele>
        <time>2024-06-25T03:10:58.980Z</time>
      </trkpt>
      <trkpt lat="46.72779" lon="-0.49222">
        <ele>202.68</ele>
        <time>2024-06-25T03:11:08.131Z</time>
      </trkpt>
      <trkpt lat="46.72782" lon="-0.49225">
        <ele>202.66</ele>
        <time>2024-06-25T03:11:17.283Z</time>
      </trkpt>
      <trkpt lat="46.72786" lon="-0.49228">
        <ele>202.63</ele>
        <time>2024-06-25T03:11:26.435Z</time>
      </trkpt>
      <trkpt lat="46.7279" lon="-0.49232">
        <ele>202.6</ele>
        <time>2024-06-25T03:11:35.588Z</time>
      </trkpt>
      <trkpt lat="46.72794" lon="-0.49235">
        <ele>202.57</ele>
        <time>2024-06-25T03:11:44.742Z</time>
      </trkpt>
      <trkpt lat="46.72798" lon="-0.49238">
        <ele>202.54</ele>
        <time>2024-06-25T03:11:53.897Z</time>
      </trkpt>
      <trkpt lat="46.72802" lon="-0.49241">
        <ele>202.5</ele>
        <time>2024-06-25T03:12:03.053Z</time>
      </trkpt>
      <trkpt lat="46.72806" lon="-0.49245">
        <ele>202.47</ele>
        <time>2024-06-25T03:12:12.210Z</time>
      </trkpt>
      <trkpt lat="46.7281" lon="-0.49248">
        <ele>202.43</ele>
        <time>2024-06-25T03:12:21.368Z</time>
      </trkpt>
      <trkpt lat="46.72814" lon="-0.49252">
        <ele>202.4</ele>
        <time>2024-06-25T03:12:30.527Z</time>
      </trkpt>
      <trkpt lat="46.72818" lon="-0.49256">
        <ele>202.36</ele>
        <time>2024-06-25T03:12:39.687Z</time>
      </trkpt>
      <trkpt lat="46.72822" lon="-0.4926">
        <ele>202.33</ele>
        <time>2024-06-25T03:12:48.848Z</time>
      </trkpt>
      <trkpt lat="46.72826" lon="-0.49264">
        <ele>202.29</ele>
        <time>2024-06-25T03:12:58.010Z</time>
      </trkpt>
      <trkpt lat="46.72829" lon="-0.49268">
        <ele>202.26</ele>
        <time>2024-06-25T03:13:07.173Z</time>
      </trkpt>
      <trkpt lat="46.72833" lon="-0.49273">
        <ele>202.24</ele>
        <time>2024-06-25T03:13:16.337Z</time>
      </trkpt>
      <trkpt lat="46.72837" lon="-0.49277">
        <ele>202.21</ele>
        <time>2024-06-25T03:13:25.502Z</time>
      </trkpt>
      <trkpt lat="46.7284" lon="-0.49282">
        <ele>202.19</ele>
        <time>2024-06-25T03:13:34.668Z</time>
      </trkpt>
      <trkpt lat="46.72844" lon="-0.49287">
        <ele>202.17</ele>
        <time>2024-06-25T03:13:43.835Z</time>
      </trkpt>
      <trkpt lat="46.72849" lon="-0.49292">
        <ele>202.15</ele>
        <time>2024-06-25T03:13:53.003Z</time>
      </trkpt>
      <trkpt lat="46.72852" lon="-0.49298">
        <ele>202.14</ele>
        <time>2024-06-25T03:14:02.172Z</time>
      </trkpt>
      <trkpt lat="46.72856" lon="-0.49303">
        <ele>202.11</ele>
        <time>2024-06-25T03:14:11.342Z</time>
      </trkpt>
      <trkpt lat="46.7286" lon="-0.49307">
        <ele>202.1</ele>
        <time>2024-06-25T03:14:20.513Z</time>
      </trkpt>
      <trkpt lat="46.72864" lon="-0.49312">
        <ele>202.08</ele>
        <time>2024-06-25T03:14:29.685Z</time>
      </trkpt>
      <trkpt lat="46.72868" lon="-0.49317">
        <ele>202.07</ele>
        <time>2024-06-25T03:14:38.858Z</time>
      </trkpt>
      <trkpt lat="46.72871" lon="-0.49322">
        <ele>202.07</ele>
        <time>2024-06-25T03:14:48.032Z</time>
      </trkpt>
      <trkpt lat="46.72875" lon="-0.49326">
        <ele>202.06</ele>
        <time>2024-06-25T03:14:57.207Z</time>
      </trkpt>
      <trkpt lat="46.72878" lon="-0.49331">
        <ele>202.05</ele>
        <time>2024-06-25T03:15:06.383Z</time>
      </trkpt>
      <trkpt lat="46.72882" lon="-0.49336">
        <ele>202.04</ele>
        <time>2024-06-25T03:15:15.560Z</time>
      </trkpt>
      <trkpt lat="46.72885" lon="-0.49341">
        <ele>202.03</ele>
        <time>2024-06-25T03:15:24.738Z</time>
      </trkpt>
      <trkpt lat="46.72889" lon="-0.49346">
        <ele>202.02</ele>
        <time>2024-06-25T03:15:33.917Z</time>
      </trkpt>
      <trkpt lat="46.72892" lon="-0.49351">
        <ele>202.02</ele>
        <time>2024-06-25T03:15:43.097Z</time>
      </trkpt>
      <trkpt lat="46.72897" lon="-0.49356">
        <ele>202.02</ele>
        <time>2024-06-25T03:15:52.278Z</time>
      </trkpt>
      <trkpt lat="46.729" lon="-0.49361">
        <ele>202.03</ele>
        <time>2024-06-25T03:16:01.460Z</time>
      </trkpt>
      <trkpt lat="46.72904" lon="-0.49366">
        <ele>202.03</ele>
        <time>2024-06-25T03:16:10.643Z</time>
      </trkpt>
      <trkpt lat="46.72908" lon="-0.49371">
        <ele>202.04</ele>
        <time>2024-06-25T03:16:19.827Z</time>
      </trkpt>
      <trkpt lat="46.72911" lon="-0.49375">
        <ele>202.05</ele>
        <time>2024-06-25T03:16:29.012Z</time>
      </trkpt>
      <trkpt lat="46.72915" lon="-0.4938">
        <ele>202.06</ele>
        <time>2024-06-25T03:16:38.198Z</time>
      </trkpt>
      <trkpt lat="46.72918" lon="-0.49385">
        <ele>202.07</ele>
        <time>2024-06-25T03:16:47.385Z</time>
      </trkpt>
      <trkpt lat="46.72921" lon="-0.4939">
        <ele>202.08</ele>
        <time>2024-06-25T03:16:56.573Z</time>
      </trkpt>
      <trkpt lat="46.72923" lon="-0.49396">
        <ele>202.1</ele>
        <time>2024-06-25T03:17:05.762Z</time>
      </trkpt>
      <trkpt lat="46.72926" lon="-0.49401">
        <ele>202.12</ele>
        <time>2024-06-25T03:17:14.951Z</time>
      </trkpt>
      <trkpt lat="46.72929" lon="-0.49406">
        <ele>202.13</ele>
        <time>2024-06-25T03:17:24.141Z</time>
      </trkpt>
      <trkpt lat="46.72932" lon="-0.49411">
        <ele>202.15</ele>
        <time>2024-06-25T03:17:33.332Z</time>
      </trkpt>
      <trkpt lat="46.72935" lon="-0.49416">
        <ele>202.17</ele>
        <time>2024-06-25T03:17:42.524Z</time>
      </trkpt>
      <trkpt lat="46.72937" lon="-0.49422">
        <ele>202.19</ele>
        <time>2024-06-25T03:17:51.717Z</time>
      </trkpt>
      <trkpt lat="46.7294" lon="-0.49427">
        <ele>202.21</ele>
        <time>2024-06-25T03:18:00.911Z</time>
      </trkpt>
      <trkpt lat="46.72942" lon="-0.49432">
        <ele>202.23</ele>
        <time>2024-06-25T03:18:10.106Z</time>
      </trkpt>
      <trkpt lat="46.72944" lon="-0.49437">
        <ele>202.26</ele>
        <time>2024-06-25T03:18:19.302Z</time>
      </trkpt>
      <trkpt lat="46.72946" lon="-0.49443">
        <ele>202.28</ele>
        <time>2024-06-25T03:18:28.498Z</time>
      </trkpt>
      <trkpt lat="46.72948" lon="-0.49448">
        <ele>202.3</ele>
        <time>2024-06-25T03:18:37.695Z</time>
      </trkpt>
      <trkpt lat="46.7295" lon="-0.49454">
        <ele>202.34</ele>
        <time>2024-06-25T03:18:46.893Z</time>
      </trkpt>
      <trkpt lat="46.72953" lon="-0.49459">
        <ele>202.37</ele>
        <time>2024-06-25T03:18:56.092Z</time>
      </trkpt>
      <trkpt lat="46.72955" lon="-0.49464">
        <ele>202.4</ele>
        <time>2024-06-25T03:19:05.292Z</time>
      </trkpt>
      <trkpt lat="46.72957" lon="-0.4947">
        <ele>202.43</ele>
        <time>2024-06-25T03:19:14.493Z</time>
      </trkpt>
      <trkpt lat="46.7296" lon="-0.49475">
        <ele>202.47</ele>
        <time>2024-06-25T03:19:23.695Z</time>
      </trkpt>
      <trkpt lat="46.72962" lon="-0.4948">
        <ele>202.5</ele>
        <time>2024-06-25T03:19:32.897Z</time>
      </trkpt>
      <trkpt lat="46.72965" lon="-0.49485">
        <ele>202.54</ele>
        <time>2024-06-25T03:19:42.100Z</time>
      </trkpt>
      <trkpt lat="46.72967" lon="-0.49489">
        <ele>202.57</ele>
        <time>2024-06-25T03:19:51.304Z</time>
      </trkpt>
      <trkpt lat="46.72969" lon="-0.49494">
        <ele>202.6</ele>
        <time>2024-06-25T03:20:00.509Z</time>
      </trkpt>
      <trkpt lat="46.72971" lon="-0.49499">
        <ele>202.63</ele>
        <time>2024-06-25T03:20:09.715Z</time>
      </trkpt>
      <trkpt lat="46.72974" lon="-0.49504">
        <ele>202.66</ele>
        <time>2024-06-25T03:20:18.922Z</time>
      </trkpt>
      <trkpt lat="46.72977" lon="-0.4951">
        <ele>202.69</ele>
        <time>2024-06-25T03:20:28.130Z</time>
      </trkpt>
      <trkpt lat="46.7298" lon="-0.49516">
        <ele>202.72</ele>
        <time>2024-06-25T03:20:37.339Z</time>
      </trkpt>
      <trkpt lat="46.72983" lon="-0.49522">
        <ele>202.75</ele>
        <time>2024-06-25T03:20:46.549Z</time>
      </trkpt>
      <trkpt lat="46.72986" lon="-0.49528">
        <ele>202.77</ele>
        <time>2024-06-25T03:20:55.760Z</time>
      </trkpt>
      <trkpt lat="46.72988" lon="-0.49533">
        <ele>202.79</ele>
        <time>2024-06-25T03:21:04.972Z</time>
      </trkpt>
      <trkpt lat="46.72991" lon="-0.49539">
        <ele>202.81</ele>
        <time>2024-06-25T03:21:14.185Z</time>
      </trkpt>
      <trkpt lat="46.72995" lon="-0.49546">
        <ele>202.82</ele>
        <time>2024-06-25T03:21:23.399Z</time>
      </trkpt>
      <trkpt lat="46.72998" lon="-0.49552">
        <ele>202.84</ele>
        <time>2024-06-25T03:21:32.614Z</time>
      </trkpt>
      <trkpt lat="46.73002" lon="-0.49558">
        <ele>202.85</ele>
        <time>2024-06-25T03:21:41.830Z</time>
      </trkpt>
      <trkpt lat="46.73006" lon="-0.49565">
        <ele>202.87</ele>
        <time>2024-06-25T03:21:51.047Z</time>
      </trkpt>
      <trkpt lat="46.7301" lon="-0.4957">
        <ele>202.89</ele>
        <time>2024-06-25T03:22:00.265Z</time>
      </trkpt>
      <trkpt lat="46.73014" lon="-0.49575">
        <ele>202.91</ele>
        <time>2024-06-25T03:22:09.484Z</time>
      </trkpt>
      <trkpt lat="46.73018" lon="-0.4958">
        <ele>202.93</ele>
        <time>2024-06-25T03:22:18.704Z</time>
      </trkpt>
      <trkpt lat="46.73023" lon="-0.49584">
        <ele>202.95</ele>
        <time>2024-06-25T03:22:27.925Z</time>
      </trkpt>
      <trkpt lat="46.73027" lon="-0.49588">
        <ele>202.96</ele>
        <time>2024-06-25T03:22:37.147Z</time>
      </trkpt>
      <trkpt lat="46.73032" lon="-0.49591">
        <ele>202.98</ele>
        <time>2024-06-25T03:22:46.370Z</time>
      </trkpt>
      <trkpt lat="46.73036" lon="-0.49595">
        <ele>203</ele>
        <time>2024-06-25T03:22:55.594Z</time>
      </trkpt>
      <trkpt lat="46.7304" lon="-0.49599">
        <ele>203.01</ele>
        <time>2024-06-25T03:23:04.820Z</time>
      </trkpt>
      <trkpt lat="46.73045" lon="-0.49604">
        <ele>203.02</ele>
        <time>2024-06-25T03:23:14.047Z</time>
      </trkpt>
      <trkpt lat="46.73049" lon="-0.49608">
        <ele>203.04</ele>
        <time>2024-06-25T03:23:23.275Z</time>
      </trkpt>
      <trkpt lat="46.73053" lon="-0.49613">
        <ele>203.05</ele>
        <time>2024-06-25T03:23:32.504Z</time>
      </trkpt>
      <trkpt lat="46.73058" lon="-0.49618">
        <ele>203.06</ele>
        <time>2024-06-25T03:23:41.734Z</time>
      </trkpt>
      <trkpt lat="46.73062" lon="-0.49623">
        <ele>203.07</ele>
        <time>2024-06-25T03:23:50.965Z</time>
      </trkpt>
      <trkpt lat="46.73067" lon="-0.49629">
        <ele>203.09</ele>
        <time>2024-06-25T03:24:00.197Z</time>
      </trkpt>
      <trkpt lat="46.73072" lon="-0.49635">
        <ele>203.1</ele>
        <time>2024-06-25T03:24:09.430Z</time>
      </trkpt>
      <trkpt lat="46.73076" lon="-0.49641">
        <ele>203.12</ele>
        <time>2024-06-25T03:24:18.665Z</time>
      </trkpt>
      <trkpt lat="46.7308" lon="-0.49648">
        <ele>203.13</ele>
        <time>2024-06-25T03:24:27.901Z</time>
      </trkpt>
      <trkpt lat="46.73084" lon="-0.49654">
        <ele>203.15</ele>
        <time>2024-06-25T03:24:37.138Z</time>
      </trkpt>
      <trkpt lat="46.73089" lon="-0.4966">
        <ele>203.18</ele>
        <time>2024-06-25T03:24:46.376Z</time>
      </trkpt>
      <trkpt lat="46.73093" lon="-0.49667">
        <ele>203.2</ele>
        <time>2024-06-25T03:24:55.616Z</time>
      </trkpt>
      <trkpt lat="46.73097" lon="-0.49673">
        <ele>203.23</ele>
        <time>2024-06-25T03:25:04.857Z</time>
      </trkpt>
      <trkpt lat="46.731" lon="-0.4968">
        <ele>203.26</ele>
        <time>2024-06-25T03:25:14.099Z</time>
      </trkpt>
      <trkpt lat="46.73103" lon="-0.49687">
        <ele>203.3</ele>
        <time>2024-06-25T03:25:23.342Z</time>
      </trkpt>
      <trkpt lat="46.73105" lon="-0.49694">
        <ele>203.34</ele>
        <time>2024-06-25T03:25:32.586Z</time>
      </trkpt>
      <trkpt lat="46.73107" lon="-0.49701">
        <ele>203.38</ele>
        <time>2024-06-25T03:25:41.831Z</time>
      </trkpt>
      <trkpt lat="46.7311" lon="-0.49708">
        <ele>203.43</ele>
        <time>2024-06-25T03:25:51.077Z</time>
      </trkpt>
      <trkpt lat="46.73112" lon="-0.49714">
        <ele>203.47</ele>
        <time>2024-06-25T03:26:00.324Z</time>
      </trkpt>
      <trkpt lat="46.73115" lon="-0.49721">
        <ele>203.53</ele>
        <time>2024-06-25T03:26:09.572Z</time>
      </trkpt>
      <trkpt lat="46.73118" lon="-0.49728">
        <ele>203.59</ele>
        <time>2024-06-25T03:26:18.821Z</time>
      </trkpt>
      <trkpt lat="46.7312" lon="-0.49735">
        <ele>203.66</ele>
        <time>2024-06-25T03:26:28.071Z</time>
      </trkpt>
      <trkpt lat="46.73123" lon="-0.49741">
        <ele>203.73</ele>
        <time>2024-06-25T03:26:37.323Z</time>
      </trkpt>
      <trkpt lat="46.73126" lon="-0.49748">
        <ele>203.8</ele>
        <time>2024-06-25T03:26:46.576Z</time>
      </trkpt>
      <trkpt lat="46.73129" lon="-0.49754">
        <ele>203.89</ele>
        <time>2024-06-25T03:26:55.830Z</time>
      </trkpt>
      <trkpt lat="46.73133" lon="-0.4976">
        <ele>203.98</ele>
        <time>2024-06-25T03:27:05.085Z</time>
      </trkpt>
      <trkpt lat="46.73137" lon="-0.49765">
        <ele>204.07</ele>
        <time>2024-06-25T03:27:14.341Z</time>
      </trkpt>
      <trkpt lat="46.73141" lon="-0.49769">
        <ele>204.17</ele>
        <time>2024-06-25T03:27:23.598Z</time>
      </trkpt>
      <trkpt lat="46.73146" lon="-0.49773">
        <ele>204.27</ele>
        <time>2024-06-25T03:27:32.856Z</time>
      </trkpt>
      <trkpt lat="46.7315" lon="-0.49776">
        <ele>204.37</ele>
        <time>2024-06-25T03:27:42.115Z</time>
      </trkpt>
      <trkpt lat="46.73154" lon="-0.49778">
        <ele>204.48</ele>
        <time>2024-06-25T03:27:51.375Z</time>
      </trkpt>
      <trkpt lat="46.73159" lon="-0.49779">
        <ele>204.58</ele>
        <time>2024-06-25T03:28:00.636Z</time>
      </trkpt>
      <trkpt lat="46.73163" lon="-0.4978">
        <ele>204.7</ele>
        <time>2024-06-25T03:28:09.898Z</time>
      </trkpt>
      <trkpt lat="46.73168" lon="-0.49782">
        <ele>204.81</ele>
        <time>2024-06-25T03:28:19.161Z</time>
      </trkpt>
      <trkpt lat="46.73172" lon="-0.49784">
        <ele>204.93</ele>
        <time>2024-06-25T03:28:28.424Z</time>
      </trkpt>
      <trkpt lat="46.73176" lon="-0.49786">
        <ele>205.05</ele>
        <time>2024-06-25T03:28:37.688Z</time>
      </trkpt>
      <trkpt lat="46.73181" lon="-0.49787">
        <ele>205.17</ele>
        <time>2024-06-25T03:28:46.953Z</time>
      </trkpt>
      <trkpt lat="46.73185" lon="-0.49789">
        <ele>205.3</ele>
        <time>2024-06-25T03:28:56.219Z</time>
      </trkpt>
      <trkpt lat="46.7319" lon="-0.49791">
        <ele>205.44</ele>
        <time>2024-06-25T03:29:05.486Z</time>
      </trkpt>
      <trkpt lat="46.73194" lon="-0.49794">
        <ele>205.57</ele>
        <time>2024-06-25T03:29:14.754Z</time>
      </trkpt>
      <trkpt lat="46.73198" lon="-0.49796">
        <ele>205.71</ele>
        <time>2024-06-25T03:29:24.023Z</time>
      </trkpt>
      <trkpt lat="46.73203" lon="-0.49798">
        <ele>205.86</ele>
        <time>2024-06-25T03:29:33.293Z</time>
      </trkpt>
      <trkpt lat="46.73207" lon="-0.49799">
        <ele>206</ele>
        <time>2024-06-25T03:29:42.564Z</time>
      </trkpt>
      <trkpt lat="46.7321" lon="-0.498">
        <ele>206.15</ele>
        <time>2024-06-25T03:29:51.835Z</time>
      </trkpt>
      <trkpt lat="46.73214" lon="-0.49802">
        <ele>206.31</ele>
        <time>2024-06-25T03:30:01.107Z</time>
      </trkpt>
      <trkpt lat="46.73217" lon="-0.49805">
        <ele>206.46</ele>
        <time>2024-06-25T03:30:10.380Z</time>
      </trkpt>
      <trkpt lat="46.7322" lon="-0.49809">
        <ele>206.62</ele>
        <time>2024-06-25T03:30:19.654Z</time>
      </trkpt>
      <trkpt lat="46.73224" lon="-0.49812">
        <ele>206.78</ele>
        <time>2024-06-25T03:30:28.929Z</time>
      </trkpt>
      <trkpt lat="46.73227" lon="-0.49816">
        <ele>206.95</ele>
        <time>2024-06-25T03:30:38.204Z</time>
      </trkpt>
      <trkpt lat="46.73231" lon="-0.4982">
        <ele>207.12</ele>
        <time>2024-06-25T03:30:47.480Z</time>
      </trkpt>
      <trkpt lat="46.73234" lon="-0.49823">
        <ele>207.28</ele>
        <time>2024-06-25T03:30:56.757Z</time>
      </trkpt>
      <trkpt lat="46.73237" lon="-0.49827">
        <ele>207.46</ele>
        <time>2024-06-25T03:31:06.035Z</time>
      </trkpt>
      <trkpt lat="46.7324" lon="-0.4983">
        <ele>207.63</ele>
        <time>2024-06-25T03:31:15.314Z</time>
      </trkpt>
      <trkpt lat="46.73243" lon="-0.49834">
        <ele>207.81</ele>
        <time>2024-06-25T03:31:24.593Z</time>
      </trkpt>
      <trkpt lat="46.73246" lon="-0.49837">
        <ele>207.98</ele>
        <time>2024-06-25T03:31:33.873Z</time>
      </trkpt>
      <trkpt lat="46.73248" lon="-0.4984">
        <ele>208.16</ele>
        <time>2024-06-25T03:31:43.154Z</time>
      </trkpt>
      <trkpt lat="46.7325" lon="-0.49843">
        <ele>208.35</ele>
        <time>2024-06-25T03:31:52.435Z</time>
      </trkpt>
      <trkpt lat="46.73253" lon="-0.49846">
        <ele>208.54</ele>
        <time>2024-06-25T03:32:01.717Z</time>
      </trkpt>
      <trkpt lat="46.73255" lon="-0.49849">
        <ele>208.73</ele>
        <time>2024-06-25T03:32:11.000Z</time>
      </trkpt>
      <trkpt lat="46.73257" lon="-0.49852">
        <ele>208.92</ele>
        <time>2024-06-25T03:32:20.283Z</time>
      </trkpt>
      <trkpt lat="46.7326" lon="-0.49854">
        <ele>209.12</ele>
        <time>2024-06-25T03:32:29.567Z</time>
      </trkpt>
      <trkpt lat="46.73262" lon="-0.49857">
        <ele>209.32</ele>
        <time>2024-06-25T03:32:38.851Z</time>
      </trkpt>
      <trkpt lat="46.73265" lon="-0.49859">
        <ele>209.52</ele>
        <time>2024-06-25T03:32:48.136Z</time>
      </trkpt>
      <trkpt lat="46.73267" lon="-0.49862">
        <ele>209.73</ele>
        <time>2024-06-25T03:32:57.422Z</time>
      </trkpt>
      <trkpt lat="46.7327" lon="-0.49865">
        <ele>209.94</ele>
        <time>2024-06-25T03:33:06.708Z</time>
      </trkpt>
      <trkpt lat="46.73272" lon="-0.49867">
        <ele>210.14</ele>
        <time>2024-06-25T03:33:15.995Z</time>
      </trkpt>
      <trkpt lat="46.73275" lon="-0.4987">
        <ele>210.36</ele>
        <time>2024-06-25T03:33:25.283Z</time>
      </trkpt>
      <trkpt lat="46.73277" lon="-0.49873">
        <ele>210.57</ele>
        <time>2024-06-25T03:33:34.571Z</time>
      </trkpt>
      <trkpt lat="46.73279" lon="-0.49875">
        <ele>210.78</ele>
        <time>2024-06-25T03:33:43.860Z</time>
      </trkpt>
      <trkpt lat="46.73281" lon="-0.49878">
        <ele>210.99</ele>
        <time>2024-06-25T03:33:53.149Z</time>
      </trkpt>
      <trkpt lat="46.73283" lon="-0.49881">
        <ele>211.2</ele>
        <time>2024-06-25T03:34:02.439Z</time>
      </trkpt>
      <trkpt lat="46.73285" lon="-0.49883">
        <ele>211.41</ele>
        <time>2024-06-25T03:34:11.729Z</time>
      </trkpt>
      <trkpt lat="46.73287" lon="-0.49885">
        <ele>211.63</ele>
        <time>2024-06-25T03:34:21.020Z</time>
      </trkpt>
      <trkpt lat="46.7329" lon="-0.49888">
        <ele>211.84</ele>
        <time>2024-06-25T03:34:30.311Z</time>
      </trkpt>
      <trkpt lat="46.73292" lon="-0.49891">
        <ele>212.05</ele>
        <time>2024-06-25T03:34:39.603Z</time>
      </trkpt>
      <trkpt lat="46.73294" lon="-0.49894">
        <ele>212.27</ele>
        <time>2024-06-25T03:34:48.896Z</time>
      </trkpt>
      <trkpt lat="46.73296" lon="-0.49897">
        <ele>212.48</ele>
        <time>2024-06-25T03:34:58.189Z</time>
      </trkpt>
      <trkpt lat="46.73298" lon="-0.499">
        <ele>212.69</ele>
        <time>2024-06-25T03:35:07.483Z</time>
      </trkpt>
      <trkpt lat="46.733" lon="-0.49904">
        <ele>212.9</ele>
        <time>2024-06-25T03:35:16.777Z</time>
      </trkpt>
      <trkpt lat="46.73302" lon="-0.49907">
        <ele>213.11</ele>
        <time>2024-06-25T03:35:26.072Z</time>
      </trkpt>
      <trkpt lat="46.73304" lon="-0.4991">
        <ele>213.31</ele>
        <time>2024-06-25T03:35:35.368Z</time>
      </trkpt>
      <trkpt lat="46.73305" lon="-0.49913">
        <ele>213.52</ele>
        <time>2024-06-25T03:35:44.664Z</time>
      </trkpt>
      <trkpt lat="46.73307" lon="-0.49916">
        <ele>213.72</ele>
        <time>2024-06-25T03:35:53.961Z</time>
      </trkpt>
      <trkpt lat="46.73308" lon="-0.49919">
        <ele>213.92</ele>
        <time>2024-06-25T03:36:03.258Z</time>
      </trkpt>
      <trkpt lat="46.73309" lon="-0.49922">
        <ele>214.12</ele>
        <time>2024-06-25T03:36:12.556Z</time>
      </trkpt>
      <trkpt lat="46.73311" lon="-0.49925">
        <ele>214.31</ele>
        <time>2024-06-25T03:36:21.854Z</time>
      </trkpt>
      <trkpt lat="46.73312" lon="-0.49928">
        <ele>214.51</ele>
        <time>2024-06-25T03:36:31.152Z</time>
      </trkpt>
      <trkpt lat="46.73314" lon="-0.49931">
        <ele>214.7</ele>
        <time>2024-06-25T03:36:40.451Z</time>
      </trkpt>
      <trkpt lat="46.73315" lon="-0.49934">
        <ele>214.89</ele>
        <time>2024-06-25T03:36:49.751Z</time>
      </trkpt>
      <trkpt lat="46.73317" lon="-0.49937">
        <ele>215.07</ele>
        <time>2024-06-25T03:36:59.051Z</time>
      </trkpt>
      <trkpt lat="46.73318" lon="-0.4994">
        <ele>215.25</ele>
        <time>2024-06-25T03:37:08.352Z</time>
      </trkpt>
      <trkpt lat="46.73319" lon="-0.49943">
        <ele>215.43</ele>
        <time>2024-06-25T03:37:17.653Z</time>
      </trkpt>
      <trkpt lat="46.7332" lon="-0.49946">
        <ele>215.6</ele>
        <time>2024-06-25T03:37:26.954Z</time>
      </trkpt>
      <trkpt lat="46.73321" lon="-0.4995">
        <ele>215.77</ele>
        <time>2024-06-25T03:37:36.256Z</time>
      </trkpt>
      <trkpt lat="46.73322" lon="-0.49953">
        <ele>215.93</ele>
        <time>2024-06-25T03:37:45.559Z</time>
      </trkpt>
      <trkpt lat="46.73323" lon="-0.49956">
        <ele>216.09</ele>
        <time>2024-06-25T03:37:54.862Z</time>
      </trkpt>
      <trkpt lat="46.73325" lon="-0.49959">
        <ele>216.24</ele>
        <time>2024-06-25T03:38:04.166Z</time>
      </trkpt>
      <trkpt lat="46.73326" lon="-0.49963">
        <ele>216.39</ele>
        <time>2024-06-25T03:38:13.470Z</time>
      </trkpt>
      <trkpt lat="46.73327" lon="-0.49967">
        <ele>216.54</ele>
        <time>2024-06-25T03:38:22.775Z</time>
      </trkpt>
      <trkpt lat="46.73329" lon="-0.4997">
        <ele>216.68</ele>
        <time>2024-06-25T03:38:32.080Z</time>
      </trkpt>
      <trkpt lat="46.7333" lon="-0.49974">
        <ele>216.82</ele>
        <time>2024-06-25T03:38:41.386Z</time>
      </trkpt>
      <trkpt lat="46.73331" lon="-0.49978">
        <ele>216.95</ele>
        <time>2024-06-25T03:38:50.692Z</time>
      </trkpt>
      <trkpt lat="46.73331" lon="-0.49982">
        <ele>217.07</ele>
        <time>2024-06-25T03:38:59.999Z</time>
      </trkpt>
      <trkpt lat="46.73332" lon="-0.49987">
        <ele>217.19</ele>
        <time>2024-06-25T03:39:09.307Z</time>
      </trkpt>
      <trkpt lat="46.73333" lon="-0.49991">
        <ele>217.31</ele>
        <time>2024-06-25T03:39:18.615Z</time>
      </trkpt>
      <trkpt lat="46.73333" lon="-0.49995">
        <ele>217.42</ele>
        <time>2024-06-25T03:39:27.924Z</time>
      </trkpt>
      <trkpt lat="46.73334" lon="-0.49999">
        <ele>217.53</ele>
        <time>2024-06-25T03:39:37.233Z</time>
      </trkpt>
      <trkpt lat="46.73336" lon="-0.50004">
        <ele>217.64</ele>
        <time>2024-06-25T03:39:46.543Z</time>
      </trkpt>
      <trkpt lat="46.73337" lon="-0.50008">
        <ele>217.74</ele>
        <time>2024-06-25T03:39:55.854Z</time>
      </trkpt>
      <trkpt lat="46.73339" lon="-0.50012">
        <ele>217.84</ele>
        <time>2024-06-25T03:40:05.165Z</time>
      </trkpt>
      <trkpt lat="46.73342" lon="-0.50015">
        <ele>217.93</ele>
        <time>2024-06-25T03:40:14.477Z</time>
      </trkpt>
      <trkpt lat="46.73344" lon="-0.50018">
        <ele>218.02</ele>
        <time>2024-06-25T03:40:23.790Z</time>
      </trkpt>
      <trkpt lat="46.73347" lon="-0.50021">
        <ele>218.1</ele>
        <time>2024-06-25T03:40:33.103Z</time>
      </trkpt>
      <trkpt lat="46.73351" lon="-0.50022">
        <ele>218.19</ele>
        <time>2024-06-25T03:40:42.417Z</time>
      </trkpt>
      <trkpt lat="46.73354" lon="-0.50024">
        <ele>218.26</ele>
        <time>2024-06-25T03:40:51.732Z</time>
      </trkpt>
      <trkpt lat="46.73357" lon="-0.50025">
        <ele>218.34</ele>
        <time>2024-06-25T03:41:01.048Z</time>
      </trkpt>
      <trkpt lat="46.73361" lon="-0.50026">
        <ele>218.41</ele>
        <time>2024-06-25T03:41:10.364Z</time>
      </trkpt>
      <trkpt lat="46.73364" lon="-0.50028">
        <ele>218.48</ele>
        <time>2024-06-25T03:41:19.681Z</time>
      </trkpt>
      <trkpt lat="46.73367" lon="-0.50029">
        <ele>218.54</ele>
        <time>2024-06-25T03:41:28.999Z</time>
      </trkpt>
      <trkpt lat="46.7337" lon="-0.50031">
        <ele>218.61</ele>
        <time>2024-06-25T03:41:38.317Z</time>
      </trkpt>
      <trkpt lat="46.73374" lon="-0.50033">
        <ele>218.67</ele>
        <time>2024-06-25T03:41:47.636Z</time>
      </trkpt>
      <trkpt lat="46.73377" lon="-0.50034">
        <ele>218.73</ele>
        <time>2024-06-25T03:41:56.956Z</time>
      </trkpt>
      <trkpt lat="46.7338" lon="-0.50036">
        <ele>218.79</ele>
        <time>2024-06-25T03:42:06.276Z</time>
      </trkpt>
      <trkpt lat="46.73383" lon="-0.50037">
        <ele>218.85</ele>
        <time>2024-06-25T03:42:15.597Z</time>
      </trkpt>
      <trkpt lat="46.73386" lon="-0.50038">
        <ele>218.9</ele>
        <time>2024-06-25T03:42:24.918Z</time>
      </trkpt>
      <trkpt lat="46.73389" lon="-0.50039">
        <ele>218.95</ele>
        <time>2024-06-25T03:42:34.240Z</time>
      </trkpt>
      <trkpt lat="46.73392" lon="-0.5004">
        <ele>218.99</ele>
        <time>2024-06-25T03:42:43.563Z</time>
      </trkpt>
      <trkpt lat="46.73396" lon="-0.50041">
        <ele>219.04</ele>
        <time>2024-06-25T03:42:52.887Z</time>
      </trkpt>
      <trkpt lat="46.73399" lon="-0.50043">
        <ele>219.08</ele>
        <time>2024-06-25T03:43:02.211Z</time>
      </trkpt>
      <trkpt lat="46.73403" lon="-0.50043">
        <ele>219.13</ele>
        <time>2024-06-25T03:43:11.536Z</time>
      </trkpt>
      <trkpt lat="46.73406" lon="-0.50044">
        <ele>219.17</ele>
        <time>2024-06-25T03:43:20.862Z</time>
      </trkpt>
      <trkpt lat="46.7341" lon="-0.50044">
        <ele>219.21</ele>
        <time>2024-06-25T03:43:30.188Z</time>
      </trkpt>
      <trkpt lat="46.73413" lon="-0.50044">
        <ele>219.26</ele>
        <time>2024-06-25T03:43:39.515Z</time>
      </trkpt>
      <trkpt lat="46.73417" lon="-0.50044">
        <ele>219.3</ele>
        <time>2024-06-25T03:43:48.843Z</time>
      </trkpt>
      <trkpt lat="46.7342" lon="-0.50044">
        <ele>219.35</ele>
        <time>2024-06-25T03:43:58.171Z</time>
      </trkpt>
      <trkpt lat="46.73424" lon="-0.50044">
        <ele>219.39</ele>
        <time>2024-06-25T03:44:07.500Z</time>
      </trkpt>
      <trkpt lat="46.73427" lon="-0.50044">
        <ele>219.44</ele>
        <time>2024-06-25T03:44:16.830Z</time>
      </trkpt>
      <trkpt lat="46.7343" lon="-0.50044">
        <ele>219.48</ele>
        <time>2024-06-25T03:44:26.161Z</time>
      </trkpt>
      <trkpt lat="46.73434" lon="-0.50044">
        <ele>219.53</ele>
        <time>2024-06-25T03:44:35.492Z</time>
      </trkpt>
      <trkpt lat="46.73437" lon="-0.50044">
        <ele>219.57</ele>
        <time>2024-06-25T03:44:44.824Z</time>
      </trkpt>
      <trkpt lat="46.7344" lon="-0.50045">
        <ele>219.62</ele>
        <time>2024-06-25T03:44:54.157Z</time>
      </trkpt>
      <trkpt lat="46.73443" lon="-0.50049">
        <ele>219.66</ele>
        <time>2024-06-25T03:45:03.490Z</time>
      </trkpt>
      <trkpt lat="46.73443" lon="-0.50053">
        <ele>219.7</ele>
        <time>2024-06-25T03:45:12.824Z</time>
      </trkpt>
      <trkpt lat="46.73442" lon="-0.50058">
        <ele>219.74</ele>
        <time>2024-06-25T03:45:22.159Z</time>
      </trkpt>
      <trkpt lat="46.73439" lon="-0.50062">
        <ele>219.78</ele>
        <time>2024-06-25T03:45:31.494Z</time>
      </trkpt>
      <trkpt lat="46.73436" lon="-0.50066">
        <ele>219.83</ele>
        <time>2024-06-25T03:45:40.830Z</time>
      </trkpt>
      <trkpt lat="46.73433" lon="-0.50071">
        <ele>219.87</ele>
        <time>2024-06-25T03:45:50.167Z</time>
      </trkpt>
      <trkpt lat="46.73429" lon="-0.50076">
        <ele>219.92</ele>
        <time>2024-06-25T03:45:59.505Z</time>
      </trkpt>
      <trkpt lat="46.73426" lon="-0.50083">
        <ele>219.97</ele>
        <time>2024-06-25T03:46:08.844Z</time>
      </trkpt>
      <trkpt lat="46.73422" lon="-0.5009">
        <ele>220.02</ele>
        <time>2024-06-25T03:46:18.184Z</time>
      </trkpt>
      <trkpt lat="46.7342" lon="-0.50097">
        <ele>220.07</ele>
        <time>2024-06-25T03:46:27.526Z</time>
      </trkpt>
      <trkpt lat="46.73417" lon="-0.50104">
        <ele>220.13</ele>
        <time>2024-06-25T03:46:36.869Z</time>
      </trkpt>
      <trkpt lat="46.73414" lon="-0.50111">
        <ele>220.18</ele>
        <time>2024-06-25T03:46:46.213Z</time>
      </trkpt>
      <trkpt lat="46.73411" lon="-0.50119">
        <ele>220.24</ele>
        <time>2024-06-25T03:46:55.558Z</time>
      </trkpt>
      <trkpt lat="46.73409" lon="-0.50126">
        <ele>220.31</ele>
        <time>2024-06-25T03:47:04.904Z</time>
      </trkpt>
      <trkpt lat="46.73406" lon="-0.50134">
        <ele>220.37</ele>
        <time>2024-06-25T03:47:14.251Z</time>
      </trkpt>
      <trkpt lat="46.73403" lon="-0.50142">
        <ele>220.44</ele>
        <time>2024-06-25T03:47:23.600Z</time>
      </trkpt>
      <trkpt lat="46.734" lon="-0.50149">
        <ele>220.51</ele>
        <time>2024-06-25T03:47:32.950Z</time>
      </trkpt>
      <trkpt lat="46.73397" lon="-0.50156">
        <ele>220.59</ele>
        <time>2024-06-25T03:47:42.301Z</time>
      </trkpt>
      <trkpt lat="46.73394" lon="-0.50163">
        <ele>220.67</ele>
        <time>2024-06-25T03:47:51.653Z</time>
      </trkpt>
      <trkpt lat="46.7339" lon="-0.50171">
        <ele>220.76</ele>
        <time>2024-06-25T03:48:01.006Z</time>
      </trkpt>
      <trkpt lat="46.73387" lon="-0.50178">
        <ele>220.84</ele>
        <time>2024-06-25T03:48:10.360Z</time>
      </trkpt>
      <trkpt lat="46.73384" lon="-0.50184">
        <ele>220.93</ele>
        <time>2024-06-25T03:48:19.716Z</time>
      </trkpt>
      <trkpt lat="46.73382" lon="-0.50191">
        <ele>221.02</ele>
        <time>2024-06-25T03:48:29.073Z</time>
      </trkpt>
      <trkpt lat="46.73381" lon="-0.50198">
        <ele>221.11</ele>
        <time>2024-06-25T03:48:38.431Z</time>
      </trkpt>
      <trkpt lat="46.73382" lon="-0.50205">
        <ele>221.2</ele>
        <time>2024-06-25T03:48:47.790Z</time>
      </trkpt>
      <trkpt lat="46.73385" lon="-0.5021">
        <ele>221.3</ele>
        <time>2024-06-25T03:48:57.149Z</time>
      </trkpt>
      <trkpt lat="46.73389" lon="-0.50213">
        <ele>221.4</ele>
        <time>2024-06-25T03:49:06.509Z</time>
      </trkpt>
      <trkpt lat="46.73392" lon="-0.50216">
        <ele>221.5</ele>
        <time>2024-06-25T03:49:15.870Z</time>
      </trkpt>
      <trkpt lat="46.73396" lon="-0.50219">
        <ele>221.6</ele>
        <time>2024-06-25T03:49:25.232Z</time>
      </trkpt>
      <trkpt lat="46.734" lon="-0.50222">
        <ele>221.7</ele>
        <time>2024-06-25T03:49:34.595Z</time>
      </trkpt>
      <trkpt lat="46.73404" lon="-0.50224">
        <ele>221.81</ele>
        <time>2024-06-25T03:49:43.959Z</time>
      </trkpt>
      <trkpt lat="46.73408" lon="-0.50227">
        <ele>221.92</ele>
        <time>2024-06-25T03:49:53.324Z</time>
      </trkpt>
      <trkpt lat="46.73411" lon="-0.50229">
        <ele>222.03</ele>
        <time>2024-06-25T03:50:02.689Z</time>
      </trkpt>
      <trkpt lat="46.73414" lon="-0.50232">
        <ele>222.14</ele>
        <time>2024-06-25T03:50:12.055Z</time>
      </trkpt>
      <trkpt lat="46.73418" lon="-0.50235">
        <ele>222.24</ele>
        <time>2024-06-25T03:50:21.422Z</time>
      </trkpt>
      <trkpt lat="46.73421" lon="-0.50238">
        <ele>222.35</ele>
        <time>2024-06-25T03:50:30.790Z</time>
      </trkpt>
      <trkpt lat="46.73424" lon="-0.50241">
        <ele>222.45</ele>
        <time>2024-06-25T03:50:40.158Z</time>
      </trkpt>
      <trkpt lat="46.73427" lon="-0.50243">
        <ele>222.56</ele>
        <time>2024-06-25T03:50:49.527Z</time>
      </trkpt>
      <trkpt lat="46.7343" lon="-0.50245">
        <ele>222.67</ele>
        <time>2024-06-25T03:50:58.897Z</time>
      </trkpt>
      <trkpt lat="46.73433" lon="-0.50247">
        <ele>222.78</ele>
        <time>2024-06-25T03:51:08.267Z</time>
      </trkpt>
      <trkpt lat="46.73436" lon="-0.5025">
        <ele>222.89</ele>
        <time>2024-06-25T03:51:17.638Z</time>
      </trkpt>
      <trkpt lat="46.73439" lon="-0.50252">
        <ele>222.99</ele>
        <time>2024-06-25T03:51:27.010Z</time>
      </trkpt>
      <trkpt lat="46.73441" lon="-0.50253">
        <ele>223.1</ele>
        <time>2024-06-25T03:51:36.382Z</time>
      </trkpt>
      <trkpt lat="46.73444" lon="-0.50254">
        <ele>223.2</ele>
        <time>2024-06-25T03:51:45.755Z</time>
      </trkpt>
      <trkpt lat="46.73446" lon="-0.50255">
        <ele>223.31</ele>
        <time>2024-06-25T03:51:55.128Z</time>
      </trkpt>
      <trkpt lat="46.73449" lon="-0.50255">
        <ele>223.41</ele>
        <time>2024-06-25T03:52:04.502Z</time>
      </trkpt>
      <trkpt lat="46.73451" lon="-0.50255">
        <ele>223.5</ele>
        <time>2024-06-25T03:52:13.876Z</time>
      </trkpt>
      <trkpt lat="46.73453" lon="-0.50255">
        <ele>223.6</ele>
        <time>2024-06-25T03:52:23.250Z</time>
      </trkpt>
      <trkpt lat="46.73455" lon="-0.50255">
        <ele>223.69</ele>
        <time>2024-06-25T03:52:32.625Z</time>
      </trkpt>
      <trkpt lat="46.73456" lon="-0.50254">
        <ele>223.78</ele>
        <time>2024-06-25T03:52:42.000Z</time>
      </trkpt>
      <trkpt lat="46.73458" lon="-0.50255">
        <ele>223.86</ele>
        <time>2024-06-25T03:52:51.376Z</time>
      </trkpt>
      <trkpt lat="46.7346" lon="-0.50256">
        <ele>223.94</ele>
        <time>2024-06-25T03:53:00.752Z</time>
      </trkpt>
      <trkpt lat="46.73463" lon="-0.50257">
        <ele>224.02</ele>
        <time>2024-06-25T03:53:10.129Z</time>
      </trkpt>
      <trkpt lat="46.73466" lon="-0.50259">
        <ele>224.1</ele>
        <time>2024-06-25T03:53:19.506Z</time>
      </trkpt>
      <trkpt lat="46.73469" lon="-0.5026">
        <ele>224.17</ele>
        <time>2024-06-25T03:53:28.884Z</time>
      </trkpt>
      <trkpt lat="46.73472" lon="-0.50262">
        <ele>224.24</ele>
        <time>2024-06-25T03:53:38.262Z</time>
      </trkpt>
      <trkpt lat="46.73474" lon="-0.50263">
        <ele>224.3</ele>
        <time>2024-06-25T03:53:47.641Z</time>
      </trkpt>
      <trkpt lat="46.73477" lon="-0.50265">
        <ele>224.35</ele>
        <time>2024-06-25T03:53:57.021Z</time>
      </trkpt>
      <trkpt lat="46.73479" lon="-0.50267">
        <ele>224.4</ele>
        <time>2024-06-25T03:54:06.401Z</time>
      </trkpt>
      <trkpt lat="46.73482" lon="-0.50268">
        <ele>224.45</ele>
        <time>2024-06-25T03:54:15.782Z</time>
      </trkpt>
      <trkpt lat="46.73484" lon="-0.50269">
        <ele>224.48</ele>
        <time>2024-06-25T03:54:25.163Z</time>
      </trkpt>
      <trkpt lat="46.73487" lon="-0.50271">
        <ele>224.51</ele>
        <time>2024-06-25T03:54:34.545Z</time>
      </trkpt>
      <trkpt lat="46.7349" lon="-0.50273">
        <ele>224.54</ele>
        <time>2024-06-25T03:54:43.927Z</time>
      </trkpt>
      <trkpt lat="46.73493" lon="-0.50274">
        <ele>224.56</ele>
        <time>2024-06-25T03:54:53.310Z</time>
      </trkpt>
      <trkpt lat="46.73496" lon="-0.50276">
        <ele>224.57</ele>
        <time>2024-06-25T03:55:02.694Z</time>
      </trkpt>
      <trkpt lat="46.73499" lon="-0.50277">
        <ele>224.57</ele>
        <time>2024-06-25T03:55:12.078Z</time>
      </trkpt>
      <trkpt lat="46.73503" lon="-0.50279">
        <ele>224.57</ele>
        <time>2024-06-25T03:55:21.463Z</time>
      </trkpt>
      <trkpt lat="46.73506" lon="-0.5028">
        <ele>224.56</ele>
        <time>2024-06-25T03:55:30.849Z</time>
      </trkpt>
      <trkpt lat="46.73511" lon="-0.50281">
        <ele>224.54</ele>
        <time>2024-06-25T03:55:40.236Z</time>
      </trkpt>
      <trkpt lat="46.73515" lon="-0.50282">
        <ele>224.51</ele>
        <time>2024-06-25T03:55:49.624Z</time>
      </trkpt>
      <trkpt lat="46.73519" lon="-0.50283">
        <ele>224.47</ele>
        <time>2024-06-25T03:55:59.012Z</time>
      </trkpt>
      <trkpt lat="46.73524" lon="-0.50283">
        <ele>224.42</ele>
        <time>2024-06-25T03:56:08.401Z</time>
      </trkpt>
      <trkpt lat="46.73529" lon="-0.50283">
        <ele>224.37</ele>
        <time>2024-06-25T03:56:17.791Z</time>
      </trkpt>
      <trkpt lat="46.73534" lon="-0.50283">
        <ele>224.31</ele>
        <time>2024-06-25T03:56:27.182Z</time>
      </trkpt>
      <trkpt lat="46.73538" lon="-0.50283">
        <ele>224.23</ele>
        <time>2024-06-25T03:56:36.574Z</time>
      </trkpt>
      <trkpt lat="46.73542" lon="-0.50283">
        <ele>224.15</ele>
        <time>2024-06-25T03:56:45.967Z</time>
      </trkpt>
      <trkpt lat="46.73547" lon="-0.50283">
        <ele>224.06</ele>
        <time>2024-06-25T03:56:55.361Z</time>
      </trkpt>
      <trkpt lat="46.73551" lon="-0.50282">
        <ele>223.96</ele>
        <time>2024-06-25T03:57:04.756Z</time>
      </trkpt>
      <trkpt lat="46.73555" lon="-0.50281">
        <ele>223.86</ele>
        <time>2024-06-25T03:57:14.152Z</time>
      </trkpt>
      <trkpt lat="46.73559" lon="-0.5028">
        <ele>223.74</ele>
        <time>2024-06-25T03:57:23.548Z</time>
      </trkpt>
      <trkpt lat="46.73564" lon="-0.5028">
        <ele>223.62</ele>
        <time>2024-06-25T03:57:32.945Z</time>
      </trkpt>
      <trkpt lat="46.73569" lon="-0.50281">
        <ele>223.5</ele>
        <time>2024-06-25T03:57:42.343Z</time>
      </trkpt>
      <trkpt lat="46.73573" lon="-0.50281">
        <ele>223.36</ele>
        <time>2024-06-25T03:57:51.742Z</time>
      </trkpt>
      <trkpt lat="46.73578" lon="-0.50281">
        <ele>223.22</ele>
        <time>2024-06-25T03:58:01.142Z</time>
      </trkpt>
      <trkpt lat="46.73582" lon="-0.50281">
        <ele>223.07</ele>
        <time>2024-06-25T03:58:10.543Z</time>
      </trkpt>
      <trkpt lat="46.73587" lon="-0.5028">
        <ele>222.9</ele>
        <time>2024-06-25T03:58:19.945Z</time>
      </trkpt>
      <trkpt lat="46.73592" lon="-0.5028">
        <ele>222.74</ele>
        <time>2024-06-25T03:58:29.348Z</time>
      </trkpt>
      <trkpt lat="46.73596" lon="-0.5028">
        <ele>222.56</ele>
        <time>2024-06-25T03:58:38.752Z</time>
      </trkpt>
      <trkpt lat="46.73601" lon="-0.50279">
        <ele>222.38</ele>
        <time>2024-06-25T03:58:48.157Z</time>
      </trkpt>
      <trkpt lat="46.73605" lon="-0.50279">
        <ele>222.19</ele>
        <time>2024-06-25T03:58:57.563Z</time>
      </trkpt>
      <trkpt lat="46.7361" lon="-0.50279">
        <ele>222</ele>
        <time>2024-06-25T03:59:06.970Z</time>
      </trkpt>
      <trkpt lat="46.73614" lon="-0.50279">
        <ele>221.79</ele>
        <time>2024-06-25T03:59:16.378Z</time>
      </trkpt>
      <trkpt lat="46.73619" lon="-0.50279">
        <ele>221.58</ele>
        <time>2024-06-25T03:59:25.786Z</time>
      </trkpt>
      <trkpt lat="46.73623" lon="-0.50279">
        <ele>221.35</ele>
        <time>2024-06-25T03:59:35.195Z</time>
      </trkpt>
      <trkpt lat="46.73628" lon="-0.50279">
        <ele>221.12</ele>
        <time>2024-06-25T03:59:44.605Z</time>
      </trkpt>
      <trkpt lat="46.73632" lon="-0.50279">
        <ele>220.88</ele>
        <time>2024-06-25T03:59:54.016Z</time>
      </trkpt>
      <trkpt lat="46.73636" lon="-0.50279">
        <ele>220.63</ele>
        <time>2024-06-25T04:00:03.428Z</time>
      </trkpt>
      <trkpt lat="46.7364" lon="-0.50278">
        <ele>220.38</ele>
        <time>2024-06-25T04:00:12.841Z</time>
      </trkpt>
      <trkpt lat="46.73644" lon="-0.50278">
        <ele>220.12</ele>
        <time>2024-06-25T04:00:22.254Z</time>
      </trkpt>
      <trkpt lat="46.73648" lon="-0.50277">
        <ele>219.85</ele>
        <time>2024-06-25T04:00:31.668Z</time>
      </trkpt>
      <trkpt lat="46.73652" lon="-0.50276">
        <ele>219.57</ele>
        <time>2024-06-25T04:00:41.083Z</time>
      </trkpt>
      <trkpt lat="46.73656" lon="-0.50276">
        <ele>219.28</ele>
        <time>2024-06-25T04:00:50.499Z</time>
      </trkpt>
      <trkpt lat="46.73659" lon="-0.50276">
        <ele>218.99</ele>
        <time>2024-06-25T04:00:59.916Z</time>
      </trkpt>
      <trkpt lat="46.73663" lon="-0.50276">
        <ele>218.69</ele>
        <time>2024-06-25T04:01:09.333Z</time>
      </trkpt>
      <trkpt lat="46.73667" lon="-0.50276">
        <ele>218.39</ele>
        <time>2024-06-25T04:01:18.751Z</time>
      </trkpt>
      <trkpt lat="46.73671" lon="-0.50275">
        <ele>218.07</ele>
        <time>2024-06-25T04:01:28.170Z</time>
      </trkpt>
      <trkpt lat="46.73675" lon="-0.50274">
        <ele>217.75</ele>
        <time>2024-06-25T04:01:37.590Z</time>
      </trkpt>
      <trkpt lat="46.73679" lon="-0.50271">
        <ele>217.42</ele>
        <time>2024-06-25T04:01:47.011Z</time>
      </trkpt>
      <trkpt lat="46.73682" lon="-0.50267">
        <ele>217.09</ele>
        <time>2024-06-25T04:01:56.432Z</time>
      </trkpt>
      <trkpt lat="46.73685" lon="-0.50261">
        <ele>216.75</ele>
        <time>2024-06-25T04:02:05.854Z</time>
      </trkpt>
      <trkpt lat="46.73689" lon="-0.50255">
        <ele>216.4</ele>
        <time>2024-06-25T04:02:15.278Z</time>
      </trkpt>
      <trkpt lat="46.73694" lon="-0.5025">
        <ele>216.05</ele>
        <time>2024-06-25T04:02:24.703Z</time>
      </trkpt>
      <trkpt lat="46.73698" lon="-0.50246">
        <ele>215.69</ele>
        <time>2024-06-25T04:02:34.129Z</time>
      </trkpt>
      <trkpt lat="46.73703" lon="-0.50241">
        <ele>215.33</ele>
        <time>2024-06-25T04:02:43.556Z</time>
      </trkpt>
      <trkpt lat="46.73708" lon="-0.50237">
        <ele>214.96</ele>
        <time>2024-06-25T04:02:52.984Z</time>
      </trkpt>
      <trkpt lat="46.73713" lon="-0.50232">
        <ele>214.59</ele>
        <time>2024-06-25T04:03:02.413Z</time>
      </trkpt>
      <trkpt lat="46.73719" lon="-0.50228">
        <ele>214.22</ele>
        <time>2024-06-25T04:03:11.844Z</time>
      </trkpt>
      <trkpt lat="46.73725" lon="-0.50225">
        <ele>213.84</ele>
        <time>2024-06-25T04:03:21.276Z</time>
      </trkpt>
      <trkpt lat="46.7373" lon="-0.50221">
        <ele>213.46</ele>
        <time>2024-06-25T04:03:30.709Z</time>
      </trkpt>
      <trkpt lat="46.73736" lon="-0.50217">
        <ele>213.08</ele>
        <time>2024-06-25T04:03:40.143Z</time>
      </trkpt>
      <trkpt lat="46.73742" lon="-0.50213">
        <ele>212.69</ele>
        <time>2024-06-25T04:03:49.579Z</time>
      </trkpt>
      <trkpt lat="46.73747" lon="-0.50209">
        <ele>212.31</ele>
        <time>2024-06-25T04:03:59.016Z</time>
      </trkpt>
      <trkpt lat="46.73753" lon="-0.50205">
        <ele>211.92</ele>
        <time>2024-06-25T04:04:08.454Z</time>
      </trkpt>
      <trkpt lat="46.73759" lon="-0.50202">
        <ele>211.53</ele>
        <time>2024-06-25T04:04:17.893Z</time>
      </trkpt>
      <trkpt lat="46.73765" lon="-0.50198">
        <ele>211.13</ele>
        <time>2024-06-25T04:04:27.334Z</time>
      </trkpt>
      <trkpt lat="46.73771" lon="-0.50195">
        <ele>210.74</ele>
        <time>2024-06-25T04:04:36.776Z</time>
      </trkpt>
      <trkpt lat="46.73777" lon="-0.50191">
        <ele>210.34</ele>
        <time>2024-06-25T04:04:46.219Z</time>
      </trkpt>
      <trkpt lat="46.73783" lon="-0.50188">
        <ele>209.95</ele>
        <time>2024-06-25T04:04:55.664Z</time>
      </trkpt>
      <trkpt lat="46.73789" lon="-0.50184">
        <ele>209.56</ele>
        <time>2024-06-25T04:05:05.110Z</time>
      </trkpt>
      <trkpt lat="46.73795" lon="-0.50181">
        <ele>209.17</ele>
        <time>2024-06-25T04:05:14.557Z</time>
      </trkpt>
      <trkpt lat="46.738" lon="-0.50178">
        <ele>208.78</ele>
        <time>2024-06-25T04:05:24.005Z</time>
      </trkpt>
      <trkpt lat="46.73806" lon="-0.50175">
        <ele>208.39</ele>
        <time>2024-06-25T04:05:33.455Z</time>
      </trkpt>
      <trkpt lat="46.73813" lon="-0.50171">
        <ele>208.01</ele>
        <time>2024-06-25T04:05:42.906Z</time>
      </trkpt>
      <trkpt lat="46.73819" lon="-0.50167">
        <ele>207.63</ele>
        <time>2024-06-25T04:05:52.358Z</time>
      </trkpt>
      <trkpt lat="46.73826" lon="-0.50163">
        <ele>207.24</ele>
        <time>2024-06-25T04:06:01.812Z</time>
      </trkpt>
      <trkpt lat="46.73832" lon="-0.50159">
        <ele>206.87</ele>
        <time>2024-06-25T04:06:11.267Z</time>
      </trkpt>
      <trkpt lat="46.73839" lon="-0.50156">
        <ele>206.49</ele>
        <time>2024-06-25T04:06:20.724Z</time>
      </trkpt>
      <trkpt lat="46.73846" lon="-0.50152">
        <ele>206.12</ele>
        <time>2024-06-25T04:06:30.182Z</time>
      </trkpt>
      <trkpt lat="46.73852" lon="-0.50148">
        <ele>205.75</ele>
        <time>2024-06-25T04:06:39.641Z</time>
      </trkpt>
      <trkpt lat="46.73858" lon="-0.50144">
        <ele>205.38</ele>
        <time>2024-06-25T04:06:49.102Z</time>
      </trkpt>
      <trkpt lat="46.73866" lon="-0.5014">
        <ele>205.02</ele>
        <time>2024-06-25T04:06:58.564Z</time>
      </trkpt>
      <trkpt lat="46.73873" lon="-0.50136">
        <ele>204.67</ele>
        <time>2024-06-25T04:07:08.028Z</time>
      </trkpt>
      <trkpt lat="46.73881" lon="-0.50132">
        <ele>204.33</ele>
        <time>2024-06-25T04:07:17.494Z</time>
      </trkpt>
      <trkpt lat="46.73888" lon="-0.50128">
        <ele>203.99</ele>
        <time>2024-06-25T04:07:26.961Z</time>
      </trkpt>
      <trkpt lat="46.73895" lon="-0.50124">
        <ele>203.66</ele>
        <time>2024-06-25T04:07:36.430Z</time>
      </trkpt>
      <trkpt lat="46.73902" lon="-0.50119">
        <ele>203.34</ele>
        <time>2024-06-25T04:07:45.900Z</time>
      </trkpt>
      <trkpt lat="46.73909" lon="-0.50114">
        <ele>203.03</ele>
        <time>2024-06-25T04:07:55.372Z</time>
      </trkpt>
      <trkpt lat="46.73916" lon="-0.50109">
        <ele>202.73</ele>
        <time>2024-06-25T04:08:04.845Z</time>
      </trkpt>
      <trkpt lat="46.73922" lon="-0.50103">
        <ele>202.44</ele>
        <time>2024-06-25T04:08:14.320Z</time>
      </trkpt>
      <trkpt lat="46.73927" lon="-0.50098">
        <ele>202.17</ele>
        <time>2024-06-25T04:08:23.796Z</time>
      </trkpt>
      <trkpt lat="46.73932" lon="-0.50092">
        <ele>201.92</ele>
        <time>2024-06-25T04:08:33.273Z</time>
      </trkpt>
      <trkpt lat="46.73938" lon="-0.50086">
        <ele>201.67</ele>
        <time>2024-06-25T04:08:42.752Z</time>
      </trkpt>
      <trkpt lat="46.73943" lon="-0.50079">
        <ele>201.43</ele>
        <time>2024-06-25T04:08:52.232Z</time>
      </trkpt>
      <trkpt lat="46.73949" lon="-0.50073">
        <ele>201.21</ele>
        <time>2024-06-25T04:09:01.714Z</time>
      </trkpt>
      <trkpt lat="46.73955" lon="-0.50067">
        <ele>200.99</ele>
        <time>2024-06-25T04:09:11.197Z</time>
      </trkpt>
      <trkpt lat="46.73961" lon="-0.50061">
        <ele>200.77</ele>
        <time>2024-06-25T04:09:20.681Z</time>
      </trkpt>
      <trkpt lat="46.73967" lon="-0.50055">
        <ele>200.57</ele>
        <time>2024-06-25T04:09:30.167Z</time>
      </trkpt>
      <trkpt lat="46.73972" lon="-0.50048">
        <ele>200.39</ele>
        <time>2024-06-25T04:09:39.654Z</time>
      </trkpt>
      <trkpt lat="46.73977" lon="-0.50042">
        <ele>200.21</ele>
        <time>2024-06-25T04:09:49.143Z</time>
      </trkpt>
      <trkpt lat="46.73983" lon="-0.50035">
        <ele>200.05</ele>
        <time>2024-06-25T04:09:58.633Z</time>
      </trkpt>
      <trkpt lat="46.73988" lon="-0.50028">
        <ele>199.9</ele>
        <time>2024-06-25T04:10:08.125Z</time>
      </trkpt>
      <trkpt lat="46.73993" lon="-0.50021">
        <ele>199.76</ele>
        <time>2024-06-25T04:10:17.618Z</time>
      </trkpt>
      <trkpt lat="46.73998" lon="-0.50014">
        <ele>199.64</ele>
        <time>2024-06-25T04:10:27.112Z</time>
      </trkpt>
      <trkpt lat="46.74003" lon="-0.50007">
        <ele>199.53</ele>
        <time>2024-06-25T04:10:36.608Z</time>
      </trkpt>
      <trkpt lat="46.74008" lon="-0.5">
        <ele>199.42</ele>
        <time>2024-06-25T04:10:46.105Z</time>
      </trkpt>
      <trkpt lat="46.74012" lon="-0.49993">
        <ele>199.33</ele>
        <time>2024-06-25T04:10:55.603Z</time>
      </trkpt>
      <trkpt lat="46.74015" lon="-0.49986">
        <ele>199.25</ele>
        <time>2024-06-25T04:11:05.103Z</time>
      </trkpt>
      <trkpt lat="46.74019" lon="-0.4998">
        <ele>199.18</ele>
        <time>2024-06-25T04:11:14.604Z</time>
      </trkpt>
      <trkpt lat="46.74023" lon="-0.49978">
        <ele>199.11</ele>
        <time>2024-06-25T04:11:24.105Z</time>
      </trkpt>
      <trkpt lat="46.74028" lon="-0.49978">
        <ele>199.06</ele>
        <time>2024-06-25T04:11:33.607Z</time>
      </trkpt>
      <trkpt lat="46.74033" lon="-0.49981">
        <ele>199.02</ele>
        <time>2024-06-25T04:11:43.111Z</time>
      </trkpt>
      <trkpt lat="46.74037" lon="-0.49986">
        <ele>199</ele>
        <time>2024-06-25T04:11:52.616Z</time>
      </trkpt>
      <trkpt lat="46.74042" lon="-0.49992">
        <ele>198.98</ele>
        <time>2024-06-25T04:12:02.122Z</time>
      </trkpt>
      <trkpt lat="46.74046" lon="-0.49999">
        <ele>198.98</ele>
        <time>2024-06-25T04:12:11.629Z</time>
      </trkpt>
      <trkpt lat="46.74051" lon="-0.50005">
        <ele>198.99</ele>
        <time>2024-06-25T04:12:21.137Z</time>
      </trkpt>
      <trkpt lat="46.74055" lon="-0.50013">
        <ele>199.01</ele>
        <time>2024-06-25T04:12:30.647Z</time>
      </trkpt>
      <trkpt lat="46.7406" lon="-0.50021">
        <ele>199.05</ele>
        <time>2024-06-25T04:12:40.158Z</time>
      </trkpt>
      <trkpt lat="46.74065" lon="-0.5003">
        <ele>199.1</ele>
        <time>2024-06-25T04:12:49.671Z</time>
      </trkpt>
      <trkpt lat="46.74069" lon="-0.50039">
        <ele>199.17</ele>
        <time>2024-06-25T04:12:59.185Z</time>
      </trkpt>
      <trkpt lat="46.74072" lon="-0.50048">
        <ele>199.25</ele>
        <time>2024-06-25T04:13:08.701Z</time>
      </trkpt>
      <trkpt lat="46.74073" lon="-0.50058">
        <ele>199.36</ele>
        <time>2024-06-25T04:13:18.218Z</time>
      </trkpt>
      <trkpt lat="46.74074" lon="-0.50068">
        <ele>199.47</ele>
        <time>2024-06-25T04:13:27.737Z</time>
      </trkpt>
      <trkpt lat="46.74074" lon="-0.50077">
        <ele>199.6</ele>
        <time>2024-06-25T04:13:37.257Z</time>
      </trkpt>
      <trkpt lat="46.74072" lon="-0.50087">
        <ele>199.74</ele>
        <time>2024-06-25T04:13:46.778Z</time>
      </trkpt>
      <trkpt lat="46.74071" lon="-0.50095">
        <ele>199.9</ele>
        <time>2024-06-25T04:13:56.300Z</time>
      </trkpt>
      <trkpt lat="46.74069" lon="-0.50103">
        <ele>200.06</ele>
        <time>2024-06-25T04:14:05.823Z</time>
      </trkpt>
      <trkpt lat="46.74067" lon="-0.5011">
        <ele>200.23</ele>
        <time>2024-06-25T04:14:15.347Z</time>
      </trkpt>
      <trkpt lat="46.74065" lon="-0.50116">
        <ele>200.41</ele>
        <time>2024-06-25T04:14:24.872Z</time>
      </trkpt>
      <trkpt lat="46.74064" lon="-0.50122">
        <ele>200.6</ele>
        <time>2024-06-25T04:14:34.398Z</time>
      </trkpt>
      <trkpt lat="46.74062" lon="-0.50127">
        <ele>200.8</ele>
        <time>2024-06-25T04:14:43.925Z</time>
      </trkpt>
      <trkpt lat="46.7406" lon="-0.50132">
        <ele>201</ele>
        <time>2024-06-25T04:14:53.453Z</time>
      </trkpt>
      <trkpt lat="46.74058" lon="-0.50136">
        <ele>201.21</ele>
        <time>2024-06-25T04:15:02.982Z</time>
      </trkpt>
      <trkpt lat="46.74057" lon="-0.50141">
        <ele>201.43</ele>
        <time>2024-06-25T04:15:12.511Z</time>
      </trkpt>
      <trkpt lat="46.74055" lon="-0.50145">
        <ele>201.66</ele>
        <time>2024-06-25T04:15:22.041Z</time>
      </trkpt>
      <trkpt lat="46.74053" lon="-0.5015">
        <ele>201.89</ele>
        <time>2024-06-25T04:15:31.572Z</time>
      </trkpt>
      <trkpt lat="46.74052" lon="-0.50155">
        <ele>202.12</ele>
        <time>2024-06-25T04:15:41.103Z</time>
      </trkpt>
      <trkpt lat="46.7405" lon="-0.50159">
        <ele>202.37</ele>
        <time>2024-06-25T04:15:50.635Z</time>
      </trkpt>
      <trkpt lat="46.74048" lon="-0.50163">
        <ele>202.61</ele>
        <time>2024-06-25T04:16:00.168Z</time>
      </trkpt>
      <trkpt lat="46.74047" lon="-0.50167">
        <ele>202.86</ele>
        <time>2024-06-25T04:16:09.701Z</time>
      </trkpt>
      <trkpt lat="46.74046" lon="-0.50173">
        <ele>203.12</ele>
        <time>2024-06-25T04:16:19.235Z</time>
      </trkpt>
      <trkpt lat="46.74046" lon="-0.50178">
        <ele>203.38</ele>
        <time>2024-06-25T04:16:28.770Z</time>
      </trkpt>
      <trkpt lat="46.74045" lon="-0.50183">
        <ele>203.64</ele>
        <time>2024-06-25T04:16:38.306Z</time>
      </trkpt>
      <trkpt lat="46.74045" lon="-0.50188">
        <ele>203.91</ele>
        <time>2024-06-25T04:16:47.842Z</time>
      </trkpt>
      <trkpt lat="46.74044" lon="-0.50193">
        <ele>204.18</ele>
        <time>2024-06-25T04:16:57.379Z</time>
      </trkpt>
      <trkpt lat="46.74044" lon="-0.50197">
        <ele>204.44</ele>
        <time>2024-06-25T04:17:06.917Z</time>
      </trkpt>
      <trkpt lat="46.74045" lon="-0.50201">
        <ele>204.71</ele>
        <time>2024-06-25T04:17:16.455Z</time>
      </trkpt>
      <trkpt lat="46.74046" lon="-0.50206">
        <ele>204.98</ele>
        <time>2024-06-25T04:17:25.994Z</time>
      </trkpt>
      <trkpt lat="46.74047" lon="-0.5021">
        <ele>205.25</ele>
        <time>2024-06-25T04:17:35.533Z</time>
      </trkpt>
      <trkpt lat="46.74048" lon="-0.50214">
        <ele>205.52</ele>
        <time>2024-06-25T04:17:45.073Z</time>
      </trkpt>
      <trkpt lat="46.74049" lon="-0.50218">
        <ele>205.8</ele>
        <time>2024-06-25T04:17:54.613Z</time>
      </trkpt>
      <trkpt lat="46.7405" lon="-0.50221">
        <ele>206.06</ele>
        <time>2024-06-25T04:18:04.154Z</time>
      </trkpt>
      <trkpt lat="46.74052" lon="-0.50224">
        <ele>206.33</ele>
        <time>2024-06-25T04:18:13.696Z</time>
      </trkpt>
      <trkpt lat="46.74053" lon="-0.50227">
        <ele>206.59</ele>
        <time>2024-06-25T04:18:23.238Z</time>
      </trkpt>
      <trkpt lat="46.74055" lon="-0.50229">
        <ele>206.85</ele>
        <time>2024-06-25T04:18:32.780Z</time>
      </trkpt>
      <trkpt lat="46.74057" lon="-0.50232">
        <ele>207.1</ele>
        <time>2024-06-25T04:18:42.323Z</time>
      </trkpt>
      <trkpt lat="46.74059" lon="-0.50235">
        <ele>207.36</ele>
        <time>2024-06-25T04:18:51.867Z</time>
      </trkpt>
      <trkpt lat="46.7406" lon="-0.50238">
        <ele>207.61</ele>
        <time>2024-06-25T04:19:01.411Z</time>
      </trkpt>
      <trkpt lat="46.74062" lon="-0.5024">
        <ele>207.86</ele>
        <time>2024-06-25T04:19:10.956Z</time>
      </trkpt>
      <trkpt lat="46.74064" lon="-0.50242">
        <ele>208.1</ele>
        <time>2024-06-25T04:19:20.501Z</time>
      </trkpt>
      <trkpt lat="46.74066" lon="-0.50245">
        <ele>208.33</ele>
        <time>2024-06-25T04:19:30.047Z</time>
      </trkpt>
      <trkpt lat="46.74068" lon="-0.50247">
        <ele>208.56</ele>
        <time>2024-06-25T04:19:39.593Z</time>
      </trkpt>
      <trkpt lat="46.7407" lon="-0.50249">
        <ele>208.78</ele>
        <time>2024-06-25T04:19:49.140Z</time>
      </trkpt>
      <trkpt lat="46.74072" lon="-0.50251">
        <ele>209</ele>
        <time>2024-06-25T04:19:58.687Z</time>
      </trkpt>
      <trkpt lat="46.74073" lon="-0.50253">
        <ele>209.21</ele>
        <time>2024-06-25T04:20:08.234Z</time>
      </trkpt>
      <trkpt lat="46.74075" lon="-0.50254">
        <ele>209.41</ele>
        <time>2024-06-25T04:20:17.782Z</time>
      </trkpt>
      <trkpt lat="46.74076" lon="-0.50257">
        <ele>209.61</ele>
        <time>2024-06-25T04:20:27.330Z</time>
      </trkpt>
      <trkpt lat="46.74078" lon="-0.50259">
        <ele>209.81</ele>
        <time>2024-06-25T04:20:36.879Z</time>
      </trkpt>
      <trkpt lat="46.7408" lon="-0.50261">
        <ele>210</ele>
        <time>2024-06-25T04:20:46.428Z</time>
      </trkpt>
      <trkpt lat="46.74082" lon="-0.50264">
        <ele>210.19</ele>
        <time>2024-06-25T04:20:55.978Z</time>
      </trkpt>
      <trkpt lat="46.74084" lon="-0.50266">
        <ele>210.37</ele>
        <time>2024-06-25T04:21:05.528Z</time>
      </trkpt>
      <trkpt lat="46.74087" lon="-0.50269">
        <ele>210.55</ele>
        <time>2024-06-25T04:21:15.079Z</time>
      </trkpt>
      <trkpt lat="46.74089" lon="-0.50271">
        <ele>210.72</ele>
        <time>2024-06-25T04:21:24.630Z</time>
      </trkpt>
      <trkpt lat="46.74091" lon="-0.50273">
        <ele>210.89</ele>
        <time>2024-06-25T04:21:34.182Z</time>
      </trkpt>
      <trkpt lat="46.74093" lon="-0.50276">
        <ele>211.05</ele>
        <time>2024-06-25T04:21:43.734Z</time>
      </trkpt>
      <trkpt lat="46.74095" lon="-0.50279">
        <ele>211.2</ele>
        <time>2024-06-25T04:21:53.287Z</time>
      </trkpt>
      <trkpt lat="46.74097" lon="-0.50282">
        <ele>211.35</ele>
        <time>2024-06-25T04:22:02.841Z</time>
      </trkpt>
      <trkpt lat="46.74099" lon="-0.50285">
        <ele>211.5</ele>
        <time>2024-06-25T04:22:12.395Z</time>
      </trkpt>
      <trkpt lat="46.74101" lon="-0.50288">
        <ele>211.64</ele>
        <time>2024-06-25T04:22:21.950Z</time>
      </trkpt>
      <trkpt lat="46.74102" lon="-0.50293">
        <ele>211.77</ele>
        <time>2024-06-25T04:22:31.505Z</time>
      </trkpt>
      <trkpt lat="46.74103" lon="-0.50297">
        <ele>211.91</ele>
        <time>2024-06-25T04:22:41.061Z</time>
      </trkpt>
      <trkpt lat="46.74103" lon="-0.50302">
        <ele>212.05</ele>
        <time>2024-06-25T04:22:50.618Z</time>
      </trkpt>
      <trkpt lat="46.74103" lon="-0.50306">
        <ele>212.18</ele>
        <time>2024-06-25T04:23:00.175Z</time>
      </trkpt>
      <trkpt lat="46.74103" lon="-0.50311">
        <ele>212.3</ele>
        <time>2024-06-25T04:23:09.733Z</time>
      </trkpt>
      <trkpt lat="46.74102" lon="-0.50316">
        <ele>212.43</ele>
        <time>2024-06-25T04:23:19.292Z</time>
      </trkpt>
      <trkpt lat="46.74101" lon="-0.5032">
        <ele>212.55</ele>
        <time>2024-06-25T04:23:28.851Z</time>
      </trkpt>
      <trkpt lat="46.74099" lon="-0.50325">
        <ele>212.67</ele>
        <time>2024-06-25T04:23:38.411Z</time>
      </trkpt>
      <trkpt lat="46.74098" lon="-0.50329">
        <ele>212.78</ele>
        <time>2024-06-25T04:23:47.972Z</time>
      </trkpt>
      <trkpt lat="46.74096" lon="-0.50333">
        <ele>212.89</ele>
        <time>2024-06-25T04:23:57.533Z</time>
      </trkpt>
      <trkpt lat="46.74093" lon="-0.50338">
        <ele>213</ele>
        <time>2024-06-25T04:24:07.095Z</time>
      </trkpt>
      <trkpt lat="46.7409" lon="-0.50342">
        <ele>213.1</ele>
        <time>2024-06-25T04:24:16.658Z</time>
      </trkpt>
      <trkpt lat="46.74087" lon="-0.50345">
        <ele>213.2</ele>
        <time>2024-06-25T04:24:26.222Z</time>
      </trkpt>
      <trkpt lat="46.74084" lon="-0.50348">
        <ele>213.3</ele>
        <time>2024-06-25T04:24:35.787Z</time>
      </trkpt>
      <trkpt lat="46.74081" lon="-0.50351">
        <ele>213.4</ele>
        <time>2024-06-25T04:24:45.352Z</time>
      </trkpt>
      <trkpt lat="46.74077" lon="-0.50353">
        <ele>213.49</ele>
        <time>2024-06-25T04:24:54.918Z</time>
      </trkpt>
      <trkpt lat="46.74074" lon="-0.50354">
        <ele>213.58</ele>
        <time>2024-06-25T04:25:04.485Z</time>
      </trkpt>
      <trkpt lat="46.7407" lon="-0.50355">
        <ele>213.68</ele>
        <time>2024-06-25T04:25:14.052Z</time>
      </trkpt>
      <trkpt lat="46.74066" lon="-0.50358">
        <ele>213.77</ele>
        <time>2024-06-25T04:25:23.620Z</time>
      </trkpt>
      <trkpt lat="46.74062" lon="-0.5036">
        <ele>213.86</ele>
        <time>2024-06-25T04:25:33.189Z</time>
      </trkpt>
      <trkpt lat="46.74059" lon="-0.50363">
        <ele>213.94</ele>
        <time>2024-06-25T04:25:42.759Z</time>
      </trkpt>
      <trkpt lat="46.74056" lon="-0.50366">
        <ele>214.03</ele>
        <time>2024-06-25T04:25:52.330Z</time>
      </trkpt>
      <trkpt lat="46.74052" lon="-0.50369">
        <ele>214.12</ele>
        <time>2024-06-25T04:26:01.902Z</time>
      </trkpt>
      <trkpt lat="46.74049" lon="-0.50373">
        <ele>214.21</ele>
        <time>2024-06-25T04:26:11.474Z</time>
      </trkpt>
      <trkpt lat="46.74045" lon="-0.50376">
        <ele>214.3</ele>
        <time>2024-06-25T04:26:21.047Z</time>
      </trkpt>
      <trkpt lat="46.74042" lon="-0.5038">
        <ele>214.38</ele>
        <time>2024-06-25T04:26:30.621Z</time>
      </trkpt>
      <trkpt lat="46.74038" lon="-0.50384">
        <ele>214.47</ele>
        <time>2024-06-25T04:26:40.196Z</time>
      </trkpt>
      <trkpt lat="46.74035" lon="-0.50387">
        <ele>214.56</ele>
        <time>2024-06-25T04:26:49.772Z</time>
      </trkpt>
      <trkpt lat="46.74031" lon="-0.50391">
        <ele>214.65</ele>
        <time>2024-06-25T04:26:59.349Z</time>
      </trkpt>
      <trkpt lat="46.74028" lon="-0.50395">
        <ele>214.74</ele>
        <time>2024-06-25T04:27:08.927Z</time>
      </trkpt>
      <trkpt lat="46.74025" lon="-0.504">
        <ele>214.84</ele>
        <time>2024-06-25T04:27:18.505Z</time>
      </trkpt>
      <trkpt lat="46.74022" lon="-0.50404">
        <ele>214.93</ele>
        <time>2024-06-25T04:27:28.084Z</time>
      </trkpt>
      <trkpt lat="46.74019" lon="-0.50408">
        <ele>215.03</ele>
        <time>2024-06-25T04:27:37.664Z</time>
      </trkpt>
      <trkpt lat="46.74016" lon="-0.50413">
        <ele>215.12</ele>
        <time>2024-06-25T04:27:47.245Z</time>
      </trkpt>
      <trkpt lat="46.74013" lon="-0.50418">
        <ele>215.22</ele>
        <time>2024-06-25T04:27:56.827Z</time>
      </trkpt>
      <trkpt lat="46.74011" lon="-0.50423">
        <ele>215.32</ele>
        <time>2024-06-25T04:28:06.410Z</time>
      </trkpt>
      <trkpt lat="46.74008" lon="-0.50428">
        <ele>215.43</ele>
        <time>2024-06-25T04:28:15.994Z</time>
      </trkpt>
      <trkpt lat="46.74006" lon="-0.50433">
        <ele>215.53</ele>
        <time>2024-06-25T04:28:25.578Z</time>
      </trkpt>
      <trkpt lat="46.74003" lon="-0.50437">
        <ele>215.64</ele>
        <time>2024-06-25T04:28:35.163Z</time>
      </trkpt>
      <trkpt lat="46.74" lon="-0.50442">
        <ele>215.75</ele>
        <time>2024-06-25T04:28:44.749Z</time>
      </trkpt>
      <trkpt lat="46.73998" lon="-0.50448">
        <ele>215.86</ele>
        <time>2024-06-25T04:28:54.336Z</time>
      </trkpt>
      <trkpt lat="46.73995" lon="-0.50452">
        <ele>215.97</ele>
        <time>2024-06-25T04:29:03.924Z</time>
      </trkpt>
      <trkpt lat="46.73992" lon="-0.50457">
        <ele>216.09</ele>
        <time>2024-06-25T04:29:13.513Z</time>
      </trkpt>
      <trkpt lat="46.73989" lon="-0.50462">
        <ele>216.2</ele>
        <time>2024-06-25T04:29:23.103Z</time>
      </trkpt>
      <trkpt lat="46.73987" lon="-0.50466">
        <ele>216.32</ele>
        <time>2024-06-25T04:29:32.693Z</time>
      </trkpt>
      <trkpt lat="46.73985" lon="-0.50471">
        <ele>216.44</ele>
        <time>2024-06-25T04:29:42.284Z</time>
      </trkpt>
      <trkpt lat="46.73983" lon="-0.50477">
        <ele>216.56</ele>
        <time>2024-06-25T04:29:51.876Z</time>
      </trkpt>
      <trkpt lat="46.7398" lon="-0.50482">
        <ele>216.69</ele>
        <time>2024-06-25T04:30:01.469Z</time>
      </trkpt>
      <trkpt lat="46.73978" lon="-0.50488">
        <ele>216.81</ele>
        <time>2024-06-25T04:30:11.063Z</time>
      </trkpt>
      <trkpt lat="46.73976" lon="-0.50493">
        <ele>216.94</ele>
        <time>2024-06-25T04:30:20.658Z</time>
      </trkpt>
      <trkpt lat="46.73975" lon="-0.505">
        <ele>217.06</ele>
        <time>2024-06-25T04:30:30.254Z</time>
      </trkpt>
      <trkpt lat="46.73974" lon="-0.50506">
        <ele>217.19</ele>
        <time>2024-06-25T04:30:39.850Z</time>
      </trkpt>
      <trkpt lat="46.73974" lon="-0.50512">
        <ele>217.32</ele>
        <time>2024-06-25T04:30:49.447Z</time>
      </trkpt>
      <trkpt lat="46.73974" lon="-0.50518">
        <ele>217.45</ele>
        <time>2024-06-25T04:30:59.045Z</time>
      </trkpt>
      <trkpt lat="46.73974" lon="-0.50523">
        <ele>217.58</ele>
        <time>2024-06-25T04:31:08.644Z</time>
      </trkpt>
      <trkpt lat="46.73975" lon="-0.50529">
        <ele>217.71</ele>
        <time>2024-06-25T04:31:18.244Z</time>
      </trkpt>
      <trkpt lat="46.73976" lon="-0.50535">
        <ele>217.83</ele>
        <time>2024-06-25T04:31:27.845Z</time>
      </trkpt>
      <trkpt lat="46.73977" lon="-0.50541">
        <ele>217.96</ele>
        <time>2024-06-25T04:31:37.446Z</time>
      </trkpt>
      <trkpt lat="46.73978" lon="-0.50547">
        <ele>218.08</ele>
        <time>2024-06-25T04:31:47.048Z</time>
      </trkpt>
      <trkpt lat="46.73978" lon="-0.50552">
        <ele>218.21</ele>
        <time>2024-06-25T04:31:56.651Z</time>
      </trkpt>
      <trkpt lat="46.73979" lon="-0.50558">
        <ele>218.33</ele>
        <time>2024-06-25T04:32:06.255Z</time>
      </trkpt>
      <trkpt lat="46.7398" lon="-0.50563">
        <ele>218.46</ele>
        <time>2024-06-25T04:32:15.859Z</time>
      </trkpt>
      <trkpt lat="46.7398" lon="-0.50569">
        <ele>218.58</ele>
        <time>2024-06-25T04:32:25.464Z</time>
      </trkpt>
      <trkpt lat="46.73981" lon="-0.50575">
        <ele>218.71</ele>
        <time>2024-06-25T04:32:35.070Z</time>
      </trkpt>
      <trkpt lat="46.73982" lon="-0.5058">
        <ele>218.83</ele>
        <time>2024-06-25T04:32:44.677Z</time>
      </trkpt>
      <trkpt lat="46.73982" lon="-0.50586">
        <ele>218.95</ele>
        <time>2024-06-25T04:32:54.285Z</time>
      </trkpt>
      <trkpt lat="46.73981" lon="-0.50591">
        <ele>219.07</ele>
        <time>2024-06-25T04:33:03.893Z</time>
      </trkpt>
      <trkpt lat="46.73981" lon="-0.50596">
        <ele>219.2</ele>
        <time>2024-06-25T04:33:13.502Z</time>
      </trkpt>
      <trkpt lat="46.73981" lon="-0.50601">
        <ele>219.32</ele>
        <time>2024-06-25T04:33:23.112Z</time>
      </trkpt>
      <trkpt lat="46.7398" lon="-0.50606">
        <ele>219.43</ele>
        <time>2024-06-25T04:33:32.722Z</time>
      </trkpt>
      <trkpt lat="46.73979" lon="-0.50611">
        <ele>219.55</ele>
        <time>2024-06-25T04:33:42.333Z</time>
      </trkpt>
      <trkpt lat="46.73978" lon="-0.50615">
        <ele>219.66</ele>
        <time>2024-06-25T04:33:51.945Z</time>
      </trkpt>
      <trkpt lat="46.73976" lon="-0.50621">
        <ele>219.77</ele>
        <time>2024-06-25T04:34:01.558Z</time>
      </trkpt>
      <trkpt lat="46.73974" lon="-0.50626">
        <ele>219.87</ele>
        <time>2024-06-25T04:34:11.171Z</time>
      </trkpt>
      <trkpt lat="46.73971" lon="-0.50631">
        <ele>219.98</ele>
        <time>2024-06-25T04:34:20.785Z</time>
      </trkpt>
      <trkpt lat="46.73969" lon="-0.50636">
        <ele>220.08</ele>
        <time>2024-06-25T04:34:30.400Z</time>
      </trkpt>
      <trkpt lat="46.73966" lon="-0.50642">
        <ele>220.18</ele>
        <time>2024-06-25T04:34:40.016Z</time>
      </trkpt>
      <trkpt lat="46.73964" lon="-0.50647">
        <ele>220.27</ele>
        <time>2024-06-25T04:34:49.633Z</time>
      </trkpt>
      <trkpt lat="46.73962" lon="-0.50652">
        <ele>220.36</ele>
        <time>2024-06-25T04:34:59.251Z</time>
      </trkpt>
      <trkpt lat="46.73959" lon="-0.50657">
        <ele>220.44</ele>
        <time>2024-06-25T04:35:08.870Z</time>
      </trkpt>
      <trkpt lat="46.73957" lon="-0.50662">
        <ele>220.52</ele>
        <time>2024-06-25T04:35:18.489Z</time>
      </trkpt>
      <trkpt lat="46.73954" lon="-0.50667">
        <ele>220.6</ele>
        <time>2024-06-25T04:35:28.109Z</time>
      </trkpt>
      <trkpt lat="46.73951" lon="-0.50672">
        <ele>220.67</ele>
        <time>2024-06-25T04:35:37.730Z</time>
      </trkpt>
      <trkpt lat="46.73949" lon="-0.50676">
        <ele>220.74</ele>
        <time>2024-06-25T04:35:47.352Z</time>
      </trkpt>
      <trkpt lat="46.73946" lon="-0.50681">
        <ele>220.8</ele>
        <time>2024-06-25T04:35:56.975Z</time>
      </trkpt>
      <trkpt lat="46.73944" lon="-0.50686">
        <ele>220.86</ele>
        <time>2024-06-25T04:36:06.599Z</time>
      </trkpt>
      <trkpt lat="46.73941" lon="-0.50691">
        <ele>220.91</ele>
        <time>2024-06-25T04:36:16.223Z</time>
      </trkpt>
      <trkpt lat="46.73939" lon="-0.50695">
        <ele>220.95</ele>
        <time>2024-06-25T04:36:25.848Z</time>
      </trkpt>
      <trkpt lat="46.73937" lon="-0.507">
        <ele>220.99</ele>
        <time>2024-06-25T04:36:35.474Z</time>
      </trkpt>
      <trkpt lat="46.73934" lon="-0.50704">
        <ele>221.01</ele>
        <time>2024-06-25T04:36:45.101Z</time>
      </trkpt>
      <trkpt lat="46.73932" lon="-0.50709">
        <ele>221.03</ele>
        <time>2024-06-25T04:36:54.729Z</time>
      </trkpt>
      <trkpt lat="46.7393" lon="-0.50714">
        <ele>221.05</ele>
        <time>2024-06-25T04:37:04.357Z</time>
      </trkpt>
      <trkpt lat="46.73927" lon="-0.50718">
        <ele>221.06</ele>
        <time>2024-06-25T04:37:13.986Z</time>
      </trkpt>
      <trkpt lat="46.73926" lon="-0.50722">
        <ele>221.06</ele>
        <time>2024-06-25T04:37:23.616Z</time>
      </trkpt>
      <trkpt lat="46.73924" lon="-0.50727">
        <ele>221.05</ele>
        <time>2024-06-25T04:37:33.246Z</time>
      </trkpt>
      <trkpt lat="46.73924" lon="-0.50732">
        <ele>221.04</ele>
        <time>2024-06-25T04:37:42.877Z</time>
      </trkpt>
      <trkpt lat="46.73924" lon="-0.50736">
        <ele>221.02</ele>
        <time>2024-06-25T04:37:52.509Z</time>
      </trkpt>
      <trkpt lat="46.73923" lon="-0.50738">
        <ele>220.99</ele>
        <time>2024-06-25T04:38:02.141Z</time>
      </trkpt>
      <trkpt lat="46.73923" lon="-0.50741">
        <ele>220.96</ele>
        <time>2024-06-25T04:38:11.773Z</time>
      </trkpt>
      <trkpt lat="46.73922" lon="-0.50741">
        <ele>220.92</ele>
        <time>2024-06-25T04:38:21.406Z</time>
      </trkpt>
      <trkpt lat="46.73922" lon="-0.5074">
        <ele>220.87</ele>
        <time>2024-06-25T04:38:31.039Z</time>
      </trkpt>
      <trkpt lat="46.73925" lon="-0.50746">
        <ele>220.82</ele>
        <time>2024-06-25T04:38:40.673Z</time>
      </trkpt>
      <trkpt lat="46.73927" lon="-0.50747">
        <ele>220.75</ele>
        <time>2024-06-25T04:38:50.307Z</time>
      </trkpt>
      <trkpt lat="46.73929" lon="-0.50748">
        <ele>220.68</ele>
        <time>2024-06-25T04:38:59.942Z</time>
      </trkpt>
      <trkpt lat="46.73932" lon="-0.50749">
        <ele>220.61</ele>
        <time>2024-06-25T04:39:09.577Z</time>
      </trkpt>
      <trkpt lat="46.73935" lon="-0.50751">
        <ele>220.52</ele>
        <time>2024-06-25T04:39:19.213Z</time>
      </trkpt>
      <trkpt lat="46.73939" lon="-0.50753">
        <ele>220.43</ele>
        <time>2024-06-25T04:39:28.850Z</time>
      </trkpt>
      <trkpt lat="46.73943" lon="-0.50754">
        <ele>220.34</ele>
        <time>2024-06-25T04:39:38.488Z</time>
      </trkpt>
      <trkpt lat="46.73947" lon="-0.50756">
        <ele>220.23</ele>
        <time>2024-06-25T04:39:48.126Z</time>
      </trkpt>
      <trkpt lat="46.73952" lon="-0.50758">
        <ele>220.13</ele>
        <time>2024-06-25T04:39:57.765Z</time>
      </trkpt>
      <trkpt lat="46.73956" lon="-0.5076">
        <ele>220.01</ele>
        <time>2024-06-25T04:40:07.405Z</time>
      </trkpt>
      <trkpt lat="46.73959" lon="-0.50764">
        <ele>219.9</ele>
        <time>2024-06-25T04:40:17.046Z</time>
      </trkpt>
      <trkpt lat="46.73964" lon="-0.50768">
        <ele>219.77</ele>
        <time>2024-06-25T04:40:26.688Z</time>
      </trkpt>
      <trkpt lat="46.73968" lon="-0.50772">
        <ele>219.65</ele>
        <time>2024-06-25T04:40:36.331Z</time>
      </trkpt>
      <trkpt lat="46.73972" lon="-0.50777">
        <ele>219.53</ele>
        <time>2024-06-25T04:40:45.975Z</time>
      </trkpt>
      <trkpt lat="46.73976" lon="-0.50783">
        <ele>219.4</ele>
        <time>2024-06-25T04:40:55.620Z</time>
      </trkpt>
      <trkpt lat="46.73981" lon="-0.50789">
        <ele>219.27</ele>
        <time>2024-06-25T04:41:05.267Z</time>
      </trkpt>
      <trkpt lat="46.73985" lon="-0.50796">
        <ele>219.14</ele>
        <time>2024-06-25T04:41:14.915Z</time>
      </trkpt>
      <trkpt lat="46.73989" lon="-0.50803">
        <ele>218.99</ele>
        <time>2024-06-25T04:41:24.564Z</time>
      </trkpt>
      <trkpt lat="46.73993" lon="-0.50811">
        <ele>218.85</ele>
        <time>2024-06-25T04:41:34.215Z</time>
      </trkpt>
      <trkpt lat="46.73997" lon="-0.50818">
        <ele>218.71</ele>
        <time>2024-06-25T04:41:43.867Z</time>
      </trkpt>
      <trkpt lat="46.74" lon="-0.50825">
        <ele>218.56</ele>
        <time>2024-06-25T04:41:53.520Z</time>
      </trkpt>
      <trkpt lat="46.74004" lon="-0.50832">
        <ele>218.41</ele>
        <time>2024-06-25T04:42:03.174Z</time>
      </trkpt>
      <trkpt lat="46.74008" lon="-0.50839">
        <ele>218.26</ele>
        <time>2024-06-25T04:42:12.829Z</time>
      </trkpt>
      <trkpt lat="46.74012" lon="-0.50846">
        <ele>218.12</ele>
        <time>2024-06-25T04:42:22.486Z</time>
      </trkpt>
      <trkpt lat="46.74016" lon="-0.50853">
        <ele>217.97</ele>
        <time>2024-06-25T04:42:32.144Z</time>
      </trkpt>
      <trkpt lat="46.7402" lon="-0.50859">
        <ele>217.82</ele>
        <time>2024-06-25T04:42:41.803Z</time>
      </trkpt>
      <trkpt lat="46.74025" lon="-0.50865">
        <ele>217.67</ele>
        <time>2024-06-25T04:42:51.463Z</time>
      </trkpt>
      <trkpt lat="46.74029" lon="-0.5087">
        <ele>217.51</ele>
        <time>2024-06-25T04:43:01.124Z</time>
      </trkpt>
      <trkpt lat="46.74034" lon="-0.50874">
        <ele>217.36</ele>
        <time>2024-06-25T04:43:10.787Z</time>
      </trkpt>
      <trkpt lat="46.74039" lon="-0.50879">
        <ele>217.21</ele>
        <time>2024-06-25T04:43:20.451Z</time>
      </trkpt>
      <trkpt lat="46.74044" lon="-0.50884">
        <ele>217.05</ele>
        <time>2024-06-25T04:43:30.116Z</time>
      </trkpt>
      <trkpt lat="46.74049" lon="-0.50888">
        <ele>216.9</ele>
        <time>2024-06-25T04:43:39.782Z</time>
      </trkpt>
      <trkpt lat="46.74054" lon="-0.50892">
        <ele>216.74</ele>
        <time>2024-06-25T04:43:49.449Z</time>
      </trkpt>
      <trkpt lat="46.74059" lon="-0.50896">
        <ele>216.58</ele>
        <time>2024-06-25T04:43:59.117Z</time>
      </trkpt>
      <trkpt lat="46.74064" lon="-0.509">
        <ele>216.43</ele>
        <time>2024-06-25T04:44:08.787Z</time>
      </trkpt>
      <trkpt lat="46.7407" lon="-0.50903">
        <ele>216.29</ele>
        <time>2024-06-25T04:44:18.458Z</time>
      </trkpt>
      <trkpt lat="46.74075" lon="-0.50907">
        <ele>216.14</ele>
        <time>2024-06-25T04:44:28.130Z</time>
      </trkpt>
      <trkpt lat="46.74081" lon="-0.5091">
        <ele>216</ele>
        <time>2024-06-25T04:44:37.803Z</time>
      </trkpt>
      <trkpt lat="46.74087" lon="-0.50914">
        <ele>215.86</ele>
        <time>2024-06-25T04:44:47.477Z</time>
      </trkpt>
      <trkpt lat="46.74092" lon="-0.50918">
        <ele>215.71</ele>
        <time>2024-06-25T04:44:57.153Z</time>
      </trkpt>
      <trkpt lat="46.74098" lon="-0.50921">
        <ele>215.58</ele>
        <time>2024-06-25T04:45:06.830Z</time>
      </trkpt>
      <trkpt lat="46.74103" lon="-0.50924">
        <ele>215.44</ele>
        <time>2024-06-25T04:45:16.508Z</time>
      </trkpt>
      <trkpt lat="46.74108" lon="-0.50926">
        <ele>215.3</ele>
        <time>2024-06-25T04:45:26.187Z</time>
      </trkpt>
      <trkpt lat="46.74113" lon="-0.50929">
        <ele>215.16</ele>
        <time>2024-06-25T04:45:35.867Z</time>
      </trkpt>
      <trkpt lat="46.74119" lon="-0.50931">
        <ele>215.02</ele>
        <time>2024-06-25T04:45:45.548Z</time>
      </trkpt>
      <trkpt lat="46.74124" lon="-0.50934">
        <ele>214.88</ele>
        <time>2024-06-25T04:45:55.230Z</time>
      </trkpt>
      <trkpt lat="46.7413" lon="-0.50937">
        <ele>214.74</ele>
        <time>2024-06-25T04:46:04.914Z</time>
      </trkpt>
      <trkpt lat="46.74136" lon="-0.5094">
        <ele>214.61</ele>
        <time>2024-06-25T04:46:14.599Z</time>
      </trkpt>
      <trkpt lat="46.74141" lon="-0.50943">
        <ele>214.47</ele>
        <time>2024-06-25T04:46:24.285Z</time>
      </trkpt>
      <trkpt lat="46.74147" lon="-0.50946">
        <ele>214.33</ele>
        <time>2024-06-25T04:46:33.972Z</time>
      </trkpt>
      <trkpt lat="46.74152" lon="-0.50948">
        <ele>214.19</ele>
        <time>2024-06-25T04:46:43.660Z</time>
      </trkpt>
      <trkpt lat="46.74157" lon="-0.5095">
        <ele>214.05</ele>
        <time>2024-06-25T04:46:53.349Z</time>
      </trkpt>
      <trkpt lat="46.74162" lon="-0.50952">
        <ele>213.91</ele>
        <time>2024-06-25T04:47:03.039Z</time>
      </trkpt>
      <trkpt lat="46.74168" lon="-0.50955">
        <ele>213.77</ele>
        <time>2024-06-25T04:47:12.731Z</time>
      </trkpt>
      <trkpt lat="46.74173" lon="-0.50956">
        <ele>213.63</ele>
        <time>2024-06-25T04:47:22.424Z</time>
      </trkpt>
      <trkpt lat="46.74177" lon="-0.50958">
        <ele>213.5</ele>
        <time>2024-06-25T04:47:32.118Z</time>
      </trkpt>
      <trkpt lat="46.74183" lon="-0.50961">
        <ele>213.36</ele>
        <time>2024-06-25T04:47:41.813Z</time>
      </trkpt>
      <trkpt lat="46.74188" lon="-0.50963">
        <ele>213.22</ele>
        <time>2024-06-25T04:47:51.509Z</time>
      </trkpt>
      <trkpt lat="46.74194" lon="-0.50965">
        <ele>213.07</ele>
        <time>2024-06-25T04:48:01.206Z</time>
      </trkpt>
      <trkpt lat="46.74199" lon="-0.50968">
        <ele>212.92</ele>
        <time>2024-06-25T04:48:10.904Z</time>
      </trkpt>
      <trkpt lat="46.74204" lon="-0.50969">
        <ele>212.77</ele>
        <time>2024-06-25T04:48:20.603Z</time>
      </trkpt>
      <trkpt lat="46.7421" lon="-0.50972">
        <ele>212.61</ele>
        <time>2024-06-25T04:48:30.303Z</time>
      </trkpt>
      <trkpt lat="46.74215" lon="-0.50976">
        <ele>212.45</ele>
        <time>2024-06-25T04:48:40.005Z</time>
      </trkpt>
      <trkpt lat="46.74221" lon="-0.50978">
        <ele>212.29</ele>
        <time>2024-06-25T04:48:49.708Z</time>
      </trkpt>
      <trkpt lat="46.74227" lon="-0.5098">
        <ele>212.12</ele>
        <time>2024-06-25T04:48:59.412Z</time>
      </trkpt>
      <trkpt lat="46.74232" lon="-0.50983">
        <ele>211.96</ele>
        <time>2024-06-25T04:49:09.117Z</time>
      </trkpt>
      <trkpt lat="46.74238" lon="-0.50986">
        <ele>211.8</ele>
        <time>2024-06-25T04:49:18.823Z</time>
      </trkpt>
      <trkpt lat="46.74243" lon="-0.50988">
        <ele>211.64</ele>
        <time>2024-06-25T04:49:28.530Z</time>
      </trkpt>
      <trkpt lat="46.74248" lon="-0.5099">
        <ele>211.47</ele>
        <time>2024-06-25T04:49:38.238Z</time>
      </trkpt>
      <trkpt lat="46.74253" lon="-0.50993">
        <ele>211.31</ele>
        <time>2024-06-25T04:49:47.948Z</time>
      </trkpt>
      <trkpt lat="46.74259" lon="-0.50995">
        <ele>211.14</ele>
        <time>2024-06-25T04:49:57.659Z</time>
      </trkpt>
      <trkpt lat="46.74264" lon="-0.50998">
        <ele>210.98</ele>
        <time>2024-06-25T04:50:07.371Z</time>
      </trkpt>
      <trkpt lat="46.74269" lon="-0.51002">
        <ele>210.82</ele>
        <time>2024-06-25T04:50:17.084Z</time>
      </trkpt>
      <trkpt lat="46.74273" lon="-0.51005">
        <ele>210.65</ele>
        <time>2024-06-25T04:50:26.798Z</time>
      </trkpt>
      <trkpt lat="46.74278" lon="-0.5101">
        <ele>210.49</ele>
        <time>2024-06-25T04:50:36.513Z</time>
      </trkpt>
      <trkpt lat="46.74282" lon="-0.51016">
        <ele>210.33</ele>
        <time>2024-06-25T04:50:46.229Z</time>
      </trkpt>
      <trkpt lat="46.74286" lon="-0.51022">
        <ele>210.16</ele>
        <time>2024-06-25T04:50:55.946Z</time>
      </trkpt>
      <trkpt lat="46.7429" lon="-0.51028">
        <ele>209.99</ele>
        <time>2024-06-25T04:51:05.664Z</time>
      </trkpt>
      <trkpt lat="46.74295" lon="-0.51034">
        <ele>209.81</ele>
        <time>2024-06-25T04:51:15.384Z</time>
      </trkpt>
      <trkpt lat="46.74298" lon="-0.5104">
        <ele>209.62</ele>
        <time>2024-06-25T04:51:25.105Z</time>
      </trkpt>
      <trkpt lat="46.74302" lon="-0.51047">
        <ele>209.45</ele>
        <time>2024-06-25T04:51:34.827Z</time>
      </trkpt>
      <trkpt lat="46.74306" lon="-0.51054">
        <ele>209.27</ele>
        <time>2024-06-25T04:51:44.550Z</time>
      </trkpt>
      <trkpt lat="46.74309" lon="-0.5106">
        <ele>209.09</ele>
        <time>2024-06-25T04:51:54.274Z</time>
      </trkpt>
      <trkpt lat="46.74313" lon="-0.51067">
        <ele>208.9</ele>
        <time>2024-06-25T04:52:03.999Z</time>
      </trkpt>
      <trkpt lat="46.74316" lon="-0.51074">
        <ele>208.71</ele>
        <time>2024-06-25T04:52:13.726Z</time>
      </trkpt>
      <trkpt lat="46.74319" lon="-0.51081">
        <ele>208.51</ele>
        <time>2024-06-25T04:52:23.454Z</time>
      </trkpt>
      <trkpt lat="46.74322" lon="-0.51088">
        <ele>208.32</ele>
        <time>2024-06-25T04:52:33.183Z</time>
      </trkpt>
      <trkpt lat="46.74325" lon="-0.51095">
        <ele>208.12</ele>
        <time>2024-06-25T04:52:42.913Z</time>
      </trkpt>
      <trkpt lat="46.74328" lon="-0.51103">
        <ele>207.92</ele>
        <time>2024-06-25T04:52:52.644Z</time>
      </trkpt>
      <trkpt lat="46.74331" lon="-0.51109">
        <ele>207.72</ele>
        <time>2024-06-25T04:53:02.376Z</time>
      </trkpt>
      <trkpt lat="46.74334" lon="-0.51117">
        <ele>207.52</ele>
        <time>2024-06-25T04:53:12.110Z</time>
      </trkpt>
      <trkpt lat="46.74337" lon="-0.51124">
        <ele>207.32</ele>
        <time>2024-06-25T04:53:21.845Z</time>
      </trkpt>
      <trkpt lat="46.74341" lon="-0.51131">
        <ele>207.11</ele>
        <time>2024-06-25T04:53:31.581Z</time>
      </trkpt>
      <trkpt lat="46.74344" lon="-0.51138">
        <ele>206.9</ele>
        <time>2024-06-25T04:53:41.318Z</time>
      </trkpt>
      <trkpt lat="46.74348" lon="-0.51145">
        <ele>206.7</ele>
        <time>2024-06-25T04:53:51.056Z</time>
      </trkpt>
      <trkpt lat="46.74351" lon="-0.51151">
        <ele>206.5</ele>
        <time>2024-06-25T04:54:00.795Z</time>
      </trkpt>
      <trkpt lat="46.74355" lon="-0.51158">
        <ele>206.29</ele>
        <time>2024-06-25T04:54:10.536Z</time>
      </trkpt>
      <trkpt lat="46.74359" lon="-0.51164">
        <ele>206.09</ele>
        <time>2024-06-25T04:54:20.278Z</time>
      </trkpt>
      <trkpt lat="46.74363" lon="-0.51171">
        <ele>205.88</ele>
        <time>2024-06-25T04:54:30.021Z</time>
      </trkpt>
      <trkpt lat="46.74367" lon="-0.51177">
        <ele>205.68</ele>
        <time>2024-06-25T04:54:39.765Z</time>
      </trkpt>
      <trkpt lat="46.74372" lon="-0.51183">
        <ele>205.47</ele>
        <time>2024-06-25T04:54:49.510Z</time>
      </trkpt>
      <trkpt lat="46.74376" lon="-0.51189">
        <ele>205.27</ele>
        <time>2024-06-25T04:54:59.257Z</time>
      </trkpt>
      <trkpt lat="46.74381" lon="-0.51195">
        <ele>205.06</ele>
        <time>2024-06-25T04:55:09.005Z</time>
      </trkpt>
      <trkpt lat="46.74385" lon="-0.51201">
        <ele>204.86</ele>
        <time>2024-06-25T04:55:18.754Z</time>
      </trkpt>
      <trkpt lat="46.7439" lon="-0.51208">
        <ele>204.67</ele>
        <time>2024-06-25T04:55:28.504Z</time>
      </trkpt>
      <trkpt lat="46.74394" lon="-0.51214">
        <ele>204.47</ele>
        <time>2024-06-25T04:55:38.256Z</time>
      </trkpt>
      <trkpt lat="46.74399" lon="-0.5122">
        <ele>204.28</ele>
        <time>2024-06-25T04:55:48.009Z</time>
      </trkpt>
      <trkpt lat="46.74403" lon="-0.51225">
        <ele>204.09</ele>
        <time>2024-06-25T04:55:57.763Z</time>
      </trkpt>
      <trkpt lat="46.74407" lon="-0.51231">
        <ele>203.89</ele>
        <time>2024-06-25T04:56:07.518Z</time>
      </trkpt>
      <trkpt lat="46.74412" lon="-0.51236">
        <ele>203.7</ele>
        <time>2024-06-25T04:56:17.274Z</time>
      </trkpt>
      <trkpt lat="46.74417" lon="-0.51241">
        <ele>203.5</ele>
        <time>2024-06-25T04:56:27.032Z</time>
      </trkpt>
      <trkpt lat="46.74422" lon="-0.51246">
        <ele>203.32</ele>
        <time>2024-06-25T04:56:36.791Z</time>
      </trkpt>
      <trkpt lat="46.74427" lon="-0.51251">
        <ele>203.13</ele>
        <time>2024-06-25T04:56:46.551Z</time>
      </trkpt>
      <trkpt lat="46.74432" lon="-0.51255">
        <ele>202.94</ele>
        <time>2024-06-25T04:56:56.312Z</time>
      </trkpt>
      <trkpt lat="46.74437" lon="-0.51259">
        <ele>202.76</ele>
        <time>2024-06-25T04:57:06.074Z</time>
      </trkpt>
      <trkpt lat="46.74442" lon="-0.51264">
        <ele>202.58</ele>
        <time>2024-06-25T04:57:15.837Z</time>
      </trkpt>
      <trkpt lat="46.74447" lon="-0.5127">
        <ele>202.39</ele>
        <time>2024-06-25T04:57:25.602Z</time>
      </trkpt>
      <trkpt lat="46.74452" lon="-0.51276">
        <ele>202.21</ele>
        <time>2024-06-25T04:57:35.368Z</time>
      </trkpt>
      <trkpt lat="46.74457" lon="-0.51283">
        <ele>202.04</ele>
        <time>2024-06-25T04:57:45.135Z</time>
      </trkpt>
      <trkpt lat="46.74462" lon="-0.51291">
        <ele>201.88</ele>
        <time>2024-06-25T04:57:54.904Z</time>
      </trkpt>
      <trkpt lat="46.74467" lon="-0.51299">
        <ele>201.72</ele>
        <time>2024-06-25T04:58:04.674Z</time>
      </trkpt>
      <trkpt lat="46.74471" lon="-0.51307">
        <ele>201.57</ele>
        <time>2024-06-25T04:58:14.446Z</time>
      </trkpt>
      <trkpt lat="46.74475" lon="-0.51314">
        <ele>201.42</ele>
        <time>2024-06-25T04:58:24.219Z</time>
      </trkpt>
      <trkpt lat="46.74479" lon="-0.51321">
        <ele>201.28</ele>
        <time>2024-06-25T04:58:33.993Z</time>
      </trkpt>
      <trkpt lat="46.74482" lon="-0.51327">
        <ele>201.15</ele>
        <time>2024-06-25T04:58:43.768Z</time>
      </trkpt>
      <trkpt lat="46.74485" lon="-0.51333">
        <ele>201.03</ele>
        <time>2024-06-25T04:58:53.544Z</time>
      </trkpt>
      <trkpt lat="46.74488" lon="-0.51339">
        <ele>200.92</ele>
        <time>2024-06-25T04:59:03.321Z</time>
      </trkpt>
      <trkpt lat="46.74492" lon="-0.51343">
        <ele>200.82</ele>
        <time>2024-06-25T04:59:13.099Z</time>
      </trkpt>
      <trkpt lat="46.74495" lon="-0.51345">
        <ele>200.73</ele>
        <time>2024-06-25T04:59:22.878Z</time>
      </trkpt>
      <trkpt lat="46.745" lon="-0.51345">
        <ele>200.63</ele>
        <time>2024-06-25T04:59:32.658Z</time>
      </trkpt>
      <trkpt lat="46.74504" lon="-0.51342">
        <ele>200.55</ele>
        <time>2024-06-25T04:59:42.439Z</time>
      </trkpt>
      <trkpt lat="46.74507" lon="-0.51338">
        <ele>200.48</ele>
        <time>2024-06-25T04:59:52.221Z</time>
      </trkpt>
      <trkpt lat="46.74512" lon="-0.51334">
        <ele>200.42</ele>
        <time>2024-06-25T05:00:02.004Z</time>
      </trkpt>
      <trkpt lat="46.74515" lon="-0.5133">
        <ele>200.37</ele>
        <time>2024-06-25T05:00:11.788Z</time>
      </trkpt>
      <trkpt lat="46.74519" lon="-0.51327">
        <ele>200.32</ele>
        <time>2024-06-25T05:00:21.573Z</time>
      </trkpt>
      <trkpt lat="46.74523" lon="-0.51322">
        <ele>200.28</ele>
        <time>2024-06-25T05:00:31.359Z</time>
      </trkpt>
      <trkpt lat="46.74527" lon="-0.51318">
        <ele>200.25</ele>
        <time>2024-06-25T05:00:41.146Z</time>
      </trkpt>
      <trkpt lat="46.74531" lon="-0.51314">
        <ele>200.23</ele>
        <time>2024-06-25T05:00:50.933Z</time>
      </trkpt>
      <trkpt lat="46.74535" lon="-0.51309">
        <ele>200.21</ele>
        <time>2024-06-25T05:01:00.722Z</time>
      </trkpt>
      <trkpt lat="46.7454" lon="-0.51305">
        <ele>200.21</ele>
        <time>2024-06-25T05:01:10.512Z</time>
      </trkpt>
      <trkpt lat="46.74544" lon="-0.513">
        <ele>200.21</ele>
        <time>2024-06-25T05:01:20.303Z</time>
      </trkpt>
      <trkpt lat="46.74548" lon="-0.51296">
        <ele>200.22</ele>
        <time>2024-06-25T05:01:30.095Z</time>
      </trkpt>
      <trkpt lat="46.74552" lon="-0.51291">
        <ele>200.24</ele>
        <time>2024-06-25T05:01:39.888Z</time>
      </trkpt>
      <trkpt lat="46.74556" lon="-0.51287">
        <ele>200.26</ele>
        <time>2024-06-25T05:01:49.682Z</time>
      </trkpt>
      <trkpt lat="46.7456" lon="-0.51282">
        <ele>200.29</ele>
        <time>2024-06-25T05:01:59.477Z</time>
      </trkpt>
      <trkpt lat="46.74564" lon="-0.51277">
        <ele>200.33</ele>
        <time>2024-06-25T05:02:09.273Z</time>
      </trkpt>
      <trkpt lat="46.74567" lon="-0.51273">
        <ele>200.37</ele>
        <time>2024-06-25T05:02:19.070Z</time>
      </trkpt>
      <trkpt lat="46.74571" lon="-0.51268">
        <ele>200.41</ele>
        <time>2024-06-25T05:02:28.868Z</time>
      </trkpt>
      <trkpt lat="46.74575" lon="-0.51265">
        <ele>200.46</ele>
        <time>2024-06-25T05:02:38.667Z</time>
      </trkpt>
      <trkpt lat="46.74579" lon="-0.51261">
        <ele>200.51</ele>
        <time>2024-06-25T05:02:48.466Z</time>
      </trkpt>
      <trkpt lat="46.74582" lon="-0.51257">
        <ele>200.58</ele>
        <time>2024-06-25T05:02:58.266Z</time>
      </trkpt>
      <trkpt lat="46.74585" lon="-0.51254">
        <ele>200.65</ele>
        <time>2024-06-25T05:03:08.067Z</time>
      </trkpt>
      <trkpt lat="46.74587" lon="-0.5125">
        <ele>200.73</ele>
        <time>2024-06-25T05:03:17.869Z</time>
      </trkpt>
      <trkpt lat="46.74589" lon="-0.51247">
        <ele>200.81</ele>
        <time>2024-06-25T05:03:27.671Z</time>
      </trkpt>
      <trkpt lat="46.74592" lon="-0.51244">
        <ele>200.9</ele>
        <time>2024-06-25T05:03:37.474Z</time>
      </trkpt>
      <trkpt lat="46.74595" lon="-0.5124">
        <ele>201.01</ele>
        <time>2024-06-25T05:03:47.278Z</time>
      </trkpt>
      <trkpt lat="46.74597" lon="-0.51237">
        <ele>201.11</ele>
        <time>2024-06-25T05:03:57.082Z</time>
      </trkpt>
      <trkpt lat="46.746" lon="-0.51233">
        <ele>201.22</ele>
        <time>2024-06-25T05:04:06.887Z</time>
      </trkpt>
      <trkpt lat="46.74603" lon="-0.5123">
        <ele>201.34</ele>
        <time>2024-06-25T05:04:16.693Z</time>
      </trkpt>
      <trkpt lat="46.74606" lon="-0.51227">
        <ele>201.47</ele>
        <time>2024-06-25T05:04:26.500Z</time>
      </trkpt>
      <trkpt lat="46.74609" lon="-0.51224">
        <ele>201.6</ele>
        <time>2024-06-25T05:04:36.307Z</time>
      </trkpt>
      <trkpt lat="46.74612" lon="-0.51221">
        <ele>201.73</ele>
        <time>2024-06-25T05:04:46.115Z</time>
      </trkpt>
      <trkpt lat="46.74615" lon="-0.51217">
        <ele>201.87</ele>
        <time>2024-06-25T05:04:55.924Z</time>
      </trkpt>
      <trkpt lat="46.74618" lon="-0.51213">
        <ele>202.01</ele>
        <time>2024-06-25T05:05:05.734Z</time>
      </trkpt>
      <trkpt lat="46.7462" lon="-0.5121">
        <ele>202.16</ele>
        <time>2024-06-25T05:05:15.544Z</time>
      </trkpt>
      <trkpt lat="46.74623" lon="-0.51207">
        <ele>202.32</ele>
        <time>2024-06-25T05:05:25.355Z</time>
      </trkpt>
      <trkpt lat="46.74626" lon="-0.51203">
        <ele>202.47</ele>
        <time>2024-06-25T05:05:35.167Z</time>
      </trkpt>
      <trkpt lat="46.74629" lon="-0.51199">
        <ele>202.64</ele>
        <time>2024-06-25T05:05:44.980Z</time>
      </trkpt>
      <trkpt lat="46.74631" lon="-0.51196">
        <ele>202.8</ele>
        <time>2024-06-25T05:05:54.793Z</time>
      </trkpt>
      <trkpt lat="46.74634" lon="-0.51193">
        <ele>202.97</ele>
        <time>2024-06-25T05:06:04.607Z</time>
      </trkpt>
      <trkpt lat="46.74636" lon="-0.51189">
        <ele>203.14</ele>
        <time>2024-06-25T05:06:14.422Z</time>
      </trkpt>
      <trkpt lat="46.74639" lon="-0.51186">
        <ele>203.32</ele>
        <time>2024-06-25T05:06:24.237Z</time>
      </trkpt>
      <trkpt lat="46.74641" lon="-0.51183">
        <ele>203.5</ele>
        <time>2024-06-25T05:06:34.053Z</time>
      </trkpt>
      <trkpt lat="46.74644" lon="-0.51179">
        <ele>203.68</ele>
        <time>2024-06-25T05:06:43.870Z</time>
      </trkpt>
      <trkpt lat="46.74647" lon="-0.51176">
        <ele>203.87</ele>
        <time>2024-06-25T05:06:53.688Z</time>
      </trkpt>
      <trkpt lat="46.74649" lon="-0.51173">
        <ele>204.05</ele>
        <time>2024-06-25T05:07:03.506Z</time>
      </trkpt>
      <trkpt lat="46.74652" lon="-0.5117">
        <ele>204.25</ele>
        <time>2024-06-25T05:07:13.325Z</time>
      </trkpt>
      <trkpt lat="46.74654" lon="-0.51167">
        <ele>204.44</ele>
        <time>2024-06-25T05:07:23.144Z</time>
      </trkpt>
      <trkpt lat="46.74657" lon="-0.51164">
        <ele>204.63</ele>
        <time>2024-06-25T05:07:32.964Z</time>
      </trkpt>
      <trkpt lat="46.74659" lon="-0.51161">
        <ele>204.83</ele>
        <time>2024-06-25T05:07:42.785Z</time>
      </trkpt>
      <trkpt lat="46.74662" lon="-0.51158">
        <ele>205.03</ele>
        <time>2024-06-25T05:07:52.606Z</time>
      </trkpt>
      <trkpt lat="46.74664" lon="-0.51155">
        <ele>205.22</ele>
        <time>2024-06-25T05:08:02.428Z</time>
      </trkpt>
      <trkpt lat="46.74666" lon="-0.51151">
        <ele>205.42</ele>
        <time>2024-06-25T05:08:12.251Z</time>
      </trkpt>
      <trkpt lat="46.74669" lon="-0.51149">
        <ele>205.62</ele>
        <time>2024-06-25T05:08:22.074Z</time>
      </trkpt>
      <trkpt lat="46.7467" lon="-0.51146">
        <ele>205.82</ele>
        <time>2024-06-25T05:08:31.898Z</time>
      </trkpt>
      <trkpt lat="46.74672" lon="-0.51143">
        <ele>206.02</ele>
        <time>2024-06-25T05:08:41.722Z</time>
      </trkpt>
      <trkpt lat="46.74675" lon="-0.5114">
        <ele>206.21</ele>
        <time>2024-06-25T05:08:51.547Z</time>
      </trkpt>
      <trkpt lat="46.74678" lon="-0.51137">
        <ele>206.41</ele>
        <time>2024-06-25T05:09:01.373Z</time>
      </trkpt>
      <trkpt lat="46.7468" lon="-0.51133">
        <ele>206.61</ele>
        <time>2024-06-25T05:09:11.199Z</time>
      </trkpt>
      <trkpt lat="46.74682" lon="-0.51129">
        <ele>206.81</ele>
        <time>2024-06-25T05:09:21.026Z</time>
      </trkpt>
      <trkpt lat="46.74684" lon="-0.51126">
        <ele>207.01</ele>
        <time>2024-06-25T05:09:30.854Z</time>
      </trkpt>
      <trkpt lat="46.74686" lon="-0.51123">
        <ele>207.21</ele>
        <time>2024-06-25T05:09:40.682Z</time>
      </trkpt>
      <trkpt lat="46.74689" lon="-0.51119">
        <ele>207.4</ele>
        <time>2024-06-25T05:09:50.511Z</time>
      </trkpt>
      <trkpt lat="46.74692" lon="-0.51115">
        <ele>207.59</ele>
        <time>2024-06-25T05:10:00.341Z</time>
      </trkpt>
      <trkpt lat="46.74695" lon="-0.51112">
        <ele>207.78</ele>
        <time>2024-06-25T05:10:10.172Z</time>
      </trkpt>
      <trkpt lat="46.74697" lon="-0.51108">
        <ele>207.97</ele>
        <time>2024-06-25T05:10:20.003Z</time>
      </trkpt>
      <trkpt lat="46.747" lon="-0.51105">
        <ele>208.15</ele>
        <time>2024-06-25T05:10:29.835Z</time>
      </trkpt>
      <trkpt lat="46.74703" lon="-0.51102">
        <ele>208.33</ele>
        <time>2024-06-25T05:10:39.668Z</time>
      </trkpt>
      <trkpt lat="46.74706" lon="-0.51099">
        <ele>208.5</ele>
        <time>2024-06-25T05:10:49.501Z</time>
      </trkpt>
      <trkpt lat="46.74708" lon="-0.51096">
        <ele>208.67</ele>
        <time>2024-06-25T05:10:59.335Z</time>
      </trkpt>
      <trkpt lat="46.7471" lon="-0.51092">
        <ele>208.84</ele>
        <time>2024-06-25T05:11:09.170Z</time>
      </trkpt>
      <trkpt lat="46.74713" lon="-0.51088">
        <ele>209</ele>
        <time>2024-06-25T05:11:19.005Z</time>
      </trkpt>
      <trkpt lat="46.74716" lon="-0.51085">
        <ele>209.16</ele>
        <time>2024-06-25T05:11:28.841Z</time>
      </trkpt>
      <trkpt lat="46.74718" lon="-0.51081">
        <ele>209.31</ele>
        <time>2024-06-25T05:11:38.678Z</time>
      </trkpt>
      <trkpt lat="46.7472" lon="-0.51077">
        <ele>209.46</ele>
        <time>2024-06-25T05:11:48.515Z</time>
      </trkpt>
      <trkpt lat="46.74723" lon="-0.51075">
        <ele>209.6</ele>
        <time>2024-06-25T05:11:58.353Z</time>
      </trkpt>
      <trkpt lat="46.74725" lon="-0.51072">
        <ele>209.74</ele>
        <time>2024-06-25T05:12:08.192Z</time>
      </trkpt>
      <trkpt lat="46.74727" lon="-0.51068">
        <ele>209.88</ele>
        <time>2024-06-25T05:12:18.031Z</time>
      </trkpt>
      <trkpt lat="46.7473" lon="-0.51064">
        <ele>210.01</ele>
        <time>2024-06-25T05:12:27.871Z</time>
      </trkpt>
      <trkpt lat="46.74733" lon="-0.51061">
        <ele>210.14</ele>
        <time>2024-06-25T05:12:37.712Z</time>
      </trkpt>
      <trkpt lat="46.74735" lon="-0.51058">
        <ele>210.26</ele>
        <time>2024-06-25T05:12:47.554Z</time>
      </trkpt>
      <trkpt lat="46.74738" lon="-0.51054">
        <ele>210.38</ele>
        <time>2024-06-25T05:12:57.396Z</time>
      </trkpt>
      <trkpt lat="46.7474" lon="-0.51051">
        <ele>210.5</ele>
        <time>2024-06-25T05:13:07.239Z</time>
      </trkpt>
      <trkpt lat="46.74743" lon="-0.51047">
        <ele>210.61</ele>
        <time>2024-06-25T05:13:17.083Z</time>
      </trkpt>
      <trkpt lat="46.74746" lon="-0.51043">
        <ele>210.71</ele>
        <time>2024-06-25T05:13:26.927Z</time>
      </trkpt>
      <trkpt lat="46.74749" lon="-0.51039">
        <ele>210.82</ele>
        <time>2024-06-25T05:13:36.772Z</time>
      </trkpt>
      <trkpt lat="46.74751" lon="-0.51036">
        <ele>210.91</ele>
        <time>2024-06-25T05:13:46.618Z</time>
      </trkpt>
      <trkpt lat="46.74754" lon="-0.51033">
        <ele>211.01</ele>
        <time>2024-06-25T05:13:56.465Z</time>
      </trkpt>
      <trkpt lat="46.74757" lon="-0.51029">
        <ele>211.09</ele>
        <time>2024-06-25T05:14:06.312Z</time>
      </trkpt>
      <trkpt lat="46.7476" lon="-0.51025">
        <ele>211.18</ele>
        <time>2024-06-25T05:14:16.160Z</time>
      </trkpt>
      <trkpt lat="46.74762" lon="-0.51021">
        <ele>211.26</ele>
        <time>2024-06-25T05:14:26.009Z</time>
      </trkpt>
      <trkpt lat="46.74765" lon="-0.51017">
        <ele>211.33</ele>
        <time>2024-06-25T05:14:35.859Z</time>
      </trkpt>
      <trkpt lat="46.74768" lon="-0.51013">
        <ele>211.4</ele>
        <time>2024-06-25T05:14:45.710Z</time>
      </trkpt>
      <trkpt lat="46.74771" lon="-0.51009">
        <ele>211.47</ele>
        <time>2024-06-25T05:14:55.561Z</time>
      </trkpt>
      <trkpt lat="46.74773" lon="-0.51004">
        <ele>211.53</ele>
        <time>2024-06-25T05:15:05.413Z</time>
      </trkpt>
      <trkpt lat="46.74776" lon="-0.51">
        <ele>211.59</ele>
        <time>2024-06-25T05:15:15.266Z</time>
      </trkpt>
      <trkpt lat="46.74779" lon="-0.50996">
        <ele>211.64</ele>
        <time>2024-06-25T05:15:25.120Z</time>
      </trkpt>
      <trkpt lat="46.74781" lon="-0.50991">
        <ele>211.69</ele>
        <time>2024-06-25T05:15:34.975Z</time>
      </trkpt>
      <trkpt lat="46.74784" lon="-0.50986">
        <ele>211.74</ele>
        <time>2024-06-25T05:15:44.831Z</time>
      </trkpt>
      <trkpt lat="46.74787" lon="-0.50981">
        <ele>211.78</ele>
        <time>2024-06-25T05:15:54.687Z</time>
      </trkpt>
      <trkpt lat="46.7479" lon="-0.50976">
        <ele>211.82</ele>
        <time>2024-06-25T05:16:04.544Z</time>
      </trkpt>
      <trkpt lat="46.74793" lon="-0.5097">
        <ele>211.85</ele>
        <time>2024-06-25T05:16:14.402Z</time>
      </trkpt>
      <trkpt lat="46.74796" lon="-0.50965">
        <ele>211.88</ele>
        <time>2024-06-25T05:16:24.261Z</time>
      </trkpt>
      <trkpt lat="46.74799" lon="-0.50959">
        <ele>211.9</ele>
        <time>2024-06-25T05:16:34.121Z</time>
      </trkpt>
      <trkpt lat="46.74802" lon="-0.50954">
        <ele>211.92</ele>
        <time>2024-06-25T05:16:43.982Z</time>
      </trkpt>
      <trkpt lat="46.74805" lon="-0.50948">
        <ele>211.94</ele>
        <time>2024-06-25T05:16:53.844Z</time>
      </trkpt>
      <trkpt lat="46.74808" lon="-0.50942">
        <ele>211.96</ele>
        <time>2024-06-25T05:17:03.707Z</time>
      </trkpt>
      <trkpt lat="46.74812" lon="-0.50937">
        <ele>211.97</ele>
        <time>2024-06-25T05:17:13.571Z</time>
      </trkpt>
      <trkpt lat="46.74815" lon="-0.50932">
        <ele>211.98</ele>
        <time>2024-06-25T05:17:23.436Z</time>
      </trkpt>
      <trkpt lat="46.74819" lon="-0.50926">
        <ele>211.99</ele>
        <time>2024-06-25T05:17:33.302Z</time>
      </trkpt>
      <trkpt lat="46.74822" lon="-0.50921">
        <ele>211.99</ele>
        <time>2024-06-25T05:17:43.169Z</time>
      </trkpt>
      <trkpt lat="46.74826" lon="-0.50917">
        <ele>212</ele>
        <time>2024-06-25T05:17:53.037Z</time>
      </trkpt>
      <trkpt lat="46.74831" lon="-0.50914">
        <ele>212</ele>
        <time>2024-06-25T05:18:02.906Z</time>
      </trkpt>
      <trkpt lat="46.74836" lon="-0.50916">
        <ele>212</ele>
        <time>2024-06-25T05:18:12.776Z</time>
      </trkpt>
      <trkpt lat="46.74841" lon="-0.50918">
        <ele>212</ele>
        <time>2024-06-25T05:18:22.647Z</time>
      </trkpt>
      <trkpt lat="46.74845" lon="-0.50922">
        <ele>212.01</ele>
        <time>2024-06-25T05:18:32.519Z</time>
      </trkpt>
      <trkpt lat="46.74848" lon="-0.50926">
        <ele>212.02</ele>
        <time>2024-06-25T05:18:42.392Z</time>
      </trkpt>
      <trkpt lat="46.74851" lon="-0.50931">
        <ele>212.02</ele>
        <time>2024-06-25T05:18:52.266Z</time>
      </trkpt>
      <trkpt lat="46.74855" lon="-0.50935">
        <ele>212.03</ele>
        <time>2024-06-25T05:19:02.141Z</time>
      </trkpt>
      <trkpt lat="46.74858" lon="-0.50941">
        <ele>212.03</ele>
        <time>2024-06-25T05:19:12.017Z</time>
      </trkpt>
      <trkpt lat="46.74861" lon="-0.50945">
        <ele>212.03</ele>
        <time>2024-06-25T05:19:21.894Z</time>
      </trkpt>
      <trkpt lat="46.74864" lon="-0.50949">
        <ele>212.03</ele>
        <time>2024-06-25T05:19:31.772Z</time>
      </trkpt>
      <trkpt lat="46.74867" lon="-0.50954">
        <ele>212.03</ele>
        <time>2024-06-25T05:19:41.650Z</time>
      </trkpt>
      <trkpt lat="46.7487" lon="-0.50958">
        <ele>212.03</ele>
        <time>2024-06-25T05:19:51.529Z</time>
      </trkpt>
      <trkpt lat="46.74873" lon="-0.50962">
        <ele>212.03</ele>
        <time>2024-06-25T05:20:01.409Z</time>
      </trkpt>
      <trkpt lat="46.74876" lon="-0.50967">
        <ele>212.03</ele>
        <time>2024-06-25T05:20:11.290Z</time>
      </trkpt>
      <trkpt lat="46.74879" lon="-0.50972">
        <ele>212.04</ele>
        <time>2024-06-25T05:20:21.172Z</time>
      </trkpt>
      <trkpt lat="46.74881" lon="-0.50976">
        <ele>212.04</ele>
        <time>2024-06-25T05:20:31.055Z</time>
      </trkpt>
      <trkpt lat="46.74884" lon="-0.5098">
        <ele>212.05</ele>
        <time>2024-06-25T05:20:40.939Z</time>
      </trkpt>
      <trkpt lat="46.74887" lon="-0.50985">
        <ele>212.06</ele>
        <time>2024-06-25T05:20:50.823Z</time>
      </trkpt>
      <trkpt lat="46.7489" lon="-0.50989">
        <ele>212.06</ele>
        <time>2024-06-25T05:21:00.708Z</time>
      </trkpt>
      <trkpt lat="46.74893" lon="-0.50994">
        <ele>212.07</ele>
        <time>2024-06-25T05:21:10.594Z</time>
      </trkpt>
      <trkpt lat="46.74897" lon="-0.50998">
        <ele>212.07</ele>
        <time>2024-06-25T05:21:20.481Z</time>
      </trkpt>
      <trkpt lat="46.749" lon="-0.51002">
        <ele>212.07</ele>
        <time>2024-06-25T05:21:30.369Z</time>
      </trkpt>
      <trkpt lat="46.74903" lon="-0.51007">
        <ele>212.07</ele>
        <time>2024-06-25T05:21:40.258Z</time>
      </trkpt>
      <trkpt lat="46.74906" lon="-0.51011">
        <ele>212.07</ele>
        <time>2024-06-25T05:21:50.147Z</time>
      </trkpt>
      <trkpt lat="46.74909" lon="-0.51015">
        <ele>212.07</ele>
        <time>2024-06-25T05:22:00.037Z</time>
      </trkpt>
      <trkpt lat="46.74911" lon="-0.51019">
        <ele>212.07</ele>
        <time>2024-06-25T05:22:09.928Z</time>
      </trkpt>
      <trkpt lat="46.74914" lon="-0.51024">
        <ele>212.06</ele>
        <time>2024-06-25T05:22:19.820Z</time>
      </trkpt>
      <trkpt lat="46.74917" lon="-0.51028">
        <ele>212.06</ele>
        <time>2024-06-25T05:22:29.713Z</time>
      </trkpt>
      <trkpt lat="46.7492" lon="-0.51032">
        <ele>212.05</ele>
        <time>2024-06-25T05:22:39.607Z</time>
      </trkpt>
      <trkpt lat="46.74923" lon="-0.51036">
        <ele>212.04</ele>
        <time>2024-06-25T05:22:49.501Z</time>
      </trkpt>
      <trkpt lat="46.74926" lon="-0.51041">
        <ele>212.03</ele>
        <time>2024-06-25T05:22:59.396Z</time>
      </trkpt>
      <trkpt lat="46.74929" lon="-0.51045">
        <ele>212.02</ele>
        <time>2024-06-25T05:23:09.292Z</time>
      </trkpt>
      <trkpt lat="46.74931" lon="-0.5105">
        <ele>212</ele>
        <time>2024-06-25T05:23:19.189Z</time>
      </trkpt>
      <trkpt lat="46.74934" lon="-0.51054">
        <ele>211.98</ele>
        <time>2024-06-25T05:23:29.087Z</time>
      </trkpt>
      <trkpt lat="46.74937" lon="-0.51058">
        <ele>211.96</ele>
        <time>2024-06-25T05:23:38.986Z</time>
      </trkpt>
      <trkpt lat="46.7494" lon="-0.51062">
        <ele>211.93</ele>
        <time>2024-06-25T05:23:48.885Z</time>
      </trkpt>
      <trkpt lat="46.74943" lon="-0.51067">
        <ele>211.9</ele>
        <time>2024-06-25T05:23:58.785Z</time>
      </trkpt>
      <trkpt lat="46.74946" lon="-0.51072">
        <ele>211.88</ele>
        <time>2024-06-25T05:24:08.686Z</time>
      </trkpt>
      <trkpt lat="46.74949" lon="-0.51076">
        <ele>211.85</ele>
        <time>2024-06-25T05:24:18.588Z</time>
      </trkpt>
      <trkpt lat="46.74952" lon="-0.51081">
        <ele>211.82</ele>
        <time>2024-06-25T05:24:28.491Z</time>
      </trkpt>
      <trkpt lat="46.74955" lon="-0.51085">
        <ele>211.79</ele>
        <time>2024-06-25T05:24:38.395Z</time>
      </trkpt>
      <trkpt lat="46.74958" lon="-0.51089">
        <ele>211.75</ele>
        <time>2024-06-25T05:24:48.300Z</time>
      </trkpt>
      <trkpt lat="46.74961" lon="-0.51094">
        <ele>211.72</ele>
        <time>2024-06-25T05:24:58.205Z</time>
      </trkpt>
      <trkpt lat="46.74964" lon="-0.51099">
        <ele>211.68</ele>
        <time>2024-06-25T05:25:08.111Z</time>
      </trkpt>
      <trkpt lat="46.74967" lon="-0.51104">
        <ele>211.64</ele>
        <time>2024-06-25T05:25:18.018Z</time>
      </trkpt>
      <trkpt lat="46.7497" lon="-0.51109">
        <ele>211.6</ele>
        <time>2024-06-25T05:25:27.926Z</time>
      </trkpt>
      <trkpt lat="46.74973" lon="-0.51114">
        <ele>211.56</ele>
        <time>2024-06-25T05:25:37.835Z</time>
      </trkpt>
      <trkpt lat="46.74976" lon="-0.51119">
        <ele>211.51</ele>
        <time>2024-06-25T05:25:47.745Z</time>
      </trkpt>
      <trkpt lat="46.74979" lon="-0.51125">
        <ele>211.45</ele>
        <time>2024-06-25T05:25:57.656Z</time>
      </trkpt>
      <trkpt lat="46.74983" lon="-0.51131">
        <ele>211.4</ele>
        <time>2024-06-25T05:26:07.568Z</time>
      </trkpt>
      <trkpt lat="46.74986" lon="-0.51136">
        <ele>211.34</ele>
        <time>2024-06-25T05:26:17.481Z</time>
      </trkpt>
      <trkpt lat="46.7499" lon="-0.51142">
        <ele>211.28</ele>
        <time>2024-06-25T05:26:27.395Z</time>
      </trkpt>
      <trkpt lat="46.74993" lon="-0.51147">
        <ele>211.22</ele>
        <time>2024-06-25T05:26:37.310Z</time>
      </trkpt>
      <trkpt lat="46.74997" lon="-0.51152">
        <ele>211.16</ele>
        <time>2024-06-25T05:26:47.226Z</time>
      </trkpt>
      <trkpt lat="46.75" lon="-0.51158">
        <ele>211.09</ele>
        <time>2024-06-25T05:26:57.143Z</time>
      </trkpt>
      <trkpt lat="46.75004" lon="-0.51164">
        <ele>211.02</ele>
        <time>2024-06-25T05:27:07.061Z</time>
      </trkpt>
      <trkpt lat="46.75008" lon="-0.5117">
        <ele>210.95</ele>
        <time>2024-06-25T05:27:16.980Z</time>
      </trkpt>
      <trkpt lat="46.75011" lon="-0.51176">
        <ele>210.88</ele>
        <time>2024-06-25T05:27:26.901Z</time>
      </trkpt>
      <trkpt lat="46.75015" lon="-0.51182">
        <ele>210.81</ele>
        <time>2024-06-25T05:27:36.823Z</time>
      </trkpt>
      <trkpt lat="46.75019" lon="-0.51189">
        <ele>210.74</ele>
        <time>2024-06-25T05:27:46.746Z</time>
      </trkpt>
      <trkpt lat="46.75024" lon="-0.51195">
        <ele>210.66</ele>
        <time>2024-06-25T05:27:56.670Z</time>
      </trkpt>
      <trkpt lat="46.75028" lon="-0.51201">
        <ele>210.58</ele>
        <time>2024-06-25T05:28:06.595Z</time>
      </trkpt>
      <trkpt lat="46.75033" lon="-0.51205">
        <ele>210.5</ele>
        <time>2024-06-25T05:28:16.522Z</time>
      </trkpt>
      <trkpt lat="46.75039" lon="-0.51208">
        <ele>210.43</ele>
        <time>2024-06-25T05:28:26.450Z</time>
      </trkpt>
      <trkpt lat="46.75046" lon="-0.51209">
        <ele>210.36</ele>
        <time>2024-06-25T05:28:36.379Z</time>
      </trkpt>
      <trkpt lat="46.75052" lon="-0.51209">
        <ele>210.28</ele>
        <time>2024-06-25T05:28:46.309Z</time>
      </trkpt>
      <trkpt lat="46.75059" lon="-0.51207">
        <ele>210.21</ele>
        <time>2024-06-25T05:28:56.241Z</time>
      </trkpt>
      <trkpt lat="46.75065" lon="-0.51205">
        <ele>210.14</ele>
        <time>2024-06-25T05:29:06.174Z</time>
      </trkpt>
      <trkpt lat="46.75072" lon="-0.51204">
        <ele>210.06</ele>
        <time>2024-06-25T05:29:16.108Z</time>
      </trkpt>
      <trkpt lat="46.7508" lon="-0.51204">
        <ele>209.98</ele>
        <time>2024-06-25T05:29:26.044Z</time>
      </trkpt>
      <trkpt lat="46.75087" lon="-0.51203">
        <ele>209.9</ele>
        <time>2024-06-25T05:29:35.981Z</time>
      </trkpt>
      <trkpt lat="46.75093" lon="-0.512">
        <ele>209.83</ele>
        <time>2024-06-25T05:29:45.920Z</time>
      </trkpt>
      <trkpt lat="46.75099" lon="-0.51198">
        <ele>209.75</ele>
        <time>2024-06-25T05:29:55.860Z</time>
      </trkpt>
      <trkpt lat="46.75105" lon="-0.51196">
        <ele>209.68</ele>
        <time>2024-06-25T05:30:05.801Z</time>
      </trkpt>
      <trkpt lat="46.7511" lon="-0.51193">
        <ele>209.6</ele>
        <time>2024-06-25T05:30:15.743Z</time>
      </trkpt>
      <trkpt lat="46.75116" lon="-0.51191">
        <ele>209.53</ele>
        <time>2024-06-25T05:30:25.686Z</time>
      </trkpt>
      <trkpt lat="46.7512" lon="-0.51188">
        <ele>209.46</ele>
        <time>2024-06-25T05:30:35.630Z</time>
      </trkpt>
      <trkpt lat="46.75125" lon="-0.51185">
        <ele>209.38</ele>
        <time>2024-06-25T05:30:45.576Z</time>
      </trkpt>
      <trkpt lat="46.7513" lon="-0.51181">
        <ele>209.31</ele>
        <time>2024-06-25T05:30:55.523Z</time>
      </trkpt>
      <trkpt lat="46.75135" lon="-0.51178">
        <ele>209.24</ele>
        <time>2024-06-25T05:31:05.471Z</time>
      </trkpt>
      <trkpt lat="46.7514" lon="-0.51174">
        <ele>209.16</ele>
        <time>2024-06-25T05:31:15.420Z</time>
      </trkpt>
      <trkpt lat="46.75144" lon="-0.5117">
        <ele>209.09</ele>
        <time>2024-06-25T05:31:25.370Z</time>
      </trkpt>
      <trkpt lat="46.75149" lon="-0.51166">
        <ele>209.03</ele>
        <time>2024-06-25T05:31:35.321Z</time>
      </trkpt>
      <trkpt lat="46.75154" lon="-0.51162">
        <ele>208.97</ele>
        <time>2024-06-25T05:31:45.273Z</time>
      </trkpt>
      <trkpt lat="46.75158" lon="-0.51158">
        <ele>208.91</ele>
        <time>2024-06-25T05:31:55.226Z</time>
      </trkpt>
      <trkpt lat="46.75163" lon="-0.51154">
        <ele>208.85</ele>
        <time>2024-06-25T05:32:05.180Z</time>
      </trkpt>
      <trkpt lat="46.75167" lon="-0.51149">
        <ele>208.79</ele>
        <time>2024-06-25T05:32:15.135Z</time>
      </trkpt>
      <trkpt lat="46.75172" lon="-0.51144">
        <ele>208.73</ele>
        <time>2024-06-25T05:32:25.091Z</time>
      </trkpt>
      <trkpt lat="46.75177" lon="-0.5114">
        <ele>208.67</ele>
        <time>2024-06-25T05:32:35.049Z</time>
      </trkpt>
      <trkpt lat="46.75181" lon="-0.51136">
        <ele>208.61</ele>
        <time>2024-06-25T05:32:45.008Z</time>
      </trkpt>
      <trkpt lat="46.75186" lon="-0.51131">
        <ele>208.55</ele>
        <time>2024-06-25T05:32:54.968Z</time>
      </trkpt>
      <trkpt lat="46.75191" lon="-0.51126">
        <ele>208.49</ele>
        <time>2024-06-25T05:33:04.929Z</time>
      </trkpt>
      <trkpt lat="46.75195" lon="-0.51121">
        <ele>208.43</ele>
        <time>2024-06-25T05:33:14.891Z</time>
      </trkpt>
      <trkpt lat="46.752" lon="-0.51116">
        <ele>208.37</ele>
        <time>2024-06-25T05:33:24.854Z</time>
      </trkpt>
      <trkpt lat="46.75204" lon="-0.51111">
        <ele>208.31</ele>
        <time>2024-06-25T05:33:34.818Z</time>
      </trkpt>
      <trkpt lat="46.75208" lon="-0.51106">
        <ele>208.24</ele>
        <time>2024-06-25T05:33:44.783Z</time>
      </trkpt>
      <trkpt lat="46.75212" lon="-0.51101">
        <ele>208.18</ele>
        <time>2024-06-25T05:33:54.749Z</time>
      </trkpt>
      <trkpt lat="46.75217" lon="-0.51095">
        <ele>208.11</ele>
        <time>2024-06-25T05:34:04.717Z</time>
      </trkpt>
      <trkpt lat="46.7522" lon="-0.51089">
        <ele>208.05</ele>
        <time>2024-06-25T05:34:14.686Z</time>
      </trkpt>
      <trkpt lat="46.75224" lon="-0.51083">
        <ele>207.98</ele>
        <time>2024-06-25T05:34:24.656Z</time>
      </trkpt>
      <trkpt lat="46.75228" lon="-0.51078">
        <ele>207.92</ele>
        <time>2024-06-25T05:34:34.627Z</time>
      </trkpt>
      <trkpt lat="46.75232" lon="-0.51072">
        <ele>207.85</ele>
        <time>2024-06-25T05:34:44.599Z</time>
      </trkpt>
      <trkpt lat="46.75237" lon="-0.51067">
        <ele>207.79</ele>
        <time>2024-06-25T05:34:54.572Z</time>
      </trkpt>
      <trkpt lat="46.75241" lon="-0.51061">
        <ele>207.72</ele>
        <time>2024-06-25T05:35:04.546Z</time>
      </trkpt>
      <trkpt lat="46.75246" lon="-0.51055">
        <ele>207.65</ele>
        <time>2024-06-25T05:35:14.522Z</time>
      </trkpt>
      <trkpt lat="46.7525" lon="-0.51049">
        <ele>207.58</ele>
        <time>2024-06-25T05:35:24.499Z</time>
      </trkpt>
      <trkpt lat="46.75255" lon="-0.51044">
        <ele>207.5</ele>
        <time>2024-06-25T05:35:34.477Z</time>
      </trkpt>
      <trkpt lat="46.75259" lon="-0.51038">
        <ele>207.43</ele>
        <time>2024-06-25T05:35:44.456Z</time>
      </trkpt>
      <trkpt lat="46.75264" lon="-0.51033">
        <ele>207.35</ele>
        <time>2024-06-25T05:35:54.436Z</time>
      </trkpt>
      <trkpt lat="46.75268" lon="-0.51028">
        <ele>207.28</ele>
        <time>2024-06-25T05:36:04.417Z</time>
      </trkpt>
      <trkpt lat="46.75272" lon="-0.51023">
        <ele>207.21</ele>
        <time>2024-06-25T05:36:14.400Z</time>
      </trkpt>
      <trkpt lat="46.75277" lon="-0.51018">
        <ele>207.13</ele>
        <time>2024-06-25T05:36:24.384Z</time>
      </trkpt>
      <trkpt lat="46.75283" lon="-0.51015">
        <ele>207.06</ele>
        <time>2024-06-25T05:36:34.369Z</time>
      </trkpt>
      <trkpt lat="46.75288" lon="-0.51014">
        <ele>206.97</ele>
        <time>2024-06-25T05:36:44.355Z</time>
      </trkpt>
      <trkpt lat="46.75294" lon="-0.51014">
        <ele>206.89</ele>
        <time>2024-06-25T05:36:54.342Z</time>
      </trkpt>
      <trkpt lat="46.75299" lon="-0.51016">
        <ele>206.8</ele>
        <time>2024-06-25T05:37:04.330Z</time>
      </trkpt>
      <trkpt lat="46.75303" lon="-0.51019">
        <ele>206.72</ele>
        <time>2024-06-25T05:37:14.319Z</time>
      </trkpt>
      <trkpt lat="46.75308" lon="-0.51023">
        <ele>206.64</ele>
        <time>2024-06-25T05:37:24.309Z</time>
      </trkpt>
      <trkpt lat="46.75312" lon="-0.51027">
        <ele>206.55</ele>
        <time>2024-06-25T05:37:34.300Z</time>
      </trkpt>
      <trkpt lat="46.75316" lon="-0.51032">
        <ele>206.45</ele>
        <time>2024-06-25T05:37:44.292Z</time>
      </trkpt>
      <trkpt lat="46.7532" lon="-0.51037">
        <ele>206.36</ele>
        <time>2024-06-25T05:37:54.285Z</time>
      </trkpt>
      <trkpt lat="46.75323" lon="-0.51043">
        <ele>206.26</ele>
        <time>2024-06-25T05:38:04.279Z</time>
      </trkpt>
      <trkpt lat="46.75327" lon="-0.51049">
        <ele>206.15</ele>
        <time>2024-06-25T05:38:14.275Z</time>
      </trkpt>
      <trkpt lat="46.7533" lon="-0.51054">
        <ele>206.04</ele>
        <time>2024-06-25T05:38:24.271Z</time>
      </trkpt>
      <trkpt lat="46.75334" lon="-0.51059">
        <ele>205.93</ele>
        <time>2024-06-25T05:38:34.268Z</time>
      </trkpt>
      <trkpt lat="46.75337" lon="-0.51065">
        <ele>205.81</ele>
        <time>2024-06-25T05:38:44.267Z</time>
      </trkpt>
      <trkpt lat="46.75341" lon="-0.5107">
        <ele>205.69</ele>
        <time>2024-06-25T05:38:54.267Z</time>
      </trkpt>
      <trkpt lat="46.75344" lon="-0.51075">
        <ele>205.57</ele>
        <time>2024-06-25T05:39:04.268Z</time>
      </trkpt>
      <trkpt lat="46.75348" lon="-0.51081">
        <ele>205.44</ele>
        <time>2024-06-25T05:39:14.270Z</time>
      </trkpt>
      <trkpt lat="46.75352" lon="-0.51087">
        <ele>205.31</ele>
        <time>2024-06-25T05:39:24.273Z</time>
      </trkpt>
      <trkpt lat="46.75356" lon="-0.51092">
        <ele>205.16</ele>
        <time>2024-06-25T05:39:34.277Z</time>
      </trkpt>
      <trkpt lat="46.75359" lon="-0.51098">
        <ele>205.01</ele>
        <time>2024-06-25T05:39:44.282Z</time>
      </trkpt>
      <trkpt lat="46.75362" lon="-0.51103">
        <ele>204.86</ele>
        <time>2024-06-25T05:39:54.288Z</time>
      </trkpt>
      <trkpt lat="46.75366" lon="-0.51108">
        <ele>204.7</ele>
        <time>2024-06-25T05:40:04.295Z</time>
      </trkpt>
      <trkpt lat="46.75369" lon="-0.51114">
        <ele>204.53</ele>
        <time>2024-06-25T05:40:14.303Z</time>
      </trkpt>
      <trkpt lat="46.75373" lon="-0.5112">
        <ele>204.35</ele>
        <time>2024-06-25T05:40:24.312Z</time>
      </trkpt>
      <trkpt lat="46.75377" lon="-0.51126">
        <ele>204.17</ele>
        <time>2024-06-25T05:40:34.322Z</time>
      </trkpt>
      <trkpt lat="46.75381" lon="-0.51133">
        <ele>203.98</ele>
        <time>2024-06-25T05:40:44.333Z</time>
      </trkpt>
      <trkpt lat="46.75385" lon="-0.51139">
        <ele>203.78</ele>
        <time>2024-06-25T05:40:54.345Z</time>
      </trkpt>
      <trkpt lat="46.75388" lon="-0.51144">
        <ele>203.58</ele>
        <time>2024-06-25T05:41:04.358Z</time>
      </trkpt>
      <trkpt lat="46.75391" lon="-0.51151">
        <ele>203.38</ele>
        <time>2024-06-25T05:41:14.373Z</time>
      </trkpt>
      <trkpt lat="46.75395" lon="-0.51157">
        <ele>203.18</ele>
        <time>2024-06-25T05:41:24.389Z</time>
      </trkpt>
      <trkpt lat="46.75399" lon="-0.51163">
        <ele>202.96</ele>
        <time>2024-06-25T05:41:34.406Z</time>
      </trkpt>
      <trkpt lat="46.75402" lon="-0.5117">
        <ele>202.74</ele>
        <time>2024-06-25T05:41:44.424Z</time>
      </trkpt>
      <trkpt lat="46.75405" lon="-0.51177">
        <ele>202.51</ele>
        <time>2024-06-25T05:41:54.443Z</time>
      </trkpt>
      <trkpt lat="46.75408" lon="-0.51184">
        <ele>202.28</ele>
        <time>2024-06-25T05:42:04.463Z</time>
      </trkpt>
      <trkpt lat="46.7541" lon="-0.5119">
        <ele>202.04</ele>
        <time>2024-06-25T05:42:14.484Z</time>
      </trkpt>
      <trkpt lat="46.75413" lon="-0.51198">
        <ele>201.79</ele>
        <time>2024-06-25T05:42:24.506Z</time>
      </trkpt>
      <trkpt lat="46.75416" lon="-0.51205">
        <ele>201.54</ele>
        <time>2024-06-25T05:42:34.530Z</time>
      </trkpt>
      <trkpt lat="46.75418" lon="-0.51212">
        <ele>201.29</ele>
        <time>2024-06-25T05:42:44.555Z</time>
      </trkpt>
      <trkpt lat="46.75421" lon="-0.5122">
        <ele>201.02</ele>
        <time>2024-06-25T05:42:54.581Z</time>
      </trkpt>
      <trkpt lat="46.75424" lon="-0.51228">
        <ele>200.76</ele>
        <time>2024-06-25T05:43:04.608Z</time>
      </trkpt>
      <trkpt lat="46.75427" lon="-0.51237">
        <ele>200.49</ele>
        <time>2024-06-25T05:43:14.636Z</time>
      </trkpt>
      <trkpt lat="46.7543" lon="-0.51246">
        <ele>200.21</ele>
        <time>2024-06-25T05:43:24.666Z</time>
      </trkpt>
      <trkpt lat="46.75433" lon="-0.51254">
        <ele>199.93</ele>
        <time>2024-06-25T05:43:34.697Z</time>
      </trkpt>
      <trkpt lat="46.75437" lon="-0.51264">
        <ele>199.64</ele>
        <time>2024-06-25T05:43:44.730Z</time>
      </trkpt>
      <trkpt lat="46.7544" lon="-0.51274">
        <ele>199.35</ele>
        <time>2024-06-25T05:43:54.764Z</time>
      </trkpt>
      <trkpt lat="46.75444" lon="-0.51284">
        <ele>199.06</ele>
        <time>2024-06-25T05:44:04.800Z</time>
      </trkpt>
      <trkpt lat="46.75447" lon="-0.51293">
        <ele>198.77</ele>
        <time>2024-06-25T05:44:14.837Z</time>
      </trkpt>
      <trkpt lat="46.7545" lon="-0.51303">
        <ele>198.48</ele>
        <time>2024-06-25T05:44:24.876Z</time>
      </trkpt>
      <trkpt lat="46.75453" lon="-0.51312">
        <ele>198.19</ele>
        <time>2024-06-25T05:44:34.916Z</time>
      </trkpt>
      <trkpt lat="46.75456" lon="-0.51323">
        <ele>197.9</ele>
        <time>2024-06-25T05:44:44.958Z</time>
      </trkpt>
      <trkpt lat="46.7546" lon="-0.51334">
        <ele>197.61</ele>
        <time>2024-06-25T05:44:55.001Z</time>
      </trkpt>
      <trkpt lat="46.75463" lon="-0.51345">
        <ele>197.33</ele>
        <time>2024-06-25T05:45:05.046Z</time>
      </trkpt>
      <trkpt lat="46.75466" lon="-0.51355">
        <ele>197.05</ele>
        <time>2024-06-25T05:45:15.093Z</time>
      </trkpt>
      <trkpt lat="46.7547" lon="-0.51365">
        <ele>196.77</ele>
        <time>2024-06-25T05:45:25.141Z</time>
      </trkpt>
      <trkpt lat="46.75473" lon="-0.51374">
        <ele>196.49</ele>
        <time>2024-06-25T05:45:35.190Z</time>
      </trkpt>
      <trkpt lat="46.75477" lon="-0.51385">
        <ele>196.22</ele>
        <time>2024-06-25T05:45:45.241Z</time>
      </trkpt>
      <trkpt lat="46.75481" lon="-0.51395">
        <ele>195.94</ele>
        <time>2024-06-25T05:45:55.294Z</time>
      </trkpt>
      <trkpt lat="46.75484" lon="-0.51404">
        <ele>195.67</ele>
        <time>2024-06-25T05:46:05.348Z</time>
      </trkpt>
      <trkpt lat="46.75487" lon="-0.51413">
        <ele>195.41</ele>
        <time>2024-06-25T05:46:15.404Z</time>
      </trkpt>
      <trkpt lat="46.7549" lon="-0.51422">
        <ele>195.15</ele>
        <time>2024-06-25T05:46:25.461Z</time>
      </trkpt>
      <trkpt lat="46.75493" lon="-0.51432">
        <ele>194.89</ele>
        <time>2024-06-25T05:46:35.519Z</time>
      </trkpt>
      <trkpt lat="46.75496" lon="-0.51442">
        <ele>194.62</ele>
        <time>2024-06-25T05:46:45.579Z</time>
      </trkpt>
      <trkpt lat="46.755" lon="-0.51453">
        <ele>194.35</ele>
        <time>2024-06-25T05:46:55.641Z</time>
      </trkpt>
      <trkpt lat="46.75503" lon="-0.51464">
        <ele>194.09</ele>
        <time>2024-06-25T05:47:05.704Z</time>
      </trkpt>
      <trkpt lat="46.75507" lon="-0.51473">
        <ele>193.84</ele>
        <time>2024-06-25T05:47:15.769Z</time>
      </trkpt>
      <trkpt lat="46.7551" lon="-0.51482">
        <ele>193.6</ele>
        <time>2024-06-25T05:47:25.835Z</time>
      </trkpt>
      <trkpt lat="46.75513" lon="-0.51492">
        <ele>193.36</ele>
        <time>2024-06-25T05:47:35.903Z</time>
      </trkpt>
      <trkpt lat="46.75516" lon="-0.51502">
        <ele>193.13</ele>
        <time>2024-06-25T05:47:45.972Z</time>
      </trkpt>
      <trkpt lat="46.75519" lon="-0.51511">
        <ele>192.9</ele>
        <time>2024-06-25T05:47:56.042Z</time>
      </trkpt>
      <trkpt lat="46.75523" lon="-0.51521">
        <ele>192.68</ele>
        <time>2024-06-25T05:48:06.114Z</time>
      </trkpt>
      <trkpt lat="46.75526" lon="-0.5153">
        <ele>192.46</ele>
        <time>2024-06-25T05:48:16.187Z</time>
      </trkpt>
      <trkpt lat="46.75528" lon="-0.51539">
        <ele>192.25</ele>
        <time>2024-06-25T05:48:26.262Z</time>
      </trkpt>
      <trkpt lat="46.75531" lon="-0.51547">
        <ele>192.05</ele>
        <time>2024-06-25T05:48:36.338Z</time>
      </trkpt>
      <trkpt lat="46.75534" lon="-0.51555">
        <ele>191.86</ele>
        <time>2024-06-25T05:48:46.415Z</time>
      </trkpt>
      <trkpt lat="46.75536" lon="-0.51564">
        <ele>191.68</ele>
        <time>2024-06-25T05:48:56.493Z</time>
      </trkpt>
      <trkpt lat="46.75539" lon="-0.51571">
        <ele>191.51</ele>
        <time>2024-06-25T05:49:06.573Z</time>
      </trkpt>
      <trkpt lat="46.75542" lon="-0.5158">
        <ele>191.35</ele>
        <time>2024-06-25T05:49:16.654Z</time>
      </trkpt>
      <trkpt lat="46.75545" lon="-0.51588">
        <ele>191.19</ele>
        <time>2024-06-25T05:49:26.736Z</time>
      </trkpt>
      <trkpt lat="46.75547" lon="-0.51595">
        <ele>191.04</ele>
        <time>2024-06-25T05:49:36.819Z</time>
      </trkpt>
      <trkpt lat="46.75549" lon="-0.51604">
        <ele>190.9</ele>
        <time>2024-06-25T05:49:46.904Z</time>
      </trkpt>
      <trkpt lat="46.7555" lon="-0.5161">
        <ele>190.77</ele>
        <time>2024-06-25T05:49:56.989Z</time>
      </trkpt>
      <trkpt lat="46.75551" lon="-0.51618">
        <ele>190.64</ele>
        <time>2024-06-25T05:50:07.076Z</time>
      </trkpt>
      <trkpt lat="46.7555" lon="-0.51626">
        <ele>190.52</ele>
        <time>2024-06-25T05:50:17.164Z</time>
      </trkpt>
      <trkpt lat="46.75549" lon="-0.51633">
        <ele>190.41</ele>
        <time>2024-06-25T05:50:27.253Z</time>
      </trkpt>
      <trkpt lat="46.75547" lon="-0.51641">
        <ele>190.31</ele>
        <time>2024-06-25T05:50:37.343Z</time>
      </trkpt>
      <trkpt lat="46.75545" lon="-0.51649">
        <ele>190.23</ele>
        <time>2024-06-25T05:50:47.434Z</time>
      </trkpt>
      <trkpt lat="46.75545" lon="-0.51658">
        <ele>190.15</ele>
        <time>2024-06-25T05:50:57.526Z</time>
      </trkpt>
      <trkpt lat="46.75546" lon="-0.51665">
        <ele>190.08</ele>
        <time>2024-06-25T05:51:07.619Z</time>
      </trkpt>
      <trkpt lat="46.75547" lon="-0.51673">
        <ele>190.01</ele>
        <time>2024-06-25T05:51:17.713Z</time>
      </trkpt>
      <trkpt lat="46.7555" lon="-0.51681">
        <ele>189.95</ele>
        <time>2024-06-25T05:51:27.808Z</time>
      </trkpt>
      <trkpt lat="46.75552" lon="-0.51687">
        <ele>189.9</ele>
        <time>2024-06-25T05:51:37.905Z</time>
      </trkpt>
      <trkpt lat="46.75555" lon="-0.51695">
        <ele>189.86</ele>
        <time>2024-06-25T05:51:48.003Z</time>
      </trkpt>
      <trkpt lat="46.75557" lon="-0.51702">
        <ele>189.82</ele>
        <time>2024-06-25T05:51:58.102Z</time>
      </trkpt>
      <trkpt lat="46.75559" lon="-0.51709">
        <ele>189.78</ele>
        <time>2024-06-25T05:52:08.202Z</time>
      </trkpt>
      <trkpt lat="46.75562" lon="-0.51716">
        <ele>189.75</ele>
        <time>2024-06-25T05:52:18.303Z</time>
      </trkpt>
      <trkpt lat="46.75565" lon="-0.51723">
        <ele>189.73</ele>
        <time>2024-06-25T05:52:28.405Z</time>
      </trkpt>
      <trkpt lat="46.75568" lon="-0.5173">
        <ele>189.71</ele>
        <time>2024-06-25T05:52:38.508Z</time>
      </trkpt>
      <trkpt lat="46.75572" lon="-0.51738">
        <ele>189.7</ele>
        <time>2024-06-25T05:52:48.613Z</time>
      </trkpt>
      <trkpt lat="46.75576" lon="-0.51746">
        <ele>189.71</ele>
        <time>2024-06-25T05:52:58.719Z</time>
      </trkpt>
      <trkpt lat="46.75581" lon="-0.51753">
        <ele>189.72</ele>
        <time>2024-06-25T05:53:08.826Z</time>
      </trkpt>
      <trkpt lat="46.75587" lon="-0.51761">
        <ele>189.74</ele>
        <time>2024-06-25T05:53:18.935Z</time>
      </trkpt>
      <trkpt lat="46.75592" lon="-0.51768">
        <ele>189.77</ele>
        <time>2024-06-25T05:53:29.045Z</time>
      </trkpt>
      <trkpt lat="46.75596" lon="-0.51774">
        <ele>189.8</ele>
        <time>2024-06-25T05:53:39.157Z</time>
      </trkpt>
      <trkpt lat="46.75601" lon="-0.51782">
        <ele>189.84</ele>
        <time>2024-06-25T05:53:49.270Z</time>
      </trkpt>
      <trkpt lat="46.75604" lon="-0.51791">
        <ele>189.88</ele>
        <time>2024-06-25T05:53:59.384Z</time>
      </trkpt>
      <trkpt lat="46.75608" lon="-0.51799">
        <ele>189.93</ele>
        <time>2024-06-25T05:54:09.500Z</time>
      </trkpt>
      <trkpt lat="46.75611" lon="-0.51806">
        <ele>189.99</ele>
        <time>2024-06-25T05:54:19.617Z</time>
      </trkpt>
      <trkpt lat="46.75615" lon="-0.51815">
        <ele>190.06</ele>
        <time>2024-06-25T05:54:29.735Z</time>
      </trkpt>
      <trkpt lat="46.75619" lon="-0.51823">
        <ele>190.13</ele>
        <time>2024-06-25T05:54:39.855Z</time>
      </trkpt>
      <trkpt lat="46.75622" lon="-0.5183">
        <ele>190.21</ele>
        <time>2024-06-25T05:54:49.976Z</time>
      </trkpt>
      <trkpt lat="46.75626" lon="-0.51837">
        <ele>190.3</ele>
        <time>2024-06-25T05:55:00.098Z</time>
      </trkpt>
      <trkpt lat="46.75629" lon="-0.51844">
        <ele>190.38</ele>
        <time>2024-06-25T05:55:10.221Z</time>
      </trkpt>
      <trkpt lat="46.75632" lon="-0.5185">
        <ele>190.47</ele>
        <time>2024-06-25T05:55:20.345Z</time>
      </trkpt>
      <trkpt lat="46.75635" lon="-0.51856">
        <ele>190.57</ele>
        <time>2024-06-25T05:55:30.470Z</time>
      </trkpt>
      <trkpt lat="46.75638" lon="-0.51862">
        <ele>190.67</ele>
        <time>2024-06-25T05:55:40.596Z</time>
      </trkpt>
      <trkpt lat="46.75641" lon="-0.51867">
        <ele>190.77</ele>
        <time>2024-06-25T05:55:50.723Z</time>
      </trkpt>
      <trkpt lat="46.75644" lon="-0.51872">
        <ele>190.88</ele>
        <time>2024-06-25T05:56:00.851Z</time>
      </trkpt>
      <trkpt lat="46.75647" lon="-0.51878">
        <ele>191</ele>
        <time>2024-06-25T05:56:10.980Z</time>
      </trkpt>
      <trkpt lat="46.75649" lon="-0.51884">
        <ele>191.12</ele>
        <time>2024-06-25T05:56:21.110Z</time>
      </trkpt>
      <trkpt lat="46.75652" lon="-0.51889">
        <ele>191.25</ele>
        <time>2024-06-25T05:56:31.241Z</time>
      </trkpt>
      <trkpt lat="46.75655" lon="-0.51895">
        <ele>191.37</ele>
        <time>2024-06-25T05:56:41.373Z</time>
      </trkpt>
      <trkpt lat="46.75658" lon="-0.519">
        <ele>191.5</ele>
        <time>2024-06-25T05:56:51.506Z</time>
      </trkpt>
      <trkpt lat="46.7566" lon="-0.51905">
        <ele>191.64</ele>
        <time>2024-06-25T05:57:01.640Z</time>
      </trkpt>
      <trkpt lat="46.75663" lon="-0.5191">
        <ele>191.79</ele>
        <time>2024-06-25T05:57:11.775Z</time>
      </trkpt>
      <trkpt lat="46.75665" lon="-0.51914">
        <ele>191.94</ele>
        <time>2024-06-25T05:57:21.910Z</time>
      </trkpt>
      <trkpt lat="46.75667" lon="-0.51919">
        <ele>192.09</ele>
        <time>2024-06-25T05:57:32.046Z</time>
      </trkpt>
      <trkpt lat="46.7567" lon="-0.51923">
        <ele>192.25</ele>
        <time>2024-06-25T05:57:42.183Z</time>
      </trkpt>
      <trkpt lat="46.75672" lon="-0.51928">
        <ele>192.41</ele>
        <time>2024-06-25T05:57:52.321Z</time>
      </trkpt>
      <trkpt lat="46.75676" lon="-0.51934">
        <ele>192.57</ele>
        <time>2024-06-25T05:58:02.460Z</time>
      </trkpt>
      <trkpt lat="46.75679" lon="-0.51939">
        <ele>192.74</ele>
        <time>2024-06-25T05:58:12.600Z</time>
      </trkpt>
      <trkpt lat="46.75681" lon="-0.51943">
        <ele>192.91</ele>
        <time>2024-06-25T05:58:22.740Z</time>
      </trkpt>
      <trkpt lat="46.75684" lon="-0.51947">
        <ele>193.09</ele>
        <time>2024-06-25T05:58:32.881Z</time>
      </trkpt>
      <trkpt lat="46.75687" lon="-0.51952">
        <ele>193.26</ele>
        <time>2024-06-25T05:58:43.023Z</time>
      </trkpt>
      <trkpt lat="46.75689" lon="-0.51956">
        <ele>193.44</ele>
        <time>2024-06-25T05:58:53.166Z</time>
      </trkpt>
      <trkpt lat="46.75692" lon="-0.51961">
        <ele>193.62</ele>
        <time>2024-06-25T05:59:03.310Z</time>
      </trkpt>
      <trkpt lat="46.75694" lon="-0.51966">
        <ele>193.81</ele>
        <time>2024-06-25T05:59:13.454Z</time>
      </trkpt>
      <trkpt lat="46.75697" lon="-0.51971">
        <ele>194</ele>
        <time>2024-06-25T05:59:23.599Z</time>
      </trkpt>
      <trkpt lat="46.75699" lon="-0.51976">
        <ele>194.19</ele>
        <time>2024-06-25T05:59:33.745Z</time>
      </trkpt>
      <trkpt lat="46.75701" lon="-0.51982">
        <ele>194.38</ele>
        <time>2024-06-25T05:59:43.892Z</time>
      </trkpt>
      <trkpt lat="46.75703" lon="-0.51988">
        <ele>194.57</ele>
        <time>2024-06-25T05:59:54.040Z</time>
      </trkpt>
      <trkpt lat="46.75704" lon="-0.51993">
        <ele>194.76</ele>
        <time>2024-06-25T06:00:04.189Z</time>
      </trkpt>
      <trkpt lat="46.75706" lon="-0.51998">
        <ele>194.96</ele>
        <time>2024-06-25T06:00:14.338Z</time>
      </trkpt>
      <trkpt lat="46.75708" lon="-0.52004">
        <ele>195.16</ele>
        <time>2024-06-25T06:00:24.488Z</time>
      </trkpt>
      <trkpt lat="46.7571" lon="-0.5201">
        <ele>195.36</ele>
        <time>2024-06-25T06:00:34.639Z</time>
      </trkpt>
      <trkpt lat="46.75711" lon="-0.52015">
        <ele>195.57</ele>
        <time>2024-06-25T06:00:44.791Z</time>
      </trkpt>
      <trkpt lat="46.75713" lon="-0.52021">
        <ele>195.77</ele>
        <time>2024-06-25T06:00:54.944Z</time>
      </trkpt>
      <trkpt lat="46.75715" lon="-0.52026">
        <ele>195.97</ele>
        <time>2024-06-25T06:01:05.098Z</time>
      </trkpt>
      <trkpt lat="46.75717" lon="-0.52031">
        <ele>196.18</ele>
        <time>2024-06-25T06:01:15.252Z</time>
      </trkpt>
      <trkpt lat="46.75718" lon="-0.52036">
        <ele>196.38</ele>
        <time>2024-06-25T06:01:25.407Z</time>
      </trkpt>
      <trkpt lat="46.7572" lon="-0.52041">
        <ele>196.59</ele>
        <time>2024-06-25T06:01:35.563Z</time>
      </trkpt>
      <trkpt lat="46.75721" lon="-0.52046">
        <ele>196.81</ele>
        <time>2024-06-25T06:01:45.720Z</time>
      </trkpt>
      <trkpt lat="46.75723" lon="-0.52051">
        <ele>197.02</ele>
        <time>2024-06-25T06:01:55.878Z</time>
      </trkpt>
      <trkpt lat="46.75725" lon="-0.52056">
        <ele>197.24</ele>
        <time>2024-06-25T06:02:06.036Z</time>
      </trkpt>
      <trkpt lat="46.75727" lon="-0.5206">
        <ele>197.45</ele>
        <time>2024-06-25T06:02:16.195Z</time>
      </trkpt>
      <trkpt lat="46.75728" lon="-0.52065">
        <ele>197.67</ele>
        <time>2024-06-25T06:02:26.355Z</time>
      </trkpt>
      <trkpt lat="46.7573" lon="-0.5207">
        <ele>197.88</ele>
        <time>2024-06-25T06:02:36.515Z</time>
      </trkpt>
      <trkpt lat="46.75731" lon="-0.52074">
        <ele>198.09</ele>
        <time>2024-06-25T06:02:46.676Z</time>
      </trkpt>
      <trkpt lat="46.75733" lon="-0.52079">
        <ele>198.31</ele>
        <time>2024-06-25T06:02:56.838Z</time>
      </trkpt>
      <trkpt lat="46.75735" lon="-0.52083">
        <ele>198.52</ele>
        <time>2024-06-25T06:03:07.001Z</time>
      </trkpt>
      <trkpt lat="46.75736" lon="-0.52089">
        <ele>198.74</ele>
        <time>2024-06-25T06:03:17.164Z</time>
      </trkpt>
      <trkpt lat="46.75738" lon="-0.52093">
        <ele>198.95</ele>
        <time>2024-06-25T06:03:27.328Z</time>
      </trkpt>
      <trkpt lat="46.75739" lon="-0.52098">
        <ele>199.17</ele>
        <time>2024-06-25T06:03:37.493Z</time>
      </trkpt>
      <trkpt lat="46.75741" lon="-0.52103">
        <ele>199.39</ele>
        <time>2024-06-25T06:03:47.658Z</time>
      </trkpt>
      <trkpt lat="46.75743" lon="-0.52108">
        <ele>199.61</ele>
        <time>2024-06-25T06:03:57.824Z</time>
      </trkpt>
      <trkpt lat="46.75744" lon="-0.52113">
        <ele>199.84</ele>
        <time>2024-06-25T06:04:07.991Z</time>
      </trkpt>
      <trkpt lat="46.75746" lon="-0.52117">
        <ele>200.06</ele>
        <time>2024-06-25T06:04:18.159Z</time>
      </trkpt>
      <trkpt lat="46.75747" lon="-0.52122">
        <ele>200.28</ele>
        <time>2024-06-25T06:04:28.327Z</time>
      </trkpt>
      <trkpt lat="46.75749" lon="-0.52127">
        <ele>200.5</ele>
        <time>2024-06-25T06:04:38.496Z</time>
      </trkpt>
      <trkpt lat="46.75751" lon="-0.52131">
        <ele>200.73</ele>
        <time>2024-06-25T06:04:48.666Z</time>
      </trkpt>
      <trkpt lat="46.75753" lon="-0.52136">
        <ele>200.95</ele>
        <time>2024-06-25T06:04:58.837Z</time>
      </trkpt>
      <trkpt lat="46.75754" lon="-0.52141">
        <ele>201.17</ele>
        <time>2024-06-25T06:05:09.008Z</time>
      </trkpt>
      <trkpt lat="46.75756" lon="-0.52145">
        <ele>201.39</ele>
        <time>2024-06-25T06:05:19.180Z</time>
      </trkpt>
      <trkpt lat="46.75757" lon="-0.52149">
        <ele>201.61</ele>
        <time>2024-06-25T06:05:29.353Z</time>
      </trkpt>
      <trkpt lat="46.75759" lon="-0.52154">
        <ele>201.82</ele>
        <time>2024-06-25T06:05:39.526Z</time>
      </trkpt>
      <trkpt lat="46.75761" lon="-0.52158">
        <ele>202.04</ele>
        <time>2024-06-25T06:05:49.700Z</time>
      </trkpt>
      <trkpt lat="46.75762" lon="-0.52163">
        <ele>202.26</ele>
        <time>2024-06-25T06:05:59.875Z</time>
      </trkpt>
      <trkpt lat="46.75764" lon="-0.52168">
        <ele>202.47</ele>
        <time>2024-06-25T06:06:10.051Z</time>
      </trkpt>
      <trkpt lat="46.75765" lon="-0.52172">
        <ele>202.69</ele>
        <time>2024-06-25T06:06:20.227Z</time>
      </trkpt>
      <trkpt lat="46.75767" lon="-0.52177">
        <ele>202.9</ele>
        <time>2024-06-25T06:06:30.404Z</time>
      </trkpt>
      <trkpt lat="46.75768" lon="-0.52181">
        <ele>203.11</ele>
        <time>2024-06-25T06:06:40.582Z</time>
      </trkpt>
      <trkpt lat="46.7577" lon="-0.52185">
        <ele>203.32</ele>
        <time>2024-06-25T06:06:50.760Z</time>
      </trkpt>
      <trkpt lat="46.75772" lon="-0.52191">
        <ele>203.52</ele>
        <time>2024-06-25T06:07:00.939Z</time>
      </trkpt>
      <trkpt lat="46.75773" lon="-0.52195">
        <ele>203.71</ele>
        <time>2024-06-25T06:07:11.119Z</time>
      </trkpt>
      <trkpt lat="46.75774" lon="-0.52198">
        <ele>203.91</ele>
        <time>2024-06-25T06:07:21.299Z</time>
      </trkpt>
      <trkpt lat="46.75776" lon="-0.52202">
        <ele>204.1</ele>
        <time>2024-06-25T06:07:31.480Z</time>
      </trkpt>
      <trkpt lat="46.75778" lon="-0.52207">
        <ele>204.29</ele>
        <time>2024-06-25T06:07:41.662Z</time>
      </trkpt>
      <trkpt lat="46.75779" lon="-0.52211">
        <ele>204.47</ele>
        <time>2024-06-25T06:07:51.844Z</time>
      </trkpt>
      <trkpt lat="46.75781" lon="-0.52215">
        <ele>204.66</ele>
        <time>2024-06-25T06:08:02.027Z</time>
      </trkpt>
      <trkpt lat="46.75782" lon="-0.52218">
        <ele>204.83</ele>
        <time>2024-06-25T06:08:12.210Z</time>
      </trkpt>
      <trkpt lat="46.75783" lon="-0.52222">
        <ele>205</ele>
        <time>2024-06-25T06:08:22.394Z</time>
      </trkpt>
      <trkpt lat="46.75785" lon="-0.52225">
        <ele>205.16</ele>
        <time>2024-06-25T06:08:32.578Z</time>
      </trkpt>
      <trkpt lat="46.75787" lon="-0.52229">
        <ele>205.32</ele>
        <time>2024-06-25T06:08:42.763Z</time>
      </trkpt>
      <trkpt lat="46.75788" lon="-0.52232">
        <ele>205.47</ele>
        <time>2024-06-25T06:08:52.949Z</time>
      </trkpt>
      <trkpt lat="46.7579" lon="-0.52236">
        <ele>205.61</ele>
        <time>2024-06-25T06:09:03.135Z</time>
      </trkpt>
      <trkpt lat="46.75792" lon="-0.52239">
        <ele>205.75</ele>
        <time>2024-06-25T06:09:13.322Z</time>
      </trkpt>
      <trkpt lat="46.75794" lon="-0.52241">
        <ele>205.88</ele>
        <time>2024-06-25T06:09:23.509Z</time>
      </trkpt>
      <trkpt lat="46.75796" lon="-0.52244">
        <ele>206</ele>
        <time>2024-06-25T06:09:33.697Z</time>
      </trkpt>
      <trkpt lat="46.75798" lon="-0.52247">
        <ele>206.11</ele>
        <time>2024-06-25T06:09:43.886Z</time>
      </trkpt>
      <trkpt lat="46.75801" lon="-0.52248">
        <ele>206.22</ele>
        <time>2024-06-25T06:09:54.075Z</time>
      </trkpt>
      <trkpt lat="46.75805" lon="-0.52249">
        <ele>206.32</ele>
        <time>2024-06-25T06:10:04.265Z</time>
      </trkpt>
      <trkpt lat="46.75809" lon="-0.52249">
        <ele>206.41</ele>
        <time>2024-06-25T06:10:14.456Z</time>
      </trkpt>
      <trkpt lat="46.75813" lon="-0.52249">
        <ele>206.49</ele>
        <time>2024-06-25T06:10:24.647Z</time>
      </trkpt>
      <trkpt lat="46.75816" lon="-0.52249">
        <ele>206.57</ele>
        <time>2024-06-25T06:10:34.839Z</time>
      </trkpt>
      <trkpt lat="46.7582" lon="-0.52249">
        <ele>206.64</ele>
        <time>2024-06-25T06:10:45.032Z</time>
      </trkpt>
      <trkpt lat="46.75824" lon="-0.52249">
        <ele>206.7</ele>
        <time>2024-06-25T06:10:55.226Z</time>
      </trkpt>
      <trkpt lat="46.75828" lon="-0.52249">
        <ele>206.75</ele>
        <time>2024-06-25T06:11:05.420Z</time>
      </trkpt>
      <trkpt lat="46.75832" lon="-0.52249">
        <ele>206.8</ele>
        <time>2024-06-25T06:11:15.615Z</time>
      </trkpt>
      <trkpt lat="46.75836" lon="-0.52249">
        <ele>206.84</ele>
        <time>2024-06-25T06:11:25.811Z</time>
      </trkpt>
      <trkpt lat="46.7584" lon="-0.52249">
        <ele>206.87</ele>
        <time>2024-06-25T06:11:36.008Z</time>
      </trkpt>
      <trkpt lat="46.75844" lon="-0.52249">
        <ele>206.9</ele>
        <time>2024-06-25T06:11:46.206Z</time>
      </trkpt>
      <trkpt lat="46.75848" lon="-0.52249">
        <ele>206.91</ele>
        <time>2024-06-25T06:11:56.405Z</time>
      </trkpt>
      <trkpt lat="46.75853" lon="-0.52249">
        <ele>206.92</ele>
        <time>2024-06-25T06:12:06.605Z</time>
      </trkpt>
      <trkpt lat="46.75858" lon="-0.52249">
        <ele>206.93</ele>
        <time>2024-06-25T06:12:16.805Z</time>
      </trkpt>
      <trkpt lat="46.75862" lon="-0.52248">
        <ele>206.93</ele>
        <time>2024-06-25T06:12:27.006Z</time>
      </trkpt>
      <trkpt lat="46.75867" lon="-0.52248">
        <ele>206.92</ele>
        <time>2024-06-25T06:12:37.208Z</time>
      </trkpt>
      <trkpt lat="46.75872" lon="-0.52248">
        <ele>206.9</ele>
        <time>2024-06-25T06:12:47.411Z</time>
      </trkpt>
      <trkpt lat="46.75877" lon="-0.52248">
        <ele>206.88</ele>
        <time>2024-06-25T06:12:57.615Z</time>
      </trkpt>
      <trkpt lat="46.75882" lon="-0.52248">
        <ele>206.85</ele>
        <time>2024-06-25T06:13:07.820Z</time>
      </trkpt>
      <trkpt lat="46.75888" lon="-0.52248">
        <ele>206.81</ele>
        <time>2024-06-25T06:13:18.026Z</time>
      </trkpt>
      <trkpt lat="46.75893" lon="-0.52247">
        <ele>206.77</ele>
        <time>2024-06-25T06:13:28.234Z</time>
      </trkpt>
      <trkpt lat="46.75898" lon="-0.52247">
        <ele>206.72</ele>
        <time>2024-06-25T06:13:38.443Z</time>
      </trkpt>
      <trkpt lat="46.75903" lon="-0.52246">
        <ele>206.67</ele>
        <time>2024-06-25T06:13:48.653Z</time>
      </trkpt>
      <trkpt lat="46.75909" lon="-0.52245">
        <ele>206.62</ele>
        <time>2024-06-25T06:13:58.864Z</time>
      </trkpt>
      <trkpt lat="46.75914" lon="-0.52245">
        <ele>206.56</ele>
        <time>2024-06-25T06:14:09.076Z</time>
      </trkpt>
      <trkpt lat="46.75919" lon="-0.52244">
        <ele>206.5</ele>
        <time>2024-06-25T06:14:19.289Z</time>
      </trkpt>
      <trkpt lat="46.75925" lon="-0.52243">
        <ele>206.44</ele>
        <time>2024-06-25T06:14:29.503Z</time>
      </trkpt>
      <trkpt lat="46.7593" lon="-0.52242">
        <ele>206.37</ele>
        <time>2024-06-25T06:14:39.718Z</time>
      </trkpt>
      <trkpt lat="46.75935" lon="-0.52241">
        <ele>206.29</ele>
        <time>2024-06-25T06:14:49.934Z</time>
      </trkpt>
      <trkpt lat="46.75941" lon="-0.52241">
        <ele>206.22</ele>
        <time>2024-06-25T06:15:00.151Z</time>
      </trkpt>
      <trkpt lat="46.75946" lon="-0.5224">
        <ele>206.15</ele>
        <time>2024-06-25T06:15:10.369Z</time>
      </trkpt>
      <trkpt lat="46.75952" lon="-0.5224">
        <ele>206.07</ele>
        <time>2024-06-25T06:15:20.588Z</time>
      </trkpt>
      <trkpt lat="46.75958" lon="-0.5224">
        <ele>205.98</ele>
        <time>2024-06-25T06:15:30.809Z</time>
      </trkpt>
      <trkpt lat="46.75964" lon="-0.5224">
        <ele>205.9</ele>
        <time>2024-06-25T06:15:41.031Z</time>
      </trkpt>
      <trkpt lat="46.75969" lon="-0.52241">
        <ele>205.8</ele>
        <time>2024-06-25T06:15:51.254Z</time>
      </trkpt>
      <trkpt lat="46.75975" lon="-0.52243">
        <ele>205.71</ele>
        <time>2024-06-25T06:16:01.478Z</time>
      </trkpt>
      <trkpt lat="46.75981" lon="-0.52244">
        <ele>205.61</ele>
        <time>2024-06-25T06:16:11.703Z</time>
      </trkpt>
      <trkpt lat="46.75988" lon="-0.52247">
        <ele>205.51</ele>
        <time>2024-06-25T06:16:21.930Z</time>
      </trkpt>
      <trkpt lat="46.75994" lon="-0.52249">
        <ele>205.42</ele>
        <time>2024-06-25T06:16:32.158Z</time>
      </trkpt>
      <trkpt lat="46.76" lon="-0.52251">
        <ele>205.32</ele>
        <time>2024-06-25T06:16:42.387Z</time>
      </trkpt>
      <trkpt lat="46.76006" lon="-0.52253">
        <ele>205.22</ele>
        <time>2024-06-25T06:16:52.617Z</time>
      </trkpt>
      <trkpt lat="46.76012" lon="-0.52255">
        <ele>205.12</ele>
        <time>2024-06-25T06:17:02.849Z</time>
      </trkpt>
      <trkpt lat="46.76019" lon="-0.52257">
        <ele>205.02</ele>
        <time>2024-06-25T06:17:13.082Z</time>
      </trkpt>
      <trkpt lat="46.76026" lon="-0.52258">
        <ele>204.92</ele>
        <time>2024-06-25T06:17:23.316Z</time>
      </trkpt>
      <trkpt lat="46.76032" lon="-0.52259">
        <ele>204.82</ele>
        <time>2024-06-25T06:17:33.552Z</time>
      </trkpt>
      <trkpt lat="46.76039" lon="-0.5226">
        <ele>204.72</ele>
        <time>2024-06-25T06:17:43.789Z</time>
      </trkpt>
      <trkpt lat="46.76046" lon="-0.52261">
        <ele>204.63</ele>
        <time>2024-06-25T06:17:54.027Z</time>
      </trkpt>
      <trkpt lat="46.76052" lon="-0.52262">
        <ele>204.54</ele>
        <time>2024-06-25T06:18:04.267Z</time>
      </trkpt>
      <trkpt lat="46.76058" lon="-0.52263">
        <ele>204.46</ele>
        <time>2024-06-25T06:18:14.508Z</time>
      </trkpt>
      <trkpt lat="46.76065" lon="-0.52264">
        <ele>204.38</ele>
        <time>2024-06-25T06:18:24.750Z</time>
      </trkpt>
      <trkpt lat="46.76071" lon="-0.52264">
        <ele>204.3</ele>
        <time>2024-06-25T06:18:34.994Z</time>
      </trkpt>
      <trkpt lat="46.76077" lon="-0.52266">
        <ele>204.24</ele>
        <time>2024-06-25T06:18:45.239Z</time>
      </trkpt>
      <trkpt lat="46.76083" lon="-0.52267">
        <ele>204.18</ele>
        <time>2024-06-25T06:18:55.485Z</time>
      </trkpt>
      <trkpt lat="46.76089" lon="-0.5227">
        <ele>204.12</ele>
        <time>2024-06-25T06:19:05.732Z</time>
      </trkpt>
      <trkpt lat="46.76094" lon="-0.52272">
        <ele>204.07</ele>
        <time>2024-06-25T06:19:15.980Z</time>
      </trkpt>
      <trkpt lat="46.761" lon="-0.52273">
        <ele>204.02</ele>
        <time>2024-06-25T06:19:26.229Z</time>
      </trkpt>
      <trkpt lat="46.76106" lon="-0.52275">
        <ele>203.97</ele>
        <time>2024-06-25T06:19:36.480Z</time>
      </trkpt>
      <trkpt lat="46.76111" lon="-0.52277">
        <ele>203.93</ele>
        <time>2024-06-25T06:19:46.732Z</time>
      </trkpt>
      <trkpt lat="46.76117" lon="-0.52279">
        <ele>203.9</ele>
        <time>2024-06-25T06:19:56.985Z</time>
      </trkpt>
      <trkpt lat="46.76122" lon="-0.52281">
        <ele>203.86</ele>
        <time>2024-06-25T06:20:07.239Z</time>
      </trkpt>
      <trkpt lat="46.76126" lon="-0.52283">
        <ele>203.83</ele>
        <time>2024-06-25T06:20:17.494Z</time>
      </trkpt>
      <trkpt lat="46.76131" lon="-0.52285">
        <ele>203.8</ele>
        <time>2024-06-25T06:20:27.750Z</time>
      </trkpt>
      <trkpt lat="46.76135" lon="-0.52287">
        <ele>203.78</ele>
        <time>2024-06-25T06:20:38.007Z</time>
      </trkpt>
      <trkpt lat="46.76139" lon="-0.52287">
        <ele>203.76</ele>
        <time>2024-06-25T06:20:48.265Z</time>
      </trkpt>
      <trkpt lat="46.76143" lon="-0.52289">
        <ele>203.75</ele>
        <time>2024-06-25T06:20:58.523Z</time>
      </trkpt>
      <trkpt lat="46.76147" lon="-0.5229">
        <ele>203.74</ele>
        <time>2024-06-25T06:21:08.782Z</time>
      </trkpt>
      <trkpt lat="46.76151" lon="-0.52291">
        <ele>203.74</ele>
        <time>2024-06-25T06:21:19.042Z</time>
      </trkpt>
      <trkpt lat="46.76155" lon="-0.52292">
        <ele>203.74</ele>
        <time>2024-06-25T06:21:29.303Z</time>
      </trkpt>
      <trkpt lat="46.7616" lon="-0.52293">
        <ele>203.75</ele>
        <time>2024-06-25T06:21:39.565Z</time>
      </trkpt>
      <trkpt lat="46.76164" lon="-0.52293">
        <ele>203.76</ele>
        <time>2024-06-25T06:21:49.828Z</time>
      </trkpt>
      <trkpt lat="46.76168" lon="-0.52294">
        <ele>203.77</ele>
        <time>2024-06-25T06:22:00.091Z</time>
      </trkpt>
      <trkpt lat="46.76172" lon="-0.52294">
        <ele>203.79</ele>
        <time>2024-06-25T06:22:10.355Z</time>
      </trkpt>
      <trkpt lat="46.76176" lon="-0.52294">
        <ele>203.81</ele>
        <time>2024-06-25T06:22:20.620Z</time>
      </trkpt>
      <trkpt lat="46.7618" lon="-0.52293">
        <ele>203.84</ele>
        <time>2024-06-25T06:22:30.886Z</time>
      </trkpt>
      <trkpt lat="46.76184" lon="-0.52293">
        <ele>203.87</ele>
        <time>2024-06-25T06:22:41.153Z</time>
      </trkpt>
      <trkpt lat="46.76188" lon="-0.52293">
        <ele>203.91</ele>
        <time>2024-06-25T06:22:51.420Z</time>
      </trkpt>
      <trkpt lat="46.76192" lon="-0.52292">
        <ele>203.96</ele>
        <time>2024-06-25T06:23:01.688Z</time>
      </trkpt>
      <trkpt lat="46.76197" lon="-0.52291">
        <ele>204</ele>
        <time>2024-06-25T06:23:11.957Z</time>
      </trkpt>
      <trkpt lat="46.76202" lon="-0.5229">
        <ele>204.06</ele>
        <time>2024-06-25T06:23:22.227Z</time>
      </trkpt>
      <trkpt lat="46.76207" lon="-0.52289">
        <ele>204.11</ele>
        <time>2024-06-25T06:23:32.498Z</time>
      </trkpt>
      <trkpt lat="46.76212" lon="-0.52288">
        <ele>204.17</ele>
        <time>2024-06-25T06:23:42.770Z</time>
      </trkpt>
      <trkpt lat="46.76217" lon="-0.52288">
        <ele>204.24</ele>
        <time>2024-06-25T06:23:53.043Z</time>
      </trkpt>
      <trkpt lat="46.76223" lon="-0.52287">
        <ele>204.31</ele>
        <time>2024-06-25T06:24:03.317Z</time>
      </trkpt>
      <trkpt lat="46.76229" lon="-0.52286">
        <ele>204.39</ele>
        <time>2024-06-25T06:24:13.593Z</time>
      </trkpt>
      <trkpt lat="46.76234" lon="-0.52285">
        <ele>204.47</ele>
        <time>2024-06-25T06:24:23.870Z</time>
      </trkpt>
      <trkpt lat="46.76239" lon="-0.52286">
        <ele>204.56</ele>
        <time>2024-06-25T06:24:34.148Z</time>
      </trkpt>
      <trkpt lat="46.76244" lon="-0.52286">
        <ele>204.65</ele>
        <time>2024-06-25T06:24:44.427Z</time>
      </trkpt>
      <trkpt lat="46.76249" lon="-0.52287">
        <ele>204.74</ele>
        <time>2024-06-25T06:24:54.707Z</time>
      </trkpt>
      <trkpt lat="46.76255" lon="-0.52288">
        <ele>204.84</ele>
        <time>2024-06-25T06:25:04.988Z</time>
      </trkpt>
      <trkpt lat="46.76261" lon="-0.52288">
        <ele>204.94</ele>
        <time>2024-06-25T06:25:15.270Z</time>
      </trkpt>
      <trkpt lat="46.76266" lon="-0.52289">
        <ele>205.05</ele>
        <time>2024-06-25T06:25:25.553Z</time>
      </trkpt>
      <trkpt lat="46.76271" lon="-0.5229">
        <ele>205.17</ele>
        <time>2024-06-25T06:25:35.837Z</time>
      </trkpt>
      <trkpt lat="46.76276" lon="-0.52291">
        <ele>205.29</ele>
        <time>2024-06-25T06:25:46.122Z</time>
      </trkpt>
      <trkpt lat="46.76282" lon="-0.52292">
        <ele>205.41</ele>
        <time>2024-06-25T06:25:56.408Z</time>
      </trkpt>
      <trkpt lat="46.76287" lon="-0.52293">
        <ele>205.53</ele>
        <time>2024-06-25T06:26:06.695Z</time>
      </trkpt>
      <trkpt lat="46.76292" lon="-0.52294">
        <ele>205.66</ele>
        <time>2024-06-25T06:26:16.983Z</time>
      </trkpt>
      <trkpt lat="46.76297" lon="-0.52294">
        <ele>205.8</ele>
        <time>2024-06-25T06:26:27.272Z</time>
      </trkpt>
      <trkpt lat="46.76301" lon="-0.52295">
        <ele>205.93</ele>
        <time>2024-06-25T06:26:37.562Z</time>
      </trkpt>
      <trkpt lat="46.76306" lon="-0.52296">
        <ele>206.07</ele>
        <time>2024-06-25T06:26:47.853Z</time>
      </trkpt>
      <trkpt lat="46.76311" lon="-0.52297">
        <ele>206.21</ele>
        <time>2024-06-25T06:26:58.145Z</time>
      </trkpt>
      <trkpt lat="46.76315" lon="-0.52298">
        <ele>206.36</ele>
        <time>2024-06-25T06:27:08.438Z</time>
      </trkpt>
      <trkpt lat="46.7632" lon="-0.52299">
        <ele>206.51</ele>
        <time>2024-06-25T06:27:18.732Z</time>
      </trkpt>
      <trkpt lat="46.76324" lon="-0.52299">
        <ele>206.66</ele>
        <time>2024-06-25T06:27:29.027Z</time>
      </trkpt>
      <trkpt lat="46.76329" lon="-0.523">
        <ele>206.81</ele>
        <time>2024-06-25T06:27:39.323Z</time>
      </trkpt>
      <trkpt lat="46.76333" lon="-0.523">
        <ele>206.97</ele>
        <time>2024-06-25T06:27:49.620Z</time>
      </trkpt>
      <trkpt lat="46.76338" lon="-0.52301">
        <ele>207.12</ele>
        <time>2024-06-25T06:27:59.918Z</time>
      </trkpt>
      <trkpt lat="46.76342" lon="-0.52302">
        <ele>207.28</ele>
        <time>2024-06-25T06:28:10.216Z</time>
      </trkpt>
      <trkpt lat="46.76346" lon="-0.52303">
        <ele>207.44</ele>
        <time>2024-06-25T06:28:20.515Z</time>
      </trkpt>
      <trkpt lat="46.7635" lon="-0.52303">
        <ele>207.6</ele>
        <time>2024-06-25T06:28:30.815Z</time>
      </trkpt>
      <trkpt lat="46.76355" lon="-0.52304">
        <ele>207.77</ele>
        <time>2024-06-25T06:28:41.116Z</time>
      </trkpt>
      <trkpt lat="46.7636" lon="-0.52305">
        <ele>207.93</ele>
        <time>2024-06-25T06:28:51.418Z</time>
      </trkpt>
      <trkpt lat="46.76366" lon="-0.52305">
        <ele>208.1</ele>
        <time>2024-06-25T06:29:01.721Z</time>
      </trkpt>
      <trkpt lat="46.7637" lon="-0.52305">
        <ele>208.27</ele>
        <time>2024-06-25T06:29:12.025Z</time>
      </trkpt>
      <trkpt lat="46.76375" lon="-0.52306">
        <ele>208.44</ele>
        <time>2024-06-25T06:29:22.330Z</time>
      </trkpt>
      <trkpt lat="46.76379" lon="-0.52307">
        <ele>208.61</ele>
        <time>2024-06-25T06:29:32.636Z</time>
      </trkpt>
      <trkpt lat="46.76383" lon="-0.52307">
        <ele>208.78</ele>
        <time>2024-06-25T06:29:42.943Z</time>
      </trkpt>
      <trkpt lat="46.76387" lon="-0.52307">
        <ele>208.96</ele>
        <time>2024-06-25T06:29:53.250Z</time>
      </trkpt>
      <trkpt lat="46.76391" lon="-0.52308">
        <ele>209.13</ele>
        <time>2024-06-25T06:30:03.558Z</time>
      </trkpt>
      <trkpt lat="46.76395" lon="-0.52308">
        <ele>209.3</ele>
        <time>2024-06-25T06:30:13.867Z</time>
      </trkpt>
      <trkpt lat="46.76399" lon="-0.52308">
        <ele>209.47</ele>
        <time>2024-06-25T06:30:24.177Z</time>
      </trkpt>
      <trkpt lat="46.76403" lon="-0.52308">
        <ele>209.64</ele>
        <time>2024-06-25T06:30:34.488Z</time>
      </trkpt>
      <trkpt lat="46.76407" lon="-0.52307">
        <ele>209.81</ele>
        <time>2024-06-25T06:30:44.799Z</time>
      </trkpt>
      <trkpt lat="46.76411" lon="-0.52308">
        <ele>209.98</ele>
        <time>2024-06-25T06:30:55.111Z</time>
      </trkpt>
      <trkpt lat="46.76415" lon="-0.52308">
        <ele>210.15</ele>
        <time>2024-06-25T06:31:05.424Z</time>
      </trkpt>
      <trkpt lat="46.7642" lon="-0.52308">
        <ele>210.32</ele>
        <time>2024-06-25T06:31:15.738Z</time>
      </trkpt>
      <trkpt lat="46.76424" lon="-0.52308">
        <ele>210.49</ele>
        <time>2024-06-25T06:31:26.053Z</time>
      </trkpt>
      <trkpt lat="46.76428" lon="-0.52308">
        <ele>210.65</ele>
        <time>2024-06-25T06:31:36.369Z</time>
      </trkpt>
      <trkpt lat="46.76432" lon="-0.52308">
        <ele>210.81</ele>
        <time>2024-06-25T06:31:46.685Z</time>
      </trkpt>
      <trkpt lat="46.76436" lon="-0.52309">
        <ele>210.98</ele>
        <time>2024-06-25T06:31:57.002Z</time>
      </trkpt>
      <trkpt lat="46.7644" lon="-0.5231">
        <ele>211.14</ele>
        <time>2024-06-25T06:32:07.320Z</time>
      </trkpt>
      <trkpt lat="46.76443" lon="-0.5231">
        <ele>211.3</ele>
        <time>2024-06-25T06:32:17.639Z</time>
      </trkpt>
      <trkpt lat="46.76447" lon="-0.5231">
        <ele>211.46</ele>
        <time>2024-06-25T06:32:27.958Z</time>
      </trkpt>
      <trkpt lat="46.76451" lon="-0.52311">
        <ele>211.62</ele>
        <time>2024-06-25T06:32:38.278Z</time>
      </trkpt>
      <trkpt lat="46.76454" lon="-0.52312">
        <ele>211.78</ele>
        <time>2024-06-25T06:32:48.599Z</time>
      </trkpt>
      <trkpt lat="46.76458" lon="-0.52313">
        <ele>211.94</ele>
        <time>2024-06-25T06:32:58.921Z</time>
      </trkpt>
      <trkpt lat="46.76461" lon="-0.52314">
        <ele>212.1</ele>
        <time>2024-06-25T06:33:09.243Z</time>
      </trkpt>
      <trkpt lat="46.76465" lon="-0.52316">
        <ele>212.26</ele>
        <time>2024-06-25T06:33:19.566Z</time>
      </trkpt>
      <trkpt lat="46.76469" lon="-0.52318">
        <ele>212.42</ele>
        <time>2024-06-25T06:33:29.890Z</time>
      </trkpt>
      <trkpt lat="46.76473" lon="-0.5232">
        <ele>212.58</ele>
        <time>2024-06-25T06:33:40.215Z</time>
      </trkpt>
      <trkpt lat="46.76477" lon="-0.52322">
        <ele>212.73</ele>
        <time>2024-06-25T06:33:50.541Z</time>
      </trkpt>
      <trkpt lat="46.76481" lon="-0.52324">
        <ele>212.89</ele>
        <time>2024-06-25T06:34:00.868Z</time>
      </trkpt>
      <trkpt lat="46.76484" lon="-0.52326">
        <ele>213.04</ele>
        <time>2024-06-25T06:34:11.195Z</time>
      </trkpt>
      <trkpt lat="46.76487" lon="-0.52329">
        <ele>213.2</ele>
        <time>2024-06-25T06:34:21.523Z</time>
      </trkpt>
      <trkpt lat="46.7649" lon="-0.52331">
        <ele>213.36</ele>
        <time>2024-06-25T06:34:31.852Z</time>
      </trkpt>
      <trkpt lat="46.76494" lon="-0.52334">
        <ele>213.51</ele>
        <time>2024-06-25T06:34:42.181Z</time>
      </trkpt>
      <trkpt lat="46.76497" lon="-0.52336">
        <ele>213.67</ele>
        <time>2024-06-25T06:34:52.511Z</time>
      </trkpt>
      <trkpt lat="46.765" lon="-0.52339">
        <ele>213.82</ele>
        <time>2024-06-25T06:35:02.842Z</time>
      </trkpt>
      <trkpt lat="46.76504" lon="-0.52341">
        <ele>213.97</ele>
        <time>2024-06-25T06:35:13.174Z</time>
      </trkpt>
      <trkpt lat="46.76507" lon="-0.52345">
        <ele>214.12</ele>
        <time>2024-06-25T06:35:23.506Z</time>
      </trkpt>
      <trkpt lat="46.7651" lon="-0.52348">
        <ele>214.27</ele>
        <time>2024-06-25T06:35:33.839Z</time>
      </trkpt>
      <trkpt lat="46.76513" lon="-0.52351">
        <ele>214.42</ele>
        <time>2024-06-25T06:35:44.173Z</time>
      </trkpt>
      <trkpt lat="46.76516" lon="-0.52354">
        <ele>214.57</ele>
        <time>2024-06-25T06:35:54.508Z</time>
      </trkpt>
      <trkpt lat="46.7652" lon="-0.52358">
        <ele>214.72</ele>
        <time>2024-06-25T06:36:04.844Z</time>
      </trkpt>
      <trkpt lat="46.76524" lon="-0.52361">
        <ele>214.87</ele>
        <time>2024-06-25T06:36:15.180Z</time>
      </trkpt>
      <trkpt lat="46.76528" lon="-0.52364">
        <ele>215.03</ele>
        <time>2024-06-25T06:36:25.517Z</time>
      </trkpt>
      <trkpt lat="46.76532" lon="-0.52367">
        <ele>215.18</ele>
        <time>2024-06-25T06:36:35.855Z</time>
      </trkpt>
      <trkpt lat="46.76535" lon="-0.5237">
        <ele>215.33</ele>
        <time>2024-06-25T06:36:46.194Z</time>
      </trkpt>
      <trkpt lat="46.76538" lon="-0.52372">
        <ele>215.47</ele>
        <time>2024-06-25T06:36:56.534Z</time>
      </trkpt>
      <trkpt lat="46.76542" lon="-0.52375">
        <ele>215.62</ele>
        <time>2024-06-25T06:37:06.875Z</time>
      </trkpt>
      <trkpt lat="46.76545" lon="-0.52379">
        <ele>215.76</ele>
        <time>2024-06-25T06:37:17.217Z</time>
      </trkpt>
      <trkpt lat="46.76549" lon="-0.52383">
        <ele>215.91</ele>
        <time>2024-06-25T06:37:27.559Z</time>
      </trkpt>
      <trkpt lat="46.76552" lon="-0.52386">
        <ele>216.05</ele>
        <time>2024-06-25T06:37:37.902Z</time>
      </trkpt>
      <trkpt lat="46.76555" lon="-0.5239">
        <ele>216.2</ele>
        <time>2024-06-25T06:37:48.246Z</time>
      </trkpt>
      <trkpt lat="46.76558" lon="-0.52393">
        <ele>216.35</ele>
        <time>2024-06-25T06:37:58.591Z</time>
      </trkpt>
      <trkpt lat="46.76562" lon="-0.52396">
        <ele>216.5</ele>
        <time>2024-06-25T06:38:08.937Z</time>
      </trkpt>
      <trkpt lat="46.76565" lon="-0.52399">
        <ele>216.65</ele>
        <time>2024-06-25T06:38:19.283Z</time>
      </trkpt>
      <trkpt lat="46.76568" lon="-0.52402">
        <ele>216.8</ele>
        <time>2024-06-25T06:38:29.630Z</time>
      </trkpt>
      <trkpt lat="46.76571" lon="-0.52406">
        <ele>216.95</ele>
        <time>2024-06-25T06:38:39.978Z</time>
      </trkpt>
      <trkpt lat="46.76574" lon="-0.52409">
        <ele>217.1</ele>
        <time>2024-06-25T06:38:50.327Z</time>
      </trkpt>
      <trkpt lat="46.76577" lon="-0.52412">
        <ele>217.26</ele>
        <time>2024-06-25T06:39:00.676Z</time>
      </trkpt>
      <trkpt lat="46.7658" lon="-0.52416">
        <ele>217.42</ele>
        <time>2024-06-25T06:39:11.026Z</time>
      </trkpt>
      <trkpt lat="46.76582" lon="-0.52419">
        <ele>217.58</ele>
        <time>2024-06-25T06:39:21.377Z</time>
      </trkpt>
      <trkpt lat="46.76585" lon="-0.52422">
        <ele>217.74</ele>
        <time>2024-06-25T06:39:31.729Z</time>
      </trkpt>
      <trkpt lat="46.76589" lon="-0.52426">
        <ele>217.91</ele>
        <time>2024-06-25T06:39:42.081Z</time>
      </trkpt>
      <trkpt lat="46.76592" lon="-0.52429">
        <ele>218.07</ele>
        <time>2024-06-25T06:39:52.434Z</time>
      </trkpt>
      <trkpt lat="46.76595" lon="-0.52433">
        <ele>218.24</ele>
        <time>2024-06-25T06:40:02.788Z</time>
      </trkpt>
      <trkpt lat="46.76598" lon="-0.52437">
        <ele>218.41</ele>
        <time>2024-06-25T06:40:13.143Z</time>
      </trkpt>
      <trkpt lat="46.76601" lon="-0.52441">
        <ele>218.57</ele>
        <time>2024-06-25T06:40:23.499Z</time>
      </trkpt>
      <trkpt lat="46.76604" lon="-0.52445">
        <ele>218.74</ele>
        <time>2024-06-25T06:40:33.855Z</time>
      </trkpt>
      <trkpt lat="46.76606" lon="-0.52449">
        <ele>218.91</ele>
        <time>2024-06-25T06:40:44.212Z</time>
      </trkpt>
      <trkpt lat="46.76609" lon="-0.52453">
        <ele>219.08</ele>
        <time>2024-06-25T06:40:54.570Z</time>
      </trkpt>
      <trkpt lat="46.76612" lon="-0.52456">
        <ele>219.24</ele>
        <time>2024-06-25T06:41:04.929Z</time>
      </trkpt>
      <trkpt lat="46.76614" lon="-0.52461">
        <ele>219.4</ele>
        <time>2024-06-25T06:41:15.288Z</time>
      </trkpt>
      <trkpt lat="46.76617" lon="-0.52464">
        <ele>219.57</ele>
        <time>2024-06-25T06:41:25.648Z</time>
      </trkpt>
      <trkpt lat="46.7662" lon="-0.52468">
        <ele>219.73</ele>
        <time>2024-06-25T06:41:36.009Z</time>
      </trkpt>
      <trkpt lat="46.76621" lon="-0.52471">
        <ele>219.89</ele>
        <time>2024-06-25T06:41:46.370Z</time>
      </trkpt>
      <trkpt lat="46.76624" lon="-0.52475">
        <ele>220.05</ele>
        <time>2024-06-25T06:41:56.732Z</time>
      </trkpt>
      <trkpt lat="46.76626" lon="-0.5248">
        <ele>220.21</ele>
        <time>2024-06-25T06:42:07.095Z</time>
      </trkpt>
      <trkpt lat="46.76628" lon="-0.52483">
        <ele>220.37</ele>
        <time>2024-06-25T06:42:17.459Z</time>
      </trkpt>
      <trkpt lat="46.76631" lon="-0.52486">
        <ele>220.52</ele>
        <time>2024-06-25T06:42:27.823Z</time>
      </trkpt>
      <trkpt lat="46.76633" lon="-0.5249">
        <ele>220.67</ele>
        <time>2024-06-25T06:42:38.188Z</time>
      </trkpt>
      <trkpt lat="46.76636" lon="-0.52495">
        <ele>220.82</ele>
        <time>2024-06-25T06:42:48.554Z</time>
      </trkpt>
      <trkpt lat="46.76639" lon="-0.52498">
        <ele>220.97</ele>
        <time>2024-06-25T06:42:58.920Z</time>
      </trkpt>
      <trkpt lat="46.76641" lon="-0.52501">
        <ele>221.11</ele>
        <time>2024-06-25T06:43:09.287Z</time>
      </trkpt>
      <trkpt lat="46.76643" lon="-0.52504">
        <ele>221.26</ele>
        <time>2024-06-25T06:43:19.655Z</time>
      </trkpt>
      <trkpt lat="46.76645" lon="-0.52506">
        <ele>221.4</ele>
        <time>2024-06-25T06:43:30.023Z</time>
      </trkpt>
      <trkpt lat="46.76647" lon="-0.52508">
        <ele>221.54</ele>
        <time>2024-06-25T06:43:40.392Z</time>
      </trkpt>
      <trkpt lat="46.76649" lon="-0.5251">
        <ele>221.67</ele>
        <time>2024-06-25T06:43:50.761Z</time>
      </trkpt>
      <trkpt lat="46.76651" lon="-0.52512">
        <ele>221.81</ele>
        <time>2024-06-25T06:44:01.131Z</time>
      </trkpt>
      <trkpt lat="46.76651" lon="-0.52512">
        <ele>221.94</ele>
        <time>2024-06-25T06:44:11.501Z</time>
      </trkpt>
      <trkpt lat="46.76651" lon="-0.52513">
        <ele>222.06</ele>
        <time>2024-06-25T06:44:21.871Z</time>
      </trkpt>
      <trkpt lat="46.76654" lon="-0.52517">
        <ele>222.19</ele>
        <time>2024-06-25T06:44:32.242Z</time>
      </trkpt>
      <trkpt lat="46.76655" lon="-0.52519">
        <ele>222.31</ele>
        <time>2024-06-25T06:44:42.613Z</time>
      </trkpt>
      <trkpt lat="46.76657" lon="-0.52521">
        <ele>222.43</ele>
        <time>2024-06-25T06:44:52.984Z</time>
      </trkpt>
      <trkpt lat="46.76659" lon="-0.52523">
        <ele>222.54</ele>
        <time>2024-06-25T06:45:03.356Z</time>
      </trkpt>
      <trkpt lat="46.76661" lon="-0.52526">
        <ele>222.64</ele>
        <time>2024-06-25T06:45:13.728Z</time>
      </trkpt>
      <trkpt lat="46.76664" lon="-0.5253">
        <ele>222.75</ele>
        <time>2024-06-25T06:45:24.101Z</time>
      </trkpt>
      <trkpt lat="46.76666" lon="-0.52534">
        <ele>222.85</ele>
        <time>2024-06-25T06:45:34.475Z</time>
      </trkpt>
      <trkpt lat="46.76667" lon="-0.52537">
        <ele>222.95</ele>
        <time>2024-06-25T06:45:44.849Z</time>
      </trkpt>
      <trkpt lat="46.76667" lon="-0.52541">
        <ele>223.04</ele>
        <time>2024-06-25T06:45:55.224Z</time>
      </trkpt>
      <trkpt lat="46.76666" lon="-0.52543">
        <ele>223.13</ele>
        <time>2024-06-25T06:46:05.599Z</time>
      </trkpt>
      <trkpt lat="46.76665" lon="-0.52545">
        <ele>223.21</ele>
        <time>2024-06-25T06:46:15.975Z</time>
      </trkpt>
      <trkpt lat="46.76666" lon="-0.52549">
        <ele>223.28</ele>
        <time>2024-06-25T06:46:26.351Z</time>
      </trkpt>
      <trkpt lat="46.76667" lon="-0.52552">
        <ele>223.36</ele>
        <time>2024-06-25T06:46:36.728Z</time>
      </trkpt>
      <trkpt lat="46.7667" lon="-0.52555">
        <ele>223.42</ele>
        <time>2024-06-25T06:46:47.105Z</time>
      </trkpt>
      <trkpt lat="46.76673" lon="-0.52557">
        <ele>223.48</ele>
        <time>2024-06-25T06:46:57.483Z</time>
      </trkpt>
      <trkpt lat="46.76675" lon="-0.5256">
        <ele>223.54</ele>
        <time>2024-06-25T06:47:07.862Z</time>
      </trkpt>
      <trkpt lat="46.76678" lon="-0.52562">
        <ele>223.59</ele>
        <time>2024-06-25T06:47:18.241Z</time>
      </trkpt>
      <trkpt lat="46.76682" lon="-0.52566">
        <ele>223.63</ele>
        <time>2024-06-25T06:47:28.621Z</time>
      </trkpt>
      <trkpt lat="46.76685" lon="-0.52569">
        <ele>223.67</ele>
        <time>2024-06-25T06:47:39.002Z</time>
      </trkpt>
      <trkpt lat="46.76687" lon="-0.52573">
        <ele>223.7</ele>
        <time>2024-06-25T06:47:49.384Z</time>
      </trkpt>
      <trkpt lat="46.7669" lon="-0.52577">
        <ele>223.73</ele>
        <time>2024-06-25T06:47:59.766Z</time>
      </trkpt>
      <trkpt lat="46.76692" lon="-0.52582">
        <ele>223.75</ele>
        <time>2024-06-25T06:48:10.149Z</time>
      </trkpt>
      <trkpt lat="46.76695" lon="-0.52586">
        <ele>223.76</ele>
        <time>2024-06-25T06:48:20.533Z</time>
      </trkpt>
      <trkpt lat="46.76697" lon="-0.52591">
        <ele>223.77</ele>
        <time>2024-06-25T06:48:30.918Z</time>
      </trkpt>
      <trkpt lat="46.767" lon="-0.52595">
        <ele>223.77</ele>
        <time>2024-06-25T06:48:41.304Z</time>
      </trkpt>
      <trkpt lat="46.76703" lon="-0.52601">
        <ele>223.77</ele>
        <time>2024-06-25T06:48:51.691Z</time>
      </trkpt>
      <trkpt lat="46.76705" lon="-0.52606">
        <ele>223.76</ele>
        <time>2024-06-25T06:49:02.078Z</time>
      </trkpt>
      <trkpt lat="46.76707" lon="-0.52611">
        <ele>223.74</ele>
        <time>2024-06-25T06:49:12.466Z</time>
      </trkpt>
      <trkpt lat="46.76709" lon="-0.52616">
        <ele>223.71</ele>
        <time>2024-06-25T06:49:22.855Z</time>
      </trkpt>
      <trkpt lat="46.76711" lon="-0.52621">
        <ele>223.68</ele>
        <time>2024-06-25T06:49:33.245Z</time>
      </trkpt>
      <trkpt lat="46.76713" lon="-0.52626">
        <ele>223.64</ele>
        <time>2024-06-25T06:49:43.636Z</time>
      </trkpt>
      <trkpt lat="46.76716" lon="-0.52631">
        <ele>223.59</ele>
        <time>2024-06-25T06:49:54.027Z</time>
      </trkpt>
      <trkpt lat="46.76719" lon="-0.52636">
        <ele>223.53</ele>
        <time>2024-06-25T06:50:04.419Z</time>
      </trkpt>
      <trkpt lat="46.76722" lon="-0.52641">
        <ele>223.47</ele>
        <time>2024-06-25T06:50:14.812Z</time>
      </trkpt>
      <trkpt lat="46.76725" lon="-0.52645">
        <ele>223.39</ele>
        <time>2024-06-25T06:50:25.206Z</time>
      </trkpt>
      <trkpt lat="46.76728" lon="-0.5265">
        <ele>223.32</ele>
        <time>2024-06-25T06:50:35.601Z</time>
      </trkpt>
      <trkpt lat="46.76731" lon="-0.52656">
        <ele>223.24</ele>
        <time>2024-06-25T06:50:45.997Z</time>
      </trkpt>
      <trkpt lat="46.76735" lon="-0.52661">
        <ele>223.15</ele>
        <time>2024-06-25T06:50:56.394Z</time>
      </trkpt>
      <trkpt lat="46.76738" lon="-0.52666">
        <ele>223.06</ele>
        <time>2024-06-25T06:51:06.792Z</time>
      </trkpt>
      <trkpt lat="46.76742" lon="-0.52672">
        <ele>222.95</ele>
        <time>2024-06-25T06:51:17.191Z</time>
      </trkpt>
      <trkpt lat="46.76745" lon="-0.52678">
        <ele>222.83</ele>
        <time>2024-06-25T06:51:27.591Z</time>
      </trkpt>
      <trkpt lat="46.7675" lon="-0.52684">
        <ele>222.71</ele>
        <time>2024-06-25T06:51:37.992Z</time>
      </trkpt>
      <trkpt lat="46.76754" lon="-0.52689">
        <ele>222.58</ele>
        <time>2024-06-25T06:51:48.394Z</time>
      </trkpt>
      <trkpt lat="46.76758" lon="-0.52694">
        <ele>222.45</ele>
        <time>2024-06-25T06:51:58.798Z</time>
      </trkpt>
      <trkpt lat="46.76761" lon="-0.52701">
        <ele>222.31</ele>
        <time>2024-06-25T06:52:09.203Z</time>
      </trkpt>
      <trkpt lat="46.76765" lon="-0.52708">
        <ele>222.16</ele>
        <time>2024-06-25T06:52:19.609Z</time>
      </trkpt>
      <trkpt lat="46.76768" lon="-0.52716">
        <ele>222.02</ele>
        <time>2024-06-25T06:52:30.016Z</time>
      </trkpt>
      <trkpt lat="46.76771" lon="-0.52723">
        <ele>221.88</ele>
        <time>2024-06-25T06:52:40.424Z</time>
      </trkpt>
      <trkpt lat="46.76774" lon="-0.52731">
        <ele>221.73</ele>
        <time>2024-06-25T06:52:50.833Z</time>
      </trkpt>
      <trkpt lat="46.76777" lon="-0.52737">
        <ele>221.58</ele>
        <time>2024-06-25T06:53:01.244Z</time>
      </trkpt>
      <trkpt lat="46.76779" lon="-0.52745">
        <ele>221.42</ele>
        <time>2024-06-25T06:53:11.656Z</time>
      </trkpt>
      <trkpt lat="46.76782" lon="-0.52752">
        <ele>221.26</ele>
        <time>2024-06-25T06:53:22.069Z</time>
      </trkpt>
      <trkpt lat="46.76785" lon="-0.52759">
        <ele>221.11</ele>
        <time>2024-06-25T06:53:32.483Z</time>
      </trkpt>
      <trkpt lat="46.76788" lon="-0.52767">
        <ele>220.95</ele>
        <time>2024-06-25T06:53:42.898Z</time>
      </trkpt>
      <trkpt lat="46.76791" lon="-0.52774">
        <ele>220.79</ele>
        <time>2024-06-25T06:53:53.314Z</time>
      </trkpt>
      <trkpt lat="46.76794" lon="-0.52781">
        <ele>220.63</ele>
        <time>2024-06-25T06:54:03.731Z</time>
      </trkpt>
      <trkpt lat="46.76797" lon="-0.52788">
        <ele>220.46</ele>
        <time>2024-06-25T06:54:14.150Z</time>
      </trkpt>
      <trkpt lat="46.76799" lon="-0.52796">
        <ele>220.29</ele>
        <time>2024-06-25T06:54:24.570Z</time>
      </trkpt>
      <trkpt lat="46.76802" lon="-0.52803">
        <ele>220.12</ele>
        <time>2024-06-25T06:54:34.991Z</time>
      </trkpt>
      <trkpt lat="46.76804" lon="-0.5281">
        <ele>219.94</ele>
        <time>2024-06-25T06:54:45.413Z</time>
      </trkpt>
      <trkpt lat="46.76807" lon="-0.52817">
        <ele>219.77</ele>
        <time>2024-06-25T06:54:55.836Z</time>
      </trkpt>
      <trkpt lat="46.76811" lon="-0.52821">
        <ele>219.6</ele>
        <time>2024-06-25T06:55:06.260Z</time>
      </trkpt>
      <trkpt lat="46.76815" lon="-0.5282">
        <ele>219.44</ele>
        <time>2024-06-25T06:55:16.685Z</time>
      </trkpt>
      <trkpt lat="46.76819" lon="-0.52818">
        <ele>219.28</ele>
        <time>2024-06-25T06:55:27.111Z</time>
      </trkpt>
      <trkpt lat="46.76823" lon="-0.52813">
        <ele>219.11</ele>
        <time>2024-06-25T06:55:37.538Z</time>
      </trkpt>
      <trkpt lat="46.76827" lon="-0.52809">
        <ele>218.95</ele>
        <time>2024-06-25T06:55:47.966Z</time>
      </trkpt>
      <trkpt lat="46.7683" lon="-0.52805">
        <ele>218.79</ele>
        <time>2024-06-25T06:55:58.395Z</time>
      </trkpt>
      <trkpt lat="46.76833" lon="-0.52799">
        <ele>218.63</ele>
        <time>2024-06-25T06:56:08.825Z</time>
      </trkpt>
      <trkpt lat="46.76836" lon="-0.52793">
        <ele>218.47</ele>
        <time>2024-06-25T06:56:19.256Z</time>
      </trkpt>
      <trkpt lat="46.76839" lon="-0.52787">
        <ele>218.31</ele>
        <time>2024-06-25T06:56:29.688Z</time>
      </trkpt>
      <trkpt lat="46.76842" lon="-0.5278">
        <ele>218.15</ele>
        <time>2024-06-25T06:56:40.121Z</time>
      </trkpt>
      <trkpt lat="46.76845" lon="-0.52774">
        <ele>217.99</ele>
        <time>2024-06-25T06:56:50.555Z</time>
      </trkpt>
      <trkpt lat="46.76847" lon="-0.52769">
        <ele>217.83</ele>
        <time>2024-06-25T06:57:00.990Z</time>
      </trkpt>
      <trkpt lat="46.7685" lon="-0.52762">
        <ele>217.67</ele>
        <time>2024-06-25T06:57:11.426Z</time>
      </trkpt>
      <trkpt lat="46.76853" lon="-0.52757">
        <ele>217.5</ele>
        <time>2024-06-25T06:57:21.863Z</time>
      </trkpt>
      <trkpt lat="46.76855" lon="-0.5275">
        <ele>217.35</ele>
        <time>2024-06-25T06:57:32.301Z</time>
      </trkpt>
      <trkpt lat="46.76857" lon="-0.52744">
        <ele>217.19</ele>
        <time>2024-06-25T06:57:42.740Z</time>
      </trkpt>
      <trkpt lat="46.7686" lon="-0.52738">
        <ele>217.04</ele>
        <time>2024-06-25T06:57:53.180Z</time>
      </trkpt>
      <trkpt lat="46.76862" lon="-0.52731">
        <ele>216.89</ele>
        <time>2024-06-25T06:58:03.621Z</time>
      </trkpt>
      <trkpt lat="46.76864" lon="-0.52724">
        <ele>216.73</ele>
        <time>2024-06-25T06:58:14.063Z</time>
      </trkpt>
      <trkpt lat="46.76866" lon="-0.52717">
        <ele>216.59</ele>
        <time>2024-06-25T06:58:24.506Z</time>
      </trkpt>
      <trkpt lat="46.76868" lon="-0.5271">
        <ele>216.44</ele>
        <time>2024-06-25T06:58:34.950Z</time>
      </trkpt>
      <trkpt lat="46.7687" lon="-0.52702">
        <ele>216.3</ele>
        <time>2024-06-25T06:58:45.395Z</time>
      </trkpt>
      <trkpt lat="46.76872" lon="-0.52695">
        <ele>216.15</ele>
        <time>2024-06-25T06:58:55.841Z</time>
      </trkpt>
      <trkpt lat="46.76874" lon="-0.52688">
        <ele>216</ele>
        <time>2024-06-25T06:59:06.288Z</time>
      </trkpt>
      <trkpt lat="46.76876" lon="-0.5268">
        <ele>215.86</ele>
        <time>2024-06-25T06:59:16.736Z</time>
      </trkpt>
      <trkpt lat="46.76878" lon="-0.52673">
        <ele>215.72</ele>
        <time>2024-06-25T06:59:27.185Z</time>
      </trkpt>
      <trkpt lat="46.76881" lon="-0.52666">
        <ele>215.57</ele>
        <time>2024-06-25T06:59:37.635Z</time>
      </trkpt>
      <trkpt lat="46.76883" lon="-0.52658">
        <ele>215.42</ele>
        <time>2024-06-25T06:59:48.087Z</time>
      </trkpt>
      <trkpt lat="46.76885" lon="-0.5265">
        <ele>215.28</ele>
        <time>2024-06-25T06:59:58.540Z</time>
      </trkpt>
      <trkpt lat="46.76887" lon="-0.52641">
        <ele>215.13</ele>
        <time>2024-06-25T07:00:08.994Z</time>
      </trkpt>
      <trkpt lat="46.76888" lon="-0.52633">
        <ele>214.98</ele>
        <time>2024-06-25T07:00:19.449Z</time>
      </trkpt>
      <trkpt lat="46.7689" lon="-0.52625">
        <ele>214.83</ele>
        <time>2024-06-25T07:00:29.905Z</time>
      </trkpt>
      <trkpt lat="46.76893" lon="-0.52618">
        <ele>214.67</ele>
        <time>2024-06-25T07:00:40.362Z</time>
      </trkpt>
      <trkpt lat="46.76895" lon="-0.5261">
        <ele>214.52</ele>
        <time>2024-06-25T07:00:50.821Z</time>
      </trkpt>
      <trkpt lat="46.76898" lon="-0.52604">
        <ele>214.38</ele>
        <time>2024-06-25T07:01:01.281Z</time>
      </trkpt>
      <trkpt lat="46.769" lon="-0.52597">
        <ele>214.24</ele>
        <time>2024-06-25T07:01:11.742Z</time>
      </trkpt>
      <trkpt lat="46.76902" lon="-0.52589">
        <ele>214.09</ele>
        <time>2024-06-25T07:01:22.204Z</time>
      </trkpt>
      <trkpt lat="46.76904" lon="-0.52582">
        <ele>213.95</ele>
        <time>2024-06-25T07:01:32.667Z</time>
      </trkpt>
      <trkpt lat="46.76906" lon="-0.52575">
        <ele>213.81</ele>
        <time>2024-06-25T07:01:43.131Z</time>
      </trkpt>
      <trkpt lat="46.76908" lon="-0.52569">
        <ele>213.67</ele>
        <time>2024-06-25T07:01:53.596Z</time>
      </trkpt>
      <trkpt lat="46.7691" lon="-0.52562">
        <ele>213.54</ele>
        <time>2024-06-25T07:02:04.062Z</time>
      </trkpt>
      <trkpt lat="46.76912" lon="-0.52556">
        <ele>213.4</ele>
        <time>2024-06-25T07:02:14.529Z</time>
      </trkpt>
      <trkpt lat="46.76915" lon="-0.5255">
        <ele>213.26</ele>
        <time>2024-06-25T07:02:24.997Z</time>
      </trkpt>
      <trkpt lat="46.76919" lon="-0.52545">
        <ele>213.13</ele>
        <time>2024-06-25T07:02:35.466Z</time>
      </trkpt>
      <trkpt lat="46.76923" lon="-0.5254">
        <ele>213</ele>
        <time>2024-06-25T07:02:45.936Z</time>
      </trkpt>
      <trkpt lat="46.76927" lon="-0.52535">
        <ele>212.86</ele>
        <time>2024-06-25T07:02:56.407Z</time>
      </trkpt>
      <trkpt lat="46.76932" lon="-0.52532">
        <ele>212.73</ele>
        <time>2024-06-25T07:03:06.879Z</time>
      </trkpt>
      <trkpt lat="46.76937" lon="-0.52531">
        <ele>212.59</ele>
        <time>2024-06-25T07:03:17.352Z</time>
      </trkpt>
      <trkpt lat="46.76943" lon="-0.52531">
        <ele>212.46</ele>
        <time>2024-06-25T07:03:27.826Z</time>
      </trkpt>
      <trkpt lat="46.76949" lon="-0.52532">
        <ele>212.33</ele>
        <time>2024-06-25T07:03:38.301Z</time>
      </trkpt>
      <trkpt lat="46.76954" lon="-0.52532">
        <ele>212.21</ele>
        <time>2024-06-25T07:03:48.777Z</time>
      </trkpt>
      <trkpt lat="46.7696" lon="-0.52533">
        <ele>212.08</ele>
        <time>2024-06-25T07:03:59.255Z</time>
      </trkpt>
      <trkpt lat="46.76966" lon="-0.52535">
        <ele>211.96</ele>
        <time>2024-06-25T07:04:09.734Z</time>
      </trkpt>
      <trkpt lat="46.76972" lon="-0.52536">
        <ele>211.85</ele>
        <time>2024-06-25T07:04:20.214Z</time>
      </trkpt>
      <trkpt lat="46.76978" lon="-0.52537">
        <ele>211.73</ele>
        <time>2024-06-25T07:04:30.695Z</time>
      </trkpt>
      <trkpt lat="46.76983" lon="-0.52538">
        <ele>211.63</ele>
        <time>2024-06-25T07:04:41.177Z</time>
      </trkpt>
      <trkpt lat="46.76989" lon="-0.52539">
        <ele>211.53</ele>
        <time>2024-06-25T07:04:51.660Z</time>
      </trkpt>
      <trkpt lat="46.76995" lon="-0.52541">
        <ele>211.43</ele>
        <time>2024-06-25T07:05:02.145Z</time>
      </trkpt>
      <trkpt lat="46.77001" lon="-0.52542">
        <ele>211.34</ele>
        <time>2024-06-25T07:05:12.631Z</time>
      </trkpt>
      <trkpt lat="46.77007" lon="-0.52544">
        <ele>211.24</ele>
        <time>2024-06-25T07:05:23.118Z</time>
      </trkpt>
      <trkpt lat="46.77014" lon="-0.52545">
        <ele>211.16</ele>
        <time>2024-06-25T07:05:33.606Z</time>
      </trkpt>
      <trkpt lat="46.7702" lon="-0.52546">
        <ele>211.09</ele>
        <time>2024-06-25T07:05:44.096Z</time>
      </trkpt>
      <trkpt lat="46.77025" lon="-0.52546">
        <ele>211.02</ele>
        <time>2024-06-25T07:05:54.587Z</time>
      </trkpt>
      <trkpt lat="46.77031" lon="-0.52547">
        <ele>210.95</ele>
        <time>2024-06-25T07:06:05.079Z</time>
      </trkpt>
      <trkpt lat="46.77037" lon="-0.52547">
        <ele>210.89</ele>
        <time>2024-06-25T07:06:15.572Z</time>
      </trkpt>
      <trkpt lat="46.77044" lon="-0.52547">
        <ele>210.82</ele>
        <time>2024-06-25T07:06:26.066Z</time>
      </trkpt>
      <trkpt lat="46.77049" lon="-0.52548">
        <ele>210.77</ele>
        <time>2024-06-25T07:06:36.561Z</time>
      </trkpt>
      <trkpt lat="46.77054" lon="-0.5255">
        <ele>210.72</ele>
        <time>2024-06-25T07:06:47.058Z</time>
      </trkpt>
      <trkpt lat="46.7706" lon="-0.52553">
        <ele>210.67</ele>
        <time>2024-06-25T07:06:57.556Z</time>
      </trkpt>
      <trkpt lat="46.77065" lon="-0.52555">
        <ele>210.62</ele>
        <time>2024-06-25T07:07:08.055Z</time>
      </trkpt>
      <trkpt lat="46.77071" lon="-0.52558">
        <ele>210.58</ele>
        <time>2024-06-25T07:07:18.555Z</time>
      </trkpt>
      <trkpt lat="46.77077" lon="-0.52561">
        <ele>210.55</ele>
        <time>2024-06-25T07:07:29.056Z</time>
      </trkpt>
      <trkpt lat="46.77083" lon="-0.52564">
        <ele>210.51</ele>
        <time>2024-06-25T07:07:39.559Z</time>
      </trkpt>
      <trkpt lat="46.77088" lon="-0.52567">
        <ele>210.48</ele>
        <time>2024-06-25T07:07:50.063Z</time>
      </trkpt>
      <trkpt lat="46.77094" lon="-0.52571">
        <ele>210.46</ele>
        <time>2024-06-25T07:08:00.568Z</time>
      </trkpt>
      <trkpt lat="46.77099" lon="-0.52574">
        <ele>210.44</ele>
        <time>2024-06-25T07:08:11.074Z</time>
      </trkpt>
      <trkpt lat="46.77105" lon="-0.52578">
        <ele>210.42</ele>
        <time>2024-06-25T07:08:21.581Z</time>
      </trkpt>
      <trkpt lat="46.7711" lon="-0.52581">
        <ele>210.4</ele>
        <time>2024-06-25T07:08:32.089Z</time>
      </trkpt>
      <trkpt lat="46.77115" lon="-0.52584">
        <ele>210.38</ele>
        <time>2024-06-25T07:08:42.599Z</time>
      </trkpt>
      <trkpt lat="46.77121" lon="-0.52588">
        <ele>210.37</ele>
        <time>2024-06-25T07:08:53.110Z</time>
      </trkpt>
      <trkpt lat="46.77126" lon="-0.52592">
        <ele>210.36</ele>
        <time>2024-06-25T07:09:03.622Z</time>
      </trkpt>
      <trkpt lat="46.7713" lon="-0.52596">
        <ele>210.36</ele>
        <time>2024-06-25T07:09:14.135Z</time>
      </trkpt>
      <trkpt lat="46.77134" lon="-0.526">
        <ele>210.36</ele>
        <time>2024-06-25T07:09:24.649Z</time>
      </trkpt>
      <trkpt lat="46.77138" lon="-0.52603">
        <ele>210.37</ele>
        <time>2024-06-25T07:09:35.164Z</time>
      </trkpt>
      <trkpt lat="46.77141" lon="-0.52607">
        <ele>210.38</ele>
        <time>2024-06-25T07:09:45.680Z</time>
      </trkpt>
      <trkpt lat="46.77145" lon="-0.52611">
        <ele>210.39</ele>
        <time>2024-06-25T07:09:56.197Z</time>
      </trkpt>
      <trkpt lat="46.77149" lon="-0.52615">
        <ele>210.41</ele>
        <time>2024-06-25T07:10:06.715Z</time>
      </trkpt>
      <trkpt lat="46.77152" lon="-0.52619">
        <ele>210.43</ele>
        <time>2024-06-25T07:10:17.234Z</time>
      </trkpt>
      <trkpt lat="46.77157" lon="-0.52624">
        <ele>210.46</ele>
        <time>2024-06-25T07:10:27.754Z</time>
      </trkpt>
      <trkpt lat="46.7716" lon="-0.52628">
        <ele>210.5</ele>
        <time>2024-06-25T07:10:38.275Z</time>
      </trkpt>
      <trkpt lat="46.77163" lon="-0.52632">
        <ele>210.54</ele>
        <time>2024-06-25T07:10:48.796Z</time>
      </trkpt>
      <trkpt lat="46.77167" lon="-0.52636">
        <ele>210.59</ele>
        <time>2024-06-25T07:10:59.318Z</time>
      </trkpt>
      <trkpt lat="46.77171" lon="-0.5264">
        <ele>210.64</ele>
        <time>2024-06-25T07:11:09.841Z</time>
      </trkpt>
      <trkpt lat="46.77174" lon="-0.52644">
        <ele>210.69</ele>
        <time>2024-06-25T07:11:20.365Z</time>
      </trkpt>
      <trkpt lat="46.77178" lon="-0.52649">
        <ele>210.74</ele>
        <time>2024-06-25T07:11:30.890Z</time>
      </trkpt>
      <trkpt lat="46.77182" lon="-0.52652">
        <ele>210.8</ele>
        <time>2024-06-25T07:11:41.416Z</time>
      </trkpt>
      <trkpt lat="46.77187" lon="-0.52655">
        <ele>210.86</ele>
        <time>2024-06-25T07:11:51.943Z</time>
      </trkpt>
      <trkpt lat="46.77192" lon="-0.52657">
        <ele>210.93</ele>
        <time>2024-06-25T07:12:02.471Z</time>
      </trkpt>
      <trkpt lat="46.77196" lon="-0.52659">
        <ele>211</ele>
        <time>2024-06-25T07:12:13.000Z</time>
      </trkpt>
      <trkpt lat="46.77199" lon="-0.5266">
        <ele>211.08</ele>
        <time>2024-06-25T07:12:23.530Z</time>
      </trkpt>
      <trkpt lat="46.77202" lon="-0.52662">
        <ele>211.16</ele>
        <time>2024-06-25T07:12:34.060Z</time>
      </trkpt>
      <trkpt lat="46.77207" lon="-0.52663">
        <ele>211.24</ele>
        <time>2024-06-25T07:12:44.591Z</time>
      </trkpt>
      <trkpt lat="46.77211" lon="-0.52664">
        <ele>211.32</ele>
        <time>2024-06-25T07:12:55.123Z</time>
      </trkpt>
      <trkpt lat="46.77216" lon="-0.52665">
        <ele>211.4</ele>
        <time>2024-06-25T07:13:05.656Z</time>
      </trkpt>
      <trkpt lat="46.77221" lon="-0.52664">
        <ele>211.49</ele>
        <time>2024-06-25T07:13:16.190Z</time>
      </trkpt>
      <trkpt lat="46.77226" lon="-0.52663">
        <ele>211.58</ele>
        <time>2024-06-25T07:13:26.725Z</time>
      </trkpt>
      <trkpt lat="46.77231" lon="-0.52661">
        <ele>211.68</ele>
        <time>2024-06-25T07:13:37.261Z</time>
      </trkpt>
      <trkpt lat="46.77234" lon="-0.52659">
        <ele>211.77</ele>
        <time>2024-06-25T07:13:47.798Z</time>
      </trkpt>
      <trkpt lat="46.77238" lon="-0.52656">
        <ele>211.87</ele>
        <time>2024-06-25T07:13:58.336Z</time>
      </trkpt>
      <trkpt lat="46.77242" lon="-0.52654">
        <ele>211.97</ele>
        <time>2024-06-25T07:14:08.875Z</time>
      </trkpt>
      <trkpt lat="46.77246" lon="-0.52652">
        <ele>212.08</ele>
        <time>2024-06-25T07:14:19.414Z</time>
      </trkpt>
      <trkpt lat="46.7725" lon="-0.5265">
        <ele>212.19</ele>
        <time>2024-06-25T07:14:29.954Z</time>
      </trkpt>
      <trkpt lat="46.77253" lon="-0.52648">
        <ele>212.3</ele>
        <time>2024-06-25T07:14:40.495Z</time>
      </trkpt>
      <trkpt lat="46.77257" lon="-0.52645">
        <ele>212.41</ele>
        <time>2024-06-25T07:14:51.037Z</time>
      </trkpt>
      <trkpt lat="46.77261" lon="-0.52643">
        <ele>212.53</ele>
        <time>2024-06-25T07:15:01.580Z</time>
      </trkpt>
      <trkpt lat="46.77265" lon="-0.52641">
        <ele>212.65</ele>
        <time>2024-06-25T07:15:12.123Z</time>
      </trkpt>
      <trkpt lat="46.77269" lon="-0.52639">
        <ele>212.77</ele>
        <time>2024-06-25T07:15:22.667Z</time>
      </trkpt>
      <trkpt lat="46.77273" lon="-0.52637">
        <ele>212.9</ele>
        <time>2024-06-25T07:15:33.212Z</time>
      </trkpt>
      <trkpt lat="46.77276" lon="-0.52635">
        <ele>213.03</ele>
        <time>2024-06-25T07:15:43.758Z</time>
      </trkpt>
      <trkpt lat="46.7728" lon="-0.52634">
        <ele>213.16</ele>
        <time>2024-06-25T07:15:54.305Z</time>
      </trkpt>
      <trkpt lat="46.77283" lon="-0.52633">
        <ele>213.3</ele>
        <time>2024-06-25T07:16:04.852Z</time>
      </trkpt>
      <trkpt lat="46.77288" lon="-0.52631">
        <ele>213.44</ele>
        <time>2024-06-25T07:16:15.400Z</time>
      </trkpt>
      <trkpt lat="46.77291" lon="-0.5263">
        <ele>213.58</ele>
        <time>2024-06-25T07:16:25.949Z</time>
      </trkpt>
      <trkpt lat="46.77295" lon="-0.52629">
        <ele>213.73</ele>
        <time>2024-06-25T07:16:36.499Z</time>
      </trkpt>
      <trkpt lat="46.77298" lon="-0.52627">
        <ele>213.87</ele>
        <time>2024-06-25T07:16:47.049Z</time>
      </trkpt>
      <trkpt lat="46.77302" lon="-0.52627">
        <ele>214.03</ele>
        <time>2024-06-25T07:16:57.600Z</time>
      </trkpt>
      <trkpt lat="46.77306" lon="-0.52626">
        <ele>214.18</ele>
        <time>2024-06-25T07:17:08.152Z</time>
      </trkpt>
      <trkpt lat="46.77309" lon="-0.52625">
        <ele>214.33</ele>
        <time>2024-06-25T07:17:18.705Z</time>
      </trkpt>
      <trkpt lat="46.77311" lon="-0.52623">
        <ele>214.49</ele>
        <time>2024-06-25T07:17:29.258Z</time>
      </trkpt>
      <trkpt lat="46.77315" lon="-0.5262">
        <ele>214.64</ele>
        <time>2024-06-25T07:17:39.812Z</time>
      </trkpt>
      <trkpt lat="46.77317" lon="-0.52618">
        <ele>214.8</ele>
        <time>2024-06-25T07:17:50.367Z</time>
      </trkpt>
      <trkpt lat="46.7732" lon="-0.52615">
        <ele>214.96</ele>
        <time>2024-06-25T07:18:00.922Z</time>
      </trkpt>
      <trkpt lat="46.77323" lon="-0.52613">
        <ele>215.12</ele>
        <time>2024-06-25T07:18:11.478Z</time>
      </trkpt>
      <trkpt lat="46.77325" lon="-0.5261">
        <ele>215.28</ele>
        <time>2024-06-25T07:18:22.034Z</time>
      </trkpt>
      <trkpt lat="46.77328" lon="-0.52608">
        <ele>215.44</ele>
        <time>2024-06-25T07:18:32.591Z</time>
      </trkpt>
      <trkpt lat="46.77331" lon="-0.52606">
        <ele>215.6</ele>
        <time>2024-06-25T07:18:43.149Z</time>
      </trkpt>
      <trkpt lat="46.77334" lon="-0.52604">
        <ele>215.76</ele>
        <time>2024-06-25T07:18:53.707Z</time>
      </trkpt>
      <trkpt lat="46.77337" lon="-0.52602">
        <ele>215.92</ele>
        <time>2024-06-25T07:19:04.266Z</time>
      </trkpt>
      <trkpt lat="46.77339" lon="-0.526">
        <ele>216.08</ele>
        <time>2024-06-25T07:19:14.825Z</time>
      </trkpt>
      <trkpt lat="46.77341" lon="-0.52599">
        <ele>216.25</ele>
        <time>2024-06-25T07:19:25.385Z</time>
      </trkpt>
      <trkpt lat="46.77344" lon="-0.52597">
        <ele>216.41</ele>
        <time>2024-06-25T07:19:35.946Z</time>
      </trkpt>
      <trkpt lat="46.77346" lon="-0.52596">
        <ele>216.58</ele>
        <time>2024-06-25T07:19:46.507Z</time>
      </trkpt>
      <trkpt lat="46.77348" lon="-0.52596">
        <ele>216.74</ele>
        <time>2024-06-25T07:19:57.068Z</time>
      </trkpt>
      <trkpt lat="46.7735" lon="-0.52596">
        <ele>216.91</ele>
        <time>2024-06-25T07:20:07.630Z</time>
      </trkpt>
      <trkpt lat="46.77352" lon="-0.52595">
        <ele>217.07</ele>
        <time>2024-06-25T07:20:18.192Z</time>
      </trkpt>
      <trkpt lat="46.77353" lon="-0.52594">
        <ele>217.24</ele>
        <time>2024-06-25T07:20:28.755Z</time>
      </trkpt>
      <trkpt lat="46.77355" lon="-0.52593">
        <ele>217.4</ele>
        <time>2024-06-25T07:20:39.318Z</time>
      </trkpt>
      <trkpt lat="46.77356" lon="-0.52592">
        <ele>217.57</ele>
        <time>2024-06-25T07:20:49.881Z</time>
      </trkpt>
      <trkpt lat="46.77358" lon="-0.52591">
        <ele>217.74</ele>
        <time>2024-06-25T07:21:00.444Z</time>
      </trkpt>
      <trkpt lat="46.77359" lon="-0.52589">
        <ele>217.9</ele>
        <time>2024-06-25T07:21:11.008Z</time>
      </trkpt>
      <trkpt lat="46.77361" lon="-0.52588">
        <ele>218.07</ele>
        <time>2024-06-25T07:21:21.572Z</time>
      </trkpt>
      <trkpt lat="46.77362" lon="-0.52587">
        <ele>218.24</ele>
        <time>2024-06-25T07:21:32.137Z</time>
      </trkpt>
      <trkpt lat="46.77363" lon="-0.52586">
        <ele>218.4</ele>
        <time>2024-06-25T07:21:42.702Z</time>
      </trkpt>
      <trkpt lat="46.77364" lon="-0.52586">
        <ele>218.57</ele>
        <time>2024-06-25T07:21:53.267Z</time>
      </trkpt>
      <trkpt lat="46.77365" lon="-0.52586">
        <ele>218.74</ele>
        <time>2024-06-25T07:22:03.832Z</time>
      </trkpt>
      <trkpt lat="46.77366" lon="-0.52585">
        <ele>218.9</ele>
        <time>2024-06-25T07:22:14.397Z</time>
      </trkpt>
      <trkpt lat="46.77368" lon="-0.52585">
        <ele>219.07</ele>
        <time>2024-06-25T07:22:24.963Z</time>
      </trkpt>
      <trkpt lat="46.77369" lon="-0.52585">
        <ele>219.23</ele>
        <time>2024-06-25T07:22:35.529Z</time>
      </trkpt>
      <trkpt lat="46.77369" lon="-0.52585">
        <ele>219.4</ele>
        <time>2024-06-25T07:22:46.095Z</time>
      </trkpt>
      <trkpt lat="46.77381" lon="-0.52577">
        <ele>219.57</ele>
        <time>2024-06-25T07:22:56.664Z</time>
      </trkpt>
      <trkpt lat="46.77383" lon="-0.52576">
        <ele>219.73</ele>
        <time>2024-06-25T07:23:07.233Z</time>
      </trkpt>
      <trkpt lat="46.77384" lon="-0.52576">
        <ele>219.9</ele>
        <time>2024-06-25T07:23:17.802Z</time>
      </trkpt>
      <trkpt lat="46.77386" lon="-0.52574">
        <ele>220.06</ele>
        <time>2024-06-25T07:23:28.372Z</time>
      </trkpt>
      <trkpt lat="46.77387" lon="-0.52574">
        <ele>220.22</ele>
        <time>2024-06-25T07:23:38.942Z</time>
      </trkpt>
      <trkpt lat="46.77389" lon="-0.52573">
        <ele>220.38</ele>
        <time>2024-06-25T07:23:49.512Z</time>
      </trkpt>
      <trkpt lat="46.7739" lon="-0.52573">
        <ele>220.54</ele>
        <time>2024-06-25T07:24:00.083Z</time>
      </trkpt>
      <trkpt lat="46.77391" lon="-0.52572">
        <ele>220.7</ele>
        <time>2024-06-25T07:24:10.654Z</time>
      </trkpt>
      <trkpt lat="46.77392" lon="-0.52572">
        <ele>220.86</ele>
        <time>2024-06-25T07:24:21.225Z</time>
      </trkpt>
      <trkpt lat="46.77392" lon="-0.52571">
        <ele>221.01</ele>
        <time>2024-06-25T07:24:31.796Z</time>
      </trkpt>
      <trkpt lat="46.77421" lon="-0.52556">
        <ele>221.2</ele>
        <time>2024-06-25T07:24:42.373Z</time>
      </trkpt>
      <trkpt lat="46.77423" lon="-0.52555">
        <ele>221.35</ele>
        <time>2024-06-25T07:24:52.951Z</time>
      </trkpt>
      <trkpt lat="46.77425" lon="-0.52554">
        <ele>221.51</ele>
        <time>2024-06-25T07:25:03.529Z</time>
      </trkpt>
      <trkpt lat="46.77427" lon="-0.52552">
        <ele>221.66</ele>
        <time>2024-06-25T07:25:14.108Z</time>
      </trkpt>
      <trkpt lat="46.77429" lon="-0.52551">
        <ele>221.8</ele>
        <time>2024-06-25T07:25:24.687Z</time>
      </trkpt>
      <trkpt lat="46.77431" lon="-0.52549">
        <ele>221.95</ele>
        <time>2024-06-25T07:25:35.267Z</time>
      </trkpt>
      <trkpt lat="46.77433" lon="-0.52548">
        <ele>222.09</ele>
        <time>2024-06-25T07:25:45.847Z</time>
      </trkpt>
      <trkpt lat="46.77436" lon="-0.52547">
        <ele>222.23</ele>
        <time>2024-06-25T07:25:56.428Z</time>
      </trkpt>
      <trkpt lat="46.77438" lon="-0.52545">
        <ele>222.37</ele>
        <time>2024-06-25T07:26:07.009Z</time>
      </trkpt>
      <trkpt lat="46.7744" lon="-0.52544">
        <ele>222.5</ele>
        <time>2024-06-25T07:26:17.591Z</time>
      </trkpt>
      <trkpt lat="46.77443" lon="-0.52542">
        <ele>222.63</ele>
        <time>2024-06-25T07:26:28.173Z</time>
      </trkpt>
      <trkpt lat="46.77445" lon="-0.5254">
        <ele>222.76</ele>
        <time>2024-06-25T07:26:38.756Z</time>
      </trkpt>
      <trkpt lat="46.77447" lon="-0.52539">
        <ele>222.88</ele>
        <time>2024-06-25T07:26:49.339Z</time>
      </trkpt>
      <trkpt lat="46.7745" lon="-0.52537">
        <ele>223</ele>
        <time>2024-06-25T07:26:59.923Z</time>
      </trkpt>
      <trkpt lat="46.77452" lon="-0.52536">
        <ele>223.12</ele>
        <time>2024-06-25T07:27:10.507Z</time>
      </trkpt>
      <trkpt lat="46.77455" lon="-0.52534">
        <ele>223.23</ele>
        <time>2024-06-25T07:27:21.092Z</time>
      </trkpt>
      <trkpt lat="46.77457" lon="-0.52533">
        <ele>223.33</ele>
        <time>2024-06-25T07:27:31.677Z</time>
      </trkpt>
      <trkpt lat="46.7746" lon="-0.52531">
        <ele>223.43</ele>
        <time>2024-06-25T07:27:42.263Z</time>
      </trkpt>
      <trkpt lat="46.77463" lon="-0.52529">
        <ele>223.52</ele>
        <time>2024-06-25T07:27:52.849Z</time>
      </trkpt>
      <trkpt lat="46.77464" lon="-0.52528">
        <ele>223.61</ele>
        <time>2024-06-25T07:28:03.436Z</time>
      </trkpt>
      <trkpt lat="46.77467" lon="-0.52525">
        <ele>223.69</ele>
        <time>2024-06-25T07:28:14.023Z</time>
      </trkpt>
      <trkpt lat="46.77469" lon="-0.52524">
        <ele>223.77</ele>
        <time>2024-06-25T07:28:24.611Z</time>
      </trkpt>
      <trkpt lat="46.77471" lon="-0.52522">
        <ele>223.84</ele>
        <time>2024-06-25T07:28:35.199Z</time>
      </trkpt>
      <trkpt lat="46.77473" lon="-0.52521">
        <ele>223.91</ele>
        <time>2024-06-25T07:28:45.788Z</time>
      </trkpt>
      <trkpt lat="46.77475" lon="-0.5252">
        <ele>223.97</ele>
        <time>2024-06-25T07:28:56.377Z</time>
      </trkpt>
      <trkpt lat="46.77477" lon="-0.52519">
        <ele>224.03</ele>
        <time>2024-06-25T07:29:06.967Z</time>
      </trkpt>
      <trkpt lat="46.77479" lon="-0.52519">
        <ele>224.07</ele>
        <time>2024-06-25T07:29:17.557Z</time>
      </trkpt>
      <trkpt lat="46.77481" lon="-0.52518">
        <ele>224.12</ele>
        <time>2024-06-25T07:29:28.148Z</time>
      </trkpt>
      <trkpt lat="46.77483" lon="-0.52518">
        <ele>224.15</ele>
        <time>2024-06-25T07:29:38.739Z</time>
      </trkpt>
      <trkpt lat="46.77486" lon="-0.52519">
        <ele>224.18</ele>
        <time>2024-06-25T07:29:49.330Z</time>
      </trkpt>
      <trkpt lat="46.77488" lon="-0.5252">
        <ele>224.21</ele>
        <time>2024-06-25T07:29:59.922Z</time>
      </trkpt>
      <trkpt lat="46.7749" lon="-0.52522">
        <ele>224.22</ele>
        <time>2024-06-25T07:30:10.514Z</time>
      </trkpt>
      <trkpt lat="46.77492" lon="-0.52525">
        <ele>224.23</ele>
        <time>2024-06-25T07:30:21.107Z</time>
      </trkpt>
      <trkpt lat="46.77493" lon="-0.52528">
        <ele>224.24</ele>
        <time>2024-06-25T07:30:31.700Z</time>
      </trkpt>
      <trkpt lat="46.77495" lon="-0.5253">
        <ele>224.23</ele>
        <time>2024-06-25T07:30:42.294Z</time>
      </trkpt>
      <trkpt lat="46.77497" lon="-0.52534">
        <ele>224.22</ele>
        <time>2024-06-25T07:30:52.889Z</time>
      </trkpt>
      <trkpt lat="46.77498" lon="-0.52537">
        <ele>224.21</ele>
        <time>2024-06-25T07:31:03.484Z</time>
      </trkpt>
      <trkpt lat="46.775" lon="-0.52541">
        <ele>224.18</ele>
        <time>2024-06-25T07:31:14.080Z</time>
      </trkpt>
      <trkpt lat="46.77502" lon="-0.52545">
        <ele>224.15</ele>
        <time>2024-06-25T07:31:24.676Z</time>
      </trkpt>
      <trkpt lat="46.77503" lon="-0.5255">
        <ele>224.1</ele>
        <time>2024-06-25T07:31:35.273Z</time>
      </trkpt>
      <trkpt lat="46.77506" lon="-0.52554">
        <ele>224.05</ele>
        <time>2024-06-25T07:31:45.871Z</time>
      </trkpt>
      <trkpt lat="46.77508" lon="-0.52559">
        <ele>224</ele>
        <time>2024-06-25T07:31:56.470Z</time>
      </trkpt>
      <trkpt lat="46.7751" lon="-0.52563">
        <ele>223.93</ele>
        <time>2024-06-25T07:32:07.069Z</time>
      </trkpt>
      <trkpt lat="46.77512" lon="-0.52568">
        <ele>223.86</ele>
        <time>2024-06-25T07:32:17.669Z</time>
      </trkpt>
      <trkpt lat="46.77515" lon="-0.52573">
        <ele>223.78</ele>
        <time>2024-06-25T07:32:28.270Z</time>
      </trkpt>
      <trkpt lat="46.77517" lon="-0.52577">
        <ele>223.7</ele>
        <time>2024-06-25T07:32:38.872Z</time>
      </trkpt>
      <trkpt lat="46.77519" lon="-0.52581">
        <ele>223.61</ele>
        <time>2024-06-25T07:32:49.474Z</time>
      </trkpt>
      <trkpt lat="46.77521" lon="-0.52585">
        <ele>223.52</ele>
        <time>2024-06-25T07:33:00.077Z</time>
      </trkpt>
      <trkpt lat="46.77523" lon="-0.5259">
        <ele>223.42</ele>
        <time>2024-06-25T07:33:10.681Z</time>
      </trkpt>
      <trkpt lat="46.77527" lon="-0.52595">
        <ele>223.31</ele>
        <time>2024-06-25T07:33:21.286Z</time>
      </trkpt>
      <trkpt lat="46.7753" lon="-0.52599">
        <ele>223.2</ele>
        <time>2024-06-25T07:33:31.892Z</time>
      </trkpt>
      <trkpt lat="46.77534" lon="-0.52603">
        <ele>223.08</ele>
        <time>2024-06-25T07:33:42.499Z</time>
      </trkpt>
      <trkpt lat="46.77538" lon="-0.52606">
        <ele>222.96</ele>
        <time>2024-06-25T07:33:53.107Z</time>
      </trkpt>
      <trkpt lat="46.77541" lon="-0.52608">
        <ele>222.83</ele>
        <time>2024-06-25T07:34:03.715Z</time>
      </trkpt>
      <trkpt lat="46.77544" lon="-0.52608">
        <ele>222.69</ele>
        <time>2024-06-25T07:34:14.324Z</time>
      </trkpt>
      <trkpt lat="46.77547" lon="-0.52607">
        <ele>222.55</ele>
        <time>2024-06-25T07:34:24.933Z</time>
      </trkpt>
      <trkpt lat="46.77549" lon="-0.52606">
        <ele>222.41</ele>
        <time>2024-06-25T07:34:35.543Z</time>
      </trkpt>
      <trkpt lat="46.77551" lon="-0.52604">
        <ele>222.26</ele>
        <time>2024-06-25T07:34:46.153Z</time>
      </trkpt>
      <trkpt lat="46.77554" lon="-0.52601">
        <ele>222.1</ele>
        <time>2024-06-25T07:34:56.764Z</time>
      </trkpt>
      <trkpt lat="46.77557" lon="-0.52599">
        <ele>221.94</ele>
        <time>2024-06-25T07:35:07.376Z</time>
      </trkpt>
      <trkpt lat="46.77561" lon="-0.52597">
        <ele>221.77</ele>
        <time>2024-06-25T07:35:17.989Z</time>
      </trkpt>
      <trkpt lat="46.77564" lon="-0.52594">
        <ele>221.6</ele>
        <time>2024-06-25T07:35:28.602Z</time>
      </trkpt>
      <trkpt lat="46.77567" lon="-0.52592">
        <ele>221.42</ele>
        <time>2024-06-25T07:35:39.216Z</time>
      </trkpt>
      <trkpt lat="46.77569" lon="-0.5259">
        <ele>221.24</ele>
        <time>2024-06-25T07:35:49.831Z</time>
      </trkpt>
      <trkpt lat="46.77572" lon="-0.52588">
        <ele>221.05</ele>
        <time>2024-06-25T07:36:00.446Z</time>
      </trkpt>
      <trkpt lat="46.77574" lon="-0.52585">
        <ele>220.86</ele>
        <time>2024-06-25T07:36:11.062Z</time>
      </trkpt>
      <trkpt lat="46.77577" lon="-0.52584">
        <ele>220.66</ele>
        <time>2024-06-25T07:36:21.678Z</time>
      </trkpt>
      <trkpt lat="46.7758" lon="-0.52583">
        <ele>220.46</ele>
        <time>2024-06-25T07:36:32.295Z</time>
      </trkpt>
      <trkpt lat="46.77582" lon="-0.52582">
        <ele>220.25</ele>
        <time>2024-06-25T07:36:42.912Z</time>
      </trkpt>
      <trkpt lat="46.77585" lon="-0.52581">
        <ele>220.04</ele>
        <time>2024-06-25T07:36:53.530Z</time>
      </trkpt>
      <trkpt lat="46.77587" lon="-0.52581">
        <ele>219.82</ele>
        <time>2024-06-25T07:37:04.148Z</time>
      </trkpt>
      <trkpt lat="46.77589" lon="-0.52581">
        <ele>219.61</ele>
        <time>2024-06-25T07:37:14.767Z</time>
      </trkpt>
      <trkpt lat="46.7759" lon="-0.52581">
        <ele>219.39</ele>
        <time>2024-06-25T07:37:25.386Z</time>
      </trkpt>
      <trkpt lat="46.77591" lon="-0.52582">
        <ele>219.16</ele>
        <time>2024-06-25T07:37:36.005Z</time>
      </trkpt>
      <trkpt lat="46.77591" lon="-0.52584">
        <ele>218.94</ele>
        <time>2024-06-25T07:37:46.624Z</time>
      </trkpt>
      <trkpt lat="46.77593" lon="-0.52584">
        <ele>218.71</ele>
        <time>2024-06-25T07:37:57.244Z</time>
      </trkpt>
      <trkpt lat="46.77594" lon="-0.52584">
        <ele>218.47</ele>
        <time>2024-06-25T07:38:07.864Z</time>
      </trkpt>
      <trkpt lat="46.77594" lon="-0.52584">
        <ele>218.24</ele>
        <time>2024-06-25T07:38:18.484Z</time>
      </trkpt>
      <trkpt lat="46.77596" lon="-0.52584">
        <ele>218</ele>
        <time>2024-06-25T07:38:29.104Z</time>
      </trkpt>
      <trkpt lat="46.77597" lon="-0.52584">
        <ele>217.76</ele>
        <time>2024-06-25T07:38:39.725Z</time>
      </trkpt>
      <trkpt lat="46.77598" lon="-0.52585">
        <ele>217.52</ele>
        <time>2024-06-25T07:38:50.346Z</time>
      </trkpt>
      <trkpt lat="46.776" lon="-0.52586">
        <ele>217.27</ele>
        <time>2024-06-25T07:39:00.967Z</time>
      </trkpt>
      <trkpt lat="46.77602" lon="-0.52587">
        <ele>217.03</ele>
        <time>2024-06-25T07:39:11.589Z</time>
      </trkpt>
      <trkpt lat="46.77605" lon="-0.52589">
        <ele>216.78</ele>
        <time>2024-06-25T07:39:22.211Z</time>
      </trkpt>
      <trkpt lat="46.77608" lon="-0.52589">
        <ele>216.53</ele>
        <time>2024-06-25T07:39:32.834Z</time>
      </trkpt>
      <trkpt lat="46.77611" lon="-0.5259">
        <ele>216.28</ele>
        <time>2024-06-25T07:39:43.457Z</time>
      </trkpt>
      <trkpt lat="46.77614" lon="-0.52591">
        <ele>216.03</ele>
        <time>2024-06-25T07:39:54.081Z</time>
      </trkpt>
      <trkpt lat="46.77617" lon="-0.52592">
        <ele>215.78</ele>
        <time>2024-06-25T07:40:04.706Z</time>
      </trkpt>
      <trkpt lat="46.77621" lon="-0.52593">
        <ele>215.53</ele>
        <time>2024-06-25T07:40:15.331Z</time>
      </trkpt>
      <trkpt lat="46.77624" lon="-0.52594">
        <ele>215.27</ele>
        <time>2024-06-25T07:40:25.957Z</time>
      </trkpt>
      <trkpt lat="46.77626" lon="-0.52596">
        <ele>215.03</ele>
        <time>2024-06-25T07:40:36.584Z</time>
      </trkpt>
      <trkpt lat="46.7763" lon="-0.52596">
        <ele>214.78</ele>
        <time>2024-06-25T07:40:47.211Z</time>
      </trkpt>
      <trkpt lat="46.77634" lon="-0.52595">
        <ele>214.53</ele>
        <time>2024-06-25T07:40:57.839Z</time>
      </trkpt>
      <trkpt lat="46.77638" lon="-0.52593">
        <ele>214.28</ele>
        <time>2024-06-25T07:41:08.468Z</time>
      </trkpt>
      <trkpt lat="46.77643" lon="-0.52593">
        <ele>214.03</ele>
        <time>2024-06-25T07:41:19.098Z</time>
      </trkpt>
      <trkpt lat="46.77647" lon="-0.52593">
        <ele>213.79</ele>
        <time>2024-06-25T07:41:29.729Z</time>
      </trkpt>
      <trkpt lat="46.77651" lon="-0.52592">
        <ele>213.55</ele>
        <time>2024-06-25T07:41:40.361Z</time>
      </trkpt>
      <trkpt lat="46.77656" lon="-0.52591">
        <ele>213.31</ele>
        <time>2024-06-25T07:41:50.994Z</time>
      </trkpt>
      <trkpt lat="46.7766" lon="-0.52591">
        <ele>213.07</ele>
        <time>2024-06-25T07:42:01.627Z</time>
      </trkpt>
      <trkpt lat="46.77665" lon="-0.52592">
        <ele>212.83</ele>
        <time>2024-06-25T07:42:12.261Z</time>
      </trkpt>
      <trkpt lat="46.77669" lon="-0.52593">
        <ele>212.61</ele>
        <time>2024-06-25T07:42:22.896Z</time>
      </trkpt>
      <trkpt lat="46.77674" lon="-0.52594">
        <ele>212.38</ele>
        <time>2024-06-25T07:42:33.532Z</time>
      </trkpt>
      <trkpt lat="46.77679" lon="-0.52595">
        <ele>212.18</ele>
        <time>2024-06-25T07:42:44.169Z</time>
      </trkpt>
      <trkpt lat="46.77684" lon="-0.52596">
        <ele>211.97</ele>
        <time>2024-06-25T07:42:54.807Z</time>
      </trkpt>
      <trkpt lat="46.77688" lon="-0.52595">
        <ele>211.77</ele>
        <time>2024-06-25T07:43:05.446Z</time>
      </trkpt>
      <trkpt lat="46.77693" lon="-0.52596">
        <ele>211.58</ele>
        <time>2024-06-25T07:43:16.086Z</time>
      </trkpt>
      <trkpt lat="46.77697" lon="-0.52597">
        <ele>211.39</ele>
        <time>2024-06-25T07:43:26.727Z</time>
      </trkpt>
      <trkpt lat="46.77702" lon="-0.52598">
        <ele>211.21</ele>
        <time>2024-06-25T07:43:37.369Z</time>
      </trkpt>
      <trkpt lat="46.77707" lon="-0.52597">
        <ele>211.03</ele>
        <time>2024-06-25T07:43:48.012Z</time>
      </trkpt>
      <trkpt lat="46.77711" lon="-0.52597">
        <ele>210.85</ele>
        <time>2024-06-25T07:43:58.656Z</time>
      </trkpt>
      <trkpt lat="46.77715" lon="-0.52597">
        <ele>210.69</ele>
        <time>2024-06-25T07:44:09.301Z</time>
      </trkpt>
      <trkpt lat="46.77721" lon="-0.52597">
        <ele>210.52</ele>
        <time>2024-06-25T07:44:19.947Z</time>
      </trkpt>
      <trkpt lat="46.77727" lon="-0.52597">
        <ele>210.36</ele>
        <time>2024-06-25T07:44:30.594Z</time>
      </trkpt>
      <trkpt lat="46.77733" lon="-0.52599">
        <ele>210.22</ele>
        <time>2024-06-25T07:44:41.242Z</time>
      </trkpt>
      <trkpt lat="46.77738" lon="-0.52601">
        <ele>210.08</ele>
        <time>2024-06-25T07:44:51.891Z</time>
      </trkpt>
      <trkpt lat="46.77743" lon="-0.52602">
        <ele>209.94</ele>
        <time>2024-06-25T07:45:02.541Z</time>
      </trkpt>
      <trkpt lat="46.77748" lon="-0.52603">
        <ele>209.82</ele>
        <time>2024-06-25T07:45:13.192Z</time>
      </trkpt>
      <trkpt lat="46.77753" lon="-0.52604">
        <ele>209.7</ele>
        <time>2024-06-25T07:45:23.844Z</time>
      </trkpt>
      <trkpt lat="46.77758" lon="-0.52605">
        <ele>209.59</ele>
        <time>2024-06-25T07:45:34.497Z</time>
      </trkpt>
      <trkpt lat="46.77762" lon="-0.52606">
        <ele>209.49</ele>
        <time>2024-06-25T07:45:45.151Z</time>
      </trkpt>
      <trkpt lat="46.77767" lon="-0.52606">
        <ele>209.41</ele>
        <time>2024-06-25T07:45:55.806Z</time>
      </trkpt>
      <trkpt lat="46.7777" lon="-0.52607">
        <ele>209.33</ele>
        <time>2024-06-25T07:46:06.462Z</time>
      </trkpt>
      <trkpt lat="46.77774" lon="-0.52608">
        <ele>209.26</ele>
        <time>2024-06-25T07:46:17.118Z</time>
      </trkpt>
      <trkpt lat="46.77777" lon="-0.52609">
        <ele>209.2</ele>
        <time>2024-06-25T07:46:27.775Z</time>
      </trkpt>
      <trkpt lat="46.77782" lon="-0.52611">
        <ele>209.15</ele>
        <time>2024-06-25T07:46:38.433Z</time>
      </trkpt>
      <trkpt lat="46.77786" lon="-0.52612">
        <ele>209.11</ele>
        <time>2024-06-25T07:46:49.092Z</time>
      </trkpt>
      <trkpt lat="46.7779" lon="-0.52613">
        <ele>209.08</ele>
        <time>2024-06-25T07:46:59.752Z</time>
      </trkpt>
      <trkpt lat="46.77794" lon="-0.52615">
        <ele>209.05</ele>
        <time>2024-06-25T07:47:10.413Z</time>
      </trkpt>
      <trkpt lat="46.77798" lon="-0.52616">
        <ele>209.04</ele>
        <time>2024-06-25T07:47:21.074Z</time>
      </trkpt>
      <trkpt lat="46.77801" lon="-0.52616">
        <ele>209.03</ele>
        <time>2024-06-25T07:47:31.736Z</time>
      </trkpt>
      <trkpt lat="46.77805" lon="-0.52616">
        <ele>209.04</ele>
        <time>2024-06-25T07:47:42.399Z</time>
      </trkpt>
      <trkpt lat="46.77808" lon="-0.52616">
        <ele>209.05</ele>
        <time>2024-06-25T07:47:53.062Z</time>
      </trkpt>
      <trkpt lat="46.77811" lon="-0.52614">
        <ele>209.07</ele>
        <time>2024-06-25T07:48:03.726Z</time>
      </trkpt>
      <trkpt lat="46.77814" lon="-0.52612">
        <ele>209.1</ele>
        <time>2024-06-25T07:48:14.391Z</time>
      </trkpt>
      <trkpt lat="46.77816" lon="-0.52608">
        <ele>209.14</ele>
        <time>2024-06-25T07:48:25.056Z</time>
      </trkpt>
      <trkpt lat="46.77818" lon="-0.52603">
        <ele>209.19</ele>
        <time>2024-06-25T07:48:35.722Z</time>
      </trkpt>
      <trkpt lat="46.77819" lon="-0.52599">
        <ele>209.24</ele>
        <time>2024-06-25T07:48:46.389Z</time>
      </trkpt>
      <trkpt lat="46.77821" lon="-0.52595">
        <ele>209.3</ele>
        <time>2024-06-25T07:48:57.056Z</time>
      </trkpt>
      <trkpt lat="46.77822" lon="-0.5259">
        <ele>209.37</ele>
        <time>2024-06-25T07:49:07.724Z</time>
      </trkpt>
      <trkpt lat="46.77823" lon="-0.52585">
        <ele>209.44</ele>
        <time>2024-06-25T07:49:18.393Z</time>
      </trkpt>
      <trkpt lat="46.77824" lon="-0.52581">
        <ele>209.52</ele>
        <time>2024-06-25T07:49:29.063Z</time>
      </trkpt>
      <trkpt lat="46.77825" lon="-0.52576">
        <ele>209.61</ele>
        <time>2024-06-25T07:49:39.733Z</time>
      </trkpt>
      <trkpt lat="46.77825" lon="-0.52571">
        <ele>209.71</ele>
        <time>2024-06-25T07:49:50.404Z</time>
      </trkpt>
      <trkpt lat="46.77826" lon="-0.52566">
        <ele>209.81</ele>
        <time>2024-06-25T07:50:01.076Z</time>
      </trkpt>
      <trkpt lat="46.77826" lon="-0.52561">
        <ele>209.91</ele>
        <time>2024-06-25T07:50:11.748Z</time>
      </trkpt>
      <trkpt lat="46.77827" lon="-0.52556">
        <ele>210.02</ele>
        <time>2024-06-25T07:50:22.421Z</time>
      </trkpt>
      <trkpt lat="46.77827" lon="-0.5255">
        <ele>210.14</ele>
        <time>2024-06-25T07:50:33.095Z</time>
      </trkpt>
      <trkpt lat="46.77828" lon="-0.52545">
        <ele>210.26</ele>
        <time>2024-06-25T07:50:43.769Z</time>
      </trkpt>
      <trkpt lat="46.77828" lon="-0.52539">
        <ele>210.39</ele>
        <time>2024-06-25T07:50:54.444Z</time>
      </trkpt>
      <trkpt lat="46.77828" lon="-0.52533">
        <ele>210.53</ele>
        <time>2024-06-25T07:51:05.120Z</time>
      </trkpt>
      <trkpt lat="46.77828" lon="-0.52526">
        <ele>210.66</ele>
        <time>2024-06-25T07:51:15.797Z</time>
      </trkpt>
      <trkpt lat="46.77828" lon="-0.5252">
        <ele>210.8</ele>
        <time>2024-06-25T07:51:26.475Z</time>
      </trkpt>
      <trkpt lat="46.77828" lon="-0.52515">
        <ele>210.94</ele>
        <time>2024-06-25T07:51:37.154Z</time>
      </trkpt>
      <trkpt lat="46.77828" lon="-0.52509">
        <ele>211.08</ele>
        <time>2024-06-25T07:51:47.833Z</time>
      </trkpt>
      <trkpt lat="46.77829" lon="-0.52503">
        <ele>211.23</ele>
        <time>2024-06-25T07:51:58.513Z</time>
      </trkpt>
      <trkpt lat="46.77829" lon="-0.52497">
        <ele>211.38</ele>
        <time>2024-06-25T07:52:09.194Z</time>
      </trkpt>
      <trkpt lat="46.77829" lon="-0.52491">
        <ele>211.54</ele>
        <time>2024-06-25T07:52:19.876Z</time>
      </trkpt>
      <trkpt lat="46.77829" lon="-0.52485">
        <ele>211.7</ele>
        <time>2024-06-25T07:52:30.559Z</time>
      </trkpt>
      <trkpt lat="46.7783" lon="-0.52478">
        <ele>211.86</ele>
        <time>2024-06-25T07:52:41.243Z</time>
      </trkpt>
      <trkpt lat="46.7783" lon="-0.52473">
        <ele>212.03</ele>
        <time>2024-06-25T07:52:51.927Z</time>
      </trkpt>
      <trkpt lat="46.7783" lon="-0.52467">
        <ele>212.19</ele>
        <time>2024-06-25T07:53:02.612Z</time>
      </trkpt>
      <trkpt lat="46.7783" lon="-0.52461">
        <ele>212.36</ele>
        <time>2024-06-25T07:53:13.298Z</time>
      </trkpt>
      <trkpt lat="46.7783" lon="-0.52455">
        <ele>212.54</ele>
        <time>2024-06-25T07:53:23.985Z</time>
      </trkpt>
      <trkpt lat="46.77831" lon="-0.52449">
        <ele>212.71</ele>
        <time>2024-06-25T07:53:34.673Z</time>
      </trkpt>
      <trkpt lat="46.77831" lon="-0.52442">
        <ele>212.89</ele>
        <time>2024-06-25T07:53:45.362Z</time>
      </trkpt>
      <trkpt lat="46.77831" lon="-0.52436">
        <ele>213.07</ele>
        <time>2024-06-25T07:53:56.051Z</time>
      </trkpt>
      <trkpt lat="46.77831" lon="-0.5243">
        <ele>213.25</ele>
        <time>2024-06-25T07:54:06.741Z</time>
      </trkpt>
      <trkpt lat="46.77832" lon="-0.52424">
        <ele>213.43</ele>
        <time>2024-06-25T07:54:17.432Z</time>
      </trkpt>
      <trkpt lat="46.77832" lon="-0.52418">
        <ele>213.62</ele>
        <time>2024-06-25T07:54:28.124Z</time>
      </trkpt>
      <trkpt lat="46.77832" lon="-0.52411">
        <ele>213.8</ele>
        <time>2024-06-25T07:54:38.817Z</time>
      </trkpt>
      <trkpt lat="46.77833" lon="-0.52406">
        <ele>213.99</ele>
        <time>2024-06-25T07:54:49.511Z</time>
      </trkpt>
      <trkpt lat="46.77833" lon="-0.524">
        <ele>214.18</ele>
        <time>2024-06-25T07:55:00.206Z</time>
      </trkpt>
      <trkpt lat="46.77834" lon="-0.52393">
        <ele>214.37</ele>
        <time>2024-06-25T07:55:10.901Z</time>
      </trkpt>
      <trkpt lat="46.77834" lon="-0.52388">
        <ele>214.56</ele>
        <time>2024-06-25T07:55:21.597Z</time>
      </trkpt>
      <trkpt lat="46.77834" lon="-0.52382">
        <ele>214.75</ele>
        <time>2024-06-25T07:55:32.294Z</time>
      </trkpt>
      <trkpt lat="46.77834" lon="-0.52376">
        <ele>214.95</ele>
        <time>2024-06-25T07:55:42.992Z</time>
      </trkpt>
      <trkpt lat="46.77834" lon="-0.5237">
        <ele>215.14</ele>
        <time>2024-06-25T07:55:53.691Z</time>
      </trkpt>
      <trkpt lat="46.77835" lon="-0.52364">
        <ele>215.34</ele>
        <time>2024-06-25T07:56:04.390Z</time>
      </trkpt>
      <trkpt lat="46.77835" lon="-0.52358">
        <ele>215.54</ele>
        <time>2024-06-25T07:56:15.090Z</time>
      </trkpt>
      <trkpt lat="46.77836" lon="-0.52352">
        <ele>215.73</ele>
        <time>2024-06-25T07:56:25.791Z</time>
      </trkpt>
      <trkpt lat="46.77837" lon="-0.52347">
        <ele>215.92</ele>
        <time>2024-06-25T07:56:36.493Z</time>
      </trkpt>
      <trkpt lat="46.77838" lon="-0.52341">
        <ele>216.12</ele>
        <time>2024-06-25T07:56:47.196Z</time>
      </trkpt>
      <trkpt lat="46.77839" lon="-0.52336">
        <ele>216.31</ele>
        <time>2024-06-25T07:56:57.899Z</time>
      </trkpt>
      <trkpt lat="46.7784" lon="-0.5233">
        <ele>216.5</ele>
        <time>2024-06-25T07:57:08.603Z</time>
      </trkpt>
      <trkpt lat="46.77841" lon="-0.52325">
        <ele>216.69</ele>
        <time>2024-06-25T07:57:19.308Z</time>
      </trkpt>
      <trkpt lat="46.77842" lon="-0.5232">
        <ele>216.88</ele>
        <time>2024-06-25T07:57:30.014Z</time>
      </trkpt>
      <trkpt lat="46.77844" lon="-0.52315">
        <ele>217.06</ele>
        <time>2024-06-25T07:57:40.720Z</time>
      </trkpt>
      <trkpt lat="46.77846" lon="-0.5231">
        <ele>217.24</ele>
        <time>2024-06-25T07:57:51.427Z</time>
      </trkpt>
      <trkpt lat="46.77848" lon="-0.52306">
        <ele>217.42</ele>
        <time>2024-06-25T07:58:02.135Z</time>
      </trkpt>
      <trkpt lat="46.7785" lon="-0.52302">
        <ele>217.6</ele>
        <time>2024-06-25T07:58:12.844Z</time>
      </trkpt>
      <trkpt lat="46.77853" lon="-0.52298">
        <ele>217.77</ele>
        <time>2024-06-25T07:58:23.553Z</time>
      </trkpt>
      <trkpt lat="46.77855" lon="-0.52293">
        <ele>217.94</ele>
        <time>2024-06-25T07:58:34.263Z</time>
      </trkpt>
      <trkpt lat="46.77856" lon="-0.52289">
        <ele>218.11</ele>
        <time>2024-06-25T07:58:44.974Z</time>
      </trkpt>
      <trkpt lat="46.77858" lon="-0.52283">
        <ele>218.28</ele>
        <time>2024-06-25T07:58:55.686Z</time>
      </trkpt>
      <trkpt lat="46.7786" lon="-0.52278">
        <ele>218.44</ele>
        <time>2024-06-25T07:59:06.398Z</time>
      </trkpt>
      <trkpt lat="46.77861" lon="-0.52274">
        <ele>218.6</ele>
        <time>2024-06-25T07:59:17.111Z</time>
      </trkpt>
      <trkpt lat="46.77863" lon="-0.5227">
        <ele>218.75</ele>
        <time>2024-06-25T07:59:27.825Z</time>
      </trkpt>
      <trkpt lat="46.77864" lon="-0.52265">
        <ele>218.91</ele>
        <time>2024-06-25T07:59:38.539Z</time>
      </trkpt>
      <trkpt lat="46.77866" lon="-0.52261">
        <ele>219.06</ele>
        <time>2024-06-25T07:59:49.254Z</time>
      </trkpt>
      <trkpt lat="46.77868" lon="-0.52256">
        <ele>219.2</ele>
        <time>2024-06-25T07:59:59.970Z</time>
      </trkpt>
      <trkpt lat="46.77869" lon="-0.52252">
        <ele>219.34</ele>
        <time>2024-06-25T08:00:10.687Z</time>
      </trkpt>
      <trkpt lat="46.77871" lon="-0.52248">
        <ele>219.47</ele>
        <time>2024-06-25T08:00:21.404Z</time>
      </trkpt>
      <trkpt lat="46.77873" lon="-0.52243">
        <ele>219.6</ele>
        <time>2024-06-25T08:00:32.122Z</time>
      </trkpt>
      <trkpt lat="46.77874" lon="-0.52239">
        <ele>219.72</ele>
        <time>2024-06-25T08:00:42.841Z</time>
      </trkpt>
      <trkpt lat="46.77876" lon="-0.52235">
        <ele>219.84</ele>
        <time>2024-06-25T08:00:53.560Z</time>
      </trkpt>
      <trkpt lat="46.77877" lon="-0.52231">
        <ele>219.95</ele>
        <time>2024-06-25T08:01:04.280Z</time>
      </trkpt>
      <trkpt lat="46.77878" lon="-0.52228">
        <ele>220.06</ele>
        <time>2024-06-25T08:01:15.000Z</time>
      </trkpt>
      <trkpt lat="46.77879" lon="-0.52225">
        <ele>220.16</ele>
        <time>2024-06-25T08:01:25.721Z</time>
      </trkpt>
      <trkpt lat="46.7788" lon="-0.52222">
        <ele>220.26</ele>
        <time>2024-06-25T08:01:36.442Z</time>
      </trkpt>
      <trkpt lat="46.77882" lon="-0.5222">
        <ele>220.34</ele>
        <time>2024-06-25T08:01:47.164Z</time>
      </trkpt>
      <trkpt lat="46.77884" lon="-0.52219">
        <ele>220.42</ele>
        <time>2024-06-25T08:01:57.886Z</time>
      </trkpt>
      <trkpt lat="46.77885" lon="-0.52218">
        <ele>220.5</ele>
        <time>2024-06-25T08:02:08.608Z</time>
      </trkpt>
      <trkpt lat="46.77886" lon="-0.52219">
        <ele>220.57</ele>
        <time>2024-06-25T08:02:19.331Z</time>
      </trkpt>
      <trkpt lat="46.77887" lon="-0.52219">
        <ele>220.64</ele>
        <time>2024-06-25T08:02:30.054Z</time>
      </trkpt>
      <trkpt lat="46.77888" lon="-0.5222">
        <ele>220.7</ele>
        <time>2024-06-25T08:02:40.777Z</time>
      </trkpt>
      <trkpt lat="46.77891" lon="-0.52222">
        <ele>220.75</ele>
        <time>2024-06-25T08:02:51.501Z</time>
      </trkpt>
      <trkpt lat="46.77893" lon="-0.52224">
        <ele>220.8</ele>
        <time>2024-06-25T08:03:02.225Z</time>
      </trkpt>
      <trkpt lat="46.77896" lon="-0.52227">
        <ele>220.84</ele>
        <time>2024-06-25T08:03:12.950Z</time>
      </trkpt>
      <trkpt lat="46.77899" lon="-0.5223">
        <ele>220.88</ele>
        <time>2024-06-25T08:03:23.676Z</time>
      </trkpt>
      <trkpt lat="46.77903" lon="-0.52233">
        <ele>220.91</ele>
        <time>2024-06-25T08:03:34.402Z</time>
      </trkpt>
      <trkpt lat="46.77907" lon="-0.52237">
        <ele>220.94</ele>
        <time>2024-06-25T08:03:45.129Z</time>
      </trkpt>
      <trkpt lat="46.77911" lon="-0.5224">
        <ele>220.96</ele>
        <time>2024-06-25T08:03:55.857Z</time>
      </trkpt>
      <trkpt lat="46.77915" lon="-0.52244">
        <ele>220.99</ele>
        <time>2024-06-25T08:04:06.586Z</time>
      </trkpt>
      <trkpt lat="46.77919" lon="-0.52248">
        <ele>221</ele>
        <time>2024-06-25T08:04:17.316Z</time>
      </trkpt>
      <trkpt lat="46.77924" lon="-0.52252">
        <ele>221.01</ele>
        <time>2024-06-25T08:04:28.047Z</time>
      </trkpt>
      <trkpt lat="46.77928" lon="-0.52257">
        <ele>221.03</ele>
        <time>2024-06-25T08:04:38.779Z</time>
      </trkpt>
      <trkpt lat="46.77932" lon="-0.52261">
        <ele>221.04</ele>
        <time>2024-06-25T08:04:49.513Z</time>
      </trkpt>
      <trkpt lat="46.77937" lon="-0.52266">
        <ele>221.05</ele>
        <time>2024-06-25T08:05:00.248Z</time>
      </trkpt>
      <trkpt lat="46.77941" lon="-0.5227">
        <ele>221.06</ele>
        <time>2024-06-25T08:05:10.984Z</time>
      </trkpt>
      <trkpt lat="46.77945" lon="-0.52274">
        <ele>221.06</ele>
        <time>2024-06-25T08:05:21.721Z</time>
      </trkpt>
      <trkpt lat="46.7795" lon="-0.52279">
        <ele>221.06</ele>
        <time>2024-06-25T08:05:32.459Z</time>
      </trkpt>
      <trkpt lat="46.77954" lon="-0.52284">
        <ele>221.05</ele>
        <time>2024-06-25T08:05:43.198Z</time>
      </trkpt>
      <trkpt lat="46.7796" lon="-0.52289">
        <ele>221.05</ele>
        <time>2024-06-25T08:05:53.938Z</time>
      </trkpt>
      <trkpt lat="46.77964" lon="-0.52294">
        <ele>221.04</ele>
        <time>2024-06-25T08:06:04.679Z</time>
      </trkpt>
      <trkpt lat="46.77969" lon="-0.52298">
        <ele>221.02</ele>
        <time>2024-06-25T08:06:15.421Z</time>
      </trkpt>
      <trkpt lat="46.77974" lon="-0.52302">
        <ele>221.01</ele>
        <time>2024-06-25T08:06:26.165Z</time>
      </trkpt>
      <trkpt lat="46.77978" lon="-0.52306">
        <ele>220.98</ele>
        <time>2024-06-25T08:06:36.910Z</time>
      </trkpt>
      <trkpt lat="46.77983" lon="-0.52311">
        <ele>220.96</ele>
        <time>2024-06-25T08:06:47.656Z</time>
      </trkpt>
      <trkpt lat="46.77988" lon="-0.52316">
        <ele>220.94</ele>
        <time>2024-06-25T08:06:58.403Z</time>
      </trkpt>
      <trkpt lat="46.77992" lon="-0.5232">
        <ele>220.91</ele>
        <time>2024-06-25T08:07:09.151Z</time>
      </trkpt>
      <trkpt lat="46.77996" lon="-0.52324">
        <ele>220.88</ele>
        <time>2024-06-25T08:07:19.900Z</time>
      </trkpt>
      <trkpt lat="46.78" lon="-0.52328">
        <ele>220.85</ele>
        <time>2024-06-25T08:07:30.650Z</time>
      </trkpt>
      <trkpt lat="46.78005" lon="-0.52332">
        <ele>220.82</ele>
        <time>2024-06-25T08:07:41.401Z</time>
      </trkpt>
      <trkpt lat="46.78009" lon="-0.52336">
        <ele>220.78</ele>
        <time>2024-06-25T08:07:52.153Z</time>
      </trkpt>
      <trkpt lat="46.78013" lon="-0.5234">
        <ele>220.73</ele>
        <time>2024-06-25T08:08:02.906Z</time>
      </trkpt>
      <trkpt lat="46.78017" lon="-0.52343">
        <ele>220.68</ele>
        <time>2024-06-25T08:08:13.660Z</time>
      </trkpt>
      <trkpt lat="46.78022" lon="-0.52347">
        <ele>220.63</ele>
        <time>2024-06-25T08:08:24.415Z</time>
      </trkpt>
      <trkpt lat="46.78025" lon="-0.52351">
        <ele>220.57</ele>
        <time>2024-06-25T08:08:35.171Z</time>
      </trkpt>
      <trkpt lat="46.78029" lon="-0.52354">
        <ele>220.51</ele>
        <time>2024-06-25T08:08:45.928Z</time>
      </trkpt>
      <trkpt lat="46.78033" lon="-0.52357">
        <ele>220.45</ele>
        <time>2024-06-25T08:08:56.686Z</time>
      </trkpt>
      <trkpt lat="46.78037" lon="-0.5236">
        <ele>220.38</ele>
        <time>2024-06-25T08:09:07.445Z</time>
      </trkpt>
      <trkpt lat="46.78042" lon="-0.52363">
        <ele>220.31</ele>
        <time>2024-06-25T08:09:18.205Z</time>
      </trkpt>
      <trkpt lat="46.78046" lon="-0.52366">
        <ele>220.24</ele>
        <time>2024-06-25T08:09:28.965Z</time>
      </trkpt>
      <trkpt lat="46.7805" lon="-0.52369">
        <ele>220.16</ele>
        <time>2024-06-25T08:09:39.726Z</time>
      </trkpt>
      <trkpt lat="46.78053" lon="-0.52372">
        <ele>220.07</ele>
        <time>2024-06-25T08:09:50.488Z</time>
      </trkpt>
      <trkpt lat="46.78057" lon="-0.52375">
        <ele>219.99</ele>
        <time>2024-06-25T08:10:01.251Z</time>
      </trkpt>
      <trkpt lat="46.78061" lon="-0.52377">
        <ele>219.89</ele>
        <time>2024-06-25T08:10:12.015Z</time>
      </trkpt>
      <trkpt lat="46.78064" lon="-0.5238">
        <ele>219.8</ele>
        <time>2024-06-25T08:10:22.779Z</time>
      </trkpt>
      <trkpt lat="46.78067" lon="-0.52383">
        <ele>219.7</ele>
        <time>2024-06-25T08:10:33.544Z</time>
      </trkpt>
      <trkpt lat="46.78071" lon="-0.52386">
        <ele>219.6</ele>
        <time>2024-06-25T08:10:44.310Z</time>
      </trkpt>
      <trkpt lat="46.78075" lon="-0.52389">
        <ele>219.49</ele>
        <time>2024-06-25T08:10:55.077Z</time>
      </trkpt>
      <trkpt lat="46.78078" lon="-0.52391">
        <ele>219.38</ele>
        <time>2024-06-25T08:11:05.845Z</time>
      </trkpt>
      <trkpt lat="46.78082" lon="-0.52394">
        <ele>219.26</ele>
        <time>2024-06-25T08:11:16.614Z</time>
      </trkpt>
      <trkpt lat="46.78085" lon="-0.52398">
        <ele>219.13</ele>
        <time>2024-06-25T08:11:27.383Z</time>
      </trkpt>
      <trkpt lat="46.78087" lon="-0.52403">
        <ele>219.01</ele>
        <time>2024-06-25T08:11:38.153Z</time>
      </trkpt>
      <trkpt lat="46.78089" lon="-0.52409">
        <ele>218.88</ele>
        <time>2024-06-25T08:11:48.924Z</time>
      </trkpt>
      <trkpt lat="46.7809" lon="-0.52415">
        <ele>218.75</ele>
        <time>2024-06-25T08:11:59.696Z</time>
      </trkpt>
      <trkpt lat="46.7809" lon="-0.52421">
        <ele>218.61</ele>
        <time>2024-06-25T08:12:10.469Z</time>
      </trkpt>
      <trkpt lat="46.78091" lon="-0.52427">
        <ele>218.47</ele>
        <time>2024-06-25T08:12:21.243Z</time>
      </trkpt>
      <trkpt lat="46.78092" lon="-0.52432">
        <ele>218.32</ele>
        <time>2024-06-25T08:12:32.017Z</time>
      </trkpt>
      <trkpt lat="46.78093" lon="-0.52437">
        <ele>218.16</ele>
        <time>2024-06-25T08:12:42.792Z</time>
      </trkpt>
      <trkpt lat="46.78093" lon="-0.52442">
        <ele>218</ele>
        <time>2024-06-25T08:12:53.568Z</time>
      </trkpt>
      <trkpt lat="46.78094" lon="-0.52448">
        <ele>217.84</ele>
        <time>2024-06-25T08:13:04.345Z</time>
      </trkpt>
      <trkpt lat="46.78095" lon="-0.52454">
        <ele>217.67</ele>
        <time>2024-06-25T08:13:15.122Z</time>
      </trkpt>
      <trkpt lat="46.78095" lon="-0.52461">
        <ele>217.5</ele>
        <time>2024-06-25T08:13:25.900Z</time>
      </trkpt>
      <trkpt lat="46.78096" lon="-0.52468">
        <ele>217.33</ele>
        <time>2024-06-25T08:13:36.679Z</time>
      </trkpt>
      <trkpt lat="46.78096" lon="-0.52475">
        <ele>217.16</ele>
        <time>2024-06-25T08:13:47.459Z</time>
      </trkpt>
      <trkpt lat="46.78096" lon="-0.52482">
        <ele>216.98</ele>
        <time>2024-06-25T08:13:58.240Z</time>
      </trkpt>
      <trkpt lat="46.78097" lon="-0.5249">
        <ele>216.8</ele>
        <time>2024-06-25T08:14:09.022Z</time>
      </trkpt>
      <trkpt lat="46.78098" lon="-0.52497">
        <ele>216.62</ele>
        <time>2024-06-25T08:14:19.805Z</time>
      </trkpt>
      <trkpt lat="46.78099" lon="-0.52505">
        <ele>216.44</ele>
        <time>2024-06-25T08:14:30.589Z</time>
      </trkpt>
      <trkpt lat="46.78099" lon="-0.52512">
        <ele>216.25</ele>
        <time>2024-06-25T08:14:41.374Z</time>
      </trkpt>
      <trkpt lat="46.78098" lon="-0.5252">
        <ele>216.06</ele>
        <time>2024-06-25T08:14:52.161Z</time>
      </trkpt>
      <trkpt lat="46.78099" lon="-0.52527">
        <ele>215.86</ele>
        <time>2024-06-25T08:15:02.949Z</time>
      </trkpt>
      <trkpt lat="46.781" lon="-0.52534">
        <ele>215.67</ele>
        <time>2024-06-25T08:15:13.738Z</time>
      </trkpt>
      <trkpt lat="46.78101" lon="-0.52542">
        <ele>215.47</ele>
        <time>2024-06-25T08:15:24.528Z</time>
      </trkpt>
      <trkpt lat="46.78101" lon="-0.5255">
        <ele>215.27</ele>
        <time>2024-06-25T08:15:35.319Z</time>
      </trkpt>
      <trkpt lat="46.78101" lon="-0.52556">
        <ele>215.07</ele>
        <time>2024-06-25T08:15:46.111Z</time>
      </trkpt>
      <trkpt lat="46.78101" lon="-0.52564">
        <ele>214.87</ele>
        <time>2024-06-25T08:15:56.904Z</time>
      </trkpt>
      <trkpt lat="46.78102" lon="-0.52572">
        <ele>214.67</ele>
        <time>2024-06-25T08:16:07.698Z</time>
      </trkpt>
      <trkpt lat="46.78102" lon="-0.5258">
        <ele>214.47</ele>
        <time>2024-06-25T08:16:18.493Z</time>
      </trkpt>
      <trkpt lat="46.78103" lon="-0.52589">
        <ele>214.25</ele>
        <time>2024-06-25T08:16:29.289Z</time>
      </trkpt>
      <trkpt lat="46.78103" lon="-0.52599">
        <ele>214.04</ele>
        <time>2024-06-25T08:16:40.086Z</time>
      </trkpt>
      <trkpt lat="46.78104" lon="-0.52608">
        <ele>213.83</ele>
        <time>2024-06-25T08:16:50.885Z</time>
      </trkpt>
      <trkpt lat="46.78104" lon="-0.52616">
        <ele>213.62</ele>
        <time>2024-06-25T08:17:01.685Z</time>
      </trkpt>
      <trkpt lat="46.78105" lon="-0.52624">
        <ele>213.41</ele>
        <time>2024-06-25T08:17:12.486Z</time>
      </trkpt>
      <trkpt lat="46.78106" lon="-0.52633">
        <ele>213.19</ele>
        <time>2024-06-25T08:17:23.288Z</time>
      </trkpt>
      <trkpt lat="46.78106" lon="-0.52641">
        <ele>212.97</ele>
        <time>2024-06-25T08:17:34.091Z</time>
      </trkpt>
      <trkpt lat="46.78106" lon="-0.5265">
        <ele>212.75</ele>
        <time>2024-06-25T08:17:44.895Z</time>
      </trkpt>
      <trkpt lat="46.78106" lon="-0.52658">
        <ele>212.53</ele>
        <time>2024-06-25T08:17:55.701Z</time>
      </trkpt>
      <trkpt lat="46.78106" lon="-0.52666">
        <ele>212.32</ele>
        <time>2024-06-25T08:18:06.508Z</time>
      </trkpt>
      <trkpt lat="46.78107" lon="-0.52675">
        <ele>212.11</ele>
        <time>2024-06-25T08:18:17.316Z</time>
      </trkpt>
      <trkpt lat="46.78108" lon="-0.52683">
        <ele>211.91</ele>
        <time>2024-06-25T08:18:28.125Z</time>
      </trkpt>
      <trkpt lat="46.78108" lon="-0.52691">
        <ele>211.7</ele>
        <time>2024-06-25T08:18:38.935Z</time>
      </trkpt>
      <trkpt lat="46.78108" lon="-0.52699">
        <ele>211.51</ele>
        <time>2024-06-25T08:18:49.746Z</time>
      </trkpt>
      <trkpt lat="46.78109" lon="-0.52708">
        <ele>211.33</ele>
        <time>2024-06-25T08:19:00.559Z</time>
      </trkpt>
      <trkpt lat="46.78109" lon="-0.52717">
        <ele>211.15</ele>
        <time>2024-06-25T08:19:11.373Z</time>
      </trkpt>
      <trkpt lat="46.78109" lon="-0.52725">
        <ele>210.98</ele>
        <time>2024-06-25T08:19:22.188Z</time>
      </trkpt>
      <trkpt lat="46.78109" lon="-0.52733">
        <ele>210.82</ele>
        <time>2024-06-25T08:19:33.004Z</time>
      </trkpt>
      <trkpt lat="46.7811" lon="-0.52742">
        <ele>210.66</ele>
        <time>2024-06-25T08:19:43.821Z</time>
      </trkpt>
      <trkpt lat="46.7811" lon="-0.5275">
        <ele>210.51</ele>
        <time>2024-06-25T08:19:54.639Z</time>
      </trkpt>
      <trkpt lat="46.78112" lon="-0.52758">
        <ele>210.37</ele>
        <time>2024-06-25T08:20:05.458Z</time>
      </trkpt>
      <trkpt lat="46.78114" lon="-0.52766">
        <ele>210.23</ele>
        <time>2024-06-25T08:20:16.279Z</time>
      </trkpt>
      <trkpt lat="46.78117" lon="-0.52773">
        <ele>210.1</ele>
        <time>2024-06-25T08:20:27.101Z</time>
      </trkpt>
      <trkpt lat="46.78119" lon="-0.52781">
        <ele>209.98</ele>
        <time>2024-06-25T08:20:37.924Z</time>
      </trkpt>
      <trkpt lat="46.78121" lon="-0.52789">
        <ele>209.87</ele>
        <time>2024-06-25T08:20:48.748Z</time>
      </trkpt>
      <trkpt lat="46.78124" lon="-0.52798">
        <ele>209.76</ele>
        <time>2024-06-25T08:20:59.573Z</time>
      </trkpt>
      <trkpt lat="46.78125" lon="-0.52807">
        <ele>209.66</ele>
        <time>2024-06-25T08:21:10.400Z</time>
      </trkpt>
      <trkpt lat="46.78127" lon="-0.52816">
        <ele>209.57</ele>
        <time>2024-06-25T08:21:21.228Z</time>
      </trkpt>
      <trkpt lat="46.7813" lon="-0.52824">
        <ele>209.49</ele>
        <time>2024-06-25T08:21:32.057Z</time>
      </trkpt>
      <trkpt lat="46.78132" lon="-0.52832">
        <ele>209.42</ele>
        <time>2024-06-25T08:21:42.887Z</time>
      </trkpt>
      <trkpt lat="46.78135" lon="-0.52839">
        <ele>209.37</ele>
        <time>2024-06-25T08:21:53.719Z</time>
      </trkpt>
      <trkpt lat="46.78137" lon="-0.52847">
        <ele>209.33</ele>
        <time>2024-06-25T08:22:04.552Z</time>
      </trkpt>
      <trkpt lat="46.78139" lon="-0.52854">
        <ele>209.3</ele>
        <time>2024-06-25T08:22:15.386Z</time>
      </trkpt>
      <trkpt lat="46.78142" lon="-0.52862">
        <ele>209.27</ele>
        <time>2024-06-25T08:22:26.221Z</time>
      </trkpt>
      <trkpt lat="46.78144" lon="-0.52871">
        <ele>209.26</ele>
        <time>2024-06-25T08:22:37.057Z</time>
      </trkpt>
      <trkpt lat="46.78146" lon="-0.5288">
        <ele>209.25</ele>
        <time>2024-06-25T08:22:47.895Z</time>
      </trkpt>
      <trkpt lat="46.78148" lon="-0.52889">
        <ele>209.26</ele>
        <time>2024-06-25T08:22:58.734Z</time>
      </trkpt>
      <trkpt lat="46.7815" lon="-0.52898">
        <ele>209.28</ele>
        <time>2024-06-25T08:23:09.574Z</time>
      </trkpt>
      <trkpt lat="46.78153" lon="-0.52906">
        <ele>209.31</ele>
        <time>2024-06-25T08:23:20.415Z</time>
      </trkpt>
      <trkpt lat="46.78155" lon="-0.52914">
        <ele>209.36</ele>
        <time>2024-06-25T08:23:31.258Z</time>
      </trkpt>
      <trkpt lat="46.78157" lon="-0.52922">
        <ele>209.43</ele>
        <time>2024-06-25T08:23:42.102Z</time>
      </trkpt>
      <trkpt lat="46.78159" lon="-0.5293">
        <ele>209.51</ele>
        <time>2024-06-25T08:23:52.947Z</time>
      </trkpt>
      <trkpt lat="46.78161" lon="-0.52938">
        <ele>209.6</ele>
        <time>2024-06-25T08:24:03.793Z</time>
      </trkpt>
      <trkpt lat="46.78163" lon="-0.52946">
        <ele>209.69</ele>
        <time>2024-06-25T08:24:14.640Z</time>
      </trkpt>
      <trkpt lat="46.78165" lon="-0.52954">
        <ele>209.8</ele>
        <time>2024-06-25T08:24:25.489Z</time>
      </trkpt>
      <trkpt lat="46.78168" lon="-0.52962">
        <ele>209.93</ele>
        <time>2024-06-25T08:24:36.339Z</time>
      </trkpt>
      <trkpt lat="46.78171" lon="-0.5297">
        <ele>210.07</ele>
        <time>2024-06-25T08:24:47.190Z</time>
      </trkpt>
      <trkpt lat="46.78173" lon="-0.52977">
        <ele>210.22</ele>
        <time>2024-06-25T08:24:58.042Z</time>
      </trkpt>
      <trkpt lat="46.78174" lon="-0.52983">
        <ele>210.36</ele>
        <time>2024-06-25T08:25:08.895Z</time>
      </trkpt>
      <trkpt lat="46.78175" lon="-0.5299">
        <ele>210.51</ele>
        <time>2024-06-25T08:25:19.749Z</time>
      </trkpt>
      <trkpt lat="46.78177" lon="-0.52995">
        <ele>210.67</ele>
        <time>2024-06-25T08:25:30.604Z</time>
      </trkpt>
      <trkpt lat="46.78178" lon="-0.53001">
        <ele>210.84</ele>
        <time>2024-06-25T08:25:41.459Z</time>
      </trkpt>
      <trkpt lat="46.7818" lon="-0.53007">
        <ele>211.01</ele>
        <time>2024-06-25T08:25:52.315Z</time>
      </trkpt>
      <trkpt lat="46.78182" lon="-0.53013">
        <ele>211.19</ele>
        <time>2024-06-25T08:26:03.172Z</time>
      </trkpt>
      <trkpt lat="46.78184" lon="-0.53018">
        <ele>211.38</ele>
        <time>2024-06-25T08:26:14.030Z</time>
      </trkpt>
      <trkpt lat="46.78185" lon="-0.53023">
        <ele>211.58</ele>
        <time>2024-06-25T08:26:24.889Z</time>
      </trkpt>
      <trkpt lat="46.78187" lon="-0.53029">
        <ele>211.79</ele>
        <time>2024-06-25T08:26:35.749Z</time>
      </trkpt>
      <trkpt lat="46.78188" lon="-0.53034">
        <ele>212</ele>
        <time>2024-06-25T08:26:46.609Z</time>
      </trkpt>
      <trkpt lat="46.78189" lon="-0.53038">
        <ele>212.22</ele>
        <time>2024-06-25T08:26:57.470Z</time>
      </trkpt>
      <trkpt lat="46.7819" lon="-0.53043">
        <ele>212.45</ele>
        <time>2024-06-25T08:27:08.332Z</time>
      </trkpt>
      <trkpt lat="46.78191" lon="-0.53048">
        <ele>212.69</ele>
        <time>2024-06-25T08:27:19.194Z</time>
      </trkpt>
      <trkpt lat="46.78193" lon="-0.53053">
        <ele>212.93</ele>
        <time>2024-06-25T08:27:30.057Z</time>
      </trkpt>
      <trkpt lat="46.78194" lon="-0.53057">
        <ele>213.18</ele>
        <time>2024-06-25T08:27:40.921Z</time>
      </trkpt>
      <trkpt lat="46.78195" lon="-0.5306">
        <ele>213.44</ele>
        <time>2024-06-25T08:27:51.785Z</time>
      </trkpt>
      <trkpt lat="46.78196" lon="-0.53065">
        <ele>213.69</ele>
        <time>2024-06-25T08:28:02.650Z</time>
      </trkpt>
      <trkpt lat="46.78197" lon="-0.53069">
        <ele>213.96</ele>
        <time>2024-06-25T08:28:13.515Z</time>
      </trkpt>
      <trkpt lat="46.78198" lon="-0.53073">
        <ele>214.23</ele>
        <time>2024-06-25T08:28:24.381Z</time>
      </trkpt>
      <trkpt lat="46.78199" lon="-0.53078">
        <ele>214.51</ele>
        <time>2024-06-25T08:28:35.248Z</time>
      </trkpt>
      <trkpt lat="46.782" lon="-0.53082">
        <ele>214.79</ele>
        <time>2024-06-25T08:28:46.115Z</time>
      </trkpt>
      <trkpt lat="46.78201" lon="-0.53087">
        <ele>215.07</ele>
        <time>2024-06-25T08:28:56.983Z</time>
      </trkpt>
      <trkpt lat="46.78202" lon="-0.53091">
        <ele>215.36</ele>
        <time>2024-06-25T08:29:07.852Z</time>
      </trkpt>
      <trkpt lat="46.78203" lon="-0.53095">
        <ele>215.65</ele>
        <time>2024-06-25T08:29:18.721Z</time>
      </trkpt>
      <trkpt lat="46.78204" lon="-0.53099">
        <ele>215.94</ele>
        <time>2024-06-25T08:29:29.591Z</time>
      </trkpt>
      <trkpt lat="46.78206" lon="-0.53103">
        <ele>216.24</ele>
        <time>2024-06-25T08:29:40.461Z</time>
      </trkpt>
      <trkpt lat="46.78207" lon="-0.53107">
        <ele>216.54</ele>
        <time>2024-06-25T08:29:51.332Z</time>
      </trkpt>
      <trkpt lat="46.78208" lon="-0.53111">
        <ele>216.84</ele>
        <time>2024-06-25T08:30:02.204Z</time>
      </trkpt>
      <trkpt lat="46.7821" lon="-0.53115">
        <ele>217.14</ele>
        <time>2024-06-25T08:30:13.076Z</time>
      </trkpt>
      <trkpt lat="46.78211" lon="-0.53119">
        <ele>217.44</ele>
        <time>2024-06-25T08:30:23.949Z</time>
      </trkpt>
      <trkpt lat="46.78212" lon="-0.53124">
        <ele>217.75</ele>
        <time>2024-06-25T08:30:34.823Z</time>
      </trkpt>
      <trkpt lat="46.78214" lon="-0.53128">
        <ele>218.05</ele>
        <time>2024-06-25T08:30:45.697Z</time>
      </trkpt>
      <trkpt lat="46.78215" lon="-0.53131">
        <ele>218.36</ele>
        <time>2024-06-25T08:30:56.572Z</time>
      </trkpt>
      <trkpt lat="46.78215" lon="-0.53135">
        <ele>218.67</ele>
        <time>2024-06-25T08:31:07.447Z</time>
      </trkpt>
      <trkpt lat="46.78216" lon="-0.53139">
        <ele>218.97</ele>
        <time>2024-06-25T08:31:18.323Z</time>
      </trkpt>
      <trkpt lat="46.78218" lon="-0.53143">
        <ele>219.28</ele>
        <time>2024-06-25T08:31:29.200Z</time>
      </trkpt>
      <trkpt lat="46.78219" lon="-0.53147">
        <ele>219.58</ele>
        <time>2024-06-25T08:31:40.077Z</time>
      </trkpt>
      <trkpt lat="46.7822" lon="-0.5315">
        <ele>219.88</ele>
        <time>2024-06-25T08:31:50.955Z</time>
      </trkpt>
      <trkpt lat="46.7822" lon="-0.53154">
        <ele>220.19</ele>
        <time>2024-06-25T08:32:01.833Z</time>
      </trkpt>
      <trkpt lat="46.78222" lon="-0.53158">
        <ele>220.49</ele>
        <time>2024-06-25T08:32:12.712Z</time>
      </trkpt>
      <trkpt lat="46.78223" lon="-0.53163">
        <ele>220.79</ele>
        <time>2024-06-25T08:32:23.591Z</time>
      </trkpt>
      <trkpt lat="46.78224" lon="-0.53167">
        <ele>221.09</ele>
        <time>2024-06-25T08:32:34.471Z</time>
      </trkpt>
      <trkpt lat="46.78225" lon="-0.53171">
        <ele>221.38</ele>
        <time>2024-06-25T08:32:45.352Z</time>
      </trkpt>
      <trkpt lat="46.78226" lon="-0.53175">
        <ele>221.67</ele>
        <time>2024-06-25T08:32:56.233Z</time>
      </trkpt>
      <trkpt lat="46.78227" lon="-0.53179">
        <ele>221.95</ele>
        <time>2024-06-25T08:33:07.115Z</time>
      </trkpt>
      <trkpt lat="46.78228" lon="-0.53183">
        <ele>222.23</ele>
        <time>2024-06-25T08:33:17.997Z</time>
      </trkpt>
      <trkpt lat="46.7823" lon="-0.53186">
        <ele>222.51</ele>
        <time>2024-06-25T08:33:28.880Z</time>
      </trkpt>
      <trkpt lat="46.78231" lon="-0.53191">
        <ele>222.78</ele>
        <time>2024-06-25T08:33:39.764Z</time>
      </trkpt>
      <trkpt lat="46.78232" lon="-0.53195">
        <ele>223.04</ele>
        <time>2024-06-25T08:33:50.648Z</time>
      </trkpt>
      <trkpt lat="46.78233" lon="-0.53199">
        <ele>223.3</ele>
        <time>2024-06-25T08:34:01.533Z</time>
      </trkpt>
      <trkpt lat="46.78234" lon="-0.53203">
        <ele>223.56</ele>
        <time>2024-06-25T08:34:12.418Z</time>
      </trkpt>
      <trkpt lat="46.78235" lon="-0.53207">
        <ele>223.81</ele>
        <time>2024-06-25T08:34:23.304Z</time>
      </trkpt>
      <trkpt lat="46.78236" lon="-0.53211">
        <ele>224.05</ele>
        <time>2024-06-25T08:34:34.191Z</time>
      </trkpt>
      <trkpt lat="46.78237" lon="-0.53214">
        <ele>224.29</ele>
        <time>2024-06-25T08:34:45.078Z</time>
      </trkpt>
      <trkpt lat="46.78238" lon="-0.53219">
        <ele>224.52</ele>
        <time>2024-06-25T08:34:55.966Z</time>
      </trkpt>
      <trkpt lat="46.78239" lon="-0.53223">
        <ele>224.74</ele>
        <time>2024-06-25T08:35:06.854Z</time>
      </trkpt>
      <trkpt lat="46.7824" lon="-0.53227">
        <ele>224.95</ele>
        <time>2024-06-25T08:35:17.743Z</time>
      </trkpt>
      <trkpt lat="46.78241" lon="-0.53231">
        <ele>225.15</ele>
        <time>2024-06-25T08:35:28.633Z</time>
      </trkpt>
      <trkpt lat="46.78242" lon="-0.53235">
        <ele>225.35</ele>
        <time>2024-06-25T08:35:39.523Z</time>
      </trkpt>
      <trkpt lat="46.78243" lon="-0.5324">
        <ele>225.54</ele>
        <time>2024-06-25T08:35:50.414Z</time>
      </trkpt>
      <trkpt lat="46.78245" lon="-0.53244">
        <ele>225.73</ele>
        <time>2024-06-25T08:36:01.306Z</time>
      </trkpt>
      <trkpt lat="46.78246" lon="-0.53248">
        <ele>225.91</ele>
        <time>2024-06-25T08:36:12.198Z</time>
      </trkpt>
      <trkpt lat="46.78247" lon="-0.53252">
        <ele>226.09</ele>
        <time>2024-06-25T08:36:23.091Z</time>
      </trkpt>
      <trkpt lat="46.78249" lon="-0.53256">
        <ele>226.25</ele>
        <time>2024-06-25T08:36:33.984Z</time>
      </trkpt>
      <trkpt lat="46.7825" lon="-0.5326">
        <ele>226.41</ele>
        <time>2024-06-25T08:36:44.878Z</time>
      </trkpt>
      <trkpt lat="46.78251" lon="-0.53264">
        <ele>226.56</ele>
        <time>2024-06-25T08:36:55.773Z</time>
      </trkpt>
      <trkpt lat="46.78252" lon="-0.53268">
        <ele>226.7</ele>
        <time>2024-06-25T08:37:06.668Z</time>
      </trkpt>
      <trkpt lat="46.78253" lon="-0.53273">
        <ele>226.83</ele>
        <time>2024-06-25T08:37:17.564Z</time>
      </trkpt>
      <trkpt lat="46.78254" lon="-0.53277">
        <ele>226.95</ele>
        <time>2024-06-25T08:37:28.460Z</time>
      </trkpt>
      <trkpt lat="46.78255" lon="-0.53281">
        <ele>227.07</ele>
        <time>2024-06-25T08:37:39.357Z</time>
      </trkpt>
      <trkpt lat="46.78256" lon="-0.53285">
        <ele>227.18</ele>
        <time>2024-06-25T08:37:50.255Z</time>
      </trkpt>
      <trkpt lat="46.78257" lon="-0.53289">
        <ele>227.29</ele>
        <time>2024-06-25T08:38:01.153Z</time>
      </trkpt>
      <trkpt lat="46.78258" lon="-0.53294">
        <ele>227.38</ele>
        <time>2024-06-25T08:38:12.052Z</time>
      </trkpt>
      <trkpt lat="46.78259" lon="-0.53298">
        <ele>227.47</ele>
        <time>2024-06-25T08:38:22.951Z</time>
      </trkpt>
      <trkpt lat="46.7826" lon="-0.53302">
        <ele>227.55</ele>
        <time>2024-06-25T08:38:33.851Z</time>
      </trkpt>
      <trkpt lat="46.78261" lon="-0.53306">
        <ele>227.62</ele>
        <time>2024-06-25T08:38:44.752Z</time>
      </trkpt>
      <trkpt lat="46.78262" lon="-0.5331">
        <ele>227.69</ele>
        <time>2024-06-25T08:38:55.653Z</time>
      </trkpt>
      <trkpt lat="46.78263" lon="-0.53314">
        <ele>227.74</ele>
        <time>2024-06-25T08:39:06.555Z</time>
      </trkpt>
      <trkpt lat="46.78265" lon="-0.53317">
        <ele>227.79</ele>
        <time>2024-06-25T08:39:17.457Z</time>
      </trkpt>
      <trkpt lat="46.78266" lon="-0.53321">
        <ele>227.83</ele>
        <time>2024-06-25T08:39:28.360Z</time>
      </trkpt>
      <trkpt lat="46.78268" lon="-0.53325">
        <ele>227.86</ele>
        <time>2024-06-25T08:39:39.264Z</time>
      </trkpt>
      <trkpt lat="46.78269" lon="-0.53329">
        <ele>227.88</ele>
        <time>2024-06-25T08:39:50.168Z</time>
      </trkpt>
      <trkpt lat="46.7827" lon="-0.53332">
        <ele>227.9</ele>
        <time>2024-06-25T08:40:01.073Z</time>
      </trkpt>
      <trkpt lat="46.78272" lon="-0.53336">
        <ele>227.91</ele>
        <time>2024-06-25T08:40:11.978Z</time>
      </trkpt>
      <trkpt lat="46.78273" lon="-0.5334">
        <ele>227.9</ele>
        <time>2024-06-25T08:40:22.884Z</time>
      </trkpt>
      <trkpt lat="46.78274" lon="-0.53343">
        <ele>227.89</ele>
        <time>2024-06-25T08:40:33.790Z</time>
      </trkpt>
      <trkpt lat="46.78275" lon="-0.53347">
        <ele>227.87</ele>
        <time>2024-06-25T08:40:44.697Z</time>
      </trkpt>
      <trkpt lat="46.78275" lon="-0.53351">
        <ele>227.84</ele>
        <time>2024-06-25T08:40:55.604Z</time>
      </trkpt>
      <trkpt lat="46.78277" lon="-0.53355">
        <ele>227.79</ele>
        <time>2024-06-25T08:41:06.512Z</time>
      </trkpt>
      <trkpt lat="46.78278" lon="-0.53359">
        <ele>227.74</ele>
        <time>2024-06-25T08:41:17.421Z</time>
      </trkpt>
      <trkpt lat="46.78279" lon="-0.53363">
        <ele>227.68</ele>
        <time>2024-06-25T08:41:28.330Z</time>
      </trkpt>
      <trkpt lat="46.7828" lon="-0.53367">
        <ele>227.61</ele>
        <time>2024-06-25T08:41:39.240Z</time>
      </trkpt>
      <trkpt lat="46.78281" lon="-0.53371">
        <ele>227.53</ele>
        <time>2024-06-25T08:41:50.151Z</time>
      </trkpt>
      <trkpt lat="46.78282" lon="-0.53376">
        <ele>227.43</ele>
        <time>2024-06-25T08:42:01.062Z</time>
      </trkpt>
      <trkpt lat="46.78283" lon="-0.53379">
        <ele>227.33</ele>
        <time>2024-06-25T08:42:11.974Z</time>
      </trkpt>
      <trkpt lat="46.78284" lon="-0.53385">
        <ele>227.22</ele>
        <time>2024-06-25T08:42:22.886Z</time>
      </trkpt>
      <trkpt lat="46.78286" lon="-0.5339">
        <ele>227.1</ele>
        <time>2024-06-25T08:42:33.799Z</time>
      </trkpt>
      <trkpt lat="46.78287" lon="-0.53395">
        <ele>226.97</ele>
        <time>2024-06-25T08:42:44.713Z</time>
      </trkpt>
      <trkpt lat="46.78288" lon="-0.53399">
        <ele>226.83</ele>
        <time>2024-06-25T08:42:55.628Z</time>
      </trkpt>
      <trkpt lat="46.78289" lon="-0.53404">
        <ele>226.68</ele>
        <time>2024-06-25T08:43:06.543Z</time>
      </trkpt>
      <trkpt lat="46.7829" lon="-0.5341">
        <ele>226.53</ele>
        <time>2024-06-25T08:43:17.459Z</time>
      </trkpt>
      <trkpt lat="46.78291" lon="-0.53415">
        <ele>226.36</ele>
        <time>2024-06-25T08:43:28.376Z</time>
      </trkpt>
      <trkpt lat="46.7829" lon="-0.5342">
        <ele>226.19</ele>
        <time>2024-06-25T08:43:39.294Z</time>
      </trkpt>
      <trkpt lat="46.78288" lon="-0.53425">
        <ele>226.01</ele>
        <time>2024-06-25T08:43:50.212Z</time>
      </trkpt>
      <trkpt lat="46.78286" lon="-0.53429">
        <ele>225.82</ele>
        <time>2024-06-25T08:44:01.131Z</time>
      </trkpt>
      <trkpt lat="46.78283" lon="-0.53434">
        <ele>225.62</ele>
        <time>2024-06-25T08:44:12.051Z</time>
      </trkpt>
      <trkpt lat="46.7828" lon="-0.53438">
        <ele>225.42</ele>
        <time>2024-06-25T08:44:22.972Z</time>
      </trkpt>
      <trkpt lat="46.78278" lon="-0.53442">
        <ele>225.21</ele>
        <time>2024-06-25T08:44:33.893Z</time>
      </trkpt>
      <trkpt lat="46.78275" lon="-0.53446">
        <ele>225</ele>
        <time>2024-06-25T08:44:44.815Z</time>
      </trkpt>
      <trkpt lat="46.78271" lon="-0.5345">
        <ele>224.77</ele>
        <time>2024-06-25T08:44:55.738Z</time>
      </trkpt>
      <trkpt lat="46.78268" lon="-0.53455">
        <ele>224.54</ele>
        <time>2024-06-25T08:45:06.662Z</time>
      </trkpt>
      <trkpt lat="46.78264" lon="-0.5346">
        <ele>224.31</ele>
        <time>2024-06-25T08:45:17.587Z</time>
      </trkpt>
      <trkpt lat="46.78261" lon="-0.53465">
        <ele>224.06</ele>
        <time>2024-06-25T08:45:28.513Z</time>
      </trkpt>
      <trkpt lat="46.78257" lon="-0.5347">
        <ele>223.82</ele>
        <time>2024-06-25T08:45:39.440Z</time>
      </trkpt>
      <trkpt lat="46.78253" lon="-0.53476">
        <ele>223.56</ele>
        <time>2024-06-25T08:45:50.368Z</time>
      </trkpt>
      <trkpt lat="46.78249" lon="-0.53481">
        <ele>223.31</ele>
        <time>2024-06-25T08:46:01.297Z</time>
      </trkpt>
      <trkpt lat="46.78244" lon="-0.53486">
        <ele>223.05</ele>
        <time>2024-06-25T08:46:12.227Z</time>
      </trkpt>
      <trkpt lat="46.7824" lon="-0.5349">
        <ele>222.79</ele>
        <time>2024-06-25T08:46:23.158Z</time>
      </trkpt>
      <trkpt lat="46.78236" lon="-0.53495">
        <ele>222.52</ele>
        <time>2024-06-25T08:46:34.090Z</time>
      </trkpt>
      <trkpt lat="46.78233" lon="-0.535">
        <ele>222.25</ele>
        <time>2024-06-25T08:46:45.023Z</time>
      </trkpt>
      <trkpt lat="46.7823" lon="-0.53505">
        <ele>221.97</ele>
        <time>2024-06-25T08:46:55.957Z</time>
      </trkpt>
      <trkpt lat="46.78226" lon="-0.5351">
        <ele>221.68</ele>
        <time>2024-06-25T08:47:06.892Z</time>
      </trkpt>
      <trkpt lat="46.78222" lon="-0.53517">
        <ele>221.39</ele>
        <time>2024-06-25T08:47:17.829Z</time>
      </trkpt>
      <trkpt lat="46.78217" lon="-0.53523">
        <ele>221.1</ele>
        <time>2024-06-25T08:47:28.767Z</time>
      </trkpt>
      <trkpt lat="46.78213" lon="-0.53529">
        <ele>220.8</ele>
        <time>2024-06-25T08:47:39.706Z</time>
      </trkpt>
      <trkpt lat="46.78209" lon="-0.53536">
        <ele>220.51</ele>
        <time>2024-06-25T08:47:50.646Z</time>
      </trkpt>
      <trkpt lat="46.78205" lon="-0.53542">
        <ele>220.21</ele>
        <time>2024-06-25T08:48:01.587Z</time>
      </trkpt>
      <trkpt lat="46.78201" lon="-0.53548">
        <ele>219.91</ele>
        <time>2024-06-25T08:48:12.530Z</time>
      </trkpt>
      <trkpt lat="46.78196" lon="-0.53554">
        <ele>219.61</ele>
        <time>2024-06-25T08:48:23.474Z</time>
      </trkpt>
      <trkpt lat="46.78192" lon="-0.5356">
        <ele>219.31</ele>
        <time>2024-06-25T08:48:34.419Z</time>
      </trkpt>
      <trkpt lat="46.78187" lon="-0.53565">
        <ele>219.01</ele>
        <time>2024-06-25T08:48:45.365Z</time>
      </trkpt>
      <trkpt lat="46.78182" lon="-0.53571">
        <ele>218.71</ele>
        <time>2024-06-25T08:48:56.313Z</time>
      </trkpt>
      <trkpt lat="46.78178" lon="-0.53577">
        <ele>218.42</ele>
        <time>2024-06-25T08:49:07.262Z</time>
      </trkpt>
      <trkpt lat="46.78173" lon="-0.53583">
        <ele>218.12</ele>
        <time>2024-06-25T08:49:18.212Z</time>
      </trkpt>
      <trkpt lat="46.78168" lon="-0.5359">
        <ele>217.83</ele>
        <time>2024-06-25T08:49:29.163Z</time>
      </trkpt>
      <trkpt lat="46.78163" lon="-0.53596">
        <ele>217.53</ele>
        <time>2024-06-25T08:49:40.116Z</time>
      </trkpt>
      <trkpt lat="46.78159" lon="-0.53602">
        <ele>217.24</ele>
        <time>2024-06-25T08:49:51.070Z</time>
      </trkpt>
      <trkpt lat="46.78154" lon="-0.53609">
        <ele>216.96</ele>
        <time>2024-06-25T08:50:02.025Z</time>
      </trkpt>
      <trkpt lat="46.78149" lon="-0.53615">
        <ele>216.67</ele>
        <time>2024-06-25T08:50:12.982Z</time>
      </trkpt>
      <trkpt lat="46.78145" lon="-0.53622">
        <ele>216.39</ele>
        <time>2024-06-25T08:50:23.940Z</time>
      </trkpt>
      <trkpt lat="46.7814" lon="-0.53629">
        <ele>216.12</ele>
        <time>2024-06-25T08:50:34.899Z</time>
      </trkpt>
      <trkpt lat="46.78136" lon="-0.53635">
        <ele>215.85</ele>
        <time>2024-06-25T08:50:45.859Z</time>
      </trkpt>
      <trkpt lat="46.78131" lon="-0.53642">
        <ele>215.58</ele>
        <time>2024-06-25T08:50:56.821Z</time>
      </trkpt>
      <trkpt lat="46.78127" lon="-0.53648">
        <ele>215.32</ele>
        <time>2024-06-25T08:51:07.784Z</time>
      </trkpt>
      <trkpt lat="46.78122" lon="-0.53654">
        <ele>215.07</ele>
        <time>2024-06-25T08:51:18.748Z</time>
      </trkpt>
      <trkpt lat="46.78118" lon="-0.53661">
        <ele>214.82</ele>
        <time>2024-06-25T08:51:29.713Z</time>
      </trkpt>
      <trkpt lat="46.78113" lon="-0.53667">
        <ele>214.58</ele>
        <time>2024-06-25T08:51:40.680Z</time>
      </trkpt>
      <trkpt lat="46.78109" lon="-0.53671">
        <ele>214.34</ele>
        <time>2024-06-25T08:51:51.648Z</time>
      </trkpt>
      <trkpt lat="46.78106" lon="-0.53675">
        <ele>214.11</ele>
        <time>2024-06-25T08:52:02.616Z</time>
      </trkpt>
      <trkpt lat="46.78104" lon="-0.53678">
        <ele>213.89</ele>
        <time>2024-06-25T08:52:13.585Z</time>
      </trkpt>
      <trkpt lat="46.78101" lon="-0.53681">
        <ele>213.68</ele>
        <time>2024-06-25T08:52:24.555Z</time>
      </trkpt>
      <trkpt lat="46.78099" lon="-0.53685">
        <ele>213.47</ele>
        <time>2024-06-25T08:52:35.525Z</time>
      </trkpt>
      <trkpt lat="46.78097" lon="-0.53687">
        <ele>213.28</ele>
        <time>2024-06-25T08:52:46.496Z</time>
      </trkpt>
      <trkpt lat="46.78096" lon="-0.53689">
        <ele>213.09</ele>
        <time>2024-06-25T08:52:57.467Z</time>
      </trkpt>
      <trkpt lat="46.78094" lon="-0.53691">
        <ele>212.9</ele>
        <time>2024-06-25T08:53:08.439Z</time>
      </trkpt>
      <trkpt lat="46.78092" lon="-0.53693">
        <ele>212.73</ele>
        <time>2024-06-25T08:53:19.411Z</time>
      </trkpt>
      <trkpt lat="46.78091" lon="-0.53695">
        <ele>212.56</ele>
        <time>2024-06-25T08:53:30.384Z</time>
      </trkpt>
      <trkpt lat="46.78089" lon="-0.53696">
        <ele>212.4</ele>
        <time>2024-06-25T08:53:41.357Z</time>
      </trkpt>
      <trkpt lat="46.78088" lon="-0.53698">
        <ele>212.25</ele>
        <time>2024-06-25T08:53:52.330Z</time>
      </trkpt>
      <trkpt lat="46.78087" lon="-0.53699">
        <ele>212.1</ele>
        <time>2024-06-25T08:54:03.303Z</time>
      </trkpt>
      <trkpt lat="46.78086" lon="-0.53701">
        <ele>211.97</ele>
        <time>2024-06-25T08:54:14.277Z</time>
      </trkpt>
      <trkpt lat="46.78085" lon="-0.53703">
        <ele>211.83</ele>
        <time>2024-06-25T08:54:25.251Z</time>
      </trkpt>
      <trkpt lat="46.78083" lon="-0.53705">
        <ele>211.71</ele>
        <time>2024-06-25T08:54:36.226Z</time>
      </trkpt>
      <trkpt lat="46.78083" lon="-0.53707">
        <ele>211.59</ele>
        <time>2024-06-25T08:54:47.201Z</time>
      </trkpt>
      <trkpt lat="46.78084" lon="-0.53711">
        <ele>211.48</ele>
        <time>2024-06-25T08:54:58.176Z</time>
      </trkpt>
      <trkpt lat="46.78086" lon="-0.53712">
        <ele>211.38</ele>
        <time>2024-06-25T08:55:09.152Z</time>
      </trkpt>
      <trkpt lat="46.78088" lon="-0.53714">
        <ele>211.29</ele>
        <time>2024-06-25T08:55:20.128Z</time>
      </trkpt>
      <trkpt lat="46.7809" lon="-0.53715">
        <ele>211.2</ele>
        <time>2024-06-25T08:55:31.105Z</time>
      </trkpt>
      <trkpt lat="46.78094" lon="-0.53716">
        <ele>211.12</ele>
        <time>2024-06-25T08:55:42.083Z</time>
      </trkpt>
      <trkpt lat="46.78097" lon="-0.53717">
        <ele>211.04</ele>
        <time>2024-06-25T08:55:53.061Z</time>
      </trkpt>
      <trkpt lat="46.781" lon="-0.53719">
        <ele>210.96</ele>
        <time>2024-06-25T08:56:04.040Z</time>
      </trkpt>
      <trkpt lat="46.78104" lon="-0.53721">
        <ele>210.89</ele>
        <time>2024-06-25T08:56:15.020Z</time>
      </trkpt>
      <trkpt lat="46.78108" lon="-0.53723">
        <ele>210.82</ele>
        <time>2024-06-25T08:56:26.001Z</time>
      </trkpt>
      <trkpt lat="46.78113" lon="-0.53726">
        <ele>210.76</ele>
        <time>2024-06-25T08:56:36.983Z</time>
      </trkpt>
      <trkpt lat="46.78116" lon="-0.53728">
        <ele>210.7</ele>
        <time>2024-06-25T08:56:47.965Z</time>
      </trkpt>
      <trkpt lat="46.78121" lon="-0.53731">
        <ele>210.65</ele>
        <time>2024-06-25T08:56:58.948Z</time>
      </trkpt>
      <trkpt lat="46.78125" lon="-0.53734">
        <ele>210.59</ele>
        <time>2024-06-25T08:57:09.932Z</time>
      </trkpt>
      <trkpt lat="46.78129" lon="-0.53738">
        <ele>210.54</ele>
        <time>2024-06-25T08:57:20.917Z</time>
      </trkpt>
      <trkpt lat="46.78133" lon="-0.53741">
        <ele>210.5</ele>
        <time>2024-06-25T08:57:31.903Z</time>
      </trkpt>
      <trkpt lat="46.78137" lon="-0.53745">
        <ele>210.46</ele>
        <time>2024-06-25T08:57:42.890Z</time>
      </trkpt>
      <trkpt lat="46.7814" lon="-0.53749">
        <ele>210.43</ele>
        <time>2024-06-25T08:57:53.878Z</time>
      </trkpt>
      <trkpt lat="46.78144" lon="-0.53753">
        <ele>210.39</ele>
        <time>2024-06-25T08:58:04.867Z</time>
      </trkpt>
      <trkpt lat="46.78148" lon="-0.53756">
        <ele>210.36</ele>
        <time>2024-06-25T08:58:15.857Z</time>
      </trkpt>
      <trkpt lat="46.78151" lon="-0.53761">
        <ele>210.33</ele>
        <time>2024-06-25T08:58:26.848Z</time>
      </trkpt>
      <trkpt lat="46.78151" lon="-0.53764">
        <ele>210.3</ele>
        <time>2024-06-25T08:58:37.839Z</time>
      </trkpt>
      <trkpt lat="46.78151" lon="-0.53767">
        <ele>210.27</ele>
        <time>2024-06-25T08:58:48.831Z</time>
      </trkpt>
      <trkpt lat="46.78149" lon="-0.53771">
        <ele>210.23</ele>
        <time>2024-06-25T08:58:59.823Z</time>
      </trkpt>
      <trkpt lat="46.78145" lon="-0.53775">
        <ele>210.2</ele>
        <time>2024-06-25T08:59:10.816Z</time>
      </trkpt>
      <trkpt lat="46.78141" lon="-0.53778">
        <ele>210.16</ele>
        <time>2024-06-25T08:59:21.810Z</time>
      </trkpt>
      <trkpt lat="46.78137" lon="-0.53781">
        <ele>210.12</ele>
        <time>2024-06-25T08:59:32.805Z</time>
      </trkpt>
      <trkpt lat="46.78132" lon="-0.53784">
        <ele>210.08</ele>
        <time>2024-06-25T08:59:43.801Z</time>
      </trkpt>
      <trkpt lat="46.78127" lon="-0.53786">
        <ele>210.04</ele>
        <time>2024-06-25T08:59:54.798Z</time>
      </trkpt>
      <trkpt lat="46.78122" lon="-0.53789">
        <ele>210</ele>
        <time>2024-06-25T09:00:05.796Z</time>
      </trkpt>
      <trkpt lat="46.78116" lon="-0.53792">
        <ele>209.96</ele>
        <time>2024-06-25T09:00:16.795Z</time>
      </trkpt>
      <trkpt lat="46.7811" lon="-0.53796">
        <ele>209.92</ele>
        <time>2024-06-25T09:00:27.796Z</time>
      </trkpt>
      <trkpt lat="46.78104" lon="-0.53799">
        <ele>209.88</ele>
        <time>2024-06-25T09:00:38.798Z</time>
      </trkpt>
      <trkpt lat="46.78098" lon="-0.53801">
        <ele>209.83</ele>
        <time>2024-06-25T09:00:49.801Z</time>
      </trkpt>
      <trkpt lat="46.78092" lon="-0.53805">
        <ele>209.78</ele>
        <time>2024-06-25T09:01:00.806Z</time>
      </trkpt>
      <trkpt lat="46.78086" lon="-0.53808">
        <ele>209.72</ele>
        <time>2024-06-25T09:01:11.812Z</time>
      </trkpt>
      <trkpt lat="46.7808" lon="-0.53812">
        <ele>209.67</ele>
        <time>2024-06-25T09:01:22.819Z</time>
      </trkpt>
      <trkpt lat="46.78074" lon="-0.53816">
        <ele>209.6</ele>
        <time>2024-06-25T09:01:33.827Z</time>
      </trkpt>
      <trkpt lat="46.78068" lon="-0.53821">
        <ele>209.54</ele>
        <time>2024-06-25T09:01:44.837Z</time>
      </trkpt>
      <trkpt lat="46.78062" lon="-0.53826">
        <ele>209.47</ele>
        <time>2024-06-25T09:01:55.848Z</time>
      </trkpt>
      <trkpt lat="46.78057" lon="-0.53832">
        <ele>209.4</ele>
        <time>2024-06-25T09:02:06.861Z</time>
      </trkpt>
      <trkpt lat="46.78051" lon="-0.53838">
        <ele>209.32</ele>
        <time>2024-06-25T09:02:17.875Z</time>
      </trkpt>
      <trkpt lat="46.78046" lon="-0.53844">
        <ele>209.23</ele>
        <time>2024-06-25T09:02:28.890Z</time>
      </trkpt>
      <trkpt lat="46.7804" lon="-0.5385">
        <ele>209.14</ele>
        <time>2024-06-25T09:02:39.907Z</time>
      </trkpt>
      <trkpt lat="46.78035" lon="-0.53856">
        <ele>209.04</ele>
        <time>2024-06-25T09:02:50.925Z</time>
      </trkpt>
      <trkpt lat="46.78031" lon="-0.53863">
        <ele>208.94</ele>
        <time>2024-06-25T09:03:01.944Z</time>
      </trkpt>
      <trkpt lat="46.78025" lon="-0.5387">
        <ele>208.83</ele>
        <time>2024-06-25T09:03:12.965Z</time>
      </trkpt>
      <trkpt lat="46.78021" lon="-0.53877">
        <ele>208.73</ele>
        <time>2024-06-25T09:03:23.987Z</time>
      </trkpt>
      <trkpt lat="46.78016" lon="-0.53883">
        <ele>208.61</ele>
        <time>2024-06-25T09:03:35.010Z</time>
      </trkpt>
      <trkpt lat="46.78011" lon="-0.53889">
        <ele>208.49</ele>
        <time>2024-06-25T09:03:46.035Z</time>
      </trkpt>
      <trkpt lat="46.78006" lon="-0.53895">
        <ele>208.37</ele>
        <time>2024-06-25T09:03:57.061Z</time>
      </trkpt>
      <trkpt lat="46.78001" lon="-0.53902">
        <ele>208.23</ele>
        <time>2024-06-25T09:04:08.088Z</time>
      </trkpt>
      <trkpt lat="46.77996" lon="-0.53909">
        <ele>208.09</ele>
        <time>2024-06-25T09:04:19.117Z</time>
      </trkpt>
      <trkpt lat="46.77991" lon="-0.53915">
        <ele>207.95</ele>
        <time>2024-06-25T09:04:30.147Z</time>
      </trkpt>
      <trkpt lat="46.77986" lon="-0.53921">
        <ele>207.8</ele>
        <time>2024-06-25T09:04:41.178Z</time>
      </trkpt>
      <trkpt lat="46.7798" lon="-0.53926">
        <ele>207.64</ele>
        <time>2024-06-25T09:04:52.211Z</time>
      </trkpt>
      <trkpt lat="46.77974" lon="-0.53932">
        <ele>207.47</ele>
        <time>2024-06-25T09:05:03.245Z</time>
      </trkpt>
      <trkpt lat="46.77968" lon="-0.53938">
        <ele>207.3</ele>
        <time>2024-06-25T09:05:14.281Z</time>
      </trkpt>
      <trkpt lat="46.77962" lon="-0.53944">
        <ele>207.12</ele>
        <time>2024-06-25T09:05:25.318Z</time>
      </trkpt>
      <trkpt lat="46.77956" lon="-0.5395">
        <ele>206.94</ele>
        <time>2024-06-25T09:05:36.356Z</time>
      </trkpt>
      <trkpt lat="46.7795" lon="-0.53956">
        <ele>206.75</ele>
        <time>2024-06-25T09:05:47.396Z</time>
      </trkpt>
      <trkpt lat="46.77944" lon="-0.53962">
        <ele>206.54</ele>
        <time>2024-06-25T09:05:58.437Z</time>
      </trkpt>
      <trkpt lat="46.77937" lon="-0.53968">
        <ele>206.34</ele>
        <time>2024-06-25T09:06:09.480Z</time>
      </trkpt>
      <trkpt lat="46.7793" lon="-0.53975">
        <ele>206.12</ele>
        <time>2024-06-25T09:06:20.525Z</time>
      </trkpt>
      <trkpt lat="46.77923" lon="-0.53981">
        <ele>205.9</ele>
        <time>2024-06-25T09:06:31.571Z</time>
      </trkpt>
      <trkpt lat="46.77916" lon="-0.53987">
        <ele>205.66</ele>
        <time>2024-06-25T09:06:42.619Z</time>
      </trkpt>
      <trkpt lat="46.77908" lon="-0.53994">
        <ele>205.42</ele>
        <time>2024-06-25T09:06:53.669Z</time>
      </trkpt>
      <trkpt lat="46.779" lon="-0.54">
        <ele>205.17</ele>
        <time>2024-06-25T09:07:04.721Z</time>
      </trkpt>
      <trkpt lat="46.77893" lon="-0.54006">
        <ele>204.92</ele>
        <time>2024-06-25T09:07:15.774Z</time>
      </trkpt>
      <trkpt lat="46.77885" lon="-0.54012">
        <ele>204.66</ele>
        <time>2024-06-25T09:07:26.829Z</time>
      </trkpt>
      <trkpt lat="46.77878" lon="-0.54019">
        <ele>204.41</ele>
        <time>2024-06-25T09:07:37.886Z</time>
      </trkpt>
      <trkpt lat="46.77871" lon="-0.54025">
        <ele>204.15</ele>
        <time>2024-06-25T09:07:48.944Z</time>
      </trkpt>
      <trkpt lat="46.77863" lon="-0.54032">
        <ele>203.89</ele>
        <time>2024-06-25T09:08:00.004Z</time>
      </trkpt>
      <trkpt lat="46.77855" lon="-0.54038">
        <ele>203.62</ele>
        <time>2024-06-25T09:08:11.066Z</time>
      </trkpt>
      <trkpt lat="46.77848" lon="-0.54044">
        <ele>203.36</ele>
        <time>2024-06-25T09:08:22.130Z</time>
      </trkpt>
      <trkpt lat="46.7784" lon="-0.54051">
        <ele>203.09</ele>
        <time>2024-06-25T09:08:33.196Z</time>
      </trkpt>
      <trkpt lat="46.77832" lon="-0.54057">
        <ele>202.83</ele>
        <time>2024-06-25T09:08:44.263Z</time>
      </trkpt>
      <trkpt lat="46.77824" lon="-0.54063">
        <ele>202.56</ele>
        <time>2024-06-25T09:08:55.332Z</time>
      </trkpt>
      <trkpt lat="46.77816" lon="-0.54069">
        <ele>202.29</ele>
        <time>2024-06-25T09:09:06.403Z</time>
      </trkpt>
      <trkpt lat="46.77809" lon="-0.54075">
        <ele>202.02</ele>
        <time>2024-06-25T09:09:17.476Z</time>
      </trkpt>
      <trkpt lat="46.77802" lon="-0.54082">
        <ele>201.75</ele>
        <time>2024-06-25T09:09:28.550Z</time>
      </trkpt>
      <trkpt lat="46.77794" lon="-0.54088">
        <ele>201.49</ele>
        <time>2024-06-25T09:09:39.626Z</time>
      </trkpt>
      <trkpt lat="46.77787" lon="-0.54094">
        <ele>201.23</ele>
        <time>2024-06-25T09:09:50.704Z</time>
      </trkpt>
      <trkpt lat="46.7778" lon="-0.541">
        <ele>200.97</ele>
        <time>2024-06-25T09:10:01.783Z</time>
      </trkpt>
      <trkpt lat="46.77773" lon="-0.54106">
        <ele>200.7</ele>
        <time>2024-06-25T09:10:12.864Z</time>
      </trkpt>
      <trkpt lat="46.77766" lon="-0.54113">
        <ele>200.44</ele>
        <time>2024-06-25T09:10:23.947Z</time>
      </trkpt>
      <trkpt lat="46.7776" lon="-0.5412">
        <ele>200.18</ele>
        <time>2024-06-25T09:10:35.031Z</time>
      </trkpt>
      <trkpt lat="46.77754" lon="-0.54126">
        <ele>199.92</ele>
        <time>2024-06-25T09:10:46.117Z</time>
      </trkpt>
      <trkpt lat="46.77747" lon="-0.54133">
        <ele>199.65</ele>
        <time>2024-06-25T09:10:57.204Z</time>
      </trkpt>
      <trkpt lat="46.77741" lon="-0.54139">
        <ele>199.39</ele>
        <time>2024-06-25T09:11:08.293Z</time>
      </trkpt>
      <trkpt lat="46.77735" lon="-0.54146">
        <ele>199.12</ele>
        <time>2024-06-25T09:11:19.383Z</time>
      </trkpt>
      <trkpt lat="46.77728" lon="-0.54152">
        <ele>198.85</ele>
        <time>2024-06-25T09:11:30.475Z</time>
      </trkpt>
      <trkpt lat="46.77722" lon="-0.54158">
        <ele>198.58</ele>
        <time>2024-06-25T09:11:41.568Z</time>
      </trkpt>
      <trkpt lat="46.77716" lon="-0.54164">
        <ele>198.32</ele>
        <time>2024-06-25T09:11:52.663Z</time>
      </trkpt>
      <trkpt lat="46.7771" lon="-0.54171">
        <ele>198.06</ele>
        <time>2024-06-25T09:12:03.759Z</time>
      </trkpt>
      <trkpt lat="46.77703" lon="-0.54177">
        <ele>197.8</ele>
        <time>2024-06-25T09:12:14.857Z</time>
      </trkpt>
      <trkpt lat="46.77697" lon="-0.54183">
        <ele>197.53</ele>
        <time>2024-06-25T09:12:25.956Z</time>
      </trkpt>
      <trkpt lat="46.77691" lon="-0.5419">
        <ele>197.27</ele>
        <time>2024-06-25T09:12:37.057Z</time>
      </trkpt>
      <trkpt lat="46.77685" lon="-0.54197">
        <ele>197.01</ele>
        <time>2024-06-25T09:12:48.159Z</time>
      </trkpt>
      <trkpt lat="46.7768" lon="-0.54203">
        <ele>196.74</ele>
        <time>2024-06-25T09:12:59.263Z</time>
      </trkpt>
      <trkpt lat="46.77674" lon="-0.54211">
        <ele>196.48</ele>
        <time>2024-06-25T09:13:10.368Z</time>
      </trkpt>
      <trkpt lat="46.77668" lon="-0.54219">
        <ele>196.23</ele>
        <time>2024-06-25T09:13:21.475Z</time>
      </trkpt>
      <trkpt lat="46.77663" lon="-0.54227">
        <ele>195.97</ele>
        <time>2024-06-25T09:13:32.584Z</time>
      </trkpt>
      <trkpt lat="46.77658" lon="-0.54235">
        <ele>195.72</ele>
        <time>2024-06-25T09:13:43.694Z</time>
      </trkpt>
      <trkpt lat="46.77653" lon="-0.54243">
        <ele>195.47</ele>
        <time>2024-06-25T09:13:54.806Z</time>
      </trkpt>
      <trkpt lat="46.77649" lon="-0.54252">
        <ele>195.22</ele>
        <time>2024-06-25T09:14:05.919Z</time>
      </trkpt>
      <trkpt lat="46.77644" lon="-0.54261">
        <ele>194.96</ele>
        <time>2024-06-25T09:14:17.034Z</time>
      </trkpt>
      <trkpt lat="46.7764" lon="-0.54269">
        <ele>194.7</ele>
        <time>2024-06-25T09:14:28.150Z</time>
      </trkpt>
      <trkpt lat="46.77636" lon="-0.54278">
        <ele>194.44</ele>
        <time>2024-06-25T09:14:39.267Z</time>
      </trkpt>
      <trkpt lat="46.77632" lon="-0.54286">
        <ele>194.18</ele>
        <time>2024-06-25T09:14:50.386Z</time>
      </trkpt>
      <trkpt lat="46.77627" lon="-0.54295">
        <ele>193.91</ele>
        <time>2024-06-25T09:15:01.506Z</time>
      </trkpt>
      <trkpt lat="46.77623" lon="-0.54305">
        <ele>193.64</ele>
        <time>2024-06-25T09:15:12.628Z</time>
      </trkpt>
      <trkpt lat="46.77618" lon="-0.54314">
        <ele>193.37</ele>
        <time>2024-06-25T09:15:23.752Z</time>
      </trkpt>
      <trkpt lat="46.77614" lon="-0.54323">
        <ele>193.08</ele>
        <time>2024-06-25T09:15:34.877Z</time>
      </trkpt>
      <trkpt lat="46.77609" lon="-0.54332">
        <ele>192.8</ele>
        <time>2024-06-25T09:15:46.004Z</time>
      </trkpt>
      <trkpt lat="46.77604" lon="-0.54341">
        <ele>192.51</ele>
        <time>2024-06-25T09:15:57.132Z</time>
      </trkpt>
      <trkpt lat="46.776" lon="-0.5435">
        <ele>192.22</ele>
        <time>2024-06-25T09:16:08.262Z</time>
      </trkpt>
      <trkpt lat="46.77595" lon="-0.54359">
        <ele>191.93</ele>
        <time>2024-06-25T09:16:19.393Z</time>
      </trkpt>
      <trkpt lat="46.7759" lon="-0.54368">
        <ele>191.64</ele>
        <time>2024-06-25T09:16:30.526Z</time>
      </trkpt>
      <trkpt lat="46.77585" lon="-0.54378">
        <ele>191.36</ele>
        <time>2024-06-25T09:16:41.660Z</time>
      </trkpt>
      <trkpt lat="46.7758" lon="-0.54387">
        <ele>191.07</ele>
        <time>2024-06-25T09:16:52.796Z</time>
      </trkpt>
      <trkpt lat="46.77575" lon="-0.54396">
        <ele>190.79</ele>
        <time>2024-06-25T09:17:03.934Z</time>
      </trkpt>
      <trkpt lat="46.7757" lon="-0.54405">
        <ele>190.5</ele>
        <time>2024-06-25T09:17:15.073Z</time>
      </trkpt>
      <trkpt lat="46.77564" lon="-0.54414">
        <ele>190.21</ele>
        <time>2024-06-25T09:17:26.214Z</time>
      </trkpt>
      <trkpt lat="46.77558" lon="-0.54422">
        <ele>189.91</ele>
        <time>2024-06-25T09:17:37.357Z</time>
      </trkpt>
      <trkpt lat="46.77552" lon="-0.54431">
        <ele>189.61</ele>
        <time>2024-06-25T09:17:48.501Z</time>
      </trkpt>
      <trkpt lat="46.77546" lon="-0.5444">
        <ele>189.31</ele>
        <time>2024-06-25T09:17:59.647Z</time>
      </trkpt>
      <trkpt lat="46.77541" lon="-0.5445">
        <ele>189.01</ele>
        <time>2024-06-25T09:18:10.795Z</time>
      </trkpt>
      <trkpt lat="46.77536" lon="-0.5446">
        <ele>188.71</ele>
        <time>2024-06-25T09:18:21.944Z</time>
      </trkpt>
      <trkpt lat="46.77531" lon="-0.5447">
        <ele>188.41</ele>
        <time>2024-06-25T09:18:33.095Z</time>
      </trkpt>
      <trkpt lat="46.77527" lon="-0.5448">
        <ele>188.1</ele>
        <time>2024-06-25T09:18:44.248Z</time>
      </trkpt>
      <trkpt lat="46.77523" lon="-0.54492">
        <ele>187.8</ele>
        <time>2024-06-25T09:18:55.403Z</time>
      </trkpt>
      <trkpt lat="46.77519" lon="-0.54503">
        <ele>187.5</ele>
        <time>2024-06-25T09:19:06.559Z</time>
      </trkpt>
      <trkpt lat="46.77515" lon="-0.54515">
        <ele>187.21</ele>
        <time>2024-06-25T09:19:17.717Z</time>
      </trkpt>
      <trkpt lat="46.7751" lon="-0.54527">
        <ele>186.93</ele>
        <time>2024-06-25T09:19:28.877Z</time>
      </trkpt>
      <trkpt lat="46.77505" lon="-0.54539">
        <ele>186.64</ele>
        <time>2024-06-25T09:19:40.039Z</time>
      </trkpt>
      <trkpt lat="46.775" lon="-0.54552">
        <ele>186.35</ele>
        <time>2024-06-25T09:19:51.203Z</time>
      </trkpt>
      <trkpt lat="46.77495" lon="-0.54565">
        <ele>186.07</ele>
        <time>2024-06-25T09:20:02.369Z</time>
      </trkpt>
      <trkpt lat="46.7749" lon="-0.54578">
        <ele>185.8</ele>
        <time>2024-06-25T09:20:13.537Z</time>
      </trkpt>
      <trkpt lat="46.77486" lon="-0.54592">
        <ele>185.53</ele>
        <time>2024-06-25T09:20:24.707Z</time>
      </trkpt>
      <trkpt lat="46.77481" lon="-0.54605">
        <ele>185.26</ele>
        <time>2024-06-25T09:20:35.879Z</time>
      </trkpt>
      <trkpt lat="46.77478" lon="-0.54618">
        <ele>185</ele>
        <time>2024-06-25T09:20:47.053Z</time>
      </trkpt>
      <trkpt lat="46.77474" lon="-0.5463">
        <ele>184.74</ele>
        <time>2024-06-25T09:20:58.229Z</time>
      </trkpt>
      <trkpt lat="46.7747" lon="-0.54643">
        <ele>184.48</ele>
        <time>2024-06-25T09:21:09.407Z</time>
      </trkpt>
      <trkpt lat="46.77467" lon="-0.54655">
        <ele>184.22</ele>
        <time>2024-06-25T09:21:20.587Z</time>
      </trkpt>
      <trkpt lat="46.77463" lon="-0.54667">
        <ele>183.96</ele>
        <time>2024-06-25T09:21:31.769Z</time>
      </trkpt>
      <trkpt lat="46.77459" lon="-0.54677">
        <ele>183.72</ele>
        <time>2024-06-25T09:21:42.952Z</time>
      </trkpt>
      <trkpt lat="46.77454" lon="-0.54688">
        <ele>183.49</ele>
        <time>2024-06-25T09:21:54.137Z</time>
      </trkpt>
      <trkpt lat="46.77451" lon="-0.54697">
        <ele>183.26</ele>
        <time>2024-06-25T09:22:05.323Z</time>
      </trkpt>
      <trkpt lat="46.77446" lon="-0.54707">
        <ele>183.05</ele>
        <time>2024-06-25T09:22:16.511Z</time>
      </trkpt>
      <trkpt lat="46.77441" lon="-0.54716">
        <ele>182.84</ele>
        <time>2024-06-25T09:22:27.701Z</time>
      </trkpt>
      <trkpt lat="46.77436" lon="-0.54723">
        <ele>182.64</ele>
        <time>2024-06-25T09:22:38.892Z</time>
      </trkpt>
      <trkpt lat="46.77432" lon="-0.54731">
        <ele>182.44</ele>
        <time>2024-06-25T09:22:50.084Z</time>
      </trkpt>
      <trkpt lat="46.77426" lon="-0.54739">
        <ele>182.24</ele>
        <time>2024-06-25T09:23:01.278Z</time>
      </trkpt>
      <trkpt lat="46.77421" lon="-0.54746">
        <ele>182.06</ele>
        <time>2024-06-25T09:23:12.473Z</time>
      </trkpt>
      <trkpt lat="46.77416" lon="-0.54753">
        <ele>181.88</ele>
        <time>2024-06-25T09:23:23.670Z</time>
      </trkpt>
      <trkpt lat="46.77411" lon="-0.5476">
        <ele>181.7</ele>
        <time>2024-06-25T09:23:34.868Z</time>
      </trkpt>
      <trkpt lat="46.77406" lon="-0.54767">
        <ele>181.53</ele>
        <time>2024-06-25T09:23:46.068Z</time>
      </trkpt>
      <trkpt lat="46.774" lon="-0.54774">
        <ele>181.37</ele>
        <time>2024-06-25T09:23:57.269Z</time>
      </trkpt>
      <trkpt lat="46.77395" lon="-0.5478">
        <ele>181.22</ele>
        <time>2024-06-25T09:24:08.471Z</time>
      </trkpt>
      <trkpt lat="46.7739" lon="-0.54787">
        <ele>181.08</ele>
        <time>2024-06-25T09:24:19.675Z</time>
      </trkpt>
      <trkpt lat="46.77386" lon="-0.54793">
        <ele>180.95</ele>
        <time>2024-06-25T09:24:30.880Z</time>
      </trkpt>
      <trkpt lat="46.77382" lon="-0.54798">
        <ele>180.82</ele>
        <time>2024-06-25T09:24:42.086Z</time>
      </trkpt>
      <trkpt lat="46.77379" lon="-0.54802">
        <ele>180.7</ele>
        <time>2024-06-25T09:24:53.293Z</time>
      </trkpt>
      <trkpt lat="46.77377" lon="-0.54805">
        <ele>180.59</ele>
        <time>2024-06-25T09:25:04.500Z</time>
      </trkpt>
      <trkpt lat="46.77375" lon="-0.54808">
        <ele>180.49</ele>
        <time>2024-06-25T09:25:15.708Z</time>
      </trkpt>
      <trkpt lat="46.77372" lon="-0.5481">
        <ele>180.4</ele>
        <time>2024-06-25T09:25:26.917Z</time>
      </trkpt>
      <trkpt lat="46.77369" lon="-0.54811">
        <ele>180.31</ele>
        <time>2024-06-25T09:25:38.126Z</time>
      </trkpt>
      <trkpt lat="46.77365" lon="-0.5481">
        <ele>180.23</ele>
        <time>2024-06-25T09:25:49.336Z</time>
      </trkpt>
      <trkpt lat="46.77362" lon="-0.54809">
        <ele>180.16</ele>
        <time>2024-06-25T09:26:00.547Z</time>
      </trkpt>
      <trkpt lat="46.77357" lon="-0.54807">
        <ele>180.1</ele>
        <time>2024-06-25T09:26:11.759Z</time>
      </trkpt>
      <trkpt lat="46.77353" lon="-0.54805">
        <ele>180.04</ele>
        <time>2024-06-25T09:26:22.972Z</time>
      </trkpt>
      <trkpt lat="46.77347" lon="-0.54803">
        <ele>179.99</ele>
        <time>2024-06-25T09:26:34.186Z</time>
      </trkpt>
      <trkpt lat="46.77342" lon="-0.54802">
        <ele>179.95</ele>
        <time>2024-06-25T09:26:45.401Z</time>
      </trkpt>
      <trkpt lat="46.77336" lon="-0.54801">
        <ele>179.92</ele>
        <time>2024-06-25T09:26:56.617Z</time>
      </trkpt>
      <trkpt lat="46.7733" lon="-0.54801">
        <ele>179.89</ele>
        <time>2024-06-25T09:27:07.834Z</time>
      </trkpt>
      <trkpt lat="46.77325" lon="-0.54803">
        <ele>179.87</ele>
        <time>2024-06-25T09:27:19.052Z</time>
      </trkpt>
      <trkpt lat="46.77319" lon="-0.54806">
        <ele>179.86</ele>
        <time>2024-06-25T09:27:30.271Z</time>
      </trkpt>
      <trkpt lat="46.77314" lon="-0.5481">
        <ele>179.86</ele>
        <time>2024-06-25T09:27:41.492Z</time>
      </trkpt>
      <trkpt lat="46.77309" lon="-0.54815">
        <ele>179.86</ele>
        <time>2024-06-25T09:27:52.714Z</time>
      </trkpt>
      <trkpt lat="46.77304" lon="-0.54821">
        <ele>179.87</ele>
        <time>2024-06-25T09:28:03.937Z</time>
      </trkpt>
      <trkpt lat="46.773" lon="-0.54826">
        <ele>179.89</ele>
        <time>2024-06-25T09:28:15.161Z</time>
      </trkpt>
      <trkpt lat="46.77295" lon="-0.54831">
        <ele>179.91</ele>
        <time>2024-06-25T09:28:26.386Z</time>
      </trkpt>
      <trkpt lat="46.7729" lon="-0.54837">
        <ele>179.94</ele>
        <time>2024-06-25T09:28:37.613Z</time>
      </trkpt>
      <trkpt lat="46.77286" lon="-0.54842">
        <ele>179.98</ele>
        <time>2024-06-25T09:28:48.841Z</time>
      </trkpt>
      <trkpt lat="46.77282" lon="-0.54848">
        <ele>180.03</ele>
        <time>2024-06-25T09:29:00.070Z</time>
      </trkpt>
      <trkpt lat="46.77279" lon="-0.54853">
        <ele>180.08</ele>
        <time>2024-06-25T09:29:11.300Z</time>
      </trkpt>
      <trkpt lat="46.77274" lon="-0.54858">
        <ele>180.14</ele>
        <time>2024-06-25T09:29:22.531Z</time>
      </trkpt>
      <trkpt lat="46.7727" lon="-0.54863">
        <ele>180.21</ele>
        <time>2024-06-25T09:29:33.763Z</time>
      </trkpt>
      <trkpt lat="46.77266" lon="-0.54868">
        <ele>180.28</ele>
        <time>2024-06-25T09:29:44.996Z</time>
      </trkpt>
      <trkpt lat="46.77262" lon="-0.54874">
        <ele>180.36</ele>
        <time>2024-06-25T09:29:56.230Z</time>
      </trkpt>
      <trkpt lat="46.77258" lon="-0.54879">
        <ele>180.45</ele>
        <time>2024-06-25T09:30:07.465Z</time>
      </trkpt>
      <trkpt lat="46.77254" lon="-0.54884">
        <ele>180.54</ele>
        <time>2024-06-25T09:30:18.701Z</time>
      </trkpt>
      <trkpt lat="46.77251" lon="-0.54889">
        <ele>180.63</ele>
        <time>2024-06-25T09:30:29.938Z</time>
      </trkpt>
      <trkpt lat="46.77247" lon="-0.54895">
        <ele>180.74</ele>
        <time>2024-06-25T09:30:41.176Z</time>
      </trkpt>
      <trkpt lat="46.77243" lon="-0.549">
        <ele>180.84</ele>
        <time>2024-06-25T09:30:52.416Z</time>
      </trkpt>
      <trkpt lat="46.77239" lon="-0.54905">
        <ele>180.96</ele>
        <time>2024-06-25T09:31:03.657Z</time>
      </trkpt>
      <trkpt lat="46.77235" lon="-0.5491">
        <ele>181.08</ele>
        <time>2024-06-25T09:31:14.899Z</time>
      </trkpt>
      <trkpt lat="46.77231" lon="-0.54915">
        <ele>181.2</ele>
        <time>2024-06-25T09:31:26.142Z</time>
      </trkpt>
      <trkpt lat="46.77227" lon="-0.54919">
        <ele>181.33</ele>
        <time>2024-06-25T09:31:37.386Z</time>
      </trkpt>
      <trkpt lat="46.77223" lon="-0.54923">
        <ele>181.47</ele>
        <time>2024-06-25T09:31:48.631Z</time>
      </trkpt>
      <trkpt lat="46.77219" lon="-0.54928">
        <ele>181.61</ele>
        <time>2024-06-25T09:31:59.877Z</time>
      </trkpt>
      <trkpt lat="46.77215" lon="-0.54931">
        <ele>181.75</ele>
        <time>2024-06-25T09:32:11.124Z</time>
      </trkpt>
      <trkpt lat="46.77211" lon="-0.54935">
        <ele>181.9</ele>
        <time>2024-06-25T09:32:22.371Z</time>
      </trkpt>
      <trkpt lat="46.77207" lon="-0.54939">
        <ele>182.05</ele>
        <time>2024-06-25T09:32:33.619Z</time>
      </trkpt>
      <trkpt lat="46.77204" lon="-0.54943">
        <ele>182.21</ele>
        <time>2024-06-25T09:32:44.868Z</time>
      </trkpt>
      <trkpt lat="46.77201" lon="-0.54946">
        <ele>182.37</ele>
        <time>2024-06-25T09:32:56.118Z</time>
      </trkpt>
      <trkpt lat="46.77198" lon="-0.5495">
        <ele>182.53</ele>
        <time>2024-06-25T09:33:07.369Z</time>
      </trkpt>
      <trkpt lat="46.77195" lon="-0.54953">
        <ele>182.7</ele>
        <time>2024-06-25T09:33:18.621Z</time>
      </trkpt>
      <trkpt lat="46.77193" lon="-0.54955">
        <ele>182.87</ele>
        <time>2024-06-25T09:33:29.873Z</time>
      </trkpt>
      <trkpt lat="46.7719" lon="-0.54957">
        <ele>183.04</ele>
        <time>2024-06-25T09:33:41.126Z</time>
      </trkpt>
      <trkpt lat="46.77188" lon="-0.54959">
        <ele>183.21</ele>
        <time>2024-06-25T09:33:52.379Z</time>
      </trkpt>
      <trkpt lat="46.77186" lon="-0.5496">
        <ele>183.39</ele>
        <time>2024-06-25T09:34:03.633Z</time>
      </trkpt>
      <trkpt lat="46.77185" lon="-0.54961">
        <ele>183.57</ele>
        <time>2024-06-25T09:34:14.887Z</time>
      </trkpt>
      <trkpt lat="46.77184" lon="-0.54964">
        <ele>183.75</ele>
        <time>2024-06-25T09:34:26.141Z</time>
      </trkpt>
      <trkpt lat="46.77181" lon="-0.54964">
        <ele>183.94</ele>
        <time>2024-06-25T09:34:37.396Z</time>
      </trkpt>
      <trkpt lat="46.77179" lon="-0.54964">
        <ele>184.13</ele>
        <time>2024-06-25T09:34:48.651Z</time>
      </trkpt>
      <trkpt lat="46.77176" lon="-0.54965">
        <ele>184.32</ele>
        <time>2024-06-25T09:34:59.907Z</time>
      </trkpt>
      <trkpt lat="46.77172" lon="-0.54966">
        <ele>184.51</ele>
        <time>2024-06-25T09:35:11.164Z</time>
      </trkpt>
      <trkpt lat="46.77168" lon="-0.54967">
        <ele>184.71</ele>
        <time>2024-06-25T09:35:22.421Z</time>
      </trkpt>
      <trkpt lat="46.77164" lon="-0.54968">
        <ele>184.9</ele>
        <time>2024-06-25T09:35:33.679Z</time>
      </trkpt>
      <trkpt lat="46.7716" lon="-0.54969">
        <ele>185.1</ele>
        <time>2024-06-25T09:35:44.938Z</time>
      </trkpt>
      <trkpt lat="46.77156" lon="-0.54969">
        <ele>185.3</ele>
        <time>2024-06-25T09:35:56.198Z</time>
      </trkpt>
      <trkpt lat="46.77151" lon="-0.54969">
        <ele>185.5</ele>
        <time>2024-06-25T09:36:07.459Z</time>
      </trkpt>
      <trkpt lat="46.77147" lon="-0.5497">
        <ele>185.71</ele>
        <time>2024-06-25T09:36:18.721Z</time>
      </trkpt>
      <trkpt lat="46.77142" lon="-0.54971">
        <ele>185.91</ele>
        <time>2024-06-25T09:36:29.984Z</time>
      </trkpt>
      <trkpt lat="46.77137" lon="-0.54972">
        <ele>186.12</ele>
        <time>2024-06-25T09:36:41.248Z</time>
      </trkpt>
      <trkpt lat="46.77133" lon="-0.54972">
        <ele>186.32</ele>
        <time>2024-06-25T09:36:52.513Z</time>
      </trkpt>
      <trkpt lat="46.77129" lon="-0.54972">
        <ele>186.53</ele>
        <time>2024-06-25T09:37:03.778Z</time>
      </trkpt>
      <trkpt lat="46.77124" lon="-0.54973">
        <ele>186.73</ele>
        <time>2024-06-25T09:37:15.044Z</time>
      </trkpt>
      <trkpt lat="46.7712" lon="-0.54973">
        <ele>186.94</ele>
        <time>2024-06-25T09:37:26.311Z</time>
      </trkpt>
      <trkpt lat="46.77116" lon="-0.54973">
        <ele>187.14</ele>
        <time>2024-06-25T09:37:37.579Z</time>
      </trkpt>
      <trkpt lat="46.7711" lon="-0.54973">
        <ele>187.35</ele>
        <time>2024-06-25T09:37:48.848Z</time>
      </trkpt>
      <trkpt lat="46.77106" lon="-0.54973">
        <ele>187.55</ele>
        <time>2024-06-25T09:38:00.118Z</time>
      </trkpt>
      <trkpt lat="46.77102" lon="-0.54973">
        <ele>187.76</ele>
        <time>2024-06-25T09:38:11.389Z</time>
      </trkpt>
      <trkpt lat="46.77097" lon="-0.54973">
        <ele>187.96</ele>
        <time>2024-06-25T09:38:22.661Z</time>
      </trkpt>
      <trkpt lat="46.77092" lon="-0.54972">
        <ele>188.16</ele>
        <time>2024-06-25T09:38:33.934Z</time>
      </trkpt>
      <trkpt lat="46.77087" lon="-0.54972">
        <ele>188.36</ele>
        <time>2024-06-25T09:38:45.208Z</time>
      </trkpt>
      <trkpt lat="46.77083" lon="-0.54972">
        <ele>188.56</ele>
        <time>2024-06-25T09:38:56.482Z</time>
      </trkpt>
      <trkpt lat="46.77079" lon="-0.54972">
        <ele>188.76</ele>
        <time>2024-06-25T09:39:07.757Z</time>
      </trkpt>
      <trkpt lat="46.77075" lon="-0.54971">
        <ele>188.96</ele>
        <time>2024-06-25T09:39:19.033Z</time>
      </trkpt>
      <trkpt lat="46.77071" lon="-0.54971">
        <ele>189.15</ele>
        <time>2024-06-25T09:39:30.310Z</time>
      </trkpt>
      <trkpt lat="46.77068" lon="-0.54971">
        <ele>189.35</ele>
        <time>2024-06-25T09:39:41.588Z</time>
      </trkpt>
      <trkpt lat="46.77064" lon="-0.54973">
        <ele>189.54</ele>
        <time>2024-06-25T09:39:52.866Z</time>
      </trkpt>
      <trkpt lat="46.77061" lon="-0.54976">
        <ele>189.73</ele>
        <time>2024-06-25T09:40:04.145Z</time>
      </trkpt>
      <trkpt lat="46.77059" lon="-0.54981">
        <ele>189.93</ele>
        <time>2024-06-25T09:40:15.425Z</time>
      </trkpt>
      <trkpt lat="46.77058" lon="-0.54986">
        <ele>190.11</ele>
        <time>2024-06-25T09:40:26.706Z</time>
      </trkpt>
      <trkpt lat="46.77057" lon="-0.54992">
        <ele>190.3</ele>
        <time>2024-06-25T09:40:37.987Z</time>
      </trkpt>
      <trkpt lat="46.77057" lon="-0.54997">
        <ele>190.48</ele>
        <time>2024-06-25T09:40:49.269Z</time>
      </trkpt>
      <trkpt lat="46.77057" lon="-0.55002">
        <ele>190.66</ele>
        <time>2024-06-25T09:41:00.552Z</time>
      </trkpt>
      <trkpt lat="46.77057" lon="-0.55007">
        <ele>190.83</ele>
        <time>2024-06-25T09:41:11.836Z</time>
      </trkpt>
      <trkpt lat="46.77057" lon="-0.55012">
        <ele>191</ele>
        <time>2024-06-25T09:41:23.120Z</time>
      </trkpt>
      <trkpt lat="46.77057" lon="-0.55017">
        <ele>191.17</ele>
        <time>2024-06-25T09:41:34.405Z</time>
      </trkpt>
      <trkpt lat="46.77058" lon="-0.55022">
        <ele>191.33</ele>
        <time>2024-06-25T09:41:45.691Z</time>
      </trkpt>
      <trkpt lat="46.77058" lon="-0.55027">
        <ele>191.5</ele>
        <time>2024-06-25T09:41:56.977Z</time>
      </trkpt>
      <trkpt lat="46.77059" lon="-0.55032">
        <ele>191.65</ele>
        <time>2024-06-25T09:42:08.264Z</time>
      </trkpt>
      <trkpt lat="46.7706" lon="-0.55038">
        <ele>191.81</ele>
        <time>2024-06-25T09:42:19.552Z</time>
      </trkpt>
      <trkpt lat="46.7706" lon="-0.55044">
        <ele>191.95</ele>
        <time>2024-06-25T09:42:30.841Z</time>
      </trkpt>
      <trkpt lat="46.77061" lon="-0.55049">
        <ele>192.09</ele>
        <time>2024-06-25T09:42:42.130Z</time>
      </trkpt>
      <trkpt lat="46.77062" lon="-0.55055">
        <ele>192.23</ele>
        <time>2024-06-25T09:42:53.420Z</time>
      </trkpt>
      <trkpt lat="46.77062" lon="-0.5506">
        <ele>192.37</ele>
        <time>2024-06-25T09:43:04.711Z</time>
      </trkpt>
      <trkpt lat="46.77063" lon="-0.55066">
        <ele>192.5</ele>
        <time>2024-06-25T09:43:16.003Z</time>
      </trkpt>
      <trkpt lat="46.77064" lon="-0.55072">
        <ele>192.62</ele>
        <time>2024-06-25T09:43:27.296Z</time>
      </trkpt>
      <trkpt lat="46.77065" lon="-0.55077">
        <ele>192.74</ele>
        <time>2024-06-25T09:43:38.589Z</time>
      </trkpt>
      <trkpt lat="46.77065" lon="-0.55083">
        <ele>192.86</ele>
        <time>2024-06-25T09:43:49.883Z</time>
      </trkpt>
      <trkpt lat="46.77065" lon="-0.5509">
        <ele>192.98</ele>
        <time>2024-06-25T09:44:01.178Z</time>
      </trkpt>
      <trkpt lat="46.77065" lon="-0.55096">
        <ele>193.09</ele>
        <time>2024-06-25T09:44:12.474Z</time>
      </trkpt>
      <trkpt lat="46.77065" lon="-0.55102">
        <ele>193.2</ele>
        <time>2024-06-25T09:44:23.771Z</time>
      </trkpt>
      <trkpt lat="46.77064" lon="-0.55108">
        <ele>193.3</ele>
        <time>2024-06-25T09:44:35.069Z</time>
      </trkpt>
      <trkpt lat="46.77063" lon="-0.55113">
        <ele>193.4</ele>
        <time>2024-06-25T09:44:46.367Z</time>
      </trkpt>
      <trkpt lat="46.77061" lon="-0.55118">
        <ele>193.49</ele>
        <time>2024-06-25T09:44:57.666Z</time>
      </trkpt>
      <trkpt lat="46.77059" lon="-0.55124">
        <ele>193.59</ele>
        <time>2024-06-25T09:45:08.966Z</time>
      </trkpt>
      <trkpt lat="46.77057" lon="-0.55129">
        <ele>193.68</ele>
        <time>2024-06-25T09:45:20.267Z</time>
      </trkpt>
      <trkpt lat="46.77054" lon="-0.55133">
        <ele>193.76</ele>
        <time>2024-06-25T09:45:31.569Z</time>
      </trkpt>
      <trkpt lat="46.7705" lon="-0.55137">
        <ele>193.84</ele>
        <time>2024-06-25T09:45:42.871Z</time>
      </trkpt>
      <trkpt lat="46.77047" lon="-0.5514">
        <ele>193.92</ele>
        <time>2024-06-25T09:45:54.174Z</time>
      </trkpt>
      <trkpt lat="46.77044" lon="-0.55143">
        <ele>193.99</ele>
        <time>2024-06-25T09:46:05.478Z</time>
      </trkpt>
      <trkpt lat="46.7704" lon="-0.55145">
        <ele>194.05</ele>
        <time>2024-06-25T09:46:16.783Z</time>
      </trkpt>
      <trkpt lat="46.77037" lon="-0.55147">
        <ele>194.11</ele>
        <time>2024-06-25T09:46:28.088Z</time>
      </trkpt>
      <trkpt lat="46.77035" lon="-0.55149">
        <ele>194.16</ele>
        <time>2024-06-25T09:46:39.394Z</time>
      </trkpt>
      <trkpt lat="46.77033" lon="-0.55151">
        <ele>194.2</ele>
        <time>2024-06-25T09:46:50.700Z</time>
      </trkpt>
      <trkpt lat="46.77032" lon="-0.55152">
        <ele>194.23</ele>
        <time>2024-06-25T09:47:02.007Z</time>
      </trkpt>
      <trkpt lat="46.77032" lon="-0.55152">
        <ele>194.26</ele>
        <time>2024-06-25T09:47:13.314Z</time>
      </trkpt>
      <trkpt lat="46.77032" lon="-0.55152">
        <ele>194.29</ele>
        <time>2024-06-25T09:47:24.621Z</time>
      </trkpt>
      <trkpt lat="46.77028" lon="-0.55157">
        <ele>194.3</ele>
        <time>2024-06-25T09:47:35.929Z</time>
      </trkpt>
      <trkpt lat="46.77027" lon="-0.5516">
        <ele>194.32</ele>
        <time>2024-06-25T09:47:47.237Z</time>
      </trkpt>
      <trkpt lat="46.77025" lon="-0.55162">
        <ele>194.32</ele>
        <time>2024-06-25T09:47:58.546Z</time>
      </trkpt>
      <trkpt lat="46.77024" lon="-0.55165">
        <ele>194.32</ele>
        <time>2024-06-25T09:48:09.855Z</time>
      </trkpt>
      <trkpt lat="46.77023" lon="-0.55169">
        <ele>194.31</ele>
        <time>2024-06-25T09:48:21.165Z</time>
      </trkpt>
      <trkpt lat="46.77021" lon="-0.55173">
        <ele>194.3</ele>
        <time>2024-06-25T09:48:32.475Z</time>
      </trkpt>
      <trkpt lat="46.77019" lon="-0.55177">
        <ele>194.28</ele>
        <time>2024-06-25T09:48:43.786Z</time>
      </trkpt>
      <trkpt lat="46.77018" lon="-0.55182">
        <ele>194.26</ele>
        <time>2024-06-25T09:48:55.098Z</time>
      </trkpt>
      <trkpt lat="46.77017" lon="-0.55186">
        <ele>194.23</ele>
        <time>2024-06-25T09:49:06.410Z</time>
      </trkpt>
      <trkpt lat="46.77015" lon="-0.5519">
        <ele>194.19</ele>
        <time>2024-06-25T09:49:17.723Z</time>
      </trkpt>
      <trkpt lat="46.77013" lon="-0.55193">
        <ele>194.15</ele>
        <time>2024-06-25T09:49:29.037Z</time>
      </trkpt>
      <trkpt lat="46.77011" lon="-0.55196">
        <ele>194.11</ele>
        <time>2024-06-25T09:49:40.351Z</time>
      </trkpt>
      <trkpt lat="46.7701" lon="-0.55199">
        <ele>194.06</ele>
        <time>2024-06-25T09:49:51.666Z</time>
      </trkpt>
      <trkpt lat="46.77008" lon="-0.55202">
        <ele>194</ele>
        <time>2024-06-25T09:50:02.981Z</time>
      </trkpt>
      <trkpt lat="46.77007" lon="-0.55205">
        <ele>193.94</ele>
        <time>2024-06-25T09:50:14.297Z</time>
      </trkpt>
      <trkpt lat="46.77005" lon="-0.55208">
        <ele>193.88</ele>
        <time>2024-06-25T09:50:25.613Z</time>
      </trkpt>
      <trkpt lat="46.77005" lon="-0.55211">
        <ele>193.81</ele>
        <time>2024-06-25T09:50:36.930Z</time>
      </trkpt>
      <trkpt lat="46.77004" lon="-0.55214">
        <ele>193.73</ele>
        <time>2024-06-25T09:50:48.247Z</time>
      </trkpt>
      <trkpt lat="46.77003" lon="-0.55218">
        <ele>193.65</ele>
        <time>2024-06-25T09:50:59.565Z</time>
      </trkpt>
      <trkpt lat="46.77002" lon="-0.55222">
        <ele>193.56</ele>
        <time>2024-06-25T09:51:10.883Z</time>
      </trkpt>
      <trkpt lat="46.77001" lon="-0.55225">
        <ele>193.48</ele>
        <time>2024-06-25T09:51:22.202Z</time>
      </trkpt>
      <trkpt lat="46.77001" lon="-0.55228">
        <ele>193.38</ele>
        <time>2024-06-25T09:51:33.521Z</time>
      </trkpt>
      <trkpt lat="46.77001" lon="-0.55232">
        <ele>193.28</ele>
        <time>2024-06-25T09:51:44.841Z</time>
      </trkpt>
      <trkpt lat="46.77" lon="-0.55236">
        <ele>193.18</ele>
        <time>2024-06-25T09:51:56.161Z</time>
      </trkpt>
      <trkpt lat="46.77" lon="-0.55241">
        <ele>193.07</ele>
        <time>2024-06-25T09:52:07.482Z</time>
      </trkpt>
      <trkpt lat="46.76999" lon="-0.55247">
        <ele>192.96</ele>
        <time>2024-06-25T09:52:18.804Z</time>
      </trkpt>
      <trkpt lat="46.76999" lon="-0.55252">
        <ele>192.84</ele>
        <time>2024-06-25T09:52:30.126Z</time>
      </trkpt>
      <trkpt lat="46.77" lon="-0.55258">
        <ele>192.72</ele>
        <time>2024-06-25T09:52:41.449Z</time>
      </trkpt>
      <trkpt lat="46.77" lon="-0.55263">
        <ele>192.6</ele>
        <time>2024-06-25T09:52:52.773Z</time>
      </trkpt>
      <trkpt lat="46.77001" lon="-0.55269">
        <ele>192.47</ele>
        <time>2024-06-25T09:53:04.098Z</time>
      </trkpt>
      <trkpt lat="46.77001" lon="-0.55275">
        <ele>192.34</ele>
        <time>2024-06-25T09:53:15.424Z</time>
      </trkpt>
      <trkpt lat="46.77001" lon="-0.55281">
        <ele>192.21</ele>
        <time>2024-06-25T09:53:26.751Z</time>
      </trkpt>
      <trkpt lat="46.77001" lon="-0.55288">
        <ele>192.07</ele>
        <time>2024-06-25T09:53:38.078Z</time>
      </trkpt>
      <trkpt lat="46.77" lon="-0.55295">
        <ele>191.93</ele>
        <time>2024-06-25T09:53:49.406Z</time>
      </trkpt>
      <trkpt lat="46.76999" lon="-0.55303">
        <ele>191.78</ele>
        <time>2024-06-25T09:54:00.736Z</time>
      </trkpt>
      <trkpt lat="46.76996" lon="-0.5531">
        <ele>191.64</ele>
        <time>2024-06-25T09:54:12.067Z</time>
      </trkpt>
      <trkpt lat="46.76992" lon="-0.55315">
        <ele>191.49</ele>
        <time>2024-06-25T09:54:23.399Z</time>
      </trkpt>
      <trkpt lat="46.76986" lon="-0.5532">
        <ele>191.33</ele>
        <time>2024-06-25T09:54:34.732Z</time>
      </trkpt>
      <trkpt lat="46.76981" lon="-0.55322">
        <ele>191.19</ele>
        <time>2024-06-25T09:54:46.066Z</time>
      </trkpt>
      <trkpt lat="46.76976" lon="-0.55323">
        <ele>191.03</ele>
        <time>2024-06-25T09:54:57.401Z</time>
      </trkpt>
      <trkpt lat="46.76972" lon="-0.55324">
        <ele>190.88</ele>
        <time>2024-06-25T09:55:08.737Z</time>
      </trkpt>
      <trkpt lat="46.76967" lon="-0.55325">
        <ele>190.72</ele>
        <time>2024-06-25T09:55:20.074Z</time>
      </trkpt>
      <trkpt lat="46.76962" lon="-0.55327">
        <ele>190.56</ele>
        <time>2024-06-25T09:55:31.412Z</time>
      </trkpt>
      <trkpt lat="46.76957" lon="-0.55328">
        <ele>190.39</ele>
        <time>2024-06-25T09:55:42.751Z</time>
      </trkpt>
      <trkpt lat="46.76951" lon="-0.5533">
        <ele>190.23</ele>
        <time>2024-06-25T09:55:54.091Z</time>
      </trkpt>
      <trkpt lat="46.76946" lon="-0.5533">
        <ele>190.06</ele>
        <time>2024-06-25T09:56:05.432Z</time>
      </trkpt>
      <trkpt lat="46.76941" lon="-0.55331">
        <ele>189.9</ele>
        <time>2024-06-25T09:56:16.774Z</time>
      </trkpt>
      <trkpt lat="46.76935" lon="-0.55333">
        <ele>189.73</ele>
        <time>2024-06-25T09:56:28.117Z</time>
      </trkpt>
      <trkpt lat="46.76931" lon="-0.55335">
        <ele>189.56</ele>
        <time>2024-06-25T09:56:39.461Z</time>
      </trkpt>
      <trkpt lat="46.76926" lon="-0.55338">
        <ele>189.39</ele>
        <time>2024-06-25T09:56:50.806Z</time>
      </trkpt>
      <trkpt lat="46.76922" lon="-0.55341">
        <ele>189.23</ele>
        <time>2024-06-25T09:57:02.152Z</time>
      </trkpt>
      <trkpt lat="46.76916" lon="-0.55345">
        <ele>189.06</ele>
        <time>2024-06-25T09:57:13.500Z</time>
      </trkpt>
      <trkpt lat="46.76912" lon="-0.55349">
        <ele>188.89</ele>
        <time>2024-06-25T09:57:24.849Z</time>
      </trkpt>
      <trkpt lat="46.76908" lon="-0.55353">
        <ele>188.73</ele>
        <time>2024-06-25T09:57:36.199Z</time>
      </trkpt>
      <trkpt lat="46.76904" lon="-0.55359">
        <ele>188.56</ele>
        <time>2024-06-25T09:57:47.550Z</time>
      </trkpt>
      <trkpt lat="46.76901" lon="-0.55365">
        <ele>188.38</ele>
        <time>2024-06-25T09:57:58.902Z</time>
      </trkpt>
      <trkpt lat="46.76898" lon="-0.55372">
        <ele>188.21</ele>
        <time>2024-06-25T09:58:10.255Z</time>
      </trkpt>
      <trkpt lat="46.76895" lon="-0.55378">
        <ele>188.03</ele>
        <time>2024-06-25T09:58:21.609Z</time>
      </trkpt>
      <trkpt lat="46.76892" lon="-0.55384">
        <ele>187.85</ele>
        <time>2024-06-25T09:58:32.964Z</time>
      </trkpt>
      <trkpt lat="46.76889" lon="-0.55391">
        <ele>187.67</ele>
        <time>2024-06-25T09:58:44.320Z</time>
      </trkpt>
      <trkpt lat="46.76885" lon="-0.55397">
        <ele>187.49</ele>
        <time>2024-06-25T09:58:55.677Z</time>
      </trkpt>
      <trkpt lat="46.76882" lon="-0.55404">
        <ele>187.3</ele>
        <time>2024-06-25T09:59:07.035Z</time>
      </trkpt>
      <trkpt lat="46.76878" lon="-0.55409">
        <ele>187.12</ele>
        <time>2024-06-25T09:59:18.394Z</time>
      </trkpt>
      <trkpt lat="46.76874" lon="-0.55416">
        <ele>186.94</ele>
        <time>2024-06-25T09:59:29.755Z</time>
      </trkpt>
      <trkpt lat="46.7687" lon="-0.55423">
        <ele>186.77</ele>
        <time>2024-06-25T09:59:41.117Z</time>
      </trkpt>
      <trkpt lat="46.76866" lon="-0.55429">
        <ele>186.6</ele>
        <time>2024-06-25T09:59:52.480Z</time>
      </trkpt>
      <trkpt lat="46.76861" lon="-0.55435">
        <ele>186.43</ele>
        <time>2024-06-25T10:00:03.844Z</time>
      </trkpt>
      <trkpt lat="46.76856" lon="-0.55441">
        <ele>186.26</ele>
        <time>2024-06-25T10:00:15.210Z</time>
      </trkpt>
      <trkpt lat="46.76851" lon="-0.55445">
        <ele>186.1</ele>
        <time>2024-06-25T10:00:26.577Z</time>
      </trkpt>
      <trkpt lat="46.76846" lon="-0.55449">
        <ele>185.93</ele>
        <time>2024-06-25T10:00:37.945Z</time>
      </trkpt>
      <trkpt lat="46.76843" lon="-0.55453">
        <ele>185.77</ele>
        <time>2024-06-25T10:00:49.314Z</time>
      </trkpt>
      <trkpt lat="46.7684" lon="-0.55456">
        <ele>185.6</ele>
        <time>2024-06-25T10:01:00.683Z</time>
      </trkpt>
      <trkpt lat="46.76837" lon="-0.55457">
        <ele>185.45</ele>
        <time>2024-06-25T10:01:12.053Z</time>
      </trkpt>
      <trkpt lat="46.76834" lon="-0.55459">
        <ele>185.29</ele>
        <time>2024-06-25T10:01:23.424Z</time>
      </trkpt>
      <trkpt lat="46.76832" lon="-0.5546">
        <ele>185.14</ele>
        <time>2024-06-25T10:01:34.795Z</time>
      </trkpt>
      <trkpt lat="46.76831" lon="-0.55461">
        <ele>184.99</ele>
        <time>2024-06-25T10:01:46.166Z</time>
      </trkpt>
      <trkpt lat="46.7683" lon="-0.55461">
        <ele>184.84</ele>
        <time>2024-06-25T10:01:57.538Z</time>
      </trkpt>
      <trkpt lat="46.76829" lon="-0.55461">
        <ele>184.7</ele>
        <time>2024-06-25T10:02:08.910Z</time>
      </trkpt>
      <trkpt lat="46.76829" lon="-0.55462">
        <ele>184.56</ele>
        <time>2024-06-25T10:02:20.282Z</time>
      </trkpt>
      <trkpt lat="46.76807" lon="-0.5548">
        <ele>184.39</ele>
        <time>2024-06-25T10:02:31.659Z</time>
      </trkpt>
      <trkpt lat="46.76806" lon="-0.55481">
        <ele>184.26</ele>
        <time>2024-06-25T10:02:43.036Z</time>
      </trkpt>
      <trkpt lat="46.76804" lon="-0.55483">
        <ele>184.12</ele>
        <time>2024-06-25T10:02:54.414Z</time>
      </trkpt>
      <trkpt lat="46.76802" lon="-0.55485">
        <ele>184</ele>
        <time>2024-06-25T10:03:05.792Z</time>
      </trkpt>
      <trkpt lat="46.768" lon="-0.55487">
        <ele>183.87</ele>
        <time>2024-06-25T10:03:17.171Z</time>
      </trkpt>
      <trkpt lat="46.76798" lon="-0.5549">
        <ele>183.75</ele>
        <time>2024-06-25T10:03:28.550Z</time>
      </trkpt>
      <trkpt lat="46.76795" lon="-0.55492">
        <ele>183.63</ele>
        <time>2024-06-25T10:03:39.930Z</time>
      </trkpt>
      <trkpt lat="46.76793" lon="-0.55495">
        <ele>183.51</ele>
        <time>2024-06-25T10:03:51.310Z</time>
      </trkpt>
      <trkpt lat="46.7679" lon="-0.55497">
        <ele>183.41</ele>
        <time>2024-06-25T10:04:02.691Z</time>
      </trkpt>
      <trkpt lat="46.76787" lon="-0.555">
        <ele>183.3</ele>
        <time>2024-06-25T10:04:14.073Z</time>
      </trkpt>
      <trkpt lat="46.76784" lon="-0.55502">
        <ele>183.2</ele>
        <time>2024-06-25T10:04:25.455Z</time>
      </trkpt>
      <trkpt lat="46.76782" lon="-0.55503">
        <ele>183.12</ele>
        <time>2024-06-25T10:04:36.838Z</time>
      </trkpt>
      <trkpt lat="46.7678" lon="-0.55505">
        <ele>183.03</ele>
        <time>2024-06-25T10:04:48.221Z</time>
      </trkpt>
      <trkpt lat="46.76777" lon="-0.55508">
        <ele>182.95</ele>
        <time>2024-06-25T10:04:59.605Z</time>
      </trkpt>
      <trkpt lat="46.76774" lon="-0.5551">
        <ele>182.88</ele>
        <time>2024-06-25T10:05:10.990Z</time>
      </trkpt>
      <trkpt lat="46.76771" lon="-0.55512">
        <ele>182.81</ele>
        <time>2024-06-25T10:05:22.375Z</time>
      </trkpt>
      <trkpt lat="46.76769" lon="-0.55514">
        <ele>182.75</ele>
        <time>2024-06-25T10:05:33.761Z</time>
      </trkpt>
      <trkpt lat="46.76766" lon="-0.55518">
        <ele>182.69</ele>
        <time>2024-06-25T10:05:45.148Z</time>
      </trkpt>
      <trkpt lat="46.76763" lon="-0.55521">
        <ele>182.64</ele>
        <time>2024-06-25T10:05:56.535Z</time>
      </trkpt>
      <trkpt lat="46.7676" lon="-0.55524">
        <ele>182.6</ele>
        <time>2024-06-25T10:06:07.923Z</time>
      </trkpt>
      <trkpt lat="46.76756" lon="-0.55528">
        <ele>182.56</ele>
        <time>2024-06-25T10:06:19.312Z</time>
      </trkpt>
      <trkpt lat="46.76752" lon="-0.55531">
        <ele>182.53</ele>
        <time>2024-06-25T10:06:30.702Z</time>
      </trkpt>
      <trkpt lat="46.76747" lon="-0.55534">
        <ele>182.51</ele>
        <time>2024-06-25T10:06:42.093Z</time>
      </trkpt>
      <trkpt lat="46.76743" lon="-0.55537">
        <ele>182.49</ele>
        <time>2024-06-25T10:06:53.485Z</time>
      </trkpt>
      <trkpt lat="46.76739" lon="-0.5554">
        <ele>182.48</ele>
        <time>2024-06-25T10:07:04.878Z</time>
      </trkpt>
      <trkpt lat="46.76736" lon="-0.55543">
        <ele>182.47</ele>
        <time>2024-06-25T10:07:16.272Z</time>
      </trkpt>
      <trkpt lat="46.76732" lon="-0.55547">
        <ele>182.47</ele>
        <time>2024-06-25T10:07:27.666Z</time>
      </trkpt>
      <trkpt lat="46.76729" lon="-0.55549">
        <ele>182.47</ele>
        <time>2024-06-25T10:07:39.061Z</time>
      </trkpt>
      <trkpt lat="46.76727" lon="-0.55552">
        <ele>182.48</ele>
        <time>2024-06-25T10:07:50.457Z</time>
      </trkpt>
      <trkpt lat="46.76725" lon="-0.55555">
        <ele>182.5</ele>
        <time>2024-06-25T10:08:01.853Z</time>
      </trkpt>
      <trkpt lat="46.76723" lon="-0.55558">
        <ele>182.51</ele>
        <time>2024-06-25T10:08:13.250Z</time>
      </trkpt>
      <trkpt lat="46.76721" lon="-0.55561">
        <ele>182.54</ele>
        <time>2024-06-25T10:08:24.647Z</time>
      </trkpt>
      <trkpt lat="46.76719" lon="-0.55563">
        <ele>182.57</ele>
        <time>2024-06-25T10:08:36.045Z</time>
      </trkpt>
      <trkpt lat="46.76718" lon="-0.55565">
        <ele>182.6</ele>
        <time>2024-06-25T10:08:47.443Z</time>
      </trkpt>
      <trkpt lat="46.76717" lon="-0.55567">
        <ele>182.64</ele>
        <time>2024-06-25T10:08:58.842Z</time>
      </trkpt>
      <trkpt lat="46.76716" lon="-0.55569">
        <ele>182.68</ele>
        <time>2024-06-25T10:09:10.241Z</time>
      </trkpt>
      <trkpt lat="46.76714" lon="-0.55571">
        <ele>182.73</ele>
        <time>2024-06-25T10:09:21.640Z</time>
      </trkpt>
      <trkpt lat="46.76713" lon="-0.55572">
        <ele>182.77</ele>
        <time>2024-06-25T10:09:33.040Z</time>
      </trkpt>
      <trkpt lat="46.76712" lon="-0.55573">
        <ele>182.83</ele>
        <time>2024-06-25T10:09:44.440Z</time>
      </trkpt>
      <trkpt lat="46.76711" lon="-0.55575">
        <ele>182.88</ele>
        <time>2024-06-25T10:09:55.840Z</time>
      </trkpt>
      <trkpt lat="46.7671" lon="-0.55576">
        <ele>182.94</ele>
        <time>2024-06-25T10:10:07.241Z</time>
      </trkpt>
      <trkpt lat="46.76709" lon="-0.55578">
        <ele>183.01</ele>
        <time>2024-06-25T10:10:18.642Z</time>
      </trkpt>
      <trkpt lat="46.76708" lon="-0.5558">
        <ele>183.07</ele>
        <time>2024-06-25T10:10:30.043Z</time>
      </trkpt>
      <trkpt lat="46.76707" lon="-0.55582">
        <ele>183.14</ele>
        <time>2024-06-25T10:10:41.444Z</time>
      </trkpt>
      <trkpt lat="46.76706" lon="-0.55584">
        <ele>183.21</ele>
        <time>2024-06-25T10:10:52.846Z</time>
      </trkpt>
      <trkpt lat="46.76705" lon="-0.55586">
        <ele>183.29</ele>
        <time>2024-06-25T10:11:04.248Z</time>
      </trkpt>
      <trkpt lat="46.76704" lon="-0.55588">
        <ele>183.36</ele>
        <time>2024-06-25T10:11:15.651Z</time>
      </trkpt>
      <trkpt lat="46.76703" lon="-0.5559">
        <ele>183.44</ele>
        <time>2024-06-25T10:11:27.054Z</time>
      </trkpt>
      <trkpt lat="46.76702" lon="-0.55592">
        <ele>183.52</ele>
        <time>2024-06-25T10:11:38.457Z</time>
      </trkpt>
      <trkpt lat="46.76701" lon="-0.55594">
        <ele>183.61</ele>
        <time>2024-06-25T10:11:49.861Z</time>
      </trkpt>
      <trkpt lat="46.76701" lon="-0.55597">
        <ele>183.69</ele>
        <time>2024-06-25T10:12:01.265Z</time>
      </trkpt>
      <trkpt lat="46.767" lon="-0.55599">
        <ele>183.78</ele>
        <time>2024-06-25T10:12:12.669Z</time>
      </trkpt>
      <trkpt lat="46.76698" lon="-0.55601">
        <ele>183.87</ele>
        <time>2024-06-25T10:12:24.074Z</time>
      </trkpt>
      <trkpt lat="46.76697" lon="-0.55603">
        <ele>183.96</ele>
        <time>2024-06-25T10:12:35.479Z</time>
      </trkpt>
      <trkpt lat="46.76696" lon="-0.55605">
        <ele>184.05</ele>
        <time>2024-06-25T10:12:46.884Z</time>
      </trkpt>
      <trkpt lat="46.76695" lon="-0.55607">
        <ele>184.14</ele>
        <time>2024-06-25T10:12:58.290Z</time>
      </trkpt>
      <trkpt lat="46.76694" lon="-0.55608">
        <ele>184.24</ele>
        <time>2024-06-25T10:13:09.696Z</time>
      </trkpt>
      <trkpt lat="46.76693" lon="-0.5561">
        <ele>184.33</ele>
        <time>2024-06-25T10:13:21.102Z</time>
      </trkpt>
      <trkpt lat="46.76692" lon="-0.55613">
        <ele>184.43</ele>
        <time>2024-06-25T10:13:32.509Z</time>
      </trkpt>
      <trkpt lat="46.76691" lon="-0.55615">
        <ele>184.53</ele>
        <time>2024-06-25T10:13:43.916Z</time>
      </trkpt>
      <trkpt lat="46.76689" lon="-0.55617">
        <ele>184.63</ele>
        <time>2024-06-25T10:13:55.323Z</time>
      </trkpt>
      <trkpt lat="46.76688" lon="-0.5562">
        <ele>184.73</ele>
        <time>2024-06-25T10:14:06.731Z</time>
      </trkpt>
      <trkpt lat="46.76688" lon="-0.55623">
        <ele>184.83</ele>
        <time>2024-06-25T10:14:18.139Z</time>
      </trkpt>
      <trkpt lat="46.76686" lon="-0.55625">
        <ele>184.93</ele>
        <time>2024-06-25T10:14:29.548Z</time>
      </trkpt>
      <trkpt lat="46.76686" lon="-0.55628">
        <ele>185.03</ele>
        <time>2024-06-25T10:14:40.957Z</time>
      </trkpt>
      <trkpt lat="46.76685" lon="-0.5563">
        <ele>185.14</ele>
        <time>2024-06-25T10:14:52.366Z</time>
      </trkpt>
      <trkpt lat="46.76684" lon="-0.55632">
        <ele>185.24</ele>
        <time>2024-06-25T10:15:03.776Z</time>
      </trkpt>
      <trkpt lat="46.76684" lon="-0.55635">
        <ele>185.34</ele>
        <time>2024-06-25T10:15:15.186Z</time>
      </trkpt>
      <trkpt lat="46.76683" lon="-0.55639">
        <ele>185.44</ele>
        <time>2024-06-25T10:15:26.597Z</time>
      </trkpt>
      <trkpt lat="46.76682" lon="-0.55641">
        <ele>185.55</ele>
        <time>2024-06-25T10:15:38.008Z</time>
      </trkpt>
      <trkpt lat="46.76681" lon="-0.55644">
        <ele>185.65</ele>
        <time>2024-06-25T10:15:49.420Z</time>
      </trkpt>
      <trkpt lat="46.7668" lon="-0.55648">
        <ele>185.75</ele>
        <time>2024-06-25T10:16:00.832Z</time>
      </trkpt>
      <trkpt lat="46.7668" lon="-0.5565">
        <ele>185.85</ele>
        <time>2024-06-25T10:16:12.244Z</time>
      </trkpt>
      <trkpt lat="46.76679" lon="-0.55653">
        <ele>185.96</ele>
        <time>2024-06-25T10:16:23.657Z</time>
      </trkpt>
      <trkpt lat="46.76678" lon="-0.55655">
        <ele>186.06</ele>
        <time>2024-06-25T10:16:35.070Z</time>
      </trkpt>
      <trkpt lat="46.76678" lon="-0.55658">
        <ele>186.16</ele>
        <time>2024-06-25T10:16:46.484Z</time>
      </trkpt>
      <trkpt lat="46.76677" lon="-0.5566">
        <ele>186.26</ele>
        <time>2024-06-25T10:16:57.898Z</time>
      </trkpt>
      <trkpt lat="46.76676" lon="-0.55663">
        <ele>186.36</ele>
        <time>2024-06-25T10:17:09.312Z</time>
      </trkpt>
      <trkpt lat="46.76675" lon="-0.55666">
        <ele>186.46</ele>
        <time>2024-06-25T10:17:20.727Z</time>
      </trkpt>
      <trkpt lat="46.76674" lon="-0.55668">
        <ele>186.56</ele>
        <time>2024-06-25T10:17:32.142Z</time>
      </trkpt>
      <trkpt lat="46.76673" lon="-0.5567">
        <ele>186.66</ele>
        <time>2024-06-25T10:17:43.558Z</time>
      </trkpt>
      <trkpt lat="46.76673" lon="-0.55673">
        <ele>186.76</ele>
        <time>2024-06-25T10:17:54.974Z</time>
      </trkpt>
      <trkpt lat="46.76672" lon="-0.55676">
        <ele>186.86</ele>
        <time>2024-06-25T10:18:06.390Z</time>
      </trkpt>
      <trkpt lat="46.76671" lon="-0.55678">
        <ele>186.96</ele>
        <time>2024-06-25T10:18:17.807Z</time>
      </trkpt>
      <trkpt lat="46.7667" lon="-0.55681">
        <ele>187.06</ele>
        <time>2024-06-25T10:18:29.224Z</time>
      </trkpt>
      <trkpt lat="46.76669" lon="-0.55684">
        <ele>187.16</ele>
        <time>2024-06-25T10:18:40.642Z</time>
      </trkpt>
      <trkpt lat="46.76668" lon="-0.55687">
        <ele>187.26</ele>
        <time>2024-06-25T10:18:52.060Z</time>
      </trkpt>
      <trkpt lat="46.76667" lon="-0.5569">
        <ele>187.36</ele>
        <time>2024-06-25T10:19:03.478Z</time>
      </trkpt>
      <trkpt lat="46.76667" lon="-0.55692">
        <ele>187.45</ele>
        <time>2024-06-25T10:19:14.897Z</time>
      </trkpt>
      <trkpt lat="46.76666" lon="-0.55695">
        <ele>187.55</ele>
        <time>2024-06-25T10:19:26.316Z</time>
      </trkpt>
      <trkpt lat="46.76666" lon="-0.55698">
        <ele>187.65</ele>
        <time>2024-06-25T10:19:37.736Z</time>
      </trkpt>
      <trkpt lat="46.76665" lon="-0.55701">
        <ele>187.75</ele>
        <time>2024-06-25T10:19:49.156Z</time>
      </trkpt>
      <trkpt lat="46.76664" lon="-0.55704">
        <ele>187.84</ele>
        <time>2024-06-25T10:20:00.577Z</time>
      </trkpt>
      <trkpt lat="46.76663" lon="-0.55707">
        <ele>187.94</ele>
        <time>2024-06-25T10:20:11.998Z</time>
      </trkpt>
      <trkpt lat="46.76662" lon="-0.5571">
        <ele>188.04</ele>
        <time>2024-06-25T10:20:23.419Z</time>
      </trkpt>
      <trkpt lat="46.76661" lon="-0.55713">
        <ele>188.14</ele>
        <time>2024-06-25T10:20:34.841Z</time>
      </trkpt>
      <trkpt lat="46.7666" lon="-0.55717">
        <ele>188.24</ele>
        <time>2024-06-25T10:20:46.263Z</time>
      </trkpt>
      <trkpt lat="46.7666" lon="-0.5572">
        <ele>188.34</ele>
        <time>2024-06-25T10:20:57.686Z</time>
      </trkpt>
      <trkpt lat="46.76659" lon="-0.55723">
        <ele>188.44</ele>
        <time>2024-06-25T10:21:09.109Z</time>
      </trkpt>
      <trkpt lat="46.76658" lon="-0.55726">
        <ele>188.54</ele>
        <time>2024-06-25T10:21:20.533Z</time>
      </trkpt>
      <trkpt lat="46.76658" lon="-0.55731">
        <ele>188.64</ele>
        <time>2024-06-25T10:21:31.957Z</time>
      </trkpt>
      <trkpt lat="46.76658" lon="-0.55736">
        <ele>188.75</ele>
        <time>2024-06-25T10:21:43.382Z</time>
      </trkpt>
      <trkpt lat="46.76657" lon="-0.5574">
        <ele>188.85</ele>
        <time>2024-06-25T10:21:54.808Z</time>
      </trkpt>
      <trkpt lat="46.76655" lon="-0.55744">
        <ele>188.96</ele>
        <time>2024-06-25T10:22:06.234Z</time>
      </trkpt>
      <trkpt lat="46.76654" lon="-0.55747">
        <ele>189.07</ele>
        <time>2024-06-25T10:22:17.661Z</time>
      </trkpt>
      <trkpt lat="46.76652" lon="-0.5575">
        <ele>189.18</ele>
        <time>2024-06-25T10:22:29.088Z</time>
      </trkpt>
      <trkpt lat="46.76648" lon="-0.55752">
        <ele>189.3</ele>
        <time>2024-06-25T10:22:40.516Z</time>
      </trkpt>
      <trkpt lat="46.76645" lon="-0.55753">
        <ele>189.42</ele>
        <time>2024-06-25T10:22:51.945Z</time>
      </trkpt>
      <trkpt lat="46.76642" lon="-0.55754">
        <ele>189.54</ele>
        <time>2024-06-25T10:23:03.374Z</time>
      </trkpt>
      <trkpt lat="46.76639" lon="-0.55755">
        <ele>189.67</ele>
        <time>2024-06-25T10:23:14.804Z</time>
      </trkpt>
      <trkpt lat="46.76636" lon="-0.55755">
        <ele>189.8</ele>
        <time>2024-06-25T10:23:26.235Z</time>
      </trkpt>
      <trkpt lat="46.76633" lon="-0.55755">
        <ele>189.93</ele>
        <time>2024-06-25T10:23:37.666Z</time>
      </trkpt>
      <trkpt lat="46.76629" lon="-0.55755">
        <ele>190.07</ele>
        <time>2024-06-25T10:23:49.098Z</time>
      </trkpt>
      <trkpt lat="46.76626" lon="-0.55755">
        <ele>190.21</ele>
        <time>2024-06-25T10:24:00.531Z</time>
      </trkpt>
      <trkpt lat="46.76623" lon="-0.55756">
        <ele>190.35</ele>
        <time>2024-06-25T10:24:11.964Z</time>
      </trkpt>
      <trkpt lat="46.7662" lon="-0.55756">
        <ele>190.5</ele>
        <time>2024-06-25T10:24:23.398Z</time>
      </trkpt>
      <trkpt lat="46.76616" lon="-0.55757">
        <ele>190.64</ele>
        <time>2024-06-25T10:24:34.833Z</time>
      </trkpt>
      <trkpt lat="46.76613" lon="-0.55757">
        <ele>190.8</ele>
        <time>2024-06-25T10:24:46.268Z</time>
      </trkpt>
      <trkpt lat="46.7661" lon="-0.55757">
        <ele>190.95</ele>
        <time>2024-06-25T10:24:57.704Z</time>
      </trkpt>
      <trkpt lat="46.76606" lon="-0.55757">
        <ele>191.11</ele>
        <time>2024-06-25T10:25:09.141Z</time>
      </trkpt>
      <trkpt lat="46.76603" lon="-0.55757">
        <ele>191.27</ele>
        <time>2024-06-25T10:25:20.578Z</time>
      </trkpt>
      <trkpt lat="46.766" lon="-0.55756">
        <ele>191.44</ele>
        <time>2024-06-25T10:25:32.016Z</time>
      </trkpt>
      <trkpt lat="46.76596" lon="-0.55755">
        <ele>191.61</ele>
        <time>2024-06-25T10:25:43.455Z</time>
      </trkpt>
      <trkpt lat="46.76593" lon="-0.55755">
        <ele>191.78</ele>
        <time>2024-06-25T10:25:54.894Z</time>
      </trkpt>
      <trkpt lat="46.7659" lon="-0.55754">
        <ele>191.96</ele>
        <time>2024-06-25T10:26:06.334Z</time>
      </trkpt>
      <trkpt lat="46.76587" lon="-0.55754">
        <ele>192.14</ele>
        <time>2024-06-25T10:26:17.775Z</time>
      </trkpt>
      <trkpt lat="46.76584" lon="-0.55752">
        <ele>192.33</ele>
        <time>2024-06-25T10:26:29.216Z</time>
      </trkpt>
      <trkpt lat="46.76581" lon="-0.55751">
        <ele>192.51</ele>
        <time>2024-06-25T10:26:40.658Z</time>
      </trkpt>
      <trkpt lat="46.76578" lon="-0.5575">
        <ele>192.7</ele>
        <time>2024-06-25T10:26:52.100Z</time>
      </trkpt>
      <trkpt lat="46.76575" lon="-0.55749">
        <ele>192.9</ele>
        <time>2024-06-25T10:27:03.543Z</time>
      </trkpt>
      <trkpt lat="46.76572" lon="-0.55748">
        <ele>193.09</ele>
        <time>2024-06-25T10:27:14.987Z</time>
      </trkpt>
      <trkpt lat="46.76569" lon="-0.55747">
        <ele>193.29</ele>
        <time>2024-06-25T10:27:26.431Z</time>
      </trkpt>
      <trkpt lat="46.76567" lon="-0.55746">
        <ele>193.49</ele>
        <time>2024-06-25T10:27:37.876Z</time>
      </trkpt>
      <trkpt lat="46.76565" lon="-0.55744">
        <ele>193.7</ele>
        <time>2024-06-25T10:27:49.321Z</time>
      </trkpt>
      <trkpt lat="46.76562" lon="-0.55743">
        <ele>193.91</ele>
        <time>2024-06-25T10:28:00.767Z</time>
      </trkpt>
      <trkpt lat="46.7656" lon="-0.55742">
        <ele>194.12</ele>
        <time>2024-06-25T10:28:12.213Z</time>
      </trkpt>
      <trkpt lat="46.76558" lon="-0.5574">
        <ele>194.33</ele>
        <time>2024-06-25T10:28:23.660Z</time>
      </trkpt>
      <trkpt lat="46.76555" lon="-0.55739">
        <ele>194.55</ele>
        <time>2024-06-25T10:28:35.107Z</time>
      </trkpt>
      <trkpt lat="46.76552" lon="-0.55737">
        <ele>194.76</ele>
        <time>2024-06-25T10:28:46.555Z</time>
      </trkpt>
      <trkpt lat="46.7655" lon="-0.55735">
        <ele>194.98</ele>
        <time>2024-06-25T10:28:58.003Z</time>
      </trkpt>
      <trkpt lat="46.76549" lon="-0.55734">
        <ele>195.2</ele>
        <time>2024-06-25T10:29:09.452Z</time>
      </trkpt>
      <trkpt lat="46.76546" lon="-0.55732">
        <ele>195.42</ele>
        <time>2024-06-25T10:29:20.901Z</time>
      </trkpt>
      <trkpt lat="46.76544" lon="-0.55731">
        <ele>195.64</ele>
        <time>2024-06-25T10:29:32.351Z</time>
      </trkpt>
      <trkpt lat="46.76542" lon="-0.55729">
        <ele>195.86</ele>
        <time>2024-06-25T10:29:43.801Z</time>
      </trkpt>
      <trkpt lat="46.7654" lon="-0.55727">
        <ele>196.08</ele>
        <time>2024-06-25T10:29:55.252Z</time>
      </trkpt>
      <trkpt lat="46.76538" lon="-0.55725">
        <ele>196.3</ele>
        <time>2024-06-25T10:30:06.703Z</time>
      </trkpt>
      <trkpt lat="46.76536" lon="-0.55723">
        <ele>196.52</ele>
        <time>2024-06-25T10:30:18.155Z</time>
      </trkpt>
      <trkpt lat="46.76534" lon="-0.55722">
        <ele>196.73</ele>
        <time>2024-06-25T10:30:29.607Z</time>
      </trkpt>
      <trkpt lat="46.76532" lon="-0.5572">
        <ele>196.95</ele>
        <time>2024-06-25T10:30:41.060Z</time>
      </trkpt>
      <trkpt lat="46.7653" lon="-0.55718">
        <ele>197.17</ele>
        <time>2024-06-25T10:30:52.513Z</time>
      </trkpt>
      <trkpt lat="46.76528" lon="-0.55716">
        <ele>197.38</ele>
        <time>2024-06-25T10:31:03.966Z</time>
      </trkpt>
      <trkpt lat="46.76527" lon="-0.55714">
        <ele>197.6</ele>
        <time>2024-06-25T10:31:15.420Z</time>
      </trkpt>
      <trkpt lat="46.76525" lon="-0.55712">
        <ele>197.81</ele>
        <time>2024-06-25T10:31:26.874Z</time>
      </trkpt>
      <trkpt lat="46.76523" lon="-0.5571">
        <ele>198.02</ele>
        <time>2024-06-25T10:31:38.329Z</time>
      </trkpt>
      <trkpt lat="46.76521" lon="-0.55708">
        <ele>198.23</ele>
        <time>2024-06-25T10:31:49.784Z</time>
      </trkpt>
      <trkpt lat="46.76518" lon="-0.55707">
        <ele>198.44</ele>
        <time>2024-06-25T10:32:01.240Z</time>
      </trkpt>
      <trkpt lat="46.76516" lon="-0.55705">
        <ele>198.65</ele>
        <time>2024-06-25T10:32:12.696Z</time>
      </trkpt>
      <trkpt lat="46.76514" lon="-0.55705">
        <ele>198.86</ele>
        <time>2024-06-25T10:32:24.153Z</time>
      </trkpt>
      <trkpt lat="46.76512" lon="-0.55704">
        <ele>199.06</ele>
        <time>2024-06-25T10:32:35.610Z</time>
      </trkpt>
      <trkpt lat="46.7651" lon="-0.55704">
        <ele>199.27</ele>
        <time>2024-06-25T10:32:47.068Z</time>
      </trkpt>
      <trkpt lat="46.76508" lon="-0.55703">
        <ele>199.47</ele>
        <time>2024-06-25T10:32:58.526Z</time>
      </trkpt>
      <trkpt lat="46.76506" lon="-0.55703">
        <ele>199.67</ele>
        <time>2024-06-25T10:33:09.984Z</time>
      </trkpt>
      <trkpt lat="46.76505" lon="-0.55703">
        <ele>199.87</ele>
        <time>2024-06-25T10:33:21.443Z</time>
      </trkpt>
      <trkpt lat="46.76502" lon="-0.55703">
        <ele>200.06</ele>
        <time>2024-06-25T10:33:32.902Z</time>
      </trkpt>
      <trkpt lat="46.765" lon="-0.55702">
        <ele>200.26</ele>
        <time>2024-06-25T10:33:44.362Z</time>
      </trkpt>
      <trkpt lat="46.76498" lon="-0.55702">
        <ele>200.45</ele>
        <time>2024-06-25T10:33:55.822Z</time>
      </trkpt>
      <trkpt lat="46.76497" lon="-0.55701">
        <ele>200.65</ele>
        <time>2024-06-25T10:34:07.282Z</time>
      </trkpt>
      <trkpt lat="46.76495" lon="-0.55699">
        <ele>200.84</ele>
        <time>2024-06-25T10:34:18.743Z</time>
      </trkpt>
      <trkpt lat="46.76493" lon="-0.55697">
        <ele>201.03</ele>
        <time>2024-06-25T10:34:30.204Z</time>
      </trkpt>
      <trkpt lat="46.76491" lon="-0.55696">
        <ele>201.22</ele>
        <time>2024-06-25T10:34:41.666Z</time>
      </trkpt>
      <trkpt lat="46.76489" lon="-0.55694">
        <ele>201.41</ele>
        <time>2024-06-25T10:34:53.128Z</time>
      </trkpt>
      <trkpt lat="46.76488" lon="-0.55692">
        <ele>201.59</ele>
        <time>2024-06-25T10:35:04.590Z</time>
      </trkpt>
      <trkpt lat="46.76487" lon="-0.5569">
        <ele>201.77</ele>
        <time>2024-06-25T10:35:16.053Z</time>
      </trkpt>
      <trkpt lat="46.76486" lon="-0.55688">
        <ele>201.96</ele>
        <time>2024-06-25T10:35:27.516Z</time>
      </trkpt>
      <trkpt lat="46.76484" lon="-0.55685">
        <ele>202.14</ele>
        <time>2024-06-25T10:35:38.980Z</time>
      </trkpt>
      <trkpt lat="46.76483" lon="-0.55683">
        <ele>202.32</ele>
        <time>2024-06-25T10:35:50.444Z</time>
      </trkpt>
      <trkpt lat="46.76482" lon="-0.5568">
        <ele>202.5</ele>
        <time>2024-06-25T10:36:01.908Z</time>
      </trkpt>
      <trkpt lat="46.76481" lon="-0.55677">
        <ele>202.68</ele>
        <time>2024-06-25T10:36:13.373Z</time>
      </trkpt>
      <trkpt lat="46.76479" lon="-0.55673">
        <ele>202.86</ele>
        <time>2024-06-25T10:36:24.839Z</time>
      </trkpt>
      <trkpt lat="46.76479" lon="-0.5567">
        <ele>203.03</ele>
        <time>2024-06-25T10:36:36.305Z</time>
      </trkpt>
      <trkpt lat="46.76477" lon="-0.55667">
        <ele>203.2</ele>
        <time>2024-06-25T10:36:47.772Z</time>
      </trkpt>
      <trkpt lat="46.76477" lon="-0.55663">
        <ele>203.37</ele>
        <time>2024-06-25T10:36:59.239Z</time>
      </trkpt>
      <trkpt lat="46.76476" lon="-0.55659">
        <ele>203.54</ele>
        <time>2024-06-25T10:37:10.707Z</time>
      </trkpt>
      <trkpt lat="46.76474" lon="-0.55656">
        <ele>203.71</ele>
        <time>2024-06-25T10:37:22.175Z</time>
      </trkpt>
      <trkpt lat="46.76474" lon="-0.55652">
        <ele>203.87</ele>
        <time>2024-06-25T10:37:33.644Z</time>
      </trkpt>
      <trkpt lat="46.76472" lon="-0.55648">
        <ele>204.03</ele>
        <time>2024-06-25T10:37:45.113Z</time>
      </trkpt>
      <trkpt lat="46.76471" lon="-0.55644">
        <ele>204.2</ele>
        <time>2024-06-25T10:37:56.583Z</time>
      </trkpt>
      <trkpt lat="46.7647" lon="-0.55639">
        <ele>204.36</ele>
        <time>2024-06-25T10:38:08.054Z</time>
      </trkpt>
      <trkpt lat="46.76468" lon="-0.55635">
        <ele>204.52</ele>
        <time>2024-06-25T10:38:19.525Z</time>
      </trkpt>
      <trkpt lat="46.76466" lon="-0.5563">
        <ele>204.67</ele>
        <time>2024-06-25T10:38:30.997Z</time>
      </trkpt>
      <trkpt lat="46.76464" lon="-0.55627">
        <ele>204.83</ele>
        <time>2024-06-25T10:38:42.470Z</time>
      </trkpt>
      <trkpt lat="46.76462" lon="-0.55623">
        <ele>204.99</ele>
        <time>2024-06-25T10:38:53.943Z</time>
      </trkpt>
      <trkpt lat="46.76459" lon="-0.55619">
        <ele>205.15</ele>
        <time>2024-06-25T10:39:05.417Z</time>
      </trkpt>
      <trkpt lat="46.76456" lon="-0.55615">
        <ele>205.31</ele>
        <time>2024-06-25T10:39:16.892Z</time>
      </trkpt>
      <trkpt lat="46.76453" lon="-0.55611">
        <ele>205.47</ele>
        <time>2024-06-25T10:39:28.368Z</time>
      </trkpt>
      <trkpt lat="46.76451" lon="-0.55608">
        <ele>205.62</ele>
        <time>2024-06-25T10:39:39.844Z</time>
      </trkpt>
      <trkpt lat="46.76448" lon="-0.55605">
        <ele>205.77</ele>
        <time>2024-06-25T10:39:51.321Z</time>
      </trkpt>
      <trkpt lat="46.76445" lon="-0.55602">
        <ele>205.92</ele>
        <time>2024-06-25T10:40:02.799Z</time>
      </trkpt>
      <trkpt lat="46.76442" lon="-0.55599">
        <ele>206.07</ele>
        <time>2024-06-25T10:40:14.278Z</time>
      </trkpt>
      <trkpt lat="46.76438" lon="-0.55596">
        <ele>206.22</ele>
        <time>2024-06-25T10:40:25.757Z</time>
      </trkpt>
      <trkpt lat="46.76435" lon="-0.55592">
        <ele>206.37</ele>
        <time>2024-06-25T10:40:37.237Z</time>
      </trkpt>
      <trkpt lat="46.76432" lon="-0.55589">
        <ele>206.52</ele>
        <time>2024-06-25T10:40:48.718Z</time>
      </trkpt>
      <trkpt lat="46.76429" lon="-0.55586">
        <ele>206.67</ele>
        <time>2024-06-25T10:41:00.200Z</time>
      </trkpt>
      <trkpt lat="46.76426" lon="-0.55583">
        <ele>206.82</ele>
        <time>2024-06-25T10:41:11.682Z</time>
      </trkpt>
      <trkpt lat="46.76422" lon="-0.5558">
        <ele>206.96</ele>
        <time>2024-06-25T10:41:23.165Z</time>
      </trkpt>
      <trkpt lat="46.76419" lon="-0.55577">
        <ele>207.11</ele>
        <time>2024-06-25T10:41:34.649Z</time>
      </trkpt>
      <trkpt lat="46.76416" lon="-0.55575">
        <ele>207.25</ele>
        <time>2024-06-25T10:41:46.134Z</time>
      </trkpt>
      <trkpt lat="46.76412" lon="-0.55573">
        <ele>207.4</ele>
        <time>2024-06-25T10:41:57.620Z</time>
      </trkpt>
      <trkpt lat="46.76408" lon="-0.55572">
        <ele>207.54</ele>
        <time>2024-06-25T10:42:09.106Z</time>
      </trkpt>
      <trkpt lat="46.76406" lon="-0.55572">
        <ele>207.69</ele>
        <time>2024-06-25T10:42:20.593Z</time>
      </trkpt>
      <trkpt lat="46.76403" lon="-0.55573">
        <ele>207.83</ele>
        <time>2024-06-25T10:42:32.080Z</time>
      </trkpt>
      <trkpt lat="46.764" lon="-0.55573">
        <ele>207.97</ele>
        <time>2024-06-25T10:42:43.568Z</time>
      </trkpt>
      <trkpt lat="46.76398" lon="-0.55572">
        <ele>208.11</ele>
        <time>2024-06-25T10:42:55.056Z</time>
      </trkpt>
      <trkpt lat="46.76397" lon="-0.5557">
        <ele>208.24</ele>
        <time>2024-06-25T10:43:06.545Z</time>
      </trkpt>
      <trkpt lat="46.76395" lon="-0.55568">
        <ele>208.38</ele>
        <time>2024-06-25T10:43:18.034Z</time>
      </trkpt>
      <trkpt lat="46.76394" lon="-0.55565">
        <ele>208.51</ele>
        <time>2024-06-25T10:43:29.524Z</time>
      </trkpt>
      <trkpt lat="46.76392" lon="-0.55563">
        <ele>208.64</ele>
        <time>2024-06-25T10:43:41.014Z</time>
      </trkpt>
      <trkpt lat="46.76391" lon="-0.55559">
        <ele>208.77</ele>
        <time>2024-06-25T10:43:52.505Z</time>
      </trkpt>
      <trkpt lat="46.7639" lon="-0.55556">
        <ele>208.9</ele>
        <time>2024-06-25T10:44:03.996Z</time>
      </trkpt>
      <trkpt lat="46.76389" lon="-0.55552">
        <ele>209.02</ele>
        <time>2024-06-25T10:44:15.488Z</time>
      </trkpt>
      <trkpt lat="46.76388" lon="-0.55548">
        <ele>209.15</ele>
        <time>2024-06-25T10:44:26.980Z</time>
      </trkpt>
      <trkpt lat="46.76387" lon="-0.55545">
        <ele>209.27</ele>
        <time>2024-06-25T10:44:38.473Z</time>
      </trkpt>
      <trkpt lat="46.76386" lon="-0.55542">
        <ele>209.39</ele>
        <time>2024-06-25T10:44:49.966Z</time>
      </trkpt>
      <trkpt lat="46.76385" lon="-0.55538">
        <ele>209.51</ele>
        <time>2024-06-25T10:45:01.460Z</time>
      </trkpt>
      <trkpt lat="46.76384" lon="-0.55534">
        <ele>209.63</ele>
        <time>2024-06-25T10:45:12.954Z</time>
      </trkpt>
      <trkpt lat="46.76383" lon="-0.5553">
        <ele>209.74</ele>
        <time>2024-06-25T10:45:24.449Z</time>
      </trkpt>
      <trkpt lat="46.76382" lon="-0.55526">
        <ele>209.86</ele>
        <time>2024-06-25T10:45:35.944Z</time>
      </trkpt>
      <trkpt lat="46.76382" lon="-0.55523">
        <ele>209.97</ele>
        <time>2024-06-25T10:45:47.440Z</time>
      </trkpt>
      <trkpt lat="46.76382" lon="-0.55519">
        <ele>210.08</ele>
        <time>2024-06-25T10:45:58.937Z</time>
      </trkpt>
      <trkpt lat="46.76381" lon="-0.55515">
        <ele>210.19</ele>
        <time>2024-06-25T10:46:10.434Z</time>
      </trkpt>
      <trkpt lat="46.7638" lon="-0.55511">
        <ele>210.29</ele>
        <time>2024-06-25T10:46:21.932Z</time>
      </trkpt>
      <trkpt lat="46.7638" lon="-0.55506">
        <ele>210.4</ele>
        <time>2024-06-25T10:46:33.430Z</time>
      </trkpt>
      <trkpt lat="46.76379" lon="-0.55503">
        <ele>210.5</ele>
        <time>2024-06-25T10:46:44.929Z</time>
      </trkpt>
      <trkpt lat="46.76378" lon="-0.55498">
        <ele>210.61</ele>
        <time>2024-06-25T10:46:56.428Z</time>
      </trkpt>
      <trkpt lat="46.76378" lon="-0.55494">
        <ele>210.71</ele>
        <time>2024-06-25T10:47:07.928Z</time>
      </trkpt>
      <trkpt lat="46.76377" lon="-0.5549">
        <ele>210.81</ele>
        <time>2024-06-25T10:47:19.429Z</time>
      </trkpt>
      <trkpt lat="46.76376" lon="-0.55486">
        <ele>210.9</ele>
        <time>2024-06-25T10:47:30.930Z</time>
      </trkpt>
      <trkpt lat="46.76375" lon="-0.55482">
        <ele>211</ele>
        <time>2024-06-25T10:47:42.432Z</time>
      </trkpt>
      <trkpt lat="46.76375" lon="-0.55478">
        <ele>211.09</ele>
        <time>2024-06-25T10:47:53.934Z</time>
      </trkpt>
      <trkpt lat="46.76374" lon="-0.55474">
        <ele>211.18</ele>
        <time>2024-06-25T10:48:05.437Z</time>
      </trkpt>
      <trkpt lat="46.76374" lon="-0.5547">
        <ele>211.27</ele>
        <time>2024-06-25T10:48:16.940Z</time>
      </trkpt>
      <trkpt lat="46.76373" lon="-0.55466">
        <ele>211.36</ele>
        <time>2024-06-25T10:48:28.444Z</time>
      </trkpt>
      <trkpt lat="46.76373" lon="-0.55462">
        <ele>211.44</ele>
        <time>2024-06-25T10:48:39.949Z</time>
      </trkpt>
      <trkpt lat="46.76372" lon="-0.55458">
        <ele>211.53</ele>
        <time>2024-06-25T10:48:51.454Z</time>
      </trkpt>
      <trkpt lat="46.76371" lon="-0.55457">
        <ele>211.61</ele>
        <time>2024-06-25T10:49:02.959Z</time>
      </trkpt>
      <trkpt lat="46.76369" lon="-0.55456">
        <ele>211.69</ele>
        <time>2024-06-25T10:49:14.465Z</time>
      </trkpt>
      <trkpt lat="46.76366" lon="-0.55455">
        <ele>211.76</ele>
        <time>2024-06-25T10:49:25.971Z</time>
      </trkpt>
      <trkpt lat="46.76364" lon="-0.55454">
        <ele>211.84</ele>
        <time>2024-06-25T10:49:37.478Z</time>
      </trkpt>
      <trkpt lat="46.76361" lon="-0.55453">
        <ele>211.91</ele>
        <time>2024-06-25T10:49:48.985Z</time>
      </trkpt>
      <trkpt lat="46.76358" lon="-0.55452">
        <ele>211.98</ele>
        <time>2024-06-25T10:50:00.493Z</time>
      </trkpt>
      <trkpt lat="46.76356" lon="-0.5545">
        <ele>212.04</ele>
        <time>2024-06-25T10:50:12.002Z</time>
      </trkpt>
      <trkpt lat="46.76353" lon="-0.55448">
        <ele>212.1</ele>
        <time>2024-06-25T10:50:23.511Z</time>
      </trkpt>
      <trkpt lat="46.76351" lon="-0.55448">
        <ele>212.16</ele>
        <time>2024-06-25T10:50:35.021Z</time>
      </trkpt>
      <trkpt lat="46.76349" lon="-0.55447">
        <ele>212.21</ele>
        <time>2024-06-25T10:50:46.531Z</time>
      </trkpt>
      <trkpt lat="46.76346" lon="-0.55446">
        <ele>212.27</ele>
        <time>2024-06-25T10:50:58.042Z</time>
      </trkpt>
      <trkpt lat="46.76344" lon="-0.55446">
        <ele>212.31</ele>
        <time>2024-06-25T10:51:09.553Z</time>
      </trkpt>
      <trkpt lat="46.76342" lon="-0.55447">
        <ele>212.36</ele>
        <time>2024-06-25T10:51:21.064Z</time>
      </trkpt>
      <trkpt lat="46.7634" lon="-0.55447">
        <ele>212.4</ele>
        <time>2024-06-25T10:51:32.576Z</time>
      </trkpt>
      <trkpt lat="46.76338" lon="-0.55449">
        <ele>212.44</ele>
        <time>2024-06-25T10:51:44.088Z</time>
      </trkpt>
      <trkpt lat="46.76336" lon="-0.55452">
        <ele>212.47</ele>
        <time>2024-06-25T10:51:55.601Z</time>
      </trkpt>
      <trkpt lat="46.76335" lon="-0.55454">
        <ele>212.5</ele>
        <time>2024-06-25T10:52:07.114Z</time>
      </trkpt>
      <trkpt lat="46.76333" lon="-0.55457">
        <ele>212.53</ele>
        <time>2024-06-25T10:52:18.628Z</time>
      </trkpt>
      <trkpt lat="46.76331" lon="-0.55459">
        <ele>212.55</ele>
        <time>2024-06-25T10:52:30.142Z</time>
      </trkpt>
      <trkpt lat="46.7633" lon="-0.55462">
        <ele>212.57</ele>
        <time>2024-06-25T10:52:41.657Z</time>
      </trkpt>
      <trkpt lat="46.76328" lon="-0.55465">
        <ele>212.59</ele>
        <time>2024-06-25T10:52:53.172Z</time>
      </trkpt>
      <trkpt lat="46.76326" lon="-0.55468">
        <ele>212.6</ele>
        <time>2024-06-25T10:53:04.688Z</time>
      </trkpt>
      <trkpt lat="46.76324" lon="-0.55471">
        <ele>212.61</ele>
        <time>2024-06-25T10:53:16.204Z</time>
      </trkpt>
      <trkpt lat="46.76322" lon="-0.55474">
        <ele>212.62</ele>
        <time>2024-06-25T10:53:27.721Z</time>
      </trkpt>
      <trkpt lat="46.7632" lon="-0.55477">
        <ele>212.62</ele>
        <time>2024-06-25T10:53:39.239Z</time>
      </trkpt>
      <trkpt lat="46.76318" lon="-0.55481">
        <ele>212.61</ele>
        <time>2024-06-25T10:53:50.757Z</time>
      </trkpt>
      <trkpt lat="46.76317" lon="-0.55484">
        <ele>212.61</ele>
        <time>2024-06-25T10:54:02.276Z</time>
      </trkpt>
      <trkpt lat="46.76315" lon="-0.55487">
        <ele>212.6</ele>
        <time>2024-06-25T10:54:13.795Z</time>
      </trkpt>
      <trkpt lat="46.76313" lon="-0.5549">
        <ele>212.59</ele>
        <time>2024-06-25T10:54:25.315Z</time>
      </trkpt>
      <trkpt lat="46.76311" lon="-0.55493">
        <ele>212.57</ele>
        <time>2024-06-25T10:54:36.835Z</time>
      </trkpt>
      <trkpt lat="46.76309" lon="-0.55495">
        <ele>212.55</ele>
        <time>2024-06-25T10:54:48.356Z</time>
      </trkpt>
      <trkpt lat="46.76308" lon="-0.55498">
        <ele>212.53</ele>
        <time>2024-06-25T10:54:59.877Z</time>
      </trkpt>
      <trkpt lat="46.76306" lon="-0.55501">
        <ele>212.5</ele>
        <time>2024-06-25T10:55:11.399Z</time>
      </trkpt>
      <trkpt lat="46.76304" lon="-0.55505">
        <ele>212.48</ele>
        <time>2024-06-25T10:55:22.921Z</time>
      </trkpt>
      <trkpt lat="46.76302" lon="-0.55508">
        <ele>212.45</ele>
        <time>2024-06-25T10:55:34.444Z</time>
      </trkpt>
      <trkpt lat="46.763" lon="-0.55511">
        <ele>212.42</ele>
        <time>2024-06-25T10:55:45.968Z</time>
      </trkpt>
      <trkpt lat="46.76299" lon="-0.55514">
        <ele>212.39</ele>
        <time>2024-06-25T10:55:57.492Z</time>
      </trkpt>
      <trkpt lat="46.76297" lon="-0.55518">
        <ele>212.35</ele>
        <time>2024-06-25T10:56:09.017Z</time>
      </trkpt>
      <trkpt lat="46.76295" lon="-0.5552">
        <ele>212.31</ele>
        <time>2024-06-25T10:56:20.542Z</time>
      </trkpt>
      <trkpt lat="46.76293" lon="-0.55522">
        <ele>212.27</ele>
        <time>2024-06-25T10:56:32.068Z</time>
      </trkpt>
      <trkpt lat="46.76292" lon="-0.55526">
        <ele>212.22</ele>
        <time>2024-06-25T10:56:43.594Z</time>
      </trkpt>
      <trkpt lat="46.76289" lon="-0.55529">
        <ele>212.17</ele>
        <time>2024-06-25T10:56:55.121Z</time>
      </trkpt>
      <trkpt lat="46.76287" lon="-0.55532">
        <ele>212.12</ele>
        <time>2024-06-25T10:57:06.649Z</time>
      </trkpt>
      <trkpt lat="46.76285" lon="-0.55536">
        <ele>212.07</ele>
        <time>2024-06-25T10:57:18.177Z</time>
      </trkpt>
      <trkpt lat="46.76283" lon="-0.5554">
        <ele>212.01</ele>
        <time>2024-06-25T10:57:29.706Z</time>
      </trkpt>
      <trkpt lat="46.76281" lon="-0.55543">
        <ele>211.95</ele>
        <time>2024-06-25T10:57:41.236Z</time>
      </trkpt>
      <trkpt lat="46.76279" lon="-0.55547">
        <ele>211.89</ele>
        <time>2024-06-25T10:57:52.766Z</time>
      </trkpt>
      <trkpt lat="46.76275" lon="-0.55551">
        <ele>211.82</ele>
        <time>2024-06-25T10:58:04.297Z</time>
      </trkpt>
      <trkpt lat="46.76272" lon="-0.55555">
        <ele>211.76</ele>
        <time>2024-06-25T10:58:15.829Z</time>
      </trkpt>
      <trkpt lat="46.7627" lon="-0.55559">
        <ele>211.69</ele>
        <time>2024-06-25T10:58:27.362Z</time>
      </trkpt>
      <trkpt lat="46.76267" lon="-0.55563">
        <ele>211.61</ele>
        <time>2024-06-25T10:58:38.895Z</time>
      </trkpt>
      <trkpt lat="46.76264" lon="-0.55566">
        <ele>211.53</ele>
        <time>2024-06-25T10:58:50.429Z</time>
      </trkpt>
      <trkpt lat="46.76261" lon="-0.5557">
        <ele>211.45</ele>
        <time>2024-06-25T10:59:01.964Z</time>
      </trkpt>
      <trkpt lat="46.76258" lon="-0.55573">
        <ele>211.37</ele>
        <time>2024-06-25T10:59:13.500Z</time>
      </trkpt>
      <trkpt lat="46.76255" lon="-0.55578">
        <ele>211.28</ele>
        <time>2024-06-25T10:59:25.037Z</time>
      </trkpt>
      <trkpt lat="46.76252" lon="-0.55582">
        <ele>211.19</ele>
        <time>2024-06-25T10:59:36.574Z</time>
      </trkpt>
      <trkpt lat="46.76249" lon="-0.55586">
        <ele>211.09</ele>
        <time>2024-06-25T10:59:48.112Z</time>
      </trkpt>
      <trkpt lat="46.76246" lon="-0.55591">
        <ele>210.99</ele>
        <time>2024-06-25T10:59:59.651Z</time>
      </trkpt>
      <trkpt lat="46.76243" lon="-0.55595">
        <ele>210.89</ele>
        <time>2024-06-25T11:00:11.191Z</time>
      </trkpt>
      <trkpt lat="46.76241" lon="-0.55599">
        <ele>210.79</ele>
        <time>2024-06-25T11:00:22.732Z</time>
      </trkpt>
      <trkpt lat="46.76238" lon="-0.55602">
        <ele>210.69</ele>
        <time>2024-06-25T11:00:34.274Z</time>
      </trkpt>
      <trkpt lat="46.76235" lon="-0.55606">
        <ele>210.58</ele>
        <time>2024-06-25T11:00:45.816Z</time>
      </trkpt>
      <trkpt lat="46.76232" lon="-0.55609">
        <ele>210.47</ele>
        <time>2024-06-25T11:00:57.359Z</time>
      </trkpt>
      <trkpt lat="46.76229" lon="-0.55613">
        <ele>210.37</ele>
        <time>2024-06-25T11:01:08.903Z</time>
      </trkpt>
      <trkpt lat="46.76227" lon="-0.55616">
        <ele>210.25</ele>
        <time>2024-06-25T11:01:20.447Z</time>
      </trkpt>
      <trkpt lat="46.76223" lon="-0.5562">
        <ele>210.14</ele>
        <time>2024-06-25T11:01:31.992Z</time>
      </trkpt>
      <trkpt lat="46.7622" lon="-0.55623">
        <ele>210.03</ele>
        <time>2024-06-25T11:01:43.538Z</time>
      </trkpt>
      <trkpt lat="46.76219" lon="-0.55625">
        <ele>209.91</ele>
        <time>2024-06-25T11:01:55.084Z</time>
      </trkpt>
      <trkpt lat="46.76219" lon="-0.5563">
        <ele>209.79</ele>
        <time>2024-06-25T11:02:06.631Z</time>
      </trkpt>
      <trkpt lat="46.7622" lon="-0.55634">
        <ele>209.67</ele>
        <time>2024-06-25T11:02:18.179Z</time>
      </trkpt>
      <trkpt lat="46.76222" lon="-0.55638">
        <ele>209.55</ele>
        <time>2024-06-25T11:02:29.727Z</time>
      </trkpt>
      <trkpt lat="46.76225" lon="-0.55644">
        <ele>209.43</ele>
        <time>2024-06-25T11:02:41.276Z</time>
      </trkpt>
      <trkpt lat="46.76227" lon="-0.55649">
        <ele>209.3</ele>
        <time>2024-06-25T11:02:52.826Z</time>
      </trkpt>
      <trkpt lat="46.7623" lon="-0.55655">
        <ele>209.16</ele>
        <time>2024-06-25T11:03:04.377Z</time>
      </trkpt>
      <trkpt lat="46.76233" lon="-0.55661">
        <ele>209.03</ele>
        <time>2024-06-25T11:03:15.929Z</time>
      </trkpt>
      <trkpt lat="46.76236" lon="-0.55667">
        <ele>208.9</ele>
        <time>2024-06-25T11:03:27.482Z</time>
      </trkpt>
      <trkpt lat="46.76238" lon="-0.55672">
        <ele>208.78</ele>
        <time>2024-06-25T11:03:39.036Z</time>
      </trkpt>
      <trkpt lat="46.76241" lon="-0.55678">
        <ele>208.65</ele>
        <time>2024-06-25T11:03:50.591Z</time>
      </trkpt>
      <trkpt lat="46.76245" lon="-0.55685">
        <ele>208.52</ele>
        <time>2024-06-25T11:04:02.147Z</time>
      </trkpt>
      <trkpt lat="46.76248" lon="-0.55692">
        <ele>208.39</ele>
        <time>2024-06-25T11:04:13.704Z</time>
      </trkpt>
      <trkpt lat="46.76251" lon="-0.55698">
        <ele>208.26</ele>
        <time>2024-06-25T11:04:25.263Z</time>
      </trkpt>
      <trkpt lat="46.76254" lon="-0.55705">
        <ele>208.13</ele>
        <time>2024-06-25T11:04:36.823Z</time>
      </trkpt>
      <trkpt lat="46.76258" lon="-0.55713">
        <ele>208</ele>
        <time>2024-06-25T11:04:48.384Z</time>
      </trkpt>
      <trkpt lat="46.76261" lon="-0.5572">
        <ele>207.88</ele>
        <time>2024-06-25T11:04:59.946Z</time>
      </trkpt>
      <trkpt lat="46.76265" lon="-0.55726">
        <ele>207.76</ele>
        <time>2024-06-25T11:05:11.509Z</time>
      </trkpt>
      <trkpt lat="46.76268" lon="-0.55732">
        <ele>207.64</ele>
        <time>2024-06-25T11:05:23.073Z</time>
      </trkpt>
      <trkpt lat="46.76272" lon="-0.55739">
        <ele>207.51</ele>
        <time>2024-06-25T11:05:34.639Z</time>
      </trkpt>
      <trkpt lat="46.76275" lon="-0.55746">
        <ele>207.39</ele>
        <time>2024-06-25T11:05:46.206Z</time>
      </trkpt>
      <trkpt lat="46.76279" lon="-0.55752">
        <ele>207.26</ele>
        <time>2024-06-25T11:05:57.774Z</time>
      </trkpt>
      <trkpt lat="46.76282" lon="-0.55759">
        <ele>207.14</ele>
        <time>2024-06-25T11:06:09.343Z</time>
      </trkpt>
      <trkpt lat="46.76286" lon="-0.55765">
        <ele>207.01</ele>
        <time>2024-06-25T11:06:20.913Z</time>
      </trkpt>
      <trkpt lat="46.76288" lon="-0.55771">
        <ele>206.89</ele>
        <time>2024-06-25T11:06:32.484Z</time>
      </trkpt>
      <trkpt lat="46.76291" lon="-0.55777">
        <ele>206.76</ele>
        <time>2024-06-25T11:06:44.056Z</time>
      </trkpt>
      <trkpt lat="46.76292" lon="-0.55784">
        <ele>206.62</ele>
        <time>2024-06-25T11:06:55.629Z</time>
      </trkpt>
      <trkpt lat="46.76292" lon="-0.55792">
        <ele>206.48</ele>
        <time>2024-06-25T11:07:07.203Z</time>
      </trkpt>
      <trkpt lat="46.76291" lon="-0.55799">
        <ele>206.34</ele>
        <time>2024-06-25T11:07:18.778Z</time>
      </trkpt>
      <trkpt lat="46.7629" lon="-0.55806">
        <ele>206.2</ele>
        <time>2024-06-25T11:07:30.354Z</time>
      </trkpt>
      <trkpt lat="46.76289" lon="-0.55814">
        <ele>206.06</ele>
        <time>2024-06-25T11:07:41.931Z</time>
      </trkpt>
      <trkpt lat="46.76289" lon="-0.55821">
        <ele>205.91</ele>
        <time>2024-06-25T11:07:53.509Z</time>
      </trkpt>
      <trkpt lat="46.76289" lon="-0.55828">
        <ele>205.77</ele>
        <time>2024-06-25T11:08:05.088Z</time>
      </trkpt>
      <trkpt lat="46.7629" lon="-0.55835">
        <ele>205.63</ele>
        <time>2024-06-25T11:08:16.668Z</time>
      </trkpt>
      <trkpt lat="46.7629" lon="-0.55842">
        <ele>205.5</ele>
        <time>2024-06-25T11:08:28.249Z</time>
      </trkpt>
      <trkpt lat="46.7629" lon="-0.5585">
        <ele>205.37</ele>
        <time>2024-06-25T11:08:39.831Z</time>
      </trkpt>
      <trkpt lat="46.7629" lon="-0.55858">
        <ele>205.23</ele>
        <time>2024-06-25T11:08:51.414Z</time>
      </trkpt>
      <trkpt lat="46.76291" lon="-0.55866">
        <ele>205.1</ele>
        <time>2024-06-25T11:09:02.998Z</time>
      </trkpt>
      <trkpt lat="46.76291" lon="-0.55873">
        <ele>204.97</ele>
        <time>2024-06-25T11:09:14.583Z</time>
      </trkpt>
      <trkpt lat="46.76291" lon="-0.5588">
        <ele>204.84</ele>
        <time>2024-06-25T11:09:26.169Z</time>
      </trkpt>
      <trkpt lat="46.76292" lon="-0.55887">
        <ele>204.71</ele>
        <time>2024-06-25T11:09:37.756Z</time>
      </trkpt>
      <trkpt lat="46.76293" lon="-0.55894">
        <ele>204.57</ele>
        <time>2024-06-25T11:09:49.344Z</time>
      </trkpt>
      <trkpt lat="46.76294" lon="-0.55901">
        <ele>204.43</ele>
        <time>2024-06-25T11:10:00.933Z</time>
      </trkpt>
      <trkpt lat="46.76296" lon="-0.55908">
        <ele>204.29</ele>
        <time>2024-06-25T11:10:12.523Z</time>
      </trkpt>
      <trkpt lat="46.76297" lon="-0.55915">
        <ele>204.16</ele>
        <time>2024-06-25T11:10:24.114Z</time>
      </trkpt>
      <trkpt lat="46.76298" lon="-0.55922">
        <ele>204.03</ele>
        <time>2024-06-25T11:10:35.706Z</time>
      </trkpt>
      <trkpt lat="46.763" lon="-0.55929">
        <ele>203.89</ele>
        <time>2024-06-25T11:10:47.299Z</time>
      </trkpt>
      <trkpt lat="46.76303" lon="-0.55937">
        <ele>203.74</ele>
        <time>2024-06-25T11:10:58.893Z</time>
      </trkpt>
      <trkpt lat="46.76305" lon="-0.55943">
        <ele>203.6</ele>
        <time>2024-06-25T11:11:10.488Z</time>
      </trkpt>
      <trkpt lat="46.76308" lon="-0.55951">
        <ele>203.45</ele>
        <time>2024-06-25T11:11:22.085Z</time>
      </trkpt>
      <trkpt lat="46.7631" lon="-0.55957">
        <ele>203.3</ele>
        <time>2024-06-25T11:11:33.683Z</time>
      </trkpt>
      <trkpt lat="46.76312" lon="-0.55964">
        <ele>203.15</ele>
        <time>2024-06-25T11:11:45.282Z</time>
      </trkpt>
      <trkpt lat="46.76314" lon="-0.55971">
        <ele>202.99</ele>
        <time>2024-06-25T11:11:56.882Z</time>
      </trkpt>
      <trkpt lat="46.76317" lon="-0.55978">
        <ele>202.83</ele>
        <time>2024-06-25T11:12:08.483Z</time>
      </trkpt>
      <trkpt lat="46.76319" lon="-0.55987">
        <ele>202.66</ele>
        <time>2024-06-25T11:12:20.085Z</time>
      </trkpt>
      <trkpt lat="46.7632" lon="-0.55995">
        <ele>202.49</ele>
        <time>2024-06-25T11:12:31.688Z</time>
      </trkpt>
      <trkpt lat="46.76322" lon="-0.56003">
        <ele>202.32</ele>
        <time>2024-06-25T11:12:43.292Z</time>
      </trkpt>
      <trkpt lat="46.76323" lon="-0.56012">
        <ele>202.14</ele>
        <time>2024-06-25T11:12:54.898Z</time>
      </trkpt>
      <trkpt lat="46.76323" lon="-0.56021">
        <ele>201.96</ele>
        <time>2024-06-25T11:13:06.505Z</time>
      </trkpt>
      <trkpt lat="46.76323" lon="-0.5603">
        <ele>201.78</ele>
        <time>2024-06-25T11:13:18.113Z</time>
      </trkpt>
      <trkpt lat="46.76324" lon="-0.56039">
        <ele>201.61</ele>
        <time>2024-06-25T11:13:29.722Z</time>
      </trkpt>
      <trkpt lat="46.76325" lon="-0.56047">
        <ele>201.43</ele>
        <time>2024-06-25T11:13:41.332Z</time>
      </trkpt>
      <trkpt lat="46.76326" lon="-0.56055">
        <ele>201.25</ele>
        <time>2024-06-25T11:13:52.944Z</time>
      </trkpt>
      <trkpt lat="46.76327" lon="-0.56065">
        <ele>201.07</ele>
        <time>2024-06-25T11:14:04.557Z</time>
      </trkpt>
      <trkpt lat="46.76328" lon="-0.56073">
        <ele>200.89</ele>
        <time>2024-06-25T11:14:16.171Z</time>
      </trkpt>
      <trkpt lat="46.76328" lon="-0.56081">
        <ele>200.7</ele>
        <time>2024-06-25T11:14:27.786Z</time>
      </trkpt>
      <trkpt lat="46.76327" lon="-0.5609">
        <ele>200.52</ele>
        <time>2024-06-25T11:14:39.402Z</time>
      </trkpt>
      <trkpt lat="46.76328" lon="-0.56099">
        <ele>200.32</ele>
        <time>2024-06-25T11:14:51.020Z</time>
      </trkpt>
      <trkpt lat="46.76328" lon="-0.56108">
        <ele>200.13</ele>
        <time>2024-06-25T11:15:02.639Z</time>
      </trkpt>
      <trkpt lat="46.76329" lon="-0.56117">
        <ele>199.94</ele>
        <time>2024-06-25T11:15:14.259Z</time>
      </trkpt>
      <trkpt lat="46.76329" lon="-0.56124">
        <ele>199.74</ele>
        <time>2024-06-25T11:15:25.880Z</time>
      </trkpt>
      <trkpt lat="46.76329" lon="-0.56131">
        <ele>199.54</ele>
        <time>2024-06-25T11:15:37.502Z</time>
      </trkpt>
      <trkpt lat="46.76329" lon="-0.56136">
        <ele>199.35</ele>
        <time>2024-06-25T11:15:49.125Z</time>
      </trkpt>
      <trkpt lat="46.7633" lon="-0.56142">
        <ele>199.15</ele>
        <time>2024-06-25T11:16:00.749Z</time>
      </trkpt>
      <trkpt lat="46.7633" lon="-0.56149">
        <ele>198.95</ele>
        <time>2024-06-25T11:16:12.373Z</time>
      </trkpt>
      <trkpt lat="46.7633" lon="-0.56156">
        <ele>198.74</ele>
        <time>2024-06-25T11:16:23.998Z</time>
      </trkpt>
      <trkpt lat="46.7633" lon="-0.56163">
        <ele>198.54</ele>
        <time>2024-06-25T11:16:35.624Z</time>
      </trkpt>
      <trkpt lat="46.7633" lon="-0.5617">
        <ele>198.33</ele>
        <time>2024-06-25T11:16:47.251Z</time>
      </trkpt>
      <trkpt lat="46.7633" lon="-0.56177">
        <ele>198.13</ele>
        <time>2024-06-25T11:16:58.879Z</time>
      </trkpt>
      <trkpt lat="46.76331" lon="-0.56184">
        <ele>197.93</ele>
        <time>2024-06-25T11:17:10.508Z</time>
      </trkpt>
      <trkpt lat="46.76331" lon="-0.56192">
        <ele>197.73</ele>
        <time>2024-06-25T11:17:22.138Z</time>
      </trkpt>
      <trkpt lat="46.7633" lon="-0.56199">
        <ele>197.53</ele>
        <time>2024-06-25T11:17:33.769Z</time>
      </trkpt>
      <trkpt lat="46.7633" lon="-0.56206">
        <ele>197.34</ele>
        <time>2024-06-25T11:17:45.401Z</time>
      </trkpt>
      <trkpt lat="46.7633" lon="-0.56212">
        <ele>197.14</ele>
        <time>2024-06-25T11:17:57.034Z</time>
      </trkpt>
      <trkpt lat="46.7633" lon="-0.56219">
        <ele>196.94</ele>
        <time>2024-06-25T11:18:08.668Z</time>
      </trkpt>
      <trkpt lat="46.76329" lon="-0.56226">
        <ele>196.75</ele>
        <time>2024-06-25T11:18:20.303Z</time>
      </trkpt>
      <trkpt lat="46.76329" lon="-0.56233">
        <ele>196.55</ele>
        <time>2024-06-25T11:18:31.939Z</time>
      </trkpt>
      <trkpt lat="46.76329" lon="-0.56241">
        <ele>196.36</ele>
        <time>2024-06-25T11:18:43.576Z</time>
      </trkpt>
      <trkpt lat="46.76329" lon="-0.56249">
        <ele>196.16</ele>
        <time>2024-06-25T11:18:55.214Z</time>
      </trkpt>
      <trkpt lat="46.76329" lon="-0.56256">
        <ele>195.97</ele>
        <time>2024-06-25T11:19:06.853Z</time>
      </trkpt>
      <trkpt lat="46.76329" lon="-0.56265">
        <ele>195.79</ele>
        <time>2024-06-25T11:19:18.493Z</time>
      </trkpt>
      <trkpt lat="46.76329" lon="-0.56273">
        <ele>195.6</ele>
        <time>2024-06-25T11:19:30.135Z</time>
      </trkpt>
      <trkpt lat="46.76329" lon="-0.56281">
        <ele>195.41</ele>
        <time>2024-06-25T11:19:41.778Z</time>
      </trkpt>
      <trkpt lat="46.76329" lon="-0.56288">
        <ele>195.22</ele>
        <time>2024-06-25T11:19:53.422Z</time>
      </trkpt>
      <trkpt lat="46.76329" lon="-0.56295">
        <ele>195.02</ele>
        <time>2024-06-25T11:20:05.067Z</time>
      </trkpt>
      <trkpt lat="46.76329" lon="-0.56303">
        <ele>194.83</ele>
        <time>2024-06-25T11:20:16.713Z</time>
      </trkpt>
      <trkpt lat="46.76329" lon="-0.56311">
        <ele>194.64</ele>
        <time>2024-06-25T11:20:28.360Z</time>
      </trkpt>
      <trkpt lat="46.76329" lon="-0.56319">
        <ele>194.45</ele>
        <time>2024-06-25T11:20:40.008Z</time>
      </trkpt>
      <trkpt lat="46.76329" lon="-0.56326">
        <ele>194.27</ele>
        <time>2024-06-25T11:20:51.657Z</time>
      </trkpt>
      <trkpt lat="46.7633" lon="-0.56333">
        <ele>194.09</ele>
        <time>2024-06-25T11:21:03.307Z</time>
      </trkpt>
      <trkpt lat="46.7633" lon="-0.5634">
        <ele>193.9</ele>
        <time>2024-06-25T11:21:14.958Z</time>
      </trkpt>
      <trkpt lat="46.7633" lon="-0.56346">
        <ele>193.72</ele>
        <time>2024-06-25T11:21:26.610Z</time>
      </trkpt>
      <trkpt lat="46.76331" lon="-0.56354">
        <ele>193.54</ele>
        <time>2024-06-25T11:21:38.263Z</time>
      </trkpt>
      <trkpt lat="46.76331" lon="-0.56361">
        <ele>193.37</ele>
        <time>2024-06-25T11:21:49.917Z</time>
      </trkpt>
      <trkpt lat="46.76331" lon="-0.5637">
        <ele>193.18</ele>
        <time>2024-06-25T11:22:01.572Z</time>
      </trkpt>
      <trkpt lat="46.76331" lon="-0.56378">
        <ele>193</ele>
        <time>2024-06-25T11:22:13.228Z</time>
      </trkpt>
      <trkpt lat="46.76331" lon="-0.56386">
        <ele>192.81</ele>
        <time>2024-06-25T11:22:24.885Z</time>
      </trkpt>
      <trkpt lat="46.76331" lon="-0.56394">
        <ele>192.63</ele>
        <time>2024-06-25T11:22:36.543Z</time>
      </trkpt>
      <trkpt lat="46.76331" lon="-0.56402">
        <ele>192.44</ele>
        <time>2024-06-25T11:22:48.202Z</time>
      </trkpt>
      <trkpt lat="46.76331" lon="-0.5641">
        <ele>192.27</ele>
        <time>2024-06-25T11:22:59.862Z</time>
      </trkpt>
      <trkpt lat="46.76331" lon="-0.56418">
        <ele>192.09</ele>
        <time>2024-06-25T11:23:11.524Z</time>
      </trkpt>
      <trkpt lat="46.7633" lon="-0.56425">
        <ele>191.92</ele>
        <time>2024-06-25T11:23:23.187Z</time>
      </trkpt>
      <trkpt lat="46.7633" lon="-0.56433">
        <ele>191.75</ele>
        <time>2024-06-25T11:23:34.851Z</time>
      </trkpt>
      <trkpt lat="46.7633" lon="-0.5644">
        <ele>191.59</ele>
        <time>2024-06-25T11:23:46.516Z</time>
      </trkpt>
      <trkpt lat="46.7633" lon="-0.56448">
        <ele>191.42</ele>
        <time>2024-06-25T11:23:58.182Z</time>
      </trkpt>
      <trkpt lat="46.7633" lon="-0.56456">
        <ele>191.25</ele>
        <time>2024-06-25T11:24:09.849Z</time>
      </trkpt>
      <trkpt lat="46.7633" lon="-0.56464">
        <ele>191.08</ele>
        <time>2024-06-25T11:24:21.517Z</time>
      </trkpt>
      <trkpt lat="46.7633" lon="-0.56473">
        <ele>190.91</ele>
        <time>2024-06-25T11:24:33.186Z</time>
      </trkpt>
      <trkpt lat="46.7633" lon="-0.56481">
        <ele>190.75</ele>
        <time>2024-06-25T11:24:44.856Z</time>
      </trkpt>
      <trkpt lat="46.7633" lon="-0.5649">
        <ele>190.59</ele>
        <time>2024-06-25T11:24:56.527Z</time>
      </trkpt>
      <trkpt lat="46.7633" lon="-0.56498">
        <ele>190.43</ele>
        <time>2024-06-25T11:25:08.200Z</time>
      </trkpt>
      <trkpt lat="46.7633" lon="-0.56506">
        <ele>190.27</ele>
        <time>2024-06-25T11:25:19.874Z</time>
      </trkpt>
      <trkpt lat="46.7633" lon="-0.56514">
        <ele>190.11</ele>
        <time>2024-06-25T11:25:31.549Z</time>
      </trkpt>
      <trkpt lat="46.7633" lon="-0.56522">
        <ele>189.95</ele>
        <time>2024-06-25T11:25:43.225Z</time>
      </trkpt>
      <trkpt lat="46.7633" lon="-0.5653">
        <ele>189.79</ele>
        <time>2024-06-25T11:25:54.902Z</time>
      </trkpt>
      <trkpt lat="46.7633" lon="-0.56539">
        <ele>189.62</ele>
        <time>2024-06-25T11:26:06.580Z</time>
      </trkpt>
      <trkpt lat="46.76331" lon="-0.56547">
        <ele>189.45</ele>
        <time>2024-06-25T11:26:18.259Z</time>
      </trkpt>
      <trkpt lat="46.76332" lon="-0.56555">
        <ele>189.28</ele>
        <time>2024-06-25T11:26:29.939Z</time>
      </trkpt>
      <trkpt lat="46.76334" lon="-0.56564">
        <ele>189.11</ele>
        <time>2024-06-25T11:26:41.621Z</time>
      </trkpt>
      <trkpt lat="46.76335" lon="-0.56573">
        <ele>188.94</ele>
        <time>2024-06-25T11:26:53.304Z</time>
      </trkpt>
      <trkpt lat="46.76335" lon="-0.56581">
        <ele>188.77</ele>
        <time>2024-06-25T11:27:04.988Z</time>
      </trkpt>
      <trkpt lat="46.76336" lon="-0.5659">
        <ele>188.6</ele>
        <time>2024-06-25T11:27:16.673Z</time>
      </trkpt>
      <trkpt lat="46.76337" lon="-0.566">
        <ele>188.43</ele>
        <time>2024-06-25T11:27:28.360Z</time>
      </trkpt>
      <trkpt lat="46.76338" lon="-0.5661">
        <ele>188.26</ele>
        <time>2024-06-25T11:27:40.048Z</time>
      </trkpt>
      <trkpt lat="46.76339" lon="-0.5662">
        <ele>188.09</ele>
        <time>2024-06-25T11:27:51.737Z</time>
      </trkpt>
      <trkpt lat="46.7634" lon="-0.56629">
        <ele>187.92</ele>
        <time>2024-06-25T11:28:03.428Z</time>
      </trkpt>
      <trkpt lat="46.76341" lon="-0.56639">
        <ele>187.75</ele>
        <time>2024-06-25T11:28:15.120Z</time>
      </trkpt>
      <trkpt lat="46.76343" lon="-0.56647">
        <ele>187.58</ele>
        <time>2024-06-25T11:28:26.813Z</time>
      </trkpt>
      <trkpt lat="46.76345" lon="-0.56657">
        <ele>187.4</ele>
        <time>2024-06-25T11:28:38.508Z</time>
      </trkpt>
      <trkpt lat="46.76346" lon="-0.56666">
        <ele>187.23</ele>
        <time>2024-06-25T11:28:50.204Z</time>
      </trkpt>
      <trkpt lat="46.76348" lon="-0.56675">
        <ele>187.05</ele>
        <time>2024-06-25T11:29:01.901Z</time>
      </trkpt>
      <trkpt lat="46.7635" lon="-0.56685">
        <ele>186.87</ele>
        <time>2024-06-25T11:29:13.600Z</time>
      </trkpt>
      <trkpt lat="46.76351" lon="-0.56694">
        <ele>186.69</ele>
        <time>2024-06-25T11:29:25.300Z</time>
      </trkpt>
      <trkpt lat="46.76352" lon="-0.56704">
        <ele>186.5</ele>
        <time>2024-06-25T11:29:37.001Z</time>
      </trkpt>
      <trkpt lat="46.76354" lon="-0.56714">
        <ele>186.31</ele>
        <time>2024-06-25T11:29:48.704Z</time>
      </trkpt>
      <trkpt lat="46.76355" lon="-0.56724">
        <ele>186.12</ele>
        <time>2024-06-25T11:30:00.408Z</time>
      </trkpt>
      <trkpt lat="46.76356" lon="-0.56734">
        <ele>185.93</ele>
        <time>2024-06-25T11:30:12.114Z</time>
      </trkpt>
      <trkpt lat="46.76357" lon="-0.56744">
        <ele>185.73</ele>
        <time>2024-06-25T11:30:23.821Z</time>
      </trkpt>
      <trkpt lat="46.76358" lon="-0.56754">
        <ele>185.53</ele>
        <time>2024-06-25T11:30:35.529Z</time>
      </trkpt>
      <trkpt lat="46.76358" lon="-0.56764">
        <ele>185.32</ele>
        <time>2024-06-25T11:30:47.239Z</time>
      </trkpt>
      <trkpt lat="46.76358" lon="-0.56773">
        <ele>185.12</ele>
        <time>2024-06-25T11:30:58.950Z</time>
      </trkpt>
      <trkpt lat="46.76358" lon="-0.56783">
        <ele>184.92</ele>
        <time>2024-06-25T11:31:10.662Z</time>
      </trkpt>
      <trkpt lat="46.76358" lon="-0.56793">
        <ele>184.71</ele>
        <time>2024-06-25T11:31:22.376Z</time>
      </trkpt>
      <trkpt lat="46.76358" lon="-0.56801">
        <ele>184.49</ele>
        <time>2024-06-25T11:31:34.091Z</time>
      </trkpt>
      <trkpt lat="46.76358" lon="-0.56809">
        <ele>184.28</ele>
        <time>2024-06-25T11:31:45.807Z</time>
      </trkpt>
      <trkpt lat="46.76358" lon="-0.56814">
        <ele>184.06</ele>
        <time>2024-06-25T11:31:57.524Z</time>
      </trkpt>
      <trkpt lat="46.76358" lon="-0.56819">
        <ele>183.84</ele>
        <time>2024-06-25T11:32:09.241Z</time>
      </trkpt>
      <trkpt lat="46.76358" lon="-0.56822">
        <ele>183.62</ele>
        <time>2024-06-25T11:32:20.959Z</time>
      </trkpt>
      <trkpt lat="46.76357" lon="-0.56825">
        <ele>183.39</ele>
        <time>2024-06-25T11:32:32.677Z</time>
      </trkpt>
      <trkpt lat="46.76357" lon="-0.56829">
        <ele>183.17</ele>
        <time>2024-06-25T11:32:44.396Z</time>
      </trkpt>
      <trkpt lat="46.76355" lon="-0.56834">
        <ele>182.93</ele>
        <time>2024-06-25T11:32:56.115Z</time>
      </trkpt>
      <trkpt lat="46.76355" lon="-0.5684">
        <ele>182.7</ele>
        <time>2024-06-25T11:33:07.835Z</time>
      </trkpt>
      <trkpt lat="46.76355" lon="-0.56846">
        <ele>182.46</ele>
        <time>2024-06-25T11:33:19.556Z</time>
      </trkpt>
      <trkpt lat="46.76355" lon="-0.56854">
        <ele>182.22</ele>
        <time>2024-06-25T11:33:31.278Z</time>
      </trkpt>
      <trkpt lat="46.76356" lon="-0.56861">
        <ele>181.97</ele>
        <time>2024-06-25T11:33:43.001Z</time>
      </trkpt>
      <trkpt lat="46.76357" lon="-0.56868">
        <ele>181.72</ele>
        <time>2024-06-25T11:33:54.725Z</time>
      </trkpt>
      <trkpt lat="46.76358" lon="-0.56876">
        <ele>181.46</ele>
        <time>2024-06-25T11:34:06.450Z</time>
      </trkpt>
      <trkpt lat="46.76358" lon="-0.56884">
        <ele>181.21</ele>
        <time>2024-06-25T11:34:18.176Z</time>
      </trkpt>
      <trkpt lat="46.76359" lon="-0.56892">
        <ele>180.95</ele>
        <time>2024-06-25T11:34:29.903Z</time>
      </trkpt>
      <trkpt lat="46.7636" lon="-0.56901">
        <ele>180.68</ele>
        <time>2024-06-25T11:34:41.632Z</time>
      </trkpt>
      <trkpt lat="46.76361" lon="-0.5691">
        <ele>180.4</ele>
        <time>2024-06-25T11:34:53.362Z</time>
      </trkpt>
      <trkpt lat="46.76362" lon="-0.56919">
        <ele>180.12</ele>
        <time>2024-06-25T11:35:05.093Z</time>
      </trkpt>
      <trkpt lat="46.76363" lon="-0.56928">
        <ele>179.85</ele>
        <time>2024-06-25T11:35:16.825Z</time>
      </trkpt>
      <trkpt lat="46.76364" lon="-0.56938">
        <ele>179.57</ele>
        <time>2024-06-25T11:35:28.559Z</time>
      </trkpt>
      <trkpt lat="46.76365" lon="-0.56947">
        <ele>179.29</ele>
        <time>2024-06-25T11:35:40.294Z</time>
      </trkpt>
      <trkpt lat="46.76366" lon="-0.56957">
        <ele>178.99</ele>
        <time>2024-06-25T11:35:52.030Z</time>
      </trkpt>
      <trkpt lat="46.76366" lon="-0.56967">
        <ele>178.7</ele>
        <time>2024-06-25T11:36:03.768Z</time>
      </trkpt>
      <trkpt lat="46.76367" lon="-0.56977">
        <ele>178.4</ele>
        <time>2024-06-25T11:36:15.507Z</time>
      </trkpt>
      <trkpt lat="46.76368" lon="-0.56987">
        <ele>178.09</ele>
        <time>2024-06-25T11:36:27.248Z</time>
      </trkpt>
      <trkpt lat="46.76368" lon="-0.56997">
        <ele>177.79</ele>
        <time>2024-06-25T11:36:38.990Z</time>
      </trkpt>
      <trkpt lat="46.76368" lon="-0.57007">
        <ele>177.47</ele>
        <time>2024-06-25T11:36:50.733Z</time>
      </trkpt>
      <trkpt lat="46.76368" lon="-0.57017">
        <ele>177.14</ele>
        <time>2024-06-25T11:37:02.478Z</time>
      </trkpt>
      <trkpt lat="46.76368" lon="-0.57028">
        <ele>176.81</ele>
        <time>2024-06-25T11:37:14.224Z</time>
      </trkpt>
      <trkpt lat="46.76367" lon="-0.57039">
        <ele>176.5</ele>
        <time>2024-06-25T11:37:25.972Z</time>
      </trkpt>
      <trkpt lat="46.76367" lon="-0.57049">
        <ele>176.18</ele>
        <time>2024-06-25T11:37:37.721Z</time>
      </trkpt>
      <trkpt lat="46.76367" lon="-0.5706">
        <ele>175.87</ele>
        <time>2024-06-25T11:37:49.472Z</time>
      </trkpt>
      <trkpt lat="46.76367" lon="-0.57071">
        <ele>175.56</ele>
        <time>2024-06-25T11:38:01.224Z</time>
      </trkpt>
      <trkpt lat="46.76366" lon="-0.57081">
        <ele>175.24</ele>
        <time>2024-06-25T11:38:12.978Z</time>
      </trkpt>
      <trkpt lat="46.76364" lon="-0.57091">
        <ele>174.93</ele>
        <time>2024-06-25T11:38:24.733Z</time>
      </trkpt>
      <trkpt lat="46.76361" lon="-0.57102">
        <ele>174.63</ele>
        <time>2024-06-25T11:38:36.490Z</time>
      </trkpt>
      <trkpt lat="46.76359" lon="-0.57112">
        <ele>174.33</ele>
        <time>2024-06-25T11:38:48.248Z</time>
      </trkpt>
      <trkpt lat="46.76356" lon="-0.57123">
        <ele>174.02</ele>
        <time>2024-06-25T11:39:00.008Z</time>
      </trkpt>
      <trkpt lat="46.76353" lon="-0.57133">
        <ele>173.72</ele>
        <time>2024-06-25T11:39:11.769Z</time>
      </trkpt>
      <trkpt lat="46.7635" lon="-0.57143">
        <ele>173.41</ele>
        <time>2024-06-25T11:39:23.532Z</time>
      </trkpt>
      <trkpt lat="46.76346" lon="-0.57153">
        <ele>173.12</ele>
        <time>2024-06-25T11:39:35.296Z</time>
      </trkpt>
      <trkpt lat="46.76343" lon="-0.57163">
        <ele>172.82</ele>
        <time>2024-06-25T11:39:47.062Z</time>
      </trkpt>
      <trkpt lat="46.7634" lon="-0.57173">
        <ele>172.53</ele>
        <time>2024-06-25T11:39:58.829Z</time>
      </trkpt>
      <trkpt lat="46.76337" lon="-0.57184">
        <ele>172.24</ele>
        <time>2024-06-25T11:40:10.598Z</time>
      </trkpt>
      <trkpt lat="46.76334" lon="-0.57196">
        <ele>171.95</ele>
        <time>2024-06-25T11:40:22.369Z</time>
      </trkpt>
      <trkpt lat="46.76333" lon="-0.57207">
        <ele>171.66</ele>
        <time>2024-06-25T11:40:34.141Z</time>
      </trkpt>
      <trkpt lat="46.76332" lon="-0.57219">
        <ele>171.37</ele>
        <time>2024-06-25T11:40:45.915Z</time>
      </trkpt>
      <trkpt lat="46.76333" lon="-0.57231">
        <ele>171.08</ele>
        <time>2024-06-25T11:40:57.690Z</time>
      </trkpt>
      <trkpt lat="46.76334" lon="-0.57242">
        <ele>170.81</ele>
        <time>2024-06-25T11:41:09.467Z</time>
      </trkpt>
      <trkpt lat="46.76337" lon="-0.57254">
        <ele>170.54</ele>
        <time>2024-06-25T11:41:21.246Z</time>
      </trkpt>
      <trkpt lat="46.7634" lon="-0.57264">
        <ele>170.26</ele>
        <time>2024-06-25T11:41:33.026Z</time>
      </trkpt>
      <trkpt lat="46.76343" lon="-0.57274">
        <ele>169.99</ele>
        <time>2024-06-25T11:41:44.808Z</time>
      </trkpt>
      <trkpt lat="46.76346" lon="-0.57285">
        <ele>169.73</ele>
        <time>2024-06-25T11:41:56.591Z</time>
      </trkpt>
      <trkpt lat="46.76349" lon="-0.57296">
        <ele>169.47</ele>
        <time>2024-06-25T11:42:08.376Z</time>
      </trkpt>
      <trkpt lat="46.76353" lon="-0.57307">
        <ele>169.23</ele>
        <time>2024-06-25T11:42:20.163Z</time>
      </trkpt>
      <trkpt lat="46.76358" lon="-0.57319">
        <ele>168.98</ele>
        <time>2024-06-25T11:42:31.952Z</time>
      </trkpt>
      <trkpt lat="46.76362" lon="-0.57331">
        <ele>168.74</ele>
        <time>2024-06-25T11:42:43.742Z</time>
      </trkpt>
      <trkpt lat="46.76365" lon="-0.57344">
        <ele>168.51</ele>
        <time>2024-06-25T11:42:55.534Z</time>
      </trkpt>
      <trkpt lat="46.76368" lon="-0.57358">
        <ele>168.29</ele>
        <time>2024-06-25T11:43:07.328Z</time>
      </trkpt>
      <trkpt lat="46.76369" lon="-0.57372">
        <ele>168.08</ele>
        <time>2024-06-25T11:43:19.124Z</time>
      </trkpt>
      <trkpt lat="46.7637" lon="-0.57386">
        <ele>167.88</ele>
        <time>2024-06-25T11:43:30.922Z</time>
      </trkpt>
      <trkpt lat="46.76371" lon="-0.57399">
        <ele>167.69</ele>
        <time>2024-06-25T11:43:42.722Z</time>
      </trkpt>
      <trkpt lat="46.76371" lon="-0.57413">
        <ele>167.51</ele>
        <time>2024-06-25T11:43:54.524Z</time>
      </trkpt>
      <trkpt lat="46.76371" lon="-0.57426">
        <ele>167.34</ele>
        <time>2024-06-25T11:44:06.328Z</time>
      </trkpt>
      <trkpt lat="46.7637" lon="-0.5744">
        <ele>167.2</ele>
        <time>2024-06-25T11:44:18.134Z</time>
      </trkpt>
      <trkpt lat="46.7637" lon="-0.57453">
        <ele>167.06</ele>
        <time>2024-06-25T11:44:29.941Z</time>
      </trkpt>
      <trkpt lat="46.76371" lon="-0.57465">
        <ele>166.94</ele>
        <time>2024-06-25T11:44:41.750Z</time>
      </trkpt>
      <trkpt lat="46.76375" lon="-0.57476">
        <ele>166.83</ele>
        <time>2024-06-25T11:44:53.561Z</time>
      </trkpt>
      <trkpt lat="46.76381" lon="-0.57483">
        <ele>166.71</ele>
        <time>2024-06-25T11:45:05.373Z</time>
      </trkpt>
      <trkpt lat="46.76389" lon="-0.57487">
        <ele>166.61</ele>
        <time>2024-06-25T11:45:17.187Z</time>
      </trkpt>
      <trkpt lat="46.76395" lon="-0.5749">
        <ele>166.51</ele>
        <time>2024-06-25T11:45:29.002Z</time>
      </trkpt>
      <trkpt lat="46.76402" lon="-0.57491">
        <ele>166.44</ele>
        <time>2024-06-25T11:45:40.819Z</time>
      </trkpt>
      <trkpt lat="46.76409" lon="-0.5749">
        <ele>166.37</ele>
        <time>2024-06-25T11:45:52.637Z</time>
      </trkpt>
      <trkpt lat="46.76415" lon="-0.57488">
        <ele>166.31</ele>
        <time>2024-06-25T11:46:04.456Z</time>
      </trkpt>
      <trkpt lat="46.76421" lon="-0.57485">
        <ele>166.27</ele>
        <time>2024-06-25T11:46:16.277Z</time>
      </trkpt>
      <trkpt lat="46.76427" lon="-0.57482">
        <ele>166.23</ele>
        <time>2024-06-25T11:46:28.099Z</time>
      </trkpt>
      <trkpt lat="46.76432" lon="-0.5748">
        <ele>166.21</ele>
        <time>2024-06-25T11:46:39.922Z</time>
      </trkpt>
      <trkpt lat="46.76438" lon="-0.57478">
        <ele>166.19</ele>
        <time>2024-06-25T11:46:51.746Z</time>
      </trkpt>
      <trkpt lat="46.76444" lon="-0.57477">
        <ele>166.18</ele>
        <time>2024-06-25T11:47:03.571Z</time>
      </trkpt>
      <trkpt lat="46.7645" lon="-0.57477">
        <ele>166.19</ele>
        <time>2024-06-25T11:47:15.398Z</time>
      </trkpt>
      <trkpt lat="46.76455" lon="-0.57477">
        <ele>166.21</ele>
        <time>2024-06-25T11:47:27.226Z</time>
      </trkpt>
      <trkpt lat="46.76461" lon="-0.57478">
        <ele>166.24</ele>
        <time>2024-06-25T11:47:39.055Z</time>
      </trkpt>
      <trkpt lat="46.76467" lon="-0.57479">
        <ele>166.27</ele>
        <time>2024-06-25T11:47:50.885Z</time>
      </trkpt>
      <trkpt lat="46.76471" lon="-0.5748">
        <ele>166.32</ele>
        <time>2024-06-25T11:48:02.716Z</time>
      </trkpt>
      <trkpt lat="46.76476" lon="-0.57481">
        <ele>166.37</ele>
        <time>2024-06-25T11:48:14.548Z</time>
      </trkpt>
      <trkpt lat="46.76481" lon="-0.57482">
        <ele>166.44</ele>
        <time>2024-06-25T11:48:26.381Z</time>
      </trkpt>
      <trkpt lat="46.76485" lon="-0.57483">
        <ele>166.51</ele>
        <time>2024-06-25T11:48:38.215Z</time>
      </trkpt>
      <trkpt lat="46.76489" lon="-0.57484">
        <ele>166.59</ele>
        <time>2024-06-25T11:48:50.050Z</time>
      </trkpt>
      <trkpt lat="46.76493" lon="-0.57486">
        <ele>166.68</ele>
        <time>2024-06-25T11:49:01.885Z</time>
      </trkpt>
      <trkpt lat="46.76497" lon="-0.57489">
        <ele>166.77</ele>
        <time>2024-06-25T11:49:13.721Z</time>
      </trkpt>
      <trkpt lat="46.76501" lon="-0.5749">
        <ele>166.87</ele>
        <time>2024-06-25T11:49:25.558Z</time>
      </trkpt>
      <trkpt lat="46.76505" lon="-0.57493">
        <ele>166.98</ele>
        <time>2024-06-25T11:49:37.396Z</time>
      </trkpt>
      <trkpt lat="46.76509" lon="-0.57496">
        <ele>167.09</ele>
        <time>2024-06-25T11:49:49.235Z</time>
      </trkpt>
      <trkpt lat="46.76512" lon="-0.57499">
        <ele>167.22</ele>
        <time>2024-06-25T11:50:01.075Z</time>
      </trkpt>
      <trkpt lat="46.76515" lon="-0.57503">
        <ele>167.35</ele>
        <time>2024-06-25T11:50:12.915Z</time>
      </trkpt>
      <trkpt lat="46.76518" lon="-0.57507">
        <ele>167.48</ele>
        <time>2024-06-25T11:50:24.756Z</time>
      </trkpt>
      <trkpt lat="46.7652" lon="-0.57511">
        <ele>167.62</ele>
        <time>2024-06-25T11:50:36.598Z</time>
      </trkpt>
      <trkpt lat="46.76522" lon="-0.57516">
        <ele>167.76</ele>
        <time>2024-06-25T11:50:48.441Z</time>
      </trkpt>
      <trkpt lat="46.76524" lon="-0.57522">
        <ele>167.9</ele>
        <time>2024-06-25T11:51:00.284Z</time>
      </trkpt>
      <trkpt lat="46.76525" lon="-0.57527">
        <ele>168.05</ele>
        <time>2024-06-25T11:51:12.128Z</time>
      </trkpt>
      <trkpt lat="46.76527" lon="-0.57531">
        <ele>168.2</ele>
        <time>2024-06-25T11:51:23.973Z</time>
      </trkpt>
      <trkpt lat="46.76527" lon="-0.57536">
        <ele>168.35</ele>
        <time>2024-06-25T11:51:35.819Z</time>
      </trkpt>
      <trkpt lat="46.76529" lon="-0.5754">
        <ele>168.5</ele>
        <time>2024-06-25T11:51:47.665Z</time>
      </trkpt>
      <trkpt lat="46.76529" lon="-0.57544">
        <ele>168.65</ele>
        <time>2024-06-25T11:51:59.512Z</time>
      </trkpt>
      <trkpt lat="46.7653" lon="-0.57548">
        <ele>168.81</ele>
        <time>2024-06-25T11:52:11.359Z</time>
      </trkpt>
      <trkpt lat="46.76531" lon="-0.57552">
        <ele>168.96</ele>
        <time>2024-06-25T11:52:23.207Z</time>
      </trkpt>
      <trkpt lat="46.76532" lon="-0.57556">
        <ele>169.12</ele>
        <time>2024-06-25T11:52:35.056Z</time>
      </trkpt>
      <trkpt lat="46.76533" lon="-0.5756">
        <ele>169.28</ele>
        <time>2024-06-25T11:52:46.905Z</time>
      </trkpt>
      <trkpt lat="46.76534" lon="-0.57563">
        <ele>169.44</ele>
        <time>2024-06-25T11:52:58.755Z</time>
      </trkpt>
      <trkpt lat="46.76535" lon="-0.57566">
        <ele>169.6</ele>
        <time>2024-06-25T11:53:10.605Z</time>
      </trkpt>
      <trkpt lat="46.76535" lon="-0.57568">
        <ele>169.76</ele>
        <time>2024-06-25T11:53:22.455Z</time>
      </trkpt>
      <trkpt lat="46.76535" lon="-0.57568">
        <ele>169.91</ele>
        <time>2024-06-25T11:53:34.305Z</time>
      </trkpt>
      <trkpt lat="46.76535" lon="-0.57568">
        <ele>170.07</ele>
        <time>2024-06-25T11:53:46.155Z</time>
      </trkpt>
      <trkpt lat="46.76535" lon="-0.57571">
        <ele>170.23</ele>
        <time>2024-06-25T11:53:58.006Z</time>
      </trkpt>
      <trkpt lat="46.76535" lon="-0.57573">
        <ele>170.39</ele>
        <time>2024-06-25T11:54:09.857Z</time>
      </trkpt>
      <trkpt lat="46.76536" lon="-0.57576">
        <ele>170.55</ele>
        <time>2024-06-25T11:54:21.708Z</time>
      </trkpt>
      <trkpt lat="46.76537" lon="-0.5758">
        <ele>170.71</ele>
        <time>2024-06-25T11:54:33.560Z</time>
      </trkpt>
      <trkpt lat="46.76538" lon="-0.57583">
        <ele>170.87</ele>
        <time>2024-06-25T11:54:45.413Z</time>
      </trkpt>
      <trkpt lat="46.76538" lon="-0.57587">
        <ele>171.02</ele>
        <time>2024-06-25T11:54:57.266Z</time>
      </trkpt>
      <trkpt lat="46.76538" lon="-0.57592">
        <ele>171.17</ele>
        <time>2024-06-25T11:55:09.120Z</time>
      </trkpt>
      <trkpt lat="46.76539" lon="-0.57597">
        <ele>171.32</ele>
        <time>2024-06-25T11:55:20.974Z</time>
      </trkpt>
      <trkpt lat="46.76539" lon="-0.57603">
        <ele>171.47</ele>
        <time>2024-06-25T11:55:32.829Z</time>
      </trkpt>
      <trkpt lat="46.76539" lon="-0.57608">
        <ele>171.62</ele>
        <time>2024-06-25T11:55:44.685Z</time>
      </trkpt>
      <trkpt lat="46.76539" lon="-0.57614">
        <ele>171.77</ele>
        <time>2024-06-25T11:55:56.542Z</time>
      </trkpt>
      <trkpt lat="46.76538" lon="-0.5762">
        <ele>171.93</ele>
        <time>2024-06-25T11:56:08.400Z</time>
      </trkpt>
      <trkpt lat="46.76538" lon="-0.57625">
        <ele>172.09</ele>
        <time>2024-06-25T11:56:20.258Z</time>
      </trkpt>
      <trkpt lat="46.76538" lon="-0.57631">
        <ele>172.24</ele>
        <time>2024-06-25T11:56:32.117Z</time>
      </trkpt>
      <trkpt lat="46.76538" lon="-0.57638">
        <ele>172.4</ele>
        <time>2024-06-25T11:56:43.977Z</time>
      </trkpt>
      <trkpt lat="46.76538" lon="-0.57644">
        <ele>172.55</ele>
        <time>2024-06-25T11:56:55.838Z</time>
      </trkpt>
      <trkpt lat="46.76538" lon="-0.5765">
        <ele>172.7</ele>
        <time>2024-06-25T11:57:07.700Z</time>
      </trkpt>
      <trkpt lat="46.76538" lon="-0.57657">
        <ele>172.85</ele>
        <time>2024-06-25T11:57:19.563Z</time>
      </trkpt>
      <trkpt lat="46.76538" lon="-0.57663">
        <ele>173</ele>
        <time>2024-06-25T11:57:31.426Z</time>
      </trkpt>
      <trkpt lat="46.76538" lon="-0.57669">
        <ele>173.15</ele>
        <time>2024-06-25T11:57:43.290Z</time>
      </trkpt>
      <trkpt lat="46.76538" lon="-0.57676">
        <ele>173.31</ele>
        <time>2024-06-25T11:57:55.155Z</time>
      </trkpt>
      <trkpt lat="46.76539" lon="-0.57683">
        <ele>173.47</ele>
        <time>2024-06-25T11:58:07.021Z</time>
      </trkpt>
      <trkpt lat="46.76539" lon="-0.57689">
        <ele>173.62</ele>
        <time>2024-06-25T11:58:18.888Z</time>
      </trkpt>
      <trkpt lat="46.76539" lon="-0.57696">
        <ele>173.78</ele>
        <time>2024-06-25T11:58:30.756Z</time>
      </trkpt>
      <trkpt lat="46.7654" lon="-0.57704">
        <ele>173.93</ele>
        <time>2024-06-25T11:58:42.625Z</time>
      </trkpt>
      <trkpt lat="46.76541" lon="-0.57711">
        <ele>174.09</ele>
        <time>2024-06-25T11:58:54.495Z</time>
      </trkpt>
      <trkpt lat="46.76541" lon="-0.57718">
        <ele>174.24</ele>
        <time>2024-06-25T11:59:06.366Z</time>
      </trkpt>
      <trkpt lat="46.76542" lon="-0.57725">
        <ele>174.39</ele>
        <time>2024-06-25T11:59:18.238Z</time>
      </trkpt>
      <trkpt lat="46.76543" lon="-0.57732">
        <ele>174.54</ele>
        <time>2024-06-25T11:59:30.111Z</time>
      </trkpt>
      <trkpt lat="46.76543" lon="-0.5774">
        <ele>174.69</ele>
        <time>2024-06-25T11:59:41.985Z</time>
      </trkpt>
      <trkpt lat="46.76544" lon="-0.57747">
        <ele>174.85</ele>
        <time>2024-06-25T11:59:53.860Z</time>
      </trkpt>
      <trkpt lat="46.76545" lon="-0.57755">
        <ele>175.01</ele>
        <time>2024-06-25T12:00:05.736Z</time>
      </trkpt>
      <trkpt lat="46.76546" lon="-0.57762">
        <ele>175.17</ele>
        <time>2024-06-25T12:00:17.613Z</time>
      </trkpt>
      <trkpt lat="46.76547" lon="-0.57769">
        <ele>175.34</ele>
        <time>2024-06-25T12:00:29.491Z</time>
      </trkpt>
      <trkpt lat="46.76548" lon="-0.57777">
        <ele>175.5</ele>
        <time>2024-06-25T12:00:41.370Z</time>
      </trkpt>
      <trkpt lat="46.76549" lon="-0.57784">
        <ele>175.68</ele>
        <time>2024-06-25T12:00:53.250Z</time>
      </trkpt>
      <trkpt lat="46.7655" lon="-0.5779">
        <ele>175.85</ele>
        <time>2024-06-25T12:01:05.131Z</time>
      </trkpt>
      <trkpt lat="46.76551" lon="-0.57797">
        <ele>176.03</ele>
        <time>2024-06-25T12:01:17.013Z</time>
      </trkpt>
      <trkpt lat="46.76552" lon="-0.57804">
        <ele>176.21</ele>
        <time>2024-06-25T12:01:28.896Z</time>
      </trkpt>
      <trkpt lat="46.76553" lon="-0.57811">
        <ele>176.4</ele>
        <time>2024-06-25T12:01:40.780Z</time>
      </trkpt>
      <trkpt lat="46.76553" lon="-0.57817">
        <ele>176.58</ele>
        <time>2024-06-25T12:01:52.665Z</time>
      </trkpt>
      <trkpt lat="46.76554" lon="-0.57824">
        <ele>176.77</ele>
        <time>2024-06-25T12:02:04.551Z</time>
      </trkpt>
      <trkpt lat="46.76555" lon="-0.5783">
        <ele>176.96</ele>
        <time>2024-06-25T12:02:16.438Z</time>
      </trkpt>
      <trkpt lat="46.76556" lon="-0.57837">
        <ele>177.15</ele>
        <time>2024-06-25T12:02:28.326Z</time>
      </trkpt>
      <trkpt lat="46.76557" lon="-0.57844">
        <ele>177.34</ele>
        <time>2024-06-25T12:02:40.215Z</time>
      </trkpt>
      <trkpt lat="46.76558" lon="-0.5785">
        <ele>177.54</ele>
        <time>2024-06-25T12:02:52.105Z</time>
      </trkpt>
      <trkpt lat="46.76558" lon="-0.57856">
        <ele>177.74</ele>
        <time>2024-06-25T12:03:03.995Z</time>
      </trkpt>
      <trkpt lat="46.7656" lon="-0.57863">
        <ele>177.94</ele>
        <time>2024-06-25T12:03:15.886Z</time>
      </trkpt>
      <trkpt lat="46.76561" lon="-0.57869">
        <ele>178.14</ele>
        <time>2024-06-25T12:03:27.778Z</time>
      </trkpt>
      <trkpt lat="46.76562" lon="-0.57875">
        <ele>178.35</ele>
        <time>2024-06-25T12:03:39.671Z</time>
      </trkpt>
      <trkpt lat="46.76564" lon="-0.5788">
        <ele>178.56</ele>
        <time>2024-06-25T12:03:51.565Z</time>
      </trkpt>
      <trkpt lat="46.76565" lon="-0.57886">
        <ele>178.78</ele>
        <time>2024-06-25T12:04:03.460Z</time>
      </trkpt>
      <trkpt lat="46.76567" lon="-0.5789">
        <ele>178.99</ele>
        <time>2024-06-25T12:04:15.355Z</time>
      </trkpt>
      <trkpt lat="46.76569" lon="-0.57896">
        <ele>179.19</ele>
        <time>2024-06-25T12:04:27.251Z</time>
      </trkpt>
      <trkpt lat="46.76571" lon="-0.57901">
        <ele>179.4</ele>
        <time>2024-06-25T12:04:39.148Z</time>
      </trkpt>
      <trkpt lat="46.76573" lon="-0.57907">
        <ele>179.62</ele>
        <time>2024-06-25T12:04:51.046Z</time>
      </trkpt>
      <trkpt lat="46.76575" lon="-0.57911">
        <ele>179.83</ele>
        <time>2024-06-25T12:05:02.945Z</time>
      </trkpt>
      <trkpt lat="46.76578" lon="-0.57916">
        <ele>180.04</ele>
        <time>2024-06-25T12:05:14.845Z</time>
      </trkpt>
      <trkpt lat="46.7658" lon="-0.57921">
        <ele>180.25</ele>
        <time>2024-06-25T12:05:26.745Z</time>
      </trkpt>
      <trkpt lat="46.76582" lon="-0.57925">
        <ele>180.46</ele>
        <time>2024-06-25T12:05:38.646Z</time>
      </trkpt>
      <trkpt lat="46.76585" lon="-0.57929">
        <ele>180.68</ele>
        <time>2024-06-25T12:05:50.548Z</time>
      </trkpt>
      <trkpt lat="46.76587" lon="-0.57933">
        <ele>180.9</ele>
        <time>2024-06-25T12:06:02.451Z</time>
      </trkpt>
      <trkpt lat="46.76589" lon="-0.57937">
        <ele>181.12</ele>
        <time>2024-06-25T12:06:14.354Z</time>
      </trkpt>
      <trkpt lat="46.76592" lon="-0.57941">
        <ele>181.33</ele>
        <time>2024-06-25T12:06:26.258Z</time>
      </trkpt>
      <trkpt lat="46.76594" lon="-0.57945">
        <ele>181.55</ele>
        <time>2024-06-25T12:06:38.163Z</time>
      </trkpt>
      <trkpt lat="46.76597" lon="-0.57948">
        <ele>181.78</ele>
        <time>2024-06-25T12:06:50.068Z</time>
      </trkpt>
      <trkpt lat="46.76598" lon="-0.57952">
        <ele>182</ele>
        <time>2024-06-25T12:07:01.974Z</time>
      </trkpt>
      <trkpt lat="46.766" lon="-0.57956">
        <ele>182.22</ele>
        <time>2024-06-25T12:07:13.881Z</time>
      </trkpt>
      <trkpt lat="46.76602" lon="-0.5796">
        <ele>182.43</ele>
        <time>2024-06-25T12:07:25.788Z</time>
      </trkpt>
      <trkpt lat="46.76605" lon="-0.57964">
        <ele>182.65</ele>
        <time>2024-06-25T12:07:37.696Z</time>
      </trkpt>
      <trkpt lat="46.76607" lon="-0.57969">
        <ele>182.87</ele>
        <time>2024-06-25T12:07:49.605Z</time>
      </trkpt>
      <trkpt lat="46.7661" lon="-0.57973">
        <ele>183.09</ele>
        <time>2024-06-25T12:08:01.515Z</time>
      </trkpt>
      <trkpt lat="46.76612" lon="-0.57977">
        <ele>183.3</ele>
        <time>2024-06-25T12:08:13.425Z</time>
      </trkpt>
      <trkpt lat="46.76615" lon="-0.57981">
        <ele>183.52</ele>
        <time>2024-06-25T12:08:25.336Z</time>
      </trkpt>
      <trkpt lat="46.76618" lon="-0.57986">
        <ele>183.74</ele>
        <time>2024-06-25T12:08:37.248Z</time>
      </trkpt>
      <trkpt lat="46.7662" lon="-0.5799">
        <ele>183.95</ele>
        <time>2024-06-25T12:08:49.161Z</time>
      </trkpt>
      <trkpt lat="46.76623" lon="-0.57994">
        <ele>184.17</ele>
        <time>2024-06-25T12:09:01.075Z</time>
      </trkpt>
      <trkpt lat="46.76625" lon="-0.57998">
        <ele>184.37</ele>
        <time>2024-06-25T12:09:12.989Z</time>
      </trkpt>
      <trkpt lat="46.76628" lon="-0.58002">
        <ele>184.58</ele>
        <time>2024-06-25T12:09:24.904Z</time>
      </trkpt>
      <trkpt lat="46.76631" lon="-0.58007">
        <ele>184.78</ele>
        <time>2024-06-25T12:09:36.820Z</time>
      </trkpt>
      <trkpt lat="46.76633" lon="-0.58011">
        <ele>184.98</ele>
        <time>2024-06-25T12:09:48.737Z</time>
      </trkpt>
      <trkpt lat="46.76635" lon="-0.58016">
        <ele>185.17</ele>
        <time>2024-06-25T12:10:00.654Z</time>
      </trkpt>
      <trkpt lat="46.76637" lon="-0.58018">
        <ele>185.36</ele>
        <time>2024-06-25T12:10:12.572Z</time>
      </trkpt>
      <trkpt lat="46.76638" lon="-0.5802">
        <ele>185.54</ele>
        <time>2024-06-25T12:10:24.490Z</time>
      </trkpt>
      <trkpt lat="46.76638" lon="-0.58021">
        <ele>185.71</ele>
        <time>2024-06-25T12:10:36.408Z</time>
      </trkpt>
      <trkpt lat="46.76638" lon="-0.58021">
        <ele>185.88</ele>
        <time>2024-06-25T12:10:48.326Z</time>
      </trkpt>
      <trkpt lat="46.7664" lon="-0.58029">
        <ele>186.06</ele>
        <time>2024-06-25T12:11:00.246Z</time>
      </trkpt>
      <trkpt lat="46.76642" lon="-0.58031">
        <ele>186.23</ele>
        <time>2024-06-25T12:11:12.166Z</time>
      </trkpt>
      <trkpt lat="46.76643" lon="-0.58033">
        <ele>186.39</ele>
        <time>2024-06-25T12:11:24.086Z</time>
      </trkpt>
      <trkpt lat="46.76645" lon="-0.58035">
        <ele>186.54</ele>
        <time>2024-06-25T12:11:36.007Z</time>
      </trkpt>
      <trkpt lat="46.76647" lon="-0.58038">
        <ele>186.69</ele>
        <time>2024-06-25T12:11:47.928Z</time>
      </trkpt>
      <trkpt lat="46.76649" lon="-0.58042">
        <ele>186.84</ele>
        <time>2024-06-25T12:11:59.850Z</time>
      </trkpt>
      <trkpt lat="46.76651" lon="-0.58045">
        <ele>186.98</ele>
        <time>2024-06-25T12:12:11.773Z</time>
      </trkpt>
      <trkpt lat="46.76654" lon="-0.58048">
        <ele>187.11</ele>
        <time>2024-06-25T12:12:23.696Z</time>
      </trkpt>
      <trkpt lat="46.76655" lon="-0.58051">
        <ele>187.24</ele>
        <time>2024-06-25T12:12:35.620Z</time>
      </trkpt>
      <trkpt lat="46.76657" lon="-0.58054">
        <ele>187.37</ele>
        <time>2024-06-25T12:12:47.544Z</time>
      </trkpt>
      <trkpt lat="46.76659" lon="-0.58058">
        <ele>187.48</ele>
        <time>2024-06-25T12:12:59.469Z</time>
      </trkpt>
      <trkpt lat="46.76661" lon="-0.58062">
        <ele>187.6</ele>
        <time>2024-06-25T12:13:11.395Z</time>
      </trkpt>
      <trkpt lat="46.76663" lon="-0.58066">
        <ele>187.7</ele>
        <time>2024-06-25T12:13:23.321Z</time>
      </trkpt>
      <trkpt lat="46.76665" lon="-0.58069">
        <ele>187.8</ele>
        <time>2024-06-25T12:13:35.248Z</time>
      </trkpt>
      <trkpt lat="46.76667" lon="-0.58072">
        <ele>187.9</ele>
        <time>2024-06-25T12:13:47.176Z</time>
      </trkpt>
      <trkpt lat="46.76669" lon="-0.58076">
        <ele>187.99</ele>
        <time>2024-06-25T12:13:59.104Z</time>
      </trkpt>
      <trkpt lat="46.76672" lon="-0.58079">
        <ele>188.07</ele>
        <time>2024-06-25T12:14:11.033Z</time>
      </trkpt>
      <trkpt lat="46.76675" lon="-0.58083">
        <ele>188.15</ele>
        <time>2024-06-25T12:14:22.963Z</time>
      </trkpt>
      <trkpt lat="46.76678" lon="-0.58086">
        <ele>188.22</ele>
        <time>2024-06-25T12:14:34.894Z</time>
      </trkpt>
      <trkpt lat="46.76682" lon="-0.58089">
        <ele>188.29</ele>
        <time>2024-06-25T12:14:46.825Z</time>
      </trkpt>
      <trkpt lat="46.76685" lon="-0.5809">
        <ele>188.35</ele>
        <time>2024-06-25T12:14:58.757Z</time>
      </trkpt>
      <trkpt lat="46.76688" lon="-0.58092">
        <ele>188.41</ele>
        <time>2024-06-25T12:15:10.690Z</time>
      </trkpt>
      <trkpt lat="46.76691" lon="-0.58092">
        <ele>188.45</ele>
        <time>2024-06-25T12:15:22.623Z</time>
      </trkpt>
      <trkpt lat="46.76693" lon="-0.58093">
        <ele>188.49</ele>
        <time>2024-06-25T12:15:34.557Z</time>
      </trkpt>
      <trkpt lat="46.76697" lon="-0.58093">
        <ele>188.53</ele>
        <time>2024-06-25T12:15:46.491Z</time>
      </trkpt>
      <trkpt lat="46.767" lon="-0.58093">
        <ele>188.56</ele>
        <time>2024-06-25T12:15:58.426Z</time>
      </trkpt>
      <trkpt lat="46.76703" lon="-0.58092">
        <ele>188.58</ele>
        <time>2024-06-25T12:16:10.362Z</time>
      </trkpt>
      <trkpt lat="46.76708" lon="-0.58092">
        <ele>188.59</ele>
        <time>2024-06-25T12:16:22.299Z</time>
      </trkpt>
      <trkpt lat="46.76712" lon="-0.58091">
        <ele>188.6</ele>
        <time>2024-06-25T12:16:34.237Z</time>
      </trkpt>
      <trkpt lat="46.76716" lon="-0.5809">
        <ele>188.6</ele>
        <time>2024-06-25T12:16:46.175Z</time>
      </trkpt>
      <trkpt lat="46.76721" lon="-0.58089">
        <ele>188.6</ele>
        <time>2024-06-25T12:16:58.114Z</time>
      </trkpt>
      <trkpt lat="46.76726" lon="-0.58088">
        <ele>188.6</ele>
        <time>2024-06-25T12:17:10.054Z</time>
      </trkpt>
      <trkpt lat="46.7673" lon="-0.58086">
        <ele>188.59</ele>
        <time>2024-06-25T12:17:21.995Z</time>
      </trkpt>
      <trkpt lat="46.76736" lon="-0.58085">
        <ele>188.57</ele>
        <time>2024-06-25T12:17:33.937Z</time>
      </trkpt>
      <trkpt lat="46.76741" lon="-0.58084">
        <ele>188.54</ele>
        <time>2024-06-25T12:17:45.880Z</time>
      </trkpt>
      <trkpt lat="46.76746" lon="-0.58083">
        <ele>188.52</ele>
        <time>2024-06-25T12:17:57.824Z</time>
      </trkpt>
      <trkpt lat="46.76751" lon="-0.58082">
        <ele>188.49</ele>
        <time>2024-06-25T12:18:09.769Z</time>
      </trkpt>
      <trkpt lat="46.76756" lon="-0.58081">
        <ele>188.45</ele>
        <time>2024-06-25T12:18:21.715Z</time>
      </trkpt>
      <trkpt lat="46.76762" lon="-0.58081">
        <ele>188.42</ele>
        <time>2024-06-25T12:18:33.663Z</time>
      </trkpt>
      <trkpt lat="46.76768" lon="-0.5808">
        <ele>188.38</ele>
        <time>2024-06-25T12:18:45.612Z</time>
      </trkpt>
      <trkpt lat="46.76773" lon="-0.58079">
        <ele>188.34</ele>
        <time>2024-06-25T12:18:57.562Z</time>
      </trkpt>
      <trkpt lat="46.76779" lon="-0.58078">
        <ele>188.3</ele>
        <time>2024-06-25T12:19:09.513Z</time>
      </trkpt>
      <trkpt lat="46.76786" lon="-0.58077">
        <ele>188.26</ele>
        <time>2024-06-25T12:19:21.465Z</time>
      </trkpt>
      <trkpt lat="46.76792" lon="-0.58076">
        <ele>188.22</ele>
        <time>2024-06-25T12:19:33.419Z</time>
      </trkpt>
      <trkpt lat="46.76798" lon="-0.58075">
        <ele>188.18</ele>
        <time>2024-06-25T12:19:45.374Z</time>
      </trkpt>
      <trkpt lat="46.76803" lon="-0.58075">
        <ele>188.13</ele>
        <time>2024-06-25T12:19:57.330Z</time>
      </trkpt>
      <trkpt lat="46.76809" lon="-0.58074">
        <ele>188.08</ele>
        <time>2024-06-25T12:20:09.287Z</time>
      </trkpt>
      <trkpt lat="46.76816" lon="-0.58074">
        <ele>188.03</ele>
        <time>2024-06-25T12:20:21.245Z</time>
      </trkpt>
      <trkpt lat="46.76821" lon="-0.58073">
        <ele>187.98</ele>
        <time>2024-06-25T12:20:33.204Z</time>
      </trkpt>
      <trkpt lat="46.76827" lon="-0.58072">
        <ele>187.92</ele>
        <time>2024-06-25T12:20:45.165Z</time>
      </trkpt>
      <trkpt lat="46.76832" lon="-0.58072">
        <ele>187.87</ele>
        <time>2024-06-25T12:20:57.127Z</time>
      </trkpt>
      <trkpt lat="46.76838" lon="-0.58071">
        <ele>187.82</ele>
        <time>2024-06-25T12:21:09.090Z</time>
      </trkpt>
      <trkpt lat="46.76842" lon="-0.5807">
        <ele>187.76</ele>
        <time>2024-06-25T12:21:21.054Z</time>
      </trkpt>
      <trkpt lat="46.76848" lon="-0.5807">
        <ele>187.72</ele>
        <time>2024-06-25T12:21:33.019Z</time>
      </trkpt>
      <trkpt lat="46.76853" lon="-0.5807">
        <ele>187.67</ele>
        <time>2024-06-25T12:21:44.985Z</time>
      </trkpt>
      <trkpt lat="46.76858" lon="-0.58069">
        <ele>187.62</ele>
        <time>2024-06-25T12:21:56.952Z</time>
      </trkpt>
      <trkpt lat="46.76863" lon="-0.58067">
        <ele>187.58</ele>
        <time>2024-06-25T12:22:08.920Z</time>
      </trkpt>
      <trkpt lat="46.76867" lon="-0.58066">
        <ele>187.53</ele>
        <time>2024-06-25T12:22:20.889Z</time>
      </trkpt>
      <trkpt lat="46.7687" lon="-0.58065">
        <ele>187.49</ele>
        <time>2024-06-25T12:22:32.858Z</time>
      </trkpt>
      <trkpt lat="46.76873" lon="-0.58065">
        <ele>187.45</ele>
        <time>2024-06-25T12:22:44.828Z</time>
      </trkpt>
      <trkpt lat="46.76877" lon="-0.58064">
        <ele>187.41</ele>
        <time>2024-06-25T12:22:56.799Z</time>
      </trkpt>
      <trkpt lat="46.7688" lon="-0.58065">
        <ele>187.37</ele>
        <time>2024-06-25T12:23:08.770Z</time>
      </trkpt>
      <trkpt lat="46.76883" lon="-0.58067">
        <ele>187.34</ele>
        <time>2024-06-25T12:23:20.742Z</time>
      </trkpt>
      <trkpt lat="46.76885" lon="-0.5807">
        <ele>187.31</ele>
        <time>2024-06-25T12:23:32.715Z</time>
      </trkpt>
      <trkpt lat="46.76887" lon="-0.58074">
        <ele>187.29</ele>
        <time>2024-06-25T12:23:44.688Z</time>
      </trkpt>
      <trkpt lat="46.76888" lon="-0.58079">
        <ele>187.26</ele>
        <time>2024-06-25T12:23:56.662Z</time>
      </trkpt>
      <trkpt lat="46.7689" lon="-0.58083">
        <ele>187.25</ele>
        <time>2024-06-25T12:24:08.637Z</time>
      </trkpt>
      <trkpt lat="46.76892" lon="-0.58086">
        <ele>187.23</ele>
        <time>2024-06-25T12:24:20.612Z</time>
      </trkpt>
      <trkpt lat="46.76894" lon="-0.58087">
        <ele>187.21</ele>
        <time>2024-06-25T12:24:32.588Z</time>
      </trkpt>
      <trkpt lat="46.76896" lon="-0.58085">
        <ele>187.2</ele>
        <time>2024-06-25T12:24:44.564Z</time>
      </trkpt>
      <trkpt lat="46.76899" lon="-0.58083">
        <ele>187.18</ele>
        <time>2024-06-25T12:24:56.541Z</time>
      </trkpt>
      <trkpt lat="46.76902" lon="-0.58083">
        <ele>187.18</ele>
        <time>2024-06-25T12:25:08.518Z</time>
      </trkpt>
      <trkpt lat="46.76905" lon="-0.58083">
        <ele>187.18</ele>
        <time>2024-06-25T12:25:20.496Z</time>
      </trkpt>
      <trkpt lat="46.76908" lon="-0.58083">
        <ele>187.18</ele>
        <time>2024-06-25T12:25:32.475Z</time>
      </trkpt>
      <trkpt lat="46.76913" lon="-0.58083">
        <ele>187.18</ele>
        <time>2024-06-25T12:25:44.455Z</time>
      </trkpt>
      <trkpt lat="46.76917" lon="-0.58083">
        <ele>187.19</ele>
        <time>2024-06-25T12:25:56.435Z</time>
      </trkpt>
      <trkpt lat="46.76921" lon="-0.58083">
        <ele>187.2</ele>
        <time>2024-06-25T12:26:08.416Z</time>
      </trkpt>
      <trkpt lat="46.76926" lon="-0.58083">
        <ele>187.21</ele>
        <time>2024-06-25T12:26:20.398Z</time>
      </trkpt>
      <trkpt lat="46.7693" lon="-0.58082">
        <ele>187.23</ele>
        <time>2024-06-25T12:26:32.381Z</time>
      </trkpt>
      <trkpt lat="46.76934" lon="-0.58082">
        <ele>187.25</ele>
        <time>2024-06-25T12:26:44.365Z</time>
      </trkpt>
      <trkpt lat="46.76939" lon="-0.58082">
        <ele>187.28</ele>
        <time>2024-06-25T12:26:56.350Z</time>
      </trkpt>
      <trkpt lat="46.76944" lon="-0.58081">
        <ele>187.31</ele>
        <time>2024-06-25T12:27:08.336Z</time>
      </trkpt>
      <trkpt lat="46.76948" lon="-0.5808">
        <ele>187.34</ele>
        <time>2024-06-25T12:27:20.323Z</time>
      </trkpt>
      <trkpt lat="46.76953" lon="-0.5808">
        <ele>187.37</ele>
        <time>2024-06-25T12:27:32.311Z</time>
      </trkpt>
      <trkpt lat="46.76958" lon="-0.58079">
        <ele>187.41</ele>
        <time>2024-06-25T12:27:44.300Z</time>
      </trkpt>
      <trkpt lat="46.76962" lon="-0.58078">
        <ele>187.45</ele>
        <time>2024-06-25T12:27:56.290Z</time>
      </trkpt>
      <trkpt lat="46.76967" lon="-0.58077">
        <ele>187.49</ele>
        <time>2024-06-25T12:28:08.281Z</time>
      </trkpt>
      <trkpt lat="46.76972" lon="-0.58076">
        <ele>187.53</ele>
        <time>2024-06-25T12:28:20.272Z</time>
      </trkpt>
      <trkpt lat="46.76976" lon="-0.58074">
        <ele>187.57</ele>
        <time>2024-06-25T12:28:32.264Z</time>
      </trkpt>
      <trkpt lat="46.76981" lon="-0.58074">
        <ele>187.62</ele>
        <time>2024-06-25T12:28:44.257Z</time>
      </trkpt>
      <trkpt lat="46.76986" lon="-0.58073">
        <ele>187.66</ele>
        <time>2024-06-25T12:28:56.251Z</time>
      </trkpt>
      <trkpt lat="46.7699" lon="-0.58072">
        <ele>187.7</ele>
        <time>2024-06-25T12:29:08.246Z</time>
      </trkpt>
      <trkpt lat="46.76995" lon="-0.58071">
        <ele>187.75</ele>
        <time>2024-06-25T12:29:20.242Z</time>
      </trkpt>
      <trkpt lat="46.77" lon="-0.58069">
        <ele>187.8</ele>
        <time>2024-06-25T12:29:32.239Z</time>
      </trkpt>
      <trkpt lat="46.77005" lon="-0.58067">
        <ele>187.84</ele>
        <time>2024-06-25T12:29:44.237Z</time>
      </trkpt>
      <trkpt lat="46.7701" lon="-0.58066">
        <ele>187.89</ele>
        <time>2024-06-25T12:29:56.236Z</time>
      </trkpt>
      <trkpt lat="46.77015" lon="-0.58064">
        <ele>187.95</ele>
        <time>2024-06-25T12:30:08.236Z</time>
      </trkpt>
      <trkpt lat="46.7702" lon="-0.58061">
        <ele>188</ele>
        <time>2024-06-25T12:30:20.237Z</time>
      </trkpt>
      <trkpt lat="46.77025" lon="-0.58059">
        <ele>188.05</ele>
        <time>2024-06-25T12:30:32.239Z</time>
      </trkpt>
      <trkpt lat="46.77031" lon="-0.58057">
        <ele>188.11</ele>
        <time>2024-06-25T12:30:44.243Z</time>
      </trkpt>
      <trkpt lat="46.77036" lon="-0.58055">
        <ele>188.16</ele>
        <time>2024-06-25T12:30:56.248Z</time>
      </trkpt>
      <trkpt lat="46.77041" lon="-0.58053">
        <ele>188.22</ele>
        <time>2024-06-25T12:31:08.254Z</time>
      </trkpt>
      <trkpt lat="46.77046" lon="-0.58051">
        <ele>188.27</ele>
        <time>2024-06-25T12:31:20.261Z</time>
      </trkpt>
      <trkpt lat="46.77051" lon="-0.58048">
        <ele>188.32</ele>
        <time>2024-06-25T12:31:32.269Z</time>
      </trkpt>
      <trkpt lat="46.77056" lon="-0.58045">
        <ele>188.38</ele>
        <time>2024-06-25T12:31:44.278Z</time>
      </trkpt>
      <trkpt lat="46.77061" lon="-0.58043">
        <ele>188.43</ele>
        <time>2024-06-25T12:31:56.288Z</time>
      </trkpt>
      <trkpt lat="46.77066" lon="-0.5804">
        <ele>188.48</ele>
        <time>2024-06-25T12:32:08.299Z</time>
      </trkpt>
      <trkpt lat="46.77071" lon="-0.58037">
        <ele>188.52</ele>
        <time>2024-06-25T12:32:20.311Z</time>
      </trkpt>
      <trkpt lat="46.77076" lon="-0.58034">
        <ele>188.57</ele>
        <time>2024-06-25T12:32:32.324Z</time>
      </trkpt>
      <trkpt lat="46.7708" lon="-0.58031">
        <ele>188.61</ele>
        <time>2024-06-25T12:32:44.338Z</time>
      </trkpt>
      <trkpt lat="46.77086" lon="-0.58028">
        <ele>188.65</ele>
        <time>2024-06-25T12:32:56.353Z</time>
      </trkpt>
      <trkpt lat="46.77091" lon="-0.58025">
        <ele>188.69</ele>
        <time>2024-06-25T12:33:08.369Z</time>
      </trkpt>
      <trkpt lat="46.77096" lon="-0.58022">
        <ele>188.73</ele>
        <time>2024-06-25T12:33:20.386Z</time>
      </trkpt>
      <trkpt lat="46.77101" lon="-0.58019">
        <ele>188.77</ele>
        <time>2024-06-25T12:33:32.405Z</time>
      </trkpt>
      <trkpt lat="46.77106" lon="-0.58015">
        <ele>188.81</ele>
        <time>2024-06-25T12:33:44.425Z</time>
      </trkpt>
      <trkpt lat="46.77111" lon="-0.58011">
        <ele>188.84</ele>
        <time>2024-06-25T12:33:56.446Z</time>
      </trkpt>
      <trkpt lat="46.77116" lon="-0.58008">
        <ele>188.88</ele>
        <time>2024-06-25T12:34:08.468Z</time>
      </trkpt>
      <trkpt lat="46.77121" lon="-0.58003">
        <ele>188.91</ele>
        <time>2024-06-25T12:34:20.491Z</time>
      </trkpt>
      <trkpt lat="46.77125" lon="-0.57999">
        <ele>188.94</ele>
        <time>2024-06-25T12:34:32.515Z</time>
      </trkpt>
      <trkpt lat="46.77131" lon="-0.57995">
        <ele>188.97</ele>
        <time>2024-06-25T12:34:44.540Z</time>
      </trkpt>
      <trkpt lat="46.77136" lon="-0.57991">
        <ele>189</ele>
        <time>2024-06-25T12:34:56.567Z</time>
      </trkpt>
      <trkpt lat="46.7714" lon="-0.57986">
        <ele>189.03</ele>
        <time>2024-06-25T12:35:08.595Z</time>
      </trkpt>
      <trkpt lat="46.77145" lon="-0.57982">
        <ele>189.05</ele>
        <time>2024-06-25T12:35:20.624Z</time>
      </trkpt>
      <trkpt lat="46.77149" lon="-0.57978">
        <ele>189.08</ele>
        <time>2024-06-25T12:35:32.654Z</time>
      </trkpt>
      <trkpt lat="46.77153" lon="-0.57975">
        <ele>189.1</ele>
        <time>2024-06-25T12:35:44.685Z</time>
      </trkpt>
      <trkpt lat="46.77157" lon="-0.57971">
        <ele>189.12</ele>
        <time>2024-06-25T12:35:56.717Z</time>
      </trkpt>
      <trkpt lat="46.77161" lon="-0.57967">
        <ele>189.14</ele>
        <time>2024-06-25T12:36:08.750Z</time>
      </trkpt>
      <trkpt lat="46.77165" lon="-0.57962">
        <ele>189.15</ele>
        <time>2024-06-25T12:36:20.784Z</time>
      </trkpt>
      <trkpt lat="46.77169" lon="-0.57958">
        <ele>189.17</ele>
        <time>2024-06-25T12:36:32.819Z</time>
      </trkpt>
      <trkpt lat="46.77174" lon="-0.57953">
        <ele>189.18</ele>
        <time>2024-06-25T12:36:44.855Z</time>
      </trkpt>
      <trkpt lat="46.77178" lon="-0.57948">
        <ele>189.2</ele>
        <time>2024-06-25T12:36:56.892Z</time>
      </trkpt>
      <trkpt lat="46.77183" lon="-0.57943">
        <ele>189.22</ele>
        <time>2024-06-25T12:37:08.930Z</time>
      </trkpt>
      <trkpt lat="46.77188" lon="-0.57938">
        <ele>189.23</ele>
        <time>2024-06-25T12:37:20.969Z</time>
      </trkpt>
      <trkpt lat="46.77192" lon="-0.57933">
        <ele>189.25</ele>
        <time>2024-06-25T12:37:33.009Z</time>
      </trkpt>
      <trkpt lat="46.77196" lon="-0.57928">
        <ele>189.26</ele>
        <time>2024-06-25T12:37:45.050Z</time>
      </trkpt>
      <trkpt lat="46.772" lon="-0.57923">
        <ele>189.27</ele>
        <time>2024-06-25T12:37:57.092Z</time>
      </trkpt>
      <trkpt lat="46.77203" lon="-0.57919">
        <ele>189.29</ele>
        <time>2024-06-25T12:38:09.135Z</time>
      </trkpt>
      <trkpt lat="46.77208" lon="-0.57913">
        <ele>189.3</ele>
        <time>2024-06-25T12:38:21.180Z</time>
      </trkpt>
      <trkpt lat="46.77212" lon="-0.57908">
        <ele>189.31</ele>
        <time>2024-06-25T12:38:33.226Z</time>
      </trkpt>
      <trkpt lat="46.77216" lon="-0.57903">
        <ele>189.32</ele>
        <time>2024-06-25T12:38:45.273Z</time>
      </trkpt>
      <trkpt lat="46.7722" lon="-0.57897">
        <ele>189.34</ele>
        <time>2024-06-25T12:38:57.321Z</time>
      </trkpt>
      <trkpt lat="46.77223" lon="-0.57891">
        <ele>189.35</ele>
        <time>2024-06-25T12:39:09.370Z</time>
      </trkpt>
      <trkpt lat="46.77227" lon="-0.57886">
        <ele>189.36</ele>
        <time>2024-06-25T12:39:21.420Z</time>
      </trkpt>
      <trkpt lat="46.77231" lon="-0.57879">
        <ele>189.37</ele>
        <time>2024-06-25T12:39:33.471Z</time>
      </trkpt>
      <trkpt lat="46.77234" lon="-0.57872">
        <ele>189.39</ele>
        <time>2024-06-25T12:39:45.523Z</time>
      </trkpt>
      <trkpt lat="46.77238" lon="-0.57866">
        <ele>189.4</ele>
        <time>2024-06-25T12:39:57.576Z</time>
      </trkpt>
      <trkpt lat="46.77241" lon="-0.57861">
        <ele>189.41</ele>
        <time>2024-06-25T12:40:09.630Z</time>
      </trkpt>
      <trkpt lat="46.77245" lon="-0.57855">
        <ele>189.43</ele>
        <time>2024-06-25T12:40:21.685Z</time>
      </trkpt>
      <trkpt lat="46.77248" lon="-0.57848">
        <ele>189.45</ele>
        <time>2024-06-25T12:40:33.742Z</time>
      </trkpt>
      <trkpt lat="46.77251" lon="-0.57842">
        <ele>189.47</ele>
        <time>2024-06-25T12:40:45.800Z</time>
      </trkpt>
      <trkpt lat="46.77255" lon="-0.57837">
        <ele>189.49</ele>
        <time>2024-06-25T12:40:57.859Z</time>
      </trkpt>
      <trkpt lat="46.77258" lon="-0.57831">
        <ele>189.52</ele>
        <time>2024-06-25T12:41:09.919Z</time>
      </trkpt>
      <trkpt lat="46.77263" lon="-0.57824">
        <ele>189.54</ele>
        <time>2024-06-25T12:41:21.980Z</time>
      </trkpt>
      <trkpt lat="46.77268" lon="-0.57817">
        <ele>189.56</ele>
        <time>2024-06-25T12:41:34.042Z</time>
      </trkpt>
      <trkpt lat="46.77271" lon="-0.5781">
        <ele>189.59</ele>
        <time>2024-06-25T12:41:46.106Z</time>
      </trkpt>
      <trkpt lat="46.77274" lon="-0.57804">
        <ele>189.61</ele>
        <time>2024-06-25T12:41:58.171Z</time>
      </trkpt>
      <trkpt lat="46.77277" lon="-0.57797">
        <ele>189.63</ele>
        <time>2024-06-25T12:42:10.237Z</time>
      </trkpt>
      <trkpt lat="46.7728" lon="-0.57791">
        <ele>189.65</ele>
        <time>2024-06-25T12:42:22.304Z</time>
      </trkpt>
      <trkpt lat="46.77284" lon="-0.57783">
        <ele>189.67</ele>
        <time>2024-06-25T12:42:34.372Z</time>
      </trkpt>
      <trkpt lat="46.77287" lon="-0.57775">
        <ele>189.69</ele>
        <time>2024-06-25T12:42:46.441Z</time>
      </trkpt>
      <trkpt lat="46.7729" lon="-0.57768">
        <ele>189.72</ele>
        <time>2024-06-25T12:42:58.511Z</time>
      </trkpt>
      <trkpt lat="46.77293" lon="-0.57761">
        <ele>189.75</ele>
        <time>2024-06-25T12:43:10.583Z</time>
      </trkpt>
      <trkpt lat="46.77295" lon="-0.57755">
        <ele>189.78</ele>
        <time>2024-06-25T12:43:22.656Z</time>
      </trkpt>
      <trkpt lat="46.77298" lon="-0.57747">
        <ele>189.81</ele>
        <time>2024-06-25T12:43:34.730Z</time>
      </trkpt>
      <trkpt lat="46.77302" lon="-0.5774">
        <ele>189.84</ele>
        <time>2024-06-25T12:43:46.805Z</time>
      </trkpt>
      <trkpt lat="46.77305" lon="-0.57733">
        <ele>189.87</ele>
        <time>2024-06-25T12:43:58.881Z</time>
      </trkpt>
      <trkpt lat="46.77307" lon="-0.57726">
        <ele>189.9</ele>
        <time>2024-06-25T12:44:10.958Z</time>
      </trkpt>
      <trkpt lat="46.7731" lon="-0.57719">
        <ele>189.93</ele>
        <time>2024-06-25T12:44:23.036Z</time>
      </trkpt>
      <trkpt lat="46.77313" lon="-0.57712">
        <ele>189.96</ele>
        <time>2024-06-25T12:44:35.115Z</time>
      </trkpt>
      <trkpt lat="46.77315" lon="-0.57705">
        <ele>189.99</ele>
        <time>2024-06-25T12:44:47.195Z</time>
      </trkpt>
      <trkpt lat="46.77317" lon="-0.57698">
        <ele>190.02</ele>
        <time>2024-06-25T12:44:59.276Z</time>
      </trkpt>
      <trkpt lat="46.7732" lon="-0.57691">
        <ele>190.06</ele>
        <time>2024-06-25T12:45:11.359Z</time>
      </trkpt>
      <trkpt lat="46.77322" lon="-0.57684">
        <ele>190.1</ele>
        <time>2024-06-25T12:45:23.443Z</time>
      </trkpt>
      <trkpt lat="46.77325" lon="-0.57677">
        <ele>190.14</ele>
        <time>2024-06-25T12:45:35.528Z</time>
      </trkpt>
      <trkpt lat="46.77328" lon="-0.5767">
        <ele>190.18</ele>
        <time>2024-06-25T12:45:47.614Z</time>
      </trkpt>
      <trkpt lat="46.7733" lon="-0.57663">
        <ele>190.23</ele>
        <time>2024-06-25T12:45:59.701Z</time>
      </trkpt>
      <trkpt lat="46.77333" lon="-0.57656">
        <ele>190.27</ele>
        <time>2024-06-25T12:46:11.789Z</time>
      </trkpt>
      <trkpt lat="46.77336" lon="-0.57649">
        <ele>190.31</ele>
        <time>2024-06-25T12:46:23.878Z</time>
      </trkpt>
      <trkpt lat="46.77339" lon="-0.5764">
        <ele>190.35</ele>
        <time>2024-06-25T12:46:35.969Z</time>
      </trkpt>
      <trkpt lat="46.77341" lon="-0.57633">
        <ele>190.4</ele>
        <time>2024-06-25T12:46:48.061Z</time>
      </trkpt>
      <trkpt lat="46.77344" lon="-0.57626">
        <ele>190.44</ele>
        <time>2024-06-25T12:47:00.154Z</time>
      </trkpt>
      <trkpt lat="46.77347" lon="-0.57619">
        <ele>190.48</ele>
        <time>2024-06-25T12:47:12.248Z</time>
      </trkpt>
      <trkpt lat="46.7735" lon="-0.57611">
        <ele>190.52</ele>
        <time>2024-06-25T12:47:24.343Z</time>
      </trkpt>
      <trkpt lat="46.77352" lon="-0.57603">
        <ele>190.56</ele>
        <time>2024-06-25T12:47:36.439Z</time>
      </trkpt>
      <trkpt lat="46.77355" lon="-0.57596">
        <ele>190.59</ele>
        <time>2024-06-25T12:47:48.536Z</time>
      </trkpt>
      <trkpt lat="46.77358" lon="-0.57589">
        <ele>190.63</ele>
        <time>2024-06-25T12:48:00.635Z</time>
      </trkpt>
      <trkpt lat="46.7736" lon="-0.57582">
        <ele>190.66</ele>
        <time>2024-06-25T12:48:12.735Z</time>
      </trkpt>
      <trkpt lat="46.77363" lon="-0.57575">
        <ele>190.68</ele>
        <time>2024-06-25T12:48:24.836Z</time>
      </trkpt>
      <trkpt lat="46.77366" lon="-0.57567">
        <ele>190.7</ele>
        <time>2024-06-25T12:48:36.938Z</time>
      </trkpt>
      <trkpt lat="46.77368" lon="-0.5756">
        <ele>190.73</ele>
        <time>2024-06-25T12:48:49.041Z</time>
      </trkpt>
      <trkpt lat="46.77371" lon="-0.57553">
        <ele>190.75</ele>
        <time>2024-06-25T12:49:01.145Z</time>
      </trkpt>
      <trkpt lat="46.77374" lon="-0.57546">
        <ele>190.78</ele>
        <time>2024-06-25T12:49:13.250Z</time>
      </trkpt>
      <trkpt lat="46.77376" lon="-0.57539">
        <ele>190.81</ele>
        <time>2024-06-25T12:49:25.356Z</time>
      </trkpt>
      <trkpt lat="46.77379" lon="-0.57532">
        <ele>190.84</ele>
        <time>2024-06-25T12:49:37.464Z</time>
      </trkpt>
      <trkpt lat="46.77382" lon="-0.57525">
        <ele>190.87</ele>
        <time>2024-06-25T12:49:49.573Z</time>
      </trkpt>
      <trkpt lat="46.77385" lon="-0.57518">
        <ele>190.91</ele>
        <time>2024-06-25T12:50:01.683Z</time>
      </trkpt>
      <trkpt lat="46.77387" lon="-0.57511">
        <ele>190.95</ele>
        <time>2024-06-25T12:50:13.794Z</time>
      </trkpt>
      <trkpt lat="46.7739" lon="-0.57503">
        <ele>190.99</ele>
        <time>2024-06-25T12:50:25.906Z</time>
      </trkpt>
      <trkpt lat="46.77392" lon="-0.57496">
        <ele>191.04</ele>
        <time>2024-06-25T12:50:38.019Z</time>
      </trkpt>
      <trkpt lat="46.77395" lon="-0.57489">
        <ele>191.09</ele>
        <time>2024-06-25T12:50:50.133Z</time>
      </trkpt>
      <trkpt lat="46.77397" lon="-0.57481">
        <ele>191.14</ele>
        <time>2024-06-25T12:51:02.248Z</time>
      </trkpt>
      <trkpt lat="46.774" lon="-0.57474">
        <ele>191.2</ele>
        <time>2024-06-25T12:51:14.364Z</time>
      </trkpt>
      <trkpt lat="46.77402" lon="-0.57466">
        <ele>191.25</ele>
        <time>2024-06-25T12:51:26.482Z</time>
      </trkpt>
      <trkpt lat="46.77405" lon="-0.57459">
        <ele>191.3</ele>
        <time>2024-06-25T12:51:38.601Z</time>
      </trkpt>
      <trkpt lat="46.77408" lon="-0.57451">
        <ele>191.35</ele>
        <time>2024-06-25T12:51:50.721Z</time>
      </trkpt>
      <trkpt lat="46.77411" lon="-0.57444">
        <ele>191.4</ele>
        <time>2024-06-25T12:52:02.842Z</time>
      </trkpt>
      <trkpt lat="46.77414" lon="-0.57436">
        <ele>191.44</ele>
        <time>2024-06-25T12:52:14.964Z</time>
      </trkpt>
      <trkpt lat="46.77416" lon="-0.5743">
        <ele>191.49</ele>
        <time>2024-06-25T12:52:27.087Z</time>
      </trkpt>
      <trkpt lat="46.77419" lon="-0.57422">
        <ele>191.54</ele>
        <time>2024-06-25T12:52:39.212Z</time>
      </trkpt>
      <trkpt lat="46.77422" lon="-0.57415">
        <ele>191.59</ele>
        <time>2024-06-25T12:52:51.338Z</time>
      </trkpt>
      <trkpt lat="46.77425" lon="-0.57408">
        <ele>191.64</ele>
        <time>2024-06-25T12:53:03.465Z</time>
      </trkpt>
      <trkpt lat="46.77427" lon="-0.574">
        <ele>191.68</ele>
        <time>2024-06-25T12:53:15.593Z</time>
      </trkpt>
      <trkpt lat="46.7743" lon="-0.57393">
        <ele>191.73</ele>
        <time>2024-06-25T12:53:27.722Z</time>
      </trkpt>
      <trkpt lat="46.77432" lon="-0.57386">
        <ele>191.78</ele>
        <time>2024-06-25T12:53:39.852Z</time>
      </trkpt>
      <trkpt lat="46.77435" lon="-0.57379">
        <ele>191.83</ele>
        <time>2024-06-25T12:53:51.983Z</time>
      </trkpt>
      <trkpt lat="46.77437" lon="-0.57371">
        <ele>191.89</ele>
        <time>2024-06-25T12:54:04.115Z</time>
      </trkpt>
      <trkpt lat="46.7744" lon="-0.57364">
        <ele>191.94</ele>
        <time>2024-06-25T12:54:16.249Z</time>
      </trkpt>
      <trkpt lat="46.77442" lon="-0.57358">
        <ele>192</ele>
        <time>2024-06-25T12:54:28.384Z</time>
      </trkpt>
      <trkpt lat="46.77445" lon="-0.57351">
        <ele>192.06</ele>
        <time>2024-06-25T12:54:40.520Z</time>
      </trkpt>
      <trkpt lat="46.77448" lon="-0.57344">
        <ele>192.11</ele>
        <time>2024-06-25T12:54:52.657Z</time>
      </trkpt>
      <trkpt lat="46.77451" lon="-0.57337">
        <ele>192.17</ele>
        <time>2024-06-25T12:55:04.795Z</time>
      </trkpt>
      <trkpt lat="46.77453" lon="-0.5733">
        <ele>192.23</ele>
        <time>2024-06-25T12:55:16.934Z</time>
      </trkpt>
      <trkpt lat="46.77456" lon="-0.57322">
        <ele>192.29</ele>
        <time>2024-06-25T12:55:29.074Z</time>
      </trkpt>
      <trkpt lat="46.77459" lon="-0.57315">
        <ele>192.35</ele>
        <time>2024-06-25T12:55:41.215Z</time>
      </trkpt>
      <trkpt lat="46.77462" lon="-0.57308">
        <ele>192.41</ele>
        <time>2024-06-25T12:55:53.357Z</time>
      </trkpt>
      <trkpt lat="46.77464" lon="-0.57301">
        <ele>192.48</ele>
        <time>2024-06-25T12:56:05.501Z</time>
      </trkpt>
      <trkpt lat="46.77467" lon="-0.57293">
        <ele>192.54</ele>
        <time>2024-06-25T12:56:17.646Z</time>
      </trkpt>
      <trkpt lat="46.77469" lon="-0.57286">
        <ele>192.6</ele>
        <time>2024-06-25T12:56:29.792Z</time>
      </trkpt>
      <trkpt lat="46.77472" lon="-0.57278">
        <ele>192.66</ele>
        <time>2024-06-25T12:56:41.939Z</time>
      </trkpt>
      <trkpt lat="46.77475" lon="-0.57271">
        <ele>192.71</ele>
        <time>2024-06-25T12:56:54.087Z</time>
      </trkpt>
      <trkpt lat="46.77477" lon="-0.57264">
        <ele>192.76</ele>
        <time>2024-06-25T12:57:06.236Z</time>
      </trkpt>
      <trkpt lat="46.7748" lon="-0.57256">
        <ele>192.81</ele>
        <time>2024-06-25T12:57:18.386Z</time>
      </trkpt>
      <trkpt lat="46.77483" lon="-0.57249">
        <ele>192.86</ele>
        <time>2024-06-25T12:57:30.538Z</time>
      </trkpt>
      <trkpt lat="46.77485" lon="-0.57242">
        <ele>192.91</ele>
        <time>2024-06-25T12:57:42.691Z</time>
      </trkpt>
      <trkpt lat="46.77488" lon="-0.57234">
        <ele>192.95</ele>
        <time>2024-06-25T12:57:54.845Z</time>
      </trkpt>
      <trkpt lat="46.77491" lon="-0.57228">
        <ele>193</ele>
        <time>2024-06-25T12:58:07.000Z</time>
      </trkpt>
      <trkpt lat="46.77493" lon="-0.57221">
        <ele>193.04</ele>
        <time>2024-06-25T12:58:19.156Z</time>
      </trkpt>
      <trkpt lat="46.77496" lon="-0.57213">
        <ele>193.08</ele>
        <time>2024-06-25T12:58:31.313Z</time>
      </trkpt>
      <trkpt lat="46.77498" lon="-0.57206">
        <ele>193.12</ele>
        <time>2024-06-25T12:58:43.471Z</time>
      </trkpt>
      <trkpt lat="46.775" lon="-0.57198">
        <ele>193.15</ele>
        <time>2024-06-25T12:58:55.630Z</time>
      </trkpt>
      <trkpt lat="46.77503" lon="-0.57191">
        <ele>193.19</ele>
        <time>2024-06-25T12:59:07.791Z</time>
      </trkpt>
      <trkpt lat="46.77506" lon="-0.57183">
        <ele>193.23</ele>
        <time>2024-06-25T12:59:19.953Z</time>
      </trkpt>
      <trkpt lat="46.77508" lon="-0.57176">
        <ele>193.26</ele>
        <time>2024-06-25T12:59:32.116Z</time>
      </trkpt>
      <trkpt lat="46.77511" lon="-0.57168">
        <ele>193.29</ele>
        <time>2024-06-25T12:59:44.280Z</time>
      </trkpt>
      <trkpt lat="46.77514" lon="-0.57161">
        <ele>193.31</ele>
        <time>2024-06-25T12:59:56.445Z</time>
      </trkpt>
      <trkpt lat="46.77517" lon="-0.57154">
        <ele>193.32</ele>
        <time>2024-06-25T13:00:08.611Z</time>
      </trkpt>
      <trkpt lat="46.77519" lon="-0.57146">
        <ele>193.33</ele>
        <time>2024-06-25T13:00:20.779Z</time>
      </trkpt>
      <trkpt lat="46.77522" lon="-0.57139">
        <ele>193.33</ele>
        <time>2024-06-25T13:00:32.948Z</time>
      </trkpt>
      <trkpt lat="46.77524" lon="-0.57132">
        <ele>193.33</ele>
        <time>2024-06-25T13:00:45.118Z</time>
      </trkpt>
      <trkpt lat="46.77528" lon="-0.57125">
        <ele>193.33</ele>
        <time>2024-06-25T13:00:57.289Z</time>
      </trkpt>
      <trkpt lat="46.7753" lon="-0.57118">
        <ele>193.32</ele>
        <time>2024-06-25T13:01:09.461Z</time>
      </trkpt>
      <trkpt lat="46.77533" lon="-0.5711">
        <ele>193.3</ele>
        <time>2024-06-25T13:01:21.634Z</time>
      </trkpt>
      <trkpt lat="46.77536" lon="-0.57104">
        <ele>193.28</ele>
        <time>2024-06-25T13:01:33.808Z</time>
      </trkpt>
      <trkpt lat="46.77538" lon="-0.57097">
        <ele>193.25</ele>
        <time>2024-06-25T13:01:45.983Z</time>
      </trkpt>
      <trkpt lat="46.77541" lon="-0.5709">
        <ele>193.22</ele>
        <time>2024-06-25T13:01:58.159Z</time>
      </trkpt>
      <trkpt lat="46.77544" lon="-0.57083">
        <ele>193.19</ele>
        <time>2024-06-25T13:02:10.336Z</time>
      </trkpt>
      <trkpt lat="46.77546" lon="-0.57076">
        <ele>193.15</ele>
        <time>2024-06-25T13:02:22.515Z</time>
      </trkpt>
      <trkpt lat="46.77549" lon="-0.57069">
        <ele>193.11</ele>
        <time>2024-06-25T13:02:34.695Z</time>
      </trkpt>
      <trkpt lat="46.77552" lon="-0.57062">
        <ele>193.06</ele>
        <time>2024-06-25T13:02:46.876Z</time>
      </trkpt>
      <trkpt lat="46.77554" lon="-0.57055">
        <ele>193.02</ele>
        <time>2024-06-25T13:02:59.058Z</time>
      </trkpt>
      <trkpt lat="46.77557" lon="-0.57048">
        <ele>192.97</ele>
        <time>2024-06-25T13:03:11.241Z</time>
      </trkpt>
      <trkpt lat="46.7756" lon="-0.5704">
        <ele>192.92</ele>
        <time>2024-06-25T13:03:23.425Z</time>
      </trkpt>
      <trkpt lat="46.77562" lon="-0.57033">
        <ele>192.87</ele>
        <time>2024-06-25T13:03:35.610Z</time>
      </trkpt>
      <trkpt lat="46.77565" lon="-0.57026">
        <ele>192.82</ele>
        <time>2024-06-25T13:03:47.796Z</time>
      </trkpt>
      <trkpt lat="46.77567" lon="-0.57019">
        <ele>192.76</ele>
        <time>2024-06-25T13:03:59.984Z</time>
      </trkpt>
      <trkpt lat="46.7757" lon="-0.57012">
        <ele>192.7</ele>
        <time>2024-06-25T13:04:12.173Z</time>
      </trkpt>
      <trkpt lat="46.77573" lon="-0.57004">
        <ele>192.64</ele>
        <time>2024-06-25T13:04:24.363Z</time>
      </trkpt>
      <trkpt lat="46.77576" lon="-0.56997">
        <ele>192.58</ele>
        <time>2024-06-25T13:04:36.554Z</time>
      </trkpt>
      <trkpt lat="46.77578" lon="-0.5699">
        <ele>192.51</ele>
        <time>2024-06-25T13:04:48.746Z</time>
      </trkpt>
      <trkpt lat="46.77581" lon="-0.56983">
        <ele>192.45</ele>
        <time>2024-06-25T13:05:00.939Z</time>
      </trkpt>
      <trkpt lat="46.77584" lon="-0.56977">
        <ele>192.38</ele>
        <time>2024-06-25T13:05:13.133Z</time>
      </trkpt>
      <trkpt lat="46.77586" lon="-0.5697">
        <ele>192.3</ele>
        <time>2024-06-25T13:05:25.328Z</time>
      </trkpt>
      <trkpt lat="46.77589" lon="-0.56964">
        <ele>192.22</ele>
        <time>2024-06-25T13:05:37.524Z</time>
      </trkpt>
      <trkpt lat="46.77591" lon="-0.56957">
        <ele>192.15</ele>
        <time>2024-06-25T13:05:49.721Z</time>
      </trkpt>
      <trkpt lat="46.77594" lon="-0.5695">
        <ele>192.06</ele>
        <time>2024-06-25T13:06:01.919Z</time>
      </trkpt>
      <trkpt lat="46.77597" lon="-0.56942">
        <ele>191.98</ele>
        <time>2024-06-25T13:06:14.119Z</time>
      </trkpt>
      <trkpt lat="46.77599" lon="-0.56935">
        <ele>191.9</ele>
        <time>2024-06-25T13:06:26.320Z</time>
      </trkpt>
      <trkpt lat="46.77602" lon="-0.56929">
        <ele>191.81</ele>
        <time>2024-06-25T13:06:38.522Z</time>
      </trkpt>
      <trkpt lat="46.77605" lon="-0.56922">
        <ele>191.73</ele>
        <time>2024-06-25T13:06:50.725Z</time>
      </trkpt>
      <trkpt lat="46.77607" lon="-0.56916">
        <ele>191.65</ele>
        <time>2024-06-25T13:07:02.929Z</time>
      </trkpt>
      <trkpt lat="46.77609" lon="-0.5691">
        <ele>191.57</ele>
        <time>2024-06-25T13:07:15.134Z</time>
      </trkpt>
      <trkpt lat="46.77609" lon="-0.56906">
        <ele>191.5</ele>
        <time>2024-06-25T13:07:27.339Z</time>
      </trkpt>
      <trkpt lat="46.77607" lon="-0.56903">
        <ele>191.42</ele>
        <time>2024-06-25T13:07:39.545Z</time>
      </trkpt>
      <trkpt lat="46.77605" lon="-0.56901">
        <ele>191.34</ele>
        <time>2024-06-25T13:07:51.751Z</time>
      </trkpt>
      <trkpt lat="46.77604" lon="-0.56898">
        <ele>191.27</ele>
        <time>2024-06-25T13:08:03.958Z</time>
      </trkpt>
      <trkpt lat="46.77604" lon="-0.56895">
        <ele>191.2</ele>
        <time>2024-06-25T13:08:16.165Z</time>
      </trkpt>
      <trkpt lat="46.77604" lon="-0.56891">
        <ele>191.13</ele>
        <time>2024-06-25T13:08:28.373Z</time>
      </trkpt>
      <trkpt lat="46.77604" lon="-0.56887">
        <ele>191.06</ele>
        <time>2024-06-25T13:08:40.581Z</time>
      </trkpt>
      <trkpt lat="46.77605" lon="-0.56882">
        <ele>191</ele>
        <time>2024-06-25T13:08:52.790Z</time>
      </trkpt>
      <trkpt lat="46.77606" lon="-0.56878">
        <ele>190.94</ele>
        <time>2024-06-25T13:09:04.999Z</time>
      </trkpt>
      <trkpt lat="46.77606" lon="-0.56874">
        <ele>190.88</ele>
        <time>2024-06-25T13:09:17.209Z</time>
      </trkpt>
      <trkpt lat="46.77608" lon="-0.5687">
        <ele>190.83</ele>
        <time>2024-06-25T13:09:29.420Z</time>
      </trkpt>
      <trkpt lat="46.77611" lon="-0.56866">
        <ele>190.78</ele>
        <time>2024-06-25T13:09:41.631Z</time>
      </trkpt>
      <trkpt lat="46.77614" lon="-0.56865">
        <ele>190.74</ele>
        <time>2024-06-25T13:09:53.843Z</time>
      </trkpt>
      <trkpt lat="46.77617" lon="-0.56863">
        <ele>190.7</ele>
        <time>2024-06-25T13:10:06.056Z</time>
      </trkpt>
      <trkpt lat="46.77618" lon="-0.5686">
        <ele>190.66</ele>
        <time>2024-06-25T13:10:18.269Z</time>
      </trkpt>
      <trkpt lat="46.77619" lon="-0.56857">
        <ele>190.62</ele>
        <time>2024-06-25T13:10:30.483Z</time>
      </trkpt>
      <trkpt lat="46.77621" lon="-0.56855">
        <ele>190.59</ele>
        <time>2024-06-25T13:10:42.697Z</time>
      </trkpt>
      <trkpt lat="46.77624" lon="-0.56853">
        <ele>190.57</ele>
        <time>2024-06-25T13:10:54.912Z</time>
      </trkpt>
      <trkpt lat="46.77626" lon="-0.56851">
        <ele>190.56</ele>
        <time>2024-06-25T13:11:07.127Z</time>
      </trkpt>
      <trkpt lat="46.77629" lon="-0.56848">
        <ele>190.54</ele>
        <time>2024-06-25T13:11:19.343Z</time>
      </trkpt>
      <trkpt lat="46.77632" lon="-0.56844">
        <ele>190.53</ele>
        <time>2024-06-25T13:11:31.560Z</time>
      </trkpt>
      <trkpt lat="46.77634" lon="-0.5684">
        <ele>190.53</ele>
        <time>2024-06-25T13:11:43.778Z</time>
      </trkpt>
      <trkpt lat="46.77636" lon="-0.56834">
        <ele>190.53</ele>
        <time>2024-06-25T13:11:55.996Z</time>
      </trkpt>
      <trkpt lat="46.77638" lon="-0.56829">
        <ele>190.54</ele>
        <time>2024-06-25T13:12:08.215Z</time>
      </trkpt>
      <trkpt lat="46.7764" lon="-0.56823">
        <ele>190.55</ele>
        <time>2024-06-25T13:12:20.435Z</time>
      </trkpt>
      <trkpt lat="46.77642" lon="-0.56817">
        <ele>190.57</ele>
        <time>2024-06-25T13:12:32.656Z</time>
      </trkpt>
      <trkpt lat="46.77644" lon="-0.56812">
        <ele>190.6</ele>
        <time>2024-06-25T13:12:44.878Z</time>
      </trkpt>
      <trkpt lat="46.77647" lon="-0.56807">
        <ele>190.64</ele>
        <time>2024-06-25T13:12:57.101Z</time>
      </trkpt>
      <trkpt lat="46.77649" lon="-0.56801">
        <ele>190.68</ele>
        <time>2024-06-25T13:13:09.325Z</time>
      </trkpt>
      <trkpt lat="46.77651" lon="-0.56795">
        <ele>190.73</ele>
        <time>2024-06-25T13:13:21.550Z</time>
      </trkpt>
      <trkpt lat="46.77653" lon="-0.56789">
        <ele>190.79</ele>
        <time>2024-06-25T13:13:33.776Z</time>
      </trkpt>
      <trkpt lat="46.77656" lon="-0.56783">
        <ele>190.85</ele>
        <time>2024-06-25T13:13:46.003Z</time>
      </trkpt>
      <trkpt lat="46.77658" lon="-0.56777">
        <ele>190.92</ele>
        <time>2024-06-25T13:13:58.230Z</time>
      </trkpt>
      <trkpt lat="46.7766" lon="-0.56771">
        <ele>191.01</ele>
        <time>2024-06-25T13:14:10.458Z</time>
      </trkpt>
      <trkpt lat="46.77663" lon="-0.56765">
        <ele>191.1</ele>
        <time>2024-06-25T13:14:22.687Z</time>
      </trkpt>
      <trkpt lat="46.77664" lon="-0.5676">
        <ele>191.19</ele>
        <time>2024-06-25T13:14:34.917Z</time>
      </trkpt>
      <trkpt lat="46.77666" lon="-0.56754">
        <ele>191.3</ele>
        <time>2024-06-25T13:14:47.148Z</time>
      </trkpt>
      <trkpt lat="46.77668" lon="-0.56747">
        <ele>191.4</ele>
        <time>2024-06-25T13:14:59.380Z</time>
      </trkpt>
      <trkpt lat="46.77671" lon="-0.56741">
        <ele>191.52</ele>
        <time>2024-06-25T13:15:11.613Z</time>
      </trkpt>
      <trkpt lat="46.77673" lon="-0.56735">
        <ele>191.64</ele>
        <time>2024-06-25T13:15:23.847Z</time>
      </trkpt>
      <trkpt lat="46.77676" lon="-0.56728">
        <ele>191.77</ele>
        <time>2024-06-25T13:15:36.082Z</time>
      </trkpt>
      <trkpt lat="46.77679" lon="-0.56722">
        <ele>191.91</ele>
        <time>2024-06-25T13:15:48.318Z</time>
      </trkpt>
      <trkpt lat="46.77682" lon="-0.56716">
        <ele>192.06</ele>
        <time>2024-06-25T13:16:00.555Z</time>
      </trkpt>
      <trkpt lat="46.77684" lon="-0.5671">
        <ele>192.21</ele>
        <time>2024-06-25T13:16:12.793Z</time>
      </trkpt>
      <trkpt lat="46.77687" lon="-0.56704">
        <ele>192.37</ele>
        <time>2024-06-25T13:16:25.032Z</time>
      </trkpt>
      <trkpt lat="46.7769" lon="-0.56698">
        <ele>192.54</ele>
        <time>2024-06-25T13:16:37.272Z</time>
      </trkpt>
      <trkpt lat="46.77693" lon="-0.56692">
        <ele>192.72</ele>
        <time>2024-06-25T13:16:49.513Z</time>
      </trkpt>
      <trkpt lat="46.77696" lon="-0.56686">
        <ele>192.89</ele>
        <time>2024-06-25T13:17:01.755Z</time>
      </trkpt>
      <trkpt lat="46.77698" lon="-0.5668">
        <ele>193.08</ele>
        <time>2024-06-25T13:17:13.998Z</time>
      </trkpt>
      <trkpt lat="46.77701" lon="-0.56674">
        <ele>193.26</ele>
        <time>2024-06-25T13:17:26.242Z</time>
      </trkpt>
      <trkpt lat="46.77704" lon="-0.56669">
        <ele>193.46</ele>
        <time>2024-06-25T13:17:38.487Z</time>
      </trkpt>
      <trkpt lat="46.77707" lon="-0.56663">
        <ele>193.67</ele>
        <time>2024-06-25T13:17:50.733Z</time>
      </trkpt>
      <trkpt lat="46.7771" lon="-0.56658">
        <ele>193.88</ele>
        <time>2024-06-25T13:18:02.980Z</time>
      </trkpt>
      <trkpt lat="46.77713" lon="-0.56652">
        <ele>194.1</ele>
        <time>2024-06-25T13:18:15.228Z</time>
      </trkpt>
      <trkpt lat="46.77717" lon="-0.56647">
        <ele>194.32</ele>
        <time>2024-06-25T13:18:27.477Z</time>
      </trkpt>
      <trkpt lat="46.7772" lon="-0.56642">
        <ele>194.55</ele>
        <time>2024-06-25T13:18:39.727Z</time>
      </trkpt>
      <trkpt lat="46.77722" lon="-0.56636">
        <ele>194.78</ele>
        <time>2024-06-25T13:18:51.978Z</time>
      </trkpt>
      <trkpt lat="46.77726" lon="-0.56631">
        <ele>195.01</ele>
        <time>2024-06-25T13:19:04.230Z</time>
      </trkpt>
      <trkpt lat="46.77729" lon="-0.56626">
        <ele>195.25</ele>
        <time>2024-06-25T13:19:16.483Z</time>
      </trkpt>
      <trkpt lat="46.77732" lon="-0.56621">
        <ele>195.49</ele>
        <time>2024-06-25T13:19:28.737Z</time>
      </trkpt>
      <trkpt lat="46.77736" lon="-0.56615">
        <ele>195.73</ele>
        <time>2024-06-25T13:19:40.992Z</time>
      </trkpt>
      <trkpt lat="46.7774" lon="-0.5661">
        <ele>195.97</ele>
        <time>2024-06-25T13:19:53.248Z</time>
      </trkpt>
      <trkpt lat="46.77743" lon="-0.56605">
        <ele>196.22</ele>
        <time>2024-06-25T13:20:05.505Z</time>
      </trkpt>
      <trkpt lat="46.77746" lon="-0.566">
        <ele>196.47</ele>
        <time>2024-06-25T13:20:17.763Z</time>
      </trkpt>
      <trkpt lat="46.7775" lon="-0.56595">
        <ele>196.72</ele>
        <time>2024-06-25T13:20:30.022Z</time>
      </trkpt>
      <trkpt lat="46.77753" lon="-0.5659">
        <ele>196.97</ele>
        <time>2024-06-25T13:20:42.282Z</time>
      </trkpt>
      <trkpt lat="46.77756" lon="-0.56585">
        <ele>197.23</ele>
        <time>2024-06-25T13:20:54.543Z</time>
      </trkpt>
      <trkpt lat="46.7776" lon="-0.5658">
        <ele>197.47</ele>
        <time>2024-06-25T13:21:06.805Z</time>
      </trkpt>
      <trkpt lat="46.77763" lon="-0.56575">
        <ele>197.72</ele>
        <time>2024-06-25T13:21:19.067Z</time>
      </trkpt>
      <trkpt lat="46.77766" lon="-0.56569">
        <ele>197.96</ele>
        <time>2024-06-25T13:21:31.330Z</time>
      </trkpt>
      <trkpt lat="46.7777" lon="-0.56564">
        <ele>198.21</ele>
        <time>2024-06-25T13:21:43.594Z</time>
      </trkpt>
      <trkpt lat="46.77774" lon="-0.56559">
        <ele>198.45</ele>
        <time>2024-06-25T13:21:55.860Z</time>
      </trkpt>
      <trkpt lat="46.77777" lon="-0.56554">
        <ele>198.69</ele>
        <time>2024-06-25T13:22:08.127Z</time>
      </trkpt>
      <trkpt lat="46.77781" lon="-0.56549">
        <ele>198.92</ele>
        <time>2024-06-25T13:22:20.395Z</time>
      </trkpt>
      <trkpt lat="46.77785" lon="-0.56543">
        <ele>199.15</ele>
        <time>2024-06-25T13:22:32.664Z</time>
      </trkpt>
      <trkpt lat="46.77788" lon="-0.56539">
        <ele>199.38</ele>
        <time>2024-06-25T13:22:44.934Z</time>
      </trkpt>
      <trkpt lat="46.77792" lon="-0.56533">
        <ele>199.61</ele>
        <time>2024-06-25T13:22:57.205Z</time>
      </trkpt>
      <trkpt lat="46.77795" lon="-0.56528">
        <ele>199.83</ele>
        <time>2024-06-25T13:23:09.477Z</time>
      </trkpt>
      <trkpt lat="46.77799" lon="-0.56523">
        <ele>200.05</ele>
        <time>2024-06-25T13:23:21.750Z</time>
      </trkpt>
      <trkpt lat="46.77803" lon="-0.56518">
        <ele>200.27</ele>
        <time>2024-06-25T13:23:34.024Z</time>
      </trkpt>
      <trkpt lat="46.77807" lon="-0.56512">
        <ele>200.48</ele>
        <time>2024-06-25T13:23:46.299Z</time>
      </trkpt>
      <trkpt lat="46.7781" lon="-0.56507">
        <ele>200.68</ele>
        <time>2024-06-25T13:23:58.575Z</time>
      </trkpt>
      <trkpt lat="46.77814" lon="-0.56502">
        <ele>200.88</ele>
        <time>2024-06-25T13:24:10.852Z</time>
      </trkpt>
      <trkpt lat="46.77818" lon="-0.56497">
        <ele>201.07</ele>
        <time>2024-06-25T13:24:23.130Z</time>
      </trkpt>
      <trkpt lat="46.77822" lon="-0.56491">
        <ele>201.26</ele>
        <time>2024-06-25T13:24:35.409Z</time>
      </trkpt>
      <trkpt lat="46.77825" lon="-0.56486">
        <ele>201.44</ele>
        <time>2024-06-25T13:24:47.689Z</time>
      </trkpt>
      <trkpt lat="46.77829" lon="-0.56481">
        <ele>201.61</ele>
        <time>2024-06-25T13:24:59.970Z</time>
      </trkpt>
      <trkpt lat="46.77833" lon="-0.56476">
        <ele>201.77</ele>
        <time>2024-06-25T13:25:12.252Z</time>
      </trkpt>
      <trkpt lat="46.77836" lon="-0.56471">
        <ele>201.93</ele>
        <time>2024-06-25T13:25:24.535Z</time>
      </trkpt>
      <trkpt lat="46.77839" lon="-0.56466">
        <ele>202.09</ele>
        <time>2024-06-25T13:25:36.819Z</time>
      </trkpt>
      <trkpt lat="46.77842" lon="-0.56463">
        <ele>202.23</ele>
        <time>2024-06-25T13:25:49.104Z</time>
      </trkpt>
      <trkpt lat="46.77846" lon="-0.56458">
        <ele>202.37</ele>
        <time>2024-06-25T13:26:01.390Z</time>
      </trkpt>
      <trkpt lat="46.7785" lon="-0.56452">
        <ele>202.51</ele>
        <time>2024-06-25T13:26:13.677Z</time>
      </trkpt>
      <trkpt lat="46.77854" lon="-0.56447">
        <ele>202.64</ele>
        <time>2024-06-25T13:26:25.965Z</time>
      </trkpt>
      <trkpt lat="46.77857" lon="-0.56442">
        <ele>202.76</ele>
        <time>2024-06-25T13:26:38.254Z</time>
      </trkpt>
      <trkpt lat="46.77861" lon="-0.56438">
        <ele>202.87</ele>
        <time>2024-06-25T13:26:50.544Z</time>
      </trkpt>
      <trkpt lat="46.77864" lon="-0.56434">
        <ele>202.97</ele>
        <time>2024-06-25T13:27:02.834Z</time>
      </trkpt>
      <trkpt lat="46.77867" lon="-0.5643">
        <ele>203.07</ele>
        <time>2024-06-25T13:27:15.125Z</time>
      </trkpt>
      <trkpt lat="46.77869" lon="-0.56426">
        <ele>203.15</ele>
        <time>2024-06-25T13:27:27.417Z</time>
      </trkpt>
      <trkpt lat="46.77872" lon="-0.56422">
        <ele>203.24</ele>
        <time>2024-06-25T13:27:39.710Z</time>
      </trkpt>
      <trkpt lat="46.77876" lon="-0.56417">
        <ele>203.31</ele>
        <time>2024-06-25T13:27:52.004Z</time>
      </trkpt>
      <trkpt lat="46.77879" lon="-0.56412">
        <ele>203.37</ele>
        <time>2024-06-25T13:28:04.299Z</time>
      </trkpt>
      <trkpt lat="46.77882" lon="-0.56407">
        <ele>203.43</ele>
        <time>2024-06-25T13:28:16.595Z</time>
      </trkpt>
      <trkpt lat="46.77885" lon="-0.56403">
        <ele>203.47</ele>
        <time>2024-06-25T13:28:28.892Z</time>
      </trkpt>
      <trkpt lat="46.77889" lon="-0.56398">
        <ele>203.51</ele>
        <time>2024-06-25T13:28:41.189Z</time>
      </trkpt>
      <trkpt lat="46.77892" lon="-0.56393">
        <ele>203.54</ele>
        <time>2024-06-25T13:28:53.487Z</time>
      </trkpt>
      <trkpt lat="46.77895" lon="-0.56388">
        <ele>203.57</ele>
        <time>2024-06-25T13:29:05.786Z</time>
      </trkpt>
      <trkpt lat="46.77899" lon="-0.56382">
        <ele>203.58</ele>
        <time>2024-06-25T13:29:18.086Z</time>
      </trkpt>
      <trkpt lat="46.77902" lon="-0.56378">
        <ele>203.59</ele>
        <time>2024-06-25T13:29:30.387Z</time>
      </trkpt>
      <trkpt lat="46.77905" lon="-0.56373">
        <ele>203.58</ele>
        <time>2024-06-25T13:29:42.689Z</time>
      </trkpt>
      <trkpt lat="46.77909" lon="-0.56368">
        <ele>203.57</ele>
        <time>2024-06-25T13:29:54.992Z</time>
      </trkpt>
      <trkpt lat="46.77913" lon="-0.56364">
        <ele>203.55</ele>
        <time>2024-06-25T13:30:07.296Z</time>
      </trkpt>
      <trkpt lat="46.77916" lon="-0.56359">
        <ele>203.53</ele>
        <time>2024-06-25T13:30:19.601Z</time>
      </trkpt>
      <trkpt lat="46.7792" lon="-0.56353">
        <ele>203.49</ele>
        <time>2024-06-25T13:30:31.907Z</time>
      </trkpt>
      <trkpt lat="46.77925" lon="-0.56347">
        <ele>203.45</ele>
        <time>2024-06-25T13:30:44.215Z</time>
      </trkpt>
      <trkpt lat="46.77928" lon="-0.56343">
        <ele>203.4</ele>
        <time>2024-06-25T13:30:56.523Z</time>
      </trkpt>
      <trkpt lat="46.77932" lon="-0.56338">
        <ele>203.34</ele>
        <time>2024-06-25T13:31:08.832Z</time>
      </trkpt>
      <trkpt lat="46.77936" lon="-0.56333">
        <ele>203.27</ele>
        <time>2024-06-25T13:31:21.142Z</time>
      </trkpt>
      <trkpt lat="46.77939" lon="-0.56328">
        <ele>203.18</ele>
        <time>2024-06-25T13:31:33.454Z</time>
      </trkpt>
      <trkpt lat="46.77943" lon="-0.56323">
        <ele>203.09</ele>
        <time>2024-06-25T13:31:45.767Z</time>
      </trkpt>
      <trkpt lat="46.77946" lon="-0.56318">
        <ele>203</ele>
        <time>2024-06-25T13:31:58.080Z</time>
      </trkpt>
      <trkpt lat="46.7795" lon="-0.56314">
        <ele>202.89</ele>
        <time>2024-06-25T13:32:10.394Z</time>
      </trkpt>
      <trkpt lat="46.77954" lon="-0.56308">
        <ele>202.78</ele>
        <time>2024-06-25T13:32:22.709Z</time>
      </trkpt>
      <trkpt lat="46.77958" lon="-0.56302">
        <ele>202.67</ele>
        <time>2024-06-25T13:32:35.026Z</time>
      </trkpt>
      <trkpt lat="46.77962" lon="-0.56296">
        <ele>202.54</ele>
        <time>2024-06-25T13:32:47.344Z</time>
      </trkpt>
      <trkpt lat="46.77966" lon="-0.5629">
        <ele>202.42</ele>
        <time>2024-06-25T13:32:59.663Z</time>
      </trkpt>
      <trkpt lat="46.7797" lon="-0.56285">
        <ele>202.29</ele>
        <time>2024-06-25T13:33:11.983Z</time>
      </trkpt>
      <trkpt lat="46.77973" lon="-0.5628">
        <ele>202.15</ele>
        <time>2024-06-25T13:33:24.304Z</time>
      </trkpt>
      <trkpt lat="46.77977" lon="-0.56275">
        <ele>202.01</ele>
        <time>2024-06-25T13:33:36.626Z</time>
      </trkpt>
      <trkpt lat="46.77981" lon="-0.5627">
        <ele>201.87</ele>
        <time>2024-06-25T13:33:48.949Z</time>
      </trkpt>
      <trkpt lat="46.77985" lon="-0.56264">
        <ele>201.73</ele>
        <time>2024-06-25T13:34:01.273Z</time>
      </trkpt>
      <trkpt lat="46.77989" lon="-0.5626">
        <ele>201.59</ele>
        <time>2024-06-25T13:34:13.598Z</time>
      </trkpt>
      <trkpt lat="46.77992" lon="-0.56256">
        <ele>201.44</ele>
        <time>2024-06-25T13:34:25.924Z</time>
      </trkpt>
      <trkpt lat="46.77996" lon="-0.5625">
        <ele>201.29</ele>
        <time>2024-06-25T13:34:38.251Z</time>
      </trkpt>
      <trkpt lat="46.78" lon="-0.56244">
        <ele>201.14</ele>
        <time>2024-06-25T13:34:50.579Z</time>
      </trkpt>
      <trkpt lat="46.78004" lon="-0.56238">
        <ele>200.98</ele>
        <time>2024-06-25T13:35:02.909Z</time>
      </trkpt>
      <trkpt lat="46.78008" lon="-0.56232">
        <ele>200.83</ele>
        <time>2024-06-25T13:35:15.240Z</time>
      </trkpt>
      <trkpt lat="46.78013" lon="-0.56227">
        <ele>200.67</ele>
        <time>2024-06-25T13:35:27.572Z</time>
      </trkpt>
      <trkpt lat="46.78017" lon="-0.56222">
        <ele>200.51</ele>
        <time>2024-06-25T13:35:39.905Z</time>
      </trkpt>
      <trkpt lat="46.78021" lon="-0.56215">
        <ele>200.34</ele>
        <time>2024-06-25T13:35:52.239Z</time>
      </trkpt>
      <trkpt lat="46.78025" lon="-0.5621">
        <ele>200.17</ele>
        <time>2024-06-25T13:36:04.574Z</time>
      </trkpt>
      <trkpt lat="46.78029" lon="-0.56204">
        <ele>200.01</ele>
        <time>2024-06-25T13:36:16.910Z</time>
      </trkpt>
      <trkpt lat="46.78033" lon="-0.56199">
        <ele>199.84</ele>
        <time>2024-06-25T13:36:29.247Z</time>
      </trkpt>
      <trkpt lat="46.78037" lon="-0.56193">
        <ele>199.67</ele>
        <time>2024-06-25T13:36:41.585Z</time>
      </trkpt>
      <trkpt lat="46.7804" lon="-0.56189">
        <ele>199.51</ele>
        <time>2024-06-25T13:36:53.924Z</time>
      </trkpt>
      <trkpt lat="46.78043" lon="-0.56185">
        <ele>199.35</ele>
        <time>2024-06-25T13:37:06.264Z</time>
      </trkpt>
      <trkpt lat="46.78047" lon="-0.5618">
        <ele>199.18</ele>
        <time>2024-06-25T13:37:18.605Z</time>
      </trkpt>
      <trkpt lat="46.7805" lon="-0.56176">
        <ele>199.02</ele>
        <time>2024-06-25T13:37:30.947Z</time>
      </trkpt>
      <trkpt lat="46.78053" lon="-0.56171">
        <ele>198.86</ele>
        <time>2024-06-25T13:37:43.290Z</time>
      </trkpt>
      <trkpt lat="46.78057" lon="-0.56166">
        <ele>198.7</ele>
        <time>2024-06-25T13:37:55.634Z</time>
      </trkpt>
      <trkpt lat="46.7806" lon="-0.56162">
        <ele>198.54</ele>
        <time>2024-06-25T13:38:07.979Z</time>
      </trkpt>
      <trkpt lat="46.78063" lon="-0.56158">
        <ele>198.38</ele>
        <time>2024-06-25T13:38:20.325Z</time>
      </trkpt>
      <trkpt lat="46.78065" lon="-0.56154">
        <ele>198.23</ele>
        <time>2024-06-25T13:38:32.671Z</time>
      </trkpt>
      <trkpt lat="46.78067" lon="-0.56151">
        <ele>198.07</ele>
        <time>2024-06-25T13:38:45.018Z</time>
      </trkpt>
      <trkpt lat="46.78069" lon="-0.56147">
        <ele>197.92</ele>
        <time>2024-06-25T13:38:57.365Z</time>
      </trkpt>
      <trkpt lat="46.78072" lon="-0.56144">
        <ele>197.77</ele>
        <time>2024-06-25T13:39:09.713Z</time>
      </trkpt>
      <trkpt lat="46.78074" lon="-0.5614">
        <ele>197.62</ele>
        <time>2024-06-25T13:39:22.062Z</time>
      </trkpt>
      <trkpt lat="46.78077" lon="-0.56137">
        <ele>197.48</ele>
        <time>2024-06-25T13:39:34.412Z</time>
      </trkpt>
      <trkpt lat="46.7808" lon="-0.56134">
        <ele>197.34</ele>
        <time>2024-06-25T13:39:46.762Z</time>
      </trkpt>
      <trkpt lat="46.78082" lon="-0.5613">
        <ele>197.2</ele>
        <time>2024-06-25T13:39:59.113Z</time>
      </trkpt>
      <trkpt lat="46.78084" lon="-0.56127">
        <ele>197.06</ele>
        <time>2024-06-25T13:40:11.465Z</time>
      </trkpt>
      <trkpt lat="46.78086" lon="-0.56123">
        <ele>196.92</ele>
        <time>2024-06-25T13:40:23.817Z</time>
      </trkpt>
      <trkpt lat="46.78089" lon="-0.56119">
        <ele>196.79</ele>
        <time>2024-06-25T13:40:36.170Z</time>
      </trkpt>
      <trkpt lat="46.78091" lon="-0.56116">
        <ele>196.66</ele>
        <time>2024-06-25T13:40:48.524Z</time>
      </trkpt>
      <trkpt lat="46.78093" lon="-0.56112">
        <ele>196.53</ele>
        <time>2024-06-25T13:41:00.878Z</time>
      </trkpt>
      <trkpt lat="46.78095" lon="-0.56109">
        <ele>196.41</ele>
        <time>2024-06-25T13:41:13.233Z</time>
      </trkpt>
      <trkpt lat="46.78098" lon="-0.56106">
        <ele>196.29</ele>
        <time>2024-06-25T13:41:25.589Z</time>
      </trkpt>
      <trkpt lat="46.781" lon="-0.56103">
        <ele>196.17</ele>
        <time>2024-06-25T13:41:37.945Z</time>
      </trkpt>
      <trkpt lat="46.78102" lon="-0.56099">
        <ele>196.06</ele>
        <time>2024-06-25T13:41:50.302Z</time>
      </trkpt>
      <trkpt lat="46.78105" lon="-0.56095">
        <ele>195.94</ele>
        <time>2024-06-25T13:42:02.660Z</time>
      </trkpt>
      <trkpt lat="46.78107" lon="-0.56092">
        <ele>195.84</ele>
        <time>2024-06-25T13:42:15.018Z</time>
      </trkpt>
      <trkpt lat="46.78108" lon="-0.56089">
        <ele>195.73</ele>
        <time>2024-06-25T13:42:27.377Z</time>
      </trkpt>
      <trkpt lat="46.78109" lon="-0.56087">
        <ele>195.63</ele>
        <time>2024-06-25T13:42:39.736Z</time>
      </trkpt>
      <trkpt lat="46.78109" lon="-0.56086">
        <ele>195.53</ele>
        <time>2024-06-25T13:42:52.095Z</time>
      </trkpt>
      <trkpt lat="46.78108" lon="-0.56084">
        <ele>195.44</ele>
        <time>2024-06-25T13:43:04.454Z</time>
      </trkpt>
      <trkpt lat="46.78108" lon="-0.56081">
        <ele>195.35</ele>
        <time>2024-06-25T13:43:16.814Z</time>
      </trkpt>
      <trkpt lat="46.78108" lon="-0.56079">
        <ele>195.26</ele>
        <time>2024-06-25T13:43:29.174Z</time>
      </trkpt>
      <trkpt lat="46.78109" lon="-0.56077">
        <ele>195.18</ele>
        <time>2024-06-25T13:43:41.534Z</time>
      </trkpt>
      <trkpt lat="46.7811" lon="-0.56075">
        <ele>195.11</ele>
        <time>2024-06-25T13:43:53.895Z</time>
      </trkpt>
      <trkpt lat="46.78112" lon="-0.56072">
        <ele>195.03</ele>
        <time>2024-06-25T13:44:06.256Z</time>
      </trkpt>
      <trkpt lat="46.78113" lon="-0.56069">
        <ele>194.96</ele>
        <time>2024-06-25T13:44:18.618Z</time>
      </trkpt>
      <trkpt lat="46.78114" lon="-0.56066">
        <ele>194.9</ele>
        <time>2024-06-25T13:44:30.980Z</time>
      </trkpt>
      <trkpt lat="46.78116" lon="-0.56062">
        <ele>194.84</ele>
        <time>2024-06-25T13:44:43.343Z</time>
      </trkpt>
      <trkpt lat="46.78119" lon="-0.56057">
        <ele>194.78</ele>
        <time>2024-06-25T13:44:55.707Z</time>
      </trkpt>
      <trkpt lat="46.78122" lon="-0.56052">
        <ele>194.72</ele>
        <time>2024-06-25T13:45:08.072Z</time>
      </trkpt>
      <trkpt lat="46.78125" lon="-0.56047">
        <ele>194.67</ele>
        <time>2024-06-25T13:45:20.438Z</time>
      </trkpt>
      <trkpt lat="46.78128" lon="-0.56042">
        <ele>194.63</ele>
        <time>2024-06-25T13:45:32.805Z</time>
      </trkpt>
      <trkpt lat="46.7813" lon="-0.56037">
        <ele>194.59</ele>
        <time>2024-06-25T13:45:45.172Z</time>
      </trkpt>
      <trkpt lat="46.78134" lon="-0.56032">
        <ele>194.55</ele>
        <time>2024-06-25T13:45:57.540Z</time>
      </trkpt>
      <trkpt lat="46.78138" lon="-0.56027">
        <ele>194.52</ele>
        <time>2024-06-25T13:46:09.909Z</time>
      </trkpt>
      <trkpt lat="46.78141" lon="-0.56024">
        <ele>194.5</ele>
        <time>2024-06-25T13:46:22.279Z</time>
      </trkpt>
      <trkpt lat="46.78144" lon="-0.56018">
        <ele>194.48</ele>
        <time>2024-06-25T13:46:34.650Z</time>
      </trkpt>
      <trkpt lat="46.78148" lon="-0.56012">
        <ele>194.47</ele>
        <time>2024-06-25T13:46:47.022Z</time>
      </trkpt>
      <trkpt lat="46.78152" lon="-0.56006">
        <ele>194.45</ele>
        <time>2024-06-25T13:46:59.396Z</time>
      </trkpt>
      <trkpt lat="46.78154" lon="-0.56002">
        <ele>194.45</ele>
        <time>2024-06-25T13:47:11.770Z</time>
      </trkpt>
      <trkpt lat="46.78157" lon="-0.55998">
        <ele>194.44</ele>
        <time>2024-06-25T13:47:24.145Z</time>
      </trkpt>
      <trkpt lat="46.78159" lon="-0.55996">
        <ele>194.44</ele>
        <time>2024-06-25T13:47:36.521Z</time>
      </trkpt>
      <trkpt lat="46.78163" lon="-0.55991">
        <ele>194.44</ele>
        <time>2024-06-25T13:47:48.898Z</time>
      </trkpt>
      <trkpt lat="46.78165" lon="-0.55987">
        <ele>194.44</ele>
        <time>2024-06-25T13:48:01.275Z</time>
      </trkpt>
      <trkpt lat="46.78168" lon="-0.55982">
        <ele>194.45</ele>
        <time>2024-06-25T13:48:13.653Z</time>
      </trkpt>
      <trkpt lat="46.78171" lon="-0.55975">
        <ele>194.47</ele>
        <time>2024-06-25T13:48:26.032Z</time>
      </trkpt>
      <trkpt lat="46.78174" lon="-0.5597">
        <ele>194.49</ele>
        <time>2024-06-25T13:48:38.412Z</time>
      </trkpt>
      <trkpt lat="46.78177" lon="-0.55966">
        <ele>194.51</ele>
        <time>2024-06-25T13:48:50.793Z</time>
      </trkpt>
      <trkpt lat="46.7818" lon="-0.55964">
        <ele>194.54</ele>
        <time>2024-06-25T13:49:03.175Z</time>
      </trkpt>
      <trkpt lat="46.78183" lon="-0.55963">
        <ele>194.58</ele>
        <time>2024-06-25T13:49:15.557Z</time>
      </trkpt>
      <trkpt lat="46.78186" lon="-0.55964">
        <ele>194.62</ele>
        <time>2024-06-25T13:49:27.940Z</time>
      </trkpt>
      <trkpt lat="46.78189" lon="-0.55966">
        <ele>194.66</ele>
        <time>2024-06-25T13:49:40.324Z</time>
      </trkpt>
      <trkpt lat="46.78192" lon="-0.55969">
        <ele>194.71</ele>
        <time>2024-06-25T13:49:52.708Z</time>
      </trkpt>
      <trkpt lat="46.78194" lon="-0.55972">
        <ele>194.77</ele>
        <time>2024-06-25T13:50:05.093Z</time>
      </trkpt>
      <trkpt lat="46.78197" lon="-0.55975">
        <ele>194.83</ele>
        <time>2024-06-25T13:50:17.479Z</time>
      </trkpt>
      <trkpt lat="46.78199" lon="-0.55979">
        <ele>194.89</ele>
        <time>2024-06-25T13:50:29.865Z</time>
      </trkpt>
      <trkpt lat="46.78201" lon="-0.55985">
        <ele>194.96</ele>
        <time>2024-06-25T13:50:42.252Z</time>
      </trkpt>
      <trkpt lat="46.78201" lon="-0.55991">
        <ele>195.03</ele>
        <time>2024-06-25T13:50:54.640Z</time>
      </trkpt>
      <trkpt lat="46.782" lon="-0.55997">
        <ele>195.1</ele>
        <time>2024-06-25T13:51:07.029Z</time>
      </trkpt>
      <trkpt lat="46.78199" lon="-0.56001">
        <ele>195.18</ele>
        <time>2024-06-25T13:51:19.418Z</time>
      </trkpt>
      <trkpt lat="46.78198" lon="-0.56006">
        <ele>195.26</ele>
        <time>2024-06-25T13:51:31.808Z</time>
      </trkpt>
      <trkpt lat="46.78196" lon="-0.5601">
        <ele>195.34</ele>
        <time>2024-06-25T13:51:44.199Z</time>
      </trkpt>
      <trkpt lat="46.78195" lon="-0.56015">
        <ele>195.43</ele>
        <time>2024-06-25T13:51:56.591Z</time>
      </trkpt>
      <trkpt lat="46.78194" lon="-0.56019">
        <ele>195.52</ele>
        <time>2024-06-25T13:52:08.983Z</time>
      </trkpt>
      <trkpt lat="46.78192" lon="-0.56025">
        <ele>195.61</ele>
        <time>2024-06-25T13:52:21.376Z</time>
      </trkpt>
      <trkpt lat="46.78189" lon="-0.56029">
        <ele>195.71</ele>
        <time>2024-06-25T13:52:33.770Z</time>
      </trkpt>
      <trkpt lat="46.78187" lon="-0.56033">
        <ele>195.81</ele>
        <time>2024-06-25T13:52:46.165Z</time>
      </trkpt>
      <trkpt lat="46.78184" lon="-0.56038">
        <ele>195.91</ele>
        <time>2024-06-25T13:52:58.560Z</time>
      </trkpt>
      <trkpt lat="46.78181" lon="-0.56043">
        <ele>196.02</ele>
        <time>2024-06-25T13:53:10.956Z</time>
      </trkpt>
      <trkpt lat="46.78179" lon="-0.56048">
        <ele>196.12</ele>
        <time>2024-06-25T13:53:23.353Z</time>
      </trkpt>
      <trkpt lat="46.78177" lon="-0.56053">
        <ele>196.23</ele>
        <time>2024-06-25T13:53:35.751Z</time>
      </trkpt>
      <trkpt lat="46.78175" lon="-0.56059">
        <ele>196.34</ele>
        <time>2024-06-25T13:53:48.150Z</time>
      </trkpt>
      <trkpt lat="46.78173" lon="-0.56064">
        <ele>196.45</ele>
        <time>2024-06-25T13:54:00.550Z</time>
      </trkpt>
      <trkpt lat="46.7817" lon="-0.5607">
        <ele>196.57</ele>
        <time>2024-06-25T13:54:12.951Z</time>
      </trkpt>
      <trkpt lat="46.78169" lon="-0.56075">
        <ele>196.68</ele>
        <time>2024-06-25T13:54:25.352Z</time>
      </trkpt>
      <trkpt lat="46.78167" lon="-0.56081">
        <ele>196.8</ele>
        <time>2024-06-25T13:54:37.754Z</time>
      </trkpt>
      <trkpt lat="46.78165" lon="-0.56086">
        <ele>196.92</ele>
        <time>2024-06-25T13:54:50.157Z</time>
      </trkpt>
      <trkpt lat="46.78163" lon="-0.56091">
        <ele>197.03</ele>
        <time>2024-06-25T13:55:02.561Z</time>
      </trkpt>
      <trkpt lat="46.78162" lon="-0.56096">
        <ele>197.15</ele>
        <time>2024-06-25T13:55:14.966Z</time>
      </trkpt>
      <trkpt lat="46.7816" lon="-0.56102">
        <ele>197.27</ele>
        <time>2024-06-25T13:55:27.371Z</time>
      </trkpt>
      <trkpt lat="46.78158" lon="-0.56108">
        <ele>197.39</ele>
        <time>2024-06-25T13:55:39.777Z</time>
      </trkpt>
      <trkpt lat="46.78156" lon="-0.56113">
        <ele>197.5</ele>
        <time>2024-06-25T13:55:52.184Z</time>
      </trkpt>
      <trkpt lat="46.78154" lon="-0.56118">
        <ele>197.62</ele>
        <time>2024-06-25T13:56:04.592Z</time>
      </trkpt>
      <trkpt lat="46.78153" lon="-0.56123">
        <ele>197.73</ele>
        <time>2024-06-25T13:56:17.001Z</time>
      </trkpt>
      <trkpt lat="46.78152" lon="-0.56128">
        <ele>197.84</ele>
        <time>2024-06-25T13:56:29.410Z</time>
      </trkpt>
      <trkpt lat="46.7815" lon="-0.56133">
        <ele>197.95</ele>
        <time>2024-06-25T13:56:41.820Z</time>
      </trkpt>
      <trkpt lat="46.78148" lon="-0.56138">
        <ele>198.06</ele>
        <time>2024-06-25T13:56:54.231Z</time>
      </trkpt>
      <trkpt lat="46.78147" lon="-0.56143">
        <ele>198.17</ele>
        <time>2024-06-25T13:57:06.643Z</time>
      </trkpt>
      <trkpt lat="46.78145" lon="-0.56147">
        <ele>198.28</ele>
        <time>2024-06-25T13:57:19.055Z</time>
      </trkpt>
      <trkpt lat="46.78144" lon="-0.56151">
        <ele>198.38</ele>
        <time>2024-06-25T13:57:31.468Z</time>
      </trkpt>
      <trkpt lat="46.78142" lon="-0.56156">
        <ele>198.48</ele>
        <time>2024-06-25T13:57:43.882Z</time>
      </trkpt>
      <trkpt lat="46.78141" lon="-0.56161">
        <ele>198.58</ele>
        <time>2024-06-25T13:57:56.296Z</time>
      </trkpt>
      <trkpt lat="46.78139" lon="-0.56166">
        <ele>198.67</ele>
        <time>2024-06-25T13:58:08.711Z</time>
      </trkpt>
      <trkpt lat="46.78137" lon="-0.56171">
        <ele>198.76</ele>
        <time>2024-06-25T13:58:21.127Z</time>
      </trkpt>
      <trkpt lat="46.78135" lon="-0.56175">
        <ele>198.85</ele>
        <time>2024-06-25T13:58:33.544Z</time>
      </trkpt>
      <trkpt lat="46.78134" lon="-0.56179">
        <ele>198.93</ele>
        <time>2024-06-25T13:58:45.961Z</time>
      </trkpt>
      <trkpt lat="46.78133" lon="-0.56183">
        <ele>199.01</ele>
        <time>2024-06-25T13:58:58.379Z</time>
      </trkpt>
      <trkpt lat="46.78132" lon="-0.56188">
        <ele>199.09</ele>
        <time>2024-06-25T13:59:10.798Z</time>
      </trkpt>
      <trkpt lat="46.7813" lon="-0.56193">
        <ele>199.16</ele>
        <time>2024-06-25T13:59:23.217Z</time>
      </trkpt>
      <trkpt lat="46.78129" lon="-0.56197">
        <ele>199.23</ele>
        <time>2024-06-25T13:59:35.637Z</time>
      </trkpt>
      <trkpt lat="46.78127" lon="-0.56202">
        <ele>199.3</ele>
        <time>2024-06-25T13:59:48.058Z</time>
      </trkpt>
      <trkpt lat="46.78125" lon="-0.56206">
        <ele>199.37</ele>
        <time>2024-06-25T14:00:00.479Z</time>
      </trkpt>
      <trkpt lat="46.78124" lon="-0.5621">
        <ele>199.43</ele>
        <time>2024-06-25T14:00:12.901Z</time>
      </trkpt>
      <trkpt lat="46.78122" lon="-0.56213">
        <ele>199.49</ele>
        <time>2024-06-25T14:00:25.324Z</time>
      </trkpt>
      <trkpt lat="46.78121" lon="-0.56217">
        <ele>199.55</ele>
        <time>2024-06-25T14:00:37.747Z</time>
      </trkpt>
      <trkpt lat="46.7812" lon="-0.56222">
        <ele>199.6</ele>
        <time>2024-06-25T14:00:50.171Z</time>
      </trkpt>
      <trkpt lat="46.7812" lon="-0.56227">
        <ele>199.65</ele>
        <time>2024-06-25T14:01:02.596Z</time>
      </trkpt>
      <trkpt lat="46.78121" lon="-0.56231">
        <ele>199.69</ele>
        <time>2024-06-25T14:01:15.021Z</time>
      </trkpt>
      <trkpt lat="46.78124" lon="-0.56234">
        <ele>199.73</ele>
        <time>2024-06-25T14:01:27.447Z</time>
      </trkpt>
      <trkpt lat="46.78128" lon="-0.56235">
        <ele>199.77</ele>
        <time>2024-06-25T14:01:39.874Z</time>
      </trkpt>
      <trkpt lat="46.78131" lon="-0.56237">
        <ele>199.8</ele>
        <time>2024-06-25T14:01:52.301Z</time>
      </trkpt>
      <trkpt lat="46.78134" lon="-0.56239">
        <ele>199.82</ele>
        <time>2024-06-25T14:02:04.729Z</time>
      </trkpt>
      <trkpt lat="46.78137" lon="-0.56241">
        <ele>199.85</ele>
        <time>2024-06-25T14:02:17.158Z</time>
      </trkpt>
      <trkpt lat="46.78141" lon="-0.56244">
        <ele>199.87</ele>
        <time>2024-06-25T14:02:29.588Z</time>
      </trkpt>
      <trkpt lat="46.78144" lon="-0.56246">
        <ele>199.89</ele>
        <time>2024-06-25T14:02:42.018Z</time>
      </trkpt>
      <trkpt lat="46.78148" lon="-0.56247">
        <ele>199.9</ele>
        <time>2024-06-25T14:02:54.449Z</time>
      </trkpt>
      <trkpt lat="46.78151" lon="-0.56248">
        <ele>199.92</ele>
        <time>2024-06-25T14:03:06.881Z</time>
      </trkpt>
      <trkpt lat="46.78154" lon="-0.5625">
        <ele>199.93</ele>
        <time>2024-06-25T14:03:19.313Z</time>
      </trkpt>
      <trkpt lat="46.78157" lon="-0.5625">
        <ele>199.94</ele>
        <time>2024-06-25T14:03:31.746Z</time>
      </trkpt>
      <trkpt lat="46.78159" lon="-0.56251">
        <ele>199.94</ele>
        <time>2024-06-25T14:03:44.179Z</time>
      </trkpt>
      <trkpt lat="46.78161" lon="-0.56251">
        <ele>199.95</ele>
        <time>2024-06-25T14:03:56.613Z</time>
      </trkpt>
      <trkpt lat="46.78163" lon="-0.56251">
        <ele>199.95</ele>
        <time>2024-06-25T14:04:09.047Z</time>
      </trkpt>
      <trkpt lat="46.78166" lon="-0.56251">
        <ele>199.94</ele>
        <time>2024-06-25T14:04:21.482Z</time>
      </trkpt>
      <trkpt lat="46.78168" lon="-0.56251">
        <ele>199.94</ele>
        <time>2024-06-25T14:04:33.917Z</time>
      </trkpt>
      <trkpt lat="46.78171" lon="-0.56254">
        <ele>199.93</ele>
        <time>2024-06-25T14:04:46.353Z</time>
      </trkpt>
      <trkpt lat="46.78172" lon="-0.56258">
        <ele>199.92</ele>
        <time>2024-06-25T14:04:58.789Z</time>
      </trkpt>
      <trkpt lat="46.78174" lon="-0.56263">
        <ele>199.91</ele>
        <time>2024-06-25T14:05:11.226Z</time>
      </trkpt>
      <trkpt lat="46.78175" lon="-0.56268">
        <ele>199.9</ele>
        <time>2024-06-25T14:05:23.664Z</time>
      </trkpt>
      <trkpt lat="46.78176" lon="-0.56274">
        <ele>199.89</ele>
        <time>2024-06-25T14:05:36.103Z</time>
      </trkpt>
      <trkpt lat="46.78176" lon="-0.56281">
        <ele>199.87</ele>
        <time>2024-06-25T14:05:48.543Z</time>
      </trkpt>
      <trkpt lat="46.78176" lon="-0.56288">
        <ele>199.85</ele>
        <time>2024-06-25T14:06:00.984Z</time>
      </trkpt>
      <trkpt lat="46.78176" lon="-0.56294">
        <ele>199.83</ele>
        <time>2024-06-25T14:06:13.425Z</time>
      </trkpt>
      <trkpt lat="46.78176" lon="-0.563">
        <ele>199.8</ele>
        <time>2024-06-25T14:06:25.867Z</time>
      </trkpt>
      <trkpt lat="46.78176" lon="-0.56307">
        <ele>199.77</ele>
        <time>2024-06-25T14:06:38.310Z</time>
      </trkpt>
      <trkpt lat="46.78177" lon="-0.56313">
        <ele>199.74</ele>
        <time>2024-06-25T14:06:50.754Z</time>
      </trkpt>
      <trkpt lat="46.78177" lon="-0.56318">
        <ele>199.71</ele>
        <time>2024-06-25T14:07:03.199Z</time>
      </trkpt>
      <trkpt lat="46.78176" lon="-0.56324">
        <ele>199.67</ele>
        <time>2024-06-25T14:07:15.645Z</time>
      </trkpt>
      <trkpt lat="46.78176" lon="-0.5633">
        <ele>199.64</ele>
        <time>2024-06-25T14:07:28.091Z</time>
      </trkpt>
      <trkpt lat="46.78177" lon="-0.56336">
        <ele>199.6</ele>
        <time>2024-06-25T14:07:40.538Z</time>
      </trkpt>
      <trkpt lat="46.78177" lon="-0.56342">
        <ele>199.55</ele>
        <time>2024-06-25T14:07:52.986Z</time>
      </trkpt>
      <trkpt lat="46.78178" lon="-0.56348">
        <ele>199.51</ele>
        <time>2024-06-25T14:08:05.435Z</time>
      </trkpt>
      <trkpt lat="46.78178" lon="-0.56354">
        <ele>199.46</ele>
        <time>2024-06-25T14:08:17.885Z</time>
      </trkpt>
      <trkpt lat="46.78179" lon="-0.56358">
        <ele>199.42</ele>
        <time>2024-06-25T14:08:30.335Z</time>
      </trkpt>
      <trkpt lat="46.78182" lon="-0.56361">
        <ele>199.38</ele>
        <time>2024-06-25T14:08:42.786Z</time>
      </trkpt>
      <trkpt lat="46.78184" lon="-0.5636">
        <ele>199.33</ele>
        <time>2024-06-25T14:08:55.237Z</time>
      </trkpt>
      <trkpt lat="46.78186" lon="-0.56361">
        <ele>199.29</ele>
        <time>2024-06-25T14:09:07.689Z</time>
      </trkpt>
      <trkpt lat="46.7819" lon="-0.56361">
        <ele>199.25</ele>
        <time>2024-06-25T14:09:20.142Z</time>
      </trkpt>
      <trkpt lat="46.78194" lon="-0.56361">
        <ele>199.2</ele>
        <time>2024-06-25T14:09:32.595Z</time>
      </trkpt>
      <trkpt lat="46.78198" lon="-0.5636">
        <ele>199.16</ele>
        <time>2024-06-25T14:09:45.049Z</time>
      </trkpt>
      <trkpt lat="46.78203" lon="-0.56359">
        <ele>199.11</ele>
        <time>2024-06-25T14:09:57.504Z</time>
      </trkpt>
      <trkpt lat="46.78208" lon="-0.56358">
        <ele>199.07</ele>
        <time>2024-06-25T14:10:09.960Z</time>
      </trkpt>
      <trkpt lat="46.78213" lon="-0.56358">
        <ele>199.03</ele>
        <time>2024-06-25T14:10:22.417Z</time>
      </trkpt>
      <trkpt lat="46.78219" lon="-0.56356">
        <ele>198.99</ele>
        <time>2024-06-25T14:10:34.875Z</time>
      </trkpt>
      <trkpt lat="46.78225" lon="-0.56355">
        <ele>198.95</ele>
        <time>2024-06-25T14:10:47.335Z</time>
      </trkpt>
      <trkpt lat="46.78232" lon="-0.56354">
        <ele>198.91</ele>
        <time>2024-06-25T14:10:59.796Z</time>
      </trkpt>
      <trkpt lat="46.78238" lon="-0.56354">
        <ele>198.87</ele>
        <time>2024-06-25T14:11:12.258Z</time>
      </trkpt>
      <trkpt lat="46.78245" lon="-0.56353">
        <ele>198.83</ele>
        <time>2024-06-25T14:11:24.722Z</time>
      </trkpt>
      <trkpt lat="46.78251" lon="-0.56352">
        <ele>198.78</ele>
        <time>2024-06-25T14:11:37.187Z</time>
      </trkpt>
      <trkpt lat="46.78256" lon="-0.56352">
        <ele>198.74</ele>
        <time>2024-06-25T14:11:49.653Z</time>
      </trkpt>
      <trkpt lat="46.7826" lon="-0.56353">
        <ele>198.7</ele>
        <time>2024-06-25T14:12:02.120Z</time>
      </trkpt>
      <trkpt lat="46.78265" lon="-0.56354">
        <ele>198.65</ele>
        <time>2024-06-25T14:12:14.588Z</time>
      </trkpt>
      <trkpt lat="46.78271" lon="-0.56355">
        <ele>198.62</ele>
        <time>2024-06-25T14:12:27.057Z</time>
      </trkpt>
      <trkpt lat="46.78276" lon="-0.56357">
        <ele>198.58</ele>
        <time>2024-06-25T14:12:39.527Z</time>
      </trkpt>
      <trkpt lat="46.7828" lon="-0.56358">
        <ele>198.55</ele>
        <time>2024-06-25T14:12:51.998Z</time>
      </trkpt>
      <trkpt lat="46.78284" lon="-0.56359">
        <ele>198.52</ele>
        <time>2024-06-25T14:13:04.470Z</time>
      </trkpt>
      <trkpt lat="46.78289" lon="-0.56361">
        <ele>198.49</ele>
        <time>2024-06-25T14:13:16.943Z</time>
      </trkpt>
      <trkpt lat="46.78293" lon="-0.56363">
        <ele>198.47</ele>
        <time>2024-06-25T14:13:29.417Z</time>
      </trkpt>
      <trkpt lat="46.78298" lon="-0.56365">
        <ele>198.45</ele>
        <time>2024-06-25T14:13:41.891Z</time>
      </trkpt>
      <trkpt lat="46.78302" lon="-0.56367">
        <ele>198.43</ele>
        <time>2024-06-25T14:13:54.366Z</time>
      </trkpt>
      <trkpt lat="46.78307" lon="-0.5637">
        <ele>198.42</ele>
        <time>2024-06-25T14:14:06.842Z</time>
      </trkpt>
      <trkpt lat="46.78312" lon="-0.56372">
        <ele>198.41</ele>
        <time>2024-06-25T14:14:19.319Z</time>
      </trkpt>
      <trkpt lat="46.78316" lon="-0.56374">
        <ele>198.4</ele>
        <time>2024-06-25T14:14:31.797Z</time>
      </trkpt>
      <trkpt lat="46.78322" lon="-0.56376">
        <ele>198.39</ele>
        <time>2024-06-25T14:14:44.276Z</time>
      </trkpt>
      <trkpt lat="46.78326" lon="-0.56376">
        <ele>198.38</ele>
        <time>2024-06-25T14:14:56.756Z</time>
      </trkpt>
      <trkpt lat="46.78331" lon="-0.56375">
        <ele>198.38</ele>
        <time>2024-06-25T14:15:09.237Z</time>
      </trkpt>
      <trkpt lat="46.78336" lon="-0.56374">
        <ele>198.38</ele>
        <time>2024-06-25T14:15:21.719Z</time>
      </trkpt>
      <trkpt lat="46.7834" lon="-0.56374">
        <ele>198.39</ele>
        <time>2024-06-25T14:15:34.202Z</time>
      </trkpt>
      <trkpt lat="46.78345" lon="-0.56374">
        <ele>198.4</ele>
        <time>2024-06-25T14:15:46.686Z</time>
      </trkpt>
      <trkpt lat="46.7835" lon="-0.56375">
        <ele>198.41</ele>
        <time>2024-06-25T14:15:59.171Z</time>
      </trkpt>
      <trkpt lat="46.78355" lon="-0.56375">
        <ele>198.42</ele>
        <time>2024-06-25T14:16:11.657Z</time>
      </trkpt>
      <trkpt lat="46.78359" lon="-0.56376">
        <ele>198.44</ele>
        <time>2024-06-25T14:16:24.144Z</time>
      </trkpt>
      <trkpt lat="46.78364" lon="-0.56376">
        <ele>198.46</ele>
        <time>2024-06-25T14:16:36.632Z</time>
      </trkpt>
      <trkpt lat="46.78369" lon="-0.56375">
        <ele>198.47</ele>
        <time>2024-06-25T14:16:49.121Z</time>
      </trkpt>
      <trkpt lat="46.78374" lon="-0.56374">
        <ele>198.5</ele>
        <time>2024-06-25T14:17:01.611Z</time>
      </trkpt>
      <trkpt lat="46.78379" lon="-0.56373">
        <ele>198.53</ele>
        <time>2024-06-25T14:17:14.102Z</time>
      </trkpt>
      <trkpt lat="46.78385" lon="-0.56372">
        <ele>198.56</ele>
        <time>2024-06-25T14:17:26.594Z</time>
      </trkpt>
      <trkpt lat="46.7839" lon="-0.56371">
        <ele>198.6</ele>
        <time>2024-06-25T14:17:39.087Z</time>
      </trkpt>
      <trkpt lat="46.78394" lon="-0.5637">
        <ele>198.63</ele>
        <time>2024-06-25T14:17:51.581Z</time>
      </trkpt>
      <trkpt lat="46.78399" lon="-0.56369">
        <ele>198.67</ele>
        <time>2024-06-25T14:18:04.076Z</time>
      </trkpt>
      <trkpt lat="46.78403" lon="-0.56369">
        <ele>198.72</ele>
        <time>2024-06-25T14:18:16.572Z</time>
      </trkpt>
      <trkpt lat="46.78407" lon="-0.56369">
        <ele>198.76</ele>
        <time>2024-06-25T14:18:29.069Z</time>
      </trkpt>
      <trkpt lat="46.78411" lon="-0.5637">
        <ele>198.81</ele>
        <time>2024-06-25T14:18:41.566Z</time>
      </trkpt>
      <trkpt lat="46.78414" lon="-0.56372">
        <ele>198.87</ele>
        <time>2024-06-25T14:18:54.064Z</time>
      </trkpt>
      <trkpt lat="46.78417" lon="-0.56374">
        <ele>198.92</ele>
        <time>2024-06-25T14:19:06.563Z</time>
      </trkpt>
      <trkpt lat="46.78419" lon="-0.56377">
        <ele>198.98</ele>
        <time>2024-06-25T14:19:19.062Z</time>
      </trkpt>
      <trkpt lat="46.78422" lon="-0.56382">
        <ele>199.04</ele>
        <time>2024-06-25T14:19:31.562Z</time>
      </trkpt>
      <trkpt lat="46.78426" lon="-0.56386">
        <ele>199.1</ele>
        <time>2024-06-25T14:19:44.063Z</time>
      </trkpt>
      <trkpt lat="46.7843" lon="-0.5639">
        <ele>199.16</ele>
        <time>2024-06-25T14:19:56.565Z</time>
      </trkpt>
      <trkpt lat="46.78433" lon="-0.56395">
        <ele>199.22</ele>
        <time>2024-06-25T14:20:09.068Z</time>
      </trkpt>
      <trkpt lat="46.78437" lon="-0.56398">
        <ele>199.29</ele>
        <time>2024-06-25T14:20:21.572Z</time>
      </trkpt>
      <trkpt lat="46.78441" lon="-0.56402">
        <ele>199.37</ele>
        <time>2024-06-25T14:20:34.077Z</time>
      </trkpt>
      <trkpt lat="46.78444" lon="-0.56405">
        <ele>199.44</ele>
        <time>2024-06-25T14:20:46.583Z</time>
      </trkpt>
      <trkpt lat="46.78448" lon="-0.56409">
        <ele>199.52</ele>
        <time>2024-06-25T14:20:59.090Z</time>
      </trkpt>
      <trkpt lat="46.78452" lon="-0.56413">
        <ele>199.6</ele>
        <time>2024-06-25T14:21:11.598Z</time>
      </trkpt>
      <trkpt lat="46.78455" lon="-0.56417">
        <ele>199.69</ele>
        <time>2024-06-25T14:21:24.106Z</time>
      </trkpt>
      <trkpt lat="46.78458" lon="-0.56422">
        <ele>199.78</ele>
        <time>2024-06-25T14:21:36.615Z</time>
      </trkpt>
      <trkpt lat="46.78461" lon="-0.56427">
        <ele>199.88</ele>
        <time>2024-06-25T14:21:49.125Z</time>
      </trkpt>
      <trkpt lat="46.78463" lon="-0.56431">
        <ele>199.98</ele>
        <time>2024-06-25T14:22:01.636Z</time>
      </trkpt>
      <trkpt lat="46.78467" lon="-0.56435">
        <ele>200.08</ele>
        <time>2024-06-25T14:22:14.148Z</time>
      </trkpt>
      <trkpt lat="46.7847" lon="-0.5644">
        <ele>200.19</ele>
        <time>2024-06-25T14:22:26.661Z</time>
      </trkpt>
      <trkpt lat="46.78472" lon="-0.56444">
        <ele>200.31</ele>
        <time>2024-06-25T14:22:39.174Z</time>
      </trkpt>
      <trkpt lat="46.78475" lon="-0.56447">
        <ele>200.43</ele>
        <time>2024-06-25T14:22:51.688Z</time>
      </trkpt>
      <trkpt lat="46.78477" lon="-0.56449">
        <ele>200.55</ele>
        <time>2024-06-25T14:23:04.203Z</time>
      </trkpt>
      <trkpt lat="46.78481" lon="-0.56452">
        <ele>200.68</ele>
        <time>2024-06-25T14:23:16.718Z</time>
      </trkpt>
      <trkpt lat="46.78484" lon="-0.56455">
        <ele>200.82</ele>
        <time>2024-06-25T14:23:29.234Z</time>
      </trkpt>
      <trkpt lat="46.78488" lon="-0.56459">
        <ele>200.96</ele>
        <time>2024-06-25T14:23:41.751Z</time>
      </trkpt>
      <trkpt lat="46.78492" lon="-0.56463">
        <ele>201.1</ele>
        <time>2024-06-25T14:23:54.269Z</time>
      </trkpt>
      <trkpt lat="46.78495" lon="-0.56466">
        <ele>201.24</ele>
        <time>2024-06-25T14:24:06.788Z</time>
      </trkpt>
      <trkpt lat="46.78499" lon="-0.56469">
        <ele>201.38</ele>
        <time>2024-06-25T14:24:19.308Z</time>
      </trkpt>
      <trkpt lat="46.78502" lon="-0.56471">
        <ele>201.53</ele>
        <time>2024-06-25T14:24:31.829Z</time>
      </trkpt>
      <trkpt lat="46.78505" lon="-0.56473">
        <ele>201.68</ele>
        <time>2024-06-25T14:24:44.350Z</time>
      </trkpt>
      <trkpt lat="46.78508" lon="-0.56475">
        <ele>201.83</ele>
        <time>2024-06-25T14:24:56.872Z</time>
      </trkpt>
      <trkpt lat="46.78512" lon="-0.56478">
        <ele>201.98</ele>
        <time>2024-06-25T14:25:09.395Z</time>
      </trkpt>
      <trkpt lat="46.78516" lon="-0.56481">
        <ele>202.14</ele>
        <time>2024-06-25T14:25:21.919Z</time>
      </trkpt>
      <trkpt lat="46.78519" lon="-0.56483">
        <ele>202.3</ele>
        <time>2024-06-25T14:25:34.443Z</time>
      </trkpt>
      <trkpt lat="46.78523" lon="-0.56485">
        <ele>202.46</ele>
        <time>2024-06-25T14:25:46.968Z</time>
      </trkpt>
      <trkpt lat="46.78527" lon="-0.56486">
        <ele>202.63</ele>
        <time>2024-06-25T14:25:59.494Z</time>
      </trkpt>
      <trkpt lat="46.7853" lon="-0.56488">
        <ele>202.8</ele>
        <time>2024-06-25T14:26:12.021Z</time>
      </trkpt>
      <trkpt lat="46.78533" lon="-0.56491">
        <ele>202.98</ele>
        <time>2024-06-25T14:26:24.548Z</time>
      </trkpt>
      <trkpt lat="46.78536" lon="-0.56495">
        <ele>203.16</ele>
        <time>2024-06-25T14:26:37.076Z</time>
      </trkpt>
      <trkpt lat="46.78539" lon="-0.56499">
        <ele>203.34</ele>
        <time>2024-06-25T14:26:49.605Z</time>
      </trkpt>
      <trkpt lat="46.78541" lon="-0.56503">
        <ele>203.52</ele>
        <time>2024-06-25T14:27:02.135Z</time>
      </trkpt>
      <trkpt lat="46.78544" lon="-0.56507">
        <ele>203.7</ele>
        <time>2024-06-25T14:27:14.665Z</time>
      </trkpt>
      <trkpt lat="46.78546" lon="-0.5651">
        <ele>203.89</ele>
        <time>2024-06-25T14:27:27.196Z</time>
      </trkpt>
      <trkpt lat="46.7855" lon="-0.56512">
        <ele>204.07</ele>
        <time>2024-06-25T14:27:39.728Z</time>
      </trkpt>
      <trkpt lat="46.78553" lon="-0.56511">
        <ele>204.25</ele>
        <time>2024-06-25T14:27:52.260Z</time>
      </trkpt>
      <trkpt lat="46.78556" lon="-0.56508">
        <ele>204.43</ele>
        <time>2024-06-25T14:28:04.793Z</time>
      </trkpt>
      <trkpt lat="46.78559" lon="-0.56505">
        <ele>204.61</ele>
        <time>2024-06-25T14:28:17.327Z</time>
      </trkpt>
      <trkpt lat="46.78562" lon="-0.56503">
        <ele>204.79</ele>
        <time>2024-06-25T14:28:29.862Z</time>
      </trkpt>
      <trkpt lat="46.78565" lon="-0.565">
        <ele>204.97</ele>
        <time>2024-06-25T14:28:42.397Z</time>
      </trkpt>
      <trkpt lat="46.78568" lon="-0.56498">
        <ele>205.16</ele>
        <time>2024-06-25T14:28:54.933Z</time>
      </trkpt>
      <trkpt lat="46.78572" lon="-0.56495">
        <ele>205.35</ele>
        <time>2024-06-25T14:29:07.470Z</time>
      </trkpt>
      <trkpt lat="46.78574" lon="-0.56493">
        <ele>205.53</ele>
        <time>2024-06-25T14:29:20.007Z</time>
      </trkpt>
      <trkpt lat="46.78577" lon="-0.56492">
        <ele>205.72</ele>
        <time>2024-06-25T14:29:32.545Z</time>
      </trkpt>
      <trkpt lat="46.78581" lon="-0.56491">
        <ele>205.91</ele>
        <time>2024-06-25T14:29:45.084Z</time>
      </trkpt>
      <trkpt lat="46.78584" lon="-0.56491">
        <ele>206.1</ele>
        <time>2024-06-25T14:29:57.623Z</time>
      </trkpt>
      <trkpt lat="46.78587" lon="-0.56492">
        <ele>206.29</ele>
        <time>2024-06-25T14:30:10.163Z</time>
      </trkpt>
      <trkpt lat="46.7859" lon="-0.56492">
        <ele>206.48</ele>
        <time>2024-06-25T14:30:22.704Z</time>
      </trkpt>
      <trkpt lat="46.78593" lon="-0.56493">
        <ele>206.67</ele>
        <time>2024-06-25T14:30:35.245Z</time>
      </trkpt>
      <trkpt lat="46.78596" lon="-0.56494">
        <ele>206.85</ele>
        <time>2024-06-25T14:30:47.787Z</time>
      </trkpt>
      <trkpt lat="46.78599" lon="-0.56495">
        <ele>207.04</ele>
        <time>2024-06-25T14:31:00.330Z</time>
      </trkpt>
      <trkpt lat="46.78602" lon="-0.56496">
        <ele>207.22</ele>
        <time>2024-06-25T14:31:12.873Z</time>
      </trkpt>
      <trkpt lat="46.78604" lon="-0.56497">
        <ele>207.41</ele>
        <time>2024-06-25T14:31:25.417Z</time>
      </trkpt>
      <trkpt lat="46.78606" lon="-0.56499">
        <ele>207.59</ele>
        <time>2024-06-25T14:31:37.961Z</time>
      </trkpt>
      <trkpt lat="46.78608" lon="-0.56501">
        <ele>207.77</ele>
        <time>2024-06-25T14:31:50.506Z</time>
      </trkpt>
      <trkpt lat="46.7861" lon="-0.56504">
        <ele>207.95</ele>
        <time>2024-06-25T14:32:03.051Z</time>
      </trkpt>
      <trkpt lat="46.78613" lon="-0.56506">
        <ele>208.13</ele>
        <time>2024-06-25T14:32:15.597Z</time>
      </trkpt>
      <trkpt lat="46.78616" lon="-0.56508">
        <ele>208.31</ele>
        <time>2024-06-25T14:32:28.143Z</time>
      </trkpt>
      <trkpt lat="46.78618" lon="-0.56511">
        <ele>208.48</ele>
        <time>2024-06-25T14:32:40.690Z</time>
      </trkpt>
      <trkpt lat="46.78621" lon="-0.56515">
        <ele>208.66</ele>
        <time>2024-06-25T14:32:53.238Z</time>
      </trkpt>
      <trkpt lat="46.78623" lon="-0.56517">
        <ele>208.83</ele>
        <time>2024-06-25T14:33:05.786Z</time>
      </trkpt>
      <trkpt lat="46.78626" lon="-0.5652">
        <ele>208.99</ele>
        <time>2024-06-25T14:33:18.335Z</time>
      </trkpt>
      <trkpt lat="46.78628" lon="-0.56523">
        <ele>209.16</ele>
        <time>2024-06-25T14:33:30.885Z</time>
      </trkpt>
      <trkpt lat="46.78631" lon="-0.56525">
        <ele>209.33</ele>
        <time>2024-06-25T14:33:43.435Z</time>
      </trkpt>
      <trkpt lat="46.78634" lon="-0.56527">
        <ele>209.49</ele>
        <time>2024-06-25T14:33:55.986Z</time>
      </trkpt>
      <trkpt lat="46.78636" lon="-0.56529">
        <ele>209.66</ele>
        <time>2024-06-25T14:34:08.537Z</time>
      </trkpt>
      <trkpt lat="46.78639" lon="-0.56531">
        <ele>209.82</ele>
        <time>2024-06-25T14:34:21.089Z</time>
      </trkpt>
      <trkpt lat="46.78642" lon="-0.56533">
        <ele>209.97</ele>
        <time>2024-06-25T14:34:33.642Z</time>
      </trkpt>
      <trkpt lat="46.78645" lon="-0.56535">
        <ele>210.12</ele>
        <time>2024-06-25T14:34:46.195Z</time>
      </trkpt>
      <trkpt lat="46.78647" lon="-0.56536">
        <ele>210.27</ele>
        <time>2024-06-25T14:34:58.749Z</time>
      </trkpt>
      <trkpt lat="46.7865" lon="-0.56538">
        <ele>210.42</ele>
        <time>2024-06-25T14:35:11.303Z</time>
      </trkpt>
      <trkpt lat="46.78653" lon="-0.5654">
        <ele>210.56</ele>
        <time>2024-06-25T14:35:23.858Z</time>
      </trkpt>
      <trkpt lat="46.78656" lon="-0.56542">
        <ele>210.7</ele>
        <time>2024-06-25T14:35:36.414Z</time>
      </trkpt>
      <trkpt lat="46.78659" lon="-0.56544">
        <ele>210.84</ele>
        <time>2024-06-25T14:35:48.970Z</time>
      </trkpt>
      <trkpt lat="46.78662" lon="-0.56546">
        <ele>210.98</ele>
        <time>2024-06-25T14:36:01.527Z</time>
      </trkpt>
      <trkpt lat="46.78665" lon="-0.56548">
        <ele>211.11</ele>
        <time>2024-06-25T14:36:14.085Z</time>
      </trkpt>
      <trkpt lat="46.78667" lon="-0.5655">
        <ele>211.25</ele>
        <time>2024-06-25T14:36:26.643Z</time>
      </trkpt>
      <trkpt lat="46.78669" lon="-0.56552">
        <ele>211.38</ele>
        <time>2024-06-25T14:36:39.202Z</time>
      </trkpt>
      <trkpt lat="46.78671" lon="-0.56554">
        <ele>211.51</ele>
        <time>2024-06-25T14:36:51.761Z</time>
      </trkpt>
      <trkpt lat="46.78673" lon="-0.56556">
        <ele>211.63</ele>
        <time>2024-06-25T14:37:04.321Z</time>
      </trkpt>
      <trkpt lat="46.78676" lon="-0.56558">
        <ele>211.75</ele>
        <time>2024-06-25T14:37:16.881Z</time>
      </trkpt>
      <trkpt lat="46.78679" lon="-0.56561">
        <ele>211.86</ele>
        <time>2024-06-25T14:37:29.442Z</time>
      </trkpt>
      <trkpt lat="46.78681" lon="-0.56563">
        <ele>211.97</ele>
        <time>2024-06-25T14:37:42.003Z</time>
      </trkpt>
      <trkpt lat="46.78683" lon="-0.56566">
        <ele>212.07</ele>
        <time>2024-06-25T14:37:54.565Z</time>
      </trkpt>
      <trkpt lat="46.78686" lon="-0.56568">
        <ele>212.17</ele>
        <time>2024-06-25T14:38:07.128Z</time>
      </trkpt>
      <trkpt lat="46.78688" lon="-0.5657">
        <ele>212.27</ele>
        <time>2024-06-25T14:38:19.691Z</time>
      </trkpt>
      <trkpt lat="46.78691" lon="-0.56573">
        <ele>212.36</ele>
        <time>2024-06-25T14:38:32.255Z</time>
      </trkpt>
      <trkpt lat="46.78693" lon="-0.56576">
        <ele>212.46</ele>
        <time>2024-06-25T14:38:44.819Z</time>
      </trkpt>
      <trkpt lat="46.78695" lon="-0.56579">
        <ele>212.55</ele>
        <time>2024-06-25T14:38:57.384Z</time>
      </trkpt>
      <trkpt lat="46.78697" lon="-0.56582">
        <ele>212.63</ele>
        <time>2024-06-25T14:39:09.950Z</time>
      </trkpt>
      <trkpt lat="46.78699" lon="-0.56585">
        <ele>212.72</ele>
        <time>2024-06-25T14:39:22.516Z</time>
      </trkpt>
      <trkpt lat="46.78701" lon="-0.56588">
        <ele>212.8</ele>
        <time>2024-06-25T14:39:35.083Z</time>
      </trkpt>
      <trkpt lat="46.78703" lon="-0.56592">
        <ele>212.88</ele>
        <time>2024-06-25T14:39:47.650Z</time>
      </trkpt>
      <trkpt lat="46.78705" lon="-0.56596">
        <ele>212.95</ele>
        <time>2024-06-25T14:40:00.218Z</time>
      </trkpt>
      <trkpt lat="46.78706" lon="-0.56601">
        <ele>213.03</ele>
        <time>2024-06-25T14:40:12.787Z</time>
      </trkpt>
      <trkpt lat="46.78708" lon="-0.56605">
        <ele>213.1</ele>
        <time>2024-06-25T14:40:25.356Z</time>
      </trkpt>
      <trkpt lat="46.7871" lon="-0.56609">
        <ele>213.17</ele>
        <time>2024-06-25T14:40:37.926Z</time>
      </trkpt>
      <trkpt lat="46.78711" lon="-0.56612">
        <ele>213.24</ele>
        <time>2024-06-25T14:40:50.497Z</time>
      </trkpt>
      <trkpt lat="46.78713" lon="-0.56615">
        <ele>213.31</ele>
        <time>2024-06-25T14:41:03.068Z</time>
      </trkpt>
      <trkpt lat="46.78715" lon="-0.56618">
        <ele>213.37</ele>
        <time>2024-06-25T14:41:15.640Z</time>
      </trkpt>
      <trkpt lat="46.78717" lon="-0.56618">
        <ele>213.44</ele>
        <time>2024-06-25T14:41:28.212Z</time>
      </trkpt>
      <trkpt lat="46.78721" lon="-0.56616">
        <ele>213.5</ele>
        <time>2024-06-25T14:41:40.785Z</time>
      </trkpt>
      <trkpt lat="46.78724" lon="-0.56614">
        <ele>213.56</ele>
        <time>2024-06-25T14:41:53.359Z</time>
      </trkpt>
      <trkpt lat="46.78727" lon="-0.56613">
        <ele>213.62</ele>
        <time>2024-06-25T14:42:05.933Z</time>
      </trkpt>
      <trkpt lat="46.7873" lon="-0.56612">
        <ele>213.68</ele>
        <time>2024-06-25T14:42:18.508Z</time>
      </trkpt>
      <trkpt lat="46.78733" lon="-0.5661">
        <ele>213.75</ele>
        <time>2024-06-25T14:42:31.084Z</time>
      </trkpt>
      <trkpt lat="46.78736" lon="-0.56608">
        <ele>213.81</ele>
        <time>2024-06-25T14:42:43.660Z</time>
      </trkpt>
      <trkpt lat="46.78739" lon="-0.56605">
        <ele>213.87</ele>
        <time>2024-06-25T14:42:56.237Z</time>
      </trkpt>
      <trkpt lat="46.78743" lon="-0.56603">
        <ele>213.94</ele>
        <time>2024-06-25T14:43:08.815Z</time>
      </trkpt>
      <trkpt lat="46.78746" lon="-0.56601">
        <ele>214</ele>
        <time>2024-06-25T14:43:21.393Z</time>
      </trkpt>
      <trkpt lat="46.78749" lon="-0.56599">
        <ele>214.06</ele>
        <time>2024-06-25T14:43:33.972Z</time>
      </trkpt>
      <trkpt lat="46.78752" lon="-0.56597">
        <ele>214.13</ele>
        <time>2024-06-25T14:43:46.552Z</time>
      </trkpt>
      <trkpt lat="46.78756" lon="-0.56595">
        <ele>214.19</ele>
        <time>2024-06-25T14:43:59.133Z</time>
      </trkpt>
      <trkpt lat="46.78759" lon="-0.56593">
        <ele>214.25</ele>
        <time>2024-06-25T14:44:11.714Z</time>
      </trkpt>
      <trkpt lat="46.78762" lon="-0.5659">
        <ele>214.32</ele>
        <time>2024-06-25T14:44:24.296Z</time>
      </trkpt>
      <trkpt lat="46.78766" lon="-0.56588">
        <ele>214.39</ele>
        <time>2024-06-25T14:44:36.879Z</time>
      </trkpt>
      <trkpt lat="46.78769" lon="-0.56585">
        <ele>214.46</ele>
        <time>2024-06-25T14:44:49.463Z</time>
      </trkpt>
      <trkpt lat="46.78773" lon="-0.56583">
        <ele>214.53</ele>
        <time>2024-06-25T14:45:02.047Z</time>
      </trkpt>
      <trkpt lat="46.78776" lon="-0.56581">
        <ele>214.59</ele>
        <time>2024-06-25T14:45:14.632Z</time>
      </trkpt>
      <trkpt lat="46.7878" lon="-0.56579">
        <ele>214.66</ele>
        <time>2024-06-25T14:45:27.218Z</time>
      </trkpt>
      <trkpt lat="46.78783" lon="-0.56577">
        <ele>214.73</ele>
        <time>2024-06-25T14:45:39.805Z</time>
      </trkpt>
      <trkpt lat="46.78786" lon="-0.56575">
        <ele>214.8</ele>
        <time>2024-06-25T14:45:52.392Z</time>
      </trkpt>
      <trkpt lat="46.7879" lon="-0.56572">
        <ele>214.88</ele>
        <time>2024-06-25T14:46:04.980Z</time>
      </trkpt>
      <trkpt lat="46.78793" lon="-0.5657">
        <ele>214.95</ele>
        <time>2024-06-25T14:46:17.569Z</time>
      </trkpt>
      <trkpt lat="46.78797" lon="-0.56568">
        <ele>215.02</ele>
        <time>2024-06-25T14:46:30.159Z</time>
      </trkpt>
      <trkpt lat="46.78801" lon="-0.56566">
        <ele>215.09</ele>
        <time>2024-06-25T14:46:42.750Z</time>
      </trkpt>
      <trkpt lat="46.78805" lon="-0.56563">
        <ele>215.17</ele>
        <time>2024-06-25T14:46:55.341Z</time>
      </trkpt>
      <trkpt lat="46.78809" lon="-0.5656">
        <ele>215.24</ele>
        <time>2024-06-25T14:47:07.933Z</time>
      </trkpt>
      <trkpt lat="46.78813" lon="-0.56558">
        <ele>215.31</ele>
        <time>2024-06-25T14:47:20.526Z</time>
      </trkpt>
      <trkpt lat="46.78816" lon="-0.56556">
        <ele>215.38</ele>
        <time>2024-06-25T14:47:33.120Z</time>
      </trkpt>
      <trkpt lat="46.7882" lon="-0.56554">
        <ele>215.45</ele>
        <time>2024-06-25T14:47:45.715Z</time>
      </trkpt>
      <trkpt lat="46.78824" lon="-0.56552">
        <ele>215.52</ele>
        <time>2024-06-25T14:47:58.310Z</time>
      </trkpt>
      <trkpt lat="46.78828" lon="-0.56549">
        <ele>215.59</ele>
        <time>2024-06-25T14:48:10.906Z</time>
      </trkpt>
      <trkpt lat="46.78832" lon="-0.56547">
        <ele>215.65</ele>
        <time>2024-06-25T14:48:23.503Z</time>
      </trkpt>
      <trkpt lat="46.78835" lon="-0.56545">
        <ele>215.72</ele>
        <time>2024-06-25T14:48:36.101Z</time>
      </trkpt>
      <trkpt lat="46.78839" lon="-0.56542">
        <ele>215.78</ele>
        <time>2024-06-25T14:48:48.700Z</time>
      </trkpt>
      <trkpt lat="46.78842" lon="-0.5654">
        <ele>215.85</ele>
        <time>2024-06-25T14:49:01.299Z</time>
      </trkpt>
      <trkpt lat="46.78846" lon="-0.56537">
        <ele>215.9</ele>
        <time>2024-06-25T14:49:13.899Z</time>
      </trkpt>
      <trkpt lat="46.78849" lon="-0.56535">
        <ele>215.96</ele>
        <time>2024-06-25T14:49:26.500Z</time>
      </trkpt>
      <trkpt lat="46.78853" lon="-0.56533">
        <ele>216.02</ele>
        <time>2024-06-25T14:49:39.102Z</time>
      </trkpt>
      <trkpt lat="46.78857" lon="-0.5653">
        <ele>216.07</ele>
        <time>2024-06-25T14:49:51.705Z</time>
      </trkpt>
      <trkpt lat="46.7886" lon="-0.56528">
        <ele>216.13</ele>
        <time>2024-06-25T14:50:04.309Z</time>
      </trkpt>
      <trkpt lat="46.78864" lon="-0.56525">
        <ele>216.18</ele>
        <time>2024-06-25T14:50:16.913Z</time>
      </trkpt>
      <trkpt lat="46.78868" lon="-0.56523">
        <ele>216.23</ele>
        <time>2024-06-25T14:50:29.518Z</time>
      </trkpt>
      <trkpt lat="46.78872" lon="-0.5652">
        <ele>216.28</ele>
        <time>2024-06-25T14:50:42.124Z</time>
      </trkpt>
      <trkpt lat="46.78875" lon="-0.56518">
        <ele>216.33</ele>
        <time>2024-06-25T14:50:54.731Z</time>
      </trkpt>
      <trkpt lat="46.78879" lon="-0.56515">
        <ele>216.38</ele>
        <time>2024-06-25T14:51:07.339Z</time>
      </trkpt>
      <trkpt lat="46.78883" lon="-0.56513">
        <ele>216.42</ele>
        <time>2024-06-25T14:51:19.947Z</time>
      </trkpt>
      <trkpt lat="46.78887" lon="-0.5651">
        <ele>216.47</ele>
        <time>2024-06-25T14:51:32.556Z</time>
      </trkpt>
      <trkpt lat="46.7889" lon="-0.56507">
        <ele>216.51</ele>
        <time>2024-06-25T14:51:45.166Z</time>
      </trkpt>
      <trkpt lat="46.78894" lon="-0.56504">
        <ele>216.55</ele>
        <time>2024-06-25T14:51:57.777Z</time>
      </trkpt>
      <trkpt lat="46.78897" lon="-0.56502">
        <ele>216.58</ele>
        <time>2024-06-25T14:52:10.389Z</time>
      </trkpt>
      <trkpt lat="46.78901" lon="-0.56498">
        <ele>216.61</ele>
        <time>2024-06-25T14:52:23.002Z</time>
      </trkpt>
      <trkpt lat="46.78905" lon="-0.56495">
        <ele>216.64</ele>
        <time>2024-06-25T14:52:35.615Z</time>
      </trkpt>
      <trkpt lat="46.78908" lon="-0.56493">
        <ele>216.67</ele>
        <time>2024-06-25T14:52:48.229Z</time>
      </trkpt>
      <trkpt lat="46.78912" lon="-0.56489">
        <ele>216.69</ele>
        <time>2024-06-25T14:53:00.844Z</time>
      </trkpt>
      <trkpt lat="46.78916" lon="-0.56486">
        <ele>216.71</ele>
        <time>2024-06-25T14:53:13.460Z</time>
      </trkpt>
      <trkpt lat="46.78919" lon="-0.56482">
        <ele>216.73</ele>
        <time>2024-06-25T14:53:26.077Z</time>
      </trkpt>
      <trkpt lat="46.78923" lon="-0.56478">
        <ele>216.74</ele>
        <time>2024-06-25T14:53:38.695Z</time>
      </trkpt>
      <trkpt lat="46.78927" lon="-0.56475">
        <ele>216.76</ele>
        <time>2024-06-25T14:53:51.314Z</time>
      </trkpt>
      <trkpt lat="46.7893" lon="-0.56471">
        <ele>216.78</ele>
        <time>2024-06-25T14:54:03.933Z</time>
      </trkpt>
      <trkpt lat="46.78933" lon="-0.56468">
        <ele>216.79</ele>
        <time>2024-06-25T14:54:16.553Z</time>
      </trkpt>
      <trkpt lat="46.78937" lon="-0.56464">
        <ele>216.81</ele>
        <time>2024-06-25T14:54:29.174Z</time>
      </trkpt>
      <trkpt lat="46.78941" lon="-0.5646">
        <ele>216.82</ele>
        <time>2024-06-25T14:54:41.796Z</time>
      </trkpt>
      <trkpt lat="46.78944" lon="-0.56456">
        <ele>216.83</ele>
        <time>2024-06-25T14:54:54.419Z</time>
      </trkpt>
      <trkpt lat="46.78948" lon="-0.56452">
        <ele>216.83</ele>
        <time>2024-06-25T14:55:07.043Z</time>
      </trkpt>
      <trkpt lat="46.78951" lon="-0.56448">
        <ele>216.84</ele>
        <time>2024-06-25T14:55:19.668Z</time>
      </trkpt>
      <trkpt lat="46.78955" lon="-0.56444">
        <ele>216.84</ele>
        <time>2024-06-25T14:55:32.294Z</time>
      </trkpt>
      <trkpt lat="46.78958" lon="-0.56439">
        <ele>216.84</ele>
        <time>2024-06-25T14:55:44.921Z</time>
      </trkpt>
      <trkpt lat="46.78962" lon="-0.56435">
        <ele>216.84</ele>
        <time>2024-06-25T14:55:57.549Z</time>
      </trkpt>
      <trkpt lat="46.78966" lon="-0.56431">
        <ele>216.84</ele>
        <time>2024-06-25T14:56:10.178Z</time>
      </trkpt>
      <trkpt lat="46.78969" lon="-0.56427">
        <ele>216.83</ele>
        <time>2024-06-25T14:56:22.807Z</time>
      </trkpt>
      <trkpt lat="46.78973" lon="-0.56422">
        <ele>216.83</ele>
        <time>2024-06-25T14:56:35.438Z</time>
      </trkpt>
      <trkpt lat="46.78977" lon="-0.56417">
        <ele>216.82</ele>
        <time>2024-06-25T14:56:48.070Z</time>
      </trkpt>
      <trkpt lat="46.78981" lon="-0.56412">
        <ele>216.8</ele>
        <time>2024-06-25T14:57:00.702Z</time>
      </trkpt>
      <trkpt lat="46.78984" lon="-0.56407">
        <ele>216.79</ele>
        <time>2024-06-25T14:57:13.335Z</time>
      </trkpt>
      <trkpt lat="46.78988" lon="-0.56402">
        <ele>216.76</ele>
        <time>2024-06-25T14:57:25.970Z</time>
      </trkpt>
      <trkpt lat="46.78992" lon="-0.56397">
        <ele>216.74</ele>
        <time>2024-06-25T14:57:38.606Z</time>
      </trkpt>
      <trkpt lat="46.78996" lon="-0.56392">
        <ele>216.72</ele>
        <time>2024-06-25T14:57:51.243Z</time>
      </trkpt>
      <trkpt lat="46.78999" lon="-0.56386">
        <ele>216.69</ele>
        <time>2024-06-25T14:58:03.881Z</time>
      </trkpt>
      <trkpt lat="46.79003" lon="-0.56381">
        <ele>216.67</ele>
        <time>2024-06-25T14:58:16.520Z</time>
      </trkpt>
      <trkpt lat="46.79007" lon="-0.56375">
        <ele>216.64</ele>
        <time>2024-06-25T14:58:29.160Z</time>
      </trkpt>
      <trkpt lat="46.79011" lon="-0.5637">
        <ele>216.61</ele>
        <time>2024-06-25T14:58:41.801Z</time>
      </trkpt>
      <trkpt lat="46.79015" lon="-0.56364">
        <ele>216.58</ele>
        <time>2024-06-25T14:58:54.443Z</time>
      </trkpt>
      <trkpt lat="46.79019" lon="-0.56358">
        <ele>216.54</ele>
        <time>2024-06-25T14:59:07.086Z</time>
      </trkpt>
      <trkpt lat="46.79024" lon="-0.56353">
        <ele>216.51</ele>
        <time>2024-06-25T14:59:19.730Z</time>
      </trkpt>
      <trkpt lat="46.79028" lon="-0.56347">
        <ele>216.47</ele>
        <time>2024-06-25T14:59:32.376Z</time>
      </trkpt>
      <trkpt lat="46.79033" lon="-0.56341">
        <ele>216.44</ele>
        <time>2024-06-25T14:59:45.023Z</time>
      </trkpt>
      <trkpt lat="46.79038" lon="-0.56335">
        <ele>216.4</ele>
        <time>2024-06-25T14:59:57.671Z</time>
      </trkpt>
      <trkpt lat="46.79043" lon="-0.5633">
        <ele>216.38</ele>
        <time>2024-06-25T15:00:10.320Z</time>
      </trkpt>
      <trkpt lat="46.79048" lon="-0.56324">
        <ele>216.35</ele>
        <time>2024-06-25T15:00:22.971Z</time>
      </trkpt>
      <trkpt lat="46.79053" lon="-0.56318">
        <ele>216.32</ele>
        <time>2024-06-25T15:00:35.623Z</time>
      </trkpt>
      <trkpt lat="46.79058" lon="-0.56312">
        <ele>216.3</ele>
        <time>2024-06-25T15:00:48.276Z</time>
      </trkpt>
      <trkpt lat="46.79063" lon="-0.56306">
        <ele>216.27</ele>
        <time>2024-06-25T15:01:00.931Z</time>
      </trkpt>
      <trkpt lat="46.79068" lon="-0.56301">
        <ele>216.24</ele>
        <time>2024-06-25T15:01:13.587Z</time>
      </trkpt>
      <trkpt lat="46.79073" lon="-0.56294">
        <ele>216.22</ele>
        <time>2024-06-25T15:01:26.244Z</time>
      </trkpt>
      <trkpt lat="46.79078" lon="-0.56288">
        <ele>216.19</ele>
        <time>2024-06-25T15:01:38.902Z</time>
      </trkpt>
      <trkpt lat="46.79083" lon="-0.56282">
        <ele>216.16</ele>
        <time>2024-06-25T15:01:51.562Z</time>
      </trkpt>
      <trkpt lat="46.79087" lon="-0.56277">
        <ele>216.14</ele>
        <time>2024-06-25T15:02:04.223Z</time>
      </trkpt>
      <trkpt lat="46.79092" lon="-0.56271">
        <ele>216.12</ele>
        <time>2024-06-25T15:02:16.885Z</time>
      </trkpt>
      <trkpt lat="46.79097" lon="-0.56265">
        <ele>216.1</ele>
        <time>2024-06-25T15:02:29.548Z</time>
      </trkpt>
      <trkpt lat="46.79101" lon="-0.56259">
        <ele>216.08</ele>
        <time>2024-06-25T15:02:42.213Z</time>
      </trkpt>
      <trkpt lat="46.79106" lon="-0.56253">
        <ele>216.07</ele>
        <time>2024-06-25T15:02:54.879Z</time>
      </trkpt>
      <trkpt lat="46.7911" lon="-0.56247">
        <ele>216.05</ele>
        <time>2024-06-25T15:03:07.546Z</time>
      </trkpt>
      <trkpt lat="46.79114" lon="-0.5624">
        <ele>216.03</ele>
        <time>2024-06-25T15:03:20.214Z</time>
      </trkpt>
      <trkpt lat="46.79118" lon="-0.56234">
        <ele>216.01</ele>
        <time>2024-06-25T15:03:32.883Z</time>
      </trkpt>
      <trkpt lat="46.79122" lon="-0.56228">
        <ele>216</ele>
        <time>2024-06-25T15:03:45.553Z</time>
      </trkpt>
      <trkpt lat="46.79126" lon="-0.56223">
        <ele>215.99</ele>
        <time>2024-06-25T15:03:58.225Z</time>
      </trkpt>
      <trkpt lat="46.79131" lon="-0.56217">
        <ele>215.98</ele>
        <time>2024-06-25T15:04:10.898Z</time>
      </trkpt>
      <trkpt lat="46.79135" lon="-0.56211">
        <ele>215.97</ele>
        <time>2024-06-25T15:04:23.572Z</time>
      </trkpt>
      <trkpt lat="46.79139" lon="-0.56205">
        <ele>215.95</ele>
        <time>2024-06-25T15:04:36.247Z</time>
      </trkpt>
      <trkpt lat="46.79144" lon="-0.562">
        <ele>215.94</ele>
        <time>2024-06-25T15:04:48.923Z</time>
      </trkpt>
      <trkpt lat="46.79148" lon="-0.56194">
        <ele>215.93</ele>
        <time>2024-06-25T15:05:01.601Z</time>
      </trkpt>
      <trkpt lat="46.79153" lon="-0.56188">
        <ele>215.93</ele>
        <time>2024-06-25T15:05:14.280Z</time>
      </trkpt>
      <trkpt lat="46.79157" lon="-0.56183">
        <ele>215.92</ele>
        <time>2024-06-25T15:05:26.960Z</time>
      </trkpt>
      <trkpt lat="46.79162" lon="-0.56177">
        <ele>215.91</ele>
        <time>2024-06-25T15:05:39.641Z</time>
      </trkpt>
      <trkpt lat="46.79166" lon="-0.56171">
        <ele>215.9</ele>
        <time>2024-06-25T15:05:52.323Z</time>
      </trkpt>
      <trkpt lat="46.79171" lon="-0.56165">
        <ele>215.9</ele>
        <time>2024-06-25T15:06:05.007Z</time>
      </trkpt>
      <trkpt lat="46.79175" lon="-0.5616">
        <ele>215.89</ele>
        <time>2024-06-25T15:06:17.692Z</time>
      </trkpt>
      <trkpt lat="46.79179" lon="-0.56154">
        <ele>215.88</ele>
        <time>2024-06-25T15:06:30.378Z</time>
      </trkpt>
      <trkpt lat="46.79184" lon="-0.56149">
        <ele>215.87</ele>
        <time>2024-06-25T15:06:43.065Z</time>
      </trkpt>
      <trkpt lat="46.79189" lon="-0.56145">
        <ele>215.86</ele>
        <time>2024-06-25T15:06:55.753Z</time>
      </trkpt>
      <trkpt lat="46.79194" lon="-0.56141">
        <ele>215.84</ele>
        <time>2024-06-25T15:07:08.442Z</time>
      </trkpt>
      <trkpt lat="46.792" lon="-0.56138">
        <ele>215.83</ele>
        <time>2024-06-25T15:07:21.133Z</time>
      </trkpt>
      <trkpt lat="46.79206" lon="-0.56135">
        <ele>215.81</ele>
        <time>2024-06-25T15:07:33.825Z</time>
      </trkpt>
      <trkpt lat="46.79211" lon="-0.56132">
        <ele>215.8</ele>
        <time>2024-06-25T15:07:46.518Z</time>
      </trkpt>
      <trkpt lat="46.79216" lon="-0.56127">
        <ele>215.78</ele>
        <time>2024-06-25T15:07:59.212Z</time>
      </trkpt>
      <trkpt lat="46.79222" lon="-0.56123">
        <ele>215.77</ele>
        <time>2024-06-25T15:08:11.907Z</time>
      </trkpt>
      <trkpt lat="46.79227" lon="-0.5612">
        <ele>215.75</ele>
        <time>2024-06-25T15:08:24.603Z</time>
      </trkpt>
      <trkpt lat="46.79232" lon="-0.56115">
        <ele>215.74</ele>
        <time>2024-06-25T15:08:37.301Z</time>
      </trkpt>
      <trkpt lat="46.79238" lon="-0.5611">
        <ele>215.73</ele>
        <time>2024-06-25T15:08:50.000Z</time>
      </trkpt>
      <trkpt lat="46.79243" lon="-0.56106">
        <ele>215.72</ele>
        <time>2024-06-25T15:09:02.700Z</time>
      </trkpt>
      <trkpt lat="46.79249" lon="-0.56102">
        <ele>215.71</ele>
        <time>2024-06-25T15:09:15.401Z</time>
      </trkpt>
      <trkpt lat="46.79254" lon="-0.56098">
        <ele>215.7</ele>
        <time>2024-06-25T15:09:28.104Z</time>
      </trkpt>
      <trkpt lat="46.79259" lon="-0.56093">
        <ele>215.69</ele>
        <time>2024-06-25T15:09:40.808Z</time>
      </trkpt>
      <trkpt lat="46.79265" lon="-0.56089">
        <ele>215.68</ele>
        <time>2024-06-25T15:09:53.513Z</time>
      </trkpt>
      <trkpt lat="46.7927" lon="-0.56084">
        <ele>215.67</ele>
        <time>2024-06-25T15:10:06.219Z</time>
      </trkpt>
      <trkpt lat="46.79275" lon="-0.56081">
        <ele>215.65</ele>
        <time>2024-06-25T15:10:18.926Z</time>
      </trkpt>
      <trkpt lat="46.7928" lon="-0.56077">
        <ele>215.63</ele>
        <time>2024-06-25T15:10:31.635Z</time>
      </trkpt>
      <trkpt lat="46.79285" lon="-0.56073">
        <ele>215.61</ele>
        <time>2024-06-25T15:10:44.345Z</time>
      </trkpt>
      <trkpt lat="46.79289" lon="-0.56069">
        <ele>215.57</ele>
        <time>2024-06-25T15:10:57.056Z</time>
      </trkpt>
      <trkpt lat="46.79294" lon="-0.56065">
        <ele>215.53</ele>
        <time>2024-06-25T15:11:09.768Z</time>
      </trkpt>
      <trkpt lat="46.79299" lon="-0.56062">
        <ele>215.49</ele>
        <time>2024-06-25T15:11:22.481Z</time>
      </trkpt>
      <trkpt lat="46.79303" lon="-0.56064">
        <ele>215.44</ele>
        <time>2024-06-25T15:11:35.195Z</time>
      </trkpt>
      <trkpt lat="46.79307" lon="-0.56068">
        <ele>215.38</ele>
        <time>2024-06-25T15:11:47.910Z</time>
      </trkpt>
      <trkpt lat="46.7931" lon="-0.56074">
        <ele>215.32</ele>
        <time>2024-06-25T15:12:00.626Z</time>
      </trkpt>
      <trkpt lat="46.79313" lon="-0.5608">
        <ele>215.25</ele>
        <time>2024-06-25T15:12:13.343Z</time>
      </trkpt>
      <trkpt lat="46.79318" lon="-0.56084">
        <ele>215.19</ele>
        <time>2024-06-25T15:12:26.061Z</time>
      </trkpt>
      <trkpt lat="46.79324" lon="-0.56087">
        <ele>215.12</ele>
        <time>2024-06-25T15:12:38.780Z</time>
      </trkpt>
      <trkpt lat="46.7933" lon="-0.5609">
        <ele>215.04</ele>
        <time>2024-06-25T15:12:51.501Z</time>
      </trkpt>
      <trkpt lat="46.79336" lon="-0.56094">
        <ele>214.97</ele>
        <time>2024-06-25T15:13:04.223Z</time>
      </trkpt>
      <trkpt lat="46.79342" lon="-0.56098">
        <ele>214.88</ele>
        <time>2024-06-25T15:13:16.946Z</time>
      </trkpt>
      <trkpt lat="46.79348" lon="-0.56102">
        <ele>214.8</ele>
        <time>2024-06-25T15:13:29.671Z</time>
      </trkpt>
      <trkpt lat="46.79354" lon="-0.56108">
        <ele>214.71</ele>
        <time>2024-06-25T15:13:42.397Z</time>
      </trkpt>
      <trkpt lat="46.7936" lon="-0.56113">
        <ele>214.63</ele>
        <time>2024-06-25T15:13:55.124Z</time>
      </trkpt>
      <trkpt lat="46.79365" lon="-0.56119">
        <ele>214.54</ele>
        <time>2024-06-25T15:14:07.853Z</time>
      </trkpt>
      <trkpt lat="46.79369" lon="-0.56124">
        <ele>214.45</ele>
        <time>2024-06-25T15:14:20.583Z</time>
      </trkpt>
      <trkpt lat="46.79374" lon="-0.56129">
        <ele>214.37</ele>
        <time>2024-06-25T15:14:33.314Z</time>
      </trkpt>
      <trkpt lat="46.79379" lon="-0.56134">
        <ele>214.29</ele>
        <time>2024-06-25T15:14:46.046Z</time>
      </trkpt>
      <trkpt lat="46.79383" lon="-0.5614">
        <ele>214.2</ele>
        <time>2024-06-25T15:14:58.779Z</time>
      </trkpt>
      <trkpt lat="46.79386" lon="-0.56147">
        <ele>214.11</ele>
        <time>2024-06-25T15:15:11.513Z</time>
      </trkpt>
      <trkpt lat="46.7939" lon="-0.56153">
        <ele>214.02</ele>
        <time>2024-06-25T15:15:24.248Z</time>
      </trkpt>
      <trkpt lat="46.79392" lon="-0.56159">
        <ele>213.93</ele>
        <time>2024-06-25T15:15:36.984Z</time>
      </trkpt>
      <trkpt lat="46.79395" lon="-0.56166">
        <ele>213.83</ele>
        <time>2024-06-25T15:15:49.722Z</time>
      </trkpt>
      <trkpt lat="46.79397" lon="-0.56172">
        <ele>213.73</ele>
        <time>2024-06-25T15:16:02.460Z</time>
      </trkpt>
      <trkpt lat="46.79398" lon="-0.5618">
        <ele>213.63</ele>
        <time>2024-06-25T15:16:15.200Z</time>
      </trkpt>
      <trkpt lat="46.79398" lon="-0.56188">
        <ele>213.52</ele>
        <time>2024-06-25T15:16:27.941Z</time>
      </trkpt>
      <trkpt lat="46.79397" lon="-0.56195">
        <ele>213.42</ele>
        <time>2024-06-25T15:16:40.683Z</time>
      </trkpt>
      <trkpt lat="46.79397" lon="-0.56202">
        <ele>213.31</ele>
        <time>2024-06-25T15:16:53.426Z</time>
      </trkpt>
      <trkpt lat="46.79396" lon="-0.5621">
        <ele>213.2</ele>
        <time>2024-06-25T15:17:06.170Z</time>
      </trkpt>
      <trkpt lat="46.79396" lon="-0.56219">
        <ele>213.09</ele>
        <time>2024-06-25T15:17:18.915Z</time>
      </trkpt>
      <trkpt lat="46.79396" lon="-0.56227">
        <ele>212.98</ele>
        <time>2024-06-25T15:17:31.661Z</time>
      </trkpt>
      <trkpt lat="46.79397" lon="-0.56236">
        <ele>212.88</ele>
        <time>2024-06-25T15:17:44.408Z</time>
      </trkpt>
      <trkpt lat="46.79397" lon="-0.56244">
        <ele>212.77</ele>
        <time>2024-06-25T15:17:57.156Z</time>
      </trkpt>
      <trkpt lat="46.79398" lon="-0.56252">
        <ele>212.67</ele>
        <time>2024-06-25T15:18:09.906Z</time>
      </trkpt>
      <trkpt lat="46.79401" lon="-0.5626">
        <ele>212.57</ele>
        <time>2024-06-25T15:18:22.657Z</time>
      </trkpt>
      <trkpt lat="46.79403" lon="-0.56267">
        <ele>212.48</ele>
        <time>2024-06-25T15:18:35.409Z</time>
      </trkpt>
      <trkpt lat="46.79406" lon="-0.56275">
        <ele>212.38</ele>
        <time>2024-06-25T15:18:48.162Z</time>
      </trkpt>
      <trkpt lat="46.79408" lon="-0.56281">
        <ele>212.29</ele>
        <time>2024-06-25T15:19:00.916Z</time>
      </trkpt>
      <trkpt lat="46.79411" lon="-0.56287">
        <ele>212.19</ele>
        <time>2024-06-25T15:19:13.671Z</time>
      </trkpt>
      <trkpt lat="46.79414" lon="-0.56293">
        <ele>212.1</ele>
        <time>2024-06-25T15:19:26.427Z</time>
      </trkpt>
      <trkpt lat="46.79417" lon="-0.563">
        <ele>212.01</ele>
        <time>2024-06-25T15:19:39.184Z</time>
      </trkpt>
      <trkpt lat="46.7942" lon="-0.56307">
        <ele>211.91</ele>
        <time>2024-06-25T15:19:51.942Z</time>
      </trkpt>
      <trkpt lat="46.79422" lon="-0.56315">
        <ele>211.83</ele>
        <time>2024-06-25T15:20:04.701Z</time>
      </trkpt>
      <trkpt lat="46.79426" lon="-0.56322">
        <ele>211.74</ele>
        <time>2024-06-25T15:20:17.462Z</time>
      </trkpt>
      <trkpt lat="46.79429" lon="-0.56329">
        <ele>211.66</ele>
        <time>2024-06-25T15:20:30.224Z</time>
      </trkpt>
      <trkpt lat="46.79432" lon="-0.56336">
        <ele>211.58</ele>
        <time>2024-06-25T15:20:42.987Z</time>
      </trkpt>
      <trkpt lat="46.79435" lon="-0.56342">
        <ele>211.5</ele>
        <time>2024-06-25T15:20:55.751Z</time>
      </trkpt>
      <trkpt lat="46.79438" lon="-0.5635">
        <ele>211.42</ele>
        <time>2024-06-25T15:21:08.516Z</time>
      </trkpt>
      <trkpt lat="46.7944" lon="-0.56357">
        <ele>211.35</ele>
        <time>2024-06-25T15:21:21.282Z</time>
      </trkpt>
      <trkpt lat="46.79443" lon="-0.56364">
        <ele>211.28</ele>
        <time>2024-06-25T15:21:34.049Z</time>
      </trkpt>
      <trkpt lat="46.79446" lon="-0.56372">
        <ele>211.22</ele>
        <time>2024-06-25T15:21:46.818Z</time>
      </trkpt>
      <trkpt lat="46.79448" lon="-0.5638">
        <ele>211.16</ele>
        <time>2024-06-25T15:21:59.588Z</time>
      </trkpt>
      <trkpt lat="46.79451" lon="-0.56387">
        <ele>211.11</ele>
        <time>2024-06-25T15:22:12.359Z</time>
      </trkpt>
      <trkpt lat="46.79453" lon="-0.56395">
        <ele>211.06</ele>
        <time>2024-06-25T15:22:25.131Z</time>
      </trkpt>
      <trkpt lat="46.79456" lon="-0.56403">
        <ele>211.02</ele>
        <time>2024-06-25T15:22:37.904Z</time>
      </trkpt>
      <trkpt lat="46.79458" lon="-0.56411">
        <ele>210.98</ele>
        <time>2024-06-25T15:22:50.678Z</time>
      </trkpt>
      <trkpt lat="46.79461" lon="-0.56419">
        <ele>210.94</ele>
        <time>2024-06-25T15:23:03.454Z</time>
      </trkpt>
      <trkpt lat="46.79464" lon="-0.56427">
        <ele>210.91</ele>
        <time>2024-06-25T15:23:16.231Z</time>
      </trkpt>
      <trkpt lat="46.79466" lon="-0.56435">
        <ele>210.88</ele>
        <time>2024-06-25T15:23:29.009Z</time>
      </trkpt>
      <trkpt lat="46.79469" lon="-0.56443">
        <ele>210.85</ele>
        <time>2024-06-25T15:23:41.788Z</time>
      </trkpt>
      <trkpt lat="46.79472" lon="-0.56451">
        <ele>210.82</ele>
        <time>2024-06-25T15:23:54.569Z</time>
      </trkpt>
      <trkpt lat="46.79474" lon="-0.56459">
        <ele>210.79</ele>
        <time>2024-06-25T15:24:07.351Z</time>
      </trkpt>
      <trkpt lat="46.79477" lon="-0.56467">
        <ele>210.76</ele>
        <time>2024-06-25T15:24:20.134Z</time>
      </trkpt>
      <trkpt lat="46.79479" lon="-0.56475">
        <ele>210.74</ele>
        <time>2024-06-25T15:24:32.918Z</time>
      </trkpt>
      <trkpt lat="46.79481" lon="-0.56483">
        <ele>210.73</ele>
        <time>2024-06-25T15:24:45.703Z</time>
      </trkpt>
      <trkpt lat="46.79484" lon="-0.5649">
        <ele>210.72</ele>
        <time>2024-06-25T15:24:58.489Z</time>
      </trkpt>
      <trkpt lat="46.79485" lon="-0.56498">
        <ele>210.72</ele>
        <time>2024-06-25T15:25:11.277Z</time>
      </trkpt>
      <trkpt lat="46.79487" lon="-0.56505">
        <ele>210.71</ele>
        <time>2024-06-25T15:25:24.066Z</time>
      </trkpt>
      <trkpt lat="46.7949" lon="-0.56512">
        <ele>210.72</ele>
        <time>2024-06-25T15:25:36.856Z</time>
      </trkpt>
      <trkpt lat="46.79494" lon="-0.56517">
        <ele>210.72</ele>
        <time>2024-06-25T15:25:49.647Z</time>
      </trkpt>
      <trkpt lat="46.79499" lon="-0.5652">
        <ele>210.73</ele>
        <time>2024-06-25T15:26:02.439Z</time>
      </trkpt>
      <trkpt lat="46.79503" lon="-0.56522">
        <ele>210.75</ele>
        <time>2024-06-25T15:26:15.232Z</time>
      </trkpt>
      <trkpt lat="46.79509" lon="-0.56521">
        <ele>210.77</ele>
        <time>2024-06-25T15:26:28.026Z</time>
      </trkpt>
      <trkpt lat="46.79514" lon="-0.5652">
        <ele>210.79</ele>
        <time>2024-06-25T15:26:40.821Z</time>
      </trkpt>
      <trkpt lat="46.79519" lon="-0.56518">
        <ele>210.81</ele>
        <time>2024-06-25T15:26:53.617Z</time>
      </trkpt>
      <trkpt lat="46.79523" lon="-0.56516">
        <ele>210.84</ele>
        <time>2024-06-25T15:27:06.414Z</time>
      </trkpt>
      <trkpt lat="46.79528" lon="-0.56513">
        <ele>210.87</ele>
        <time>2024-06-25T15:27:19.212Z</time>
      </trkpt>
      <trkpt lat="46.79532" lon="-0.56511">
        <ele>210.9</ele>
        <time>2024-06-25T15:27:32.011Z</time>
      </trkpt>
      <trkpt lat="46.79536" lon="-0.56508">
        <ele>210.94</ele>
        <time>2024-06-25T15:27:44.811Z</time>
      </trkpt>
      <trkpt lat="46.79541" lon="-0.56506">
        <ele>210.99</ele>
        <time>2024-06-25T15:27:57.612Z</time>
      </trkpt>
      <trkpt lat="46.79545" lon="-0.56504">
        <ele>211.04</ele>
        <time>2024-06-25T15:28:10.413Z</time>
      </trkpt>
      <trkpt lat="46.79548" lon="-0.56502">
        <ele>211.09</ele>
        <time>2024-06-25T15:28:23.215Z</time>
      </trkpt>
      <trkpt lat="46.79552" lon="-0.56501">
        <ele>211.15</ele>
        <time>2024-06-25T15:28:36.018Z</time>
      </trkpt>
      <trkpt lat="46.79556" lon="-0.56499">
        <ele>211.21</ele>
        <time>2024-06-25T15:28:48.822Z</time>
      </trkpt>
      <trkpt lat="46.7956" lon="-0.56498">
        <ele>211.27</ele>
        <time>2024-06-25T15:29:01.627Z</time>
      </trkpt>
      <trkpt lat="46.79564" lon="-0.56497">
        <ele>211.33</ele>
        <time>2024-06-25T15:29:14.432Z</time>
      </trkpt>
      <trkpt lat="46.79568" lon="-0.56497">
        <ele>211.39</ele>
        <time>2024-06-25T15:29:27.238Z</time>
      </trkpt>
      <trkpt lat="46.79571" lon="-0.56499">
        <ele>211.46</ele>
        <time>2024-06-25T15:29:40.045Z</time>
      </trkpt>
      <trkpt lat="46.79575" lon="-0.56501">
        <ele>211.52</ele>
        <time>2024-06-25T15:29:52.853Z</time>
      </trkpt>
      <trkpt lat="46.79578" lon="-0.56504">
        <ele>211.59</ele>
        <time>2024-06-25T15:30:05.661Z</time>
      </trkpt>
      <trkpt lat="46.79581" lon="-0.56508">
        <ele>211.66</ele>
        <time>2024-06-25T15:30:18.470Z</time>
      </trkpt>
      <trkpt lat="46.79583" lon="-0.56514">
        <ele>211.73</ele>
        <time>2024-06-25T15:30:31.280Z</time>
      </trkpt>
      <trkpt lat="46.79585" lon="-0.56519">
        <ele>211.81</ele>
        <time>2024-06-25T15:30:44.091Z</time>
      </trkpt>
      <trkpt lat="46.79587" lon="-0.56526">
        <ele>211.88</ele>
        <time>2024-06-25T15:30:56.903Z</time>
      </trkpt>
      <trkpt lat="46.79589" lon="-0.56531">
        <ele>211.96</ele>
        <time>2024-06-25T15:31:09.716Z</time>
      </trkpt>
      <trkpt lat="46.79591" lon="-0.56537">
        <ele>212.03</ele>
        <time>2024-06-25T15:31:22.530Z</time>
      </trkpt>
      <trkpt lat="46.79592" lon="-0.56543">
        <ele>212.11</ele>
        <time>2024-06-25T15:31:35.345Z</time>
      </trkpt>
      <trkpt lat="46.79594" lon="-0.5655">
        <ele>212.19</ele>
        <time>2024-06-25T15:31:48.161Z</time>
      </trkpt>
      <trkpt lat="46.79596" lon="-0.56555">
        <ele>212.27</ele>
        <time>2024-06-25T15:32:00.977Z</time>
      </trkpt>
      <trkpt lat="46.79599" lon="-0.56561">
        <ele>212.35</ele>
        <time>2024-06-25T15:32:13.794Z</time>
      </trkpt>
      <trkpt lat="46.79601" lon="-0.56567">
        <ele>212.44</ele>
        <time>2024-06-25T15:32:26.612Z</time>
      </trkpt>
      <trkpt lat="46.79603" lon="-0.56574">
        <ele>212.52</ele>
        <time>2024-06-25T15:32:39.431Z</time>
      </trkpt>
      <trkpt lat="46.79605" lon="-0.5658">
        <ele>212.61</ele>
        <time>2024-06-25T15:32:52.251Z</time>
      </trkpt>
      <trkpt lat="46.79608" lon="-0.56586">
        <ele>212.69</ele>
        <time>2024-06-25T15:33:05.072Z</time>
      </trkpt>
      <trkpt lat="46.7961" lon="-0.56592">
        <ele>212.78</ele>
        <time>2024-06-25T15:33:17.894Z</time>
      </trkpt>
      <trkpt lat="46.79612" lon="-0.56598">
        <ele>212.87</ele>
        <time>2024-06-25T15:33:30.717Z</time>
      </trkpt>
      <trkpt lat="46.79615" lon="-0.56603">
        <ele>212.97</ele>
        <time>2024-06-25T15:33:43.541Z</time>
      </trkpt>
      <trkpt lat="46.79618" lon="-0.56608">
        <ele>213.06</ele>
        <time>2024-06-25T15:33:56.366Z</time>
      </trkpt>
      <trkpt lat="46.79621" lon="-0.56615">
        <ele>213.15</ele>
        <time>2024-06-25T15:34:09.192Z</time>
      </trkpt>
      <trkpt lat="46.79623" lon="-0.56621">
        <ele>213.25</ele>
        <time>2024-06-25T15:34:22.019Z</time>
      </trkpt>
      <trkpt lat="46.79625" lon="-0.56626">
        <ele>213.35</ele>
        <time>2024-06-25T15:34:34.847Z</time>
      </trkpt>
      <trkpt lat="46.79628" lon="-0.56632">
        <ele>213.45</ele>
        <time>2024-06-25T15:34:47.676Z</time>
      </trkpt>
      <trkpt lat="46.79631" lon="-0.56638">
        <ele>213.55</ele>
        <time>2024-06-25T15:35:00.506Z</time>
      </trkpt>
      <trkpt lat="46.79634" lon="-0.56643">
        <ele>213.66</ele>
        <time>2024-06-25T15:35:13.337Z</time>
      </trkpt>
      <trkpt lat="46.79637" lon="-0.56648">
        <ele>213.76</ele>
        <time>2024-06-25T15:35:26.169Z</time>
      </trkpt>
      <trkpt lat="46.7964" lon="-0.56653">
        <ele>213.87</ele>
        <time>2024-06-25T15:35:39.002Z</time>
      </trkpt>
      <trkpt lat="46.79643" lon="-0.56657">
        <ele>213.97</ele>
        <time>2024-06-25T15:35:51.835Z</time>
      </trkpt>
      <trkpt lat="46.79646" lon="-0.56662">
        <ele>214.07</ele>
        <time>2024-06-25T15:36:04.669Z</time>
      </trkpt>
      <trkpt lat="46.79649" lon="-0.56667">
        <ele>214.18</ele>
        <time>2024-06-25T15:36:17.504Z</time>
      </trkpt>
      <trkpt lat="46.79652" lon="-0.56672">
        <ele>214.29</ele>
        <time>2024-06-25T15:36:30.340Z</time>
      </trkpt>
      <trkpt lat="46.79655" lon="-0.56676">
        <ele>214.4</ele>
        <time>2024-06-25T15:36:43.177Z</time>
      </trkpt>
      <trkpt lat="46.79658" lon="-0.56681">
        <ele>214.52</ele>
        <time>2024-06-25T15:36:56.015Z</time>
      </trkpt>
      <trkpt lat="46.79661" lon="-0.56686">
        <ele>214.64</ele>
        <time>2024-06-25T15:37:08.854Z</time>
      </trkpt>
      <trkpt lat="46.79664" lon="-0.5669">
        <ele>214.76</ele>
        <time>2024-06-25T15:37:21.694Z</time>
      </trkpt>
      <trkpt lat="46.79667" lon="-0.56694">
        <ele>214.88</ele>
        <time>2024-06-25T15:37:34.534Z</time>
      </trkpt>
      <trkpt lat="46.7967" lon="-0.56699">
        <ele>215.01</ele>
        <time>2024-06-25T15:37:47.375Z</time>
      </trkpt>
      <trkpt lat="46.79673" lon="-0.56703">
        <ele>215.14</ele>
        <time>2024-06-25T15:38:00.217Z</time>
      </trkpt>
      <trkpt lat="46.79676" lon="-0.56707">
        <ele>215.27</ele>
        <time>2024-06-25T15:38:13.060Z</time>
      </trkpt>
      <trkpt lat="46.79679" lon="-0.56712">
        <ele>215.4</ele>
        <time>2024-06-25T15:38:25.904Z</time>
      </trkpt>
      <trkpt lat="46.79682" lon="-0.56716">
        <ele>215.53</ele>
        <time>2024-06-25T15:38:38.749Z</time>
      </trkpt>
      <trkpt lat="46.79685" lon="-0.56721">
        <ele>215.66</ele>
        <time>2024-06-25T15:38:51.595Z</time>
      </trkpt>
      <trkpt lat="46.79687" lon="-0.56725">
        <ele>215.79</ele>
        <time>2024-06-25T15:39:04.441Z</time>
      </trkpt>
      <trkpt lat="46.7969" lon="-0.5673">
        <ele>215.92</ele>
        <time>2024-06-25T15:39:17.288Z</time>
      </trkpt>
      <trkpt lat="46.79694" lon="-0.56734">
        <ele>216.05</ele>
        <time>2024-06-25T15:39:30.136Z</time>
      </trkpt>
      <trkpt lat="46.79696" lon="-0.56738">
        <ele>216.18</ele>
        <time>2024-06-25T15:39:42.985Z</time>
      </trkpt>
      <trkpt lat="46.79699" lon="-0.56743">
        <ele>216.32</ele>
        <time>2024-06-25T15:39:55.835Z</time>
      </trkpt>
      <trkpt lat="46.79702" lon="-0.56747">
        <ele>216.46</ele>
        <time>2024-06-25T15:40:08.685Z</time>
      </trkpt>
      <trkpt lat="46.79704" lon="-0.56752">
        <ele>216.6</ele>
        <time>2024-06-25T15:40:21.536Z</time>
      </trkpt>
      <trkpt lat="46.79707" lon="-0.56755">
        <ele>216.74</ele>
        <time>2024-06-25T15:40:34.388Z</time>
      </trkpt>
      <trkpt lat="46.7971" lon="-0.56759">
        <ele>216.88</ele>
        <time>2024-06-25T15:40:47.241Z</time>
      </trkpt>
      <trkpt lat="46.79712" lon="-0.56763">
        <ele>217.02</ele>
        <time>2024-06-25T15:41:00.095Z</time>
      </trkpt>
      <trkpt lat="46.79715" lon="-0.56767">
        <ele>217.16</ele>
        <time>2024-06-25T15:41:12.949Z</time>
      </trkpt>
      <trkpt lat="46.79718" lon="-0.5677">
        <ele>217.3</ele>
        <time>2024-06-25T15:41:25.804Z</time>
      </trkpt>
      <trkpt lat="46.7972" lon="-0.56774">
        <ele>217.44</ele>
        <time>2024-06-25T15:41:38.660Z</time>
      </trkpt>
      <trkpt lat="46.79722" lon="-0.56777">
        <ele>217.59</ele>
        <time>2024-06-25T15:41:51.516Z</time>
      </trkpt>
      <trkpt lat="46.79724" lon="-0.56781">
        <ele>217.73</ele>
        <time>2024-06-25T15:42:04.373Z</time>
      </trkpt>
      <trkpt lat="46.79727" lon="-0.56785">
        <ele>217.87</ele>
        <time>2024-06-25T15:42:17.231Z</time>
      </trkpt>
      <trkpt lat="46.79729" lon="-0.56788">
        <ele>218.02</ele>
        <time>2024-06-25T15:42:30.089Z</time>
      </trkpt>
      <trkpt lat="46.79732" lon="-0.56792">
        <ele>218.17</ele>
        <time>2024-06-25T15:42:42.948Z</time>
      </trkpt>
      <trkpt lat="46.79735" lon="-0.56795">
        <ele>218.32</ele>
        <time>2024-06-25T15:42:55.808Z</time>
      </trkpt>
      <trkpt lat="46.79738" lon="-0.56798">
        <ele>218.47</ele>
        <time>2024-06-25T15:43:08.669Z</time>
      </trkpt>
      <trkpt lat="46.7974" lon="-0.56801">
        <ele>218.61</ele>
        <time>2024-06-25T15:43:21.530Z</time>
      </trkpt>
      <trkpt lat="46.79743" lon="-0.56804">
        <ele>218.76</ele>
        <time>2024-06-25T15:43:34.392Z</time>
      </trkpt>
      <trkpt lat="46.79745" lon="-0.56807">
        <ele>218.9</ele>
        <time>2024-06-25T15:43:47.254Z</time>
      </trkpt>
      <trkpt lat="46.79747" lon="-0.56811">
        <ele>219.05</ele>
        <time>2024-06-25T15:44:00.117Z</time>
      </trkpt>
      <trkpt lat="46.79749" lon="-0.56813">
        <ele>219.19</ele>
        <time>2024-06-25T15:44:12.981Z</time>
      </trkpt>
      <trkpt lat="46.79752" lon="-0.56817">
        <ele>219.33</ele>
        <time>2024-06-25T15:44:25.845Z</time>
      </trkpt>
      <trkpt lat="46.79754" lon="-0.5682">
        <ele>219.48</ele>
        <time>2024-06-25T15:44:38.710Z</time>
      </trkpt>
      <trkpt lat="46.79756" lon="-0.56824">
        <ele>219.62</ele>
        <time>2024-06-25T15:44:51.576Z</time>
      </trkpt>
      <trkpt lat="46.79759" lon="-0.56827">
        <ele>219.76</ele>
        <time>2024-06-25T15:45:04.442Z</time>
      </trkpt>
      <trkpt lat="46.79761" lon="-0.56831">
        <ele>219.9</ele>
        <time>2024-06-25T15:45:17.309Z</time>
      </trkpt>
      <trkpt lat="46.79763" lon="-0.56833">
        <ele>220.04</ele>
        <time>2024-06-25T15:45:30.177Z</time>
      </trkpt>
      <trkpt lat="46.79765" lon="-0.56836">
        <ele>220.17</ele>
        <time>2024-06-25T15:45:43.045Z</time>
      </trkpt>
      <trkpt lat="46.79767" lon="-0.5684">
        <ele>220.29</ele>
        <time>2024-06-25T15:45:55.914Z</time>
      </trkpt>
      <trkpt lat="46.7977" lon="-0.56843">
        <ele>220.42</ele>
        <time>2024-06-25T15:46:08.783Z</time>
      </trkpt>
      <trkpt lat="46.79772" lon="-0.56847">
        <ele>220.53</ele>
        <time>2024-06-25T15:46:21.653Z</time>
      </trkpt>
      <trkpt lat="46.79774" lon="-0.56849">
        <ele>220.65</ele>
        <time>2024-06-25T15:46:34.524Z</time>
      </trkpt>
      <trkpt lat="46.79776" lon="-0.56852">
        <ele>220.77</ele>
        <time>2024-06-25T15:46:47.395Z</time>
      </trkpt>
      <trkpt lat="46.79779" lon="-0.56854">
        <ele>220.88</ele>
        <time>2024-06-25T15:47:00.267Z</time>
      </trkpt>
      <trkpt lat="46.79781" lon="-0.56857">
        <ele>220.99</ele>
        <time>2024-06-25T15:47:13.139Z</time>
      </trkpt>
      <trkpt lat="46.79784" lon="-0.56859">
        <ele>221.09</ele>
        <time>2024-06-25T15:47:26.012Z</time>
      </trkpt>
      <trkpt lat="46.79787" lon="-0.56861">
        <ele>221.18</ele>
        <time>2024-06-25T15:47:38.886Z</time>
      </trkpt>
      <trkpt lat="46.7979" lon="-0.56862">
        <ele>221.27</ele>
        <time>2024-06-25T15:47:51.760Z</time>
      </trkpt>
      <trkpt lat="46.79792" lon="-0.56864">
        <ele>221.36</ele>
        <time>2024-06-25T15:48:04.635Z</time>
      </trkpt>
      <trkpt lat="46.79795" lon="-0.56866">
        <ele>221.43</ele>
        <time>2024-06-25T15:48:17.511Z</time>
      </trkpt>
      <trkpt lat="46.79798" lon="-0.56869">
        <ele>221.51</ele>
        <time>2024-06-25T15:48:30.387Z</time>
      </trkpt>
      <trkpt lat="46.79801" lon="-0.56872">
        <ele>221.57</ele>
        <time>2024-06-25T15:48:43.264Z</time>
      </trkpt>
      <trkpt lat="46.79804" lon="-0.56874">
        <ele>221.63</ele>
        <time>2024-06-25T15:48:56.142Z</time>
      </trkpt>
      <trkpt lat="46.79807" lon="-0.56878">
        <ele>221.69</ele>
        <time>2024-06-25T15:49:09.020Z</time>
      </trkpt>
      <trkpt lat="46.7981" lon="-0.56881">
        <ele>221.74</ele>
        <time>2024-06-25T15:49:21.899Z</time>
      </trkpt>
      <trkpt lat="46.79812" lon="-0.56885">
        <ele>221.78</ele>
        <time>2024-06-25T15:49:34.779Z</time>
      </trkpt>
      <trkpt lat="46.79815" lon="-0.56888">
        <ele>221.82</ele>
        <time>2024-06-25T15:49:47.660Z</time>
      </trkpt>
      <trkpt lat="46.79818" lon="-0.56891">
        <ele>221.85</ele>
        <time>2024-06-25T15:50:00.541Z</time>
      </trkpt>
      <trkpt lat="46.7982" lon="-0.56894">
        <ele>221.87</ele>
        <time>2024-06-25T15:50:13.423Z</time>
      </trkpt>
      <trkpt lat="46.79824" lon="-0.56897">
        <ele>221.89</ele>
        <time>2024-06-25T15:50:26.306Z</time>
      </trkpt>
      <trkpt lat="46.79826" lon="-0.56901">
        <ele>221.9</ele>
        <time>2024-06-25T15:50:39.189Z</time>
      </trkpt>
      <trkpt lat="46.7983" lon="-0.56904">
        <ele>221.9</ele>
        <time>2024-06-25T15:50:52.073Z</time>
      </trkpt>
      <trkpt lat="46.79833" lon="-0.56907">
        <ele>221.89</ele>
        <time>2024-06-25T15:51:04.958Z</time>
      </trkpt>
      <trkpt lat="46.79836" lon="-0.56911">
        <ele>221.88</ele>
        <time>2024-06-25T15:51:17.844Z</time>
      </trkpt>
      <trkpt lat="46.7984" lon="-0.56914">
        <ele>221.86</ele>
        <time>2024-06-25T15:51:30.731Z</time>
      </trkpt>
      <trkpt lat="46.79843" lon="-0.56918">
        <ele>221.84</ele>
        <time>2024-06-25T15:51:43.618Z</time>
      </trkpt>
      <trkpt lat="46.79846" lon="-0.56921">
        <ele>221.8</ele>
        <time>2024-06-25T15:51:56.506Z</time>
      </trkpt>
      <trkpt lat="46.79849" lon="-0.56924">
        <ele>221.77</ele>
        <time>2024-06-25T15:52:09.395Z</time>
      </trkpt>
      <trkpt lat="46.79852" lon="-0.56928">
        <ele>221.72</ele>
        <time>2024-06-25T15:52:22.285Z</time>
      </trkpt>
      <trkpt lat="46.79855" lon="-0.56932">
        <ele>221.67</ele>
        <time>2024-06-25T15:52:35.176Z</time>
      </trkpt>
      <trkpt lat="46.79859" lon="-0.56936">
        <ele>221.61</ele>
        <time>2024-06-25T15:52:48.068Z</time>
      </trkpt>
      <trkpt lat="46.79863" lon="-0.5694">
        <ele>221.55</ele>
        <time>2024-06-25T15:53:00.960Z</time>
      </trkpt>
      <trkpt lat="46.79866" lon="-0.56943">
        <ele>221.48</ele>
        <time>2024-06-25T15:53:13.853Z</time>
      </trkpt>
      <trkpt lat="46.7987" lon="-0.56947">
        <ele>221.4</ele>
        <time>2024-06-25T15:53:26.747Z</time>
      </trkpt>
      <trkpt lat="46.79875" lon="-0.5695">
        <ele>221.32</ele>
        <time>2024-06-25T15:53:39.642Z</time>
      </trkpt>
      <trkpt lat="46.79879" lon="-0.56953">
        <ele>221.23</ele>
        <time>2024-06-25T15:53:52.538Z</time>
      </trkpt>
      <trkpt lat="46.79882" lon="-0.56955">
        <ele>221.14</ele>
        <time>2024-06-25T15:54:05.435Z</time>
      </trkpt>
      <trkpt lat="46.79886" lon="-0.56957">
        <ele>221.04</ele>
        <time>2024-06-25T15:54:18.333Z</time>
      </trkpt>
      <trkpt lat="46.79891" lon="-0.5696">
        <ele>220.94</ele>
        <time>2024-06-25T15:54:31.232Z</time>
      </trkpt>
      <trkpt lat="46.79895" lon="-0.56965">
        <ele>220.84</ele>
        <time>2024-06-25T15:54:44.132Z</time>
      </trkpt>
      <trkpt lat="46.79899" lon="-0.56969">
        <ele>220.72</ele>
        <time>2024-06-25T15:54:57.033Z</time>
      </trkpt>
      <trkpt lat="46.79903" lon="-0.56974">
        <ele>220.61</ele>
        <time>2024-06-25T15:55:09.935Z</time>
      </trkpt>
      <trkpt lat="46.79907" lon="-0.56979">
        <ele>220.48</ele>
        <time>2024-06-25T15:55:22.838Z</time>
      </trkpt>
      <trkpt lat="46.79911" lon="-0.56984">
        <ele>220.36</ele>
        <time>2024-06-25T15:55:35.742Z</time>
      </trkpt>
      <trkpt lat="46.79916" lon="-0.56989">
        <ele>220.23</ele>
        <time>2024-06-25T15:55:48.647Z</time>
      </trkpt>
      <trkpt lat="46.7992" lon="-0.56994">
        <ele>220.09</ele>
        <time>2024-06-25T15:56:01.553Z</time>
      </trkpt>
      <trkpt lat="46.79923" lon="-0.56997">
        <ele>219.96</ele>
        <time>2024-06-25T15:56:14.460Z</time>
      </trkpt>
      <trkpt lat="46.79927" lon="-0.57001">
        <ele>219.82</ele>
        <time>2024-06-25T15:56:27.368Z</time>
      </trkpt>
      <trkpt lat="46.79929" lon="-0.57003">
        <ele>219.68</ele>
        <time>2024-06-25T15:56:40.277Z</time>
      </trkpt>
      <trkpt lat="46.79932" lon="-0.57007">
        <ele>219.54</ele>
        <time>2024-06-25T15:56:53.186Z</time>
      </trkpt>
      <trkpt lat="46.79936" lon="-0.57011">
        <ele>219.39</ele>
        <time>2024-06-25T15:57:06.096Z</time>
      </trkpt>
      <trkpt lat="46.7994" lon="-0.57015">
        <ele>219.25</ele>
        <time>2024-06-25T15:57:19.007Z</time>
      </trkpt>
      <trkpt lat="46.79944" lon="-0.57019">
        <ele>219.1</ele>
        <time>2024-06-25T15:57:31.919Z</time>
      </trkpt>
      <trkpt lat="46.79948" lon="-0.57022">
        <ele>218.95</ele>
        <time>2024-06-25T15:57:44.832Z</time>
      </trkpt>
      <trkpt lat="46.79952" lon="-0.57025">
        <ele>218.81</ele>
        <time>2024-06-25T15:57:57.746Z</time>
      </trkpt>
      <trkpt lat="46.79957" lon="-0.57029">
        <ele>218.66</ele>
        <time>2024-06-25T15:58:10.661Z</time>
      </trkpt>
      <trkpt lat="46.79961" lon="-0.57033">
        <ele>218.51</ele>
        <time>2024-06-25T15:58:23.577Z</time>
      </trkpt>
      <trkpt lat="46.79966" lon="-0.57038">
        <ele>218.37</ele>
        <time>2024-06-25T15:58:36.494Z</time>
      </trkpt>
      <trkpt lat="46.79971" lon="-0.57043">
        <ele>218.23</ele>
        <time>2024-06-25T15:58:49.412Z</time>
      </trkpt>
      <trkpt lat="46.79975" lon="-0.57048">
        <ele>218.08</ele>
        <time>2024-06-25T15:59:02.332Z</time>
      </trkpt>
      <trkpt lat="46.7998" lon="-0.57053">
        <ele>217.95</ele>
        <time>2024-06-25T15:59:15.253Z</time>
      </trkpt>
      <trkpt lat="46.79985" lon="-0.57059">
        <ele>217.81</ele>
        <time>2024-06-25T15:59:28.175Z</time>
      </trkpt>
      <trkpt lat="46.79989" lon="-0.57063">
        <ele>217.68</ele>
        <time>2024-06-25T15:59:41.098Z</time>
      </trkpt>
      <trkpt lat="46.79993" lon="-0.57067">
        <ele>217.55</ele>
        <time>2024-06-25T15:59:54.022Z</time>
      </trkpt>
      <trkpt lat="46.79997" lon="-0.5707">
        <ele>217.43</ele>
        <time>2024-06-25T16:00:06.947Z</time>
      </trkpt>
      <trkpt lat="46.80001" lon="-0.57075">
        <ele>217.31</ele>
        <time>2024-06-25T16:00:19.873Z</time>
      </trkpt>
      <trkpt lat="46.80006" lon="-0.57081">
        <ele>217.2</ele>
        <time>2024-06-25T16:00:32.800Z</time>
      </trkpt>
      <trkpt lat="46.80011" lon="-0.57087">
        <ele>217.09</ele>
        <time>2024-06-25T16:00:45.729Z</time>
      </trkpt>
      <trkpt lat="46.80017" lon="-0.57094">
        <ele>216.99</ele>
        <time>2024-06-25T16:00:58.659Z</time>
      </trkpt>
      <trkpt lat="46.80021" lon="-0.57099">
        <ele>216.89</ele>
        <time>2024-06-25T16:01:11.590Z</time>
      </trkpt>
      <trkpt lat="46.80026" lon="-0.57104">
        <ele>216.8</ele>
        <time>2024-06-25T16:01:24.522Z</time>
      </trkpt>
      <trkpt lat="46.8003" lon="-0.57107">
        <ele>216.73</ele>
        <time>2024-06-25T16:01:37.455Z</time>
      </trkpt>
      <trkpt lat="46.80036" lon="-0.57111">
        <ele>216.66</ele>
        <time>2024-06-25T16:01:50.390Z</time>
      </trkpt>
      <trkpt lat="46.80041" lon="-0.57113">
        <ele>216.59</ele>
        <time>2024-06-25T16:02:03.326Z</time>
      </trkpt>
      <trkpt lat="46.80046" lon="-0.57117">
        <ele>216.54</ele>
        <time>2024-06-25T16:02:16.263Z</time>
      </trkpt>
      <trkpt lat="46.8005" lon="-0.5712">
        <ele>216.49</ele>
        <time>2024-06-25T16:02:29.201Z</time>
      </trkpt>
      <trkpt lat="46.80055" lon="-0.57124">
        <ele>216.44</ele>
        <time>2024-06-25T16:02:42.140Z</time>
      </trkpt>
      <trkpt lat="46.8006" lon="-0.57128">
        <ele>216.4</ele>
        <time>2024-06-25T16:02:55.080Z</time>
      </trkpt>
      <trkpt lat="46.80064" lon="-0.57131">
        <ele>216.37</ele>
        <time>2024-06-25T16:03:08.021Z</time>
      </trkpt>
      <trkpt lat="46.80069" lon="-0.57135">
        <ele>216.34</ele>
        <time>2024-06-25T16:03:20.963Z</time>
      </trkpt>
      <trkpt lat="46.80073" lon="-0.57138">
        <ele>216.33</ele>
        <time>2024-06-25T16:03:33.906Z</time>
      </trkpt>
      <trkpt lat="46.80076" lon="-0.57141">
        <ele>216.32</ele>
        <time>2024-06-25T16:03:46.850Z</time>
      </trkpt>
      <trkpt lat="46.8008" lon="-0.57144">
        <ele>216.32</ele>
        <time>2024-06-25T16:03:59.794Z</time>
      </trkpt>
      <trkpt lat="46.80083" lon="-0.57147">
        <ele>216.32</ele>
        <time>2024-06-25T16:04:12.739Z</time>
      </trkpt>
      <trkpt lat="46.80087" lon="-0.5715">
        <ele>216.34</ele>
        <time>2024-06-25T16:04:25.685Z</time>
      </trkpt>
      <trkpt lat="46.8009" lon="-0.57153">
        <ele>216.35</ele>
        <time>2024-06-25T16:04:38.632Z</time>
      </trkpt>
      <trkpt lat="46.80093" lon="-0.57156">
        <ele>216.37</ele>
        <time>2024-06-25T16:04:51.580Z</time>
      </trkpt>
      <trkpt lat="46.80096" lon="-0.57159">
        <ele>216.4</ele>
        <time>2024-06-25T16:05:04.528Z</time>
      </trkpt>
      <trkpt lat="46.80099" lon="-0.57162">
        <ele>216.42</ele>
        <time>2024-06-25T16:05:17.477Z</time>
      </trkpt>
      <trkpt lat="46.80103" lon="-0.57165">
        <ele>216.46</ele>
        <time>2024-06-25T16:05:30.427Z</time>
      </trkpt>
      <trkpt lat="46.80106" lon="-0.57168">
        <ele>216.5</ele>
        <time>2024-06-25T16:05:43.378Z</time>
      </trkpt>
      <trkpt lat="46.8011" lon="-0.57172">
        <ele>216.54</ele>
        <time>2024-06-25T16:05:56.330Z</time>
      </trkpt>
      <trkpt lat="46.80113" lon="-0.57176">
        <ele>216.59</ele>
        <time>2024-06-25T16:06:09.282Z</time>
      </trkpt>
      <trkpt lat="46.80116" lon="-0.57179">
        <ele>216.64</ele>
        <time>2024-06-25T16:06:22.235Z</time>
      </trkpt>
      <trkpt lat="46.8012" lon="-0.57183">
        <ele>216.7</ele>
        <time>2024-06-25T16:06:35.189Z</time>
      </trkpt>
      <trkpt lat="46.80123" lon="-0.57186">
        <ele>216.76</ele>
        <time>2024-06-25T16:06:48.144Z</time>
      </trkpt>
      <trkpt lat="46.80126" lon="-0.57189">
        <ele>216.82</ele>
        <time>2024-06-25T16:07:01.100Z</time>
      </trkpt>
      <trkpt lat="46.80129" lon="-0.57193">
        <ele>216.88</ele>
        <time>2024-06-25T16:07:14.056Z</time>
      </trkpt>
      <trkpt lat="46.80132" lon="-0.57196">
        <ele>216.95</ele>
        <time>2024-06-25T16:07:27.013Z</time>
      </trkpt>
      <trkpt lat="46.80135" lon="-0.57199">
        <ele>217.02</ele>
        <time>2024-06-25T16:07:39.971Z</time>
      </trkpt>
      <trkpt lat="46.80138" lon="-0.57201">
        <ele>217.09</ele>
        <time>2024-06-25T16:07:52.930Z</time>
      </trkpt>
      <trkpt lat="46.80141" lon="-0.57204">
        <ele>217.17</ele>
        <time>2024-06-25T16:08:05.889Z</time>
      </trkpt>
      <trkpt lat="46.80145" lon="-0.57206">
        <ele>217.24</ele>
        <time>2024-06-25T16:08:18.849Z</time>
      </trkpt>
      <trkpt lat="46.80148" lon="-0.57208">
        <ele>217.32</ele>
        <time>2024-06-25T16:08:31.810Z</time>
      </trkpt>
      <trkpt lat="46.80151" lon="-0.57211">
        <ele>217.4</ele>
        <time>2024-06-25T16:08:44.771Z</time>
      </trkpt>
      <trkpt lat="46.80154" lon="-0.57213">
        <ele>217.48</ele>
        <time>2024-06-25T16:08:57.733Z</time>
      </trkpt>
      <trkpt lat="46.80158" lon="-0.57216">
        <ele>217.55</ele>
        <time>2024-06-25T16:09:10.696Z</time>
      </trkpt>
      <trkpt lat="46.80161" lon="-0.57219">
        <ele>217.63</ele>
        <time>2024-06-25T16:09:23.660Z</time>
      </trkpt>
      <trkpt lat="46.80164" lon="-0.57222">
        <ele>217.71</ele>
        <time>2024-06-25T16:09:36.624Z</time>
      </trkpt>
      <trkpt lat="46.80167" lon="-0.57224">
        <ele>217.79</ele>
        <time>2024-06-25T16:09:49.589Z</time>
      </trkpt>
      <trkpt lat="46.80171" lon="-0.57227">
        <ele>217.87</ele>
        <time>2024-06-25T16:10:02.555Z</time>
      </trkpt>
      <trkpt lat="46.80174" lon="-0.57229">
        <ele>217.94</ele>
        <time>2024-06-25T16:10:15.522Z</time>
      </trkpt>
      <trkpt lat="46.80178" lon="-0.57232">
        <ele>218.02</ele>
        <time>2024-06-25T16:10:28.490Z</time>
      </trkpt>
      <trkpt lat="46.80181" lon="-0.57235">
        <ele>218.09</ele>
        <time>2024-06-25T16:10:41.458Z</time>
      </trkpt>
      <trkpt lat="46.80184" lon="-0.57238">
        <ele>218.16</ele>
        <time>2024-06-25T16:10:54.427Z</time>
      </trkpt>
      <trkpt lat="46.80186" lon="-0.5724">
        <ele>218.23</ele>
        <time>2024-06-25T16:11:07.397Z</time>
      </trkpt>
      <trkpt lat="46.80189" lon="-0.57242">
        <ele>218.3</ele>
        <time>2024-06-25T16:11:20.367Z</time>
      </trkpt>
      <trkpt lat="46.80192" lon="-0.57245">
        <ele>218.36</ele>
        <time>2024-06-25T16:11:33.338Z</time>
      </trkpt>
      <trkpt lat="46.80195" lon="-0.57248">
        <ele>218.42</ele>
        <time>2024-06-25T16:11:46.310Z</time>
      </trkpt>
      <trkpt lat="46.80198" lon="-0.57252">
        <ele>218.48</ele>
        <time>2024-06-25T16:11:59.282Z</time>
      </trkpt>
      <trkpt lat="46.80201" lon="-0.57256">
        <ele>218.54</ele>
        <time>2024-06-25T16:12:12.255Z</time>
      </trkpt>
      <trkpt lat="46.80204" lon="-0.5726">
        <ele>218.59</ele>
        <time>2024-06-25T16:12:25.229Z</time>
      </trkpt>
      <trkpt lat="46.80207" lon="-0.57264">
        <ele>218.64</ele>
        <time>2024-06-25T16:12:38.204Z</time>
      </trkpt>
      <trkpt lat="46.8021" lon="-0.57267">
        <ele>218.69</ele>
        <time>2024-06-25T16:12:51.180Z</time>
      </trkpt>
      <trkpt lat="46.80213" lon="-0.5727">
        <ele>218.73</ele>
        <time>2024-06-25T16:13:04.156Z</time>
      </trkpt>
      <trkpt lat="46.80217" lon="-0.57272">
        <ele>218.77</ele>
        <time>2024-06-25T16:13:17.133Z</time>
      </trkpt>
      <trkpt lat="46.8022" lon="-0.57275">
        <ele>218.8</ele>
        <time>2024-06-25T16:13:30.111Z</time>
      </trkpt>
      <trkpt lat="46.80222" lon="-0.57278">
        <ele>218.83</ele>
        <time>2024-06-25T16:13:43.089Z</time>
      </trkpt>
      <trkpt lat="46.80224" lon="-0.57281">
        <ele>218.86</ele>
        <time>2024-06-25T16:13:56.068Z</time>
      </trkpt>
      <trkpt lat="46.80226" lon="-0.57284">
        <ele>218.88</ele>
        <time>2024-06-25T16:14:09.048Z</time>
      </trkpt>
      <trkpt lat="46.80229" lon="-0.57289">
        <ele>218.9</ele>
        <time>2024-06-25T16:14:22.028Z</time>
      </trkpt>
      <trkpt lat="46.80231" lon="-0.57292">
        <ele>218.92</ele>
        <time>2024-06-25T16:14:35.009Z</time>
      </trkpt>
      <trkpt lat="46.80234" lon="-0.57296">
        <ele>218.93</ele>
        <time>2024-06-25T16:14:47.991Z</time>
      </trkpt>
      <trkpt lat="46.80237" lon="-0.573">
        <ele>218.93</ele>
        <time>2024-06-25T16:15:00.974Z</time>
      </trkpt>
      <trkpt lat="46.80239" lon="-0.57302">
        <ele>218.93</ele>
        <time>2024-06-25T16:15:13.957Z</time>
      </trkpt>
      <trkpt lat="46.80242" lon="-0.57304">
        <ele>218.93</ele>
        <time>2024-06-25T16:15:26.941Z</time>
      </trkpt>
      <trkpt lat="46.80244" lon="-0.57307">
        <ele>218.92</ele>
        <time>2024-06-25T16:15:39.925Z</time>
      </trkpt>
      <trkpt lat="46.80247" lon="-0.5731">
        <ele>218.9</ele>
        <time>2024-06-25T16:15:52.910Z</time>
      </trkpt>
      <trkpt lat="46.8025" lon="-0.57313">
        <ele>218.89</ele>
        <time>2024-06-25T16:16:05.896Z</time>
      </trkpt>
      <trkpt lat="46.80253" lon="-0.57316">
        <ele>218.86</ele>
        <time>2024-06-25T16:16:18.883Z</time>
      </trkpt>
      <trkpt lat="46.80256" lon="-0.57318">
        <ele>218.84</ele>
        <time>2024-06-25T16:16:31.870Z</time>
      </trkpt>
      <trkpt lat="46.80259" lon="-0.5732">
        <ele>218.82</ele>
        <time>2024-06-25T16:16:44.858Z</time>
      </trkpt>
      <trkpt lat="46.80262" lon="-0.57323">
        <ele>218.79</ele>
        <time>2024-06-25T16:16:57.847Z</time>
      </trkpt>
      <trkpt lat="46.80265" lon="-0.57327">
        <ele>218.76</ele>
        <time>2024-06-25T16:17:10.836Z</time>
      </trkpt>
      <trkpt lat="46.80269" lon="-0.57332">
        <ele>218.73</ele>
        <time>2024-06-25T16:17:23.826Z</time>
      </trkpt>
      <trkpt lat="46.80273" lon="-0.57336">
        <ele>218.69</ele>
        <time>2024-06-25T16:17:36.817Z</time>
      </trkpt>
      <trkpt lat="46.80277" lon="-0.5734">
        <ele>218.66</ele>
        <time>2024-06-25T16:17:49.810Z</time>
      </trkpt>
      <trkpt lat="46.80282" lon="-0.57345">
        <ele>218.62</ele>
        <time>2024-06-25T16:18:02.804Z</time>
      </trkpt>
      <trkpt lat="46.80287" lon="-0.57349">
        <ele>218.58</ele>
        <time>2024-06-25T16:18:15.799Z</time>
      </trkpt>
      <trkpt lat="46.80291" lon="-0.57353">
        <ele>218.54</ele>
        <time>2024-06-25T16:18:28.795Z</time>
      </trkpt>
      <trkpt lat="46.80296" lon="-0.57358">
        <ele>218.5</ele>
        <time>2024-06-25T16:18:41.792Z</time>
      </trkpt>
      <trkpt lat="46.803" lon="-0.57362">
        <ele>218.46</ele>
        <time>2024-06-25T16:18:54.790Z</time>
      </trkpt>
      <trkpt lat="46.80304" lon="-0.57367">
        <ele>218.41</ele>
        <time>2024-06-25T16:19:07.789Z</time>
      </trkpt>
      <trkpt lat="46.80308" lon="-0.5737">
        <ele>218.37</ele>
        <time>2024-06-25T16:19:20.789Z</time>
      </trkpt>
      <trkpt lat="46.80311" lon="-0.57374">
        <ele>218.33</ele>
        <time>2024-06-25T16:19:33.790Z</time>
      </trkpt>
      <trkpt lat="46.80314" lon="-0.57378">
        <ele>218.29</ele>
        <time>2024-06-25T16:19:46.792Z</time>
      </trkpt>
      <trkpt lat="46.80317" lon="-0.57382">
        <ele>218.25</ele>
        <time>2024-06-25T16:19:59.794Z</time>
      </trkpt>
      <trkpt lat="46.8032" lon="-0.57387">
        <ele>218.21</ele>
        <time>2024-06-25T16:20:12.797Z</time>
      </trkpt>
      <trkpt lat="46.80323" lon="-0.57393">
        <ele>218.17</ele>
        <time>2024-06-25T16:20:25.801Z</time>
      </trkpt>
      <trkpt lat="46.80327" lon="-0.57397">
        <ele>218.14</ele>
        <time>2024-06-25T16:20:38.806Z</time>
      </trkpt>
      <trkpt lat="46.80331" lon="-0.574">
        <ele>218.11</ele>
        <time>2024-06-25T16:20:51.812Z</time>
      </trkpt>
      <trkpt lat="46.80334" lon="-0.574">
        <ele>218.08</ele>
        <time>2024-06-25T16:21:04.819Z</time>
      </trkpt>
      <trkpt lat="46.80337" lon="-0.57397">
        <ele>218.05</ele>
        <time>2024-06-25T16:21:17.827Z</time>
      </trkpt>
      <trkpt lat="46.80341" lon="-0.57396">
        <ele>218.02</ele>
        <time>2024-06-25T16:21:30.835Z</time>
      </trkpt>
      <trkpt lat="46.80344" lon="-0.57396">
        <ele>217.99</ele>
        <time>2024-06-25T16:21:43.844Z</time>
      </trkpt>
      <trkpt lat="46.80347" lon="-0.57398">
        <ele>217.97</ele>
        <time>2024-06-25T16:21:56.854Z</time>
      </trkpt>
      <trkpt lat="46.80351" lon="-0.57401">
        <ele>217.94</ele>
        <time>2024-06-25T16:22:09.864Z</time>
      </trkpt>
      <trkpt lat="46.80354" lon="-0.57405">
        <ele>217.92</ele>
        <time>2024-06-25T16:22:22.875Z</time>
      </trkpt>
      <trkpt lat="46.80357" lon="-0.57409">
        <ele>217.9</ele>
        <time>2024-06-25T16:22:35.887Z</time>
      </trkpt>
      <trkpt lat="46.8036" lon="-0.57413">
        <ele>217.88</ele>
        <time>2024-06-25T16:22:48.900Z</time>
      </trkpt>
      <trkpt lat="46.80363" lon="-0.57417">
        <ele>217.86</ele>
        <time>2024-06-25T16:23:01.914Z</time>
      </trkpt>
      <trkpt lat="46.80366" lon="-0.57422">
        <ele>217.85</ele>
        <time>2024-06-25T16:23:14.929Z</time>
      </trkpt>
      <trkpt lat="46.80369" lon="-0.57426">
        <ele>217.85</ele>
        <time>2024-06-25T16:23:27.945Z</time>
      </trkpt>
      <trkpt lat="46.80372" lon="-0.5743">
        <ele>217.85</ele>
        <time>2024-06-25T16:23:40.961Z</time>
      </trkpt>
      <trkpt lat="46.80375" lon="-0.57434">
        <ele>217.85</ele>
        <time>2024-06-25T16:23:53.978Z</time>
      </trkpt>
      <trkpt lat="46.80378" lon="-0.57438">
        <ele>217.86</ele>
        <time>2024-06-25T16:24:06.996Z</time>
      </trkpt>
      <trkpt lat="46.8038" lon="-0.57441">
        <ele>217.87</ele>
        <time>2024-06-25T16:24:20.014Z</time>
      </trkpt>
      <trkpt lat="46.80383" lon="-0.57444">
        <ele>217.88</ele>
        <time>2024-06-25T16:24:33.033Z</time>
      </trkpt>
      <trkpt lat="46.80385" lon="-0.57448">
        <ele>217.89</ele>
        <time>2024-06-25T16:24:46.053Z</time>
      </trkpt>
      <trkpt lat="46.80387" lon="-0.57451">
        <ele>217.91</ele>
        <time>2024-06-25T16:24:59.074Z</time>
      </trkpt>
      <trkpt lat="46.8039" lon="-0.57454">
        <ele>217.93</ele>
        <time>2024-06-25T16:25:12.095Z</time>
      </trkpt>
      <trkpt lat="46.80393" lon="-0.57458">
        <ele>217.96</ele>
        <time>2024-06-25T16:25:25.117Z</time>
      </trkpt>
      <trkpt lat="46.80395" lon="-0.57461">
        <ele>217.99</ele>
        <time>2024-06-25T16:25:38.139Z</time>
      </trkpt>
      <trkpt lat="46.80397" lon="-0.57464">
        <ele>218.03</ele>
        <time>2024-06-25T16:25:51.162Z</time>
      </trkpt>
      <trkpt lat="46.80399" lon="-0.57467">
        <ele>218.06</ele>
        <time>2024-06-25T16:26:04.186Z</time>
      </trkpt>
      <trkpt lat="46.804" lon="-0.57469">
        <ele>218.11</ele>
        <time>2024-06-25T16:26:17.210Z</time>
      </trkpt>
      <trkpt lat="46.80402" lon="-0.57471">
        <ele>218.15</ele>
        <time>2024-06-25T16:26:30.235Z</time>
      </trkpt>
      <trkpt lat="46.80402" lon="-0.57472">
        <ele>218.2</ele>
        <time>2024-06-25T16:26:43.260Z</time>
      </trkpt>
      <trkpt lat="46.80402" lon="-0.57473">
        <ele>218.25</ele>
        <time>2024-06-25T16:26:56.285Z</time>
      </trkpt>
      <trkpt lat="46.80403" lon="-0.57473">
        <ele>218.3</ele>
        <time>2024-06-25T16:27:09.310Z</time>
      </trkpt>
      <trkpt lat="46.80404" lon="-0.57475">
        <ele>218.36</ele>
        <time>2024-06-25T16:27:22.335Z</time>
      </trkpt>
      <trkpt lat="46.80406" lon="-0.57478">
        <ele>218.43</ele>
        <time>2024-06-25T16:27:35.361Z</time>
      </trkpt>
      <trkpt lat="46.80407" lon="-0.5748">
        <ele>218.49</ele>
        <time>2024-06-25T16:27:48.387Z</time>
      </trkpt>
      <trkpt lat="46.80409" lon="-0.57483">
        <ele>218.56</ele>
        <time>2024-06-25T16:28:01.414Z</time>
      </trkpt>
      <trkpt lat="46.80411" lon="-0.57486">
        <ele>218.63</ele>
        <time>2024-06-25T16:28:14.441Z</time>
      </trkpt>
      <trkpt lat="46.80413" lon="-0.57489">
        <ele>218.71</ele>
        <time>2024-06-25T16:28:27.469Z</time>
      </trkpt>
      <trkpt lat="46.80416" lon="-0.57493">
        <ele>218.79</ele>
        <time>2024-06-25T16:28:40.498Z</time>
      </trkpt>
      <trkpt lat="46.80418" lon="-0.57496">
        <ele>218.87</ele>
        <time>2024-06-25T16:28:53.527Z</time>
      </trkpt>
      <trkpt lat="46.8042" lon="-0.575">
        <ele>218.96</ele>
        <time>2024-06-25T16:29:06.557Z</time>
      </trkpt>
      <trkpt lat="46.80423" lon="-0.57503">
        <ele>219.05</ele>
        <time>2024-06-25T16:29:19.588Z</time>
      </trkpt>
      <trkpt lat="46.80427" lon="-0.57505">
        <ele>219.14</ele>
        <time>2024-06-25T16:29:32.619Z</time>
      </trkpt>
      <trkpt lat="46.8043" lon="-0.57505">
        <ele>219.24</ele>
        <time>2024-06-25T16:29:45.651Z</time>
      </trkpt>
      <trkpt lat="46.80434" lon="-0.57503">
        <ele>219.33</ele>
        <time>2024-06-25T16:29:58.684Z</time>
      </trkpt>
      <trkpt lat="46.80436" lon="-0.57499">
        <ele>219.43</ele>
        <time>2024-06-25T16:30:11.718Z</time>
      </trkpt>
      <trkpt lat="46.80439" lon="-0.57495">
        <ele>219.53</ele>
        <time>2024-06-25T16:30:24.752Z</time>
      </trkpt>
      <trkpt lat="46.80441" lon="-0.57491">
        <ele>219.64</ele>
        <time>2024-06-25T16:30:37.787Z</time>
      </trkpt>
      <trkpt lat="46.80443" lon="-0.57488">
        <ele>219.74</ele>
        <time>2024-06-25T16:30:50.823Z</time>
      </trkpt>
      <trkpt lat="46.80445" lon="-0.57486">
        <ele>219.85</ele>
        <time>2024-06-25T16:31:03.859Z</time>
      </trkpt>
      <trkpt lat="46.80447" lon="-0.57485">
        <ele>219.95</ele>
        <time>2024-06-25T16:31:16.896Z</time>
      </trkpt>
      <trkpt lat="46.80449" lon="-0.57485">
        <ele>220.06</ele>
        <time>2024-06-25T16:31:29.933Z</time>
      </trkpt>
      <trkpt lat="46.80452" lon="-0.57487">
        <ele>220.18</ele>
        <time>2024-06-25T16:31:42.971Z</time>
      </trkpt>
      <trkpt lat="46.80456" lon="-0.57489">
        <ele>220.29</ele>
        <time>2024-06-25T16:31:56.009Z</time>
      </trkpt>
      <trkpt lat="46.80459" lon="-0.57491">
        <ele>220.4</ele>
        <time>2024-06-25T16:32:09.048Z</time>
      </trkpt>
      <trkpt lat="46.80462" lon="-0.57494">
        <ele>220.51</ele>
        <time>2024-06-25T16:32:22.088Z</time>
      </trkpt>
      <trkpt lat="46.80464" lon="-0.57498">
        <ele>220.62</ele>
        <time>2024-06-25T16:32:35.129Z</time>
      </trkpt>
      <trkpt lat="46.80468" lon="-0.57502">
        <ele>220.74</ele>
        <time>2024-06-25T16:32:48.170Z</time>
      </trkpt>
      <trkpt lat="46.80471" lon="-0.57506">
        <ele>220.85</ele>
        <time>2024-06-25T16:33:01.212Z</time>
      </trkpt>
      <trkpt lat="46.80474" lon="-0.5751">
        <ele>220.97</ele>
        <time>2024-06-25T16:33:14.255Z</time>
      </trkpt>
      <trkpt lat="46.80477" lon="-0.57514">
        <ele>221.1</ele>
        <time>2024-06-25T16:33:27.299Z</time>
      </trkpt>
      <trkpt lat="46.8048" lon="-0.57519">
        <ele>221.23</ele>
        <time>2024-06-25T16:33:40.344Z</time>
      </trkpt>
      <trkpt lat="46.80483" lon="-0.57523">
        <ele>221.35</ele>
        <time>2024-06-25T16:33:53.390Z</time>
      </trkpt>
      <trkpt lat="46.80486" lon="-0.57528">
        <ele>221.48</ele>
        <time>2024-06-25T16:34:06.436Z</time>
      </trkpt>
      <trkpt lat="46.80488" lon="-0.57532">
        <ele>221.6</ele>
        <time>2024-06-25T16:34:19.483Z</time>
      </trkpt>
      <trkpt lat="46.80491" lon="-0.57536">
        <ele>221.72</ele>
        <time>2024-06-25T16:34:32.531Z</time>
      </trkpt>
      <trkpt lat="46.80492" lon="-0.5754">
        <ele>221.84</ele>
        <time>2024-06-25T16:34:45.580Z</time>
      </trkpt>
      <trkpt lat="46.80495" lon="-0.57544">
        <ele>221.97</ele>
        <time>2024-06-25T16:34:58.629Z</time>
      </trkpt>
      <trkpt lat="46.80497" lon="-0.57549">
        <ele>222.1</ele>
        <time>2024-06-25T16:35:11.679Z</time>
      </trkpt>
      <trkpt lat="46.805" lon="-0.57553">
        <ele>222.23</ele>
        <time>2024-06-25T16:35:24.730Z</time>
      </trkpt>
      <trkpt lat="46.80502" lon="-0.57558">
        <ele>222.36</ele>
        <time>2024-06-25T16:35:37.782Z</time>
      </trkpt>
      <trkpt lat="46.80504" lon="-0.57562">
        <ele>222.49</ele>
        <time>2024-06-25T16:35:50.834Z</time>
      </trkpt>
      <trkpt lat="46.80506" lon="-0.57566">
        <ele>222.63</ele>
        <time>2024-06-25T16:36:03.887Z</time>
      </trkpt>
      <trkpt lat="46.80509" lon="-0.5757">
        <ele>222.76</ele>
        <time>2024-06-25T16:36:16.941Z</time>
      </trkpt>
      <trkpt lat="46.80511" lon="-0.57573">
        <ele>222.9</ele>
        <time>2024-06-25T16:36:29.995Z</time>
      </trkpt>
      <trkpt lat="46.80513" lon="-0.57577">
        <ele>223.03</ele>
        <time>2024-06-25T16:36:43.050Z</time>
      </trkpt>
      <trkpt lat="46.80516" lon="-0.57582">
        <ele>223.17</ele>
        <time>2024-06-25T16:36:56.106Z</time>
      </trkpt>
      <trkpt lat="46.80519" lon="-0.57586">
        <ele>223.3</ele>
        <time>2024-06-25T16:37:09.163Z</time>
      </trkpt>
      <trkpt lat="46.80522" lon="-0.5759">
        <ele>223.44</ele>
        <time>2024-06-25T16:37:22.221Z</time>
      </trkpt>
      <trkpt lat="46.80525" lon="-0.57594">
        <ele>223.58</ele>
        <time>2024-06-25T16:37:35.280Z</time>
      </trkpt>
      <trkpt lat="46.80528" lon="-0.57599">
        <ele>223.72</ele>
        <time>2024-06-25T16:37:48.339Z</time>
      </trkpt>
      <trkpt lat="46.80531" lon="-0.57603">
        <ele>223.86</ele>
        <time>2024-06-25T16:38:01.399Z</time>
      </trkpt>
      <trkpt lat="46.80533" lon="-0.57607">
        <ele>224</ele>
        <time>2024-06-25T16:38:14.460Z</time>
      </trkpt>
      <trkpt lat="46.80536" lon="-0.57611">
        <ele>224.15</ele>
        <time>2024-06-25T16:38:27.522Z</time>
      </trkpt>
      <trkpt lat="46.80539" lon="-0.57615">
        <ele>224.29</ele>
        <time>2024-06-25T16:38:40.585Z</time>
      </trkpt>
      <trkpt lat="46.80542" lon="-0.57619">
        <ele>224.44</ele>
        <time>2024-06-25T16:38:53.648Z</time>
      </trkpt>
      <trkpt lat="46.80545" lon="-0.57624">
        <ele>224.58</ele>
        <time>2024-06-25T16:39:06.712Z</time>
      </trkpt>
      <trkpt lat="46.80548" lon="-0.57629">
        <ele>224.73</ele>
        <time>2024-06-25T16:39:19.777Z</time>
      </trkpt>
      <trkpt lat="46.80551" lon="-0.57633">
        <ele>224.88</ele>
        <time>2024-06-25T16:39:32.843Z</time>
      </trkpt>
      <trkpt lat="46.80553" lon="-0.57637">
        <ele>225.03</ele>
        <time>2024-06-25T16:39:45.910Z</time>
      </trkpt>
      <trkpt lat="46.80556" lon="-0.57642">
        <ele>225.18</ele>
        <time>2024-06-25T16:39:58.978Z</time>
      </trkpt>
      <trkpt lat="46.80559" lon="-0.57646">
        <ele>225.32</ele>
        <time>2024-06-25T16:40:12.046Z</time>
      </trkpt>
      <trkpt lat="46.80562" lon="-0.5765">
        <ele>225.47</ele>
        <time>2024-06-25T16:40:25.115Z</time>
      </trkpt>
      <trkpt lat="46.80564" lon="-0.57654">
        <ele>225.62</ele>
        <time>2024-06-25T16:40:38.185Z</time>
      </trkpt>
      <trkpt lat="46.80566" lon="-0.57658">
        <ele>225.77</ele>
        <time>2024-06-25T16:40:51.256Z</time>
      </trkpt>
      <trkpt lat="46.80568" lon="-0.57662">
        <ele>225.91</ele>
        <time>2024-06-25T16:41:04.327Z</time>
      </trkpt>
      <trkpt lat="46.8057" lon="-0.57665">
        <ele>226.06</ele>
        <time>2024-06-25T16:41:17.399Z</time>
      </trkpt>
      <trkpt lat="46.80571" lon="-0.57667">
        <ele>226.21</ele>
        <time>2024-06-25T16:41:30.471Z</time>
      </trkpt>
      <trkpt lat="46.80573" lon="-0.57671">
        <ele>226.36</ele>
        <time>2024-06-25T16:41:43.544Z</time>
      </trkpt>
      <trkpt lat="46.80576" lon="-0.57674">
        <ele>226.5</ele>
        <time>2024-06-25T16:41:56.617Z</time>
      </trkpt>
      <trkpt lat="46.80578" lon="-0.57677">
        <ele>226.65</ele>
        <time>2024-06-25T16:42:09.691Z</time>
      </trkpt>
      <trkpt lat="46.8058" lon="-0.5768">
        <ele>226.79</ele>
        <time>2024-06-25T16:42:22.766Z</time>
      </trkpt>
      <trkpt lat="46.80582" lon="-0.57682">
        <ele>226.93</ele>
        <time>2024-06-25T16:42:35.841Z</time>
      </trkpt>
      <trkpt lat="46.80584" lon="-0.57685">
        <ele>227.07</ele>
        <time>2024-06-25T16:42:48.917Z</time>
      </trkpt>
      <trkpt lat="46.80587" lon="-0.57688">
        <ele>227.21</ele>
        <time>2024-06-25T16:43:01.993Z</time>
      </trkpt>
      <trkpt lat="46.80589" lon="-0.57692">
        <ele>227.34</ele>
        <time>2024-06-25T16:43:15.070Z</time>
      </trkpt>
      <trkpt lat="46.80591" lon="-0.57694">
        <ele>227.48</ele>
        <time>2024-06-25T16:43:28.148Z</time>
      </trkpt>
      <trkpt lat="46.80593" lon="-0.57697">
        <ele>227.61</ele>
        <time>2024-06-25T16:43:41.226Z</time>
      </trkpt>
      <trkpt lat="46.80596" lon="-0.577">
        <ele>227.73</ele>
        <time>2024-06-25T16:43:54.305Z</time>
      </trkpt>
      <trkpt lat="46.80599" lon="-0.57702">
        <ele>227.85</ele>
        <time>2024-06-25T16:44:07.385Z</time>
      </trkpt>
      <trkpt lat="46.80601" lon="-0.57705">
        <ele>227.97</ele>
        <time>2024-06-25T16:44:20.465Z</time>
      </trkpt>
      <trkpt lat="46.80604" lon="-0.57708">
        <ele>228.09</ele>
        <time>2024-06-25T16:44:33.546Z</time>
      </trkpt>
      <trkpt lat="46.80607" lon="-0.57711">
        <ele>228.2</ele>
        <time>2024-06-25T16:44:46.628Z</time>
      </trkpt>
      <trkpt lat="46.80609" lon="-0.57713">
        <ele>228.31</ele>
        <time>2024-06-25T16:44:59.710Z</time>
      </trkpt>
      <trkpt lat="46.80612" lon="-0.57717">
        <ele>228.42</ele>
        <time>2024-06-25T16:45:12.793Z</time>
      </trkpt>
      <trkpt lat="46.80615" lon="-0.57719">
        <ele>228.53</ele>
        <time>2024-06-25T16:45:25.877Z</time>
      </trkpt>
      <trkpt lat="46.80618" lon="-0.57721">
        <ele>228.63</ele>
        <time>2024-06-25T16:45:38.961Z</time>
      </trkpt>
      <trkpt lat="46.80621" lon="-0.57724">
        <ele>228.72</ele>
        <time>2024-06-25T16:45:52.046Z</time>
      </trkpt>
      <trkpt lat="46.80623" lon="-0.57726">
        <ele>228.8</ele>
        <time>2024-06-25T16:46:05.131Z</time>
      </trkpt>
      <trkpt lat="46.80626" lon="-0.57729">
        <ele>228.88</ele>
        <time>2024-06-25T16:46:18.217Z</time>
      </trkpt>
      <trkpt lat="46.80629" lon="-0.57732">
        <ele>228.95</ele>
        <time>2024-06-25T16:46:31.304Z</time>
      </trkpt>
      <trkpt lat="46.80632" lon="-0.57735">
        <ele>229.02</ele>
        <time>2024-06-25T16:46:44.392Z</time>
      </trkpt>
      <trkpt lat="46.80634" lon="-0.57738">
        <ele>229.08</ele>
        <time>2024-06-25T16:46:57.480Z</time>
      </trkpt>
      <trkpt lat="46.80637" lon="-0.5774">
        <ele>229.14</ele>
        <time>2024-06-25T16:47:10.569Z</time>
      </trkpt>
      <trkpt lat="46.80639" lon="-0.57741">
        <ele>229.19</ele>
        <time>2024-06-25T16:47:23.658Z</time>
      </trkpt>
      <trkpt lat="46.80642" lon="-0.57743">
        <ele>229.24</ele>
        <time>2024-06-25T16:47:36.748Z</time>
      </trkpt>
      <trkpt lat="46.80645" lon="-0.57744">
        <ele>229.28</ele>
        <time>2024-06-25T16:47:49.838Z</time>
      </trkpt>
      <trkpt lat="46.80648" lon="-0.57744">
        <ele>229.31</ele>
        <time>2024-06-25T16:48:02.929Z</time>
      </trkpt>
      <trkpt lat="46.8065" lon="-0.57745">
        <ele>229.33</ele>
        <time>2024-06-25T16:48:16.021Z</time>
      </trkpt>
      <trkpt lat="46.80653" lon="-0.57747">
        <ele>229.35</ele>
        <time>2024-06-25T16:48:29.113Z</time>
      </trkpt>
      <trkpt lat="46.80656" lon="-0.5775">
        <ele>229.36</ele>
        <time>2024-06-25T16:48:42.206Z</time>
      </trkpt>
      <trkpt lat="46.80659" lon="-0.57753">
        <ele>229.36</ele>
        <time>2024-06-25T16:48:55.300Z</time>
      </trkpt>
      <trkpt lat="46.80662" lon="-0.57758">
        <ele>229.36</ele>
        <time>2024-06-25T16:49:08.395Z</time>
      </trkpt>
      <trkpt lat="46.80665" lon="-0.57763">
        <ele>229.35</ele>
        <time>2024-06-25T16:49:21.490Z</time>
      </trkpt>
      <trkpt lat="46.80669" lon="-0.57766">
        <ele>229.33</ele>
        <time>2024-06-25T16:49:34.586Z</time>
      </trkpt>
      <trkpt lat="46.80672" lon="-0.57768">
        <ele>229.3</ele>
        <time>2024-06-25T16:49:47.683Z</time>
      </trkpt>
      <trkpt lat="46.80675" lon="-0.5777">
        <ele>229.27</ele>
        <time>2024-06-25T16:50:00.781Z</time>
      </trkpt>
      <trkpt lat="46.80677" lon="-0.57771">
        <ele>229.23</ele>
        <time>2024-06-25T16:50:13.879Z</time>
      </trkpt>
      <trkpt lat="46.8068" lon="-0.57773">
        <ele>229.18</ele>
        <time>2024-06-25T16:50:26.978Z</time>
      </trkpt>
      <trkpt lat="46.80683" lon="-0.57776">
        <ele>229.12</ele>
        <time>2024-06-25T16:50:40.077Z</time>
      </trkpt>
      <trkpt lat="46.80686" lon="-0.57779">
        <ele>229.06</ele>
        <time>2024-06-25T16:50:53.177Z</time>
      </trkpt>
      <trkpt lat="46.8069" lon="-0.57782">
        <ele>228.99</ele>
        <time>2024-06-25T16:51:06.278Z</time>
      </trkpt>
      <trkpt lat="46.80693" lon="-0.57786">
        <ele>228.91</ele>
        <time>2024-06-25T16:51:19.380Z</time>
      </trkpt>
      <trkpt lat="46.80697" lon="-0.5779">
        <ele>228.82</ele>
        <time>2024-06-25T16:51:32.483Z</time>
      </trkpt>
      <trkpt lat="46.80701" lon="-0.57794">
        <ele>228.73</ele>
        <time>2024-06-25T16:51:45.587Z</time>
      </trkpt>
      <trkpt lat="46.80705" lon="-0.57797">
        <ele>228.64</ele>
        <time>2024-06-25T16:51:58.692Z</time>
      </trkpt>
      <trkpt lat="46.8071" lon="-0.57801">
        <ele>228.54</ele>
        <time>2024-06-25T16:52:11.798Z</time>
      </trkpt>
      <trkpt lat="46.80715" lon="-0.57804">
        <ele>228.43</ele>
        <time>2024-06-25T16:52:24.905Z</time>
      </trkpt>
      <trkpt lat="46.8072" lon="-0.57808">
        <ele>228.32</ele>
        <time>2024-06-25T16:52:38.013Z</time>
      </trkpt>
      <trkpt lat="46.80725" lon="-0.5781">
        <ele>228.2</ele>
        <time>2024-06-25T16:52:51.122Z</time>
      </trkpt>
      <trkpt lat="46.8073" lon="-0.57813">
        <ele>228.07</ele>
        <time>2024-06-25T16:53:04.232Z</time>
      </trkpt>
      <trkpt lat="46.80735" lon="-0.57816">
        <ele>227.93</ele>
        <time>2024-06-25T16:53:17.343Z</time>
      </trkpt>
      <trkpt lat="46.8074" lon="-0.57818">
        <ele>227.79</ele>
        <time>2024-06-25T16:53:30.455Z</time>
      </trkpt>
      <trkpt lat="46.80745" lon="-0.5782">
        <ele>227.64</ele>
        <time>2024-06-25T16:53:43.568Z</time>
      </trkpt>
      <trkpt lat="46.80751" lon="-0.57822">
        <ele>227.5</ele>
        <time>2024-06-25T16:53:56.683Z</time>
      </trkpt>
      <trkpt lat="46.80757" lon="-0.57825">
        <ele>227.35</ele>
        <time>2024-06-25T16:54:09.799Z</time>
      </trkpt>
      <trkpt lat="46.80763" lon="-0.57828">
        <ele>227.18</ele>
        <time>2024-06-25T16:54:22.916Z</time>
      </trkpt>
      <trkpt lat="46.80768" lon="-0.57832">
        <ele>227.01</ele>
        <time>2024-06-25T16:54:36.034Z</time>
      </trkpt>
      <trkpt lat="46.80774" lon="-0.57835">
        <ele>226.84</ele>
        <time>2024-06-25T16:54:49.153Z</time>
      </trkpt>
      <trkpt lat="46.80779" lon="-0.57839">
        <ele>226.66</ele>
        <time>2024-06-25T16:55:02.274Z</time>
      </trkpt>
      <trkpt lat="46.80785" lon="-0.57842">
        <ele>226.48</ele>
        <time>2024-06-25T16:55:15.396Z</time>
      </trkpt>
      <trkpt lat="46.80791" lon="-0.57846">
        <ele>226.29</ele>
        <time>2024-06-25T16:55:28.519Z</time>
      </trkpt>
      <trkpt lat="46.80797" lon="-0.57849">
        <ele>226.09</ele>
        <time>2024-06-25T16:55:41.644Z</time>
      </trkpt>
      <trkpt lat="46.80803" lon="-0.57852">
        <ele>225.9</ele>
        <time>2024-06-25T16:55:54.770Z</time>
      </trkpt>
      <trkpt lat="46.80808" lon="-0.57855">
        <ele>225.7</ele>
        <time>2024-06-25T16:56:07.897Z</time>
      </trkpt>
      <trkpt lat="46.80813" lon="-0.57858">
        <ele>225.5</ele>
        <time>2024-06-25T16:56:21.025Z</time>
      </trkpt>
      <trkpt lat="46.80818" lon="-0.57861">
        <ele>225.31</ele>
        <time>2024-06-25T16:56:34.154Z</time>
      </trkpt>
      <trkpt lat="46.80823" lon="-0.57863">
        <ele>225.13</ele>
        <time>2024-06-25T16:56:47.284Z</time>
      </trkpt>
      <trkpt lat="46.80829" lon="-0.57865">
        <ele>224.94</ele>
        <time>2024-06-25T16:57:00.415Z</time>
      </trkpt>
      <trkpt lat="46.80835" lon="-0.57868">
        <ele>224.75</ele>
        <time>2024-06-25T16:57:13.548Z</time>
      </trkpt>
      <trkpt lat="46.8084" lon="-0.57871">
        <ele>224.57</ele>
        <time>2024-06-25T16:57:26.682Z</time>
      </trkpt>
      <trkpt lat="46.80846" lon="-0.57875">
        <ele>224.4</ele>
        <time>2024-06-25T16:57:39.817Z</time>
      </trkpt>
      <trkpt lat="46.80851" lon="-0.57879">
        <ele>224.22</ele>
        <time>2024-06-25T16:57:52.953Z</time>
      </trkpt>
      <trkpt lat="46.80856" lon="-0.57883">
        <ele>224.05</ele>
        <time>2024-06-25T16:58:06.090Z</time>
      </trkpt>
      <trkpt lat="46.80862" lon="-0.57886">
        <ele>223.88</ele>
        <time>2024-06-25T16:58:19.228Z</time>
      </trkpt>
      <trkpt lat="46.80867" lon="-0.5789">
        <ele>223.71</ele>
        <time>2024-06-25T16:58:32.368Z</time>
      </trkpt>
      <trkpt lat="46.80873" lon="-0.57893">
        <ele>223.55</ele>
        <time>2024-06-25T16:58:45.509Z</time>
      </trkpt>
      <trkpt lat="46.80878" lon="-0.57896">
        <ele>223.4</ele>
        <time>2024-06-25T16:58:58.651Z</time>
      </trkpt>
      <trkpt lat="46.80883" lon="-0.57899">
        <ele>223.25</ele>
        <time>2024-06-25T16:59:11.794Z</time>
      </trkpt>
      <trkpt lat="46.80888" lon="-0.57903">
        <ele>223.1</ele>
        <time>2024-06-25T16:59:24.938Z</time>
      </trkpt>
      <trkpt lat="46.80893" lon="-0.57907">
        <ele>222.96</ele>
        <time>2024-06-25T16:59:38.083Z</time>
      </trkpt>
      <trkpt lat="46.80897" lon="-0.5791">
        <ele>222.82</ele>
        <time>2024-06-25T16:59:51.229Z</time>
      </trkpt>
      <trkpt lat="46.80902" lon="-0.57913">
        <ele>222.69</ele>
        <time>2024-06-25T17:00:04.376Z</time>
      </trkpt>
      <trkpt lat="46.80908" lon="-0.57917">
        <ele>222.58</ele>
        <time>2024-06-25T17:00:17.525Z</time>
      </trkpt>
      <trkpt lat="46.80913" lon="-0.5792">
        <ele>222.47</ele>
        <time>2024-06-25T17:00:30.675Z</time>
      </trkpt>
      <trkpt lat="46.80917" lon="-0.57923">
        <ele>222.37</ele>
        <time>2024-06-25T17:00:43.826Z</time>
      </trkpt>
      <trkpt lat="46.80921" lon="-0.57925">
        <ele>222.28</ele>
        <time>2024-06-25T17:00:56.978Z</time>
      </trkpt>
      <trkpt lat="46.80925" lon="-0.57928">
        <ele>222.2</ele>
        <time>2024-06-25T17:01:10.130Z</time>
      </trkpt>
      <trkpt lat="46.80929" lon="-0.57931">
        <ele>222.12</ele>
        <time>2024-06-25T17:01:23.283Z</time>
      </trkpt>
      <trkpt lat="46.80933" lon="-0.57934">
        <ele>222.06</ele>
        <time>2024-06-25T17:01:36.437Z</time>
      </trkpt>
      <trkpt lat="46.80938" lon="-0.57937">
        <ele>222</ele>
        <time>2024-06-25T17:01:49.592Z</time>
      </trkpt>
      <trkpt lat="46.80943" lon="-0.57941">
        <ele>221.95</ele>
        <time>2024-06-25T17:02:02.748Z</time>
      </trkpt>
      <trkpt lat="46.80947" lon="-0.57944">
        <ele>221.91</ele>
        <time>2024-06-25T17:02:15.905Z</time>
      </trkpt>
      <trkpt lat="46.80952" lon="-0.57947">
        <ele>221.87</ele>
        <time>2024-06-25T17:02:29.063Z</time>
      </trkpt>
      <trkpt lat="46.80956" lon="-0.5795">
        <ele>221.85</ele>
        <time>2024-06-25T17:02:42.222Z</time>
      </trkpt>
      <trkpt lat="46.80961" lon="-0.57953">
        <ele>221.83</ele>
        <time>2024-06-25T17:02:55.382Z</time>
      </trkpt>
      <trkpt lat="46.80965" lon="-0.57955">
        <ele>221.83</ele>
        <time>2024-06-25T17:03:08.543Z</time>
      </trkpt>
      <trkpt lat="46.80969" lon="-0.57958">
        <ele>221.83</ele>
        <time>2024-06-25T17:03:21.705Z</time>
      </trkpt>
      <trkpt lat="46.80973" lon="-0.57962">
        <ele>221.85</ele>
        <time>2024-06-25T17:03:34.868Z</time>
      </trkpt>
      <trkpt lat="46.80977" lon="-0.57965">
        <ele>221.87</ele>
        <time>2024-06-25T17:03:48.032Z</time>
      </trkpt>
      <trkpt lat="46.80981" lon="-0.57968">
        <ele>221.9</ele>
        <time>2024-06-25T17:04:01.197Z</time>
      </trkpt>
      <trkpt lat="46.80984" lon="-0.57971">
        <ele>221.94</ele>
        <time>2024-06-25T17:04:14.363Z</time>
      </trkpt>
      <trkpt lat="46.80988" lon="-0.57975">
        <ele>221.99</ele>
        <time>2024-06-25T17:04:27.530Z</time>
      </trkpt>
      <trkpt lat="46.80992" lon="-0.57978">
        <ele>222.05</ele>
        <time>2024-06-25T17:04:40.698Z</time>
      </trkpt>
      <trkpt lat="46.80995" lon="-0.57981">
        <ele>222.12</ele>
        <time>2024-06-25T17:04:53.866Z</time>
      </trkpt>
      <trkpt lat="46.80998" lon="-0.57984">
        <ele>222.19</ele>
        <time>2024-06-25T17:05:07.035Z</time>
      </trkpt>
      <trkpt lat="46.81002" lon="-0.57987">
        <ele>222.27</ele>
        <time>2024-06-25T17:05:20.205Z</time>
      </trkpt>
      <trkpt lat="46.81005" lon="-0.57989">
        <ele>222.35</ele>
        <time>2024-06-25T17:05:33.375Z</time>
      </trkpt>
      <trkpt lat="46.81008" lon="-0.5799">
        <ele>222.45</ele>
        <time>2024-06-25T17:05:46.546Z</time>
      </trkpt>
      <trkpt lat="46.81012" lon="-0.57991">
        <ele>222.55</ele>
        <time>2024-06-25T17:05:59.718Z</time>
      </trkpt>
      <trkpt lat="46.81016" lon="-0.57991">
        <ele>222.65</ele>
        <time>2024-06-25T17:06:12.891Z</time>
      </trkpt>
      <trkpt lat="46.81019" lon="-0.57991">
        <ele>222.76</ele>
        <time>2024-06-25T17:06:26.064Z</time>
      </trkpt>
      <trkpt lat="46.81023" lon="-0.57991">
        <ele>222.88</ele>
        <time>2024-06-25T17:06:39.238Z</time>
      </trkpt>
      <trkpt lat="46.81027" lon="-0.5799">
        <ele>223</ele>
        <time>2024-06-25T17:06:52.413Z</time>
      </trkpt>
      <trkpt lat="46.8103" lon="-0.57989">
        <ele>223.13</ele>
        <time>2024-06-25T17:07:05.589Z</time>
      </trkpt>
      <trkpt lat="46.81033" lon="-0.57988">
        <ele>223.26</ele>
        <time>2024-06-25T17:07:18.765Z</time>
      </trkpt>
      <trkpt lat="46.81037" lon="-0.57984">
        <ele>223.4</ele>
        <time>2024-06-25T17:07:31.942Z</time>
      </trkpt>
      <trkpt lat="46.8104" lon="-0.57982">
        <ele>223.55</ele>
        <time>2024-06-25T17:07:45.120Z</time>
      </trkpt>
      <trkpt lat="46.81043" lon="-0.5798">
        <ele>223.7</ele>
        <time>2024-06-25T17:07:58.298Z</time>
      </trkpt>
      <trkpt lat="46.81045" lon="-0.57978">
        <ele>223.85</ele>
        <time>2024-06-25T17:08:11.477Z</time>
      </trkpt>
      <trkpt lat="46.81048" lon="-0.57976">
        <ele>224.01</ele>
        <time>2024-06-25T17:08:24.657Z</time>
      </trkpt>
      <trkpt lat="46.8105" lon="-0.57974">
        <ele>224.17</ele>
        <time>2024-06-25T17:08:37.837Z</time>
      </trkpt>
      <trkpt lat="46.81053" lon="-0.57972">
        <ele>224.34</ele>
        <time>2024-06-25T17:08:51.018Z</time>
      </trkpt>
      <trkpt lat="46.81056" lon="-0.5797">
        <ele>224.51</ele>
        <time>2024-06-25T17:09:04.199Z</time>
      </trkpt>
      <trkpt lat="46.81059" lon="-0.57968">
        <ele>224.68</ele>
        <time>2024-06-25T17:09:17.381Z</time>
      </trkpt>
      <trkpt lat="46.81062" lon="-0.57967">
        <ele>224.86</ele>
        <time>2024-06-25T17:09:30.564Z</time>
      </trkpt>
      <trkpt lat="46.81064" lon="-0.57965">
        <ele>225.03</ele>
        <time>2024-06-25T17:09:43.747Z</time>
      </trkpt>
      <trkpt lat="46.81067" lon="-0.57962">
        <ele>225.21</ele>
        <time>2024-06-25T17:09:56.931Z</time>
      </trkpt>
      <trkpt lat="46.8107" lon="-0.5796">
        <ele>225.4</ele>
        <time>2024-06-25T17:10:10.116Z</time>
      </trkpt>
      <trkpt lat="46.81073" lon="-0.57958">
        <ele>225.58</ele>
        <time>2024-06-25T17:10:23.301Z</time>
      </trkpt>
      <trkpt lat="46.81075" lon="-0.57957">
        <ele>225.77</ele>
        <time>2024-06-25T17:10:36.487Z</time>
      </trkpt>
      <trkpt lat="46.81078" lon="-0.57955">
        <ele>225.95</ele>
        <time>2024-06-25T17:10:49.673Z</time>
      </trkpt>
      <trkpt lat="46.8108" lon="-0.57953">
        <ele>226.14</ele>
        <time>2024-06-25T17:11:02.860Z</time>
      </trkpt>
      <trkpt lat="46.81083" lon="-0.5795">
        <ele>226.33</ele>
        <time>2024-06-25T17:11:16.047Z</time>
      </trkpt>
      <trkpt lat="46.81086" lon="-0.57948">
        <ele>226.52</ele>
        <time>2024-06-25T17:11:29.235Z</time>
      </trkpt>
      <trkpt lat="46.81089" lon="-0.57945">
        <ele>226.71</ele>
        <time>2024-06-25T17:11:42.424Z</time>
      </trkpt>
      <trkpt lat="46.81092" lon="-0.57943">
        <ele>226.9</ele>
        <time>2024-06-25T17:11:55.613Z</time>
      </trkpt>
      <trkpt lat="46.81095" lon="-0.57941">
        <ele>227.09</ele>
        <time>2024-06-25T17:12:08.803Z</time>
      </trkpt>
      <trkpt lat="46.81097" lon="-0.57939">
        <ele>227.28</ele>
        <time>2024-06-25T17:12:21.994Z</time>
      </trkpt>
      <trkpt lat="46.811" lon="-0.57936">
        <ele>227.47</ele>
        <time>2024-06-25T17:12:35.185Z</time>
      </trkpt>
      <trkpt lat="46.81103" lon="-0.57934">
        <ele>227.66</ele>
        <time>2024-06-25T17:12:48.377Z</time>
      </trkpt>
      <trkpt lat="46.81106" lon="-0.57932">
        <ele>227.84</ele>
        <time>2024-06-25T17:13:01.570Z</time>
      </trkpt>
      <trkpt lat="46.81108" lon="-0.5793">
        <ele>228.03</ele>
        <time>2024-06-25T17:13:14.763Z</time>
      </trkpt>
      <trkpt lat="46.81111" lon="-0.57927">
        <ele>228.22</ele>
        <time>2024-06-25T17:13:27.957Z</time>
      </trkpt>
      <trkpt lat="46.81113" lon="-0.57925">
        <ele>228.41</ele>
        <time>2024-06-25T17:13:41.151Z</time>
      </trkpt>
      <trkpt lat="46.81115" lon="-0.57923">
        <ele>228.59</ele>
        <time>2024-06-25T17:13:54.346Z</time>
      </trkpt>
      <trkpt lat="46.81117" lon="-0.57921">
        <ele>228.78</ele>
        <time>2024-06-25T17:14:07.541Z</time>
      </trkpt>
      <trkpt lat="46.8112" lon="-0.57918">
        <ele>228.96</ele>
        <time>2024-06-25T17:14:20.737Z</time>
      </trkpt>
      <trkpt lat="46.81122" lon="-0.57915">
        <ele>229.15</ele>
        <time>2024-06-25T17:14:33.934Z</time>
      </trkpt>
      <trkpt lat="46.81126" lon="-0.57912">
        <ele>229.33</ele>
        <time>2024-06-25T17:14:47.131Z</time>
      </trkpt>
      <trkpt lat="46.81128" lon="-0.5791">
        <ele>229.52</ele>
        <time>2024-06-25T17:15:00.329Z</time>
      </trkpt>
      <trkpt lat="46.81131" lon="-0.57909">
        <ele>229.7</ele>
        <time>2024-06-25T17:15:13.528Z</time>
      </trkpt>
      <trkpt lat="46.81133" lon="-0.57907">
        <ele>229.88</ele>
        <time>2024-06-25T17:15:26.727Z</time>
      </trkpt>
      <trkpt lat="46.81136" lon="-0.57906">
        <ele>230.06</ele>
        <time>2024-06-25T17:15:39.927Z</time>
      </trkpt>
      <trkpt lat="46.81138" lon="-0.57904">
        <ele>230.24</ele>
        <time>2024-06-25T17:15:53.127Z</time>
      </trkpt>
      <trkpt lat="46.81141" lon="-0.57902">
        <ele>230.41</ele>
        <time>2024-06-25T17:16:06.328Z</time>
      </trkpt>
      <trkpt lat="46.81143" lon="-0.579">
        <ele>230.59</ele>
        <time>2024-06-25T17:16:19.529Z</time>
      </trkpt>
      <trkpt lat="46.81146" lon="-0.57897">
        <ele>230.76</ele>
        <time>2024-06-25T17:16:32.731Z</time>
      </trkpt>
      <trkpt lat="46.81148" lon="-0.57895">
        <ele>230.93</ele>
        <time>2024-06-25T17:16:45.934Z</time>
      </trkpt>
      <trkpt lat="46.8115" lon="-0.57893">
        <ele>231.1</ele>
        <time>2024-06-25T17:16:59.137Z</time>
      </trkpt>
      <trkpt lat="46.81153" lon="-0.5789">
        <ele>231.27</ele>
        <time>2024-06-25T17:17:12.341Z</time>
      </trkpt>
      <trkpt lat="46.81155" lon="-0.57888">
        <ele>231.44</ele>
        <time>2024-06-25T17:17:25.545Z</time>
      </trkpt>
      <trkpt lat="46.81158" lon="-0.57886">
        <ele>231.6</ele>
        <time>2024-06-25T17:17:38.750Z</time>
      </trkpt>
      <trkpt lat="46.81161" lon="-0.57883">
        <ele>231.76</ele>
        <time>2024-06-25T17:17:51.956Z</time>
      </trkpt>
      <trkpt lat="46.81163" lon="-0.57881">
        <ele>231.92</ele>
        <time>2024-06-25T17:18:05.162Z</time>
      </trkpt>
      <trkpt lat="46.81166" lon="-0.57879">
        <ele>232.08</ele>
        <time>2024-06-25T17:18:18.369Z</time>
      </trkpt>
      <trkpt lat="46.81169" lon="-0.57876">
        <ele>232.24</ele>
        <time>2024-06-25T17:18:31.577Z</time>
      </trkpt>
      <trkpt lat="46.81172" lon="-0.57874">
        <ele>232.39</ele>
        <time>2024-06-25T17:18:44.785Z</time>
      </trkpt>
      <trkpt lat="46.81175" lon="-0.57872">
        <ele>232.54</ele>
        <time>2024-06-25T17:18:57.994Z</time>
      </trkpt>
      <trkpt lat="46.81177" lon="-0.5787">
        <ele>232.68</ele>
        <time>2024-06-25T17:19:11.203Z</time>
      </trkpt>
      <trkpt lat="46.81181" lon="-0.57868">
        <ele>232.82</ele>
        <time>2024-06-25T17:19:24.413Z</time>
      </trkpt>
      <trkpt lat="46.81184" lon="-0.57866">
        <ele>232.96</ele>
        <time>2024-06-25T17:19:37.624Z</time>
      </trkpt>
      <trkpt lat="46.81187" lon="-0.57863">
        <ele>233.1</ele>
        <time>2024-06-25T17:19:50.836Z</time>
      </trkpt>
      <trkpt lat="46.81191" lon="-0.57861">
        <ele>233.23</ele>
        <time>2024-06-25T17:20:04.048Z</time>
      </trkpt>
      <trkpt lat="46.81194" lon="-0.57859">
        <ele>233.36</ele>
        <time>2024-06-25T17:20:17.261Z</time>
      </trkpt>
      <trkpt lat="46.81197" lon="-0.57857">
        <ele>233.48</ele>
        <time>2024-06-25T17:20:30.475Z</time>
      </trkpt>
      <trkpt lat="46.81201" lon="-0.57855">
        <ele>233.61</ele>
        <time>2024-06-25T17:20:43.690Z</time>
      </trkpt>
      <trkpt lat="46.81204" lon="-0.57853">
        <ele>233.73</ele>
        <time>2024-06-25T17:20:56.905Z</time>
      </trkpt>
      <trkpt lat="46.81207" lon="-0.57851">
        <ele>233.85</ele>
        <time>2024-06-25T17:21:10.121Z</time>
      </trkpt>
      <trkpt lat="46.8121" lon="-0.57849">
        <ele>233.96</ele>
        <time>2024-06-25T17:21:23.338Z</time>
      </trkpt>
      <trkpt lat="46.81213" lon="-0.57846">
        <ele>234.07</ele>
        <time>2024-06-25T17:21:36.555Z</time>
      </trkpt>
      <trkpt lat="46.81216" lon="-0.57844">
        <ele>234.18</ele>
        <time>2024-06-25T17:21:49.773Z</time>
      </trkpt>
      <trkpt lat="46.81219" lon="-0.57843">
        <ele>234.28</ele>
        <time>2024-06-25T17:22:02.992Z</time>
      </trkpt>
      <trkpt lat="46.81223" lon="-0.5784">
        <ele>234.38</ele>
        <time>2024-06-25T17:22:16.211Z</time>
      </trkpt>
      <trkpt lat="46.81226" lon="-0.57838">
        <ele>234.48</ele>
        <time>2024-06-25T17:22:29.431Z</time>
      </trkpt>
      <trkpt lat="46.81229" lon="-0.57836">
        <ele>234.56</ele>
        <time>2024-06-25T17:22:42.652Z</time>
      </trkpt>
      <trkpt lat="46.81231" lon="-0.57834">
        <ele>234.64</ele>
        <time>2024-06-25T17:22:55.873Z</time>
      </trkpt>
      <trkpt lat="46.81233" lon="-0.57831">
        <ele>234.72</ele>
        <time>2024-06-25T17:23:09.095Z</time>
      </trkpt>
      <trkpt lat="46.81235" lon="-0.57829">
        <ele>234.78</ele>
        <time>2024-06-25T17:23:22.317Z</time>
      </trkpt>
      <trkpt lat="46.81237" lon="-0.57825">
        <ele>234.85</ele>
        <time>2024-06-25T17:23:35.540Z</time>
      </trkpt>
      <trkpt lat="46.81238" lon="-0.57822">
        <ele>234.9</ele>
        <time>2024-06-25T17:23:48.764Z</time>
      </trkpt>
      <trkpt lat="46.8124" lon="-0.57818">
        <ele>234.95</ele>
        <time>2024-06-25T17:24:01.988Z</time>
      </trkpt>
      <trkpt lat="46.81242" lon="-0.57816">
        <ele>234.99</ele>
        <time>2024-06-25T17:24:15.213Z</time>
      </trkpt>
      <trkpt lat="46.81245" lon="-0.57814">
        <ele>235.03</ele>
        <time>2024-06-25T17:24:28.438Z</time>
      </trkpt>
      <trkpt lat="46.81247" lon="-0.57812">
        <ele>235.07</ele>
        <time>2024-06-25T17:24:41.664Z</time>
      </trkpt>
      <trkpt lat="46.8125" lon="-0.57809">
        <ele>235.09</ele>
        <time>2024-06-25T17:24:54.891Z</time>
      </trkpt>
      <trkpt lat="46.81253" lon="-0.57806">
        <ele>235.11</ele>
        <time>2024-06-25T17:25:08.118Z</time>
      </trkpt>
      <trkpt lat="46.81255" lon="-0.57804">
        <ele>235.13</ele>
        <time>2024-06-25T17:25:21.346Z</time>
      </trkpt>
      <trkpt lat="46.81258" lon="-0.57801">
        <ele>235.14</ele>
        <time>2024-06-25T17:25:34.574Z</time>
      </trkpt>
      <trkpt lat="46.81261" lon="-0.57798">
        <ele>235.14</ele>
        <time>2024-06-25T17:25:47.803Z</time>
      </trkpt>
      <trkpt lat="46.81265" lon="-0.57797">
        <ele>235.13</ele>
        <time>2024-06-25T17:26:01.033Z</time>
      </trkpt>
      <trkpt lat="46.81268" lon="-0.57796">
        <ele>235.12</ele>
        <time>2024-06-25T17:26:14.264Z</time>
      </trkpt>
      <trkpt lat="46.81272" lon="-0.57794">
        <ele>235.1</ele>
        <time>2024-06-25T17:26:27.495Z</time>
      </trkpt>
      <trkpt lat="46.81276" lon="-0.57794">
        <ele>235.08</ele>
        <time>2024-06-25T17:26:40.727Z</time>
      </trkpt>
      <trkpt lat="46.8128" lon="-0.57792">
        <ele>235.04</ele>
        <time>2024-06-25T17:26:53.960Z</time>
      </trkpt>
      <trkpt lat="46.81283" lon="-0.5779">
        <ele>235</ele>
        <time>2024-06-25T17:27:07.194Z</time>
      </trkpt>
      <trkpt lat="46.81285" lon="-0.57787">
        <ele>234.95</ele>
        <time>2024-06-25T17:27:20.428Z</time>
      </trkpt>
      <trkpt lat="46.81285" lon="-0.57782">
        <ele>234.89</ele>
        <time>2024-06-25T17:27:33.663Z</time>
      </trkpt>
      <trkpt lat="46.81284" lon="-0.57777">
        <ele>234.82</ele>
        <time>2024-06-25T17:27:46.899Z</time>
      </trkpt>
      <trkpt lat="46.81282" lon="-0.57771">
        <ele>234.74</ele>
        <time>2024-06-25T17:28:00.136Z</time>
      </trkpt>
      <trkpt lat="46.8128" lon="-0.57765">
        <ele>234.65</ele>
        <time>2024-06-25T17:28:13.373Z</time>
      </trkpt>
      <trkpt lat="46.81277" lon="-0.57759">
        <ele>234.55</ele>
        <time>2024-06-25T17:28:26.611Z</time>
      </trkpt>
      <trkpt lat="46.81274" lon="-0.57753">
        <ele>234.45</ele>
        <time>2024-06-25T17:28:39.851Z</time>
      </trkpt>
      <trkpt lat="46.81272" lon="-0.57746">
        <ele>234.34</ele>
        <time>2024-06-25T17:28:53.092Z</time>
      </trkpt>
      <trkpt lat="46.8127" lon="-0.57738">
        <ele>234.22</ele>
        <time>2024-06-25T17:29:06.334Z</time>
      </trkpt>
      <trkpt lat="46.81267" lon="-0.57731">
        <ele>234.09</ele>
        <time>2024-06-25T17:29:19.577Z</time>
      </trkpt>
      <trkpt lat="46.81265" lon="-0.57723">
        <ele>233.95</ele>
        <time>2024-06-25T17:29:32.821Z</time>
      </trkpt>
      <trkpt lat="46.81263" lon="-0.57715">
        <ele>233.81</ele>
        <time>2024-06-25T17:29:46.066Z</time>
      </trkpt>
      <trkpt lat="46.8126" lon="-0.57707">
        <ele>233.66</ele>
        <time>2024-06-25T17:29:59.312Z</time>
      </trkpt>
      <trkpt lat="46.81258" lon="-0.577">
        <ele>233.51</ele>
        <time>2024-06-25T17:30:12.560Z</time>
      </trkpt>
      <trkpt lat="46.81254" lon="-0.57691">
        <ele>233.34</ele>
        <time>2024-06-25T17:30:25.809Z</time>
      </trkpt>
      <trkpt lat="46.81251" lon="-0.57682">
        <ele>233.16</ele>
        <time>2024-06-25T17:30:39.059Z</time>
      </trkpt>
      <trkpt lat="46.81248" lon="-0.57674">
        <ele>232.98</ele>
        <time>2024-06-25T17:30:52.311Z</time>
      </trkpt>
      <trkpt lat="46.81245" lon="-0.57665">
        <ele>232.8</ele>
        <time>2024-06-25T17:31:05.564Z</time>
      </trkpt>
      <trkpt lat="46.81242" lon="-0.57656">
        <ele>232.61</ele>
        <time>2024-06-25T17:31:18.818Z</time>
      </trkpt>
      <trkpt lat="46.81239" lon="-0.57647">
        <ele>232.42</ele>
        <time>2024-06-25T17:31:32.074Z</time>
      </trkpt>
      <trkpt lat="46.81235" lon="-0.57638">
        <ele>232.22</ele>
        <time>2024-06-25T17:31:45.331Z</time>
      </trkpt>
      <trkpt lat="46.81232" lon="-0.57629">
        <ele>232.01</ele>
        <time>2024-06-25T17:31:58.590Z</time>
      </trkpt>
      <trkpt lat="46.81229" lon="-0.5762">
        <ele>231.79</ele>
        <time>2024-06-25T17:32:11.850Z</time>
      </trkpt>
      <trkpt lat="46.81226" lon="-0.5761">
        <ele>231.54</ele>
        <time>2024-06-25T17:32:25.111Z</time>
      </trkpt>
      <trkpt lat="46.81223" lon="-0.57601">
        <ele>231.29</ele>
        <time>2024-06-25T17:32:38.374Z</time>
      </trkpt>
      <trkpt lat="46.8122" lon="-0.57591">
        <ele>231.02</ele>
        <time>2024-06-25T17:32:51.638Z</time>
      </trkpt>
      <trkpt lat="46.81217" lon="-0.57582">
        <ele>230.76</ele>
        <time>2024-06-25T17:33:04.904Z</time>
      </trkpt>
      <trkpt lat="46.81215" lon="-0.57573">
        <ele>230.48</ele>
        <time>2024-06-25T17:33:18.171Z</time>
      </trkpt>
      <trkpt lat="46.81212" lon="-0.57563">
        <ele>230.2</ele>
        <time>2024-06-25T17:33:31.439Z</time>
      </trkpt>
      <trkpt lat="46.81209" lon="-0.57554">
        <ele>229.92</ele>
        <time>2024-06-25T17:33:44.709Z</time>
      </trkpt>
      <trkpt lat="46.81207" lon="-0.57545">
        <ele>229.64</ele>
        <time>2024-06-25T17:33:57.980Z</time>
      </trkpt>
      <trkpt lat="46.81204" lon="-0.57535">
        <ele>229.35</ele>
        <time>2024-06-25T17:34:11.253Z</time>
      </trkpt>
      <trkpt lat="46.81202" lon="-0.57526">
        <ele>229.06</ele>
        <time>2024-06-25T17:34:24.527Z</time>
      </trkpt>
      <trkpt lat="46.812" lon="-0.57516">
        <ele>228.78</ele>
        <time>2024-06-25T17:34:37.802Z</time>
      </trkpt>
      <trkpt lat="46.81198" lon="-0.57507">
        <ele>228.48</ele>
        <time>2024-06-25T17:34:51.079Z</time>
      </trkpt>
      <trkpt lat="46.81197" lon="-0.57498">
        <ele>228.19</ele>
        <time>2024-06-25T17:35:04.357Z</time>
      </trkpt>
      <trkpt lat="46.81195" lon="-0.57488">
        <ele>227.9</ele>
        <time>2024-06-25T17:35:17.636Z</time>
      </trkpt>
      <trkpt lat="46.81193" lon="-0.57478">
        <ele>227.6</ele>
        <time>2024-06-25T17:35:30.917Z</time>
      </trkpt>
      <trkpt lat="46.81192" lon="-0.57469">
        <ele>227.29</ele>
        <time>2024-06-25T17:35:44.199Z</time>
      </trkpt>
      <trkpt lat="46.81189" lon="-0.57459">
        <ele>226.97</ele>
        <time>2024-06-25T17:35:57.482Z</time>
      </trkpt>
      <trkpt lat="46.81188" lon="-0.57449">
        <ele>226.66</ele>
        <time>2024-06-25T17:36:10.767Z</time>
      </trkpt>
      <trkpt lat="46.81186" lon="-0.57439">
        <ele>226.34</ele>
        <time>2024-06-25T17:36:24.053Z</time>
      </trkpt>
      <trkpt lat="46.81184" lon="-0.57428">
        <ele>226.01</ele>
        <time>2024-06-25T17:36:37.341Z</time>
      </trkpt>
      <trkpt lat="46.81182" lon="-0.57417">
        <ele>225.68</ele>
        <time>2024-06-25T17:36:50.630Z</time>
      </trkpt>
      <trkpt lat="46.8118" lon="-0.57407">
        <ele>225.35</ele>
        <time>2024-06-25T17:37:03.921Z</time>
      </trkpt>
      <trkpt lat="46.81178" lon="-0.57396">
        <ele>225.02</ele>
        <time>2024-06-25T17:37:17.213Z</time>
      </trkpt>
      <trkpt lat="46.81176" lon="-0.57385">
        <ele>224.68</ele>
        <time>2024-06-25T17:37:30.507Z</time>
      </trkpt>
      <trkpt lat="46.81174" lon="-0.57374">
        <ele>224.34</ele>
        <time>2024-06-25T17:37:43.803Z</time>
      </trkpt>
      <trkpt lat="46.81172" lon="-0.57363">
        <ele>224</ele>
        <time>2024-06-25T17:37:57.100Z</time>
      </trkpt>
      <trkpt lat="46.8117" lon="-0.57352">
        <ele>223.66</ele>
        <time>2024-06-25T17:38:10.399Z</time>
      </trkpt>
      <trkpt lat="46.81168" lon="-0.5734">
        <ele>223.32</ele>
        <time>2024-06-25T17:38:23.699Z</time>
      </trkpt>
      <trkpt lat="46.81168" lon="-0.57329">
        <ele>222.99</ele>
        <time>2024-06-25T17:38:37.001Z</time>
      </trkpt>
      <trkpt lat="46.81168" lon="-0.57318">
        <ele>222.65</ele>
        <time>2024-06-25T17:38:50.304Z</time>
      </trkpt>
      <trkpt lat="46.81168" lon="-0.57307">
        <ele>222.32</ele>
        <time>2024-06-25T17:39:03.609Z</time>
      </trkpt>
      <trkpt lat="46.81169" lon="-0.57295">
        <ele>221.99</ele>
        <time>2024-06-25T17:39:16.916Z</time>
      </trkpt>
      <trkpt lat="46.81169" lon="-0.57282">
        <ele>221.67</ele>
        <time>2024-06-25T17:39:30.224Z</time>
      </trkpt>
      <trkpt lat="46.81168" lon="-0.5727">
        <ele>221.33</ele>
        <time>2024-06-25T17:39:43.534Z</time>
      </trkpt>
      <trkpt lat="46.81166" lon="-0.57257">
        <ele>220.99</ele>
        <time>2024-06-25T17:39:56.846Z</time>
      </trkpt>
      <trkpt lat="46.81163" lon="-0.57245">
        <ele>220.65</ele>
        <time>2024-06-25T17:40:10.160Z</time>
      </trkpt>
      <trkpt lat="46.81159" lon="-0.57232">
        <ele>220.33</ele>
        <time>2024-06-25T17:40:23.476Z</time>
      </trkpt>
      <trkpt lat="46.81155" lon="-0.5722">
        <ele>220.01</ele>
        <time>2024-06-25T17:40:36.793Z</time>
      </trkpt>
      <trkpt lat="46.81151" lon="-0.57208">
        <ele>219.7</ele>
        <time>2024-06-25T17:40:50.112Z</time>
      </trkpt>
      <trkpt lat="46.81145" lon="-0.57198">
        <ele>219.4</ele>
        <time>2024-06-25T17:41:03.433Z</time>
      </trkpt>
      <trkpt lat="46.81138" lon="-0.5719">
        <ele>219.09</ele>
        <time>2024-06-25T17:41:16.756Z</time>
      </trkpt>
      <trkpt lat="46.81131" lon="-0.57185">
        <ele>218.79</ele>
        <time>2024-06-25T17:41:30.080Z</time>
      </trkpt>
      <trkpt lat="46.81123" lon="-0.57182">
        <ele>218.5</ele>
        <time>2024-06-25T17:41:43.406Z</time>
      </trkpt>
      <trkpt lat="46.81114" lon="-0.57182">
        <ele>218.22</ele>
        <time>2024-06-25T17:41:56.734Z</time>
      </trkpt>
      <trkpt lat="46.81105" lon="-0.57182">
        <ele>217.94</ele>
        <time>2024-06-25T17:42:10.064Z</time>
      </trkpt>
      <trkpt lat="46.81096" lon="-0.5718">
        <ele>217.66</ele>
        <time>2024-06-25T17:42:23.395Z</time>
      </trkpt>
      <trkpt lat="46.81088" lon="-0.57177">
        <ele>217.39</ele>
        <time>2024-06-25T17:42:36.728Z</time>
      </trkpt>
      <trkpt lat="46.81079" lon="-0.57174">
        <ele>217.13</ele>
        <time>2024-06-25T17:42:50.063Z</time>
      </trkpt>
      <trkpt lat="46.8107" lon="-0.57169">
        <ele>216.88</ele>
        <time>2024-06-25T17:43:03.400Z</time>
      </trkpt>
      <trkpt lat="46.81062" lon="-0.57164">
        <ele>216.64</ele>
        <time>2024-06-25T17:43:16.739Z</time>
      </trkpt>
      <trkpt lat="46.81055" lon="-0.5716">
        <ele>216.42</ele>
        <time>2024-06-25T17:43:30.079Z</time>
      </trkpt>
      <trkpt lat="46.81048" lon="-0.57155">
        <ele>216.21</ele>
        <time>2024-06-25T17:43:43.421Z</time>
      </trkpt>
      <trkpt lat="46.81042" lon="-0.5715">
        <ele>216.01</ele>
        <time>2024-06-25T17:43:56.764Z</time>
      </trkpt>
      <trkpt lat="46.81035" lon="-0.57145">
        <ele>215.82</ele>
        <time>2024-06-25T17:44:10.109Z</time>
      </trkpt>
      <trkpt lat="46.81029" lon="-0.5714">
        <ele>215.61</ele>
        <time>2024-06-25T17:44:23.455Z</time>
      </trkpt>
      <trkpt lat="46.81023" lon="-0.57135">
        <ele>215.4</ele>
        <time>2024-06-25T17:44:36.802Z</time>
      </trkpt>
      <trkpt lat="46.81017" lon="-0.57129">
        <ele>215.2</ele>
        <time>2024-06-25T17:44:50.151Z</time>
      </trkpt>
      <trkpt lat="46.81013" lon="-0.57124">
        <ele>215.01</ele>
        <time>2024-06-25T17:45:03.501Z</time>
      </trkpt>
      <trkpt lat="46.81009" lon="-0.57118">
        <ele>214.83</ele>
        <time>2024-06-25T17:45:16.852Z</time>
      </trkpt>
      <trkpt lat="46.81005" lon="-0.5711">
        <ele>214.64</ele>
        <time>2024-06-25T17:45:30.204Z</time>
      </trkpt>
      <trkpt lat="46.81001" lon="-0.57102">
        <ele>214.46</ele>
        <time>2024-06-25T17:45:43.558Z</time>
      </trkpt>
      <trkpt lat="46.80998" lon="-0.57092">
        <ele>214.28</ele>
        <time>2024-06-25T17:45:56.913Z</time>
      </trkpt>
      <trkpt lat="46.80995" lon="-0.57083">
        <ele>214.12</ele>
        <time>2024-06-25T17:46:10.270Z</time>
      </trkpt>
      <trkpt lat="46.80993" lon="-0.57073">
        <ele>213.97</ele>
        <time>2024-06-25T17:46:23.628Z</time>
      </trkpt>
      <trkpt lat="46.80991" lon="-0.57064">
        <ele>213.82</ele>
        <time>2024-06-25T17:46:36.987Z</time>
      </trkpt>
      <trkpt lat="46.8099" lon="-0.57054">
        <ele>213.67</ele>
        <time>2024-06-25T17:46:50.348Z</time>
      </trkpt>
      <trkpt lat="46.80989" lon="-0.57044">
        <ele>213.53</ele>
        <time>2024-06-25T17:47:03.710Z</time>
      </trkpt>
      <trkpt lat="46.80988" lon="-0.57034">
        <ele>213.4</ele>
        <time>2024-06-25T17:47:17.073Z</time>
      </trkpt>
      <trkpt lat="46.80987" lon="-0.57025">
        <ele>213.27</ele>
        <time>2024-06-25T17:47:30.438Z</time>
      </trkpt>
      <trkpt lat="46.80987" lon="-0.57015">
        <ele>213.16</ele>
        <time>2024-06-25T17:47:43.804Z</time>
      </trkpt>
      <trkpt lat="46.80986" lon="-0.57005">
        <ele>213.05</ele>
        <time>2024-06-25T17:47:57.171Z</time>
      </trkpt>
      <trkpt lat="46.80987" lon="-0.56996">
        <ele>212.95</ele>
        <time>2024-06-25T17:48:10.540Z</time>
      </trkpt>
      <trkpt lat="46.80987" lon="-0.56986">
        <ele>212.84</ele>
        <time>2024-06-25T17:48:23.910Z</time>
      </trkpt>
      <trkpt lat="46.80988" lon="-0.56975">
        <ele>212.74</ele>
        <time>2024-06-25T17:48:37.282Z</time>
      </trkpt>
      <trkpt lat="46.80989" lon="-0.56966">
        <ele>212.64</ele>
        <time>2024-06-25T17:48:50.655Z</time>
      </trkpt>
      <trkpt lat="46.8099" lon="-0.56956">
        <ele>212.55</ele>
        <time>2024-06-25T17:49:04.029Z</time>
      </trkpt>
      <trkpt lat="46.8099" lon="-0.56947">
        <ele>212.46</ele>
        <time>2024-06-25T17:49:17.405Z</time>
      </trkpt>
      <trkpt lat="46.8099" lon="-0.56936">
        <ele>212.37</ele>
        <time>2024-06-25T17:49:30.782Z</time>
      </trkpt>
      <trkpt lat="46.80991" lon="-0.56926">
        <ele>212.28</ele>
        <time>2024-06-25T17:49:44.160Z</time>
      </trkpt>
      <trkpt lat="46.80991" lon="-0.56916">
        <ele>212.2</ele>
        <time>2024-06-25T17:49:57.540Z</time>
      </trkpt>
      <trkpt lat="46.80991" lon="-0.56905">
        <ele>212.13</ele>
        <time>2024-06-25T17:50:10.921Z</time>
      </trkpt>
      <trkpt lat="46.80992" lon="-0.56896">
        <ele>212.05</ele>
        <time>2024-06-25T17:50:24.304Z</time>
      </trkpt>
      <trkpt lat="46.80992" lon="-0.56885">
        <ele>211.97</ele>
        <time>2024-06-25T17:50:37.688Z</time>
      </trkpt>
      <trkpt lat="46.80993" lon="-0.56874">
        <ele>211.9</ele>
        <time>2024-06-25T17:50:51.074Z</time>
      </trkpt>
      <trkpt lat="46.80994" lon="-0.56864">
        <ele>211.82</ele>
        <time>2024-06-25T17:51:04.461Z</time>
      </trkpt>
      <trkpt lat="46.80994" lon="-0.56854">
        <ele>211.74</ele>
        <time>2024-06-25T17:51:17.849Z</time>
      </trkpt>
      <trkpt lat="46.80994" lon="-0.56844">
        <ele>211.67</ele>
        <time>2024-06-25T17:51:31.239Z</time>
      </trkpt>
      <trkpt lat="46.80994" lon="-0.56832">
        <ele>211.6</ele>
        <time>2024-06-25T17:51:44.630Z</time>
      </trkpt>
      <trkpt lat="46.80994" lon="-0.56822">
        <ele>211.53</ele>
        <time>2024-06-25T17:51:58.023Z</time>
      </trkpt>
      <trkpt lat="46.80994" lon="-0.56812">
        <ele>211.45</ele>
        <time>2024-06-25T17:52:11.417Z</time>
      </trkpt>
      <trkpt lat="46.80994" lon="-0.56801">
        <ele>211.38</ele>
        <time>2024-06-25T17:52:24.813Z</time>
      </trkpt>
      <trkpt lat="46.80994" lon="-0.5679">
        <ele>211.31</ele>
        <time>2024-06-25T17:52:38.210Z</time>
      </trkpt>
      <trkpt lat="46.80994" lon="-0.5678">
        <ele>211.23</ele>
        <time>2024-06-25T17:52:51.608Z</time>
      </trkpt>
      <trkpt lat="46.80993" lon="-0.5677">
        <ele>211.16</ele>
        <time>2024-06-25T17:53:05.008Z</time>
      </trkpt>
      <trkpt lat="46.80993" lon="-0.56759">
        <ele>211.09</ele>
        <time>2024-06-25T17:53:18.409Z</time>
      </trkpt>
      <trkpt lat="46.80992" lon="-0.56748">
        <ele>211.02</ele>
        <time>2024-06-25T17:53:31.812Z</time>
      </trkpt>
      <trkpt lat="46.80992" lon="-0.56737">
        <ele>210.95</ele>
        <time>2024-06-25T17:53:45.216Z</time>
      </trkpt>
      <trkpt lat="46.80991" lon="-0.56726">
        <ele>210.89</ele>
        <time>2024-06-25T17:53:58.622Z</time>
      </trkpt>
      <trkpt lat="46.8099" lon="-0.56716">
        <ele>210.81</ele>
        <time>2024-06-25T17:54:12.029Z</time>
      </trkpt>
      <trkpt lat="46.8099" lon="-0.56706">
        <ele>210.74</ele>
        <time>2024-06-25T17:54:25.438Z</time>
      </trkpt>
      <trkpt lat="46.80989" lon="-0.56695">
        <ele>210.66</ele>
        <time>2024-06-25T17:54:38.848Z</time>
      </trkpt>
      <trkpt lat="46.80989" lon="-0.56683">
        <ele>210.59</ele>
        <time>2024-06-25T17:54:52.260Z</time>
      </trkpt>
      <trkpt lat="46.80989" lon="-0.56673">
        <ele>210.53</ele>
        <time>2024-06-25T17:55:05.673Z</time>
      </trkpt>
      <trkpt lat="46.80989" lon="-0.56662">
        <ele>210.45</ele>
        <time>2024-06-25T17:55:19.088Z</time>
      </trkpt>
      <trkpt lat="46.80991" lon="-0.56652">
        <ele>210.38</ele>
        <time>2024-06-25T17:55:32.504Z</time>
      </trkpt>
      <trkpt lat="46.80992" lon="-0.56641">
        <ele>210.32</ele>
        <time>2024-06-25T17:55:45.922Z</time>
      </trkpt>
      <trkpt lat="46.80994" lon="-0.5663">
        <ele>210.24</ele>
        <time>2024-06-25T17:55:59.341Z</time>
      </trkpt>
      <trkpt lat="46.80997" lon="-0.56619">
        <ele>210.16</ele>
        <time>2024-06-25T17:56:12.762Z</time>
      </trkpt>
      <trkpt lat="46.81" lon="-0.56609">
        <ele>210.08</ele>
        <time>2024-06-25T17:56:26.184Z</time>
      </trkpt>
      <trkpt lat="46.81003" lon="-0.566">
        <ele>210</ele>
        <time>2024-06-25T17:56:39.608Z</time>
      </trkpt>
      <trkpt lat="46.81006" lon="-0.5659">
        <ele>209.93</ele>
        <time>2024-06-25T17:56:53.033Z</time>
      </trkpt>
      <trkpt lat="46.81008" lon="-0.5658">
        <ele>209.85</ele>
        <time>2024-06-25T17:57:06.460Z</time>
      </trkpt>
      <trkpt lat="46.81011" lon="-0.5657">
        <ele>209.78</ele>
        <time>2024-06-25T17:57:19.888Z</time>
      </trkpt>
      <trkpt lat="46.81014" lon="-0.56559">
        <ele>209.71</ele>
        <time>2024-06-25T17:57:33.318Z</time>
      </trkpt>
      <trkpt lat="46.81016" lon="-0.56548">
        <ele>209.64</ele>
        <time>2024-06-25T17:57:46.749Z</time>
      </trkpt>
      <trkpt lat="46.81017" lon="-0.56537">
        <ele>209.56</ele>
        <time>2024-06-25T17:58:00.182Z</time>
      </trkpt>
      <trkpt lat="46.81018" lon="-0.56526">
        <ele>209.49</ele>
        <time>2024-06-25T17:58:13.616Z</time>
      </trkpt>
      <trkpt lat="46.81019" lon="-0.56515">
        <ele>209.42</ele>
        <time>2024-06-25T17:58:27.052Z</time>
      </trkpt>
      <trkpt lat="46.81019" lon="-0.56504">
        <ele>209.35</ele>
        <time>2024-06-25T17:58:40.489Z</time>
      </trkpt>
      <trkpt lat="46.81018" lon="-0.56492">
        <ele>209.29</ele>
        <time>2024-06-25T17:58:53.928Z</time>
      </trkpt>
      <trkpt lat="46.81018" lon="-0.5648">
        <ele>209.21</ele>
        <time>2024-06-25T17:59:07.369Z</time>
      </trkpt>
      <trkpt lat="46.81018" lon="-0.56469">
        <ele>209.14</ele>
        <time>2024-06-25T17:59:20.811Z</time>
      </trkpt>
      <trkpt lat="46.81018" lon="-0.56458">
        <ele>209.05</ele>
        <time>2024-06-25T17:59:34.255Z</time>
      </trkpt>
      <trkpt lat="46.81019" lon="-0.56447">
        <ele>208.97</ele>
        <time>2024-06-25T17:59:47.700Z</time>
      </trkpt>
      <trkpt lat="46.8102" lon="-0.56437">
        <ele>208.88</ele>
        <time>2024-06-25T18:00:01.147Z</time>
      </trkpt>
      <trkpt lat="46.81024" lon="-0.56428">
        <ele>208.79</ele>
        <time>2024-06-25T18:00:14.595Z</time>
      </trkpt>
      <trkpt lat="46.81028" lon="-0.56421">
        <ele>208.71</ele>
        <time>2024-06-25T18:00:28.044Z</time>
      </trkpt>
      <trkpt lat="46.81033" lon="-0.56415">
        <ele>208.62</ele>
        <time>2024-06-25T18:00:41.495Z</time>
      </trkpt>
      <trkpt lat="46.81038" lon="-0.56409">
        <ele>208.54</ele>
        <time>2024-06-25T18:00:54.947Z</time>
      </trkpt>
      <trkpt lat="46.81043" lon="-0.56403">
        <ele>208.45</ele>
        <time>2024-06-25T18:01:08.400Z</time>
      </trkpt>
      <trkpt lat="46.81048" lon="-0.56399">
        <ele>208.36</ele>
        <time>2024-06-25T18:01:21.854Z</time>
      </trkpt>
      <trkpt lat="46.81052" lon="-0.56394">
        <ele>208.26</ele>
        <time>2024-06-25T18:01:35.309Z</time>
      </trkpt>
      <trkpt lat="46.81057" lon="-0.5639">
        <ele>208.17</ele>
        <time>2024-06-25T18:01:48.766Z</time>
      </trkpt>
      <trkpt lat="46.81061" lon="-0.56385">
        <ele>208.08</ele>
        <time>2024-06-25T18:02:02.224Z</time>
      </trkpt>
      <trkpt lat="46.81065" lon="-0.5638">
        <ele>207.99</ele>
        <time>2024-06-25T18:02:15.683Z</time>
      </trkpt>
      <trkpt lat="46.81069" lon="-0.56374">
        <ele>207.9</ele>
        <time>2024-06-25T18:02:29.143Z</time>
      </trkpt>
      <trkpt lat="46.81073" lon="-0.56368">
        <ele>207.8</ele>
        <time>2024-06-25T18:02:42.604Z</time>
      </trkpt>
      <trkpt lat="46.81078" lon="-0.56362">
        <ele>207.71</ele>
        <time>2024-06-25T18:02:56.066Z</time>
      </trkpt>
      <trkpt lat="46.81081" lon="-0.56355">
        <ele>207.62</ele>
        <time>2024-06-25T18:03:09.529Z</time>
      </trkpt>
      <trkpt lat="46.81085" lon="-0.56348">
        <ele>207.52</ele>
        <time>2024-06-25T18:03:22.994Z</time>
      </trkpt>
      <trkpt lat="46.81089" lon="-0.56341">
        <ele>207.43</ele>
        <time>2024-06-25T18:03:36.460Z</time>
      </trkpt>
      <trkpt lat="46.81093" lon="-0.56333">
        <ele>207.33</ele>
        <time>2024-06-25T18:03:49.927Z</time>
      </trkpt>
      <trkpt lat="46.81097" lon="-0.56327">
        <ele>207.24</ele>
        <time>2024-06-25T18:04:03.395Z</time>
      </trkpt>
      <trkpt lat="46.81101" lon="-0.56321">
        <ele>207.15</ele>
        <time>2024-06-25T18:04:16.865Z</time>
      </trkpt>
      <trkpt lat="46.81106" lon="-0.56316">
        <ele>207.05</ele>
        <time>2024-06-25T18:04:30.336Z</time>
      </trkpt>
      <trkpt lat="46.81111" lon="-0.5631">
        <ele>206.96</ele>
        <time>2024-06-25T18:04:43.808Z</time>
      </trkpt>
      <trkpt lat="46.81116" lon="-0.56305">
        <ele>206.86</ele>
        <time>2024-06-25T18:04:57.281Z</time>
      </trkpt>
      <trkpt lat="46.81121" lon="-0.563">
        <ele>206.76</ele>
        <time>2024-06-25T18:05:10.755Z</time>
      </trkpt>
      <trkpt lat="46.81126" lon="-0.56295">
        <ele>206.66</ele>
        <time>2024-06-25T18:05:24.231Z</time>
      </trkpt>
      <trkpt lat="46.81132" lon="-0.56291">
        <ele>206.55</ele>
        <time>2024-06-25T18:05:37.708Z</time>
      </trkpt>
      <trkpt lat="46.81137" lon="-0.56287">
        <ele>206.44</ele>
        <time>2024-06-25T18:05:51.186Z</time>
      </trkpt>
      <trkpt lat="46.81143" lon="-0.56282">
        <ele>206.33</ele>
        <time>2024-06-25T18:06:04.666Z</time>
      </trkpt>
      <trkpt lat="46.81149" lon="-0.56278">
        <ele>206.22</ele>
        <time>2024-06-25T18:06:18.147Z</time>
      </trkpt>
      <trkpt lat="46.81154" lon="-0.56274">
        <ele>206.1</ele>
        <time>2024-06-25T18:06:31.629Z</time>
      </trkpt>
      <trkpt lat="46.81159" lon="-0.56271">
        <ele>205.98</ele>
        <time>2024-06-25T18:06:45.112Z</time>
      </trkpt>
      <trkpt lat="46.81164" lon="-0.56267">
        <ele>205.86</ele>
        <time>2024-06-25T18:06:58.596Z</time>
      </trkpt>
      <trkpt lat="46.81168" lon="-0.56263">
        <ele>205.73</ele>
        <time>2024-06-25T18:07:12.081Z</time>
      </trkpt>
      <trkpt lat="46.81173" lon="-0.5626">
        <ele>205.61</ele>
        <time>2024-06-25T18:07:25.567Z</time>
      </trkpt>
      <trkpt lat="46.81177" lon="-0.56255">
        <ele>205.48</ele>
        <time>2024-06-25T18:07:39.054Z</time>
      </trkpt>
      <trkpt lat="46.81178" lon="-0.56249">
        <ele>205.36</ele>
        <time>2024-06-25T18:07:52.542Z</time>
      </trkpt>
      <trkpt lat="46.81178" lon="-0.56243">
        <ele>205.24</ele>
        <time>2024-06-25T18:08:06.031Z</time>
      </trkpt>
      <trkpt lat="46.81176" lon="-0.56236">
        <ele>205.12</ele>
        <time>2024-06-25T18:08:19.521Z</time>
      </trkpt>
      <trkpt lat="46.81173" lon="-0.56229">
        <ele>205</ele>
        <time>2024-06-25T18:08:33.012Z</time>
      </trkpt>
      <trkpt lat="46.8117" lon="-0.56222">
        <ele>204.88</ele>
        <time>2024-06-25T18:08:46.504Z</time>
      </trkpt>
      <trkpt lat="46.81167" lon="-0.56214">
        <ele>204.76</ele>
        <time>2024-06-25T18:08:59.998Z</time>
      </trkpt>
      <trkpt lat="46.81164" lon="-0.56206">
        <ele>204.63</ele>
        <time>2024-06-25T18:09:13.493Z</time>
      </trkpt>
      <trkpt lat="46.81162" lon="-0.56198">
        <ele>204.5</ele>
        <time>2024-06-25T18:09:26.989Z</time>
      </trkpt>
      <trkpt lat="46.81158" lon="-0.5619">
        <ele>204.37</ele>
        <time>2024-06-25T18:09:40.486Z</time>
      </trkpt>
      <trkpt lat="46.81155" lon="-0.56182">
        <ele>204.24</ele>
        <time>2024-06-25T18:09:53.985Z</time>
      </trkpt>
      <trkpt lat="46.81152" lon="-0.56174">
        <ele>204.1</ele>
        <time>2024-06-25T18:10:07.485Z</time>
      </trkpt>
      <trkpt lat="46.81149" lon="-0.56165">
        <ele>203.96</ele>
        <time>2024-06-25T18:10:20.986Z</time>
      </trkpt>
      <trkpt lat="46.81146" lon="-0.56156">
        <ele>203.82</ele>
        <time>2024-06-25T18:10:34.488Z</time>
      </trkpt>
      <trkpt lat="46.81144" lon="-0.56147">
        <ele>203.68</ele>
        <time>2024-06-25T18:10:47.992Z</time>
      </trkpt>
      <trkpt lat="46.81141" lon="-0.56138">
        <ele>203.52</ele>
        <time>2024-06-25T18:11:01.497Z</time>
      </trkpt>
      <trkpt lat="46.81139" lon="-0.56129">
        <ele>203.36</ele>
        <time>2024-06-25T18:11:15.003Z</time>
      </trkpt>
      <trkpt lat="46.81136" lon="-0.5612">
        <ele>203.2</ele>
        <time>2024-06-25T18:11:28.511Z</time>
      </trkpt>
      <trkpt lat="46.81134" lon="-0.56112">
        <ele>203.05</ele>
        <time>2024-06-25T18:11:42.020Z</time>
      </trkpt>
      <trkpt lat="46.81131" lon="-0.56102">
        <ele>202.89</ele>
        <time>2024-06-25T18:11:55.530Z</time>
      </trkpt>
      <trkpt lat="46.81129" lon="-0.56093">
        <ele>202.71</ele>
        <time>2024-06-25T18:12:09.042Z</time>
      </trkpt>
      <trkpt lat="46.81126" lon="-0.56083">
        <ele>202.54</ele>
        <time>2024-06-25T18:12:22.555Z</time>
      </trkpt>
      <trkpt lat="46.81122" lon="-0.56074">
        <ele>202.36</ele>
        <time>2024-06-25T18:12:36.070Z</time>
      </trkpt>
      <trkpt lat="46.81119" lon="-0.56064">
        <ele>202.18</ele>
        <time>2024-06-25T18:12:49.586Z</time>
      </trkpt>
      <trkpt lat="46.81116" lon="-0.56056">
        <ele>201.99</ele>
        <time>2024-06-25T18:13:03.103Z</time>
      </trkpt>
      <trkpt lat="46.81114" lon="-0.56049">
        <ele>201.81</ele>
        <time>2024-06-25T18:13:16.622Z</time>
      </trkpt>
      <trkpt lat="46.81111" lon="-0.56042">
        <ele>201.63</ele>
        <time>2024-06-25T18:13:30.142Z</time>
      </trkpt>
      <trkpt lat="46.81108" lon="-0.56037">
        <ele>201.44</ele>
        <time>2024-06-25T18:13:43.663Z</time>
      </trkpt>
      <trkpt lat="46.81103" lon="-0.56032">
        <ele>201.25</ele>
        <time>2024-06-25T18:13:57.185Z</time>
      </trkpt>
      <trkpt lat="46.81098" lon="-0.56027">
        <ele>201.05</ele>
        <time>2024-06-25T18:14:10.708Z</time>
      </trkpt>
      <trkpt lat="46.81093" lon="-0.56022">
        <ele>200.86</ele>
        <time>2024-06-25T18:14:24.232Z</time>
      </trkpt>
      <trkpt lat="46.81088" lon="-0.56018">
        <ele>200.66</ele>
        <time>2024-06-25T18:14:37.757Z</time>
      </trkpt>
      <trkpt lat="46.81084" lon="-0.56013">
        <ele>200.45</ele>
        <time>2024-06-25T18:14:51.283Z</time>
      </trkpt>
      <trkpt lat="46.81079" lon="-0.5601">
        <ele>200.24</ele>
        <time>2024-06-25T18:15:04.810Z</time>
      </trkpt>
      <trkpt lat="46.81074" lon="-0.56007">
        <ele>200.03</ele>
        <time>2024-06-25T18:15:18.339Z</time>
      </trkpt>
      <trkpt lat="46.81068" lon="-0.56003">
        <ele>199.81</ele>
        <time>2024-06-25T18:15:31.869Z</time>
      </trkpt>
      <trkpt lat="46.81063" lon="-0.56001">
        <ele>199.59</ele>
        <time>2024-06-25T18:15:45.400Z</time>
      </trkpt>
      <trkpt lat="46.81057" lon="-0.55997">
        <ele>199.35</ele>
        <time>2024-06-25T18:15:58.932Z</time>
      </trkpt>
      <trkpt lat="46.81052" lon="-0.55995">
        <ele>199.12</ele>
        <time>2024-06-25T18:16:12.465Z</time>
      </trkpt>
      <trkpt lat="46.81047" lon="-0.55995">
        <ele>198.89</ele>
        <time>2024-06-25T18:16:25.999Z</time>
      </trkpt>
      <trkpt lat="46.81042" lon="-0.55997">
        <ele>198.66</ele>
        <time>2024-06-25T18:16:39.534Z</time>
      </trkpt>
      <trkpt lat="46.81037" lon="-0.55998">
        <ele>198.44</ele>
        <time>2024-06-25T18:16:53.070Z</time>
      </trkpt>
      <trkpt lat="46.81032" lon="-0.55999">
        <ele>198.2</ele>
        <time>2024-06-25T18:17:06.607Z</time>
      </trkpt>
      <trkpt lat="46.81027" lon="-0.55999">
        <ele>197.97</ele>
        <time>2024-06-25T18:17:20.145Z</time>
      </trkpt>
      <trkpt lat="46.81023" lon="-0.55999">
        <ele>197.73</ele>
        <time>2024-06-25T18:17:33.684Z</time>
      </trkpt>
      <trkpt lat="46.8102" lon="-0.55997">
        <ele>197.5</ele>
        <time>2024-06-25T18:17:47.224Z</time>
      </trkpt>
      <trkpt lat="46.81018" lon="-0.55993">
        <ele>197.26</ele>
        <time>2024-06-25T18:18:00.764Z</time>
      </trkpt>
      <trkpt lat="46.81017" lon="-0.55987">
        <ele>197.03</ele>
        <time>2024-06-25T18:18:14.305Z</time>
      </trkpt>
      <trkpt lat="46.81018" lon="-0.5598">
        <ele>196.8</ele>
        <time>2024-06-25T18:18:27.847Z</time>
      </trkpt>
      <trkpt lat="46.81018" lon="-0.55972">
        <ele>196.57</ele>
        <time>2024-06-25T18:18:41.390Z</time>
      </trkpt>
      <trkpt lat="46.81018" lon="-0.55965">
        <ele>196.33</ele>
        <time>2024-06-25T18:18:54.934Z</time>
      </trkpt>
      <trkpt lat="46.81019" lon="-0.55956">
        <ele>196.1</ele>
        <time>2024-06-25T18:19:08.480Z</time>
      </trkpt>
      <trkpt lat="46.81019" lon="-0.55948">
        <ele>195.87</ele>
        <time>2024-06-25T18:19:22.027Z</time>
      </trkpt>
      <trkpt lat="46.81019" lon="-0.5594">
        <ele>195.64</ele>
        <time>2024-06-25T18:19:35.575Z</time>
      </trkpt>
      <trkpt lat="46.81019" lon="-0.55932">
        <ele>195.41</ele>
        <time>2024-06-25T18:19:49.124Z</time>
      </trkpt>
      <trkpt lat="46.81019" lon="-0.55923">
        <ele>195.17</ele>
        <time>2024-06-25T18:20:02.674Z</time>
      </trkpt>
      <trkpt lat="46.81019" lon="-0.55914">
        <ele>194.94</ele>
        <time>2024-06-25T18:20:16.225Z</time>
      </trkpt>
      <trkpt lat="46.81019" lon="-0.55906">
        <ele>194.71</ele>
        <time>2024-06-25T18:20:29.777Z</time>
      </trkpt>
      <trkpt lat="46.8102" lon="-0.55897">
        <ele>194.48</ele>
        <time>2024-06-25T18:20:43.331Z</time>
      </trkpt>
      <trkpt lat="46.81021" lon="-0.55888">
        <ele>194.25</ele>
        <time>2024-06-25T18:20:56.886Z</time>
      </trkpt>
      <trkpt lat="46.81022" lon="-0.5588">
        <ele>194.03</ele>
        <time>2024-06-25T18:21:10.442Z</time>
      </trkpt>
      <trkpt lat="46.81022" lon="-0.55875">
        <ele>193.81</ele>
        <time>2024-06-25T18:21:23.999Z</time>
      </trkpt>
      <trkpt lat="46.81022" lon="-0.5587">
        <ele>193.6</ele>
        <time>2024-06-25T18:21:37.556Z</time>
      </trkpt>
      <trkpt lat="46.81022" lon="-0.55865">
        <ele>193.39</ele>
        <time>2024-06-25T18:21:51.114Z</time>
      </trkpt>
      <trkpt lat="46.81024" lon="-0.5586">
        <ele>193.18</ele>
        <time>2024-06-25T18:22:04.673Z</time>
      </trkpt>
      <trkpt lat="46.81029" lon="-0.55857">
        <ele>192.97</ele>
        <time>2024-06-25T18:22:18.233Z</time>
      </trkpt>
      <trkpt lat="46.81033" lon="-0.55855">
        <ele>192.77</ele>
        <time>2024-06-25T18:22:31.794Z</time>
      </trkpt>
      <trkpt lat="46.81038" lon="-0.55853">
        <ele>192.58</ele>
        <time>2024-06-25T18:22:45.356Z</time>
      </trkpt>
      <trkpt lat="46.81043" lon="-0.55848">
        <ele>192.38</ele>
        <time>2024-06-25T18:22:58.919Z</time>
      </trkpt>
      <trkpt lat="46.81048" lon="-0.55843">
        <ele>192.19</ele>
        <time>2024-06-25T18:23:12.483Z</time>
      </trkpt>
      <trkpt lat="46.81053" lon="-0.55838">
        <ele>192</ele>
        <time>2024-06-25T18:23:26.049Z</time>
      </trkpt>
      <trkpt lat="46.81058" lon="-0.55833">
        <ele>191.83</ele>
        <time>2024-06-25T18:23:39.616Z</time>
      </trkpt>
      <trkpt lat="46.81064" lon="-0.55827">
        <ele>191.65</ele>
        <time>2024-06-25T18:23:53.184Z</time>
      </trkpt>
      <trkpt lat="46.81069" lon="-0.55821">
        <ele>191.48</ele>
        <time>2024-06-25T18:24:06.754Z</time>
      </trkpt>
      <trkpt lat="46.81075" lon="-0.55815">
        <ele>191.32</ele>
        <time>2024-06-25T18:24:20.325Z</time>
      </trkpt>
      <trkpt lat="46.8108" lon="-0.55809">
        <ele>191.16</ele>
        <time>2024-06-25T18:24:33.897Z</time>
      </trkpt>
      <trkpt lat="46.81085" lon="-0.55803">
        <ele>191.01</ele>
        <time>2024-06-25T18:24:47.471Z</time>
      </trkpt>
      <trkpt lat="46.81091" lon="-0.55797">
        <ele>190.86</ele>
        <time>2024-06-25T18:25:01.046Z</time>
      </trkpt>
      <trkpt lat="46.81096" lon="-0.55791">
        <ele>190.71</ele>
        <time>2024-06-25T18:25:14.622Z</time>
      </trkpt>
      <trkpt lat="46.81102" lon="-0.55785">
        <ele>190.58</ele>
        <time>2024-06-25T18:25:28.200Z</time>
      </trkpt>
      <trkpt lat="46.81108" lon="-0.5578">
        <ele>190.45</ele>
        <time>2024-06-25T18:25:41.779Z</time>
      </trkpt>
      <trkpt lat="46.81114" lon="-0.55778">
        <ele>190.33</ele>
        <time>2024-06-25T18:25:55.359Z</time>
      </trkpt>
      <trkpt lat="46.81121" lon="-0.55775">
        <ele>190.21</ele>
        <time>2024-06-25T18:26:08.941Z</time>
      </trkpt>
      <trkpt lat="46.81127" lon="-0.55772">
        <ele>190.11</ele>
        <time>2024-06-25T18:26:22.524Z</time>
      </trkpt>
      <trkpt lat="46.81134" lon="-0.55769">
        <ele>190.01</ele>
        <time>2024-06-25T18:26:36.109Z</time>
      </trkpt>
      <trkpt lat="46.81141" lon="-0.55767">
        <ele>189.93</ele>
        <time>2024-06-25T18:26:49.695Z</time>
      </trkpt>
      <trkpt lat="46.81147" lon="-0.55765">
        <ele>189.85</ele>
        <time>2024-06-25T18:27:03.282Z</time>
      </trkpt>
      <trkpt lat="46.81153" lon="-0.55763">
        <ele>189.79</ele>
        <time>2024-06-25T18:27:16.870Z</time>
      </trkpt>
      <trkpt lat="46.81159" lon="-0.5576">
        <ele>189.74</ele>
        <time>2024-06-25T18:27:30.460Z</time>
      </trkpt>
      <trkpt lat="46.81164" lon="-0.55758">
        <ele>189.7</ele>
        <time>2024-06-25T18:27:44.051Z</time>
      </trkpt>
      <trkpt lat="46.81171" lon="-0.55756">
        <ele>189.66</ele>
        <time>2024-06-25T18:27:57.643Z</time>
      </trkpt>
      <trkpt lat="46.81177" lon="-0.55755">
        <ele>189.64</ele>
        <time>2024-06-25T18:28:11.236Z</time>
      </trkpt>
      <trkpt lat="46.81183" lon="-0.55753">
        <ele>189.62</ele>
        <time>2024-06-25T18:28:24.831Z</time>
      </trkpt>
      <trkpt lat="46.81189" lon="-0.55751">
        <ele>189.61</ele>
        <time>2024-06-25T18:28:38.427Z</time>
      </trkpt>
      <trkpt lat="46.81195" lon="-0.55749">
        <ele>189.61</ele>
        <time>2024-06-25T18:28:52.024Z</time>
      </trkpt>
      <trkpt lat="46.812" lon="-0.55748">
        <ele>189.61</ele>
        <time>2024-06-25T18:29:05.622Z</time>
      </trkpt>
      <trkpt lat="46.81206" lon="-0.55746">
        <ele>189.63</ele>
        <time>2024-06-25T18:29:19.221Z</time>
      </trkpt>
      <trkpt lat="46.81211" lon="-0.55745">
        <ele>189.66</ele>
        <time>2024-06-25T18:29:32.821Z</time>
      </trkpt>
      <trkpt lat="46.81216" lon="-0.55743">
        <ele>189.69</ele>
        <time>2024-06-25T18:29:46.422Z</time>
      </trkpt>
      <trkpt lat="46.81221" lon="-0.55742">
        <ele>189.73</ele>
        <time>2024-06-25T18:30:00.024Z</time>
      </trkpt>
      <trkpt lat="46.81226" lon="-0.5574">
        <ele>189.78</ele>
        <time>2024-06-25T18:30:13.627Z</time>
      </trkpt>
      <trkpt lat="46.81231" lon="-0.55739">
        <ele>189.83</ele>
        <time>2024-06-25T18:30:27.231Z</time>
      </trkpt>
      <trkpt lat="46.81235" lon="-0.55737">
        <ele>189.9</ele>
        <time>2024-06-25T18:30:40.836Z</time>
      </trkpt>
      <trkpt lat="46.8124" lon="-0.55736">
        <ele>189.98</ele>
        <time>2024-06-25T18:30:54.442Z</time>
      </trkpt>
      <trkpt lat="46.81245" lon="-0.55734">
        <ele>190.07</ele>
        <time>2024-06-25T18:31:08.049Z</time>
      </trkpt>
      <trkpt lat="46.8125" lon="-0.55733">
        <ele>190.16</ele>
        <time>2024-06-25T18:31:21.657Z</time>
      </trkpt>
      <trkpt lat="46.81255" lon="-0.55731">
        <ele>190.27</ele>
        <time>2024-06-25T18:31:35.266Z</time>
      </trkpt>
      <trkpt lat="46.81259" lon="-0.55729">
        <ele>190.38</ele>
        <time>2024-06-25T18:31:48.876Z</time>
      </trkpt>
      <trkpt lat="46.81264" lon="-0.55727">
        <ele>190.5</ele>
        <time>2024-06-25T18:32:02.487Z</time>
      </trkpt>
      <trkpt lat="46.81269" lon="-0.55726">
        <ele>190.63</ele>
        <time>2024-06-25T18:32:16.099Z</time>
      </trkpt>
      <trkpt lat="46.81273" lon="-0.55725">
        <ele>190.77</ele>
        <time>2024-06-25T18:32:29.712Z</time>
      </trkpt>
      <trkpt lat="46.81278" lon="-0.55723">
        <ele>190.91</ele>
        <time>2024-06-25T18:32:43.326Z</time>
      </trkpt>
      <trkpt lat="46.81282" lon="-0.55719">
        <ele>191.06</ele>
        <time>2024-06-25T18:32:56.941Z</time>
      </trkpt>
      <trkpt lat="46.81284" lon="-0.55713">
        <ele>191.21</ele>
        <time>2024-06-25T18:33:10.557Z</time>
      </trkpt>
      <trkpt lat="46.81284" lon="-0.55707">
        <ele>191.36</ele>
        <time>2024-06-25T18:33:24.174Z</time>
      </trkpt>
      <trkpt lat="46.81283" lon="-0.55701">
        <ele>191.52</ele>
        <time>2024-06-25T18:33:37.792Z</time>
      </trkpt>
      <trkpt lat="46.81283" lon="-0.55694">
        <ele>191.68</ele>
        <time>2024-06-25T18:33:51.411Z</time>
      </trkpt>
      <trkpt lat="46.81283" lon="-0.55687">
        <ele>191.84</ele>
        <time>2024-06-25T18:34:05.031Z</time>
      </trkpt>
      <trkpt lat="46.81283" lon="-0.55679">
        <ele>192.01</ele>
        <time>2024-06-25T18:34:18.652Z</time>
      </trkpt>
      <trkpt lat="46.81283" lon="-0.55672">
        <ele>192.18</ele>
        <time>2024-06-25T18:34:32.274Z</time>
      </trkpt>
      <trkpt lat="46.81283" lon="-0.55664">
        <ele>192.36</ele>
        <time>2024-06-25T18:34:45.897Z</time>
      </trkpt>
      <trkpt lat="46.81283" lon="-0.55657">
        <ele>192.54</ele>
        <time>2024-06-25T18:34:59.521Z</time>
      </trkpt>
      <trkpt lat="46.81283" lon="-0.55649">
        <ele>192.72</ele>
        <time>2024-06-25T18:35:13.146Z</time>
      </trkpt>
      <trkpt lat="46.81283" lon="-0.55642">
        <ele>192.9</ele>
        <time>2024-06-25T18:35:26.772Z</time>
      </trkpt>
      <trkpt lat="46.81283" lon="-0.55635">
        <ele>193.09</ele>
        <time>2024-06-25T18:35:40.399Z</time>
      </trkpt>
      <trkpt lat="46.81283" lon="-0.55627">
        <ele>193.27</ele>
        <time>2024-06-25T18:35:54.027Z</time>
      </trkpt>
      <trkpt lat="46.81283" lon="-0.5562">
        <ele>193.45</ele>
        <time>2024-06-25T18:36:07.656Z</time>
      </trkpt>
      <trkpt lat="46.81283" lon="-0.55613">
        <ele>193.63</ele>
        <time>2024-06-25T18:36:21.286Z</time>
      </trkpt>
      <trkpt lat="46.81284" lon="-0.55606">
        <ele>193.82</ele>
        <time>2024-06-25T18:36:34.917Z</time>
      </trkpt>
      <trkpt lat="46.81283" lon="-0.55599">
        <ele>194</ele>
        <time>2024-06-25T18:36:48.549Z</time>
      </trkpt>
      <trkpt lat="46.81283" lon="-0.55593">
        <ele>194.18</ele>
        <time>2024-06-25T18:37:02.182Z</time>
      </trkpt>
      <trkpt lat="46.81282" lon="-0.55586">
        <ele>194.35</ele>
        <time>2024-06-25T18:37:15.815Z</time>
      </trkpt>
      <trkpt lat="46.81282" lon="-0.55579">
        <ele>194.52</ele>
        <time>2024-06-25T18:37:29.449Z</time>
      </trkpt>
      <trkpt lat="46.81283" lon="-0.55572">
        <ele>194.68</ele>
        <time>2024-06-25T18:37:43.084Z</time>
      </trkpt>
      <trkpt lat="46.81283" lon="-0.55565">
        <ele>194.84</ele>
        <time>2024-06-25T18:37:56.720Z</time>
      </trkpt>
      <trkpt lat="46.81283" lon="-0.55557">
        <ele>194.99</ele>
        <time>2024-06-25T18:38:10.357Z</time>
      </trkpt>
      <trkpt lat="46.81283" lon="-0.55551">
        <ele>195.13</ele>
        <time>2024-06-25T18:38:23.995Z</time>
      </trkpt>
      <trkpt lat="46.81283" lon="-0.55544">
        <ele>195.27</ele>
        <time>2024-06-25T18:38:37.634Z</time>
      </trkpt>
      <trkpt lat="46.81282" lon="-0.55537">
        <ele>195.39</ele>
        <time>2024-06-25T18:38:51.274Z</time>
      </trkpt>
      <trkpt lat="46.81282" lon="-0.5553">
        <ele>195.51</ele>
        <time>2024-06-25T18:39:04.915Z</time>
      </trkpt>
      <trkpt lat="46.81282" lon="-0.55524">
        <ele>195.62</ele>
        <time>2024-06-25T18:39:18.557Z</time>
      </trkpt>
      <trkpt lat="46.81283" lon="-0.55517">
        <ele>195.72</ele>
        <time>2024-06-25T18:39:32.200Z</time>
      </trkpt>
      <trkpt lat="46.81284" lon="-0.5551">
        <ele>195.81</ele>
        <time>2024-06-25T18:39:45.844Z</time>
      </trkpt>
      <trkpt lat="46.81287" lon="-0.55505">
        <ele>195.9</ele>
        <time>2024-06-25T18:39:59.489Z</time>
      </trkpt>
      <trkpt lat="46.81291" lon="-0.55499">
        <ele>195.98</ele>
        <time>2024-06-25T18:40:13.135Z</time>
      </trkpt>
      <trkpt lat="46.81295" lon="-0.55493">
        <ele>196.04</ele>
        <time>2024-06-25T18:40:26.782Z</time>
      </trkpt>
      <trkpt lat="46.81298" lon="-0.55489">
        <ele>196.1</ele>
        <time>2024-06-25T18:40:40.430Z</time>
      </trkpt>
      <trkpt lat="46.81302" lon="-0.55486">
        <ele>196.15</ele>
        <time>2024-06-25T18:40:54.079Z</time>
      </trkpt>
      <trkpt lat="46.81306" lon="-0.55482">
        <ele>196.19</ele>
        <time>2024-06-25T18:41:07.729Z</time>
      </trkpt>
      <trkpt lat="46.8131" lon="-0.55479">
        <ele>196.22</ele>
        <time>2024-06-25T18:41:21.380Z</time>
      </trkpt>
      <trkpt lat="46.81314" lon="-0.55475">
        <ele>196.24</ele>
        <time>2024-06-25T18:41:35.032Z</time>
      </trkpt>
      <trkpt lat="46.81317" lon="-0.55472">
        <ele>196.25</ele>
        <time>2024-06-25T18:41:48.684Z</time>
      </trkpt>
      <trkpt lat="46.81321" lon="-0.5547">
        <ele>196.25</ele>
        <time>2024-06-25T18:42:02.337Z</time>
      </trkpt>
      <trkpt lat="46.81325" lon="-0.55467">
        <ele>196.24</ele>
        <time>2024-06-25T18:42:15.991Z</time>
      </trkpt>
      <trkpt lat="46.81329" lon="-0.55464">
        <ele>196.22</ele>
        <time>2024-06-25T18:42:29.646Z</time>
      </trkpt>
      <trkpt lat="46.81333" lon="-0.55462">
        <ele>196.18</ele>
        <time>2024-06-25T18:42:43.302Z</time>
      </trkpt>
      <trkpt lat="46.81338" lon="-0.55459">
        <ele>196.14</ele>
        <time>2024-06-25T18:42:56.959Z</time>
      </trkpt>
      <trkpt lat="46.81342" lon="-0.55456">
        <ele>196.08</ele>
        <time>2024-06-25T18:43:10.617Z</time>
      </trkpt>
      <trkpt lat="46.81346" lon="-0.55454">
        <ele>196.01</ele>
        <time>2024-06-25T18:43:24.276Z</time>
      </trkpt>
      <trkpt lat="46.8135" lon="-0.55451">
        <ele>195.93</ele>
        <time>2024-06-25T18:43:37.936Z</time>
      </trkpt>
      <trkpt lat="46.81355" lon="-0.55449">
        <ele>195.83</ele>
        <time>2024-06-25T18:43:51.597Z</time>
      </trkpt>
      <trkpt lat="46.81359" lon="-0.55446">
        <ele>195.73</ele>
        <time>2024-06-25T18:44:05.259Z</time>
      </trkpt>
      <trkpt lat="46.81363" lon="-0.55444">
        <ele>195.6</ele>
        <time>2024-06-25T18:44:18.921Z</time>
      </trkpt>
      <trkpt lat="46.81368" lon="-0.5544">
        <ele>195.47</ele>
        <time>2024-06-25T18:44:32.585Z</time>
      </trkpt>
      <trkpt lat="46.81374" lon="-0.55436">
        <ele>195.32</ele>
        <time>2024-06-25T18:44:46.250Z</time>
      </trkpt>
      <trkpt lat="46.81379" lon="-0.55433">
        <ele>195.16</ele>
        <time>2024-06-25T18:44:59.916Z</time>
      </trkpt>
      <trkpt lat="46.81384" lon="-0.5543">
        <ele>194.99</ele>
        <time>2024-06-25T18:45:13.583Z</time>
      </trkpt>
      <trkpt lat="46.81389" lon="-0.55426">
        <ele>194.8</ele>
        <time>2024-06-25T18:45:27.251Z</time>
      </trkpt>
      <trkpt lat="46.81395" lon="-0.55422">
        <ele>194.61</ele>
        <time>2024-06-25T18:45:40.920Z</time>
      </trkpt>
      <trkpt lat="46.814" lon="-0.55418">
        <ele>194.4</ele>
        <time>2024-06-25T18:45:54.591Z</time>
      </trkpt>
      <trkpt lat="46.81405" lon="-0.55413">
        <ele>194.17</ele>
        <time>2024-06-25T18:46:08.263Z</time>
      </trkpt>
      <trkpt lat="46.81411" lon="-0.55408">
        <ele>193.94</ele>
        <time>2024-06-25T18:46:21.936Z</time>
      </trkpt>
      <trkpt lat="46.81416" lon="-0.55402">
        <ele>193.69</ele>
        <time>2024-06-25T18:46:35.611Z</time>
      </trkpt>
      <trkpt lat="46.81422" lon="-0.55396">
        <ele>193.44</ele>
        <time>2024-06-25T18:46:49.287Z</time>
      </trkpt>
      <trkpt lat="46.81428" lon="-0.5539">
        <ele>193.17</ele>
        <time>2024-06-25T18:47:02.964Z</time>
      </trkpt>
      <trkpt lat="46.81434" lon="-0.55384">
        <ele>192.9</ele>
        <time>2024-06-25T18:47:16.643Z</time>
      </trkpt>
      <trkpt lat="46.8144" lon="-0.55378">
        <ele>192.62</ele>
        <time>2024-06-25T18:47:30.323Z</time>
      </trkpt>
      <trkpt lat="46.81445" lon="-0.55371">
        <ele>192.33</ele>
        <time>2024-06-25T18:47:44.005Z</time>
      </trkpt>
      <trkpt lat="46.81451" lon="-0.55365">
        <ele>192.03</ele>
        <time>2024-06-25T18:47:57.688Z</time>
      </trkpt>
      <trkpt lat="46.81456" lon="-0.55358">
        <ele>191.73</ele>
        <time>2024-06-25T18:48:11.373Z</time>
      </trkpt>
      <trkpt lat="46.81461" lon="-0.55351">
        <ele>191.43</ele>
        <time>2024-06-25T18:48:25.059Z</time>
      </trkpt>
      <trkpt lat="46.81466" lon="-0.55343">
        <ele>191.12</ele>
        <time>2024-06-25T18:48:38.746Z</time>
      </trkpt>
      <trkpt lat="46.8147" lon="-0.55334">
        <ele>190.8</ele>
        <time>2024-06-25T18:48:52.435Z</time>
      </trkpt>
      <trkpt lat="46.81475" lon="-0.55325">
        <ele>190.47</ele>
        <time>2024-06-25T18:49:06.125Z</time>
      </trkpt>
      <trkpt lat="46.81479" lon="-0.55317">
        <ele>190.14</ele>
        <time>2024-06-25T18:49:19.817Z</time>
      </trkpt>
      <trkpt lat="46.81484" lon="-0.55307">
        <ele>189.81</ele>
        <time>2024-06-25T18:49:33.510Z</time>
      </trkpt>
      <trkpt lat="46.81488" lon="-0.55298">
        <ele>189.47</ele>
        <time>2024-06-25T18:49:47.205Z</time>
      </trkpt>
      <trkpt lat="46.81493" lon="-0.5529">
        <ele>189.14</ele>
        <time>2024-06-25T18:50:00.901Z</time>
      </trkpt>
      <trkpt lat="46.81497" lon="-0.55281">
        <ele>188.8</ele>
        <time>2024-06-25T18:50:14.599Z</time>
      </trkpt>
      <trkpt lat="46.81501" lon="-0.55272">
        <ele>188.48</ele>
        <time>2024-06-25T18:50:28.298Z</time>
      </trkpt>
      <trkpt lat="46.81505" lon="-0.55263">
        <ele>188.15</ele>
        <time>2024-06-25T18:50:41.999Z</time>
      </trkpt>
      <trkpt lat="46.8151" lon="-0.55255">
        <ele>187.83</ele>
        <time>2024-06-25T18:50:55.701Z</time>
      </trkpt>
      <trkpt lat="46.81514" lon="-0.55247">
        <ele>187.51</ele>
        <time>2024-06-25T18:51:09.405Z</time>
      </trkpt>
      <trkpt lat="46.81519" lon="-0.55238">
        <ele>187.2</ele>
        <time>2024-06-25T18:51:23.110Z</time>
      </trkpt>
      <trkpt lat="46.81524" lon="-0.55229">
        <ele>186.89</ele>
        <time>2024-06-25T18:51:36.817Z</time>
      </trkpt>
      <trkpt lat="46.81528" lon="-0.55221">
        <ele>186.59</ele>
        <time>2024-06-25T18:51:50.525Z</time>
      </trkpt>
      <trkpt lat="46.81533" lon="-0.55212">
        <ele>186.29</ele>
        <time>2024-06-25T18:52:04.235Z</time>
      </trkpt>
      <trkpt lat="46.81538" lon="-0.55204">
        <ele>186</ele>
        <time>2024-06-25T18:52:17.946Z</time>
      </trkpt>
      <trkpt lat="46.81543" lon="-0.55195">
        <ele>185.71</ele>
        <time>2024-06-25T18:52:31.659Z</time>
      </trkpt>
      <trkpt lat="46.81548" lon="-0.55186">
        <ele>185.43</ele>
        <time>2024-06-25T18:52:45.373Z</time>
      </trkpt>
      <trkpt lat="46.81552" lon="-0.55178">
        <ele>185.15</ele>
        <time>2024-06-25T18:52:59.089Z</time>
      </trkpt>
      <trkpt lat="46.81557" lon="-0.55169">
        <ele>184.88</ele>
        <time>2024-06-25T18:53:12.807Z</time>
      </trkpt>
      <trkpt lat="46.81562" lon="-0.5516">
        <ele>184.62</ele>
        <time>2024-06-25T18:53:26.526Z</time>
      </trkpt>
      <trkpt lat="46.81568" lon="-0.55152">
        <ele>184.37</ele>
        <time>2024-06-25T18:53:40.247Z</time>
      </trkpt>
      <trkpt lat="46.81573" lon="-0.55144">
        <ele>184.12</ele>
        <time>2024-06-25T18:53:53.969Z</time>
      </trkpt>
      <trkpt lat="46.81579" lon="-0.55136">
        <ele>183.89</ele>
        <time>2024-06-25T18:54:07.693Z</time>
      </trkpt>
      <trkpt lat="46.81583" lon="-0.55128">
        <ele>183.67</ele>
        <time>2024-06-25T18:54:21.418Z</time>
      </trkpt>
      <trkpt lat="46.81588" lon="-0.5512">
        <ele>183.45</ele>
        <time>2024-06-25T18:54:35.145Z</time>
      </trkpt>
      <trkpt lat="46.81593" lon="-0.55112">
        <ele>183.25</ele>
        <time>2024-06-25T18:54:48.873Z</time>
      </trkpt>
      <trkpt lat="46.81597" lon="-0.55105">
        <ele>183.05</ele>
        <time>2024-06-25T18:55:02.602Z</time>
      </trkpt>
      <trkpt lat="46.81601" lon="-0.55097">
        <ele>182.86</ele>
        <time>2024-06-25T18:55:16.333Z</time>
      </trkpt>
      <trkpt lat="46.81605" lon="-0.55089">
        <ele>182.68</ele>
        <time>2024-06-25T18:55:30.065Z</time>
      </trkpt>
      <trkpt lat="46.8161" lon="-0.55082">
        <ele>182.51</ele>
        <time>2024-06-25T18:55:43.798Z</time>
      </trkpt>
      <trkpt lat="46.81614" lon="-0.55075">
        <ele>182.35</ele>
        <time>2024-06-25T18:55:57.533Z</time>
      </trkpt>
      <trkpt lat="46.81618" lon="-0.55068">
        <ele>182.19</ele>
        <time>2024-06-25T18:56:11.269Z</time>
      </trkpt>
      <trkpt lat="46.81623" lon="-0.55062">
        <ele>182.06</ele>
        <time>2024-06-25T18:56:25.006Z</time>
      </trkpt>
      <trkpt lat="46.81629" lon="-0.55057">
        <ele>181.93</ele>
        <time>2024-06-25T18:56:38.745Z</time>
      </trkpt>
      <trkpt lat="46.81634" lon="-0.55053">
        <ele>181.81</ele>
        <time>2024-06-25T18:56:52.485Z</time>
      </trkpt>
      <trkpt lat="46.8164" lon="-0.55049">
        <ele>181.71</ele>
        <time>2024-06-25T18:57:06.226Z</time>
      </trkpt>
      <trkpt lat="46.81645" lon="-0.55045">
        <ele>181.61</ele>
        <time>2024-06-25T18:57:19.968Z</time>
      </trkpt>
      <trkpt lat="46.8165" lon="-0.55042">
        <ele>181.52</ele>
        <time>2024-06-25T18:57:33.711Z</time>
      </trkpt>
      <trkpt lat="46.81655" lon="-0.55039">
        <ele>181.45</ele>
        <time>2024-06-25T18:57:47.455Z</time>
      </trkpt>
      <trkpt lat="46.8166" lon="-0.55035">
        <ele>181.38</ele>
        <time>2024-06-25T18:58:01.201Z</time>
      </trkpt>
      <trkpt lat="46.81666" lon="-0.55031">
        <ele>181.33</ele>
        <time>2024-06-25T18:58:14.948Z</time>
      </trkpt>
      <trkpt lat="46.81671" lon="-0.55027">
        <ele>181.28</ele>
        <time>2024-06-25T18:58:28.696Z</time>
      </trkpt>
      <trkpt lat="46.81675" lon="-0.55023">
        <ele>181.25</ele>
        <time>2024-06-25T18:58:42.445Z</time>
      </trkpt>
      <trkpt lat="46.81679" lon="-0.55019">
        <ele>181.23</ele>
        <time>2024-06-25T18:58:56.195Z</time>
      </trkpt>
      <trkpt lat="46.81683" lon="-0.55014">
        <ele>181.21</ele>
        <time>2024-06-25T18:59:09.946Z</time>
      </trkpt>
      <trkpt lat="46.81686" lon="-0.5501">
        <ele>181.21</ele>
        <time>2024-06-25T18:59:23.698Z</time>
      </trkpt>
      <trkpt lat="46.81689" lon="-0.55005">
        <ele>181.22</ele>
        <time>2024-06-25T18:59:37.451Z</time>
      </trkpt>
      <trkpt lat="46.81692" lon="-0.55">
        <ele>181.23</ele>
        <time>2024-06-25T18:59:51.205Z</time>
      </trkpt>
      <trkpt lat="46.81695" lon="-0.54996">
        <ele>181.26</ele>
        <time>2024-06-25T19:00:04.959Z</time>
      </trkpt>
      <trkpt lat="46.81697" lon="-0.54991">
        <ele>181.29</ele>
        <time>2024-06-25T19:00:18.714Z</time>
      </trkpt>
      <trkpt lat="46.817" lon="-0.54986">
        <ele>181.33</ele>
        <time>2024-06-25T19:00:32.470Z</time>
      </trkpt>
      <trkpt lat="46.81702" lon="-0.54981">
        <ele>181.38</ele>
        <time>2024-06-25T19:00:46.227Z</time>
      </trkpt>
      <trkpt lat="46.81703" lon="-0.54977">
        <ele>181.43</ele>
        <time>2024-06-25T19:00:59.985Z</time>
      </trkpt>
      <trkpt lat="46.81705" lon="-0.54972">
        <ele>181.5</ele>
        <time>2024-06-25T19:01:13.743Z</time>
      </trkpt>
      <trkpt lat="46.81707" lon="-0.54968">
        <ele>181.57</ele>
        <time>2024-06-25T19:01:27.502Z</time>
      </trkpt>
      <trkpt lat="46.81709" lon="-0.54963">
        <ele>181.65</ele>
        <time>2024-06-25T19:01:41.262Z</time>
      </trkpt>
      <trkpt lat="46.81711" lon="-0.54958">
        <ele>181.74</ele>
        <time>2024-06-25T19:01:55.023Z</time>
      </trkpt>
      <trkpt lat="46.81713" lon="-0.54954">
        <ele>181.83</ele>
        <time>2024-06-25T19:02:08.784Z</time>
      </trkpt>
      <trkpt lat="46.81715" lon="-0.5495">
        <ele>181.93</ele>
        <time>2024-06-25T19:02:22.546Z</time>
      </trkpt>
      <trkpt lat="46.81717" lon="-0.54946">
        <ele>182.04</ele>
        <time>2024-06-25T19:02:36.309Z</time>
      </trkpt>
      <trkpt lat="46.81719" lon="-0.54941">
        <ele>182.15</ele>
        <time>2024-06-25T19:02:50.072Z</time>
      </trkpt>
      <trkpt lat="46.81722" lon="-0.54937">
        <ele>182.26</ele>
        <time>2024-06-25T19:03:03.836Z</time>
      </trkpt>
      <trkpt lat="46.81724" lon="-0.54933">
        <ele>182.39</ele>
        <time>2024-06-25T19:03:17.601Z</time>
      </trkpt>
      <trkpt lat="46.81726" lon="-0.54929">
        <ele>182.51</ele>
        <time>2024-06-25T19:03:31.367Z</time>
      </trkpt>
      <trkpt lat="46.81728" lon="-0.54925">
        <ele>182.64</ele>
        <time>2024-06-25T19:03:45.133Z</time>
      </trkpt>
      <trkpt lat="46.8173" lon="-0.54922">
        <ele>182.78</ele>
        <time>2024-06-25T19:03:58.900Z</time>
      </trkpt>
      <trkpt lat="46.81732" lon="-0.54918">
        <ele>182.92</ele>
        <time>2024-06-25T19:04:12.667Z</time>
      </trkpt>
      <trkpt lat="46.81734" lon="-0.54915">
        <ele>183.06</ele>
        <time>2024-06-25T19:04:26.435Z</time>
      </trkpt>
      <trkpt lat="46.81736" lon="-0.54912">
        <ele>183.21</ele>
        <time>2024-06-25T19:04:40.204Z</time>
      </trkpt>
      <trkpt lat="46.81738" lon="-0.54909">
        <ele>183.36</ele>
        <time>2024-06-25T19:04:53.973Z</time>
      </trkpt>
      <trkpt lat="46.8174" lon="-0.54905">
        <ele>183.51</ele>
        <time>2024-06-25T19:05:07.743Z</time>
      </trkpt>
      <trkpt lat="46.81742" lon="-0.54901">
        <ele>183.67</ele>
        <time>2024-06-25T19:05:21.514Z</time>
      </trkpt>
      <trkpt lat="46.81745" lon="-0.54898">
        <ele>183.83</ele>
        <time>2024-06-25T19:05:35.285Z</time>
      </trkpt>
      <trkpt lat="46.81747" lon="-0.54895">
        <ele>183.99</ele>
        <time>2024-06-25T19:05:49.057Z</time>
      </trkpt>
      <trkpt lat="46.81748" lon="-0.54892">
        <ele>184.15</ele>
        <time>2024-06-25T19:06:02.829Z</time>
      </trkpt>
      <trkpt lat="46.8175" lon="-0.54889">
        <ele>184.31</ele>
        <time>2024-06-25T19:06:16.602Z</time>
      </trkpt>
      <trkpt lat="46.81752" lon="-0.54886">
        <ele>184.47</ele>
        <time>2024-06-25T19:06:30.376Z</time>
      </trkpt>
      <trkpt lat="46.81754" lon="-0.54883">
        <ele>184.63</ele>
        <time>2024-06-25T19:06:44.150Z</time>
      </trkpt>
      <trkpt lat="46.81756" lon="-0.5488">
        <ele>184.79</ele>
        <time>2024-06-25T19:06:57.925Z</time>
      </trkpt>
      <trkpt lat="46.81758" lon="-0.54878">
        <ele>184.96</ele>
        <time>2024-06-25T19:07:11.700Z</time>
      </trkpt>
      <trkpt lat="46.81761" lon="-0.54875">
        <ele>185.12</ele>
        <time>2024-06-25T19:07:25.476Z</time>
      </trkpt>
      <trkpt lat="46.81763" lon="-0.54872">
        <ele>185.28</ele>
        <time>2024-06-25T19:07:39.252Z</time>
      </trkpt>
      <trkpt lat="46.81765" lon="-0.54869">
        <ele>185.45</ele>
        <time>2024-06-25T19:07:53.029Z</time>
      </trkpt>
      <trkpt lat="46.81767" lon="-0.54866">
        <ele>185.61</ele>
        <time>2024-06-25T19:08:06.807Z</time>
      </trkpt>
      <trkpt lat="46.8177" lon="-0.54861">
        <ele>185.77</ele>
        <time>2024-06-25T19:08:20.585Z</time>
      </trkpt>
      <trkpt lat="46.81773" lon="-0.54858">
        <ele>185.93</ele>
        <time>2024-06-25T19:08:34.364Z</time>
      </trkpt>
      <trkpt lat="46.81776" lon="-0.54855">
        <ele>186.09</ele>
        <time>2024-06-25T19:08:48.144Z</time>
      </trkpt>
      <trkpt lat="46.81778" lon="-0.54852">
        <ele>186.26</ele>
        <time>2024-06-25T19:09:01.924Z</time>
      </trkpt>
      <trkpt lat="46.81781" lon="-0.5485">
        <ele>186.42</ele>
        <time>2024-06-25T19:09:15.705Z</time>
      </trkpt>
      <trkpt lat="46.81783" lon="-0.54847">
        <ele>186.58</ele>
        <time>2024-06-25T19:09:29.487Z</time>
      </trkpt>
      <trkpt lat="46.81785" lon="-0.54845">
        <ele>186.73</ele>
        <time>2024-06-25T19:09:43.269Z</time>
      </trkpt>
      <trkpt lat="46.81788" lon="-0.54842">
        <ele>186.89</ele>
        <time>2024-06-25T19:09:57.052Z</time>
      </trkpt>
      <trkpt lat="46.81792" lon="-0.54839">
        <ele>187.05</ele>
        <time>2024-06-25T19:10:10.836Z</time>
      </trkpt>
      <trkpt lat="46.81795" lon="-0.54836">
        <ele>187.21</ele>
        <time>2024-06-25T19:10:24.620Z</time>
      </trkpt>
      <trkpt lat="46.81798" lon="-0.54833">
        <ele>187.36</ele>
        <time>2024-06-25T19:10:38.405Z</time>
      </trkpt>
      <trkpt lat="46.818" lon="-0.5483">
        <ele>187.52</ele>
        <time>2024-06-25T19:10:52.191Z</time>
      </trkpt>
      <trkpt lat="46.81803" lon="-0.54828">
        <ele>187.67</ele>
        <time>2024-06-25T19:11:05.977Z</time>
      </trkpt>
      <trkpt lat="46.81805" lon="-0.54826">
        <ele>187.83</ele>
        <time>2024-06-25T19:11:19.764Z</time>
      </trkpt>
      <trkpt lat="46.81807" lon="-0.54823">
        <ele>187.98</ele>
        <time>2024-06-25T19:11:33.551Z</time>
      </trkpt>
      <trkpt lat="46.8181" lon="-0.54821">
        <ele>188.13</ele>
        <time>2024-06-25T19:11:47.339Z</time>
      </trkpt>
      <trkpt lat="46.81813" lon="-0.54818">
        <ele>188.28</ele>
        <time>2024-06-25T19:12:01.128Z</time>
      </trkpt>
      <trkpt lat="46.81815" lon="-0.54816">
        <ele>188.43</ele>
        <time>2024-06-25T19:12:14.917Z</time>
      </trkpt>
      <trkpt lat="46.81818" lon="-0.54813">
        <ele>188.57</ele>
        <time>2024-06-25T19:12:28.707Z</time>
      </trkpt>
      <trkpt lat="46.81821" lon="-0.5481">
        <ele>188.72</ele>
        <time>2024-06-25T19:12:42.498Z</time>
      </trkpt>
      <trkpt lat="46.81824" lon="-0.54808">
        <ele>188.86</ele>
        <time>2024-06-25T19:12:56.289Z</time>
      </trkpt>
      <trkpt lat="46.81827" lon="-0.54805">
        <ele>189.01</ele>
        <time>2024-06-25T19:13:10.081Z</time>
      </trkpt>
      <trkpt lat="46.8183" lon="-0.54803">
        <ele>189.15</ele>
        <time>2024-06-25T19:13:23.874Z</time>
      </trkpt>
      <trkpt lat="46.81833" lon="-0.548">
        <ele>189.29</ele>
        <time>2024-06-25T19:13:37.668Z</time>
      </trkpt>
      <trkpt lat="46.81836" lon="-0.54798">
        <ele>189.43</ele>
        <time>2024-06-25T19:13:51.462Z</time>
      </trkpt>
      <trkpt lat="46.81839" lon="-0.54795">
        <ele>189.58</ele>
        <time>2024-06-25T19:14:05.257Z</time>
      </trkpt>
      <trkpt lat="46.81843" lon="-0.54792">
        <ele>189.72</ele>
        <time>2024-06-25T19:14:19.053Z</time>
      </trkpt>
      <trkpt lat="46.81846" lon="-0.54791">
        <ele>189.86</ele>
        <time>2024-06-25T19:14:32.849Z</time>
      </trkpt>
      <trkpt lat="46.81849" lon="-0.54788">
        <ele>190</ele>
        <time>2024-06-25T19:14:46.646Z</time>
      </trkpt>
      <trkpt lat="46.81852" lon="-0.54786">
        <ele>190.14</ele>
        <time>2024-06-25T19:15:00.444Z</time>
      </trkpt>
      <trkpt lat="46.81855" lon="-0.54783">
        <ele>190.28</ele>
        <time>2024-06-25T19:15:14.243Z</time>
      </trkpt>
      <trkpt lat="46.81857" lon="-0.5478">
        <ele>190.42</ele>
        <time>2024-06-25T19:15:28.042Z</time>
      </trkpt>
      <trkpt lat="46.8186" lon="-0.54777">
        <ele>190.56</ele>
        <time>2024-06-25T19:15:41.842Z</time>
      </trkpt>
      <trkpt lat="46.81863" lon="-0.54773">
        <ele>190.7</ele>
        <time>2024-06-25T19:15:55.643Z</time>
      </trkpt>
      <trkpt lat="46.81866" lon="-0.54769">
        <ele>190.84</ele>
        <time>2024-06-25T19:16:09.444Z</time>
      </trkpt>
      <trkpt lat="46.81869" lon="-0.54765">
        <ele>190.98</ele>
        <time>2024-06-25T19:16:23.246Z</time>
      </trkpt>
      <trkpt lat="46.81872" lon="-0.5476">
        <ele>191.12</ele>
        <time>2024-06-25T19:16:37.049Z</time>
      </trkpt>
      <trkpt lat="46.81875" lon="-0.54755">
        <ele>191.26</ele>
        <time>2024-06-25T19:16:50.853Z</time>
      </trkpt>
      <trkpt lat="46.81877" lon="-0.5475">
        <ele>191.4</ele>
        <time>2024-06-25T19:17:04.658Z</time>
      </trkpt>
      <trkpt lat="46.8188" lon="-0.54745">
        <ele>191.55</ele>
        <time>2024-06-25T19:17:18.464Z</time>
      </trkpt>
      <trkpt lat="46.81882" lon="-0.54741">
        <ele>191.7</ele>
        <time>2024-06-25T19:17:32.271Z</time>
      </trkpt>
      <trkpt lat="46.81884" lon="-0.54735">
        <ele>191.84</ele>
        <time>2024-06-25T19:17:46.078Z</time>
      </trkpt>
      <trkpt lat="46.81887" lon="-0.5473">
        <ele>191.99</ele>
        <time>2024-06-25T19:17:59.886Z</time>
      </trkpt>
      <trkpt lat="46.8189" lon="-0.54725">
        <ele>192.13</ele>
        <time>2024-06-25T19:18:13.695Z</time>
      </trkpt>
      <trkpt lat="46.81892" lon="-0.54719">
        <ele>192.28</ele>
        <time>2024-06-25T19:18:27.505Z</time>
      </trkpt>
      <trkpt lat="46.81895" lon="-0.54714">
        <ele>192.42</ele>
        <time>2024-06-25T19:18:41.316Z</time>
      </trkpt>
      <trkpt lat="46.81898" lon="-0.54708">
        <ele>192.57</ele>
        <time>2024-06-25T19:18:55.128Z</time>
      </trkpt>
      <trkpt lat="46.819" lon="-0.54703">
        <ele>192.71</ele>
        <time>2024-06-25T19:19:08.941Z</time>
      </trkpt>
      <trkpt lat="46.81903" lon="-0.54697">
        <ele>192.86</ele>
        <time>2024-06-25T19:19:22.755Z</time>
      </trkpt>
      <trkpt lat="46.81906" lon="-0.54692">
        <ele>193.01</ele>
        <time>2024-06-25T19:19:36.570Z</time>
      </trkpt>
      <trkpt lat="46.81909" lon="-0.54687">
        <ele>193.15</ele>
        <time>2024-06-25T19:19:50.386Z</time>
      </trkpt>
      <trkpt lat="46.81911" lon="-0.54682">
        <ele>193.3</ele>
        <time>2024-06-25T19:20:04.203Z</time>
      </trkpt>
      <trkpt lat="46.81914" lon="-0.54676">
        <ele>193.44</ele>
        <time>2024-06-25T19:20:18.020Z</time>
      </trkpt>
      <trkpt lat="46.81916" lon="-0.54671">
        <ele>193.59</ele>
        <time>2024-06-25T19:20:31.838Z</time>
      </trkpt>
      <trkpt lat="46.81918" lon="-0.54667">
        <ele>193.73</ele>
        <time>2024-06-25T19:20:45.657Z</time>
      </trkpt>
      <trkpt lat="46.8192" lon="-0.54662">
        <ele>193.87</ele>
        <time>2024-06-25T19:20:59.477Z</time>
      </trkpt>
      <trkpt lat="46.81921" lon="-0.54658">
        <ele>194.01</ele>
        <time>2024-06-25T19:21:13.297Z</time>
      </trkpt>
      <trkpt lat="46.81923" lon="-0.54653">
        <ele>194.14</ele>
        <time>2024-06-25T19:21:27.118Z</time>
      </trkpt>
      <trkpt lat="46.81924" lon="-0.54648">
        <ele>194.28</ele>
        <time>2024-06-25T19:21:40.940Z</time>
      </trkpt>
      <trkpt lat="46.81926" lon="-0.54644">
        <ele>194.41</ele>
        <time>2024-06-25T19:21:54.763Z</time>
      </trkpt>
      <trkpt lat="46.81928" lon="-0.54639">
        <ele>194.55</ele>
        <time>2024-06-25T19:22:08.586Z</time>
      </trkpt>
      <trkpt lat="46.81929" lon="-0.54634">
        <ele>194.68</ele>
        <time>2024-06-25T19:22:22.410Z</time>
      </trkpt>
      <trkpt lat="46.81932" lon="-0.54629">
        <ele>194.81</ele>
        <time>2024-06-25T19:22:36.235Z</time>
      </trkpt>
      <trkpt lat="46.81934" lon="-0.54625">
        <ele>194.94</ele>
        <time>2024-06-25T19:22:50.061Z</time>
      </trkpt>
      <trkpt lat="46.81936" lon="-0.5462">
        <ele>195.06</ele>
        <time>2024-06-25T19:23:03.887Z</time>
      </trkpt>
      <trkpt lat="46.81938" lon="-0.54615">
        <ele>195.18</ele>
        <time>2024-06-25T19:23:17.714Z</time>
      </trkpt>
      <trkpt lat="46.8194" lon="-0.5461">
        <ele>195.3</ele>
        <time>2024-06-25T19:23:31.542Z</time>
      </trkpt>
      <trkpt lat="46.81942" lon="-0.54605">
        <ele>195.42</ele>
        <time>2024-06-25T19:23:45.371Z</time>
      </trkpt>
      <trkpt lat="46.81944" lon="-0.54601">
        <ele>195.53</ele>
        <time>2024-06-25T19:23:59.200Z</time>
      </trkpt>
      <trkpt lat="46.81946" lon="-0.54597">
        <ele>195.64</ele>
        <time>2024-06-25T19:24:13.030Z</time>
      </trkpt>
      <trkpt lat="46.81948" lon="-0.54593">
        <ele>195.74</ele>
        <time>2024-06-25T19:24:26.861Z</time>
      </trkpt>
      <trkpt lat="46.81949" lon="-0.54589">
        <ele>195.84</ele>
        <time>2024-06-25T19:24:40.692Z</time>
      </trkpt>
      <trkpt lat="46.81951" lon="-0.54584">
        <ele>195.93</ele>
        <time>2024-06-25T19:24:54.524Z</time>
      </trkpt>
      <trkpt lat="46.81953" lon="-0.5458">
        <ele>196.02</ele>
        <time>2024-06-25T19:25:08.357Z</time>
      </trkpt>
      <trkpt lat="46.81956" lon="-0.54576">
        <ele>196.1</ele>
        <time>2024-06-25T19:25:22.191Z</time>
      </trkpt>
      <trkpt lat="46.81958" lon="-0.54572">
        <ele>196.18</ele>
        <time>2024-06-25T19:25:36.025Z</time>
      </trkpt>
      <trkpt lat="46.8196" lon="-0.54568">
        <ele>196.25</ele>
        <time>2024-06-25T19:25:49.860Z</time>
      </trkpt>
      <trkpt lat="46.81962" lon="-0.54564">
        <ele>196.32</ele>
        <time>2024-06-25T19:26:03.696Z</time>
      </trkpt>
      <trkpt lat="46.81964" lon="-0.54561">
        <ele>196.38</ele>
        <time>2024-06-25T19:26:17.532Z</time>
      </trkpt>
      <trkpt lat="46.81966" lon="-0.54556">
        <ele>196.43</ele>
        <time>2024-06-25T19:26:31.369Z</time>
      </trkpt>
      <trkpt lat="46.81969" lon="-0.54552">
        <ele>196.47</ele>
        <time>2024-06-25T19:26:45.207Z</time>
      </trkpt>
      <trkpt lat="46.81971" lon="-0.54548">
        <ele>196.51</ele>
        <time>2024-06-25T19:26:59.046Z</time>
      </trkpt>
      <trkpt lat="46.81973" lon="-0.54543">
        <ele>196.54</ele>
        <time>2024-06-25T19:27:12.885Z</time>
      </trkpt>
      <trkpt lat="46.81976" lon="-0.54539">
        <ele>196.57</ele>
        <time>2024-06-25T19:27:26.725Z</time>
      </trkpt>
      <trkpt lat="46.81978" lon="-0.54535">
        <ele>196.58</ele>
        <time>2024-06-25T19:27:40.566Z</time>
      </trkpt>
      <trkpt lat="46.8198" lon="-0.54531">
        <ele>196.59</ele>
        <time>2024-06-25T19:27:54.408Z</time>
      </trkpt>
      <trkpt lat="46.81983" lon="-0.54526">
        <ele>196.6</ele>
        <time>2024-06-25T19:28:08.250Z</time>
      </trkpt>
      <trkpt lat="46.81985" lon="-0.54521">
        <ele>196.59</ele>
        <time>2024-06-25T19:28:22.093Z</time>
      </trkpt>
      <trkpt lat="46.81988" lon="-0.54516">
        <ele>196.58</ele>
        <time>2024-06-25T19:28:35.937Z</time>
      </trkpt>
      <trkpt lat="46.8199" lon="-0.54511">
        <ele>196.55</ele>
        <time>2024-06-25T19:28:49.782Z</time>
      </trkpt>
      <trkpt lat="46.81992" lon="-0.54506">
        <ele>196.53</ele>
        <time>2024-06-25T19:29:03.628Z</time>
      </trkpt>
      <trkpt lat="46.81994" lon="-0.54501">
        <ele>196.49</ele>
        <time>2024-06-25T19:29:17.475Z</time>
      </trkpt>
      <trkpt lat="46.81996" lon="-0.54495">
        <ele>196.45</ele>
        <time>2024-06-25T19:29:31.322Z</time>
      </trkpt>
      <trkpt lat="46.81998" lon="-0.54489">
        <ele>196.39</ele>
        <time>2024-06-25T19:29:45.170Z</time>
      </trkpt>
      <trkpt lat="46.82" lon="-0.54482">
        <ele>196.33</ele>
        <time>2024-06-25T19:29:59.019Z</time>
      </trkpt>
      <trkpt lat="46.82001" lon="-0.54475">
        <ele>196.27</ele>
        <time>2024-06-25T19:30:12.869Z</time>
      </trkpt>
      <trkpt lat="46.82003" lon="-0.54468">
        <ele>196.19</ele>
        <time>2024-06-25T19:30:26.720Z</time>
      </trkpt>
      <trkpt lat="46.82004" lon="-0.54461">
        <ele>196.11</ele>
        <time>2024-06-25T19:30:40.572Z</time>
      </trkpt>
      <trkpt lat="46.82006" lon="-0.54454">
        <ele>196.02</ele>
        <time>2024-06-25T19:30:54.425Z</time>
      </trkpt>
      <trkpt lat="46.82007" lon="-0.54447">
        <ele>195.92</ele>
        <time>2024-06-25T19:31:08.279Z</time>
      </trkpt>
      <trkpt lat="46.82008" lon="-0.54439">
        <ele>195.82</ele>
        <time>2024-06-25T19:31:22.134Z</time>
      </trkpt>
      <trkpt lat="46.8201" lon="-0.54432">
        <ele>195.71</ele>
        <time>2024-06-25T19:31:35.990Z</time>
      </trkpt>
      <trkpt lat="46.82011" lon="-0.54425">
        <ele>195.59</ele>
        <time>2024-06-25T19:31:49.848Z</time>
      </trkpt>
      <trkpt lat="46.82013" lon="-0.54417">
        <ele>195.46</ele>
        <time>2024-06-25T19:32:03.707Z</time>
      </trkpt>
      <trkpt lat="46.82015" lon="-0.54409">
        <ele>195.33</ele>
        <time>2024-06-25T19:32:17.567Z</time>
      </trkpt>
      <trkpt lat="46.82018" lon="-0.54402">
        <ele>195.2</ele>
        <time>2024-06-25T19:32:31.428Z</time>
      </trkpt>
      <trkpt lat="46.82021" lon="-0.54395">
        <ele>195.06</ele>
        <time>2024-06-25T19:32:45.290Z</time>
      </trkpt>
      <trkpt lat="46.82025" lon="-0.54388">
        <ele>194.91</ele>
        <time>2024-06-25T19:32:59.153Z</time>
      </trkpt>
      <trkpt lat="46.82028" lon="-0.54381">
        <ele>194.76</ele>
        <time>2024-06-25T19:33:13.017Z</time>
      </trkpt>
      <trkpt lat="46.82031" lon="-0.54373">
        <ele>194.6</ele>
        <time>2024-06-25T19:33:26.883Z</time>
      </trkpt>
      <trkpt lat="46.82034" lon="-0.54367">
        <ele>194.43</ele>
        <time>2024-06-25T19:33:40.750Z</time>
      </trkpt>
      <trkpt lat="46.82037" lon="-0.54359">
        <ele>194.26</ele>
        <time>2024-06-25T19:33:54.618Z</time>
      </trkpt>
      <trkpt lat="46.82038" lon="-0.54352">
        <ele>194.07</ele>
        <time>2024-06-25T19:34:08.487Z</time>
      </trkpt>
      <trkpt lat="46.8204" lon="-0.54344">
        <ele>193.88</ele>
        <time>2024-06-25T19:34:22.357Z</time>
      </trkpt>
      <trkpt lat="46.82041" lon="-0.54337">
        <ele>193.69</ele>
        <time>2024-06-25T19:34:36.228Z</time>
      </trkpt>
      <trkpt lat="46.82042" lon="-0.54329">
        <ele>193.48</ele>
        <time>2024-06-25T19:34:50.100Z</time>
      </trkpt>
      <trkpt lat="46.82044" lon="-0.54323">
        <ele>193.27</ele>
        <time>2024-06-25T19:35:03.973Z</time>
      </trkpt>
      <trkpt lat="46.82047" lon="-0.54318">
        <ele>193.05</ele>
        <time>2024-06-25T19:35:17.847Z</time>
      </trkpt>
      <trkpt lat="46.82051" lon="-0.54314">
        <ele>192.83</ele>
        <time>2024-06-25T19:35:31.722Z</time>
      </trkpt>
      <trkpt lat="46.82055" lon="-0.54313">
        <ele>192.61</ele>
        <time>2024-06-25T19:35:45.598Z</time>
      </trkpt>
      <trkpt lat="46.8206" lon="-0.54315">
        <ele>192.38</ele>
        <time>2024-06-25T19:35:59.475Z</time>
      </trkpt>
      <trkpt lat="46.82065" lon="-0.54316">
        <ele>192.15</ele>
        <time>2024-06-25T19:36:13.353Z</time>
      </trkpt>
      <trkpt lat="46.82071" lon="-0.54314">
        <ele>191.9</ele>
        <time>2024-06-25T19:36:27.232Z</time>
      </trkpt>
      <trkpt lat="46.82078" lon="-0.54311">
        <ele>191.65</ele>
        <time>2024-06-25T19:36:41.113Z</time>
      </trkpt>
      <trkpt lat="46.82084" lon="-0.54307">
        <ele>191.4</ele>
        <time>2024-06-25T19:36:54.995Z</time>
      </trkpt>
      <trkpt lat="46.8209" lon="-0.54303">
        <ele>191.13</ele>
        <time>2024-06-25T19:37:08.878Z</time>
      </trkpt>
      <trkpt lat="46.82097" lon="-0.54297">
        <ele>190.86</ele>
        <time>2024-06-25T19:37:22.763Z</time>
      </trkpt>
      <trkpt lat="46.82103" lon="-0.54292">
        <ele>190.59</ele>
        <time>2024-06-25T19:37:36.649Z</time>
      </trkpt>
      <trkpt lat="46.8211" lon="-0.54286">
        <ele>190.31</ele>
        <time>2024-06-25T19:37:50.537Z</time>
      </trkpt>
      <trkpt lat="46.82116" lon="-0.54279">
        <ele>190.03</ele>
        <time>2024-06-25T19:38:04.426Z</time>
      </trkpt>
      <trkpt lat="46.82123" lon="-0.54273">
        <ele>189.75</ele>
        <time>2024-06-25T19:38:18.317Z</time>
      </trkpt>
      <trkpt lat="46.8213" lon="-0.54267">
        <ele>189.47</ele>
        <time>2024-06-25T19:38:32.210Z</time>
      </trkpt>
      <trkpt lat="46.82136" lon="-0.54261">
        <ele>189.19</ele>
        <time>2024-06-25T19:38:46.104Z</time>
      </trkpt>
      <trkpt lat="46.82143" lon="-0.54255">
        <ele>188.91</ele>
        <time>2024-06-25T19:39:00.000Z</time>
      </trkpt>
      <trkpt lat="46.8215" lon="-0.54248">
        <ele>188.63</ele>
        <time>2024-06-25T19:39:13.897Z</time>
      </trkpt>
      <trkpt lat="46.82156" lon="-0.54241">
        <ele>188.36</ele>
        <time>2024-06-25T19:39:27.796Z</time>
      </trkpt>
      <trkpt lat="46.82163" lon="-0.54235">
        <ele>188.08</ele>
        <time>2024-06-25T19:39:41.697Z</time>
      </trkpt>
      <trkpt lat="46.82169" lon="-0.54228">
        <ele>187.82</ele>
        <time>2024-06-25T19:39:55.599Z</time>
      </trkpt>
      <trkpt lat="46.82176" lon="-0.54221">
        <ele>187.55</ele>
        <time>2024-06-25T19:40:09.503Z</time>
      </trkpt>
      <trkpt lat="46.82182" lon="-0.54214">
        <ele>187.28</ele>
        <time>2024-06-25T19:40:23.408Z</time>
      </trkpt>
      <trkpt lat="46.82188" lon="-0.54205">
        <ele>187.02</ele>
        <time>2024-06-25T19:40:37.315Z</time>
      </trkpt>
      <trkpt lat="46.82194" lon="-0.54197">
        <ele>186.75</ele>
        <time>2024-06-25T19:40:51.224Z</time>
      </trkpt>
      <trkpt lat="46.822" lon="-0.5419">
        <ele>186.49</ele>
        <time>2024-06-25T19:41:05.134Z</time>
      </trkpt>
      <trkpt lat="46.82206" lon="-0.54183">
        <ele>186.23</ele>
        <time>2024-06-25T19:41:19.046Z</time>
      </trkpt>
      <trkpt lat="46.82213" lon="-0.54176">
        <ele>185.97</ele>
        <time>2024-06-25T19:41:32.959Z</time>
      </trkpt>
      <trkpt lat="46.8222" lon="-0.54169">
        <ele>185.72</ele>
        <time>2024-06-25T19:41:46.874Z</time>
      </trkpt>
      <trkpt lat="46.82227" lon="-0.54161">
        <ele>185.47</ele>
        <time>2024-06-25T19:42:00.791Z</time>
      </trkpt>
      <trkpt lat="46.82234" lon="-0.54155">
        <ele>185.24</ele>
        <time>2024-06-25T19:42:14.710Z</time>
      </trkpt>
      <trkpt lat="46.82241" lon="-0.5415">
        <ele>185.01</ele>
        <time>2024-06-25T19:42:28.630Z</time>
      </trkpt>
      <trkpt lat="46.82248" lon="-0.54145">
        <ele>184.79</ele>
        <time>2024-06-25T19:42:42.552Z</time>
      </trkpt>
      <trkpt lat="46.82255" lon="-0.54139">
        <ele>184.57</ele>
        <time>2024-06-25T19:42:56.475Z</time>
      </trkpt>
      <trkpt lat="46.82262" lon="-0.54133">
        <ele>184.35</ele>
        <time>2024-06-25T19:43:10.400Z</time>
      </trkpt>
      <trkpt lat="46.82269" lon="-0.54128">
        <ele>184.14</ele>
        <time>2024-06-25T19:43:24.326Z</time>
      </trkpt>
      <trkpt lat="46.82276" lon="-0.54122">
        <ele>183.94</ele>
        <time>2024-06-25T19:43:38.254Z</time>
      </trkpt>
      <trkpt lat="46.82284" lon="-0.54117">
        <ele>183.74</ele>
        <time>2024-06-25T19:43:52.184Z</time>
      </trkpt>
      <trkpt lat="46.8229" lon="-0.54111">
        <ele>183.54</ele>
        <time>2024-06-25T19:44:06.115Z</time>
      </trkpt>
      <trkpt lat="46.82298" lon="-0.54106">
        <ele>183.35</ele>
        <time>2024-06-25T19:44:20.048Z</time>
      </trkpt>
      <trkpt lat="46.82305" lon="-0.54102">
        <ele>183.17</ele>
        <time>2024-06-25T19:44:33.982Z</time>
      </trkpt>
      <trkpt lat="46.82312" lon="-0.54097">
        <ele>182.99</ele>
        <time>2024-06-25T19:44:47.918Z</time>
      </trkpt>
      <trkpt lat="46.82319" lon="-0.54093">
        <ele>182.81</ele>
        <time>2024-06-25T19:45:01.856Z</time>
      </trkpt>
      <trkpt lat="46.82327" lon="-0.54089">
        <ele>182.64</ele>
        <time>2024-06-25T19:45:15.795Z</time>
      </trkpt>
      <trkpt lat="46.82334" lon="-0.54084">
        <ele>182.47</ele>
        <time>2024-06-25T19:45:29.736Z</time>
      </trkpt>
      <trkpt lat="46.82341" lon="-0.5408">
        <ele>182.3</ele>
        <time>2024-06-25T19:45:43.678Z</time>
      </trkpt>
      <trkpt lat="46.82348" lon="-0.54075">
        <ele>182.14</ele>
        <time>2024-06-25T19:45:57.622Z</time>
      </trkpt>
      <trkpt lat="46.82355" lon="-0.5407">
        <ele>181.99</ele>
        <time>2024-06-25T19:46:11.567Z</time>
      </trkpt>
      <trkpt lat="46.82361" lon="-0.54064">
        <ele>181.83</ele>
        <time>2024-06-25T19:46:25.514Z</time>
      </trkpt>
      <trkpt lat="46.82367" lon="-0.54057">
        <ele>181.69</ele>
        <time>2024-06-25T19:46:39.462Z</time>
      </trkpt>
      <trkpt lat="46.82371" lon="-0.54051">
        <ele>181.55</ele>
        <time>2024-06-25T19:46:53.412Z</time>
      </trkpt>
      <trkpt lat="46.82377" lon="-0.54044">
        <ele>181.41</ele>
        <time>2024-06-25T19:47:07.363Z</time>
      </trkpt>
      <trkpt lat="46.82382" lon="-0.54038">
        <ele>181.28</ele>
        <time>2024-06-25T19:47:21.315Z</time>
      </trkpt>
      <trkpt lat="46.82387" lon="-0.54031">
        <ele>181.15</ele>
        <time>2024-06-25T19:47:35.269Z</time>
      </trkpt>
      <trkpt lat="46.82392" lon="-0.54025">
        <ele>181.02</ele>
        <time>2024-06-25T19:47:49.224Z</time>
      </trkpt>
      <trkpt lat="46.82397" lon="-0.54018">
        <ele>180.9</ele>
        <time>2024-06-25T19:48:03.180Z</time>
      </trkpt>
      <trkpt lat="46.82402" lon="-0.54013">
        <ele>180.78</ele>
        <time>2024-06-25T19:48:17.138Z</time>
      </trkpt>
      <trkpt lat="46.82407" lon="-0.54007">
        <ele>180.67</ele>
        <time>2024-06-25T19:48:31.097Z</time>
      </trkpt>
      <trkpt lat="46.82412" lon="-0.54002">
        <ele>180.56</ele>
        <time>2024-06-25T19:48:45.057Z</time>
      </trkpt>
      <trkpt lat="46.82417" lon="-0.53997">
        <ele>180.46</ele>
        <time>2024-06-25T19:48:59.018Z</time>
      </trkpt>
      <trkpt lat="46.82421" lon="-0.53992">
        <ele>180.37</ele>
        <time>2024-06-25T19:49:12.981Z</time>
      </trkpt>
      <trkpt lat="46.82426" lon="-0.53987">
        <ele>180.28</ele>
        <time>2024-06-25T19:49:26.945Z</time>
      </trkpt>
      <trkpt lat="46.8243" lon="-0.53983">
        <ele>180.2</ele>
        <time>2024-06-25T19:49:40.910Z</time>
      </trkpt>
      <trkpt lat="46.82435" lon="-0.53977">
        <ele>180.12</ele>
        <time>2024-06-25T19:49:54.876Z</time>
      </trkpt>
      <trkpt lat="46.82439" lon="-0.53972">
        <ele>180.05</ele>
        <time>2024-06-25T19:50:08.843Z</time>
      </trkpt>
      <trkpt lat="46.82443" lon="-0.53968">
        <ele>179.97</ele>
        <time>2024-06-25T19:50:22.811Z</time>
      </trkpt>
      <trkpt lat="46.82448" lon="-0.53963">
        <ele>179.9</ele>
        <time>2024-06-25T19:50:36.780Z</time>
      </trkpt>
      <trkpt lat="46.82452" lon="-0.53958">
        <ele>179.83</ele>
        <time>2024-06-25T19:50:50.750Z</time>
      </trkpt>
      <trkpt lat="46.82457" lon="-0.53952">
        <ele>179.76</ele>
        <time>2024-06-25T19:51:04.722Z</time>
      </trkpt>
      <trkpt lat="46.82462" lon="-0.53946">
        <ele>179.7</ele>
        <time>2024-06-25T19:51:18.695Z</time>
      </trkpt>
      <trkpt lat="46.82467" lon="-0.5394">
        <ele>179.63</ele>
        <time>2024-06-25T19:51:32.669Z</time>
      </trkpt>
      <trkpt lat="46.82472" lon="-0.53934">
        <ele>179.56</ele>
        <time>2024-06-25T19:51:46.644Z</time>
      </trkpt>
      <trkpt lat="46.82476" lon="-0.53928">
        <ele>179.49</ele>
        <time>2024-06-25T19:52:00.620Z</time>
      </trkpt>
      <trkpt lat="46.8248" lon="-0.53922">
        <ele>179.42</ele>
        <time>2024-06-25T19:52:14.598Z</time>
      </trkpt>
      <trkpt lat="46.82484" lon="-0.53917">
        <ele>179.35</ele>
        <time>2024-06-25T19:52:28.577Z</time>
      </trkpt>
      <trkpt lat="46.82489" lon="-0.53911">
        <ele>179.28</ele>
        <time>2024-06-25T19:52:42.557Z</time>
      </trkpt>
      <trkpt lat="46.82493" lon="-0.53905">
        <ele>179.21</ele>
        <time>2024-06-25T19:52:56.538Z</time>
      </trkpt>
      <trkpt lat="46.82497" lon="-0.53899">
        <ele>179.14</ele>
        <time>2024-06-25T19:53:10.520Z</time>
      </trkpt>
      <trkpt lat="46.82502" lon="-0.53894">
        <ele>179.07</ele>
        <time>2024-06-25T19:53:24.504Z</time>
      </trkpt>
      <trkpt lat="46.82506" lon="-0.53891">
        <ele>179</ele>
        <time>2024-06-25T19:53:38.488Z</time>
      </trkpt>
      <trkpt lat="46.8251" lon="-0.53888">
        <ele>178.92</ele>
        <time>2024-06-25T19:53:52.473Z</time>
      </trkpt>
      <trkpt lat="46.82513" lon="-0.53883">
        <ele>178.85</ele>
        <time>2024-06-25T19:54:06.459Z</time>
      </trkpt>
      <trkpt lat="46.82516" lon="-0.53877">
        <ele>178.77</ele>
        <time>2024-06-25T19:54:20.446Z</time>
      </trkpt>
      <trkpt lat="46.82517" lon="-0.5387">
        <ele>178.68</ele>
        <time>2024-06-25T19:54:34.434Z</time>
      </trkpt>
      <trkpt lat="46.82518" lon="-0.53862">
        <ele>178.59</ele>
        <time>2024-06-25T19:54:48.423Z</time>
      </trkpt>
      <trkpt lat="46.8252" lon="-0.53854">
        <ele>178.51</ele>
        <time>2024-06-25T19:55:02.414Z</time>
      </trkpt>
      <trkpt lat="46.82521" lon="-0.53845">
        <ele>178.41</ele>
        <time>2024-06-25T19:55:16.406Z</time>
      </trkpt>
      <trkpt lat="46.82523" lon="-0.53836">
        <ele>178.32</ele>
        <time>2024-06-25T19:55:30.399Z</time>
      </trkpt>
      <trkpt lat="46.82525" lon="-0.53827">
        <ele>178.22</ele>
        <time>2024-06-25T19:55:44.393Z</time>
      </trkpt>
      <trkpt lat="46.82527" lon="-0.53818">
        <ele>178.12</ele>
        <time>2024-06-25T19:55:58.389Z</time>
      </trkpt>
      <trkpt lat="46.8253" lon="-0.53809">
        <ele>178.01</ele>
        <time>2024-06-25T19:56:12.386Z</time>
      </trkpt>
      <trkpt lat="46.82532" lon="-0.538">
        <ele>177.91</ele>
        <time>2024-06-25T19:56:26.384Z</time>
      </trkpt>
      <trkpt lat="46.82535" lon="-0.5379">
        <ele>177.81</ele>
        <time>2024-06-25T19:56:40.384Z</time>
      </trkpt>
      <trkpt lat="46.82537" lon="-0.5378">
        <ele>177.7</ele>
        <time>2024-06-25T19:56:54.385Z</time>
      </trkpt>
      <trkpt lat="46.8254" lon="-0.53769">
        <ele>177.58</ele>
        <time>2024-06-25T19:57:08.388Z</time>
      </trkpt>
      <trkpt lat="46.82543" lon="-0.53758">
        <ele>177.46</ele>
        <time>2024-06-25T19:57:22.392Z</time>
      </trkpt>
      <trkpt lat="46.82545" lon="-0.53748">
        <ele>177.33</ele>
        <time>2024-06-25T19:57:36.398Z</time>
      </trkpt>
      <trkpt lat="46.82548" lon="-0.53738">
        <ele>177.2</ele>
        <time>2024-06-25T19:57:50.405Z</time>
      </trkpt>
      <trkpt lat="46.82551" lon="-0.53728">
        <ele>177.07</ele>
        <time>2024-06-25T19:58:04.414Z</time>
      </trkpt>
      <trkpt lat="46.82553" lon="-0.53718">
        <ele>176.94</ele>
        <time>2024-06-25T19:58:18.424Z</time>
      </trkpt>
      <trkpt lat="46.82556" lon="-0.53707">
        <ele>176.8</ele>
        <time>2024-06-25T19:58:32.436Z</time>
      </trkpt>
      <trkpt lat="46.82558" lon="-0.53696">
        <ele>176.66</ele>
        <time>2024-06-25T19:58:46.450Z</time>
      </trkpt>
      <trkpt lat="46.82561" lon="-0.53685">
        <ele>176.51</ele>
        <time>2024-06-25T19:59:00.465Z</time>
      </trkpt>
      <trkpt lat="46.82564" lon="-0.53674">
        <ele>176.36</ele>
        <time>2024-06-25T19:59:14.482Z</time>
      </trkpt>
      <trkpt lat="46.82567" lon="-0.53663">
        <ele>176.2</ele>
        <time>2024-06-25T19:59:28.500Z</time>
      </trkpt>
      <trkpt lat="46.8257" lon="-0.53652">
        <ele>176.04</ele>
        <time>2024-06-25T19:59:42.520Z</time>
      </trkpt>
      <trkpt lat="46.82573" lon="-0.53642">
        <ele>175.88</ele>
        <time>2024-06-25T19:59:56.542Z</time>
      </trkpt>
      <trkpt lat="46.82576" lon="-0.53631">
        <ele>175.71</ele>
        <time>2024-06-25T20:00:10.565Z</time>
      </trkpt>
      <trkpt lat="46.82579" lon="-0.5362">
        <ele>175.52</ele>
        <time>2024-06-25T20:00:24.590Z</time>
      </trkpt>
      <trkpt lat="46.82583" lon="-0.53609">
        <ele>175.33</ele>
        <time>2024-06-25T20:00:38.616Z</time>
      </trkpt>
      <trkpt lat="46.82586" lon="-0.53599">
        <ele>175.15</ele>
        <time>2024-06-25T20:00:52.644Z</time>
      </trkpt>
      <trkpt lat="46.8259" lon="-0.53589">
        <ele>174.96</ele>
        <time>2024-06-25T20:01:06.674Z</time>
      </trkpt>
      <trkpt lat="46.82594" lon="-0.53579">
        <ele>174.76</ele>
        <time>2024-06-25T20:01:20.705Z</time>
      </trkpt>
      <trkpt lat="46.82598" lon="-0.53569">
        <ele>174.55</ele>
        <time>2024-06-25T20:01:34.738Z</time>
      </trkpt>
      <trkpt lat="46.82602" lon="-0.53559">
        <ele>174.34</ele>
        <time>2024-06-25T20:01:48.772Z</time>
      </trkpt>
      <trkpt lat="46.82606" lon="-0.5355">
        <ele>174.12</ele>
        <time>2024-06-25T20:02:02.808Z</time>
      </trkpt>
      <trkpt lat="46.8261" lon="-0.5354">
        <ele>173.9</ele>
        <time>2024-06-25T20:02:16.845Z</time>
      </trkpt>
      <trkpt lat="46.82615" lon="-0.53531">
        <ele>173.68</ele>
        <time>2024-06-25T20:02:30.884Z</time>
      </trkpt>
      <trkpt lat="46.8262" lon="-0.53522">
        <ele>173.46</ele>
        <time>2024-06-25T20:02:44.925Z</time>
      </trkpt>
      <trkpt lat="46.82624" lon="-0.53512">
        <ele>173.23</ele>
        <time>2024-06-25T20:02:58.967Z</time>
      </trkpt>
      <trkpt lat="46.82629" lon="-0.53502">
        <ele>173</ele>
        <time>2024-06-25T20:03:13.011Z</time>
      </trkpt>
      <trkpt lat="46.82633" lon="-0.53493">
        <ele>172.78</ele>
        <time>2024-06-25T20:03:27.056Z</time>
      </trkpt>
      <trkpt lat="46.82638" lon="-0.53483">
        <ele>172.55</ele>
        <time>2024-06-25T20:03:41.103Z</time>
      </trkpt>
      <trkpt lat="46.82642" lon="-0.53474">
        <ele>172.32</ele>
        <time>2024-06-25T20:03:55.152Z</time>
      </trkpt>
      <trkpt lat="46.82647" lon="-0.53465">
        <ele>172.09</ele>
        <time>2024-06-25T20:04:09.202Z</time>
      </trkpt>
      <trkpt lat="46.82652" lon="-0.53455">
        <ele>171.86</ele>
        <time>2024-06-25T20:04:23.254Z</time>
      </trkpt>
      <trkpt lat="46.82656" lon="-0.53446">
        <ele>171.63</ele>
        <time>2024-06-25T20:04:37.307Z</time>
      </trkpt>
      <trkpt lat="46.8266" lon="-0.53437">
        <ele>171.4</ele>
        <time>2024-06-25T20:04:51.362Z</time>
      </trkpt>
      <trkpt lat="46.82665" lon="-0.53427">
        <ele>171.17</ele>
        <time>2024-06-25T20:05:05.418Z</time>
      </trkpt>
      <trkpt lat="46.8267" lon="-0.53418">
        <ele>170.94</ele>
        <time>2024-06-25T20:05:19.476Z</time>
      </trkpt>
      <trkpt lat="46.82674" lon="-0.53409">
        <ele>170.71</ele>
        <time>2024-06-25T20:05:33.536Z</time>
      </trkpt>
      <trkpt lat="46.82679" lon="-0.53399">
        <ele>170.47</ele>
        <time>2024-06-25T20:05:47.597Z</time>
      </trkpt>
      <trkpt lat="46.82683" lon="-0.5339">
        <ele>170.22</ele>
        <time>2024-06-25T20:06:01.660Z</time>
      </trkpt>
      <trkpt lat="46.82688" lon="-0.53381">
        <ele>169.97</ele>
        <time>2024-06-25T20:06:15.724Z</time>
      </trkpt>
      <trkpt lat="46.82692" lon="-0.53372">
        <ele>169.72</ele>
        <time>2024-06-25T20:06:29.790Z</time>
      </trkpt>
      <trkpt lat="46.82696" lon="-0.53363">
        <ele>169.47</ele>
        <time>2024-06-25T20:06:43.857Z</time>
      </trkpt>
      <trkpt lat="46.82701" lon="-0.53353">
        <ele>169.22</ele>
        <time>2024-06-25T20:06:57.926Z</time>
      </trkpt>
      <trkpt lat="46.82705" lon="-0.53343">
        <ele>168.98</ele>
        <time>2024-06-25T20:07:11.997Z</time>
      </trkpt>
      <trkpt lat="46.8271" lon="-0.53334">
        <ele>168.73</ele>
        <time>2024-06-25T20:07:26.069Z</time>
      </trkpt>
      <trkpt lat="46.82715" lon="-0.53325">
        <ele>168.49</ele>
        <time>2024-06-25T20:07:40.143Z</time>
      </trkpt>
      <trkpt lat="46.8272" lon="-0.53316">
        <ele>168.25</ele>
        <time>2024-06-25T20:07:54.218Z</time>
      </trkpt>
      <trkpt lat="46.82724" lon="-0.53308">
        <ele>168.01</ele>
        <time>2024-06-25T20:08:08.295Z</time>
      </trkpt>
      <trkpt lat="46.8273" lon="-0.53301">
        <ele>167.77</ele>
        <time>2024-06-25T20:08:22.373Z</time>
      </trkpt>
      <trkpt lat="46.82735" lon="-0.53294">
        <ele>167.54</ele>
        <time>2024-06-25T20:08:36.453Z</time>
      </trkpt>
      <trkpt lat="46.82741" lon="-0.53287">
        <ele>167.31</ele>
        <time>2024-06-25T20:08:50.534Z</time>
      </trkpt>
      <trkpt lat="46.82748" lon="-0.5328">
        <ele>167.08</ele>
        <time>2024-06-25T20:09:04.617Z</time>
      </trkpt>
      <trkpt lat="46.82754" lon="-0.53273">
        <ele>166.85</ele>
        <time>2024-06-25T20:09:18.701Z</time>
      </trkpt>
      <trkpt lat="46.8276" lon="-0.53267">
        <ele>166.63</ele>
        <time>2024-06-25T20:09:32.787Z</time>
      </trkpt>
      <trkpt lat="46.82766" lon="-0.5326">
        <ele>166.4</ele>
        <time>2024-06-25T20:09:46.874Z</time>
      </trkpt>
      <trkpt lat="46.82772" lon="-0.53252">
        <ele>166.17</ele>
        <time>2024-06-25T20:10:00.963Z</time>
      </trkpt>
      <trkpt lat="46.82778" lon="-0.53245">
        <ele>165.95</ele>
        <time>2024-06-25T20:10:15.054Z</time>
      </trkpt>
      <trkpt lat="46.82783" lon="-0.53236">
        <ele>165.73</ele>
        <time>2024-06-25T20:10:29.146Z</time>
      </trkpt>
      <trkpt lat="46.82789" lon="-0.53227">
        <ele>165.52</ele>
        <time>2024-06-25T20:10:43.240Z</time>
      </trkpt>
      <trkpt lat="46.82795" lon="-0.53218">
        <ele>165.31</ele>
        <time>2024-06-25T20:10:57.335Z</time>
      </trkpt>
      <trkpt lat="46.82801" lon="-0.53209">
        <ele>165.1</ele>
        <time>2024-06-25T20:11:11.432Z</time>
      </trkpt>
      <trkpt lat="46.82807" lon="-0.532">
        <ele>164.9</ele>
        <time>2024-06-25T20:11:25.531Z</time>
      </trkpt>
      <trkpt lat="46.82812" lon="-0.5319">
        <ele>164.69</ele>
        <time>2024-06-25T20:11:39.632Z</time>
      </trkpt>
      <trkpt lat="46.82818" lon="-0.53181">
        <ele>164.5</ele>
        <time>2024-06-25T20:11:53.734Z</time>
      </trkpt>
      <trkpt lat="46.82824" lon="-0.53172">
        <ele>164.32</ele>
        <time>2024-06-25T20:12:07.838Z</time>
      </trkpt>
      <trkpt lat="46.8283" lon="-0.53163">
        <ele>164.15</ele>
        <time>2024-06-25T20:12:21.944Z</time>
      </trkpt>
      <trkpt lat="46.82836" lon="-0.53155">
        <ele>163.99</ele>
        <time>2024-06-25T20:12:36.051Z</time>
      </trkpt>
      <trkpt lat="46.82842" lon="-0.53146">
        <ele>163.85</ele>
        <time>2024-06-25T20:12:50.160Z</time>
      </trkpt>
      <trkpt lat="46.82847" lon="-0.53137">
        <ele>163.71</ele>
        <time>2024-06-25T20:13:04.271Z</time>
      </trkpt>
      <trkpt lat="46.82853" lon="-0.53128">
        <ele>163.58</ele>
        <time>2024-06-25T20:13:18.383Z</time>
      </trkpt>
      <trkpt lat="46.82858" lon="-0.53119">
        <ele>163.46</ele>
        <time>2024-06-25T20:13:32.497Z</time>
      </trkpt>
      <trkpt lat="46.82863" lon="-0.53111">
        <ele>163.34</ele>
        <time>2024-06-25T20:13:46.613Z</time>
      </trkpt>
      <trkpt lat="46.82869" lon="-0.53101">
        <ele>163.22</ele>
        <time>2024-06-25T20:14:00.730Z</time>
      </trkpt>
      <trkpt lat="46.82875" lon="-0.53093">
        <ele>163.12</ele>
        <time>2024-06-25T20:14:14.849Z</time>
      </trkpt>
      <trkpt lat="46.82881" lon="-0.53084">
        <ele>163.02</ele>
        <time>2024-06-25T20:14:28.970Z</time>
      </trkpt>
      <trkpt lat="46.82886" lon="-0.53076">
        <ele>162.93</ele>
        <time>2024-06-25T20:14:43.092Z</time>
      </trkpt>
      <trkpt lat="46.82891" lon="-0.53069">
        <ele>162.85</ele>
        <time>2024-06-25T20:14:57.216Z</time>
      </trkpt>
      <trkpt lat="46.82897" lon="-0.53061">
        <ele>162.77</ele>
        <time>2024-06-25T20:15:11.341Z</time>
      </trkpt>
      <trkpt lat="46.82901" lon="-0.53054">
        <ele>162.71</ele>
        <time>2024-06-25T20:15:25.467Z</time>
      </trkpt>
      <trkpt lat="46.82906" lon="-0.53047">
        <ele>162.65</ele>
        <time>2024-06-25T20:15:39.595Z</time>
      </trkpt>
      <trkpt lat="46.8291" lon="-0.53041">
        <ele>162.59</ele>
        <time>2024-06-25T20:15:53.724Z</time>
      </trkpt>
      <trkpt lat="46.82914" lon="-0.53036">
        <ele>162.54</ele>
        <time>2024-06-25T20:16:07.854Z</time>
      </trkpt>
      <trkpt lat="46.82918" lon="-0.53031">
        <ele>162.5</ele>
        <time>2024-06-25T20:16:21.985Z</time>
      </trkpt>
      <trkpt lat="46.82921" lon="-0.53025">
        <ele>162.46</ele>
        <time>2024-06-25T20:16:36.117Z</time>
      </trkpt>
      <trkpt lat="46.82924" lon="-0.53019">
        <ele>162.43</ele>
        <time>2024-06-25T20:16:50.250Z</time>
      </trkpt>
      <trkpt lat="46.82927" lon="-0.53014">
        <ele>162.4</ele>
        <time>2024-06-25T20:17:04.384Z</time>
      </trkpt>
      <trkpt lat="46.8293" lon="-0.53008">
        <ele>162.38</ele>
        <time>2024-06-25T20:17:18.519Z</time>
      </trkpt>
      <trkpt lat="46.82933" lon="-0.53003">
        <ele>162.37</ele>
        <time>2024-06-25T20:17:32.655Z</time>
      </trkpt>
      <trkpt lat="46.82935" lon="-0.52998">
        <ele>162.36</ele>
        <time>2024-06-25T20:17:46.792Z</time>
      </trkpt>
      <trkpt lat="46.82938" lon="-0.52992">
        <ele>162.36</ele>
        <time>2024-06-25T20:18:00.930Z</time>
      </trkpt>
      <trkpt lat="46.8294" lon="-0.52986">
        <ele>162.36</ele>
        <time>2024-06-25T20:18:15.069Z</time>
      </trkpt>
      <trkpt lat="46.82942" lon="-0.5298">
        <ele>162.37</ele>
        <time>2024-06-25T20:18:29.209Z</time>
      </trkpt>
      <trkpt lat="46.82944" lon="-0.52974">
        <ele>162.38</ele>
        <time>2024-06-25T20:18:43.350Z</time>
      </trkpt>
      <trkpt lat="46.82945" lon="-0.52967">
        <ele>162.39</ele>
        <time>2024-06-25T20:18:57.491Z</time>
      </trkpt>
      <trkpt lat="46.82946" lon="-0.52961">
        <ele>162.42</ele>
        <time>2024-06-25T20:19:11.633Z</time>
      </trkpt>
      <trkpt lat="46.82947" lon="-0.52956">
        <ele>162.45</ele>
        <time>2024-06-25T20:19:25.776Z</time>
      </trkpt>
      <trkpt lat="46.82947" lon="-0.52949">
        <ele>162.48</ele>
        <time>2024-06-25T20:19:39.920Z</time>
      </trkpt>
      <trkpt lat="46.82947" lon="-0.52943">
        <ele>162.51</ele>
        <time>2024-06-25T20:19:54.065Z</time>
      </trkpt>
      <trkpt lat="46.82947" lon="-0.52937">
        <ele>162.55</ele>
        <time>2024-06-25T20:20:08.211Z</time>
      </trkpt>
      <trkpt lat="46.82947" lon="-0.52931">
        <ele>162.59</ele>
        <time>2024-06-25T20:20:22.358Z</time>
      </trkpt>
      <trkpt lat="46.82947" lon="-0.52925">
        <ele>162.64</ele>
        <time>2024-06-25T20:20:36.505Z</time>
      </trkpt>
      <trkpt lat="46.82947" lon="-0.52919">
        <ele>162.69</ele>
        <time>2024-06-25T20:20:50.653Z</time>
      </trkpt>
      <trkpt lat="46.82946" lon="-0.52913">
        <ele>162.74</ele>
        <time>2024-06-25T20:21:04.802Z</time>
      </trkpt>
      <trkpt lat="46.82946" lon="-0.52906">
        <ele>162.79</ele>
        <time>2024-06-25T20:21:18.952Z</time>
      </trkpt>
      <trkpt lat="46.82945" lon="-0.52901">
        <ele>162.84</ele>
        <time>2024-06-25T20:21:33.103Z</time>
      </trkpt>
      <trkpt lat="46.82943" lon="-0.52895">
        <ele>162.9</ele>
        <time>2024-06-25T20:21:47.255Z</time>
      </trkpt>
      <trkpt lat="46.82942" lon="-0.52888">
        <ele>162.96</ele>
        <time>2024-06-25T20:22:01.407Z</time>
      </trkpt>
      <trkpt lat="46.82941" lon="-0.52882">
        <ele>163.03</ele>
        <time>2024-06-25T20:22:15.560Z</time>
      </trkpt>
      <trkpt lat="46.8294" lon="-0.52876">
        <ele>163.1</ele>
        <time>2024-06-25T20:22:29.714Z</time>
      </trkpt>
      <trkpt lat="46.82938" lon="-0.5287">
        <ele>163.16</ele>
        <time>2024-06-25T20:22:43.869Z</time>
      </trkpt>
      <trkpt lat="46.82937" lon="-0.52862">
        <ele>163.23</ele>
        <time>2024-06-25T20:22:58.025Z</time>
      </trkpt>
      <trkpt lat="46.82936" lon="-0.52856">
        <ele>163.3</ele>
        <time>2024-06-25T20:23:12.182Z</time>
      </trkpt>
      <trkpt lat="46.82935" lon="-0.52849">
        <ele>163.38</ele>
        <time>2024-06-25T20:23:26.340Z</time>
      </trkpt>
      <trkpt lat="46.82933" lon="-0.52842">
        <ele>163.45</ele>
        <time>2024-06-25T20:23:40.499Z</time>
      </trkpt>
      <trkpt lat="46.82931" lon="-0.52836">
        <ele>163.52</ele>
        <time>2024-06-25T20:23:54.659Z</time>
      </trkpt>
      <trkpt lat="46.8293" lon="-0.52829">
        <ele>163.59</ele>
        <time>2024-06-25T20:24:08.820Z</time>
      </trkpt>
      <trkpt lat="46.82928" lon="-0.52822">
        <ele>163.66</ele>
        <time>2024-06-25T20:24:22.982Z</time>
      </trkpt>
      <trkpt lat="46.82926" lon="-0.52814">
        <ele>163.72</ele>
        <time>2024-06-25T20:24:37.145Z</time>
      </trkpt>
      <trkpt lat="46.82924" lon="-0.52806">
        <ele>163.79</ele>
        <time>2024-06-25T20:24:51.309Z</time>
      </trkpt>
      <trkpt lat="46.82923" lon="-0.52799">
        <ele>163.86</ele>
        <time>2024-06-25T20:25:05.474Z</time>
      </trkpt>
      <trkpt lat="46.82922" lon="-0.52791">
        <ele>163.93</ele>
        <time>2024-06-25T20:25:19.640Z</time>
      </trkpt>
      <trkpt lat="46.82921" lon="-0.52783">
        <ele>163.99</ele>
        <time>2024-06-25T20:25:33.808Z</time>
      </trkpt>
      <trkpt lat="46.82921" lon="-0.52776">
        <ele>164.06</ele>
        <time>2024-06-25T20:25:47.977Z</time>
      </trkpt>
      <trkpt lat="46.82922" lon="-0.52768">
        <ele>164.12</ele>
        <time>2024-06-25T20:26:02.147Z</time>
      </trkpt>
      <trkpt lat="46.82922" lon="-0.5276">
        <ele>164.18</ele>
        <time>2024-06-25T20:26:16.318Z</time>
      </trkpt>
      <trkpt lat="46.82923" lon="-0.52753">
        <ele>164.23</ele>
        <time>2024-06-25T20:26:30.490Z</time>
      </trkpt>
      <trkpt lat="46.82924" lon="-0.52745">
        <ele>164.28</ele>
        <time>2024-06-25T20:26:44.663Z</time>
      </trkpt>
      <trkpt lat="46.82925" lon="-0.52738">
        <ele>164.33</ele>
        <time>2024-06-25T20:26:58.837Z</time>
      </trkpt>
      <trkpt lat="46.82926" lon="-0.52731">
        <ele>164.38</ele>
        <time>2024-06-25T20:27:13.012Z</time>
      </trkpt>
      <trkpt lat="46.82928" lon="-0.52724">
        <ele>164.42</ele>
        <time>2024-06-25T20:27:27.188Z</time>
      </trkpt>
      <trkpt lat="46.8293" lon="-0.52717">
        <ele>164.45</ele>
        <time>2024-06-25T20:27:41.365Z</time>
      </trkpt>
      <trkpt lat="46.82931" lon="-0.52709">
        <ele>164.47</ele>
        <time>2024-06-25T20:27:55.543Z</time>
      </trkpt>
      <trkpt lat="46.82933" lon="-0.52702">
        <ele>164.5</ele>
        <time>2024-06-25T20:28:09.722Z</time>
      </trkpt>
      <trkpt lat="46.82934" lon="-0.52695">
        <ele>164.51</ele>
        <time>2024-06-25T20:28:23.902Z</time>
      </trkpt>
      <trkpt lat="46.82933" lon="-0.52687">
        <ele>164.53</ele>
        <time>2024-06-25T20:28:38.083Z</time>
      </trkpt>
      <trkpt lat="46.82932" lon="-0.52679">
        <ele>164.53</ele>
        <time>2024-06-25T20:28:52.265Z</time>
      </trkpt>
      <trkpt lat="46.82929" lon="-0.52673">
        <ele>164.53</ele>
        <time>2024-06-25T20:29:06.448Z</time>
      </trkpt>
      <trkpt lat="46.82925" lon="-0.52666">
        <ele>164.53</ele>
        <time>2024-06-25T20:29:20.632Z</time>
      </trkpt>
      <trkpt lat="46.82921" lon="-0.52659">
        <ele>164.52</ele>
        <time>2024-06-25T20:29:34.818Z</time>
      </trkpt>
      <trkpt lat="46.82918" lon="-0.52652">
        <ele>164.51</ele>
        <time>2024-06-25T20:29:49.005Z</time>
      </trkpt>
      <trkpt lat="46.82914" lon="-0.52645">
        <ele>164.49</ele>
        <time>2024-06-25T20:30:03.193Z</time>
      </trkpt>
      <trkpt lat="46.8291" lon="-0.52638">
        <ele>164.48</ele>
        <time>2024-06-25T20:30:17.382Z</time>
      </trkpt>
      <trkpt lat="46.82907" lon="-0.52631">
        <ele>164.46</ele>
        <time>2024-06-25T20:30:31.573Z</time>
      </trkpt>
      <trkpt lat="46.82903" lon="-0.52624">
        <ele>164.43</ele>
        <time>2024-06-25T20:30:45.765Z</time>
      </trkpt>
      <trkpt lat="46.829" lon="-0.52617">
        <ele>164.4</ele>
        <time>2024-06-25T20:30:59.958Z</time>
      </trkpt>
      <trkpt lat="46.82896" lon="-0.5261">
        <ele>164.37</ele>
        <time>2024-06-25T20:31:14.152Z</time>
      </trkpt>
      <trkpt lat="46.82893" lon="-0.52604">
        <ele>164.34</ele>
        <time>2024-06-25T20:31:28.347Z</time>
      </trkpt>
      <trkpt lat="46.82889" lon="-0.52597">
        <ele>164.3</ele>
        <time>2024-06-25T20:31:42.543Z</time>
      </trkpt>
      <trkpt lat="46.82886" lon="-0.52591">
        <ele>164.27</ele>
        <time>2024-06-25T20:31:56.740Z</time>
      </trkpt>
      <trkpt lat="46.82881" lon="-0.52585">
        <ele>164.24</ele>
        <time>2024-06-25T20:32:10.939Z</time>
      </trkpt>
      <trkpt lat="46.82877" lon="-0.52579">
        <ele>164.2</ele>
        <time>2024-06-25T20:32:25.139Z</time>
      </trkpt>
      <trkpt lat="46.82872" lon="-0.52573">
        <ele>164.16</ele>
        <time>2024-06-25T20:32:39.340Z</time>
      </trkpt>
      <trkpt lat="46.82867" lon="-0.52566">
        <ele>164.11</ele>
        <time>2024-06-25T20:32:53.543Z</time>
      </trkpt>
      <trkpt lat="46.82861" lon="-0.5256">
        <ele>164.06</ele>
        <time>2024-06-25T20:33:07.747Z</time>
      </trkpt>
      <trkpt lat="46.82857" lon="-0.52554">
        <ele>164.01</ele>
        <time>2024-06-25T20:33:21.952Z</time>
      </trkpt>
      <trkpt lat="46.82852" lon="-0.52549">
        <ele>163.97</ele>
        <time>2024-06-25T20:33:36.158Z</time>
      </trkpt>
      <trkpt lat="46.82848" lon="-0.52544">
        <ele>163.93</ele>
        <time>2024-06-25T20:33:50.365Z</time>
      </trkpt>
      <trkpt lat="46.82844" lon="-0.52538">
        <ele>163.88</ele>
        <time>2024-06-25T20:34:04.574Z</time>
      </trkpt>
      <trkpt lat="46.82839" lon="-0.52532">
        <ele>163.84</ele>
        <time>2024-06-25T20:34:18.784Z</time>
      </trkpt>
      <trkpt lat="46.82835" lon="-0.52526">
        <ele>163.8</ele>
        <time>2024-06-25T20:34:32.995Z</time>
      </trkpt>
      <trkpt lat="46.82831" lon="-0.52519">
        <ele>163.76</ele>
        <time>2024-06-25T20:34:47.207Z</time>
      </trkpt>
      <trkpt lat="46.82827" lon="-0.52513">
        <ele>163.72</ele>
        <time>2024-06-25T20:35:01.420Z</time>
      </trkpt>
      <trkpt lat="46.82823" lon="-0.52506">
        <ele>163.69</ele>
        <time>2024-06-25T20:35:15.635Z</time>
      </trkpt>
      <trkpt lat="46.82817" lon="-0.52498">
        <ele>163.65</ele>
        <time>2024-06-25T20:35:29.851Z</time>
      </trkpt>
      <trkpt lat="46.82813" lon="-0.52491">
        <ele>163.63</ele>
        <time>2024-06-25T20:35:44.069Z</time>
      </trkpt>
      <trkpt lat="46.82808" lon="-0.52484">
        <ele>163.61</ele>
        <time>2024-06-25T20:35:58.288Z</time>
      </trkpt>
      <trkpt lat="46.82804" lon="-0.52477">
        <ele>163.59</ele>
        <time>2024-06-25T20:36:12.508Z</time>
      </trkpt>
      <trkpt lat="46.82799" lon="-0.5247">
        <ele>163.58</ele>
        <time>2024-06-25T20:36:26.729Z</time>
      </trkpt>
      <trkpt lat="46.82795" lon="-0.52463">
        <ele>163.57</ele>
        <time>2024-06-25T20:36:40.952Z</time>
      </trkpt>
      <trkpt lat="46.82791" lon="-0.52456">
        <ele>163.57</ele>
        <time>2024-06-25T20:36:55.176Z</time>
      </trkpt>
      <trkpt lat="46.82786" lon="-0.52449">
        <ele>163.57</ele>
        <time>2024-06-25T20:37:09.401Z</time>
      </trkpt>
      <trkpt lat="46.82782" lon="-0.52442">
        <ele>163.57</ele>
        <time>2024-06-25T20:37:23.628Z</time>
      </trkpt>
      <trkpt lat="46.82777" lon="-0.52435">
        <ele>163.58</ele>
        <time>2024-06-25T20:37:37.856Z</time>
      </trkpt>
      <trkpt lat="46.82773" lon="-0.52429">
        <ele>163.6</ele>
        <time>2024-06-25T20:37:52.085Z</time>
      </trkpt>
      <trkpt lat="46.82768" lon="-0.52424">
        <ele>163.62</ele>
        <time>2024-06-25T20:38:06.315Z</time>
      </trkpt>
      <trkpt lat="46.82762" lon="-0.52418">
        <ele>163.65</ele>
        <time>2024-06-25T20:38:20.547Z</time>
      </trkpt>
      <trkpt lat="46.82757" lon="-0.52413">
        <ele>163.68</ele>
        <time>2024-06-25T20:38:34.780Z</time>
      </trkpt>
      <trkpt lat="46.82752" lon="-0.52408">
        <ele>163.72</ele>
        <time>2024-06-25T20:38:49.014Z</time>
      </trkpt>
      <trkpt lat="46.82746" lon="-0.52403">
        <ele>163.77</ele>
        <time>2024-06-25T20:39:03.250Z</time>
      </trkpt>
      <trkpt lat="46.82741" lon="-0.52399">
        <ele>163.83</ele>
        <time>2024-06-25T20:39:17.487Z</time>
      </trkpt>
      <trkpt lat="46.82735" lon="-0.52396">
        <ele>163.9</ele>
        <time>2024-06-25T20:39:31.725Z</time>
      </trkpt>
      <trkpt lat="46.8273" lon="-0.52392">
        <ele>163.97</ele>
        <time>2024-06-25T20:39:45.964Z</time>
      </trkpt>
      <trkpt lat="46.82725" lon="-0.52388">
        <ele>164.07</ele>
        <time>2024-06-25T20:40:00.204Z</time>
      </trkpt>
      <trkpt lat="46.82721" lon="-0.52384">
        <ele>164.17</ele>
        <time>2024-06-25T20:40:14.445Z</time>
      </trkpt>
      <trkpt lat="46.82716" lon="-0.52379">
        <ele>164.27</ele>
        <time>2024-06-25T20:40:28.687Z</time>
      </trkpt>
      <trkpt lat="46.82712" lon="-0.52375">
        <ele>164.39</ele>
        <time>2024-06-25T20:40:42.930Z</time>
      </trkpt>
      <trkpt lat="46.82708" lon="-0.5237">
        <ele>164.51</ele>
        <time>2024-06-25T20:40:57.175Z</time>
      </trkpt>
      <trkpt lat="46.82704" lon="-0.52365">
        <ele>164.63</ele>
        <time>2024-06-25T20:41:11.421Z</time>
      </trkpt>
      <trkpt lat="46.82701" lon="-0.5236">
        <ele>164.76</ele>
        <time>2024-06-25T20:41:25.668Z</time>
      </trkpt>
      <trkpt lat="46.82698" lon="-0.52355">
        <ele>164.9</ele>
        <time>2024-06-25T20:41:39.915Z</time>
      </trkpt>
      <trkpt lat="46.82694" lon="-0.52351">
        <ele>165.04</ele>
        <time>2024-06-25T20:41:54.163Z</time>
      </trkpt>
      <trkpt lat="46.82692" lon="-0.52346">
        <ele>165.19</ele>
        <time>2024-06-25T20:42:08.412Z</time>
      </trkpt>
      <trkpt lat="46.82689" lon="-0.52342">
        <ele>165.33</ele>
        <time>2024-06-25T20:42:22.662Z</time>
      </trkpt>
      <trkpt lat="46.82687" lon="-0.52339">
        <ele>165.48</ele>
        <time>2024-06-25T20:42:36.913Z</time>
      </trkpt>
      <trkpt lat="46.82685" lon="-0.52335">
        <ele>165.62</ele>
        <time>2024-06-25T20:42:51.164Z</time>
      </trkpt>
      <trkpt lat="46.82683" lon="-0.52332">
        <ele>165.77</ele>
        <time>2024-06-25T20:43:05.416Z</time>
      </trkpt>
      <trkpt lat="46.82682" lon="-0.52329">
        <ele>165.93</ele>
        <time>2024-06-25T20:43:19.668Z</time>
      </trkpt>
      <trkpt lat="46.8268" lon="-0.52326">
        <ele>166.08</ele>
        <time>2024-06-25T20:43:33.921Z</time>
      </trkpt>
      <trkpt lat="46.82678" lon="-0.52324">
        <ele>166.24</ele>
        <time>2024-06-25T20:43:48.174Z</time>
      </trkpt>
      <trkpt lat="46.82677" lon="-0.52321">
        <ele>166.39</ele>
        <time>2024-06-25T20:44:02.428Z</time>
      </trkpt>
      <trkpt lat="46.82675" lon="-0.52318">
        <ele>166.55</ele>
        <time>2024-06-25T20:44:16.682Z</time>
      </trkpt>
      <trkpt lat="46.82673" lon="-0.52316">
        <ele>166.71</ele>
        <time>2024-06-25T20:44:30.937Z</time>
      </trkpt>
      <trkpt lat="46.82672" lon="-0.52313">
        <ele>166.87</ele>
        <time>2024-06-25T20:44:45.192Z</time>
      </trkpt>
      <trkpt lat="46.82671" lon="-0.52311">
        <ele>167.03</ele>
        <time>2024-06-25T20:44:59.448Z</time>
      </trkpt>
      <trkpt lat="46.82669" lon="-0.52308">
        <ele>167.19</ele>
        <time>2024-06-25T20:45:13.704Z</time>
      </trkpt>
      <trkpt lat="46.82667" lon="-0.52305">
        <ele>167.35</ele>
        <time>2024-06-25T20:45:27.961Z</time>
      </trkpt>
      <trkpt lat="46.82666" lon="-0.52302">
        <ele>167.51</ele>
        <time>2024-06-25T20:45:42.218Z</time>
      </trkpt>
      <trkpt lat="46.82665" lon="-0.52299">
        <ele>167.67</ele>
        <time>2024-06-25T20:45:56.476Z</time>
      </trkpt>
      <trkpt lat="46.82664" lon="-0.52296">
        <ele>167.82</ele>
        <time>2024-06-25T20:46:10.734Z</time>
      </trkpt>
      <trkpt lat="46.82662" lon="-0.52293">
        <ele>167.98</ele>
        <time>2024-06-25T20:46:24.993Z</time>
      </trkpt>
      <trkpt lat="46.82661" lon="-0.52289">
        <ele>168.14</ele>
        <time>2024-06-25T20:46:39.252Z</time>
      </trkpt>
      <trkpt lat="46.8266" lon="-0.52285">
        <ele>168.3</ele>
        <time>2024-06-25T20:46:53.512Z</time>
      </trkpt>
      <trkpt lat="46.82658" lon="-0.52282">
        <ele>168.45</ele>
        <time>2024-06-25T20:47:07.772Z</time>
      </trkpt>
      <trkpt lat="46.82657" lon="-0.52277">
        <ele>168.6</ele>
        <time>2024-06-25T20:47:22.033Z</time>
      </trkpt>
      <trkpt lat="46.82655" lon="-0.52274">
        <ele>168.75</ele>
        <time>2024-06-25T20:47:36.295Z</time>
      </trkpt>
      <trkpt lat="46.82654" lon="-0.5227">
        <ele>168.89</ele>
        <time>2024-06-25T20:47:50.557Z</time>
      </trkpt>
      <trkpt lat="46.82653" lon="-0.52265">
        <ele>169.03</ele>
        <time>2024-06-25T20:48:04.820Z</time>
      </trkpt>
      <trkpt lat="46.82653" lon="-0.5226">
        <ele>169.17</ele>
        <time>2024-06-25T20:48:19.084Z</time>
      </trkpt>
      <trkpt lat="46.82653" lon="-0.52255">
        <ele>169.3</ele>
        <time>2024-06-25T20:48:33.348Z</time>
      </trkpt>
      <trkpt lat="46.82653" lon="-0.5225">
        <ele>169.43</ele>
        <time>2024-06-25T20:48:47.613Z</time>
      </trkpt>
      <trkpt lat="46.82653" lon="-0.52244">
        <ele>169.56</ele>
        <time>2024-06-25T20:49:01.879Z</time>
      </trkpt>
      <trkpt lat="46.82654" lon="-0.52239">
        <ele>169.68</ele>
        <time>2024-06-25T20:49:16.145Z</time>
      </trkpt>
      <trkpt lat="46.82655" lon="-0.52234">
        <ele>169.79</ele>
        <time>2024-06-25T20:49:30.412Z</time>
      </trkpt>
      <trkpt lat="46.82657" lon="-0.52229">
        <ele>169.9</ele>
        <time>2024-06-25T20:49:44.680Z</time>
      </trkpt>
      <trkpt lat="46.82658" lon="-0.52224">
        <ele>170.01</ele>
        <time>2024-06-25T20:49:58.949Z</time>
      </trkpt>
      <trkpt lat="46.82661" lon="-0.5222">
        <ele>170.12</ele>
        <time>2024-06-25T20:50:13.218Z</time>
      </trkpt>
      <trkpt lat="46.82663" lon="-0.52216">
        <ele>170.22</ele>
        <time>2024-06-25T20:50:27.488Z</time>
      </trkpt>
      <trkpt lat="46.82665" lon="-0.52212">
        <ele>170.31</ele>
        <time>2024-06-25T20:50:41.759Z</time>
      </trkpt>
      <trkpt lat="46.82667" lon="-0.52208">
        <ele>170.4</ele>
        <time>2024-06-25T20:50:56.031Z</time>
      </trkpt>
      <trkpt lat="46.8267" lon="-0.52204">
        <ele>170.48</ele>
        <time>2024-06-25T20:51:10.303Z</time>
      </trkpt>
      <trkpt lat="46.82673" lon="-0.52199">
        <ele>170.55</ele>
        <time>2024-06-25T20:51:24.576Z</time>
      </trkpt>
      <trkpt lat="46.82676" lon="-0.52194">
        <ele>170.62</ele>
        <time>2024-06-25T20:51:38.850Z</time>
      </trkpt>
      <trkpt lat="46.8268" lon="-0.52189">
        <ele>170.67</ele>
        <time>2024-06-25T20:51:53.125Z</time>
      </trkpt>
      <trkpt lat="46.82683" lon="-0.52184">
        <ele>170.71</ele>
        <time>2024-06-25T20:52:07.401Z</time>
      </trkpt>
      <trkpt lat="46.82686" lon="-0.52179">
        <ele>170.74</ele>
        <time>2024-06-25T20:52:21.678Z</time>
      </trkpt>
      <trkpt lat="46.8269" lon="-0.52175">
        <ele>170.77</ele>
        <time>2024-06-25T20:52:35.956Z</time>
      </trkpt>
      <trkpt lat="46.82694" lon="-0.5217">
        <ele>170.79</ele>
        <time>2024-06-25T20:52:50.235Z</time>
      </trkpt>
      <trkpt lat="46.82698" lon="-0.52165">
        <ele>170.8</ele>
        <time>2024-06-25T20:53:04.515Z</time>
      </trkpt>
      <trkpt lat="46.82702" lon="-0.52159">
        <ele>170.79</ele>
        <time>2024-06-25T20:53:18.796Z</time>
      </trkpt>
      <trkpt lat="46.82707" lon="-0.52153">
        <ele>170.78</ele>
        <time>2024-06-25T20:53:33.079Z</time>
      </trkpt>
      <trkpt lat="46.82711" lon="-0.52147">
        <ele>170.77</ele>
        <time>2024-06-25T20:53:47.363Z</time>
      </trkpt>
      <trkpt lat="46.82716" lon="-0.52141">
        <ele>170.74</ele>
        <time>2024-06-25T20:54:01.648Z</time>
      </trkpt>
      <trkpt lat="46.8272" lon="-0.52136">
        <ele>170.7</ele>
        <time>2024-06-25T20:54:15.934Z</time>
      </trkpt>
      <trkpt lat="46.82725" lon="-0.5213">
        <ele>170.66</ele>
        <time>2024-06-25T20:54:30.221Z</time>
      </trkpt>
      <trkpt lat="46.82729" lon="-0.52125">
        <ele>170.61</ele>
        <time>2024-06-25T20:54:44.509Z</time>
      </trkpt>
      <trkpt lat="46.82734" lon="-0.52119">
        <ele>170.54</ele>
        <time>2024-06-25T20:54:58.799Z</time>
      </trkpt>
      <trkpt lat="46.82739" lon="-0.52113">
        <ele>170.47</ele>
        <time>2024-06-25T20:55:13.090Z</time>
      </trkpt>
      <trkpt lat="46.82743" lon="-0.52107">
        <ele>170.39</ele>
        <time>2024-06-25T20:55:27.382Z</time>
      </trkpt>
      <trkpt lat="46.82747" lon="-0.52101">
        <ele>170.3</ele>
        <time>2024-06-25T20:55:41.675Z</time>
      </trkpt>
      <trkpt lat="46.8275" lon="-0.52095">
        <ele>170.2</ele>
        <time>2024-06-25T20:55:55.969Z</time>
      </trkpt>
      <trkpt lat="46.82754" lon="-0.5209">
        <ele>170.1</ele>
        <time>2024-06-25T20:56:10.264Z</time>
      </trkpt>
      <trkpt lat="46.82758" lon="-0.52084">
        <ele>169.98</ele>
        <time>2024-06-25T20:56:24.561Z</time>
      </trkpt>
      <trkpt lat="46.82762" lon="-0.52078">
        <ele>169.85</ele>
        <time>2024-06-25T20:56:38.859Z</time>
      </trkpt>
      <trkpt lat="46.82766" lon="-0.52073">
        <ele>169.7</ele>
        <time>2024-06-25T20:56:53.158Z</time>
      </trkpt>
      <trkpt lat="46.8277" lon="-0.52068">
        <ele>169.55</ele>
        <time>2024-06-25T20:57:07.458Z</time>
      </trkpt>
      <trkpt lat="46.82774" lon="-0.52062">
        <ele>169.39</ele>
        <time>2024-06-25T20:57:21.759Z</time>
      </trkpt>
      <trkpt lat="46.82778" lon="-0.52056">
        <ele>169.22</ele>
        <time>2024-06-25T20:57:36.061Z</time>
      </trkpt>
      <trkpt lat="46.82783" lon="-0.5205">
        <ele>169.04</ele>
        <time>2024-06-25T20:57:50.364Z</time>
      </trkpt>
      <trkpt lat="46.82787" lon="-0.52045">
        <ele>168.85</ele>
        <time>2024-06-25T20:58:04.668Z</time>
      </trkpt>
      <trkpt lat="46.82791" lon="-0.52038">
        <ele>168.65</ele>
        <time>2024-06-25T20:58:18.974Z</time>
      </trkpt>
      <trkpt lat="46.82795" lon="-0.52032">
        <ele>168.44</ele>
        <time>2024-06-25T20:58:33.281Z</time>
      </trkpt>
      <trkpt lat="46.82799" lon="-0.52027">
        <ele>168.22</ele>
        <time>2024-06-25T20:58:47.589Z</time>
      </trkpt>
      <trkpt lat="46.82802" lon="-0.52021">
        <ele>167.99</ele>
        <time>2024-06-25T20:59:01.898Z</time>
      </trkpt>
      <trkpt lat="46.82806" lon="-0.52015">
        <ele>167.76</ele>
        <time>2024-06-25T20:59:16.208Z</time>
      </trkpt>
      <trkpt lat="46.82809" lon="-0.5201">
        <ele>167.51</ele>
        <time>2024-06-25T20:59:30.519Z</time>
      </trkpt>
      <trkpt lat="46.82811" lon="-0.52004">
        <ele>167.26</ele>
        <time>2024-06-25T20:59:44.831Z</time>
      </trkpt>
      <trkpt lat="46.82812" lon="-0.51997">
        <ele>166.99</ele>
        <time>2024-06-25T20:59:59.144Z</time>
      </trkpt>
      <trkpt lat="46.82813" lon="-0.5199">
        <ele>166.72</ele>
        <time>2024-06-25T21:00:13.458Z</time>
      </trkpt>
      <trkpt lat="46.82812" lon="-0.51982">
        <ele>166.43</ele>
        <time>2024-06-25T21:00:27.773Z</time>
      </trkpt>
      <trkpt lat="46.8281" lon="-0.51974">
        <ele>166.15</ele>
        <time>2024-06-25T21:00:42.089Z</time>
      </trkpt>
      <trkpt lat="46.82809" lon="-0.51966">
        <ele>165.85</ele>
        <time>2024-06-25T21:00:56.406Z</time>
      </trkpt>
      <trkpt lat="46.82808" lon="-0.51957">
        <ele>165.55</ele>
        <time>2024-06-25T21:01:10.724Z</time>
      </trkpt>
      <trkpt lat="46.82807" lon="-0.51948">
        <ele>165.24</ele>
        <time>2024-06-25T21:01:25.044Z</time>
      </trkpt>
      <trkpt lat="46.82806" lon="-0.51938">
        <ele>164.93</ele>
        <time>2024-06-25T21:01:39.365Z</time>
      </trkpt>
      <trkpt lat="46.82805" lon="-0.51928">
        <ele>164.61</ele>
        <time>2024-06-25T21:01:53.687Z</time>
      </trkpt>
      <trkpt lat="46.82804" lon="-0.51917">
        <ele>164.29</ele>
        <time>2024-06-25T21:02:08.011Z</time>
      </trkpt>
      <trkpt lat="46.82803" lon="-0.51907">
        <ele>163.96</ele>
        <time>2024-06-25T21:02:22.336Z</time>
      </trkpt>
      <trkpt lat="46.82803" lon="-0.51896">
        <ele>163.63</ele>
        <time>2024-06-25T21:02:36.663Z</time>
      </trkpt>
      <trkpt lat="46.82802" lon="-0.51884">
        <ele>163.3</ele>
        <time>2024-06-25T21:02:50.991Z</time>
      </trkpt>
      <trkpt lat="46.82802" lon="-0.51872">
        <ele>162.97</ele>
        <time>2024-06-25T21:03:05.321Z</time>
      </trkpt>
      <trkpt lat="46.82801" lon="-0.51859">
        <ele>162.63</ele>
        <time>2024-06-25T21:03:19.653Z</time>
      </trkpt>
      <trkpt lat="46.828" lon="-0.51847">
        <ele>162.29</ele>
        <time>2024-06-25T21:03:33.987Z</time>
      </trkpt>
      <trkpt lat="46.82799" lon="-0.51833">
        <ele>161.94</ele>
        <time>2024-06-25T21:03:48.322Z</time>
      </trkpt>
      <trkpt lat="46.82799" lon="-0.51821">
        <ele>161.6</ele>
        <time>2024-06-25T21:04:02.659Z</time>
      </trkpt>
      <trkpt lat="46.82799" lon="-0.51807">
        <ele>161.26</ele>
        <time>2024-06-25T21:04:16.998Z</time>
      </trkpt>
      <trkpt lat="46.828" lon="-0.51794">
        <ele>160.92</ele>
        <time>2024-06-25T21:04:31.339Z</time>
      </trkpt>
      <trkpt lat="46.82801" lon="-0.51781">
        <ele>160.58</ele>
        <time>2024-06-25T21:04:45.682Z</time>
      </trkpt>
      <trkpt lat="46.82803" lon="-0.51768">
        <ele>160.26</ele>
        <time>2024-06-25T21:05:00.027Z</time>
      </trkpt>
      <trkpt lat="46.82804" lon="-0.51753">
        <ele>159.94</ele>
        <time>2024-06-25T21:05:14.374Z</time>
      </trkpt>
      <trkpt lat="46.82806" lon="-0.5174">
        <ele>159.64</ele>
        <time>2024-06-25T21:05:28.722Z</time>
      </trkpt>
      <trkpt lat="46.82808" lon="-0.51728">
        <ele>159.34</ele>
        <time>2024-06-25T21:05:43.072Z</time>
      </trkpt>
      <trkpt lat="46.82811" lon="-0.51717">
        <ele>159.03</ele>
        <time>2024-06-25T21:05:57.424Z</time>
      </trkpt>
      <trkpt lat="46.82814" lon="-0.51705">
        <ele>158.73</ele>
        <time>2024-06-25T21:06:11.778Z</time>
      </trkpt>
      <trkpt lat="46.82817" lon="-0.51694">
        <ele>158.43</ele>
        <time>2024-06-25T21:06:26.133Z</time>
      </trkpt>
      <trkpt lat="46.82819" lon="-0.51682">
        <ele>158.14</ele>
        <time>2024-06-25T21:06:40.490Z</time>
      </trkpt>
      <trkpt lat="46.82822" lon="-0.51671">
        <ele>157.85</ele>
        <time>2024-06-25T21:06:54.848Z</time>
      </trkpt>
      <trkpt lat="46.82824" lon="-0.51661">
        <ele>157.57</ele>
        <time>2024-06-25T21:07:09.208Z</time>
      </trkpt>
      <trkpt lat="46.82826" lon="-0.51651">
        <ele>157.3</ele>
        <time>2024-06-25T21:07:23.569Z</time>
      </trkpt>
      <trkpt lat="46.82828" lon="-0.51641">
        <ele>157.03</ele>
        <time>2024-06-25T21:07:37.932Z</time>
      </trkpt>
      <trkpt lat="46.8283" lon="-0.51631">
        <ele>156.77</ele>
        <time>2024-06-25T21:07:52.296Z</time>
      </trkpt>
      <trkpt lat="46.82831" lon="-0.51621">
        <ele>156.51</ele>
        <time>2024-06-25T21:08:06.662Z</time>
      </trkpt>
      <trkpt lat="46.82833" lon="-0.5161">
        <ele>156.25</ele>
        <time>2024-06-25T21:08:21.029Z</time>
      </trkpt>
      <trkpt lat="46.82834" lon="-0.51599">
        <ele>156</ele>
        <time>2024-06-25T21:08:35.398Z</time>
      </trkpt>
      <trkpt lat="46.82835" lon="-0.51589">
        <ele>155.75</ele>
        <time>2024-06-25T21:08:49.768Z</time>
      </trkpt>
      <trkpt lat="46.82834" lon="-0.51578">
        <ele>155.5</ele>
        <time>2024-06-25T21:09:04.139Z</time>
      </trkpt>
      <trkpt lat="46.82833" lon="-0.51568">
        <ele>155.25</ele>
        <time>2024-06-25T21:09:18.512Z</time>
      </trkpt>
      <trkpt lat="46.82831" lon="-0.51557">
        <ele>155.01</ele>
        <time>2024-06-25T21:09:32.886Z</time>
      </trkpt>
      <trkpt lat="46.8283" lon="-0.51547">
        <ele>154.78</ele>
        <time>2024-06-25T21:09:47.262Z</time>
      </trkpt>
      <trkpt lat="46.82829" lon="-0.51537">
        <ele>154.54</ele>
        <time>2024-06-25T21:10:01.639Z</time>
      </trkpt>
      <trkpt lat="46.82829" lon="-0.51527">
        <ele>154.31</ele>
        <time>2024-06-25T21:10:16.018Z</time>
      </trkpt>
      <trkpt lat="46.82829" lon="-0.51518">
        <ele>154.1</ele>
        <time>2024-06-25T21:10:30.398Z</time>
      </trkpt>
      <trkpt lat="46.82829" lon="-0.51508">
        <ele>153.89</ele>
        <time>2024-06-25T21:10:44.779Z</time>
      </trkpt>
      <trkpt lat="46.82829" lon="-0.51498">
        <ele>153.69</ele>
        <time>2024-06-25T21:10:59.162Z</time>
      </trkpt>
      <trkpt lat="46.82829" lon="-0.51488">
        <ele>153.49</ele>
        <time>2024-06-25T21:11:13.546Z</time>
      </trkpt>
      <trkpt lat="46.82827" lon="-0.51477">
        <ele>153.28</ele>
        <time>2024-06-25T21:11:27.931Z</time>
      </trkpt>
      <trkpt lat="46.82825" lon="-0.51466">
        <ele>153.08</ele>
        <time>2024-06-25T21:11:42.318Z</time>
      </trkpt>
      <trkpt lat="46.82823" lon="-0.51454">
        <ele>152.89</ele>
        <time>2024-06-25T21:11:56.707Z</time>
      </trkpt>
      <trkpt lat="46.82821" lon="-0.51442">
        <ele>152.7</ele>
        <time>2024-06-25T21:12:11.097Z</time>
      </trkpt>
      <trkpt lat="46.8282" lon="-0.5143">
        <ele>152.51</ele>
        <time>2024-06-25T21:12:25.489Z</time>
      </trkpt>
      <trkpt lat="46.82821" lon="-0.51418">
        <ele>152.32</ele>
        <time>2024-06-25T21:12:39.883Z</time>
      </trkpt>
      <trkpt lat="46.82823" lon="-0.51405">
        <ele>152.13</ele>
        <time>2024-06-25T21:12:54.279Z</time>
      </trkpt>
      <trkpt lat="46.82826" lon="-0.51393">
        <ele>151.94</ele>
        <time>2024-06-25T21:13:08.676Z</time>
      </trkpt>
      <trkpt lat="46.8283" lon="-0.51381">
        <ele>151.75</ele>
        <time>2024-06-25T21:13:23.075Z</time>
      </trkpt>
      <trkpt lat="46.82833" lon="-0.51369">
        <ele>151.58</ele>
        <time>2024-06-25T21:13:37.476Z</time>
      </trkpt>
      <trkpt lat="46.82836" lon="-0.51357">
        <ele>151.4</ele>
        <time>2024-06-25T21:13:51.879Z</time>
      </trkpt>
      <trkpt lat="46.82838" lon="-0.51346">
        <ele>151.23</ele>
        <time>2024-06-25T21:14:06.283Z</time>
      </trkpt>
      <trkpt lat="46.8284" lon="-0.51335">
        <ele>151.07</ele>
        <time>2024-06-25T21:14:20.689Z</time>
      </trkpt>
      <trkpt lat="46.8284" lon="-0.51325">
        <ele>150.92</ele>
        <time>2024-06-25T21:14:35.096Z</time>
      </trkpt>
      <trkpt lat="46.82842" lon="-0.51316">
        <ele>150.78</ele>
        <time>2024-06-25T21:14:49.504Z</time>
      </trkpt>
      <trkpt lat="46.82843" lon="-0.51307">
        <ele>150.64</ele>
        <time>2024-06-25T21:15:03.914Z</time>
      </trkpt>
      <trkpt lat="46.82844" lon="-0.51298">
        <ele>150.49</ele>
        <time>2024-06-25T21:15:18.325Z</time>
      </trkpt>
      <trkpt lat="46.82845" lon="-0.51289">
        <ele>150.35</ele>
        <time>2024-06-25T21:15:32.737Z</time>
      </trkpt>
      <trkpt lat="46.82845" lon="-0.5128">
        <ele>150.21</ele>
        <time>2024-06-25T21:15:47.150Z</time>
      </trkpt>
      <trkpt lat="46.82846" lon="-0.51271">
        <ele>150.08</ele>
        <time>2024-06-25T21:16:01.565Z</time>
      </trkpt>
      <trkpt lat="46.82846" lon="-0.51262">
        <ele>149.94</ele>
        <time>2024-06-25T21:16:15.981Z</time>
      </trkpt>
      <trkpt lat="46.82846" lon="-0.51253">
        <ele>149.82</ele>
        <time>2024-06-25T21:16:30.398Z</time>
      </trkpt>
      <trkpt lat="46.82845" lon="-0.51244">
        <ele>149.69</ele>
        <time>2024-06-25T21:16:44.816Z</time>
      </trkpt>
      <trkpt lat="46.82845" lon="-0.51235">
        <ele>149.56</ele>
        <time>2024-06-25T21:16:59.236Z</time>
      </trkpt>
      <trkpt lat="46.82844" lon="-0.51226">
        <ele>149.43</ele>
        <time>2024-06-25T21:17:13.657Z</time>
      </trkpt>
      <trkpt lat="46.82844" lon="-0.51217">
        <ele>149.32</ele>
        <time>2024-06-25T21:17:28.079Z</time>
      </trkpt>
      <trkpt lat="46.82843" lon="-0.51208">
        <ele>149.21</ele>
        <time>2024-06-25T21:17:42.502Z</time>
      </trkpt>
      <trkpt lat="46.82843" lon="-0.51199">
        <ele>149.1</ele>
        <time>2024-06-25T21:17:56.927Z</time>
      </trkpt>
      <trkpt lat="46.82842" lon="-0.51191">
        <ele>148.99</ele>
        <time>2024-06-25T21:18:11.353Z</time>
      </trkpt>
      <trkpt lat="46.82841" lon="-0.51181">
        <ele>148.89</ele>
        <time>2024-06-25T21:18:25.780Z</time>
      </trkpt>
      <trkpt lat="46.8284" lon="-0.51171">
        <ele>148.78</ele>
        <time>2024-06-25T21:18:40.208Z</time>
      </trkpt>
      <trkpt lat="46.8284" lon="-0.51162">
        <ele>148.69</ele>
        <time>2024-06-25T21:18:54.638Z</time>
      </trkpt>
      <trkpt lat="46.82839" lon="-0.51153">
        <ele>148.6</ele>
        <time>2024-06-25T21:19:09.069Z</time>
      </trkpt>
      <trkpt lat="46.82839" lon="-0.51143">
        <ele>148.51</ele>
        <time>2024-06-25T21:19:23.501Z</time>
      </trkpt>
      <trkpt lat="46.82839" lon="-0.51133">
        <ele>148.43</ele>
        <time>2024-06-25T21:19:37.935Z</time>
      </trkpt>
      <trkpt lat="46.82841" lon="-0.51123">
        <ele>148.36</ele>
        <time>2024-06-25T21:19:52.370Z</time>
      </trkpt>
      <trkpt lat="46.82844" lon="-0.51114">
        <ele>148.29</ele>
        <time>2024-06-25T21:20:06.807Z</time>
      </trkpt>
      <trkpt lat="46.82847" lon="-0.51105">
        <ele>148.23</ele>
        <time>2024-06-25T21:20:21.245Z</time>
      </trkpt>
      <trkpt lat="46.8285" lon="-0.51097">
        <ele>148.18</ele>
        <time>2024-06-25T21:20:35.684Z</time>
      </trkpt>
      <trkpt lat="46.82854" lon="-0.51089">
        <ele>148.13</ele>
        <time>2024-06-25T21:20:50.124Z</time>
      </trkpt>
      <trkpt lat="46.82858" lon="-0.51082">
        <ele>148.09</ele>
        <time>2024-06-25T21:21:04.566Z</time>
      </trkpt>
      <trkpt lat="46.82862" lon="-0.51076">
        <ele>148.05</ele>
        <time>2024-06-25T21:21:19.009Z</time>
      </trkpt>
      <trkpt lat="46.82866" lon="-0.51069">
        <ele>148.01</ele>
        <time>2024-06-25T21:21:33.453Z</time>
      </trkpt>
      <trkpt lat="46.82871" lon="-0.51063">
        <ele>147.98</ele>
        <time>2024-06-25T21:21:47.898Z</time>
      </trkpt>
      <trkpt lat="46.82876" lon="-0.51058">
        <ele>147.95</ele>
        <time>2024-06-25T21:22:02.345Z</time>
      </trkpt>
      <trkpt lat="46.82881" lon="-0.51053">
        <ele>147.94</ele>
        <time>2024-06-25T21:22:16.793Z</time>
      </trkpt>
      <trkpt lat="46.82886" lon="-0.51048">
        <ele>147.94</ele>
        <time>2024-06-25T21:22:31.242Z</time>
      </trkpt>
      <trkpt lat="46.82892" lon="-0.51042">
        <ele>147.94</ele>
        <time>2024-06-25T21:22:45.692Z</time>
      </trkpt>
      <trkpt lat="46.82897" lon="-0.51038">
        <ele>147.94</ele>
        <time>2024-06-25T21:23:00.144Z</time>
      </trkpt>
      <trkpt lat="46.82903" lon="-0.51033">
        <ele>147.96</ele>
        <time>2024-06-25T21:23:14.597Z</time>
      </trkpt>
      <trkpt lat="46.82909" lon="-0.51029">
        <ele>147.98</ele>
        <time>2024-06-25T21:23:29.051Z</time>
      </trkpt>
      <trkpt lat="46.82914" lon="-0.51024">
        <ele>148.01</ele>
        <time>2024-06-25T21:23:43.507Z</time>
      </trkpt>
      <trkpt lat="46.8292" lon="-0.5102">
        <ele>148.05</ele>
        <time>2024-06-25T21:23:57.964Z</time>
      </trkpt>
      <trkpt lat="46.82925" lon="-0.51016">
        <ele>148.09</ele>
        <time>2024-06-25T21:24:12.422Z</time>
      </trkpt>
      <trkpt lat="46.8293" lon="-0.51013">
        <ele>148.14</ele>
        <time>2024-06-25T21:24:26.881Z</time>
      </trkpt>
      <trkpt lat="46.82935" lon="-0.51009">
        <ele>148.19</ele>
        <time>2024-06-25T21:24:41.341Z</time>
      </trkpt>
      <trkpt lat="46.82941" lon="-0.51006">
        <ele>148.24</ele>
        <time>2024-06-25T21:24:55.802Z</time>
      </trkpt>
      <trkpt lat="46.82946" lon="-0.51004">
        <ele>148.3</ele>
        <time>2024-06-25T21:25:10.265Z</time>
      </trkpt>
      <trkpt lat="46.82952" lon="-0.51002">
        <ele>148.36</ele>
        <time>2024-06-25T21:25:24.729Z</time>
      </trkpt>
      <trkpt lat="46.82958" lon="-0.51">
        <ele>148.42</ele>
        <time>2024-06-25T21:25:39.194Z</time>
      </trkpt>
      <trkpt lat="46.82963" lon="-0.50998">
        <ele>148.48</ele>
        <time>2024-06-25T21:25:53.660Z</time>
      </trkpt>
      <trkpt lat="46.82968" lon="-0.50995">
        <ele>148.54</ele>
        <time>2024-06-25T21:26:08.127Z</time>
      </trkpt>
      <trkpt lat="46.82974" lon="-0.50993">
        <ele>148.6</ele>
        <time>2024-06-25T21:26:22.595Z</time>
      </trkpt>
      <trkpt lat="46.82979" lon="-0.5099">
        <ele>148.67</ele>
        <time>2024-06-25T21:26:37.064Z</time>
      </trkpt>
      <trkpt lat="46.82984" lon="-0.50987">
        <ele>148.73</ele>
        <time>2024-06-25T21:26:51.535Z</time>
      </trkpt>
      <trkpt lat="46.82988" lon="-0.50983">
        <ele>148.78</ele>
        <time>2024-06-25T21:27:06.007Z</time>
      </trkpt>
      <trkpt lat="46.82993" lon="-0.5098">
        <ele>148.84</ele>
        <time>2024-06-25T21:27:20.480Z</time>
      </trkpt>
      <trkpt lat="46.82997" lon="-0.50976">
        <ele>148.9</ele>
        <time>2024-06-25T21:27:34.954Z</time>
      </trkpt>
      <trkpt lat="46.83001" lon="-0.50971">
        <ele>148.96</ele>
        <time>2024-06-25T21:27:49.429Z</time>
      </trkpt>
      <trkpt lat="46.83006" lon="-0.50967">
        <ele>149.03</ele>
        <time>2024-06-25T21:28:03.905Z</time>
      </trkpt>
      <trkpt lat="46.83011" lon="-0.50962">
        <ele>149.1</ele>
        <time>2024-06-25T21:28:18.382Z</time>
      </trkpt>
      <trkpt lat="46.83016" lon="-0.50957">
        <ele>149.17</ele>
        <time>2024-06-25T21:28:32.860Z</time>
      </trkpt>
      <trkpt lat="46.83021" lon="-0.50952">
        <ele>149.24</ele>
        <time>2024-06-25T21:28:47.339Z</time>
      </trkpt>
      <trkpt lat="46.83025" lon="-0.50947">
        <ele>149.3</ele>
        <time>2024-06-25T21:29:01.820Z</time>
      </trkpt>
      <trkpt lat="46.8303" lon="-0.50942">
        <ele>149.37</ele>
        <time>2024-06-25T21:29:16.302Z</time>
      </trkpt>
      <trkpt lat="46.83036" lon="-0.50937">
        <ele>149.43</ele>
        <time>2024-06-25T21:29:30.785Z</time>
      </trkpt>
      <trkpt lat="46.83041" lon="-0.50932">
        <ele>149.48</ele>
        <time>2024-06-25T21:29:45.269Z</time>
      </trkpt>
      <trkpt lat="46.83046" lon="-0.50927">
        <ele>149.54</ele>
        <time>2024-06-25T21:29:59.754Z</time>
      </trkpt>
      <trkpt lat="46.83051" lon="-0.50922">
        <ele>149.59</ele>
        <time>2024-06-25T21:30:14.241Z</time>
      </trkpt>
      <trkpt lat="46.83057" lon="-0.50917">
        <ele>149.65</ele>
        <time>2024-06-25T21:30:28.729Z</time>
      </trkpt>
      <trkpt lat="46.83062" lon="-0.50911">
        <ele>149.71</ele>
        <time>2024-06-25T21:30:43.218Z</time>
      </trkpt>
      <trkpt lat="46.83066" lon="-0.50905">
        <ele>149.77</ele>
        <time>2024-06-25T21:30:57.708Z</time>
      </trkpt>
      <trkpt lat="46.8307" lon="-0.50899">
        <ele>149.83</ele>
        <time>2024-06-25T21:31:12.200Z</time>
      </trkpt>
      <trkpt lat="46.83074" lon="-0.50893">
        <ele>149.89</ele>
        <time>2024-06-25T21:31:26.693Z</time>
      </trkpt>
      <trkpt lat="46.83078" lon="-0.50884">
        <ele>149.96</ele>
        <time>2024-06-25T21:31:41.187Z</time>
      </trkpt>
      <trkpt lat="46.83081" lon="-0.50876">
        <ele>150.01</ele>
        <time>2024-06-25T21:31:55.683Z</time>
      </trkpt>
      <trkpt lat="46.83082" lon="-0.50867">
        <ele>150.07</ele>
        <time>2024-06-25T21:32:10.180Z</time>
      </trkpt>
      <trkpt lat="46.83083" lon="-0.50859">
        <ele>150.13</ele>
        <time>2024-06-25T21:32:24.678Z</time>
      </trkpt>
      <trkpt lat="46.83084" lon="-0.5085">
        <ele>150.18</ele>
        <time>2024-06-25T21:32:39.177Z</time>
      </trkpt>
      <trkpt lat="46.83084" lon="-0.50842">
        <ele>150.23</ele>
        <time>2024-06-25T21:32:53.677Z</time>
      </trkpt>
      <trkpt lat="46.83085" lon="-0.50834">
        <ele>150.28</ele>
        <time>2024-06-25T21:33:08.178Z</time>
      </trkpt>
      <trkpt lat="46.83084" lon="-0.50826">
        <ele>150.31</ele>
        <time>2024-06-25T21:33:22.680Z</time>
      </trkpt>
      <trkpt lat="46.83084" lon="-0.50819">
        <ele>150.34</ele>
        <time>2024-06-25T21:33:37.183Z</time>
      </trkpt>
      <trkpt lat="46.83083" lon="-0.5081">
        <ele>150.37</ele>
        <time>2024-06-25T21:33:51.688Z</time>
      </trkpt>
      <trkpt lat="46.83084" lon="-0.50802">
        <ele>150.39</ele>
        <time>2024-06-25T21:34:06.194Z</time>
      </trkpt>
      <trkpt lat="46.83083" lon="-0.50795">
        <ele>150.4</ele>
        <time>2024-06-25T21:34:20.701Z</time>
      </trkpt>
      <trkpt lat="46.83083" lon="-0.50787">
        <ele>150.4</ele>
        <time>2024-06-25T21:34:35.209Z</time>
      </trkpt>
      <trkpt lat="46.83083" lon="-0.50779">
        <ele>150.4</ele>
        <time>2024-06-25T21:34:49.718Z</time>
      </trkpt>
      <trkpt lat="46.83083" lon="-0.5077">
        <ele>150.4</ele>
        <time>2024-06-25T21:35:04.228Z</time>
      </trkpt>
      <trkpt lat="46.83084" lon="-0.50761">
        <ele>150.39</ele>
        <time>2024-06-25T21:35:18.739Z</time>
      </trkpt>
      <trkpt lat="46.83085" lon="-0.50753">
        <ele>150.38</ele>
        <time>2024-06-25T21:35:33.252Z</time>
      </trkpt>
      <trkpt lat="46.83087" lon="-0.50744">
        <ele>150.36</ele>
        <time>2024-06-25T21:35:47.766Z</time>
      </trkpt>
      <trkpt lat="46.83089" lon="-0.50737">
        <ele>150.33</ele>
        <time>2024-06-25T21:36:02.281Z</time>
      </trkpt>
      <trkpt lat="46.83091" lon="-0.5073">
        <ele>150.3</ele>
        <time>2024-06-25T21:36:16.797Z</time>
      </trkpt>
      <trkpt lat="46.83095" lon="-0.50723">
        <ele>150.27</ele>
        <time>2024-06-25T21:36:31.314Z</time>
      </trkpt>
      <trkpt lat="46.83099" lon="-0.50715">
        <ele>150.24</ele>
        <time>2024-06-25T21:36:45.833Z</time>
      </trkpt>
      <trkpt lat="46.83103" lon="-0.50707">
        <ele>150.2</ele>
        <time>2024-06-25T21:37:00.353Z</time>
      </trkpt>
      <trkpt lat="46.83106" lon="-0.507">
        <ele>150.16</ele>
        <time>2024-06-25T21:37:14.874Z</time>
      </trkpt>
      <trkpt lat="46.8311" lon="-0.50692">
        <ele>150.12</ele>
        <time>2024-06-25T21:37:29.396Z</time>
      </trkpt>
      <trkpt lat="46.83113" lon="-0.50684">
        <ele>150.08</ele>
        <time>2024-06-25T21:37:43.920Z</time>
      </trkpt>
      <trkpt lat="46.83117" lon="-0.50677">
        <ele>150.03</ele>
        <time>2024-06-25T21:37:58.445Z</time>
      </trkpt>
      <trkpt lat="46.83121" lon="-0.5067">
        <ele>149.98</ele>
        <time>2024-06-25T21:38:12.971Z</time>
      </trkpt>
      <trkpt lat="46.83124" lon="-0.50661">
        <ele>149.93</ele>
        <time>2024-06-25T21:38:27.498Z</time>
      </trkpt>
      <trkpt lat="46.83128" lon="-0.50653">
        <ele>149.88</ele>
        <time>2024-06-25T21:38:42.027Z</time>
      </trkpt>
      <trkpt lat="46.83131" lon="-0.50644">
        <ele>149.83</ele>
        <time>2024-06-25T21:38:56.557Z</time>
      </trkpt>
      <trkpt lat="46.83134" lon="-0.50636">
        <ele>149.77</ele>
        <time>2024-06-25T21:39:11.088Z</time>
      </trkpt>
      <trkpt lat="46.83137" lon="-0.50628">
        <ele>149.71</ele>
        <time>2024-06-25T21:39:25.621Z</time>
      </trkpt>
      <trkpt lat="46.83141" lon="-0.5062">
        <ele>149.66</ele>
        <time>2024-06-25T21:39:40.155Z</time>
      </trkpt>
      <trkpt lat="46.83144" lon="-0.50613">
        <ele>149.59</ele>
        <time>2024-06-25T21:39:54.690Z</time>
      </trkpt>
      <trkpt lat="46.83147" lon="-0.50605">
        <ele>149.53</ele>
        <time>2024-06-25T21:40:09.226Z</time>
      </trkpt>
      <trkpt lat="46.83149" lon="-0.50596">
        <ele>149.46</ele>
        <time>2024-06-25T21:40:23.764Z</time>
      </trkpt>
      <trkpt lat="46.83152" lon="-0.50587">
        <ele>149.4</ele>
        <time>2024-06-25T21:40:38.303Z</time>
      </trkpt>
      <trkpt lat="46.83154" lon="-0.50579">
        <ele>149.33</ele>
        <time>2024-06-25T21:40:52.843Z</time>
      </trkpt>
      <trkpt lat="46.83156" lon="-0.5057">
        <ele>149.27</ele>
        <time>2024-06-25T21:41:07.384Z</time>
      </trkpt>
      <trkpt lat="46.83157" lon="-0.50561">
        <ele>149.21</ele>
        <time>2024-06-25T21:41:21.927Z</time>
      </trkpt>
      <trkpt lat="46.83158" lon="-0.50552">
        <ele>149.15</ele>
        <time>2024-06-25T21:41:36.471Z</time>
      </trkpt>
      <trkpt lat="46.83159" lon="-0.50544">
        <ele>149.09</ele>
        <time>2024-06-25T21:41:51.016Z</time>
      </trkpt>
      <trkpt lat="46.8316" lon="-0.50535">
        <ele>149.04</ele>
        <time>2024-06-25T21:42:05.562Z</time>
      </trkpt>
      <trkpt lat="46.8316" lon="-0.50527">
        <ele>148.98</ele>
        <time>2024-06-25T21:42:20.110Z</time>
      </trkpt>
      <trkpt lat="46.83159" lon="-0.50518">
        <ele>148.92</ele>
        <time>2024-06-25T21:42:34.659Z</time>
      </trkpt>
      <trkpt lat="46.83158" lon="-0.50509">
        <ele>148.86</ele>
        <time>2024-06-25T21:42:49.209Z</time>
      </trkpt>
      <trkpt lat="46.83158" lon="-0.50501">
        <ele>148.81</ele>
        <time>2024-06-25T21:43:03.760Z</time>
      </trkpt>
      <trkpt lat="46.83156" lon="-0.50494">
        <ele>148.76</ele>
        <time>2024-06-25T21:43:18.312Z</time>
      </trkpt>
      <trkpt lat="46.83156" lon="-0.50486">
        <ele>148.72</ele>
        <time>2024-06-25T21:43:32.865Z</time>
      </trkpt>
      <trkpt lat="46.83155" lon="-0.50479">
        <ele>148.67</ele>
        <time>2024-06-25T21:43:47.419Z</time>
      </trkpt>
      <trkpt lat="46.83153" lon="-0.50473">
        <ele>148.62</ele>
        <time>2024-06-25T21:44:01.974Z</time>
      </trkpt>
      <trkpt lat="46.83149" lon="-0.5047">
        <ele>148.58</ele>
        <time>2024-06-25T21:44:16.530Z</time>
      </trkpt>
      <trkpt lat="46.83144" lon="-0.50469">
        <ele>148.54</ele>
        <time>2024-06-25T21:44:31.087Z</time>
      </trkpt>
      <trkpt lat="46.83138" lon="-0.50469">
        <ele>148.5</ele>
        <time>2024-06-25T21:44:45.645Z</time>
      </trkpt>
      <trkpt lat="46.83131" lon="-0.50468">
        <ele>148.47</ele>
        <time>2024-06-25T21:45:00.205Z</time>
      </trkpt>
      <trkpt lat="46.83124" lon="-0.50465">
        <ele>148.45</ele>
        <time>2024-06-25T21:45:14.766Z</time>
      </trkpt>
      <trkpt lat="46.83117" lon="-0.5046">
        <ele>148.42</ele>
        <time>2024-06-25T21:45:29.329Z</time>
      </trkpt>
      <trkpt lat="46.83111" lon="-0.50452">
        <ele>148.41</ele>
        <time>2024-06-25T21:45:43.893Z</time>
      </trkpt>
      <trkpt lat="46.83106" lon="-0.50443">
        <ele>148.42</ele>
        <time>2024-06-25T21:45:58.459Z</time>
      </trkpt>
      <trkpt lat="46.83104" lon="-0.50433">
        <ele>148.43</ele>
        <time>2024-06-25T21:46:13.026Z</time>
      </trkpt>
      <trkpt lat="46.83103" lon="-0.50424">
        <ele>148.44</ele>
        <time>2024-06-25T21:46:27.595Z</time>
      </trkpt>
      <trkpt lat="46.83101" lon="-0.50414">
        <ele>148.46</ele>
        <time>2024-06-25T21:46:42.165Z</time>
      </trkpt>
      <trkpt lat="46.831" lon="-0.50405">
        <ele>148.49</ele>
        <time>2024-06-25T21:46:56.736Z</time>
      </trkpt>
      <trkpt lat="46.83098" lon="-0.50396">
        <ele>148.53</ele>
        <time>2024-06-25T21:47:11.308Z</time>
      </trkpt>
      <trkpt lat="46.83098" lon="-0.50388">
        <ele>148.57</ele>
        <time>2024-06-25T21:47:25.882Z</time>
      </trkpt>
      <trkpt lat="46.83098" lon="-0.50379">
        <ele>148.62</ele>
        <time>2024-06-25T21:47:40.457Z</time>
      </trkpt>
      <trkpt lat="46.83098" lon="-0.50372">
        <ele>148.68</ele>
        <time>2024-06-25T21:47:55.033Z</time>
      </trkpt>
      <trkpt lat="46.83097" lon="-0.50365">
        <ele>148.75</ele>
        <time>2024-06-25T21:48:09.610Z</time>
      </trkpt>
      <trkpt lat="46.83098" lon="-0.50358">
        <ele>148.81</ele>
        <time>2024-06-25T21:48:24.188Z</time>
      </trkpt>
      <trkpt lat="46.83099" lon="-0.50352">
        <ele>148.88</ele>
        <time>2024-06-25T21:48:38.767Z</time>
      </trkpt>
      <trkpt lat="46.831" lon="-0.50346">
        <ele>148.94</ele>
        <time>2024-06-25T21:48:53.346Z</time>
      </trkpt>
      <trkpt lat="46.831" lon="-0.50341">
        <ele>149.02</ele>
        <time>2024-06-25T21:49:07.926Z</time>
      </trkpt>
      <trkpt lat="46.83102" lon="-0.50336">
        <ele>149.1</ele>
        <time>2024-06-25T21:49:22.507Z</time>
      </trkpt>
      <trkpt lat="46.83103" lon="-0.5033">
        <ele>149.18</ele>
        <time>2024-06-25T21:49:37.089Z</time>
      </trkpt>
      <trkpt lat="46.83104" lon="-0.50324">
        <ele>149.27</ele>
        <time>2024-06-25T21:49:51.671Z</time>
      </trkpt>
      <trkpt lat="46.83105" lon="-0.5032">
        <ele>149.36</ele>
        <time>2024-06-25T21:50:06.254Z</time>
      </trkpt>
      <trkpt lat="46.83106" lon="-0.50314">
        <ele>149.46</ele>
        <time>2024-06-25T21:50:20.838Z</time>
      </trkpt>
      <trkpt lat="46.83107" lon="-0.50309">
        <ele>149.56</ele>
        <time>2024-06-25T21:50:35.423Z</time>
      </trkpt>
      <trkpt lat="46.83107" lon="-0.50305">
        <ele>149.66</ele>
        <time>2024-06-25T21:50:50.008Z</time>
      </trkpt>
      <trkpt lat="46.83108" lon="-0.50302">
        <ele>149.77</ele>
        <time>2024-06-25T21:51:04.594Z</time>
      </trkpt>
      <trkpt lat="46.83108" lon="-0.50298">
        <ele>149.89</ele>
        <time>2024-06-25T21:51:19.180Z</time>
      </trkpt>
      <trkpt lat="46.83109" lon="-0.50294">
        <ele>150.01</ele>
        <time>2024-06-25T21:51:33.767Z</time>
      </trkpt>
      <trkpt lat="46.83109" lon="-0.5029">
        <ele>150.13</ele>
        <time>2024-06-25T21:51:48.354Z</time>
      </trkpt>
      <trkpt lat="46.83109" lon="-0.50286">
        <ele>150.25</ele>
        <time>2024-06-25T21:52:02.942Z</time>
      </trkpt>
      <trkpt lat="46.8311" lon="-0.50282">
        <ele>150.37</ele>
        <time>2024-06-25T21:52:17.530Z</time>
      </trkpt>
      <trkpt lat="46.8311" lon="-0.50279">
        <ele>150.5</ele>
        <time>2024-06-25T21:52:32.119Z</time>
      </trkpt>
      <trkpt lat="46.8311" lon="-0.50275">
        <ele>150.63</ele>
        <time>2024-06-25T21:52:46.708Z</time>
      </trkpt>
      <trkpt lat="46.83111" lon="-0.50271">
        <ele>150.76</ele>
        <time>2024-06-25T21:53:01.298Z</time>
      </trkpt>
      <trkpt lat="46.83112" lon="-0.50267">
        <ele>150.9</ele>
        <time>2024-06-25T21:53:15.889Z</time>
      </trkpt>
      <trkpt lat="46.83113" lon="-0.50262">
        <ele>151.04</ele>
        <time>2024-06-25T21:53:30.480Z</time>
      </trkpt>
      <trkpt lat="46.83114" lon="-0.50257">
        <ele>151.18</ele>
        <time>2024-06-25T21:53:45.072Z</time>
      </trkpt>
      <trkpt lat="46.83115" lon="-0.50253">
        <ele>151.31</ele>
        <time>2024-06-25T21:53:59.665Z</time>
      </trkpt>
      <trkpt lat="46.83116" lon="-0.50249">
        <ele>151.45</ele>
        <time>2024-06-25T21:54:14.258Z</time>
      </trkpt>
      <trkpt lat="46.83117" lon="-0.50244">
        <ele>151.59</ele>
        <time>2024-06-25T21:54:28.852Z</time>
      </trkpt>
      <trkpt lat="46.83118" lon="-0.5024">
        <ele>151.72</ele>
        <time>2024-06-25T21:54:43.446Z</time>
      </trkpt>
      <trkpt lat="46.83119" lon="-0.50236">
        <ele>151.86</ele>
        <time>2024-06-25T21:54:58.041Z</time>
      </trkpt>
      <trkpt lat="46.83121" lon="-0.50231">
        <ele>152</ele>
        <time>2024-06-25T21:55:12.637Z</time>
      </trkpt>
      <trkpt lat="46.83122" lon="-0.50226">
        <ele>152.14</ele>
        <time>2024-06-25T21:55:27.234Z</time>
      </trkpt>
      <trkpt lat="46.83123" lon="-0.5022">
        <ele>152.28</ele>
        <time>2024-06-25T21:55:41.831Z</time>
      </trkpt>
      <trkpt lat="46.83124" lon="-0.50215">
        <ele>152.42</ele>
        <time>2024-06-25T21:55:56.429Z</time>
      </trkpt>
      <trkpt lat="46.83125" lon="-0.50209">
        <ele>152.57</ele>
        <time>2024-06-25T21:56:11.028Z</time>
      </trkpt>
      <trkpt lat="46.83126" lon="-0.50204">
        <ele>152.71</ele>
        <time>2024-06-25T21:56:25.628Z</time>
      </trkpt>
      <trkpt lat="46.83126" lon="-0.50198">
        <ele>152.86</ele>
        <time>2024-06-25T21:56:40.228Z</time>
      </trkpt>
      <trkpt lat="46.83127" lon="-0.50193">
        <ele>153</ele>
        <time>2024-06-25T21:56:54.829Z</time>
      </trkpt>
      <trkpt lat="46.83128" lon="-0.50188">
        <ele>153.14</ele>
        <time>2024-06-25T21:57:09.431Z</time>
      </trkpt>
      <trkpt lat="46.83129" lon="-0.50183">
        <ele>153.27</ele>
        <time>2024-06-25T21:57:24.034Z</time>
      </trkpt>
      <trkpt lat="46.8313" lon="-0.50177">
        <ele>153.41</ele>
        <time>2024-06-25T21:57:38.637Z</time>
      </trkpt>
      <trkpt lat="46.83131" lon="-0.50172">
        <ele>153.54</ele>
        <time>2024-06-25T21:57:53.241Z</time>
      </trkpt>
      <trkpt lat="46.83132" lon="-0.50166">
        <ele>153.68</ele>
        <time>2024-06-25T21:58:07.846Z</time>
      </trkpt>
      <trkpt lat="46.83133" lon="-0.50161">
        <ele>153.82</ele>
        <time>2024-06-25T21:58:22.452Z</time>
      </trkpt>
      <trkpt lat="46.83133" lon="-0.50155">
        <ele>153.96</ele>
        <time>2024-06-25T21:58:37.059Z</time>
      </trkpt>
      <trkpt lat="46.83134" lon="-0.5015">
        <ele>154.1</ele>
        <time>2024-06-25T21:58:51.666Z</time>
      </trkpt>
      <trkpt lat="46.83135" lon="-0.50145">
        <ele>154.25</ele>
        <time>2024-06-25T21:59:06.274Z</time>
      </trkpt>
      <trkpt lat="46.83136" lon="-0.50138">
        <ele>154.4</ele>
        <time>2024-06-25T21:59:20.883Z</time>
      </trkpt>
      <trkpt lat="46.83136" lon="-0.50132">
        <ele>154.56</ele>
        <time>2024-06-25T21:59:35.493Z</time>
      </trkpt>
      <trkpt lat="46.83137" lon="-0.50126">
        <ele>154.72</ele>
        <time>2024-06-25T21:59:50.104Z</time>
      </trkpt>
      <trkpt lat="46.83138" lon="-0.5012">
        <ele>154.87</ele>
        <time>2024-06-25T22:00:04.715Z</time>
      </trkpt>
      <trkpt lat="46.83139" lon="-0.50115">
        <ele>155.03</ele>
        <time>2024-06-25T22:00:19.327Z</time>
      </trkpt>
      <trkpt lat="46.83139" lon="-0.50109">
        <ele>155.19</ele>
        <time>2024-06-25T22:00:33.940Z</time>
      </trkpt>
      <trkpt lat="46.8314" lon="-0.50104">
        <ele>155.35</ele>
        <time>2024-06-25T22:00:48.554Z</time>
      </trkpt>
      <trkpt lat="46.8314" lon="-0.50098">
        <ele>155.52</ele>
        <time>2024-06-25T22:01:03.169Z</time>
      </trkpt>
      <trkpt lat="46.83141" lon="-0.50093">
        <ele>155.68</ele>
        <time>2024-06-25T22:01:17.784Z</time>
      </trkpt>
      <trkpt lat="46.83142" lon="-0.50087">
        <ele>155.85</ele>
        <time>2024-06-25T22:01:32.400Z</time>
      </trkpt>
      <trkpt lat="46.83142" lon="-0.50081">
        <ele>156.02</ele>
        <time>2024-06-25T22:01:47.017Z</time>
      </trkpt>
      <trkpt lat="46.83143" lon="-0.50075">
        <ele>156.19</ele>
        <time>2024-06-25T22:02:01.635Z</time>
      </trkpt>
      <trkpt lat="46.83143" lon="-0.50071">
        <ele>156.36</ele>
        <time>2024-06-25T22:02:16.253Z</time>
      </trkpt>
      <trkpt lat="46.83144" lon="-0.50066">
        <ele>156.52</ele>
        <time>2024-06-25T22:02:30.872Z</time>
      </trkpt>
      <trkpt lat="46.83145" lon="-0.50061">
        <ele>156.69</ele>
        <time>2024-06-25T22:02:45.492Z</time>
      </trkpt>
      <trkpt lat="46.83145" lon="-0.50056">
        <ele>156.85</ele>
        <time>2024-06-25T22:03:00.112Z</time>
      </trkpt>
      <trkpt lat="46.83146" lon="-0.50051">
        <ele>157.01</ele>
        <time>2024-06-25T22:03:14.733Z</time>
      </trkpt>
      <trkpt lat="46.83148" lon="-0.50046">
        <ele>157.17</ele>
        <time>2024-06-25T22:03:29.355Z</time>
      </trkpt>
      <trkpt lat="46.83149" lon="-0.50042">
        <ele>157.33</ele>
        <time>2024-06-25T22:03:43.977Z</time>
      </trkpt>
      <trkpt lat="46.8315" lon="-0.50037">
        <ele>157.5</ele>
        <time>2024-06-25T22:03:58.600Z</time>
      </trkpt>
      <trkpt lat="46.83151" lon="-0.50033">
        <ele>157.66</ele>
        <time>2024-06-25T22:04:13.224Z</time>
      </trkpt>
      <trkpt lat="46.83152" lon="-0.50028">
        <ele>157.82</ele>
        <time>2024-06-25T22:04:27.849Z</time>
      </trkpt>
      <trkpt lat="46.83153" lon="-0.50024">
        <ele>157.98</ele>
        <time>2024-06-25T22:04:42.474Z</time>
      </trkpt>
      <trkpt lat="46.83154" lon="-0.50019">
        <ele>158.15</ele>
        <time>2024-06-25T22:04:57.100Z</time>
      </trkpt>
      <trkpt lat="46.83156" lon="-0.50015">
        <ele>158.31</ele>
        <time>2024-06-25T22:05:11.726Z</time>
      </trkpt>
      <trkpt lat="46.83157" lon="-0.50011">
        <ele>158.48</ele>
        <time>2024-06-25T22:05:26.353Z</time>
      </trkpt>
      <trkpt lat="46.83158" lon="-0.50007">
        <ele>158.64</ele>
        <time>2024-06-25T22:05:40.981Z</time>
      </trkpt>
      <trkpt lat="46.83159" lon="-0.50003">
        <ele>158.81</ele>
        <time>2024-06-25T22:05:55.609Z</time>
      </trkpt>
      <trkpt lat="46.83161" lon="-0.49999">
        <ele>158.97</ele>
        <time>2024-06-25T22:06:10.238Z</time>
      </trkpt>
      <trkpt lat="46.83163" lon="-0.49995">
        <ele>159.12</ele>
        <time>2024-06-25T22:06:24.867Z</time>
      </trkpt>
      <trkpt lat="46.83165" lon="-0.49991">
        <ele>159.28</ele>
        <time>2024-06-25T22:06:39.497Z</time>
      </trkpt>
      <trkpt lat="46.83168" lon="-0.49987">
        <ele>159.44</ele>
        <time>2024-06-25T22:06:54.128Z</time>
      </trkpt>
      <trkpt lat="46.83171" lon="-0.49984">
        <ele>159.59</ele>
        <time>2024-06-25T22:07:08.760Z</time>
      </trkpt>
      <trkpt lat="46.83174" lon="-0.49981">
        <ele>159.75</ele>
        <time>2024-06-25T22:07:23.393Z</time>
      </trkpt>
      <trkpt lat="46.83178" lon="-0.49977">
        <ele>159.92</ele>
        <time>2024-06-25T22:07:38.026Z</time>
      </trkpt>
      <trkpt lat="46.8318" lon="-0.49974">
        <ele>160.08</ele>
        <time>2024-06-25T22:07:52.660Z</time>
      </trkpt>
      <trkpt lat="46.83183" lon="-0.49971">
        <ele>160.25</ele>
        <time>2024-06-25T22:08:07.295Z</time>
      </trkpt>
      <trkpt lat="46.83186" lon="-0.49968">
        <ele>160.41</ele>
        <time>2024-06-25T22:08:21.930Z</time>
      </trkpt>
      <trkpt lat="46.83189" lon="-0.49965">
        <ele>160.58</ele>
        <time>2024-06-25T22:08:36.566Z</time>
      </trkpt>
      <trkpt lat="46.83192" lon="-0.49962">
        <ele>160.74</ele>
        <time>2024-06-25T22:08:51.203Z</time>
      </trkpt>
      <trkpt lat="46.83195" lon="-0.4996">
        <ele>160.9</ele>
        <time>2024-06-25T22:09:05.841Z</time>
      </trkpt>
      <trkpt lat="46.83198" lon="-0.49957">
        <ele>161.06</ele>
        <time>2024-06-25T22:09:20.479Z</time>
      </trkpt>
      <trkpt lat="46.83201" lon="-0.49954">
        <ele>161.21</ele>
        <time>2024-06-25T22:09:35.118Z</time>
      </trkpt>
      <trkpt lat="46.83204" lon="-0.49952">
        <ele>161.37</ele>
        <time>2024-06-25T22:09:49.758Z</time>
      </trkpt>
      <trkpt lat="46.83207" lon="-0.49949">
        <ele>161.52</ele>
        <time>2024-06-25T22:10:04.398Z</time>
      </trkpt>
      <trkpt lat="46.8321" lon="-0.49946">
        <ele>161.67</ele>
        <time>2024-06-25T22:10:19.039Z</time>
      </trkpt>
      <trkpt lat="46.83212" lon="-0.49944">
        <ele>161.81</ele>
        <time>2024-06-25T22:10:33.681Z</time>
      </trkpt>
      <trkpt lat="46.83215" lon="-0.49941">
        <ele>161.96</ele>
        <time>2024-06-25T22:10:48.323Z</time>
      </trkpt>
      <trkpt lat="46.83218" lon="-0.49938">
        <ele>162.1</ele>
        <time>2024-06-25T22:11:02.966Z</time>
      </trkpt>
      <trkpt lat="46.8322" lon="-0.49934">
        <ele>162.24</ele>
        <time>2024-06-25T22:11:17.610Z</time>
      </trkpt>
      <trkpt lat="46.83223" lon="-0.4993">
        <ele>162.38</ele>
        <time>2024-06-25T22:11:32.254Z</time>
      </trkpt>
      <trkpt lat="46.83225" lon="-0.49926">
        <ele>162.51</ele>
        <time>2024-06-25T22:11:46.899Z</time>
      </trkpt>
      <trkpt lat="46.83228" lon="-0.49922">
        <ele>162.64</ele>
        <time>2024-06-25T22:12:01.545Z</time>
      </trkpt>
      <trkpt lat="46.83231" lon="-0.49918">
        <ele>162.77</ele>
        <time>2024-06-25T22:12:16.192Z</time>
      </trkpt>
      <trkpt lat="46.83234" lon="-0.49915">
        <ele>162.89</ele>
        <time>2024-06-25T22:12:30.840Z</time>
      </trkpt>
      <trkpt lat="46.83236" lon="-0.49911">
        <ele>163</ele>
        <time>2024-06-25T22:12:45.488Z</time>
      </trkpt>
      <trkpt lat="46.83239" lon="-0.49907">
        <ele>163.11</ele>
        <time>2024-06-25T22:13:00.137Z</time>
      </trkpt>
      <trkpt lat="46.83241" lon="-0.49903">
        <ele>163.21</ele>
        <time>2024-06-25T22:13:14.787Z</time>
      </trkpt>
      <trkpt lat="46.83244" lon="-0.49899">
        <ele>163.32</ele>
        <time>2024-06-25T22:13:29.438Z</time>
      </trkpt>
      <trkpt lat="46.83247" lon="-0.49895">
        <ele>163.41</ele>
        <time>2024-06-25T22:13:44.089Z</time>
      </trkpt>
      <trkpt lat="46.83249" lon="-0.49891">
        <ele>163.51</ele>
        <time>2024-06-25T22:13:58.741Z</time>
      </trkpt>
      <trkpt lat="46.83251" lon="-0.49887">
        <ele>163.6</ele>
        <time>2024-06-25T22:14:13.394Z</time>
      </trkpt>
      <trkpt lat="46.83253" lon="-0.49883">
        <ele>163.68</ele>
        <time>2024-06-25T22:14:28.047Z</time>
      </trkpt>
      <trkpt lat="46.83255" lon="-0.49879">
        <ele>163.77</ele>
        <time>2024-06-25T22:14:42.701Z</time>
      </trkpt>
      <trkpt lat="46.83257" lon="-0.49875">
        <ele>163.84</ele>
        <time>2024-06-25T22:14:57.356Z</time>
      </trkpt>
      <trkpt lat="46.83259" lon="-0.4987">
        <ele>163.92</ele>
        <time>2024-06-25T22:15:12.012Z</time>
      </trkpt>
      <trkpt lat="46.83262" lon="-0.49866">
        <ele>163.99</ele>
        <time>2024-06-25T22:15:26.668Z</time>
      </trkpt>
      <trkpt lat="46.83264" lon="-0.49862">
        <ele>164.05</ele>
        <time>2024-06-25T22:15:41.325Z</time>
      </trkpt>
      <trkpt lat="46.83267" lon="-0.49859">
        <ele>164.11</ele>
        <time>2024-06-25T22:15:55.983Z</time>
      </trkpt>
      <trkpt lat="46.8327" lon="-0.49855">
        <ele>164.17</ele>
        <time>2024-06-25T22:16:10.641Z</time>
      </trkpt>
      <trkpt lat="46.83272" lon="-0.49852">
        <ele>164.23</ele>
        <time>2024-06-25T22:16:25.300Z</time>
      </trkpt>
      <trkpt lat="46.83274" lon="-0.49848">
        <ele>164.29</ele>
        <time>2024-06-25T22:16:39.960Z</time>
      </trkpt>
      <trkpt lat="46.83276" lon="-0.49845">
        <ele>164.34</ele>
        <time>2024-06-25T22:16:54.620Z</time>
      </trkpt>
      <trkpt lat="46.83279" lon="-0.49842">
        <ele>164.4</ele>
        <time>2024-06-25T22:17:09.281Z</time>
      </trkpt>
      <trkpt lat="46.83281" lon="-0.49838">
        <ele>164.45</ele>
        <time>2024-06-25T22:17:23.943Z</time>
      </trkpt>
      <trkpt lat="46.83283" lon="-0.49835">
        <ele>164.51</ele>
        <time>2024-06-25T22:17:38.605Z</time>
      </trkpt>
      <trkpt lat="46.83286" lon="-0.49833">
        <ele>164.56</ele>
        <time>2024-06-25T22:17:53.268Z</time>
      </trkpt>
      <trkpt lat="46.83289" lon="-0.49831">
        <ele>164.61</ele>
        <time>2024-06-25T22:18:07.932Z</time>
      </trkpt>
      <trkpt lat="46.83292" lon="-0.49831">
        <ele>164.67</ele>
        <time>2024-06-25T22:18:22.596Z</time>
      </trkpt>
      <trkpt lat="46.83295" lon="-0.4983">
        <ele>164.73</ele>
        <time>2024-06-25T22:18:37.261Z</time>
      </trkpt>
      <trkpt lat="46.83299" lon="-0.49829">
        <ele>164.78</ele>
        <time>2024-06-25T22:18:51.927Z</time>
      </trkpt>
      <trkpt lat="46.83303" lon="-0.49829">
        <ele>164.84</ele>
        <time>2024-06-25T22:19:06.594Z</time>
      </trkpt>
      <trkpt lat="46.83307" lon="-0.49829">
        <ele>164.9</ele>
        <time>2024-06-25T22:19:21.261Z</time>
      </trkpt>
      <trkpt lat="46.83311" lon="-0.49829">
        <ele>164.96</ele>
        <time>2024-06-25T22:19:35.929Z</time>
      </trkpt>
      <trkpt lat="46.83314" lon="-0.49828">
        <ele>165.03</ele>
        <time>2024-06-25T22:19:50.598Z</time>
      </trkpt>
      <trkpt lat="46.83318" lon="-0.49828">
        <ele>165.1</ele>
        <time>2024-06-25T22:20:05.268Z</time>
      </trkpt>
      <trkpt lat="46.83322" lon="-0.49827">
        <ele>165.17</ele>
        <time>2024-06-25T22:20:19.938Z</time>
      </trkpt>
      <trkpt lat="46.83326" lon="-0.49827">
        <ele>165.24</ele>
        <time>2024-06-25T22:20:34.609Z</time>
      </trkpt>
      <trkpt lat="46.83329" lon="-0.49826">
        <ele>165.31</ele>
        <time>2024-06-25T22:20:49.281Z</time>
      </trkpt>
      <trkpt lat="46.83333" lon="-0.49826">
        <ele>165.37</ele>
        <time>2024-06-25T22:21:03.954Z</time>
      </trkpt>
      <trkpt lat="46.83337" lon="-0.49825">
        <ele>165.44</ele>
        <time>2024-06-25T22:21:18.627Z</time>
      </trkpt>
      <trkpt lat="46.83342" lon="-0.49824">
        <ele>165.51</ele>
        <time>2024-06-25T22:21:33.301Z</time>
      </trkpt>
      <trkpt lat="46.83346" lon="-0.49824">
        <ele>165.57</ele>
        <time>2024-06-25T22:21:47.976Z</time>
      </trkpt>
      <trkpt lat="46.83351" lon="-0.49823">
        <ele>165.63</ele>
        <time>2024-06-25T22:22:02.652Z</time>
      </trkpt>
      <trkpt lat="46.83356" lon="-0.49822">
        <ele>165.69</ele>
        <time>2024-06-25T22:22:17.329Z</time>
      </trkpt>
      <trkpt lat="46.8336" lon="-0.49822">
        <ele>165.75</ele>
        <time>2024-06-25T22:22:32.007Z</time>
      </trkpt>
      <trkpt lat="46.83365" lon="-0.49821">
        <ele>165.8</ele>
        <time>2024-06-25T22:22:46.686Z</time>
      </trkpt>
      <trkpt lat="46.83369" lon="-0.49821">
        <ele>165.85</ele>
        <time>2024-06-25T22:23:01.366Z</time>
      </trkpt>
      <trkpt lat="46.83373" lon="-0.4982">
        <ele>165.9</ele>
        <time>2024-06-25T22:23:16.047Z</time>
      </trkpt>
      <trkpt lat="46.83378" lon="-0.4982">
        <ele>165.94</ele>
        <time>2024-06-25T22:23:30.729Z</time>
      </trkpt>
      <trkpt lat="46.83383" lon="-0.4982">
        <ele>165.98</ele>
        <time>2024-06-25T22:23:45.412Z</time>
      </trkpt>
      <trkpt lat="46.83388" lon="-0.49819">
        <ele>166.02</ele>
        <time>2024-06-25T22:24:00.096Z</time>
      </trkpt>
      <trkpt lat="46.83393" lon="-0.49818">
        <ele>166.06</ele>
        <time>2024-06-25T22:24:14.781Z</time>
      </trkpt>
      <trkpt lat="46.83397" lon="-0.49817">
        <ele>166.09</ele>
        <time>2024-06-25T22:24:29.466Z</time>
      </trkpt>
      <trkpt lat="46.83401" lon="-0.49817">
        <ele>166.12</ele>
        <time>2024-06-25T22:24:44.152Z</time>
      </trkpt>
      <trkpt lat="46.83405" lon="-0.49817">
        <ele>166.14</ele>
        <time>2024-06-25T22:24:58.839Z</time>
      </trkpt>
      <trkpt lat="46.83409" lon="-0.49816">
        <ele>166.17</ele>
        <time>2024-06-25T22:25:13.527Z</time>
      </trkpt>
      <trkpt lat="46.83414" lon="-0.49816">
        <ele>166.19</ele>
        <time>2024-06-25T22:25:28.216Z</time>
      </trkpt>
      <trkpt lat="46.83417" lon="-0.49812">
        <ele>166.21</ele>
        <time>2024-06-25T22:25:42.906Z</time>
      </trkpt>
      <trkpt lat="46.8342" lon="-0.49808">
        <ele>166.22</ele>
        <time>2024-06-25T22:25:57.596Z</time>
      </trkpt>
      <trkpt lat="46.83423" lon="-0.49804">
        <ele>166.24</ele>
        <time>2024-06-25T22:26:12.287Z</time>
      </trkpt>
      <trkpt lat="46.83425" lon="-0.498">
        <ele>166.25</ele>
        <time>2024-06-25T22:26:26.979Z</time>
      </trkpt>
      <trkpt lat="46.83428" lon="-0.49796">
        <ele>166.27</ele>
        <time>2024-06-25T22:26:41.672Z</time>
      </trkpt>
      <trkpt lat="46.8343" lon="-0.49794">
        <ele>166.28</ele>
        <time>2024-06-25T22:26:56.365Z</time>
      </trkpt>
      <trkpt lat="46.83433" lon="-0.49793">
        <ele>166.29</ele>
        <time>2024-06-25T22:27:11.059Z</time>
      </trkpt>
      <trkpt lat="46.83435" lon="-0.49792">
        <ele>166.31</ele>
        <time>2024-06-25T22:27:25.753Z</time>
      </trkpt>
      <trkpt lat="46.83435" lon="-0.49792">
        <ele>166.32</ele>
        <time>2024-06-25T22:27:40.447Z</time>
      </trkpt>
      <trkpt lat="46.83435" lon="-0.49792">
        <ele>166.33</ele>
        <time>2024-06-25T22:27:55.141Z</time>
      </trkpt>
    </trkseg>
  </trk>
</gpx>